<?xml version="1.0" encoding="UTF-8" standalone="no" ?>
<gpx xmlns="http://www.topografix.com/GPX/1/1" xmlns:xsi="http://www.w3.org/2001/XMLSchema-instance" xsi:schemaLocation="http://www.topografix.com/GPX/1/1 http://www.topografix.com/GPX/1/1/gpx.xsd" version="1.1" creator="VisuGPX - https://www.visugpx.com">
  <metadata>
    <name>23-08-03</name>
    <desc><![CDATA[ADV]]></desc>
  </metadata>
  <trk>
    <name><![CDATA[Chaux-Neuve Cyclisme sur route]]></name>
    <trkseg>
      <trkpt lat="46.67961" lon="6.13293">
        <ele>995.20001220703</ele>
        <time>2023-08-03T04:06:02.000Z</time>
      </trkpt>
      <trkpt lat="46.67961" lon="6.13293">
        <ele>998.79998779297</ele>
        <time>2023-08-03T04:06:03.000Z</time>
      </trkpt>
      <trkpt lat="46.67963" lon="6.13295">
        <ele>999.40002441406</ele>
        <time>2023-08-03T04:06:11.000Z</time>
      </trkpt>
      <trkpt lat="46.67964" lon="6.13301">
        <ele>999.59997558594</ele>
        <time>2023-08-03T04:06:13.000Z</time>
      </trkpt>
      <trkpt lat="46.67973" lon="6.13317">
        <ele>999.40002441406</ele>
        <time>2023-08-03T04:06:19.000Z</time>
      </trkpt>
      <trkpt lat="46.67981" lon="6.13338">
        <ele>999</ele>
        <time>2023-08-03T04:06:26.000Z</time>
      </trkpt>
      <trkpt lat="46.67998" lon="6.13363">
        <ele>999.59997558594</ele>
        <time>2023-08-03T04:06:35.000Z</time>
      </trkpt>
      <trkpt lat="46.68015" lon="6.13382">
        <ele>1000.200012207</ele>
        <time>2023-08-03T04:06:42.000Z</time>
      </trkpt>
      <trkpt lat="46.68023" lon="6.13388">
        <ele>1000.799987793</ele>
        <time>2023-08-03T04:06:45.000Z</time>
      </trkpt>
      <trkpt lat="46.68035" lon="6.13398">
        <ele>1001.4000244141</ele>
        <time>2023-08-03T04:06:49.000Z</time>
      </trkpt>
      <trkpt lat="46.68063" lon="6.13421">
        <ele>1001.5999755859</ele>
        <time>2023-08-03T04:06:58.000Z</time>
      </trkpt>
      <trkpt lat="46.68067" lon="6.13424">
        <ele>1001.5999755859</ele>
        <time>2023-08-03T04:06:59.000Z</time>
      </trkpt>
      <trkpt lat="46.68074" lon="6.1343">
        <ele>1001.4000244141</ele>
        <time>2023-08-03T04:07:01.000Z</time>
      </trkpt>
      <trkpt lat="46.68084" lon="6.13434">
        <ele>1001</ele>
        <time>2023-08-03T04:07:03.000Z</time>
      </trkpt>
      <trkpt lat="46.68109" lon="6.13439">
        <ele>1000.5999755859</ele>
        <time>2023-08-03T04:07:08.000Z</time>
      </trkpt>
      <trkpt lat="46.68129" lon="6.13444">
        <ele>1000.200012207</ele>
        <time>2023-08-03T04:07:12.000Z</time>
      </trkpt>
      <trkpt lat="46.68138" lon="6.13445">
        <ele>1000.200012207</ele>
        <time>2023-08-03T04:07:14.000Z</time>
      </trkpt>
      <trkpt lat="46.68169" lon="6.13453">
        <ele>1000</ele>
        <time>2023-08-03T04:07:20.000Z</time>
      </trkpt>
      <trkpt lat="46.68198" lon="6.13446">
        <ele>999.79998779297</ele>
        <time>2023-08-03T04:07:25.000Z</time>
      </trkpt>
      <trkpt lat="46.68217" lon="6.13445">
        <ele>999.59997558594</ele>
        <time>2023-08-03T04:07:28.000Z</time>
      </trkpt>
      <trkpt lat="46.68235" lon="6.13448">
        <ele>999.59997558594</ele>
        <time>2023-08-03T04:07:31.000Z</time>
      </trkpt>
      <trkpt lat="46.68287" lon="6.13463">
        <ele>999.40002441406</ele>
        <time>2023-08-03T04:07:40.000Z</time>
      </trkpt>
      <trkpt lat="46.6832" lon="6.1349">
        <ele>999.40002441406</ele>
        <time>2023-08-03T04:07:46.000Z</time>
      </trkpt>
      <trkpt lat="46.68368" lon="6.13532">
        <ele>999.20001220703</ele>
        <time>2023-08-03T04:07:55.000Z</time>
      </trkpt>
      <trkpt lat="46.68397" lon="6.13562">
        <ele>999.40002441406</ele>
        <time>2023-08-03T04:08:01.000Z</time>
      </trkpt>
      <trkpt lat="46.68401" lon="6.13567">
        <ele>999.59997558594</ele>
        <time>2023-08-03T04:08:02.000Z</time>
      </trkpt>
      <trkpt lat="46.68418" lon="6.13591">
        <ele>1000.200012207</ele>
        <time>2023-08-03T04:08:07.000Z</time>
      </trkpt>
      <trkpt lat="46.68428" lon="6.13604">
        <ele>1000.799987793</ele>
        <time>2023-08-03T04:08:10.000Z</time>
      </trkpt>
      <trkpt lat="46.68442" lon="6.13627">
        <ele>1002</ele>
        <time>2023-08-03T04:08:15.000Z</time>
      </trkpt>
      <trkpt lat="46.68457" lon="6.13654">
        <ele>1003.200012207</ele>
        <time>2023-08-03T04:08:21.000Z</time>
      </trkpt>
      <trkpt lat="46.68461" lon="6.13663">
        <ele>1003.4000244141</ele>
        <time>2023-08-03T04:08:23.000Z</time>
      </trkpt>
      <trkpt lat="46.68469" lon="6.13684">
        <ele>1004.200012207</ele>
        <time>2023-08-03T04:08:27.000Z</time>
      </trkpt>
      <trkpt lat="46.68472" lon="6.13692">
        <ele>1004.5999755859</ele>
        <time>2023-08-03T04:08:29.000Z</time>
      </trkpt>
      <trkpt lat="46.68482" lon="6.13709">
        <ele>1005.200012207</ele>
        <time>2023-08-03T04:08:33.000Z</time>
      </trkpt>
      <trkpt lat="46.68485" lon="6.13711">
        <ele>1005.200012207</ele>
        <time>2023-08-03T04:08:34.000Z</time>
      </trkpt>
      <trkpt lat="46.68496" lon="6.13705">
        <ele>1005.799987793</ele>
        <time>2023-08-03T04:08:37.000Z</time>
      </trkpt>
      <trkpt lat="46.68502" lon="6.13697">
        <ele>1006.4000244141</ele>
        <time>2023-08-03T04:08:40.000Z</time>
      </trkpt>
      <trkpt lat="46.68506" lon="6.13694">
        <ele>1006.799987793</ele>
        <time>2023-08-03T04:08:42.000Z</time>
      </trkpt>
      <trkpt lat="46.68517" lon="6.13691">
        <ele>1007.5999755859</ele>
        <time>2023-08-03T04:08:46.000Z</time>
      </trkpt>
      <trkpt lat="46.68519" lon="6.13692">
        <ele>1007.5999755859</ele>
        <time>2023-08-03T04:08:47.000Z</time>
      </trkpt>
      <trkpt lat="46.68533" lon="6.13694">
        <ele>1008.5999755859</ele>
        <time>2023-08-03T04:08:52.000Z</time>
      </trkpt>
      <trkpt lat="46.68538" lon="6.13697">
        <ele>1009</ele>
        <time>2023-08-03T04:08:54.000Z</time>
      </trkpt>
      <trkpt lat="46.68543" lon="6.13702">
        <ele>1009.4000244141</ele>
        <time>2023-08-03T04:08:56.000Z</time>
      </trkpt>
      <trkpt lat="46.68547" lon="6.13706">
        <ele>1010</ele>
        <time>2023-08-03T04:08:58.000Z</time>
      </trkpt>
      <trkpt lat="46.68552" lon="6.13717">
        <ele>1010.5999755859</ele>
        <time>2023-08-03T04:09:01.000Z</time>
      </trkpt>
      <trkpt lat="46.68555" lon="6.13723">
        <ele>1011.200012207</ele>
        <time>2023-08-03T04:09:03.000Z</time>
      </trkpt>
      <trkpt lat="46.68564" lon="6.13741">
        <ele>1012.200012207</ele>
        <time>2023-08-03T04:09:08.000Z</time>
      </trkpt>
      <trkpt lat="46.68573" lon="6.13762">
        <ele>1013.200012207</ele>
        <time>2023-08-03T04:09:14.000Z</time>
      </trkpt>
      <trkpt lat="46.68579" lon="6.13775">
        <ele>1014.200012207</ele>
        <time>2023-08-03T04:09:18.000Z</time>
      </trkpt>
      <trkpt lat="46.68581" lon="6.13779">
        <ele>1014.5999755859</ele>
        <time>2023-08-03T04:09:19.000Z</time>
      </trkpt>
      <trkpt lat="46.6859" lon="6.138">
        <ele>1015.4000244141</ele>
        <time>2023-08-03T04:09:25.000Z</time>
      </trkpt>
      <trkpt lat="46.68592" lon="6.13804">
        <ele>1015.5999755859</ele>
        <time>2023-08-03T04:09:26.000Z</time>
      </trkpt>
      <trkpt lat="46.68601" lon="6.13825">
        <ele>1016.799987793</ele>
        <time>2023-08-03T04:09:32.000Z</time>
      </trkpt>
      <trkpt lat="46.68602" lon="6.13829">
        <ele>1017</ele>
        <time>2023-08-03T04:09:33.000Z</time>
      </trkpt>
      <trkpt lat="46.68611" lon="6.13851">
        <ele>1017.799987793</ele>
        <time>2023-08-03T04:09:39.000Z</time>
      </trkpt>
      <trkpt lat="46.68618" lon="6.13865">
        <ele>1018.200012207</ele>
        <time>2023-08-03T04:09:43.000Z</time>
      </trkpt>
      <trkpt lat="46.68626" lon="6.13884">
        <ele>1019</ele>
        <time>2023-08-03T04:09:48.000Z</time>
      </trkpt>
      <trkpt lat="46.6863" lon="6.13891">
        <ele>1019</ele>
        <time>2023-08-03T04:09:50.000Z</time>
      </trkpt>
      <trkpt lat="46.68632" lon="6.13895">
        <ele>1019.200012207</ele>
        <time>2023-08-03T04:09:51.000Z</time>
      </trkpt>
      <trkpt lat="46.68646" lon="6.1392">
        <ele>1020</ele>
        <time>2023-08-03T04:09:58.000Z</time>
      </trkpt>
      <trkpt lat="46.68648" lon="6.13924">
        <ele>1020</ele>
        <time>2023-08-03T04:09:59.000Z</time>
      </trkpt>
      <trkpt lat="46.68661" lon="6.1395">
        <ele>1021</ele>
        <time>2023-08-03T04:10:06.000Z</time>
      </trkpt>
      <trkpt lat="46.68665" lon="6.13957">
        <ele>1021.200012207</ele>
        <time>2023-08-03T04:10:08.000Z</time>
      </trkpt>
      <trkpt lat="46.68679" lon="6.13984">
        <ele>1022.200012207</ele>
        <time>2023-08-03T04:10:15.000Z</time>
      </trkpt>
      <trkpt lat="46.68683" lon="6.13992">
        <ele>1022.5999755859</ele>
        <time>2023-08-03T04:10:17.000Z</time>
      </trkpt>
      <trkpt lat="46.68693" lon="6.14012">
        <ele>1023.4000244141</ele>
        <time>2023-08-03T04:10:22.000Z</time>
      </trkpt>
      <trkpt lat="46.68699" lon="6.14022">
        <ele>1024</ele>
        <time>2023-08-03T04:10:25.000Z</time>
      </trkpt>
      <trkpt lat="46.68703" lon="6.14031">
        <ele>1024.4000244141</ele>
        <time>2023-08-03T04:10:27.000Z</time>
      </trkpt>
      <trkpt lat="46.68709" lon="6.14041">
        <ele>1025.1999511719</ele>
        <time>2023-08-03T04:10:30.000Z</time>
      </trkpt>
      <trkpt lat="46.68713" lon="6.14051">
        <ele>1025.4000244141</ele>
        <time>2023-08-03T04:10:32.000Z</time>
      </trkpt>
      <trkpt lat="46.6873" lon="6.14085">
        <ele>1026.4000244141</ele>
        <time>2023-08-03T04:10:41.000Z</time>
      </trkpt>
      <trkpt lat="46.68733" lon="6.14088">
        <ele>1026.8000488281</ele>
        <time>2023-08-03T04:10:42.000Z</time>
      </trkpt>
      <trkpt lat="46.68743" lon="6.14096">
        <ele>1027.8000488281</ele>
        <time>2023-08-03T04:10:46.000Z</time>
      </trkpt>
      <trkpt lat="46.68746" lon="6.14098">
        <ele>1028</ele>
        <time>2023-08-03T04:10:47.000Z</time>
      </trkpt>
      <trkpt lat="46.68763" lon="6.14099">
        <ele>1028.8000488281</ele>
        <time>2023-08-03T04:10:53.000Z</time>
      </trkpt>
      <trkpt lat="46.68766" lon="6.14097">
        <ele>1029.1999511719</ele>
        <time>2023-08-03T04:10:54.000Z</time>
      </trkpt>
      <trkpt lat="46.68774" lon="6.14084">
        <ele>1030</ele>
        <time>2023-08-03T04:10:58.000Z</time>
      </trkpt>
      <trkpt lat="46.68775" lon="6.14081">
        <ele>1030.1999511719</ele>
        <time>2023-08-03T04:10:59.000Z</time>
      </trkpt>
      <trkpt lat="46.68782" lon="6.1406">
        <ele>1031.1999511719</ele>
        <time>2023-08-03T04:11:04.000Z</time>
      </trkpt>
      <trkpt lat="46.68783" lon="6.14056">
        <ele>1031.4000244141</ele>
        <time>2023-08-03T04:11:05.000Z</time>
      </trkpt>
      <trkpt lat="46.68786" lon="6.14047">
        <ele>1031.5999755859</ele>
        <time>2023-08-03T04:11:07.000Z</time>
      </trkpt>
      <trkpt lat="46.68798" lon="6.1402">
        <ele>1032.4000244141</ele>
        <time>2023-08-03T04:11:14.000Z</time>
      </trkpt>
      <trkpt lat="46.68817" lon="6.14">
        <ele>1033.4000244141</ele>
        <time>2023-08-03T04:11:22.000Z</time>
      </trkpt>
      <trkpt lat="46.68833" lon="6.13994">
        <ele>1034.4000244141</ele>
        <time>2023-08-03T04:11:28.000Z</time>
      </trkpt>
      <trkpt lat="46.6884" lon="6.13993">
        <ele>1034.5999755859</ele>
        <time>2023-08-03T04:11:30.000Z</time>
      </trkpt>
      <trkpt lat="46.68861" lon="6.13994">
        <ele>1035</ele>
        <time>2023-08-03T04:11:36.000Z</time>
      </trkpt>
      <trkpt lat="46.68887" lon="6.13996">
        <ele>1035</ele>
        <time>2023-08-03T04:11:42.000Z</time>
      </trkpt>
      <trkpt lat="46.68918" lon="6.13992">
        <ele>1034.8000488281</ele>
        <time>2023-08-03T04:11:49.000Z</time>
      </trkpt>
      <trkpt lat="46.68951" lon="6.13978">
        <ele>1034.8000488281</ele>
        <time>2023-08-03T04:11:56.000Z</time>
      </trkpt>
      <trkpt lat="46.68994" lon="6.13949">
        <ele>1035</ele>
        <time>2023-08-03T04:12:05.000Z</time>
      </trkpt>
      <trkpt lat="46.69014" lon="6.13934">
        <ele>1034.8000488281</ele>
        <time>2023-08-03T04:12:09.000Z</time>
      </trkpt>
      <trkpt lat="46.69045" lon="6.13911">
        <ele>1034.4000244141</ele>
        <time>2023-08-03T04:12:15.000Z</time>
      </trkpt>
      <trkpt lat="46.69097" lon="6.13871">
        <ele>1034.1999511719</ele>
        <time>2023-08-03T04:12:25.000Z</time>
      </trkpt>
      <trkpt lat="46.69103" lon="6.13867">
        <ele>1034</ele>
        <time>2023-08-03T04:12:26.000Z</time>
      </trkpt>
      <trkpt lat="46.69142" lon="6.13837">
        <ele>1033.5999755859</ele>
        <time>2023-08-03T04:12:33.000Z</time>
      </trkpt>
      <trkpt lat="46.69176" lon="6.13809">
        <ele>1033</ele>
        <time>2023-08-03T04:12:39.000Z</time>
      </trkpt>
      <trkpt lat="46.69229" lon="6.13766">
        <ele>1032.5999755859</ele>
        <time>2023-08-03T04:12:48.000Z</time>
      </trkpt>
      <trkpt lat="46.69235" lon="6.13761">
        <ele>1032.5999755859</ele>
        <time>2023-08-03T04:12:49.000Z</time>
      </trkpt>
      <trkpt lat="46.69285" lon="6.13722">
        <ele>1032.1999511719</ele>
        <time>2023-08-03T04:12:57.000Z</time>
      </trkpt>
      <trkpt lat="46.69291" lon="6.13717">
        <ele>1032</ele>
        <time>2023-08-03T04:12:58.000Z</time>
      </trkpt>
      <trkpt lat="46.69315" lon="6.137">
        <ele>1032</ele>
        <time>2023-08-03T04:13:02.000Z</time>
      </trkpt>
      <trkpt lat="46.6932" lon="6.13698">
        <ele>1032.1999511719</ele>
        <time>2023-08-03T04:13:03.000Z</time>
      </trkpt>
      <trkpt lat="46.69328" lon="6.13696">
        <ele>1032.4000244141</ele>
        <time>2023-08-03T04:13:05.000Z</time>
      </trkpt>
      <trkpt lat="46.69343" lon="6.13693">
        <ele>1033.4000244141</ele>
        <time>2023-08-03T04:13:08.000Z</time>
      </trkpt>
      <trkpt lat="46.69352" lon="6.1369">
        <ele>1033.8000488281</ele>
        <time>2023-08-03T04:13:10.000Z</time>
      </trkpt>
      <trkpt lat="46.69377" lon="6.13688">
        <ele>1035</ele>
        <time>2023-08-03T04:13:15.000Z</time>
      </trkpt>
      <trkpt lat="46.69382" lon="6.13688">
        <ele>1035</ele>
        <time>2023-08-03T04:13:16.000Z</time>
      </trkpt>
      <trkpt lat="46.69408" lon="6.13692">
        <ele>1035.4000244141</ele>
        <time>2023-08-03T04:13:21.000Z</time>
      </trkpt>
      <trkpt lat="46.69435" lon="6.13696">
        <ele>1035.5999755859</ele>
        <time>2023-08-03T04:13:26.000Z</time>
      </trkpt>
      <trkpt lat="46.69446" lon="6.13698">
        <ele>1035.8000488281</ele>
        <time>2023-08-03T04:13:28.000Z</time>
      </trkpt>
      <trkpt lat="46.69473" lon="6.13702">
        <ele>1036.1999511719</ele>
        <time>2023-08-03T04:13:33.000Z</time>
      </trkpt>
      <trkpt lat="46.69499" lon="6.13705">
        <ele>1036.4000244141</ele>
        <time>2023-08-03T04:13:38.000Z</time>
      </trkpt>
      <trkpt lat="46.69553" lon="6.13707">
        <ele>1036.4000244141</ele>
        <time>2023-08-03T04:13:47.000Z</time>
      </trkpt>
      <trkpt lat="46.69587" lon="6.13711">
        <ele>1036.4000244141</ele>
        <time>2023-08-03T04:13:53.000Z</time>
      </trkpt>
      <trkpt lat="46.69606" lon="6.13713">
        <ele>1036.8000488281</ele>
        <time>2023-08-03T04:13:57.000Z</time>
      </trkpt>
      <trkpt lat="46.6961" lon="6.13714">
        <ele>1037</ele>
        <time>2023-08-03T04:13:58.000Z</time>
      </trkpt>
      <trkpt lat="46.69623" lon="6.13715">
        <ele>1037.5999755859</ele>
        <time>2023-08-03T04:14:01.000Z</time>
      </trkpt>
      <trkpt lat="46.69626" lon="6.13716">
        <ele>1038.1999511719</ele>
        <time>2023-08-03T04:14:02.000Z</time>
      </trkpt>
      <trkpt lat="46.69631" lon="6.13716">
        <ele>1038.4000244141</ele>
        <time>2023-08-03T04:14:03.000Z</time>
      </trkpt>
      <trkpt lat="46.69635" lon="6.13716">
        <ele>1038.8000488281</ele>
        <time>2023-08-03T04:14:04.000Z</time>
      </trkpt>
      <trkpt lat="46.69639" lon="6.13716">
        <ele>1039</ele>
        <time>2023-08-03T04:14:05.000Z</time>
      </trkpt>
      <trkpt lat="46.69643" lon="6.13715">
        <ele>1039.4000244141</ele>
        <time>2023-08-03T04:14:06.000Z</time>
      </trkpt>
      <trkpt lat="46.69652" lon="6.13712">
        <ele>1039.8000488281</ele>
        <time>2023-08-03T04:14:08.000Z</time>
      </trkpt>
      <trkpt lat="46.69656" lon="6.13711">
        <ele>1040</ele>
        <time>2023-08-03T04:14:09.000Z</time>
      </trkpt>
      <trkpt lat="46.69664" lon="6.13707">
        <ele>1040.1999511719</ele>
        <time>2023-08-03T04:14:11.000Z</time>
      </trkpt>
      <trkpt lat="46.69668" lon="6.13704">
        <ele>1040.4000244141</ele>
        <time>2023-08-03T04:14:12.000Z</time>
      </trkpt>
      <trkpt lat="46.69685" lon="6.13693">
        <ele>1041.1999511719</ele>
        <time>2023-08-03T04:14:16.000Z</time>
      </trkpt>
      <trkpt lat="46.6969" lon="6.1369">
        <ele>1041.4000244141</ele>
        <time>2023-08-03T04:14:17.000Z</time>
      </trkpt>
      <trkpt lat="46.69698" lon="6.13685">
        <ele>1042</ele>
        <time>2023-08-03T04:14:19.000Z</time>
      </trkpt>
      <trkpt lat="46.69706" lon="6.13678">
        <ele>1042.4000244141</ele>
        <time>2023-08-03T04:14:21.000Z</time>
      </trkpt>
      <trkpt lat="46.6971" lon="6.13674">
        <ele>1042.4000244141</ele>
        <time>2023-08-03T04:14:22.000Z</time>
      </trkpt>
      <trkpt lat="46.69718" lon="6.13665">
        <ele>1042.8000488281</ele>
        <time>2023-08-03T04:14:24.000Z</time>
      </trkpt>
      <trkpt lat="46.69725" lon="6.13656">
        <ele>1042.5999755859</ele>
        <time>2023-08-03T04:14:26.000Z</time>
      </trkpt>
      <trkpt lat="46.69732" lon="6.13648">
        <ele>1043</ele>
        <time>2023-08-03T04:14:28.000Z</time>
      </trkpt>
      <trkpt lat="46.69739" lon="6.13638">
        <ele>1043.1999511719</ele>
        <time>2023-08-03T04:14:30.000Z</time>
      </trkpt>
      <trkpt lat="46.69742" lon="6.13635">
        <ele>1043.4000244141</ele>
        <time>2023-08-03T04:14:31.000Z</time>
      </trkpt>
      <trkpt lat="46.6976" lon="6.13617">
        <ele>1044</ele>
        <time>2023-08-03T04:14:36.000Z</time>
      </trkpt>
      <trkpt lat="46.69774" lon="6.13602">
        <ele>1044.4000244141</ele>
        <time>2023-08-03T04:14:40.000Z</time>
      </trkpt>
      <trkpt lat="46.69784" lon="6.13592">
        <ele>1044.8000488281</ele>
        <time>2023-08-03T04:14:43.000Z</time>
      </trkpt>
      <trkpt lat="46.69788" lon="6.13588">
        <ele>1045</ele>
        <time>2023-08-03T04:14:44.000Z</time>
      </trkpt>
      <trkpt lat="46.69801" lon="6.13574">
        <ele>1045.4000244141</ele>
        <time>2023-08-03T04:14:48.000Z</time>
      </trkpt>
      <trkpt lat="46.69816" lon="6.13552">
        <ele>1046.1999511719</ele>
        <time>2023-08-03T04:14:54.000Z</time>
      </trkpt>
      <trkpt lat="46.69818" lon="6.13549">
        <ele>1046.5999755859</ele>
        <time>2023-08-03T04:14:55.000Z</time>
      </trkpt>
      <trkpt lat="46.69822" lon="6.13532">
        <ele>1047.5999755859</ele>
        <time>2023-08-03T04:14:59.000Z</time>
      </trkpt>
      <trkpt lat="46.69823" lon="6.13528">
        <ele>1048</ele>
        <time>2023-08-03T04:15:00.000Z</time>
      </trkpt>
      <trkpt lat="46.69827" lon="6.13516">
        <ele>1048.8000488281</ele>
        <time>2023-08-03T04:15:03.000Z</time>
      </trkpt>
      <trkpt lat="46.69831" lon="6.13498">
        <ele>1049.5999755859</ele>
        <time>2023-08-03T04:15:07.000Z</time>
      </trkpt>
      <trkpt lat="46.69831" lon="6.13493">
        <ele>1049.8000488281</ele>
        <time>2023-08-03T04:15:08.000Z</time>
      </trkpt>
      <trkpt lat="46.69832" lon="6.13489">
        <ele>1050</ele>
        <time>2023-08-03T04:15:09.000Z</time>
      </trkpt>
      <trkpt lat="46.69838" lon="6.13471">
        <ele>1051</ele>
        <time>2023-08-03T04:15:13.000Z</time>
      </trkpt>
      <trkpt lat="46.69839" lon="6.13467">
        <ele>1051.1999511719</ele>
        <time>2023-08-03T04:15:14.000Z</time>
      </trkpt>
      <trkpt lat="46.69845" lon="6.13449">
        <ele>1052.1999511719</ele>
        <time>2023-08-03T04:15:18.000Z</time>
      </trkpt>
      <trkpt lat="46.69852" lon="6.13426">
        <ele>1053.1999511719</ele>
        <time>2023-08-03T04:15:23.000Z</time>
      </trkpt>
      <trkpt lat="46.69853" lon="6.13421">
        <ele>1053.4000244141</ele>
        <time>2023-08-03T04:15:24.000Z</time>
      </trkpt>
      <trkpt lat="46.69859" lon="6.13399">
        <ele>1054.4000244141</ele>
        <time>2023-08-03T04:15:29.000Z</time>
      </trkpt>
      <trkpt lat="46.69863" lon="6.13386">
        <ele>1055</ele>
        <time>2023-08-03T04:15:32.000Z</time>
      </trkpt>
      <trkpt lat="46.69865" lon="6.13381">
        <ele>1055.4000244141</ele>
        <time>2023-08-03T04:15:33.000Z</time>
      </trkpt>
      <trkpt lat="46.69875" lon="6.13359">
        <ele>1056.4000244141</ele>
        <time>2023-08-03T04:15:38.000Z</time>
      </trkpt>
      <trkpt lat="46.69882" lon="6.13348">
        <ele>1056.8000488281</ele>
        <time>2023-08-03T04:15:41.000Z</time>
      </trkpt>
      <trkpt lat="46.69894" lon="6.13332">
        <ele>1057.5999755859</ele>
        <time>2023-08-03T04:15:45.000Z</time>
      </trkpt>
      <trkpt lat="46.69915" lon="6.1331">
        <ele>1058.4000244141</ele>
        <time>2023-08-03T04:15:52.000Z</time>
      </trkpt>
      <trkpt lat="46.69921" lon="6.13305">
        <ele>1058.8000488281</ele>
        <time>2023-08-03T04:15:54.000Z</time>
      </trkpt>
      <trkpt lat="46.69947" lon="6.1328">
        <ele>1059.8000488281</ele>
        <time>2023-08-03T04:16:02.000Z</time>
      </trkpt>
      <trkpt lat="46.69951" lon="6.13276">
        <ele>1059.8000488281</ele>
        <time>2023-08-03T04:16:03.000Z</time>
      </trkpt>
      <trkpt lat="46.69967" lon="6.1326">
        <ele>1060.1999511719</ele>
        <time>2023-08-03T04:16:08.000Z</time>
      </trkpt>
      <trkpt lat="46.69996" lon="6.1324">
        <ele>1060.8000488281</ele>
        <time>2023-08-03T04:16:16.000Z</time>
      </trkpt>
      <trkpt lat="46.70001" lon="6.13238">
        <ele>1061</ele>
        <time>2023-08-03T04:16:17.000Z</time>
      </trkpt>
      <trkpt lat="46.70014" lon="6.13234">
        <ele>1061</ele>
        <time>2023-08-03T04:16:20.000Z</time>
      </trkpt>
      <trkpt lat="46.70033" lon="6.13232">
        <ele>1061.5999755859</ele>
        <time>2023-08-03T04:16:24.000Z</time>
      </trkpt>
      <trkpt lat="46.70046" lon="6.13232">
        <ele>1061.8000488281</ele>
        <time>2023-08-03T04:16:27.000Z</time>
      </trkpt>
      <trkpt lat="46.70068" lon="6.13235">
        <ele>1061.8000488281</ele>
        <time>2023-08-03T04:16:31.000Z</time>
      </trkpt>
      <trkpt lat="46.70095" lon="6.13245">
        <ele>1061.4000244141</ele>
        <time>2023-08-03T04:16:35.000Z</time>
      </trkpt>
      <trkpt lat="46.70102" lon="6.13249">
        <ele>1061</ele>
        <time>2023-08-03T04:16:36.000Z</time>
      </trkpt>
      <trkpt lat="46.70116" lon="6.1326">
        <ele>1060.4000244141</ele>
        <time>2023-08-03T04:16:38.000Z</time>
      </trkpt>
      <trkpt lat="46.70123" lon="6.13268">
        <ele>1059.8000488281</ele>
        <time>2023-08-03T04:16:39.000Z</time>
      </trkpt>
      <trkpt lat="46.7013" lon="6.13276">
        <ele>1059.4000244141</ele>
        <time>2023-08-03T04:16:40.000Z</time>
      </trkpt>
      <trkpt lat="46.70141" lon="6.13294">
        <ele>1058.5999755859</ele>
        <time>2023-08-03T04:16:42.000Z</time>
      </trkpt>
      <trkpt lat="46.7016" lon="6.13327">
        <ele>1057.1999511719</ele>
        <time>2023-08-03T04:16:45.000Z</time>
      </trkpt>
      <trkpt lat="46.70172" lon="6.13349">
        <ele>1056.1999511719</ele>
        <time>2023-08-03T04:16:47.000Z</time>
      </trkpt>
      <trkpt lat="46.70179" lon="6.13359">
        <ele>1055</ele>
        <time>2023-08-03T04:16:48.000Z</time>
      </trkpt>
      <trkpt lat="46.70187" lon="6.13368">
        <ele>1054.1999511719</ele>
        <time>2023-08-03T04:16:49.000Z</time>
      </trkpt>
      <trkpt lat="46.70195" lon="6.13374">
        <ele>1053.8000488281</ele>
        <time>2023-08-03T04:16:50.000Z</time>
      </trkpt>
      <trkpt lat="46.70214" lon="6.13379">
        <ele>1053</ele>
        <time>2023-08-03T04:16:52.000Z</time>
      </trkpt>
      <trkpt lat="46.70223" lon="6.13379">
        <ele>1052</ele>
        <time>2023-08-03T04:16:53.000Z</time>
      </trkpt>
      <trkpt lat="46.70231" lon="6.13377">
        <ele>1050.8000488281</ele>
        <time>2023-08-03T04:16:54.000Z</time>
      </trkpt>
      <trkpt lat="46.7025" lon="6.13375">
        <ele>1049.4000244141</ele>
        <time>2023-08-03T04:16:56.000Z</time>
      </trkpt>
      <trkpt lat="46.7026" lon="6.13374">
        <ele>1049</ele>
        <time>2023-08-03T04:16:57.000Z</time>
      </trkpt>
      <trkpt lat="46.7027" lon="6.13372">
        <ele>1048.1999511719</ele>
        <time>2023-08-03T04:16:58.000Z</time>
      </trkpt>
      <trkpt lat="46.70282" lon="6.13371">
        <ele>1047.5999755859</ele>
        <time>2023-08-03T04:16:59.000Z</time>
      </trkpt>
      <trkpt lat="46.7029" lon="6.13372">
        <ele>1047.1999511719</ele>
        <time>2023-08-03T04:17:00.000Z</time>
      </trkpt>
      <trkpt lat="46.70302" lon="6.13375">
        <ele>1046.5999755859</ele>
        <time>2023-08-03T04:17:01.000Z</time>
      </trkpt>
      <trkpt lat="46.70318" lon="6.13388">
        <ele>1045.1999511719</ele>
        <time>2023-08-03T04:17:03.000Z</time>
      </trkpt>
      <trkpt lat="46.70326" lon="6.13398">
        <ele>1044</ele>
        <time>2023-08-03T04:17:04.000Z</time>
      </trkpt>
      <trkpt lat="46.70333" lon="6.13411">
        <ele>1043.5999755859</ele>
        <time>2023-08-03T04:17:05.000Z</time>
      </trkpt>
      <trkpt lat="46.70339" lon="6.13425">
        <ele>1042</ele>
        <time>2023-08-03T04:17:06.000Z</time>
      </trkpt>
      <trkpt lat="46.70342" lon="6.1344">
        <ele>1041.4000244141</ele>
        <time>2023-08-03T04:17:07.000Z</time>
      </trkpt>
      <trkpt lat="46.70343" lon="6.13455">
        <ele>1040</ele>
        <time>2023-08-03T04:17:08.000Z</time>
      </trkpt>
      <trkpt lat="46.70343" lon="6.13485">
        <ele>1038.5999755859</ele>
        <time>2023-08-03T04:17:10.000Z</time>
      </trkpt>
      <trkpt lat="46.70342" lon="6.13531">
        <ele>1037.4000244141</ele>
        <time>2023-08-03T04:17:13.000Z</time>
      </trkpt>
      <trkpt lat="46.70342" lon="6.13554">
        <ele>1037.1999511719</ele>
        <time>2023-08-03T04:17:15.000Z</time>
      </trkpt>
      <trkpt lat="46.70345" lon="6.13591">
        <ele>1037.1999511719</ele>
        <time>2023-08-03T04:17:18.000Z</time>
      </trkpt>
      <trkpt lat="46.70347" lon="6.13603">
        <ele>1037</ele>
        <time>2023-08-03T04:17:19.000Z</time>
      </trkpt>
      <trkpt lat="46.70366" lon="6.13656">
        <ele>1036.8000488281</ele>
        <time>2023-08-03T04:17:24.000Z</time>
      </trkpt>
      <trkpt lat="46.7039" lon="6.13717">
        <ele>1036.4000244141</ele>
        <time>2023-08-03T04:17:30.000Z</time>
      </trkpt>
      <trkpt lat="46.70398" lon="6.13737">
        <ele>1036</ele>
        <time>2023-08-03T04:17:32.000Z</time>
      </trkpt>
      <trkpt lat="46.70408" lon="6.13768">
        <ele>1035.4000244141</ele>
        <time>2023-08-03T04:17:35.000Z</time>
      </trkpt>
      <trkpt lat="46.7041" lon="6.13779">
        <ele>1035.1999511719</ele>
        <time>2023-08-03T04:17:36.000Z</time>
      </trkpt>
      <trkpt lat="46.70411" lon="6.1379">
        <ele>1035.1999511719</ele>
        <time>2023-08-03T04:17:37.000Z</time>
      </trkpt>
      <trkpt lat="46.70412" lon="6.13836">
        <ele>1034.5999755859</ele>
        <time>2023-08-03T04:17:41.000Z</time>
      </trkpt>
      <trkpt lat="46.70409" lon="6.13859">
        <ele>1034.1999511719</ele>
        <time>2023-08-03T04:17:43.000Z</time>
      </trkpt>
      <trkpt lat="46.70402" lon="6.13915">
        <ele>1033.1999511719</ele>
        <time>2023-08-03T04:17:48.000Z</time>
      </trkpt>
      <trkpt lat="46.704" lon="6.13969">
        <ele>1032.4000244141</ele>
        <time>2023-08-03T04:17:53.000Z</time>
      </trkpt>
      <trkpt lat="46.70401" lon="6.13979">
        <ele>1032.4000244141</ele>
        <time>2023-08-03T04:17:54.000Z</time>
      </trkpt>
      <trkpt lat="46.70402" lon="6.13989">
        <ele>1032.4000244141</ele>
        <time>2023-08-03T04:17:55.000Z</time>
      </trkpt>
      <trkpt lat="46.70409" lon="6.14018">
        <ele>1032.4000244141</ele>
        <time>2023-08-03T04:17:58.000Z</time>
      </trkpt>
      <trkpt lat="46.7043" lon="6.14064">
        <ele>1033</ele>
        <time>2023-08-03T04:18:04.000Z</time>
      </trkpt>
      <trkpt lat="46.70461" lon="6.14132">
        <ele>1032.5999755859</ele>
        <time>2023-08-03T04:18:12.000Z</time>
      </trkpt>
      <trkpt lat="46.70463" lon="6.14142">
        <ele>1032.4000244141</ele>
        <time>2023-08-03T04:18:13.000Z</time>
      </trkpt>
      <trkpt lat="46.70465" lon="6.14152">
        <ele>1032.4000244141</ele>
        <time>2023-08-03T04:18:14.000Z</time>
      </trkpt>
      <trkpt lat="46.70468" lon="6.14173">
        <ele>1032.1999511719</ele>
        <time>2023-08-03T04:18:16.000Z</time>
      </trkpt>
      <trkpt lat="46.70473" lon="6.14256">
        <ele>1031.8000488281</ele>
        <time>2023-08-03T04:18:24.000Z</time>
      </trkpt>
      <trkpt lat="46.70486" lon="6.14314">
        <ele>1032</ele>
        <time>2023-08-03T04:18:30.000Z</time>
      </trkpt>
      <trkpt lat="46.70496" lon="6.14336">
        <ele>1032.1999511719</ele>
        <time>2023-08-03T04:18:33.000Z</time>
      </trkpt>
      <trkpt lat="46.70504" lon="6.14347">
        <ele>1032.5999755859</ele>
        <time>2023-08-03T04:18:35.000Z</time>
      </trkpt>
      <trkpt lat="46.70517" lon="6.14361">
        <ele>1033.5999755859</ele>
        <time>2023-08-03T04:18:38.000Z</time>
      </trkpt>
      <trkpt lat="46.70532" lon="6.14373">
        <ele>1034.5999755859</ele>
        <time>2023-08-03T04:18:41.000Z</time>
      </trkpt>
      <trkpt lat="46.70559" lon="6.14395">
        <ele>1035.5999755859</ele>
        <time>2023-08-03T04:18:47.000Z</time>
      </trkpt>
      <trkpt lat="46.70577" lon="6.1441">
        <ele>1036.5999755859</ele>
        <time>2023-08-03T04:18:51.000Z</time>
      </trkpt>
      <trkpt lat="46.70582" lon="6.14414">
        <ele>1036.8000488281</ele>
        <time>2023-08-03T04:18:52.000Z</time>
      </trkpt>
      <trkpt lat="46.70616" lon="6.1445">
        <ele>1037.4000244141</ele>
        <time>2023-08-03T04:19:00.000Z</time>
      </trkpt>
      <trkpt lat="46.70628" lon="6.14465">
        <ele>1037.8000488281</ele>
        <time>2023-08-03T04:19:03.000Z</time>
      </trkpt>
      <trkpt lat="46.70657" lon="6.14507">
        <ele>1039.1999511719</ele>
        <time>2023-08-03T04:19:11.000Z</time>
      </trkpt>
      <trkpt lat="46.70669" lon="6.14523">
        <ele>1039.4000244141</ele>
        <time>2023-08-03T04:19:14.000Z</time>
      </trkpt>
      <trkpt lat="46.70698" lon="6.14564">
        <ele>1039.5999755859</ele>
        <time>2023-08-03T04:19:21.000Z</time>
      </trkpt>
      <trkpt lat="46.70738" lon="6.14622">
        <ele>1038.8000488281</ele>
        <time>2023-08-03T04:19:30.000Z</time>
      </trkpt>
      <trkpt lat="46.70743" lon="6.14628">
        <ele>1038.8000488281</ele>
        <time>2023-08-03T04:19:31.000Z</time>
      </trkpt>
      <trkpt lat="46.70757" lon="6.14649">
        <ele>1038.1999511719</ele>
        <time>2023-08-03T04:19:34.000Z</time>
      </trkpt>
      <trkpt lat="46.70781" lon="6.14682">
        <ele>1037.5999755859</ele>
        <time>2023-08-03T04:19:39.000Z</time>
      </trkpt>
      <trkpt lat="46.70805" lon="6.14716">
        <ele>1037.1999511719</ele>
        <time>2023-08-03T04:19:44.000Z</time>
      </trkpt>
      <trkpt lat="46.70828" lon="6.1475">
        <ele>1036.4000244141</ele>
        <time>2023-08-03T04:19:49.000Z</time>
      </trkpt>
      <trkpt lat="46.70843" lon="6.14775">
        <ele>1036.1999511719</ele>
        <time>2023-08-03T04:19:52.000Z</time>
      </trkpt>
      <trkpt lat="46.70851" lon="6.14793">
        <ele>1035.5999755859</ele>
        <time>2023-08-03T04:19:54.000Z</time>
      </trkpt>
      <trkpt lat="46.70858" lon="6.14813">
        <ele>1035</ele>
        <time>2023-08-03T04:19:56.000Z</time>
      </trkpt>
      <trkpt lat="46.70862" lon="6.14837">
        <ele>1034.4000244141</ele>
        <time>2023-08-03T04:19:58.000Z</time>
      </trkpt>
      <trkpt lat="46.70862" lon="6.14863">
        <ele>1033.5999755859</ele>
        <time>2023-08-03T04:20:00.000Z</time>
      </trkpt>
      <trkpt lat="46.7086" lon="6.14877">
        <ele>1032.8000488281</ele>
        <time>2023-08-03T04:20:01.000Z</time>
      </trkpt>
      <trkpt lat="46.70857" lon="6.14905">
        <ele>1031.8000488281</ele>
        <time>2023-08-03T04:20:03.000Z</time>
      </trkpt>
      <trkpt lat="46.70852" lon="6.14948">
        <ele>1030.4000244141</ele>
        <time>2023-08-03T04:20:06.000Z</time>
      </trkpt>
      <trkpt lat="46.7085" lon="6.14964">
        <ele>1030.1999511719</ele>
        <time>2023-08-03T04:20:07.000Z</time>
      </trkpt>
      <trkpt lat="46.70848" lon="6.14978">
        <ele>1029</ele>
        <time>2023-08-03T04:20:08.000Z</time>
      </trkpt>
      <trkpt lat="46.70844" lon="6.15009">
        <ele>1028</ele>
        <time>2023-08-03T04:20:10.000Z</time>
      </trkpt>
      <trkpt lat="46.70838" lon="6.1504">
        <ele>1027.4000244141</ele>
        <time>2023-08-03T04:20:12.000Z</time>
      </trkpt>
      <trkpt lat="46.70835" lon="6.15055">
        <ele>1027</ele>
        <time>2023-08-03T04:20:13.000Z</time>
      </trkpt>
      <trkpt lat="46.70826" lon="6.15083">
        <ele>1025.5999755859</ele>
        <time>2023-08-03T04:20:15.000Z</time>
      </trkpt>
      <trkpt lat="46.70817" lon="6.15111">
        <ele>1024.5999755859</ele>
        <time>2023-08-03T04:20:17.000Z</time>
      </trkpt>
      <trkpt lat="46.70813" lon="6.15133">
        <ele>1024.1999511719</ele>
        <time>2023-08-03T04:20:19.000Z</time>
      </trkpt>
      <trkpt lat="46.70812" lon="6.15145">
        <ele>1024</ele>
        <time>2023-08-03T04:20:20.000Z</time>
      </trkpt>
      <trkpt lat="46.70813" lon="6.15156">
        <ele>1024</ele>
        <time>2023-08-03T04:20:21.000Z</time>
      </trkpt>
      <trkpt lat="46.70821" lon="6.15177">
        <ele>1024</ele>
        <time>2023-08-03T04:20:23.000Z</time>
      </trkpt>
      <trkpt lat="46.70843" lon="6.15201">
        <ele>1024.1999511719</ele>
        <time>2023-08-03T04:20:27.000Z</time>
      </trkpt>
      <trkpt lat="46.70873" lon="6.15226">
        <ele>1025.1999511719</ele>
        <time>2023-08-03T04:20:33.000Z</time>
      </trkpt>
      <trkpt lat="46.70882" lon="6.15234">
        <ele>1025.5999755859</ele>
        <time>2023-08-03T04:20:35.000Z</time>
      </trkpt>
      <trkpt lat="46.70898" lon="6.15251">
        <ele>1026.8000488281</ele>
        <time>2023-08-03T04:20:39.000Z</time>
      </trkpt>
      <trkpt lat="46.70901" lon="6.15255">
        <ele>1027</ele>
        <time>2023-08-03T04:20:40.000Z</time>
      </trkpt>
      <trkpt lat="46.70914" lon="6.1527">
        <ele>1028.1999511719</ele>
        <time>2023-08-03T04:20:43.000Z</time>
      </trkpt>
      <trkpt lat="46.70934" lon="6.15294">
        <ele>1029.1999511719</ele>
        <time>2023-08-03T04:20:48.000Z</time>
      </trkpt>
      <trkpt lat="46.70938" lon="6.15299">
        <ele>1029.1999511719</ele>
        <time>2023-08-03T04:20:49.000Z</time>
      </trkpt>
      <trkpt lat="46.70983" lon="6.15356">
        <ele>1030.4000244141</ele>
        <time>2023-08-03T04:21:00.000Z</time>
      </trkpt>
      <trkpt lat="46.7102" lon="6.15403">
        <ele>1031.4000244141</ele>
        <time>2023-08-03T04:21:09.000Z</time>
      </trkpt>
      <trkpt lat="46.71028" lon="6.15413">
        <ele>1031.8000488281</ele>
        <time>2023-08-03T04:21:11.000Z</time>
      </trkpt>
      <trkpt lat="46.71063" lon="6.15455">
        <ele>1032.4000244141</ele>
        <time>2023-08-03T04:21:19.000Z</time>
      </trkpt>
      <trkpt lat="46.71067" lon="6.1546">
        <ele>1032.4000244141</ele>
        <time>2023-08-03T04:21:20.000Z</time>
      </trkpt>
      <trkpt lat="46.71103" lon="6.15502">
        <ele>1032.4000244141</ele>
        <time>2023-08-03T04:21:27.000Z</time>
      </trkpt>
      <trkpt lat="46.71142" lon="6.15539">
        <ele>1031.8000488281</ele>
        <time>2023-08-03T04:21:34.000Z</time>
      </trkpt>
      <trkpt lat="46.71171" lon="6.15573">
        <ele>1031.4000244141</ele>
        <time>2023-08-03T04:21:39.000Z</time>
      </trkpt>
      <trkpt lat="46.71182" lon="6.15588">
        <ele>1031.4000244141</ele>
        <time>2023-08-03T04:21:41.000Z</time>
      </trkpt>
      <trkpt lat="46.71212" lon="6.15642">
        <ele>1031.4000244141</ele>
        <time>2023-08-03T04:21:48.000Z</time>
      </trkpt>
      <trkpt lat="46.71242" lon="6.157">
        <ele>1032.5999755859</ele>
        <time>2023-08-03T04:21:56.000Z</time>
      </trkpt>
      <trkpt lat="46.71249" lon="6.15714">
        <ele>1033</ele>
        <time>2023-08-03T04:21:58.000Z</time>
      </trkpt>
      <trkpt lat="46.71269" lon="6.15755">
        <ele>1033.8000488281</ele>
        <time>2023-08-03T04:22:04.000Z</time>
      </trkpt>
      <trkpt lat="46.7128" lon="6.15777">
        <ele>1034.1999511719</ele>
        <time>2023-08-03T04:22:07.000Z</time>
      </trkpt>
      <trkpt lat="46.71314" lon="6.15843">
        <ele>1034.4000244141</ele>
        <time>2023-08-03T04:22:16.000Z</time>
      </trkpt>
      <trkpt lat="46.71317" lon="6.1585">
        <ele>1034.4000244141</ele>
        <time>2023-08-03T04:22:17.000Z</time>
      </trkpt>
      <trkpt lat="46.71344" lon="6.15913">
        <ele>1034.4000244141</ele>
        <time>2023-08-03T04:22:25.000Z</time>
      </trkpt>
      <trkpt lat="46.7136" lon="6.15971">
        <ele>1033.4000244141</ele>
        <time>2023-08-03T04:22:31.000Z</time>
      </trkpt>
      <trkpt lat="46.71374" lon="6.16009">
        <ele>1032.8000488281</ele>
        <time>2023-08-03T04:22:35.000Z</time>
      </trkpt>
      <trkpt lat="46.71379" lon="6.16019">
        <ele>1032.5999755859</ele>
        <time>2023-08-03T04:22:36.000Z</time>
      </trkpt>
      <trkpt lat="46.71405" lon="6.16051">
        <ele>1032</ele>
        <time>2023-08-03T04:22:40.000Z</time>
      </trkpt>
      <trkpt lat="46.7142" lon="6.16065">
        <ele>1031.4000244141</ele>
        <time>2023-08-03T04:22:42.000Z</time>
      </trkpt>
      <trkpt lat="46.71451" lon="6.16089">
        <ele>1030.1999511719</ele>
        <time>2023-08-03T04:22:46.000Z</time>
      </trkpt>
      <trkpt lat="46.71503" lon="6.16124">
        <ele>1029.5999755859</ele>
        <time>2023-08-03T04:22:53.000Z</time>
      </trkpt>
      <trkpt lat="46.71545" lon="6.16161">
        <ele>1031</ele>
        <time>2023-08-03T04:23:00.000Z</time>
      </trkpt>
      <trkpt lat="46.71549" lon="6.16166">
        <ele>1031.5999755859</ele>
        <time>2023-08-03T04:23:01.000Z</time>
      </trkpt>
      <trkpt lat="46.71557" lon="6.16181">
        <ele>1032.1999511719</ele>
        <time>2023-08-03T04:23:03.000Z</time>
      </trkpt>
      <trkpt lat="46.7156" lon="6.16189">
        <ele>1032.1999511719</ele>
        <time>2023-08-03T04:23:04.000Z</time>
      </trkpt>
      <trkpt lat="46.71566" lon="6.16206">
        <ele>1032.8000488281</ele>
        <time>2023-08-03T04:23:06.000Z</time>
      </trkpt>
      <trkpt lat="46.71577" lon="6.16248">
        <ele>1033.8000488281</ele>
        <time>2023-08-03T04:23:11.000Z</time>
      </trkpt>
      <trkpt lat="46.7159" lon="6.16316">
        <ele>1034.1999511719</ele>
        <time>2023-08-03T04:23:18.000Z</time>
      </trkpt>
      <trkpt lat="46.71602" lon="6.16392">
        <ele>1033.4000244141</ele>
        <time>2023-08-03T04:23:25.000Z</time>
      </trkpt>
      <trkpt lat="46.7161" lon="6.16427">
        <ele>1032.5999755859</ele>
        <time>2023-08-03T04:23:28.000Z</time>
      </trkpt>
      <trkpt lat="46.71617" lon="6.16449">
        <ele>1031.8000488281</ele>
        <time>2023-08-03T04:23:30.000Z</time>
      </trkpt>
      <trkpt lat="46.71624" lon="6.1647">
        <ele>1031.4000244141</ele>
        <time>2023-08-03T04:23:32.000Z</time>
      </trkpt>
      <trkpt lat="46.71644" lon="6.16517">
        <ele>1031.1999511719</ele>
        <time>2023-08-03T04:23:37.000Z</time>
      </trkpt>
      <trkpt lat="46.71671" lon="6.16571">
        <ele>1031</ele>
        <time>2023-08-03T04:23:43.000Z</time>
      </trkpt>
      <trkpt lat="46.71699" lon="6.16618">
        <ele>1030</ele>
        <time>2023-08-03T04:23:48.000Z</time>
      </trkpt>
      <trkpt lat="46.71726" lon="6.16657">
        <ele>1028.5999755859</ele>
        <time>2023-08-03T04:23:52.000Z</time>
      </trkpt>
      <trkpt lat="46.71739" lon="6.16678">
        <ele>1027.8000488281</ele>
        <time>2023-08-03T04:23:54.000Z</time>
      </trkpt>
      <trkpt lat="46.71743" lon="6.1669">
        <ele>1027</ele>
        <time>2023-08-03T04:23:55.000Z</time>
      </trkpt>
      <trkpt lat="46.71746" lon="6.16703">
        <ele>1026.8000488281</ele>
        <time>2023-08-03T04:23:56.000Z</time>
      </trkpt>
      <trkpt lat="46.71748" lon="6.16716">
        <ele>1026.4000244141</ele>
        <time>2023-08-03T04:23:57.000Z</time>
      </trkpt>
      <trkpt lat="46.71748" lon="6.16762">
        <ele>1026</ele>
        <time>2023-08-03T04:24:01.000Z</time>
      </trkpt>
      <trkpt lat="46.71749" lon="6.16775">
        <ele>1026</ele>
        <time>2023-08-03T04:24:02.000Z</time>
      </trkpt>
      <trkpt lat="46.71754" lon="6.16803">
        <ele>1026.1999511719</ele>
        <time>2023-08-03T04:24:05.000Z</time>
      </trkpt>
      <trkpt lat="46.71764" lon="6.16837">
        <ele>1027.4000244141</ele>
        <time>2023-08-03T04:24:09.000Z</time>
      </trkpt>
      <trkpt lat="46.7177" lon="6.16854">
        <ele>1027.8000488281</ele>
        <time>2023-08-03T04:24:11.000Z</time>
      </trkpt>
      <trkpt lat="46.71794" lon="6.16891">
        <ele>1027.8000488281</ele>
        <time>2023-08-03T04:24:16.000Z</time>
      </trkpt>
      <trkpt lat="46.71826" lon="6.16935">
        <ele>1027.1999511719</ele>
        <time>2023-08-03T04:24:22.000Z</time>
      </trkpt>
      <trkpt lat="46.71839" lon="6.16963">
        <ele>1026.4000244141</ele>
        <time>2023-08-03T04:24:25.000Z</time>
      </trkpt>
      <trkpt lat="46.71851" lon="6.16996">
        <ele>1025.8000488281</ele>
        <time>2023-08-03T04:24:28.000Z</time>
      </trkpt>
      <trkpt lat="46.71859" lon="6.17013">
        <ele>1025.1999511719</ele>
        <time>2023-08-03T04:24:30.000Z</time>
      </trkpt>
      <trkpt lat="46.71876" lon="6.1705">
        <ele>1024</ele>
        <time>2023-08-03T04:24:34.000Z</time>
      </trkpt>
      <trkpt lat="46.71895" lon="6.17083">
        <ele>1023</ele>
        <time>2023-08-03T04:24:38.000Z</time>
      </trkpt>
      <trkpt lat="46.7191" lon="6.17106">
        <ele>1022.4000244141</ele>
        <time>2023-08-03T04:24:41.000Z</time>
      </trkpt>
      <trkpt lat="46.7192" lon="6.17121">
        <ele>1021.799987793</ele>
        <time>2023-08-03T04:24:43.000Z</time>
      </trkpt>
      <trkpt lat="46.71925" lon="6.17128">
        <ele>1021.200012207</ele>
        <time>2023-08-03T04:24:44.000Z</time>
      </trkpt>
      <trkpt lat="46.7193" lon="6.17135">
        <ele>1020.799987793</ele>
        <time>2023-08-03T04:24:45.000Z</time>
      </trkpt>
      <trkpt lat="46.71936" lon="6.17141">
        <ele>1020.4000244141</ele>
        <time>2023-08-03T04:24:46.000Z</time>
      </trkpt>
      <trkpt lat="46.71942" lon="6.17149">
        <ele>1020</ele>
        <time>2023-08-03T04:24:47.000Z</time>
      </trkpt>
      <trkpt lat="46.71947" lon="6.17157">
        <ele>1019.799987793</ele>
        <time>2023-08-03T04:24:48.000Z</time>
      </trkpt>
      <trkpt lat="46.71952" lon="6.17168">
        <ele>1019.4000244141</ele>
        <time>2023-08-03T04:24:49.000Z</time>
      </trkpt>
      <trkpt lat="46.71955" lon="6.17175">
        <ele>1019.200012207</ele>
        <time>2023-08-03T04:24:50.000Z</time>
      </trkpt>
      <trkpt lat="46.71958" lon="6.17185">
        <ele>1019</ele>
        <time>2023-08-03T04:24:51.000Z</time>
      </trkpt>
      <trkpt lat="46.7196" lon="6.17196">
        <ele>1018.5999755859</ele>
        <time>2023-08-03T04:24:52.000Z</time>
      </trkpt>
      <trkpt lat="46.71961" lon="6.17207">
        <ele>1018.4000244141</ele>
        <time>2023-08-03T04:24:53.000Z</time>
      </trkpt>
      <trkpt lat="46.71962" lon="6.17221">
        <ele>1018</ele>
        <time>2023-08-03T04:24:54.000Z</time>
      </trkpt>
      <trkpt lat="46.71962" lon="6.17243">
        <ele>1017.5999755859</ele>
        <time>2023-08-03T04:24:56.000Z</time>
      </trkpt>
      <trkpt lat="46.71963" lon="6.17292">
        <ele>1016.799987793</ele>
        <time>2023-08-03T04:25:00.000Z</time>
      </trkpt>
      <trkpt lat="46.71964" lon="6.17305">
        <ele>1016.200012207</ele>
        <time>2023-08-03T04:25:01.000Z</time>
      </trkpt>
      <trkpt lat="46.71965" lon="6.1733">
        <ele>1015.4000244141</ele>
        <time>2023-08-03T04:25:03.000Z</time>
      </trkpt>
      <trkpt lat="46.71968" lon="6.17342">
        <ele>1014.799987793</ele>
        <time>2023-08-03T04:25:04.000Z</time>
      </trkpt>
      <trkpt lat="46.71972" lon="6.17352">
        <ele>1014.5999755859</ele>
        <time>2023-08-03T04:25:05.000Z</time>
      </trkpt>
      <trkpt lat="46.71986" lon="6.1737">
        <ele>1014</ele>
        <time>2023-08-03T04:25:07.000Z</time>
      </trkpt>
      <trkpt lat="46.71991" lon="6.17376">
        <ele>1013.5999755859</ele>
        <time>2023-08-03T04:25:08.000Z</time>
      </trkpt>
      <trkpt lat="46.7202" lon="6.17403">
        <ele>1012.5999755859</ele>
        <time>2023-08-03T04:25:12.000Z</time>
      </trkpt>
      <trkpt lat="46.72063" lon="6.17448">
        <ele>1011.4000244141</ele>
        <time>2023-08-03T04:25:18.000Z</time>
      </trkpt>
      <trkpt lat="46.72094" lon="6.17485">
        <ele>1010.4000244141</ele>
        <time>2023-08-03T04:25:23.000Z</time>
      </trkpt>
      <trkpt lat="46.72106" lon="6.17499">
        <ele>1010.200012207</ele>
        <time>2023-08-03T04:25:25.000Z</time>
      </trkpt>
      <trkpt lat="46.72139" lon="6.17538">
        <ele>1010.200012207</ele>
        <time>2023-08-03T04:25:31.000Z</time>
      </trkpt>
      <trkpt lat="46.7218" lon="6.17585">
        <ele>1011</ele>
        <time>2023-08-03T04:25:39.000Z</time>
      </trkpt>
      <trkpt lat="46.72207" lon="6.17616">
        <ele>1011.4000244141</ele>
        <time>2023-08-03T04:25:44.000Z</time>
      </trkpt>
      <trkpt lat="46.72238" lon="6.17653">
        <ele>1011.5999755859</ele>
        <time>2023-08-03T04:25:50.000Z</time>
      </trkpt>
      <trkpt lat="46.72284" lon="6.17714">
        <ele>1011.200012207</ele>
        <time>2023-08-03T04:25:59.000Z</time>
      </trkpt>
      <trkpt lat="46.7229" lon="6.17721">
        <ele>1011.200012207</ele>
        <time>2023-08-03T04:26:00.000Z</time>
      </trkpt>
      <trkpt lat="46.72312" lon="6.17761">
        <ele>1010.5999755859</ele>
        <time>2023-08-03T04:26:05.000Z</time>
      </trkpt>
      <trkpt lat="46.72324" lon="6.17785">
        <ele>1010.4000244141</ele>
        <time>2023-08-03T04:26:08.000Z</time>
      </trkpt>
      <trkpt lat="46.72339" lon="6.17817">
        <ele>1010</ele>
        <time>2023-08-03T04:26:12.000Z</time>
      </trkpt>
      <trkpt lat="46.72355" lon="6.17855">
        <ele>1009.5999755859</ele>
        <time>2023-08-03T04:26:16.000Z</time>
      </trkpt>
      <trkpt lat="46.72357" lon="6.17864">
        <ele>1009.4000244141</ele>
        <time>2023-08-03T04:26:17.000Z</time>
      </trkpt>
      <trkpt lat="46.72359" lon="6.17878">
        <ele>1009.200012207</ele>
        <time>2023-08-03T04:26:18.000Z</time>
      </trkpt>
      <trkpt lat="46.72357" lon="6.179">
        <ele>1008.5999755859</ele>
        <time>2023-08-03T04:26:20.000Z</time>
      </trkpt>
      <trkpt lat="46.72355" lon="6.17911">
        <ele>1008.200012207</ele>
        <time>2023-08-03T04:26:21.000Z</time>
      </trkpt>
      <trkpt lat="46.72356" lon="6.17921">
        <ele>1008</ele>
        <time>2023-08-03T04:26:22.000Z</time>
      </trkpt>
      <trkpt lat="46.72358" lon="6.1793">
        <ele>1007.5999755859</ele>
        <time>2023-08-03T04:26:23.000Z</time>
      </trkpt>
      <trkpt lat="46.72362" lon="6.17938">
        <ele>1007.5999755859</ele>
        <time>2023-08-03T04:26:24.000Z</time>
      </trkpt>
      <trkpt lat="46.72373" lon="6.17948">
        <ele>1007.4000244141</ele>
        <time>2023-08-03T04:26:26.000Z</time>
      </trkpt>
      <trkpt lat="46.72412" lon="6.17958">
        <ele>1007.4000244141</ele>
        <time>2023-08-03T04:26:32.000Z</time>
      </trkpt>
      <trkpt lat="46.72468" lon="6.1797">
        <ele>1008</ele>
        <time>2023-08-03T04:26:41.000Z</time>
      </trkpt>
      <trkpt lat="46.72515" lon="6.17985">
        <ele>1009.200012207</ele>
        <time>2023-08-03T04:26:49.000Z</time>
      </trkpt>
      <trkpt lat="46.72521" lon="6.17987">
        <ele>1009.4000244141</ele>
        <time>2023-08-03T04:26:50.000Z</time>
      </trkpt>
      <trkpt lat="46.7256" lon="6.18005">
        <ele>1010</ele>
        <time>2023-08-03T04:26:57.000Z</time>
      </trkpt>
      <trkpt lat="46.72588" lon="6.18021">
        <ele>1010.5999755859</ele>
        <time>2023-08-03T04:27:02.000Z</time>
      </trkpt>
      <trkpt lat="46.72599" lon="6.1803">
        <ele>1010.5999755859</ele>
        <time>2023-08-03T04:27:04.000Z</time>
      </trkpt>
      <trkpt lat="46.72639" lon="6.18067">
        <ele>1011.5999755859</ele>
        <time>2023-08-03T04:27:12.000Z</time>
      </trkpt>
      <trkpt lat="46.72649" lon="6.18076">
        <ele>1011.799987793</ele>
        <time>2023-08-03T04:27:14.000Z</time>
      </trkpt>
      <trkpt lat="46.72659" lon="6.18085">
        <ele>1012</ele>
        <time>2023-08-03T04:27:16.000Z</time>
      </trkpt>
      <trkpt lat="46.72674" lon="6.18096">
        <ele>1012.4000244141</ele>
        <time>2023-08-03T04:27:19.000Z</time>
      </trkpt>
      <trkpt lat="46.72694" lon="6.18111">
        <ele>1012.5999755859</ele>
        <time>2023-08-03T04:27:23.000Z</time>
      </trkpt>
      <trkpt lat="46.727" lon="6.18115">
        <ele>1012.5999755859</ele>
        <time>2023-08-03T04:27:24.000Z</time>
      </trkpt>
      <trkpt lat="46.72711" lon="6.18123">
        <ele>1012.799987793</ele>
        <time>2023-08-03T04:27:26.000Z</time>
      </trkpt>
      <trkpt lat="46.72737" lon="6.18139">
        <ele>1013.4000244141</ele>
        <time>2023-08-03T04:27:31.000Z</time>
      </trkpt>
      <trkpt lat="46.72765" lon="6.18158">
        <ele>1013.5999755859</ele>
        <time>2023-08-03T04:27:36.000Z</time>
      </trkpt>
      <trkpt lat="46.72776" lon="6.18166">
        <ele>1014</ele>
        <time>2023-08-03T04:27:38.000Z</time>
      </trkpt>
      <trkpt lat="46.72814" lon="6.18194">
        <ele>1014.5999755859</ele>
        <time>2023-08-03T04:27:45.000Z</time>
      </trkpt>
      <trkpt lat="46.72824" lon="6.18201">
        <ele>1014.799987793</ele>
        <time>2023-08-03T04:27:46.000Z</time>
      </trkpt>
      <trkpt lat="46.72845" lon="6.18217">
        <ele>1015.5999755859</ele>
        <time>2023-08-03T04:27:50.000Z</time>
      </trkpt>
      <trkpt lat="46.7285" lon="6.18221">
        <ele>1015.799987793</ele>
        <time>2023-08-03T04:27:52.000Z</time>
      </trkpt>
      <trkpt lat="46.72861" lon="6.18229">
        <ele>1016</ele>
        <time>2023-08-03T04:27:54.000Z</time>
      </trkpt>
      <trkpt lat="46.72904" lon="6.18261">
        <ele>1016.5999755859</ele>
        <time>2023-08-03T04:28:02.000Z</time>
      </trkpt>
      <trkpt lat="46.72914" lon="6.18268">
        <ele>1016.5999755859</ele>
        <time>2023-08-03T04:28:03.000Z</time>
      </trkpt>
      <trkpt lat="46.72944" lon="6.183">
        <ele>1017.5999755859</ele>
        <time>2023-08-03T04:28:09.000Z</time>
      </trkpt>
      <trkpt lat="46.72963" lon="6.18322">
        <ele>1018</ele>
        <time>2023-08-03T04:28:13.000Z</time>
      </trkpt>
      <trkpt lat="46.73004" lon="6.18356">
        <ele>1018.5999755859</ele>
        <time>2023-08-03T04:28:21.000Z</time>
      </trkpt>
      <trkpt lat="46.73004" lon="6.18356">
        <ele>1018.5999755859</ele>
        <time>2023-08-03T04:28:22.000Z</time>
      </trkpt>
      <trkpt lat="46.73014" lon="6.1836">
        <ele>1018.5999755859</ele>
        <time>2023-08-03T04:28:23.000Z</time>
      </trkpt>
      <trkpt lat="46.7302" lon="6.18361">
        <ele>1018.5999755859</ele>
        <time>2023-08-03T04:28:25.000Z</time>
      </trkpt>
      <trkpt lat="46.73038" lon="6.18362">
        <ele>1018.5999755859</ele>
        <time>2023-08-03T04:28:27.000Z</time>
      </trkpt>
      <trkpt lat="46.7305" lon="6.18361">
        <ele>1018.5999755859</ele>
        <time>2023-08-03T04:28:29.000Z</time>
      </trkpt>
      <trkpt lat="46.731" lon="6.18355">
        <ele>1019.5999755859</ele>
        <time>2023-08-03T04:28:37.000Z</time>
      </trkpt>
      <trkpt lat="46.73137" lon="6.18355">
        <ele>1020.5999755859</ele>
        <time>2023-08-03T04:28:43.000Z</time>
      </trkpt>
      <trkpt lat="46.73143" lon="6.18356">
        <ele>1021</ele>
        <time>2023-08-03T04:28:45.000Z</time>
      </trkpt>
      <trkpt lat="46.73186" lon="6.18367">
        <ele>1021.799987793</ele>
        <time>2023-08-03T04:28:51.000Z</time>
      </trkpt>
      <trkpt lat="46.73192" lon="6.18368">
        <ele>1022</ele>
        <time>2023-08-03T04:28:52.000Z</time>
      </trkpt>
      <trkpt lat="46.73232" lon="6.1838">
        <ele>1023</ele>
        <time>2023-08-03T04:28:59.000Z</time>
      </trkpt>
      <trkpt lat="46.73237" lon="6.18382">
        <ele>1023</ele>
        <time>2023-08-03T04:29:00.000Z</time>
      </trkpt>
      <trkpt lat="46.73242" lon="6.18384">
        <ele>1023.200012207</ele>
        <time>2023-08-03T04:29:01.000Z</time>
      </trkpt>
      <trkpt lat="46.73247" lon="6.18388">
        <ele>1023.4000244141</ele>
        <time>2023-08-03T04:29:02.000Z</time>
      </trkpt>
      <trkpt lat="46.73259" lon="6.18401">
        <ele>1023.799987793</ele>
        <time>2023-08-03T04:29:05.000Z</time>
      </trkpt>
      <trkpt lat="46.73263" lon="6.18406">
        <ele>1024</ele>
        <time>2023-08-03T04:29:06.000Z</time>
      </trkpt>
      <trkpt lat="46.73267" lon="6.1841">
        <ele>1024</ele>
        <time>2023-08-03T04:29:07.000Z</time>
      </trkpt>
      <trkpt lat="46.73276" lon="6.18424">
        <ele>1025</ele>
        <time>2023-08-03T04:29:10.000Z</time>
      </trkpt>
      <trkpt lat="46.7328" lon="6.18428">
        <ele>1025.4000244141</ele>
        <time>2023-08-03T04:29:11.000Z</time>
      </trkpt>
      <trkpt lat="46.7329" lon="6.18439">
        <ele>1026.4000244141</ele>
        <time>2023-08-03T04:29:14.000Z</time>
      </trkpt>
      <trkpt lat="46.73294" lon="6.18442">
        <ele>1026.8000488281</ele>
        <time>2023-08-03T04:29:15.000Z</time>
      </trkpt>
      <trkpt lat="46.73304" lon="6.1845">
        <ele>1027.4000244141</ele>
        <time>2023-08-03T04:29:18.000Z</time>
      </trkpt>
      <trkpt lat="46.73313" lon="6.18454">
        <ele>1027.8000488281</ele>
        <time>2023-08-03T04:29:21.000Z</time>
      </trkpt>
      <trkpt lat="46.73338" lon="6.18464">
        <ele>1029</ele>
        <time>2023-08-03T04:29:26.000Z</time>
      </trkpt>
      <trkpt lat="46.73338" lon="6.18464">
        <ele>1029.1999511719</ele>
        <time>2023-08-03T04:29:27.000Z</time>
      </trkpt>
      <trkpt lat="46.73358" lon="6.18476">
        <ele>1029.5999755859</ele>
        <time>2023-08-03T04:29:31.000Z</time>
      </trkpt>
      <trkpt lat="46.73361" lon="6.18479">
        <ele>1030</ele>
        <time>2023-08-03T04:29:32.000Z</time>
      </trkpt>
      <trkpt lat="46.73369" lon="6.18485">
        <ele>1030.5999755859</ele>
        <time>2023-08-03T04:29:35.000Z</time>
      </trkpt>
      <trkpt lat="46.73383" lon="6.18498">
        <ele>1031</ele>
        <time>2023-08-03T04:29:39.000Z</time>
      </trkpt>
      <trkpt lat="46.73404" lon="6.18521">
        <ele>1032</ele>
        <time>2023-08-03T04:29:45.000Z</time>
      </trkpt>
      <trkpt lat="46.73412" lon="6.1853">
        <ele>1032</ele>
        <time>2023-08-03T04:29:46.000Z</time>
      </trkpt>
      <trkpt lat="46.73445" lon="6.18565">
        <ele>1032.8000488281</ele>
        <time>2023-08-03T04:29:54.000Z</time>
      </trkpt>
      <trkpt lat="46.73445" lon="6.18565">
        <ele>1033</ele>
        <time>2023-08-03T04:29:55.000Z</time>
      </trkpt>
      <trkpt lat="46.73482" lon="6.18604">
        <ele>1033.4000244141</ele>
        <time>2023-08-03T04:30:02.000Z</time>
      </trkpt>
      <trkpt lat="46.73524" lon="6.18649">
        <ele>1034</ele>
        <time>2023-08-03T04:30:11.000Z</time>
      </trkpt>
      <trkpt lat="46.73533" lon="6.18658">
        <ele>1034</ele>
        <time>2023-08-03T04:30:13.000Z</time>
      </trkpt>
      <trkpt lat="46.73548" lon="6.1867">
        <ele>1034.1999511719</ele>
        <time>2023-08-03T04:30:16.000Z</time>
      </trkpt>
      <trkpt lat="46.73558" lon="6.18676">
        <ele>1034.4000244141</ele>
        <time>2023-08-03T04:30:18.000Z</time>
      </trkpt>
      <trkpt lat="46.73564" lon="6.18678">
        <ele>1034.4000244141</ele>
        <time>2023-08-03T04:30:19.000Z</time>
      </trkpt>
      <trkpt lat="46.73587" lon="6.18682">
        <ele>1034.8000488281</ele>
        <time>2023-08-03T04:30:23.000Z</time>
      </trkpt>
      <trkpt lat="46.73603" lon="6.1868">
        <ele>1035</ele>
        <time>2023-08-03T04:30:26.000Z</time>
      </trkpt>
      <trkpt lat="46.73649" lon="6.18677">
        <ele>1034.8000488281</ele>
        <time>2023-08-03T04:30:34.000Z</time>
      </trkpt>
      <trkpt lat="46.73684" lon="6.18675">
        <ele>1034.5999755859</ele>
        <time>2023-08-03T04:30:40.000Z</time>
      </trkpt>
      <trkpt lat="46.73712" lon="6.18679">
        <ele>1034.8000488281</ele>
        <time>2023-08-03T04:30:45.000Z</time>
      </trkpt>
      <trkpt lat="46.73731" lon="6.18687">
        <ele>1034.8000488281</ele>
        <time>2023-08-03T04:30:48.000Z</time>
      </trkpt>
      <trkpt lat="46.73736" lon="6.18689">
        <ele>1034.8000488281</ele>
        <time>2023-08-03T04:30:49.000Z</time>
      </trkpt>
      <trkpt lat="46.73757" lon="6.18702">
        <ele>1034.4000244141</ele>
        <time>2023-08-03T04:30:52.000Z</time>
      </trkpt>
      <trkpt lat="46.73793" lon="6.18731">
        <ele>1032.8000488281</ele>
        <time>2023-08-03T04:30:57.000Z</time>
      </trkpt>
      <trkpt lat="46.73801" lon="6.18738">
        <ele>1032.5999755859</ele>
        <time>2023-08-03T04:30:58.000Z</time>
      </trkpt>
      <trkpt lat="46.73826" lon="6.18757">
        <ele>1031.8000488281</ele>
        <time>2023-08-03T04:31:01.000Z</time>
      </trkpt>
      <trkpt lat="46.73835" lon="6.18761">
        <ele>1031</ele>
        <time>2023-08-03T04:31:02.000Z</time>
      </trkpt>
      <trkpt lat="46.73845" lon="6.18764">
        <ele>1030.4000244141</ele>
        <time>2023-08-03T04:31:03.000Z</time>
      </trkpt>
      <trkpt lat="46.73867" lon="6.18768">
        <ele>1029.4000244141</ele>
        <time>2023-08-03T04:31:05.000Z</time>
      </trkpt>
      <trkpt lat="46.73878" lon="6.18769">
        <ele>1028.5999755859</ele>
        <time>2023-08-03T04:31:06.000Z</time>
      </trkpt>
      <trkpt lat="46.73892" lon="6.1877">
        <ele>1027.8000488281</ele>
        <time>2023-08-03T04:31:07.000Z</time>
      </trkpt>
      <trkpt lat="46.73912" lon="6.18771">
        <ele>1026.5999755859</ele>
        <time>2023-08-03T04:31:09.000Z</time>
      </trkpt>
      <trkpt lat="46.73935" lon="6.18772">
        <ele>1025.1999511719</ele>
        <time>2023-08-03T04:31:11.000Z</time>
      </trkpt>
      <trkpt lat="46.73959" lon="6.18771">
        <ele>1024</ele>
        <time>2023-08-03T04:31:13.000Z</time>
      </trkpt>
      <trkpt lat="46.73991" lon="6.18774">
        <ele>1022.5999755859</ele>
        <time>2023-08-03T04:31:16.000Z</time>
      </trkpt>
      <trkpt lat="46.74002" lon="6.18777">
        <ele>1022.4000244141</ele>
        <time>2023-08-03T04:31:17.000Z</time>
      </trkpt>
      <trkpt lat="46.74025" lon="6.18785">
        <ele>1021.200012207</ele>
        <time>2023-08-03T04:31:19.000Z</time>
      </trkpt>
      <trkpt lat="46.74044" lon="6.18789">
        <ele>1020</ele>
        <time>2023-08-03T04:31:21.000Z</time>
      </trkpt>
      <trkpt lat="46.74055" lon="6.1879">
        <ele>1019.799987793</ele>
        <time>2023-08-03T04:31:22.000Z</time>
      </trkpt>
      <trkpt lat="46.74079" lon="6.18792">
        <ele>1018.5999755859</ele>
        <time>2023-08-03T04:31:24.000Z</time>
      </trkpt>
      <trkpt lat="46.74108" lon="6.18795">
        <ele>1017.200012207</ele>
        <time>2023-08-03T04:31:27.000Z</time>
      </trkpt>
      <trkpt lat="46.74117" lon="6.18797">
        <ele>1017</ele>
        <time>2023-08-03T04:31:28.000Z</time>
      </trkpt>
      <trkpt lat="46.74157" lon="6.18818">
        <ele>1016.200012207</ele>
        <time>2023-08-03T04:31:33.000Z</time>
      </trkpt>
      <trkpt lat="46.74199" lon="6.18851">
        <ele>1016</ele>
        <time>2023-08-03T04:31:39.000Z</time>
      </trkpt>
      <trkpt lat="46.7425" lon="6.18898">
        <ele>1015</ele>
        <time>2023-08-03T04:31:46.000Z</time>
      </trkpt>
      <trkpt lat="46.74273" lon="6.1892">
        <ele>1014.4000244141</ele>
        <time>2023-08-03T04:31:49.000Z</time>
      </trkpt>
      <trkpt lat="46.7428" lon="6.18927">
        <ele>1013.799987793</ele>
        <time>2023-08-03T04:31:51.000Z</time>
      </trkpt>
      <trkpt lat="46.74302" lon="6.18948">
        <ele>1013.5999755859</ele>
        <time>2023-08-03T04:31:53.000Z</time>
      </trkpt>
      <trkpt lat="46.74314" lon="6.18967">
        <ele>1013.200012207</ele>
        <time>2023-08-03T04:31:55.000Z</time>
      </trkpt>
      <trkpt lat="46.74322" lon="6.1899">
        <ele>1012.799987793</ele>
        <time>2023-08-03T04:31:57.000Z</time>
      </trkpt>
      <trkpt lat="46.74327" lon="6.19013">
        <ele>1012.4000244141</ele>
        <time>2023-08-03T04:31:59.000Z</time>
      </trkpt>
      <trkpt lat="46.74337" lon="6.19053">
        <ele>1011.799987793</ele>
        <time>2023-08-03T04:32:02.000Z</time>
      </trkpt>
      <trkpt lat="46.74345" lon="6.19088">
        <ele>1010.799987793</ele>
        <time>2023-08-03T04:32:05.000Z</time>
      </trkpt>
      <trkpt lat="46.74354" lon="6.19126">
        <ele>1009.799987793</ele>
        <time>2023-08-03T04:32:08.000Z</time>
      </trkpt>
      <trkpt lat="46.74359" lon="6.19147">
        <ele>1009.5999755859</ele>
        <time>2023-08-03T04:32:10.000Z</time>
      </trkpt>
      <trkpt lat="46.74366" lon="6.19171">
        <ele>1009.4000244141</ele>
        <time>2023-08-03T04:32:12.000Z</time>
      </trkpt>
      <trkpt lat="46.74375" lon="6.1919">
        <ele>1009.200012207</ele>
        <time>2023-08-03T04:32:14.000Z</time>
      </trkpt>
      <trkpt lat="46.74394" lon="6.19213">
        <ele>1008.799987793</ele>
        <time>2023-08-03T04:32:17.000Z</time>
      </trkpt>
      <trkpt lat="46.74401" lon="6.19219">
        <ele>1008.5999755859</ele>
        <time>2023-08-03T04:32:18.000Z</time>
      </trkpt>
      <trkpt lat="46.74441" lon="6.19242">
        <ele>1007.200012207</ele>
        <time>2023-08-03T04:32:23.000Z</time>
      </trkpt>
      <trkpt lat="46.7445" lon="6.19246">
        <ele>1007.200012207</ele>
        <time>2023-08-03T04:32:24.000Z</time>
      </trkpt>
      <trkpt lat="46.74474" lon="6.19257">
        <ele>1006</ele>
        <time>2023-08-03T04:32:27.000Z</time>
      </trkpt>
      <trkpt lat="46.74502" lon="6.19267">
        <ele>1004.799987793</ele>
        <time>2023-08-03T04:32:30.000Z</time>
      </trkpt>
      <trkpt lat="46.74521" lon="6.19273">
        <ele>1003.799987793</ele>
        <time>2023-08-03T04:32:32.000Z</time>
      </trkpt>
      <trkpt lat="46.74521" lon="6.19273">
        <ele>1003.4000244141</ele>
        <time>2023-08-03T04:32:33.000Z</time>
      </trkpt>
      <trkpt lat="46.74568" lon="6.19296">
        <ele>1002</ele>
        <time>2023-08-03T04:32:37.000Z</time>
      </trkpt>
      <trkpt lat="46.74577" lon="6.19302">
        <ele>1001.5999755859</ele>
        <time>2023-08-03T04:32:38.000Z</time>
      </trkpt>
      <trkpt lat="46.74585" lon="6.1931">
        <ele>1001.200012207</ele>
        <time>2023-08-03T04:32:39.000Z</time>
      </trkpt>
      <trkpt lat="46.74593" lon="6.19318">
        <ele>1000.5999755859</ele>
        <time>2023-08-03T04:32:40.000Z</time>
      </trkpt>
      <trkpt lat="46.74608" lon="6.19334">
        <ele>999.59997558594</ele>
        <time>2023-08-03T04:32:42.000Z</time>
      </trkpt>
      <trkpt lat="46.74616" lon="6.19341">
        <ele>999.40002441406</ele>
        <time>2023-08-03T04:32:43.000Z</time>
      </trkpt>
      <trkpt lat="46.7465" lon="6.19368">
        <ele>998.40002441406</ele>
        <time>2023-08-03T04:32:47.000Z</time>
      </trkpt>
      <trkpt lat="46.74658" lon="6.19376">
        <ele>998</ele>
        <time>2023-08-03T04:32:48.000Z</time>
      </trkpt>
      <trkpt lat="46.74665" lon="6.19385">
        <ele>997.20001220703</ele>
        <time>2023-08-03T04:32:50.000Z</time>
      </trkpt>
      <trkpt lat="46.74678" lon="6.19407">
        <ele>997</ele>
        <time>2023-08-03T04:32:51.000Z</time>
      </trkpt>
      <trkpt lat="46.74683" lon="6.19419">
        <ele>996.40002441406</ele>
        <time>2023-08-03T04:32:52.000Z</time>
      </trkpt>
      <trkpt lat="46.74688" lon="6.19431">
        <ele>995.79998779297</ele>
        <time>2023-08-03T04:32:53.000Z</time>
      </trkpt>
      <trkpt lat="46.74707" lon="6.19466">
        <ele>994.59997558594</ele>
        <time>2023-08-03T04:32:56.000Z</time>
      </trkpt>
      <trkpt lat="46.74714" lon="6.19476">
        <ele>994</ele>
        <time>2023-08-03T04:32:57.000Z</time>
      </trkpt>
      <trkpt lat="46.74722" lon="6.19486">
        <ele>993</ele>
        <time>2023-08-03T04:32:58.000Z</time>
      </trkpt>
      <trkpt lat="46.74744" lon="6.19519">
        <ele>991.59997558594</ele>
        <time>2023-08-03T04:33:01.000Z</time>
      </trkpt>
      <trkpt lat="46.74756" lon="6.19544">
        <ele>990.79998779297</ele>
        <time>2023-08-03T04:33:03.000Z</time>
      </trkpt>
      <trkpt lat="46.74761" lon="6.19558">
        <ele>990</ele>
        <time>2023-08-03T04:33:04.000Z</time>
      </trkpt>
      <trkpt lat="46.74769" lon="6.19588">
        <ele>988.79998779297</ele>
        <time>2023-08-03T04:33:06.000Z</time>
      </trkpt>
      <trkpt lat="46.74772" lon="6.19603">
        <ele>988</ele>
        <time>2023-08-03T04:33:07.000Z</time>
      </trkpt>
      <trkpt lat="46.74774" lon="6.19619">
        <ele>987.79998779297</ele>
        <time>2023-08-03T04:33:08.000Z</time>
      </trkpt>
      <trkpt lat="46.74778" lon="6.19651">
        <ele>986.40002441406</ele>
        <time>2023-08-03T04:33:10.000Z</time>
      </trkpt>
      <trkpt lat="46.74782" lon="6.19683">
        <ele>985</ele>
        <time>2023-08-03T04:33:12.000Z</time>
      </trkpt>
      <trkpt lat="46.74784" lon="6.19702">
        <ele>984.59997558594</ele>
        <time>2023-08-03T04:33:13.000Z</time>
      </trkpt>
      <trkpt lat="46.74787" lon="6.19718">
        <ele>984</ele>
        <time>2023-08-03T04:33:14.000Z</time>
      </trkpt>
      <trkpt lat="46.7479" lon="6.19734">
        <ele>983.20001220703</ele>
        <time>2023-08-03T04:33:15.000Z</time>
      </trkpt>
      <trkpt lat="46.74794" lon="6.19749">
        <ele>982.79998779297</ele>
        <time>2023-08-03T04:33:16.000Z</time>
      </trkpt>
      <trkpt lat="46.74799" lon="6.19764">
        <ele>982</ele>
        <time>2023-08-03T04:33:17.000Z</time>
      </trkpt>
      <trkpt lat="46.74804" lon="6.19779">
        <ele>981.79998779297</ele>
        <time>2023-08-03T04:33:18.000Z</time>
      </trkpt>
      <trkpt lat="46.74814" lon="6.19808">
        <ele>980.40002441406</ele>
        <time>2023-08-03T04:33:20.000Z</time>
      </trkpt>
      <trkpt lat="46.74823" lon="6.19834">
        <ele>979.20001220703</ele>
        <time>2023-08-03T04:33:22.000Z</time>
      </trkpt>
      <trkpt lat="46.74834" lon="6.19867">
        <ele>978</ele>
        <time>2023-08-03T04:33:24.000Z</time>
      </trkpt>
      <trkpt lat="46.74844" lon="6.19897">
        <ele>976.79998779297</ele>
        <time>2023-08-03T04:33:26.000Z</time>
      </trkpt>
      <trkpt lat="46.74853" lon="6.19928">
        <ele>975.79998779297</ele>
        <time>2023-08-03T04:33:28.000Z</time>
      </trkpt>
      <trkpt lat="46.74859" lon="6.19956">
        <ele>974</ele>
        <time>2023-08-03T04:33:30.000Z</time>
      </trkpt>
      <trkpt lat="46.74868" lon="6.20007">
        <ele>972.79998779297</ele>
        <time>2023-08-03T04:33:33.000Z</time>
      </trkpt>
      <trkpt lat="46.74874" lon="6.20034">
        <ele>971.59997558594</ele>
        <time>2023-08-03T04:33:35.000Z</time>
      </trkpt>
      <trkpt lat="46.74883" lon="6.20063">
        <ele>970.79998779297</ele>
        <time>2023-08-03T04:33:37.000Z</time>
      </trkpt>
      <trkpt lat="46.74888" lon="6.20076">
        <ele>970.40002441406</ele>
        <time>2023-08-03T04:33:38.000Z</time>
      </trkpt>
      <trkpt lat="46.74905" lon="6.20115">
        <ele>969.20001220703</ele>
        <time>2023-08-03T04:33:41.000Z</time>
      </trkpt>
      <trkpt lat="46.74924" lon="6.20152">
        <ele>968</ele>
        <time>2023-08-03T04:33:44.000Z</time>
      </trkpt>
      <trkpt lat="46.7493" lon="6.20165">
        <ele>967.59997558594</ele>
        <time>2023-08-03T04:33:45.000Z</time>
      </trkpt>
      <trkpt lat="46.74936" lon="6.20177">
        <ele>967</ele>
        <time>2023-08-03T04:33:46.000Z</time>
      </trkpt>
      <trkpt lat="46.74953" lon="6.20213">
        <ele>965.40002441406</ele>
        <time>2023-08-03T04:33:49.000Z</time>
      </trkpt>
      <trkpt lat="46.7497" lon="6.20246">
        <ele>964.59997558594</ele>
        <time>2023-08-03T04:33:52.000Z</time>
      </trkpt>
      <trkpt lat="46.74977" lon="6.20256">
        <ele>964.40002441406</ele>
        <time>2023-08-03T04:33:53.000Z</time>
      </trkpt>
      <trkpt lat="46.75013" lon="6.2032">
        <ele>963.59997558594</ele>
        <time>2023-08-03T04:33:59.000Z</time>
      </trkpt>
      <trkpt lat="46.75017" lon="6.20329">
        <ele>963.40002441406</ele>
        <time>2023-08-03T04:34:00.000Z</time>
      </trkpt>
      <trkpt lat="46.75022" lon="6.20339">
        <ele>963.40002441406</ele>
        <time>2023-08-03T04:34:01.000Z</time>
      </trkpt>
      <trkpt lat="46.75026" lon="6.2035">
        <ele>963.20001220703</ele>
        <time>2023-08-03T04:34:02.000Z</time>
      </trkpt>
      <trkpt lat="46.75037" lon="6.20382">
        <ele>963</ele>
        <time>2023-08-03T04:34:05.000Z</time>
      </trkpt>
      <trkpt lat="46.75059" lon="6.20443">
        <ele>962.20001220703</ele>
        <time>2023-08-03T04:34:11.000Z</time>
      </trkpt>
      <trkpt lat="46.75073" lon="6.20483">
        <ele>961.20001220703</ele>
        <time>2023-08-03T04:34:15.000Z</time>
      </trkpt>
      <trkpt lat="46.75075" lon="6.20489">
        <ele>960.59997558594</ele>
        <time>2023-08-03T04:34:16.000Z</time>
      </trkpt>
      <trkpt lat="46.75078" lon="6.20497">
        <ele>959.79998779297</ele>
        <time>2023-08-03T04:34:18.000Z</time>
      </trkpt>
      <trkpt lat="46.75084" lon="6.20512">
        <ele>959.20001220703</ele>
        <time>2023-08-03T04:34:19.000Z</time>
      </trkpt>
      <trkpt lat="46.75093" lon="6.20528">
        <ele>958.59997558594</ele>
        <time>2023-08-03T04:34:21.000Z</time>
      </trkpt>
      <trkpt lat="46.75103" lon="6.20546">
        <ele>958.20001220703</ele>
        <time>2023-08-03T04:34:23.000Z</time>
      </trkpt>
      <trkpt lat="46.75116" lon="6.2057">
        <ele>957.40002441406</ele>
        <time>2023-08-03T04:34:26.000Z</time>
      </trkpt>
      <trkpt lat="46.75132" lon="6.20598">
        <ele>957</ele>
        <time>2023-08-03T04:34:29.000Z</time>
      </trkpt>
      <trkpt lat="46.75141" lon="6.20615">
        <ele>956.20001220703</ele>
        <time>2023-08-03T04:34:31.000Z</time>
      </trkpt>
      <trkpt lat="46.75155" lon="6.20644">
        <ele>955.20001220703</ele>
        <time>2023-08-03T04:34:35.000Z</time>
      </trkpt>
      <trkpt lat="46.75169" lon="6.20675">
        <ele>954.79998779297</ele>
        <time>2023-08-03T04:34:37.000Z</time>
      </trkpt>
      <trkpt lat="46.75182" lon="6.20708">
        <ele>954</ele>
        <time>2023-08-03T04:34:40.000Z</time>
      </trkpt>
      <trkpt lat="46.75194" lon="6.20737">
        <ele>953.20001220703</ele>
        <time>2023-08-03T04:34:43.000Z</time>
      </trkpt>
      <trkpt lat="46.75198" lon="6.20747">
        <ele>952.79998779297</ele>
        <time>2023-08-03T04:34:44.000Z</time>
      </trkpt>
      <trkpt lat="46.75221" lon="6.20799">
        <ele>952</ele>
        <time>2023-08-03T04:34:49.000Z</time>
      </trkpt>
      <trkpt lat="46.75225" lon="6.2081">
        <ele>951.79998779297</ele>
        <time>2023-08-03T04:34:50.000Z</time>
      </trkpt>
      <trkpt lat="46.75238" lon="6.20867">
        <ele>950.40002441406</ele>
        <time>2023-08-03T04:34:55.000Z</time>
      </trkpt>
      <trkpt lat="46.75254" lon="6.20947">
        <ele>949.59997558594</ele>
        <time>2023-08-03T04:35:02.000Z</time>
      </trkpt>
      <trkpt lat="46.75256" lon="6.20959">
        <ele>949.40002441406</ele>
        <time>2023-08-03T04:35:03.000Z</time>
      </trkpt>
      <trkpt lat="46.75261" lon="6.20995">
        <ele>948.79998779297</ele>
        <time>2023-08-03T04:35:06.000Z</time>
      </trkpt>
      <trkpt lat="46.75264" lon="6.21019">
        <ele>948.40002441406</ele>
        <time>2023-08-03T04:35:08.000Z</time>
      </trkpt>
      <trkpt lat="46.75277" lon="6.21105">
        <ele>947.59997558594</ele>
        <time>2023-08-03T04:35:15.000Z</time>
      </trkpt>
      <trkpt lat="46.7528" lon="6.21119">
        <ele>947.20001220703</ele>
        <time>2023-08-03T04:35:16.000Z</time>
      </trkpt>
      <trkpt lat="46.75287" lon="6.21164">
        <ele>946.20001220703</ele>
        <time>2023-08-03T04:35:20.000Z</time>
      </trkpt>
      <trkpt lat="46.75294" lon="6.21198">
        <ele>945.79998779297</ele>
        <time>2023-08-03T04:35:23.000Z</time>
      </trkpt>
      <trkpt lat="46.75312" lon="6.2126">
        <ele>945.40002441406</ele>
        <time>2023-08-03T04:35:29.000Z</time>
      </trkpt>
      <trkpt lat="46.75334" lon="6.21327">
        <ele>945</ele>
        <time>2023-08-03T04:35:35.000Z</time>
      </trkpt>
      <trkpt lat="46.75339" lon="6.21342">
        <ele>944.59997558594</ele>
        <time>2023-08-03T04:35:36.000Z</time>
      </trkpt>
      <trkpt lat="46.75342" lon="6.21352">
        <ele>944</ele>
        <time>2023-08-03T04:35:37.000Z</time>
      </trkpt>
      <trkpt lat="46.75354" lon="6.2139">
        <ele>942.79998779297</ele>
        <time>2023-08-03T04:35:40.000Z</time>
      </trkpt>
      <trkpt lat="46.75361" lon="6.2141">
        <ele>941.59997558594</ele>
        <time>2023-08-03T04:35:42.000Z</time>
      </trkpt>
      <trkpt lat="46.75364" lon="6.21421">
        <ele>941.20001220703</ele>
        <time>2023-08-03T04:35:43.000Z</time>
      </trkpt>
      <trkpt lat="46.75379" lon="6.21462">
        <ele>940.59997558594</ele>
        <time>2023-08-03T04:35:47.000Z</time>
      </trkpt>
      <trkpt lat="46.75386" lon="6.21483">
        <ele>940.40002441406</ele>
        <time>2023-08-03T04:35:49.000Z</time>
      </trkpt>
      <trkpt lat="46.75416" lon="6.21559">
        <ele>940.20001220703</ele>
        <time>2023-08-03T04:35:57.000Z</time>
      </trkpt>
      <trkpt lat="46.75453" lon="6.21621">
        <ele>938.20001220703</ele>
        <time>2023-08-03T04:36:04.000Z</time>
      </trkpt>
      <trkpt lat="46.75458" lon="6.21631">
        <ele>939.40002441406</ele>
        <time>2023-08-03T04:36:05.000Z</time>
      </trkpt>
      <trkpt lat="46.7548" lon="6.21669">
        <ele>938.20001220703</ele>
        <time>2023-08-03T04:36:10.000Z</time>
      </trkpt>
      <trkpt lat="46.75497" lon="6.21696">
        <ele>938</ele>
        <time>2023-08-03T04:36:12.000Z</time>
      </trkpt>
      <trkpt lat="46.75507" lon="6.21716">
        <ele>937</ele>
        <time>2023-08-03T04:36:15.000Z</time>
      </trkpt>
      <trkpt lat="46.75526" lon="6.21759">
        <ele>936.20001220703</ele>
        <time>2023-08-03T04:36:18.000Z</time>
      </trkpt>
      <trkpt lat="46.7553" lon="6.2177">
        <ele>935.79998779297</ele>
        <time>2023-08-03T04:36:19.000Z</time>
      </trkpt>
      <trkpt lat="46.75542" lon="6.21802">
        <ele>934.59997558594</ele>
        <time>2023-08-03T04:36:22.000Z</time>
      </trkpt>
      <trkpt lat="46.75546" lon="6.21812">
        <ele>934.59997558594</ele>
        <time>2023-08-03T04:36:23.000Z</time>
      </trkpt>
      <trkpt lat="46.75565" lon="6.21859">
        <ele>934.20001220703</ele>
        <time>2023-08-03T04:36:28.000Z</time>
      </trkpt>
      <trkpt lat="46.75586" lon="6.21907">
        <ele>934.20001220703</ele>
        <time>2023-08-03T04:36:33.000Z</time>
      </trkpt>
      <trkpt lat="46.75598" lon="6.21924">
        <ele>934</ele>
        <time>2023-08-03T04:36:35.000Z</time>
      </trkpt>
      <trkpt lat="46.75619" lon="6.21947">
        <ele>933.79998779297</ele>
        <time>2023-08-03T04:36:38.000Z</time>
      </trkpt>
      <trkpt lat="46.7564" lon="6.21972">
        <ele>933.20001220703</ele>
        <time>2023-08-03T04:36:41.000Z</time>
      </trkpt>
      <trkpt lat="46.75652" lon="6.21991">
        <ele>932.59997558594</ele>
        <time>2023-08-03T04:36:43.000Z</time>
      </trkpt>
      <trkpt lat="46.7566" lon="6.22012">
        <ele>932.20001220703</ele>
        <time>2023-08-03T04:36:45.000Z</time>
      </trkpt>
      <trkpt lat="46.75667" lon="6.22034">
        <ele>931.59997558594</ele>
        <time>2023-08-03T04:36:47.000Z</time>
      </trkpt>
      <trkpt lat="46.75683" lon="6.22089">
        <ele>930.59997558594</ele>
        <time>2023-08-03T04:36:52.000Z</time>
      </trkpt>
      <trkpt lat="46.75686" lon="6.221">
        <ele>930.59997558594</ele>
        <time>2023-08-03T04:36:53.000Z</time>
      </trkpt>
      <trkpt lat="46.75706" lon="6.22162">
        <ele>929.79998779297</ele>
        <time>2023-08-03T04:36:59.000Z</time>
      </trkpt>
      <trkpt lat="46.7573" lon="6.22207">
        <ele>929.79998779297</ele>
        <time>2023-08-03T04:37:04.000Z</time>
      </trkpt>
      <trkpt lat="46.75741" lon="6.22223">
        <ele>929.59997558594</ele>
        <time>2023-08-03T04:37:06.000Z</time>
      </trkpt>
      <trkpt lat="46.75768" lon="6.22262">
        <ele>929</ele>
        <time>2023-08-03T04:37:11.000Z</time>
      </trkpt>
      <trkpt lat="46.75805" lon="6.22316">
        <ele>928.40002441406</ele>
        <time>2023-08-03T04:37:18.000Z</time>
      </trkpt>
      <trkpt lat="46.7582" lon="6.22342">
        <ele>927.79998779297</ele>
        <time>2023-08-03T04:37:22.000Z</time>
      </trkpt>
      <trkpt lat="46.75836" lon="6.22381">
        <ele>927.40002441406</ele>
        <time>2023-08-03T04:37:25.000Z</time>
      </trkpt>
      <trkpt lat="46.75843" lon="6.22401">
        <ele>927.20001220703</ele>
        <time>2023-08-03T04:37:27.000Z</time>
      </trkpt>
      <trkpt lat="46.75865" lon="6.2245">
        <ele>926.79998779297</ele>
        <time>2023-08-03T04:37:32.000Z</time>
      </trkpt>
      <trkpt lat="46.75894" lon="6.22489">
        <ele>926.40002441406</ele>
        <time>2023-08-03T04:37:38.000Z</time>
      </trkpt>
      <trkpt lat="46.75912" lon="6.22512">
        <ele>926.20001220703</ele>
        <time>2023-08-03T04:37:40.000Z</time>
      </trkpt>
      <trkpt lat="46.75937" lon="6.22558">
        <ele>925.59997558594</ele>
        <time>2023-08-03T04:37:45.000Z</time>
      </trkpt>
      <trkpt lat="46.75944" lon="6.22577">
        <ele>925.20001220703</ele>
        <time>2023-08-03T04:37:47.000Z</time>
      </trkpt>
      <trkpt lat="46.7597" lon="6.22638">
        <ele>924.59997558594</ele>
        <time>2023-08-03T04:37:53.000Z</time>
      </trkpt>
      <trkpt lat="46.75986" lon="6.22662">
        <ele>924</ele>
        <time>2023-08-03T04:37:56.000Z</time>
      </trkpt>
      <trkpt lat="46.76006" lon="6.22686">
        <ele>923.59997558594</ele>
        <time>2023-08-03T04:37:59.000Z</time>
      </trkpt>
      <trkpt lat="46.76039" lon="6.22709">
        <ele>923.20001220703</ele>
        <time>2023-08-03T04:38:04.000Z</time>
      </trkpt>
      <trkpt lat="46.76055" lon="6.22716">
        <ele>923</ele>
        <time>2023-08-03T04:38:06.000Z</time>
      </trkpt>
      <trkpt lat="46.76063" lon="6.22719">
        <ele>922.79998779297</ele>
        <time>2023-08-03T04:38:07.000Z</time>
      </trkpt>
      <trkpt lat="46.76077" lon="6.22727">
        <ele>922.59997558594</ele>
        <time>2023-08-03T04:38:09.000Z</time>
      </trkpt>
      <trkpt lat="46.76091" lon="6.22738">
        <ele>922.59997558594</ele>
        <time>2023-08-03T04:38:11.000Z</time>
      </trkpt>
      <trkpt lat="46.76102" lon="6.22751">
        <ele>922.20001220703</ele>
        <time>2023-08-03T04:38:13.000Z</time>
      </trkpt>
      <trkpt lat="46.76113" lon="6.22769">
        <ele>922</ele>
        <time>2023-08-03T04:38:15.000Z</time>
      </trkpt>
      <trkpt lat="46.76118" lon="6.22778">
        <ele>921.79998779297</ele>
        <time>2023-08-03T04:38:16.000Z</time>
      </trkpt>
      <trkpt lat="46.76122" lon="6.22787">
        <ele>921.59997558594</ele>
        <time>2023-08-03T04:38:17.000Z</time>
      </trkpt>
      <trkpt lat="46.7614" lon="6.22843">
        <ele>921</ele>
        <time>2023-08-03T04:38:23.000Z</time>
      </trkpt>
      <trkpt lat="46.76159" lon="6.22901">
        <ele>920.79998779297</ele>
        <time>2023-08-03T04:38:30.000Z</time>
      </trkpt>
      <trkpt lat="46.76172" lon="6.22943">
        <ele>921.20001220703</ele>
        <time>2023-08-03T04:38:36.000Z</time>
      </trkpt>
      <trkpt lat="46.76185" lon="6.22997">
        <ele>921.20001220703</ele>
        <time>2023-08-03T04:38:41.000Z</time>
      </trkpt>
      <trkpt lat="46.76186" lon="6.23006">
        <ele>921.40002441406</ele>
        <time>2023-08-03T04:38:42.000Z</time>
      </trkpt>
      <trkpt lat="46.76197" lon="6.23066">
        <ele>922</ele>
        <time>2023-08-03T04:38:49.000Z</time>
      </trkpt>
      <trkpt lat="46.76201" lon="6.23083">
        <ele>922.20001220703</ele>
        <time>2023-08-03T04:38:51.000Z</time>
      </trkpt>
      <trkpt lat="46.76205" lon="6.2311">
        <ele>922.59997558594</ele>
        <time>2023-08-03T04:38:55.000Z</time>
      </trkpt>
      <trkpt lat="46.76211" lon="6.23181">
        <ele>922.59997558594</ele>
        <time>2023-08-03T04:39:02.000Z</time>
      </trkpt>
      <trkpt lat="46.7621" lon="6.23206">
        <ele>922.79998779297</ele>
        <time>2023-08-03T04:39:05.000Z</time>
      </trkpt>
      <trkpt lat="46.76206" lon="6.23224">
        <ele>922.79998779297</ele>
        <time>2023-08-03T04:39:07.000Z</time>
      </trkpt>
      <trkpt lat="46.76192" lon="6.23264">
        <ele>923.20001220703</ele>
        <time>2023-08-03T04:39:12.000Z</time>
      </trkpt>
      <trkpt lat="46.76184" lon="6.23285">
        <ele>923.40002441406</ele>
        <time>2023-08-03T04:39:15.000Z</time>
      </trkpt>
      <trkpt lat="46.76181" lon="6.23301">
        <ele>923.79998779297</ele>
        <time>2023-08-03T04:39:17.000Z</time>
      </trkpt>
      <trkpt lat="46.7618" lon="6.23318">
        <ele>923.79998779297</ele>
        <time>2023-08-03T04:39:19.000Z</time>
      </trkpt>
      <trkpt lat="46.7618" lon="6.23329">
        <ele>923.79998779297</ele>
        <time>2023-08-03T04:39:20.000Z</time>
      </trkpt>
      <trkpt lat="46.76181" lon="6.23344">
        <ele>924.20001220703</ele>
        <time>2023-08-03T04:39:22.000Z</time>
      </trkpt>
      <trkpt lat="46.76184" lon="6.23362">
        <ele>924.40002441406</ele>
        <time>2023-08-03T04:39:24.000Z</time>
      </trkpt>
      <trkpt lat="46.762" lon="6.23426">
        <ele>924.79998779297</ele>
        <time>2023-08-03T04:39:32.000Z</time>
      </trkpt>
      <trkpt lat="46.76217" lon="6.23471">
        <ele>925.20001220703</ele>
        <time>2023-08-03T04:39:39.000Z</time>
      </trkpt>
      <trkpt lat="46.76226" lon="6.23493">
        <ele>925.59997558594</ele>
        <time>2023-08-03T04:39:41.000Z</time>
      </trkpt>
      <trkpt lat="46.76252" lon="6.23546">
        <ele>926.20001220703</ele>
        <time>2023-08-03T04:39:49.000Z</time>
      </trkpt>
      <trkpt lat="46.76257" lon="6.23554">
        <ele>926.20001220703</ele>
        <time>2023-08-03T04:39:50.000Z</time>
      </trkpt>
      <trkpt lat="46.76274" lon="6.23576">
        <ele>926.20001220703</ele>
        <time>2023-08-03T04:39:54.000Z</time>
      </trkpt>
      <trkpt lat="46.76309" lon="6.23615">
        <ele>926.59997558594</ele>
        <time>2023-08-03T04:40:01.000Z</time>
      </trkpt>
      <trkpt lat="46.76327" lon="6.23637">
        <ele>926.59997558594</ele>
        <time>2023-08-03T04:40:05.000Z</time>
      </trkpt>
      <trkpt lat="46.76339" lon="6.23655">
        <ele>926.59997558594</ele>
        <time>2023-08-03T04:40:08.000Z</time>
      </trkpt>
      <trkpt lat="46.76355" lon="6.2368">
        <ele>926.79998779297</ele>
        <time>2023-08-03T04:40:12.000Z</time>
      </trkpt>
      <trkpt lat="46.76393" lon="6.23738">
        <ele>926.59997558594</ele>
        <time>2023-08-03T04:40:21.000Z</time>
      </trkpt>
      <trkpt lat="46.76398" lon="6.23743">
        <ele>926.59997558594</ele>
        <time>2023-08-03T04:40:22.000Z</time>
      </trkpt>
      <trkpt lat="46.76445" lon="6.23789">
        <ele>926.59997558594</ele>
        <time>2023-08-03T04:40:31.000Z</time>
      </trkpt>
      <trkpt lat="46.76486" lon="6.23821">
        <ele>926.40002441406</ele>
        <time>2023-08-03T04:40:38.000Z</time>
      </trkpt>
      <trkpt lat="46.765" lon="6.23827">
        <ele>926.40002441406</ele>
        <time>2023-08-03T04:40:40.000Z</time>
      </trkpt>
      <trkpt lat="46.76519" lon="6.23828">
        <ele>926.20001220703</ele>
        <time>2023-08-03T04:40:43.000Z</time>
      </trkpt>
      <trkpt lat="46.7657" lon="6.23821">
        <ele>926</ele>
        <time>2023-08-03T04:40:51.000Z</time>
      </trkpt>
      <trkpt lat="46.76625" lon="6.23811">
        <ele>926</ele>
        <time>2023-08-03T04:41:00.000Z</time>
      </trkpt>
      <trkpt lat="46.76658" lon="6.23805">
        <ele>926.59997558594</ele>
        <time>2023-08-03T04:41:06.000Z</time>
      </trkpt>
      <trkpt lat="46.76669" lon="6.23804">
        <ele>927.20001220703</ele>
        <time>2023-08-03T04:41:08.000Z</time>
      </trkpt>
      <trkpt lat="46.76679" lon="6.23809">
        <ele>927.40002441406</ele>
        <time>2023-08-03T04:41:10.000Z</time>
      </trkpt>
      <trkpt lat="46.76689" lon="6.23817">
        <ele>927.59997558594</ele>
        <time>2023-08-03T04:41:12.000Z</time>
      </trkpt>
      <trkpt lat="46.76698" lon="6.23829">
        <ele>927.59997558594</ele>
        <time>2023-08-03T04:41:14.000Z</time>
      </trkpt>
      <trkpt lat="46.76721" lon="6.23858">
        <ele>926.59997558594</ele>
        <time>2023-08-03T04:41:20.000Z</time>
      </trkpt>
      <trkpt lat="46.76744" lon="6.2389">
        <ele>925.40002441406</ele>
        <time>2023-08-03T04:41:24.000Z</time>
      </trkpt>
      <trkpt lat="46.76759" lon="6.23912">
        <ele>924.20001220703</ele>
        <time>2023-08-03T04:41:27.000Z</time>
      </trkpt>
      <trkpt lat="46.76764" lon="6.23919">
        <ele>923.79998779297</ele>
        <time>2023-08-03T04:41:28.000Z</time>
      </trkpt>
      <trkpt lat="46.7678" lon="6.2394">
        <ele>922.79998779297</ele>
        <time>2023-08-03T04:41:31.000Z</time>
      </trkpt>
      <trkpt lat="46.76793" lon="6.2395">
        <ele>922</ele>
        <time>2023-08-03T04:41:33.000Z</time>
      </trkpt>
      <trkpt lat="46.76801" lon="6.23953">
        <ele>921.59997558594</ele>
        <time>2023-08-03T04:41:34.000Z</time>
      </trkpt>
      <trkpt lat="46.76823" lon="6.2396">
        <ele>920.40002441406</ele>
        <time>2023-08-03T04:41:37.000Z</time>
      </trkpt>
      <trkpt lat="46.7683" lon="6.2396">
        <ele>920.20001220703</ele>
        <time>2023-08-03T04:41:38.000Z</time>
      </trkpt>
      <trkpt lat="46.76857" lon="6.23961">
        <ele>919.40002441406</ele>
        <time>2023-08-03T04:41:42.000Z</time>
      </trkpt>
      <trkpt lat="46.76863" lon="6.23961">
        <ele>919.20001220703</ele>
        <time>2023-08-03T04:41:43.000Z</time>
      </trkpt>
      <trkpt lat="46.76872" lon="6.23967">
        <ele>918.40002441406</ele>
        <time>2023-08-03T04:41:45.000Z</time>
      </trkpt>
      <trkpt lat="46.76873" lon="6.23975">
        <ele>918.20001220703</ele>
        <time>2023-08-03T04:41:46.000Z</time>
      </trkpt>
      <trkpt lat="46.76873" lon="6.23985">
        <ele>917.79998779297</ele>
        <time>2023-08-03T04:41:47.000Z</time>
      </trkpt>
      <trkpt lat="46.76871" lon="6.24005">
        <ele>917.20001220703</ele>
        <time>2023-08-03T04:41:49.000Z</time>
      </trkpt>
      <trkpt lat="46.76869" lon="6.24015">
        <ele>916.59997558594</ele>
        <time>2023-08-03T04:41:50.000Z</time>
      </trkpt>
      <trkpt lat="46.76861" lon="6.24057">
        <ele>915.40002441406</ele>
        <time>2023-08-03T04:41:54.000Z</time>
      </trkpt>
      <trkpt lat="46.76858" lon="6.24078">
        <ele>915.20001220703</ele>
        <time>2023-08-03T04:41:56.000Z</time>
      </trkpt>
      <trkpt lat="46.76855" lon="6.24109">
        <ele>914.40002441406</ele>
        <time>2023-08-03T04:41:59.000Z</time>
      </trkpt>
      <trkpt lat="46.76855" lon="6.2415">
        <ele>914</ele>
        <time>2023-08-03T04:42:03.000Z</time>
      </trkpt>
      <trkpt lat="46.76846" lon="6.24179">
        <ele>913.79998779297</ele>
        <time>2023-08-03T04:42:06.000Z</time>
      </trkpt>
      <trkpt lat="46.76842" lon="6.24187">
        <ele>913.59997558594</ele>
        <time>2023-08-03T04:42:07.000Z</time>
      </trkpt>
      <trkpt lat="46.76821" lon="6.24225">
        <ele>913.59997558594</ele>
        <time>2023-08-03T04:42:12.000Z</time>
      </trkpt>
      <trkpt lat="46.76806" lon="6.24253">
        <ele>913.40002441406</ele>
        <time>2023-08-03T04:42:17.000Z</time>
      </trkpt>
      <trkpt lat="46.76804" lon="6.24256">
        <ele>913.40002441406</ele>
        <time>2023-08-03T04:42:20.000Z</time>
      </trkpt>
      <trkpt lat="46.76804" lon="6.24256">
        <ele>913.40002441406</ele>
        <time>2023-08-03T04:42:21.000Z</time>
      </trkpt>
      <trkpt lat="46.76802" lon="6.24262">
        <ele>913</ele>
        <time>2023-08-03T04:43:11.000Z</time>
      </trkpt>
      <trkpt lat="46.76797" lon="6.24271">
        <ele>913</ele>
        <time>2023-08-03T04:43:13.000Z</time>
      </trkpt>
      <trkpt lat="46.76795" lon="6.24276">
        <ele>913</ele>
        <time>2023-08-03T04:43:14.000Z</time>
      </trkpt>
      <trkpt lat="46.76787" lon="6.24294">
        <ele>912.79998779297</ele>
        <time>2023-08-03T04:43:17.000Z</time>
      </trkpt>
      <trkpt lat="46.76783" lon="6.24299">
        <ele>912.79998779297</ele>
        <time>2023-08-03T04:43:18.000Z</time>
      </trkpt>
      <trkpt lat="46.76761" lon="6.24341">
        <ele>912</ele>
        <time>2023-08-03T04:43:24.000Z</time>
      </trkpt>
      <trkpt lat="46.76757" lon="6.24349">
        <ele>911.79998779297</ele>
        <time>2023-08-03T04:43:25.000Z</time>
      </trkpt>
      <trkpt lat="46.76743" lon="6.24385">
        <ele>911.20001220703</ele>
        <time>2023-08-03T04:43:29.000Z</time>
      </trkpt>
      <trkpt lat="46.76741" lon="6.24395">
        <ele>911</ele>
        <time>2023-08-03T04:43:30.000Z</time>
      </trkpt>
      <trkpt lat="46.76739" lon="6.24417">
        <ele>910.40002441406</ele>
        <time>2023-08-03T04:43:32.000Z</time>
      </trkpt>
      <trkpt lat="46.76746" lon="6.24464">
        <ele>909.59997558594</ele>
        <time>2023-08-03T04:43:36.000Z</time>
      </trkpt>
      <trkpt lat="46.76748" lon="6.24475">
        <ele>909.40002441406</ele>
        <time>2023-08-03T04:43:37.000Z</time>
      </trkpt>
      <trkpt lat="46.7676" lon="6.24532">
        <ele>908.20001220703</ele>
        <time>2023-08-03T04:43:42.000Z</time>
      </trkpt>
      <trkpt lat="46.76762" lon="6.24543">
        <ele>907.79998779297</ele>
        <time>2023-08-03T04:43:43.000Z</time>
      </trkpt>
      <trkpt lat="46.76763" lon="6.24553">
        <ele>907.79998779297</ele>
        <time>2023-08-03T04:43:44.000Z</time>
      </trkpt>
      <trkpt lat="46.76764" lon="6.24574">
        <ele>907.59997558594</ele>
        <time>2023-08-03T04:43:46.000Z</time>
      </trkpt>
      <trkpt lat="46.76763" lon="6.24584">
        <ele>907.40002441406</ele>
        <time>2023-08-03T04:43:47.000Z</time>
      </trkpt>
      <trkpt lat="46.76762" lon="6.24594">
        <ele>907.40002441406</ele>
        <time>2023-08-03T04:43:48.000Z</time>
      </trkpt>
      <trkpt lat="46.76754" lon="6.24621">
        <ele>907.79998779297</ele>
        <time>2023-08-03T04:43:51.000Z</time>
      </trkpt>
      <trkpt lat="46.76739" lon="6.2468">
        <ele>909.40002441406</ele>
        <time>2023-08-03T04:43:58.000Z</time>
      </trkpt>
      <trkpt lat="46.76738" lon="6.2469">
        <ele>909.40002441406</ele>
        <time>2023-08-03T04:43:59.000Z</time>
      </trkpt>
      <trkpt lat="46.76738" lon="6.24699">
        <ele>909.59997558594</ele>
        <time>2023-08-03T04:44:00.000Z</time>
      </trkpt>
      <trkpt lat="46.7674" lon="6.24718">
        <ele>909.59997558594</ele>
        <time>2023-08-03T04:44:02.000Z</time>
      </trkpt>
      <trkpt lat="46.76742" lon="6.24727">
        <ele>909.59997558594</ele>
        <time>2023-08-03T04:44:03.000Z</time>
      </trkpt>
      <trkpt lat="46.7676" lon="6.24781">
        <ele>909.59997558594</ele>
        <time>2023-08-03T04:44:09.000Z</time>
      </trkpt>
      <trkpt lat="46.76789" lon="6.24855">
        <ele>908.79998779297</ele>
        <time>2023-08-03T04:44:17.000Z</time>
      </trkpt>
      <trkpt lat="46.76792" lon="6.24864">
        <ele>908.59997558594</ele>
        <time>2023-08-03T04:44:18.000Z</time>
      </trkpt>
      <trkpt lat="46.76803" lon="6.24892">
        <ele>908.20001220703</ele>
        <time>2023-08-03T04:44:21.000Z</time>
      </trkpt>
      <trkpt lat="46.7682" lon="6.2494">
        <ele>907.20001220703</ele>
        <time>2023-08-03T04:44:26.000Z</time>
      </trkpt>
      <trkpt lat="46.76822" lon="6.24952">
        <ele>907</ele>
        <time>2023-08-03T04:44:27.000Z</time>
      </trkpt>
      <trkpt lat="46.76822" lon="6.24964">
        <ele>907</ele>
        <time>2023-08-03T04:44:28.000Z</time>
      </trkpt>
      <trkpt lat="46.7682" lon="6.24976">
        <ele>906.59997558594</ele>
        <time>2023-08-03T04:44:29.000Z</time>
      </trkpt>
      <trkpt lat="46.76816" lon="6.24986">
        <ele>906</ele>
        <time>2023-08-03T04:44:30.000Z</time>
      </trkpt>
      <trkpt lat="46.76804" lon="6.25008">
        <ele>905.40002441406</ele>
        <time>2023-08-03T04:44:32.000Z</time>
      </trkpt>
      <trkpt lat="46.76799" lon="6.25018">
        <ele>905</ele>
        <time>2023-08-03T04:44:33.000Z</time>
      </trkpt>
      <trkpt lat="46.76795" lon="6.25026">
        <ele>904.59997558594</ele>
        <time>2023-08-03T04:44:34.000Z</time>
      </trkpt>
      <trkpt lat="46.76791" lon="6.25039">
        <ele>904.59997558594</ele>
        <time>2023-08-03T04:44:35.000Z</time>
      </trkpt>
      <trkpt lat="46.76789" lon="6.25049">
        <ele>904.20001220703</ele>
        <time>2023-08-03T04:44:36.000Z</time>
      </trkpt>
      <trkpt lat="46.76787" lon="6.25061">
        <ele>903.59997558594</ele>
        <time>2023-08-03T04:44:37.000Z</time>
      </trkpt>
      <trkpt lat="46.76787" lon="6.25074">
        <ele>903.40002441406</ele>
        <time>2023-08-03T04:44:38.000Z</time>
      </trkpt>
      <trkpt lat="46.76787" lon="6.25099">
        <ele>903</ele>
        <time>2023-08-03T04:44:40.000Z</time>
      </trkpt>
      <trkpt lat="46.76787" lon="6.25112">
        <ele>902.20001220703</ele>
        <time>2023-08-03T04:44:41.000Z</time>
      </trkpt>
      <trkpt lat="46.7679" lon="6.25164">
        <ele>901</ele>
        <time>2023-08-03T04:44:45.000Z</time>
      </trkpt>
      <trkpt lat="46.76793" lon="6.25202">
        <ele>900</ele>
        <time>2023-08-03T04:44:48.000Z</time>
      </trkpt>
      <trkpt lat="46.76798" lon="6.25255">
        <ele>898.79998779297</ele>
        <time>2023-08-03T04:44:52.000Z</time>
      </trkpt>
      <trkpt lat="46.76801" lon="6.25268">
        <ele>898.79998779297</ele>
        <time>2023-08-03T04:44:53.000Z</time>
      </trkpt>
      <trkpt lat="46.76805" lon="6.2528">
        <ele>898.40002441406</ele>
        <time>2023-08-03T04:44:54.000Z</time>
      </trkpt>
      <trkpt lat="46.76816" lon="6.25302">
        <ele>897.40002441406</ele>
        <time>2023-08-03T04:44:56.000Z</time>
      </trkpt>
      <trkpt lat="46.76835" lon="6.25333">
        <ele>896.40002441406</ele>
        <time>2023-08-03T04:44:59.000Z</time>
      </trkpt>
      <trkpt lat="46.76857" lon="6.25366">
        <ele>895.40002441406</ele>
        <time>2023-08-03T04:45:02.000Z</time>
      </trkpt>
      <trkpt lat="46.76881" lon="6.25408">
        <ele>894</ele>
        <time>2023-08-03T04:45:06.000Z</time>
      </trkpt>
      <trkpt lat="46.76894" lon="6.25434">
        <ele>893.20001220703</ele>
        <time>2023-08-03T04:45:08.000Z</time>
      </trkpt>
      <trkpt lat="46.76899" lon="6.25443">
        <ele>892.79998779297</ele>
        <time>2023-08-03T04:45:09.000Z</time>
      </trkpt>
      <trkpt lat="46.76918" lon="6.25479">
        <ele>891.59997558594</ele>
        <time>2023-08-03T04:45:12.000Z</time>
      </trkpt>
      <trkpt lat="46.7693" lon="6.25503">
        <ele>890.59997558594</ele>
        <time>2023-08-03T04:45:14.000Z</time>
      </trkpt>
      <trkpt lat="46.76943" lon="6.25528">
        <ele>889.59997558594</ele>
        <time>2023-08-03T04:45:16.000Z</time>
      </trkpt>
      <trkpt lat="46.76949" lon="6.2554">
        <ele>889.20001220703</ele>
        <time>2023-08-03T04:45:17.000Z</time>
      </trkpt>
      <trkpt lat="46.76962" lon="6.25564">
        <ele>888.20001220703</ele>
        <time>2023-08-03T04:45:19.000Z</time>
      </trkpt>
      <trkpt lat="46.76983" lon="6.256">
        <ele>887</ele>
        <time>2023-08-03T04:45:22.000Z</time>
      </trkpt>
      <trkpt lat="46.76998" lon="6.25616">
        <ele>886</ele>
        <time>2023-08-03T04:45:24.000Z</time>
      </trkpt>
      <trkpt lat="46.77006" lon="6.25623">
        <ele>885.59997558594</ele>
        <time>2023-08-03T04:45:25.000Z</time>
      </trkpt>
      <trkpt lat="46.77032" lon="6.25641">
        <ele>885</ele>
        <time>2023-08-03T04:45:28.000Z</time>
      </trkpt>
      <trkpt lat="46.77041" lon="6.25645">
        <ele>884.79998779297</ele>
        <time>2023-08-03T04:45:29.000Z</time>
      </trkpt>
      <trkpt lat="46.77076" lon="6.25659">
        <ele>884</ele>
        <time>2023-08-03T04:45:33.000Z</time>
      </trkpt>
      <trkpt lat="46.77094" lon="6.25661">
        <ele>883.79998779297</ele>
        <time>2023-08-03T04:45:35.000Z</time>
      </trkpt>
      <trkpt lat="46.77111" lon="6.25656">
        <ele>883.40002441406</ele>
        <time>2023-08-03T04:45:37.000Z</time>
      </trkpt>
      <trkpt lat="46.77134" lon="6.25639">
        <ele>882.59997558594</ele>
        <time>2023-08-03T04:45:40.000Z</time>
      </trkpt>
      <trkpt lat="46.77142" lon="6.25632">
        <ele>882.20001220703</ele>
        <time>2023-08-03T04:45:41.000Z</time>
      </trkpt>
      <trkpt lat="46.77151" lon="6.25625">
        <ele>882.20001220703</ele>
        <time>2023-08-03T04:45:42.000Z</time>
      </trkpt>
      <trkpt lat="46.77165" lon="6.25618">
        <ele>881.59997558594</ele>
        <time>2023-08-03T04:45:44.000Z</time>
      </trkpt>
      <trkpt lat="46.77174" lon="6.25618">
        <ele>881.40002441406</ele>
        <time>2023-08-03T04:45:45.000Z</time>
      </trkpt>
      <trkpt lat="46.77182" lon="6.25619">
        <ele>881</ele>
        <time>2023-08-03T04:45:46.000Z</time>
      </trkpt>
      <trkpt lat="46.77191" lon="6.25622">
        <ele>880.79998779297</ele>
        <time>2023-08-03T04:45:47.000Z</time>
      </trkpt>
      <trkpt lat="46.77199" lon="6.25627">
        <ele>880</ele>
        <time>2023-08-03T04:45:48.000Z</time>
      </trkpt>
      <trkpt lat="46.77212" lon="6.25642">
        <ele>879.20001220703</ele>
        <time>2023-08-03T04:45:50.000Z</time>
      </trkpt>
      <trkpt lat="46.77224" lon="6.25661">
        <ele>878.79998779297</ele>
        <time>2023-08-03T04:45:52.000Z</time>
      </trkpt>
      <trkpt lat="46.77246" lon="6.25704">
        <ele>877.59997558594</ele>
        <time>2023-08-03T04:45:56.000Z</time>
      </trkpt>
      <trkpt lat="46.77273" lon="6.2574">
        <ele>876.20001220703</ele>
        <time>2023-08-03T04:46:00.000Z</time>
      </trkpt>
      <trkpt lat="46.7728" lon="6.25748">
        <ele>875.59997558594</ele>
        <time>2023-08-03T04:46:01.000Z</time>
      </trkpt>
      <trkpt lat="46.77288" lon="6.25754">
        <ele>875.20001220703</ele>
        <time>2023-08-03T04:46:02.000Z</time>
      </trkpt>
      <trkpt lat="46.77311" lon="6.25773">
        <ele>874</ele>
        <time>2023-08-03T04:46:05.000Z</time>
      </trkpt>
      <trkpt lat="46.77326" lon="6.25784">
        <ele>873.59997558594</ele>
        <time>2023-08-03T04:46:07.000Z</time>
      </trkpt>
      <trkpt lat="46.77352" lon="6.25812">
        <ele>872.79998779297</ele>
        <time>2023-08-03T04:46:11.000Z</time>
      </trkpt>
      <trkpt lat="46.77388" lon="6.25853">
        <ele>872</ele>
        <time>2023-08-03T04:46:17.000Z</time>
      </trkpt>
      <trkpt lat="46.77408" lon="6.25876">
        <ele>871.40002441406</ele>
        <time>2023-08-03T04:46:20.000Z</time>
      </trkpt>
      <trkpt lat="46.77447" lon="6.25922">
        <ele>870.79998779297</ele>
        <time>2023-08-03T04:46:27.000Z</time>
      </trkpt>
      <trkpt lat="46.77493" lon="6.25976">
        <ele>870.59997558594</ele>
        <time>2023-08-03T04:46:35.000Z</time>
      </trkpt>
      <trkpt lat="46.77503" lon="6.25986">
        <ele>870.59997558594</ele>
        <time>2023-08-03T04:46:37.000Z</time>
      </trkpt>
      <trkpt lat="46.77551" lon="6.26029">
        <ele>870.59997558594</ele>
        <time>2023-08-03T04:46:45.000Z</time>
      </trkpt>
      <trkpt lat="46.77555" lon="6.26033">
        <ele>870.59997558594</ele>
        <time>2023-08-03T04:46:46.000Z</time>
      </trkpt>
      <trkpt lat="46.77606" lon="6.26079">
        <ele>870.59997558594</ele>
        <time>2023-08-03T04:46:55.000Z</time>
      </trkpt>
      <trkpt lat="46.77657" lon="6.26124">
        <ele>870.40002441406</ele>
        <time>2023-08-03T04:47:04.000Z</time>
      </trkpt>
      <trkpt lat="46.77667" lon="6.26133">
        <ele>870.40002441406</ele>
        <time>2023-08-03T04:47:06.000Z</time>
      </trkpt>
      <trkpt lat="46.777" lon="6.2617">
        <ele>870.40002441406</ele>
        <time>2023-08-03T04:47:12.000Z</time>
      </trkpt>
      <trkpt lat="46.77723" lon="6.26216">
        <ele>870.20001220703</ele>
        <time>2023-08-03T04:47:18.000Z</time>
      </trkpt>
      <trkpt lat="46.77727" lon="6.26224">
        <ele>870.20001220703</ele>
        <time>2023-08-03T04:47:19.000Z</time>
      </trkpt>
      <trkpt lat="46.77755" lon="6.26289">
        <ele>870.20001220703</ele>
        <time>2023-08-03T04:47:27.000Z</time>
      </trkpt>
      <trkpt lat="46.77789" lon="6.26358">
        <ele>870</ele>
        <time>2023-08-03T04:47:36.000Z</time>
      </trkpt>
      <trkpt lat="46.77799" lon="6.26374">
        <ele>870</ele>
        <time>2023-08-03T04:47:38.000Z</time>
      </trkpt>
      <trkpt lat="46.77826" lon="6.26417">
        <ele>869.20001220703</ele>
        <time>2023-08-03T04:47:44.000Z</time>
      </trkpt>
      <trkpt lat="46.77846" lon="6.26446">
        <ele>869</ele>
        <time>2023-08-03T04:47:48.000Z</time>
      </trkpt>
      <trkpt lat="46.77893" lon="6.26502">
        <ele>868.79998779297</ele>
        <time>2023-08-03T04:47:57.000Z</time>
      </trkpt>
      <trkpt lat="46.77902" lon="6.26512">
        <ele>868.79998779297</ele>
        <time>2023-08-03T04:47:59.000Z</time>
      </trkpt>
      <trkpt lat="46.77948" lon="6.26566">
        <ele>868.79998779297</ele>
        <time>2023-08-03T04:48:08.000Z</time>
      </trkpt>
      <trkpt lat="46.77991" lon="6.26612">
        <ele>868.40002441406</ele>
        <time>2023-08-03T04:48:16.000Z</time>
      </trkpt>
      <trkpt lat="46.78001" lon="6.26623">
        <ele>868.40002441406</ele>
        <time>2023-08-03T04:48:18.000Z</time>
      </trkpt>
      <trkpt lat="46.78046" lon="6.26668">
        <ele>868.20001220703</ele>
        <time>2023-08-03T04:48:26.000Z</time>
      </trkpt>
      <trkpt lat="46.78061" lon="6.26684">
        <ele>868.20001220703</ele>
        <time>2023-08-03T04:48:29.000Z</time>
      </trkpt>
      <trkpt lat="46.78102" lon="6.26723">
        <ele>868</ele>
        <time>2023-08-03T04:48:36.000Z</time>
      </trkpt>
      <trkpt lat="46.78118" lon="6.2674">
        <ele>867.79998779297</ele>
        <time>2023-08-03T04:48:39.000Z</time>
      </trkpt>
      <trkpt lat="46.78143" lon="6.26773">
        <ele>867.59997558594</ele>
        <time>2023-08-03T04:48:44.000Z</time>
      </trkpt>
      <trkpt lat="46.78147" lon="6.2678">
        <ele>867.59997558594</ele>
        <time>2023-08-03T04:48:45.000Z</time>
      </trkpt>
      <trkpt lat="46.7818" lon="6.26849">
        <ele>867.79998779297</ele>
        <time>2023-08-03T04:48:54.000Z</time>
      </trkpt>
      <trkpt lat="46.78183" lon="6.26856">
        <ele>867.79998779297</ele>
        <time>2023-08-03T04:48:55.000Z</time>
      </trkpt>
      <trkpt lat="46.78217" lon="6.26926">
        <ele>867.59997558594</ele>
        <time>2023-08-03T04:49:04.000Z</time>
      </trkpt>
      <trkpt lat="46.78224" lon="6.2694">
        <ele>867.59997558594</ele>
        <time>2023-08-03T04:49:06.000Z</time>
      </trkpt>
      <trkpt lat="46.78257" lon="6.27012">
        <ele>867.79998779297</ele>
        <time>2023-08-03T04:49:15.000Z</time>
      </trkpt>
      <trkpt lat="46.7826" lon="6.27019">
        <ele>867.79998779297</ele>
        <time>2023-08-03T04:49:16.000Z</time>
      </trkpt>
      <trkpt lat="46.78291" lon="6.27084">
        <ele>867.59997558594</ele>
        <time>2023-08-03T04:49:24.000Z</time>
      </trkpt>
      <trkpt lat="46.78295" lon="6.27092">
        <ele>867.59997558594</ele>
        <time>2023-08-03T04:49:25.000Z</time>
      </trkpt>
      <trkpt lat="46.78299" lon="6.27097">
        <ele>867.59997558594</ele>
        <time>2023-08-03T04:49:26.000Z</time>
      </trkpt>
      <trkpt lat="46.78326" lon="6.27126">
        <ele>867</ele>
        <time>2023-08-03T04:49:31.000Z</time>
      </trkpt>
      <trkpt lat="46.78332" lon="6.2713">
        <ele>867</ele>
        <time>2023-08-03T04:49:32.000Z</time>
      </trkpt>
      <trkpt lat="46.78363" lon="6.27149">
        <ele>866.79998779297</ele>
        <time>2023-08-03T04:49:37.000Z</time>
      </trkpt>
      <trkpt lat="46.78369" lon="6.27155">
        <ele>866.79998779297</ele>
        <time>2023-08-03T04:49:38.000Z</time>
      </trkpt>
      <trkpt lat="46.78376" lon="6.27162">
        <ele>866.59997558594</ele>
        <time>2023-08-03T04:49:39.000Z</time>
      </trkpt>
      <trkpt lat="46.78389" lon="6.27187">
        <ele>866.40002441406</ele>
        <time>2023-08-03T04:49:42.000Z</time>
      </trkpt>
      <trkpt lat="46.78403" lon="6.27221">
        <ele>865.79998779297</ele>
        <time>2023-08-03T04:49:46.000Z</time>
      </trkpt>
      <trkpt lat="46.78415" lon="6.27259">
        <ele>865.40002441406</ele>
        <time>2023-08-03T04:49:50.000Z</time>
      </trkpt>
      <trkpt lat="46.78442" lon="6.27324">
        <ele>865</ele>
        <time>2023-08-03T04:49:57.000Z</time>
      </trkpt>
      <trkpt lat="46.78449" lon="6.2734">
        <ele>864.79998779297</ele>
        <time>2023-08-03T04:49:59.000Z</time>
      </trkpt>
      <trkpt lat="46.78466" lon="6.27363">
        <ele>864.40002441406</ele>
        <time>2023-08-03T04:50:02.000Z</time>
      </trkpt>
      <trkpt lat="46.78477" lon="6.27373">
        <ele>864.20001220703</ele>
        <time>2023-08-03T04:50:04.000Z</time>
      </trkpt>
      <trkpt lat="46.78491" lon="6.2738">
        <ele>864</ele>
        <time>2023-08-03T04:50:06.000Z</time>
      </trkpt>
      <trkpt lat="46.78513" lon="6.27387">
        <ele>863.79998779297</ele>
        <time>2023-08-03T04:50:09.000Z</time>
      </trkpt>
      <trkpt lat="46.78565" lon="6.27405">
        <ele>863</ele>
        <time>2023-08-03T04:50:16.000Z</time>
      </trkpt>
      <trkpt lat="46.78572" lon="6.27409">
        <ele>862.79998779297</ele>
        <time>2023-08-03T04:50:17.000Z</time>
      </trkpt>
      <trkpt lat="46.78584" lon="6.27419">
        <ele>862.40002441406</ele>
        <time>2023-08-03T04:50:19.000Z</time>
      </trkpt>
      <trkpt lat="46.7859" lon="6.27426">
        <ele>862.40002441406</ele>
        <time>2023-08-03T04:50:20.000Z</time>
      </trkpt>
      <trkpt lat="46.78596" lon="6.27435">
        <ele>862.20001220703</ele>
        <time>2023-08-03T04:50:21.000Z</time>
      </trkpt>
      <trkpt lat="46.78606" lon="6.27451">
        <ele>862</ele>
        <time>2023-08-03T04:50:23.000Z</time>
      </trkpt>
      <trkpt lat="46.78609" lon="6.27459">
        <ele>861.79998779297</ele>
        <time>2023-08-03T04:50:24.000Z</time>
      </trkpt>
      <trkpt lat="46.78613" lon="6.27468">
        <ele>861.59997558594</ele>
        <time>2023-08-03T04:50:25.000Z</time>
      </trkpt>
      <trkpt lat="46.78631" lon="6.27512">
        <ele>860.59997558594</ele>
        <time>2023-08-03T04:50:30.000Z</time>
      </trkpt>
      <trkpt lat="46.78641" lon="6.27539">
        <ele>860.40002441406</ele>
        <time>2023-08-03T04:50:33.000Z</time>
      </trkpt>
      <trkpt lat="46.78657" lon="6.27574">
        <ele>860.20001220703</ele>
        <time>2023-08-03T04:50:37.000Z</time>
      </trkpt>
      <trkpt lat="46.78665" lon="6.27588">
        <ele>860.20001220703</ele>
        <time>2023-08-03T04:50:39.000Z</time>
      </trkpt>
      <trkpt lat="46.78671" lon="6.27597">
        <ele>860.20001220703</ele>
        <time>2023-08-03T04:50:40.000Z</time>
      </trkpt>
      <trkpt lat="46.78696" lon="6.27631">
        <ele>860.20001220703</ele>
        <time>2023-08-03T04:50:45.000Z</time>
      </trkpt>
      <trkpt lat="46.78738" lon="6.2769">
        <ele>860</ele>
        <time>2023-08-03T04:50:54.000Z</time>
      </trkpt>
      <trkpt lat="46.78744" lon="6.27698">
        <ele>860</ele>
        <time>2023-08-03T04:50:55.000Z</time>
      </trkpt>
      <trkpt lat="46.78768" lon="6.27737">
        <ele>860</ele>
        <time>2023-08-03T04:51:01.000Z</time>
      </trkpt>
      <trkpt lat="46.78783" lon="6.27759">
        <ele>860.20001220703</ele>
        <time>2023-08-03T04:51:05.000Z</time>
      </trkpt>
      <trkpt lat="46.78787" lon="6.27768">
        <ele>860.20001220703</ele>
        <time>2023-08-03T04:51:07.000Z</time>
      </trkpt>
      <trkpt lat="46.78791" lon="6.2778">
        <ele>860.20001220703</ele>
        <time>2023-08-03T04:51:11.000Z</time>
      </trkpt>
      <trkpt lat="46.788" lon="6.27795">
        <ele>860.20001220703</ele>
        <time>2023-08-03T04:51:16.000Z</time>
      </trkpt>
      <trkpt lat="46.78813" lon="6.27806">
        <ele>860.20001220703</ele>
        <time>2023-08-03T04:51:19.000Z</time>
      </trkpt>
      <trkpt lat="46.78817" lon="6.27812">
        <ele>860.40002441406</ele>
        <time>2023-08-03T04:51:20.000Z</time>
      </trkpt>
      <trkpt lat="46.78848" lon="6.27853">
        <ele>860.40002441406</ele>
        <time>2023-08-03T04:51:27.000Z</time>
      </trkpt>
      <trkpt lat="46.78886" lon="6.27909">
        <ele>860.59997558594</ele>
        <time>2023-08-03T04:51:36.000Z</time>
      </trkpt>
      <trkpt lat="46.78927" lon="6.27969">
        <ele>860.79998779297</ele>
        <time>2023-08-03T04:51:45.000Z</time>
      </trkpt>
      <trkpt lat="46.7894" lon="6.27988">
        <ele>861</ele>
        <time>2023-08-03T04:51:48.000Z</time>
      </trkpt>
      <trkpt lat="46.78969" lon="6.28043">
        <ele>861.40002441406</ele>
        <time>2023-08-03T04:51:56.000Z</time>
      </trkpt>
      <trkpt lat="46.78988" lon="6.28091">
        <ele>861.40002441406</ele>
        <time>2023-08-03T04:52:02.000Z</time>
      </trkpt>
      <trkpt lat="46.79009" lon="6.28148">
        <ele>861.59997558594</ele>
        <time>2023-08-03T04:52:09.000Z</time>
      </trkpt>
      <trkpt lat="46.79035" lon="6.2822">
        <ele>861.59997558594</ele>
        <time>2023-08-03T04:52:18.000Z</time>
      </trkpt>
      <trkpt lat="46.79044" lon="6.28243">
        <ele>861.59997558594</ele>
        <time>2023-08-03T04:52:21.000Z</time>
      </trkpt>
      <trkpt lat="46.79062" lon="6.28293">
        <ele>861.79998779297</ele>
        <time>2023-08-03T04:52:27.000Z</time>
      </trkpt>
      <trkpt lat="46.79083" lon="6.28346">
        <ele>862.20001220703</ele>
        <time>2023-08-03T04:52:34.000Z</time>
      </trkpt>
      <trkpt lat="46.79113" lon="6.28396">
        <ele>862.20001220703</ele>
        <time>2023-08-03T04:52:41.000Z</time>
      </trkpt>
      <trkpt lat="46.79153" lon="6.28454">
        <ele>862.20001220703</ele>
        <time>2023-08-03T04:52:50.000Z</time>
      </trkpt>
      <trkpt lat="46.79163" lon="6.28469">
        <ele>862.20001220703</ele>
        <time>2023-08-03T04:52:52.000Z</time>
      </trkpt>
      <trkpt lat="46.79204" lon="6.2853">
        <ele>862.20001220703</ele>
        <time>2023-08-03T04:53:01.000Z</time>
      </trkpt>
      <trkpt lat="46.79218" lon="6.28551">
        <ele>862.20001220703</ele>
        <time>2023-08-03T04:53:04.000Z</time>
      </trkpt>
      <trkpt lat="46.79256" lon="6.28606">
        <ele>862.20001220703</ele>
        <time>2023-08-03T04:53:12.000Z</time>
      </trkpt>
      <trkpt lat="46.79272" lon="6.28623">
        <ele>862.40002441406</ele>
        <time>2023-08-03T04:53:15.000Z</time>
      </trkpt>
      <trkpt lat="46.79289" lon="6.28636">
        <ele>862.40002441406</ele>
        <time>2023-08-03T04:53:18.000Z</time>
      </trkpt>
      <trkpt lat="46.79339" lon="6.2867">
        <ele>862.40002441406</ele>
        <time>2023-08-03T04:53:26.000Z</time>
      </trkpt>
      <trkpt lat="46.79389" lon="6.28699">
        <ele>862.59997558594</ele>
        <time>2023-08-03T04:53:34.000Z</time>
      </trkpt>
      <trkpt lat="46.79441" lon="6.28719">
        <ele>862.79998779297</ele>
        <time>2023-08-03T04:53:42.000Z</time>
      </trkpt>
      <trkpt lat="46.79462" lon="6.28726">
        <ele>862.79998779297</ele>
        <time>2023-08-03T04:53:45.000Z</time>
      </trkpt>
      <trkpt lat="46.79486" lon="6.28734">
        <ele>863</ele>
        <time>2023-08-03T04:53:49.000Z</time>
      </trkpt>
      <trkpt lat="46.79499" lon="6.28735">
        <ele>863</ele>
        <time>2023-08-03T04:53:51.000Z</time>
      </trkpt>
      <trkpt lat="46.79519" lon="6.28732">
        <ele>863.20001220703</ele>
        <time>2023-08-03T04:53:54.000Z</time>
      </trkpt>
      <trkpt lat="46.79531" lon="6.28728">
        <ele>863.40002441406</ele>
        <time>2023-08-03T04:53:56.000Z</time>
      </trkpt>
      <trkpt lat="46.79574" lon="6.28712">
        <ele>863.59997558594</ele>
        <time>2023-08-03T04:54:03.000Z</time>
      </trkpt>
      <trkpt lat="46.79622" lon="6.28708">
        <ele>863.59997558594</ele>
        <time>2023-08-03T04:54:11.000Z</time>
      </trkpt>
      <trkpt lat="46.79636" lon="6.28711">
        <ele>863.59997558594</ele>
        <time>2023-08-03T04:54:13.000Z</time>
      </trkpt>
      <trkpt lat="46.79659" lon="6.28718">
        <ele>863.40002441406</ele>
        <time>2023-08-03T04:54:17.000Z</time>
      </trkpt>
      <trkpt lat="46.79672" lon="6.28726">
        <ele>863.40002441406</ele>
        <time>2023-08-03T04:54:19.000Z</time>
      </trkpt>
      <trkpt lat="46.79689" lon="6.28741">
        <ele>863.59997558594</ele>
        <time>2023-08-03T04:54:22.000Z</time>
      </trkpt>
      <trkpt lat="46.79703" lon="6.28757">
        <ele>863.59997558594</ele>
        <time>2023-08-03T04:54:25.000Z</time>
      </trkpt>
      <trkpt lat="46.79724" lon="6.28781">
        <ele>863.79998779297</ele>
        <time>2023-08-03T04:54:29.000Z</time>
      </trkpt>
      <trkpt lat="46.79733" lon="6.2879">
        <ele>863.79998779297</ele>
        <time>2023-08-03T04:54:31.000Z</time>
      </trkpt>
      <trkpt lat="46.79746" lon="6.28798">
        <ele>864</ele>
        <time>2023-08-03T04:54:33.000Z</time>
      </trkpt>
      <trkpt lat="46.7975" lon="6.28801">
        <ele>864</ele>
        <time>2023-08-03T04:54:34.000Z</time>
      </trkpt>
      <trkpt lat="46.79787" lon="6.28814">
        <ele>864.20001220703</ele>
        <time>2023-08-03T04:54:40.000Z</time>
      </trkpt>
      <trkpt lat="46.79834" lon="6.28828">
        <ele>864.40002441406</ele>
        <time>2023-08-03T04:54:47.000Z</time>
      </trkpt>
      <trkpt lat="46.7988" lon="6.28843">
        <ele>864.59997558594</ele>
        <time>2023-08-03T04:54:55.000Z</time>
      </trkpt>
      <trkpt lat="46.79887" lon="6.28845">
        <ele>864.59997558594</ele>
        <time>2023-08-03T04:54:56.000Z</time>
      </trkpt>
      <trkpt lat="46.79893" lon="6.28847">
        <ele>864.79998779297</ele>
        <time>2023-08-03T04:54:57.000Z</time>
      </trkpt>
      <trkpt lat="46.79912" lon="6.28851">
        <ele>864.79998779297</ele>
        <time>2023-08-03T04:55:00.000Z</time>
      </trkpt>
      <trkpt lat="46.79925" lon="6.28853">
        <ele>865</ele>
        <time>2023-08-03T04:55:02.000Z</time>
      </trkpt>
      <trkpt lat="46.79942" lon="6.28855">
        <ele>865</ele>
        <time>2023-08-03T04:55:05.000Z</time>
      </trkpt>
      <trkpt lat="46.79962" lon="6.2886">
        <ele>865</ele>
        <time>2023-08-03T04:55:08.000Z</time>
      </trkpt>
      <trkpt lat="46.79984" lon="6.28866">
        <ele>865</ele>
        <time>2023-08-03T04:55:11.000Z</time>
      </trkpt>
      <trkpt lat="46.7999" lon="6.28869">
        <ele>865</ele>
        <time>2023-08-03T04:55:12.000Z</time>
      </trkpt>
      <trkpt lat="46.80009" lon="6.28878">
        <ele>865</ele>
        <time>2023-08-03T04:55:15.000Z</time>
      </trkpt>
      <trkpt lat="46.80022" lon="6.28884">
        <ele>865</ele>
        <time>2023-08-03T04:55:17.000Z</time>
      </trkpt>
      <trkpt lat="46.80039" lon="6.28894">
        <ele>865.20001220703</ele>
        <time>2023-08-03T04:55:20.000Z</time>
      </trkpt>
      <trkpt lat="46.8008" lon="6.28919">
        <ele>865.40002441406</ele>
        <time>2023-08-03T04:55:27.000Z</time>
      </trkpt>
      <trkpt lat="46.8013" lon="6.28951">
        <ele>865.59997558594</ele>
        <time>2023-08-03T04:55:35.000Z</time>
      </trkpt>
      <trkpt lat="46.80136" lon="6.28953">
        <ele>865.59997558594</ele>
        <time>2023-08-03T04:55:36.000Z</time>
      </trkpt>
      <trkpt lat="46.80147" lon="6.28961">
        <ele>865.79998779297</ele>
        <time>2023-08-03T04:55:38.000Z</time>
      </trkpt>
      <trkpt lat="46.80178" lon="6.28977">
        <ele>865.79998779297</ele>
        <time>2023-08-03T04:55:43.000Z</time>
      </trkpt>
      <trkpt lat="46.80228" lon="6.29011">
        <ele>866</ele>
        <time>2023-08-03T04:55:52.000Z</time>
      </trkpt>
      <trkpt lat="46.80269" lon="6.2904">
        <ele>866</ele>
        <time>2023-08-03T04:55:59.000Z</time>
      </trkpt>
      <trkpt lat="46.8031" lon="6.29077">
        <ele>865.79998779297</ele>
        <time>2023-08-03T04:56:06.000Z</time>
      </trkpt>
      <trkpt lat="46.80335" lon="6.29119">
        <ele>865.79998779297</ele>
        <time>2023-08-03T04:56:12.000Z</time>
      </trkpt>
      <trkpt lat="46.80367" lon="6.29182">
        <ele>866</ele>
        <time>2023-08-03T04:56:21.000Z</time>
      </trkpt>
      <trkpt lat="46.80374" lon="6.29197">
        <ele>866.40002441406</ele>
        <time>2023-08-03T04:56:23.000Z</time>
      </trkpt>
      <trkpt lat="46.80407" lon="6.29265">
        <ele>866.40002441406</ele>
        <time>2023-08-03T04:56:32.000Z</time>
      </trkpt>
      <trkpt lat="46.80414" lon="6.2928">
        <ele>866.40002441406</ele>
        <time>2023-08-03T04:56:34.000Z</time>
      </trkpt>
      <trkpt lat="46.80441" lon="6.29339">
        <ele>866.40002441406</ele>
        <time>2023-08-03T04:56:42.000Z</time>
      </trkpt>
      <trkpt lat="46.80467" lon="6.29393">
        <ele>866.40002441406</ele>
        <time>2023-08-03T04:56:49.000Z</time>
      </trkpt>
      <trkpt lat="46.80499" lon="6.29439">
        <ele>866.59997558594</ele>
        <time>2023-08-03T04:56:56.000Z</time>
      </trkpt>
      <trkpt lat="46.80545" lon="6.29489">
        <ele>866.59997558594</ele>
        <time>2023-08-03T04:57:05.000Z</time>
      </trkpt>
      <trkpt lat="46.80551" lon="6.29495">
        <ele>866.59997558594</ele>
        <time>2023-08-03T04:57:06.000Z</time>
      </trkpt>
      <trkpt lat="46.80596" lon="6.29544">
        <ele>866.40002441406</ele>
        <time>2023-08-03T04:57:14.000Z</time>
      </trkpt>
      <trkpt lat="46.80601" lon="6.29549">
        <ele>866.20001220703</ele>
        <time>2023-08-03T04:57:15.000Z</time>
      </trkpt>
      <trkpt lat="46.80648" lon="6.29601">
        <ele>866</ele>
        <time>2023-08-03T04:57:23.000Z</time>
      </trkpt>
      <trkpt lat="46.80659" lon="6.29614">
        <ele>865.79998779297</ele>
        <time>2023-08-03T04:57:25.000Z</time>
      </trkpt>
      <trkpt lat="46.80705" lon="6.29664">
        <ele>866</ele>
        <time>2023-08-03T04:57:33.000Z</time>
      </trkpt>
      <trkpt lat="46.8071" lon="6.2967">
        <ele>866</ele>
        <time>2023-08-03T04:57:34.000Z</time>
      </trkpt>
      <trkpt lat="46.80755" lon="6.29719">
        <ele>866.40002441406</ele>
        <time>2023-08-03T04:57:42.000Z</time>
      </trkpt>
      <trkpt lat="46.80779" lon="6.29744">
        <ele>866.40002441406</ele>
        <time>2023-08-03T04:57:46.000Z</time>
      </trkpt>
      <trkpt lat="46.80824" lon="6.29794">
        <ele>866.40002441406</ele>
        <time>2023-08-03T04:57:54.000Z</time>
      </trkpt>
      <trkpt lat="46.80858" lon="6.29831">
        <ele>866.79998779297</ele>
        <time>2023-08-03T04:58:00.000Z</time>
      </trkpt>
      <trkpt lat="46.80905" lon="6.29875">
        <ele>867.20001220703</ele>
        <time>2023-08-03T04:58:08.000Z</time>
      </trkpt>
      <trkpt lat="46.80929" lon="6.29897">
        <ele>867.20001220703</ele>
        <time>2023-08-03T04:58:12.000Z</time>
      </trkpt>
      <trkpt lat="46.80964" lon="6.29928">
        <ele>867.20001220703</ele>
        <time>2023-08-03T04:58:18.000Z</time>
      </trkpt>
      <trkpt lat="46.81007" lon="6.29966">
        <ele>867.20001220703</ele>
        <time>2023-08-03T04:58:25.000Z</time>
      </trkpt>
      <trkpt lat="46.81053" lon="6.30008">
        <ele>867.20001220703</ele>
        <time>2023-08-03T04:58:33.000Z</time>
      </trkpt>
      <trkpt lat="46.81069" lon="6.30023">
        <ele>867.20001220703</ele>
        <time>2023-08-03T04:58:36.000Z</time>
      </trkpt>
      <trkpt lat="46.81116" lon="6.30065">
        <ele>867.20001220703</ele>
        <time>2023-08-03T04:58:44.000Z</time>
      </trkpt>
      <trkpt lat="46.81126" lon="6.30074">
        <ele>867.20001220703</ele>
        <time>2023-08-03T04:58:46.000Z</time>
      </trkpt>
      <trkpt lat="46.81172" lon="6.30117">
        <ele>867.20001220703</ele>
        <time>2023-08-03T04:58:54.000Z</time>
      </trkpt>
      <trkpt lat="46.81176" lon="6.30121">
        <ele>867.20001220703</ele>
        <time>2023-08-03T04:58:55.000Z</time>
      </trkpt>
      <trkpt lat="46.81193" lon="6.30137">
        <ele>867.20001220703</ele>
        <time>2023-08-03T04:58:58.000Z</time>
      </trkpt>
      <trkpt lat="46.81204" lon="6.30145">
        <ele>867</ele>
        <time>2023-08-03T04:59:00.000Z</time>
      </trkpt>
      <trkpt lat="46.81239" lon="6.30177">
        <ele>866.59997558594</ele>
        <time>2023-08-03T04:59:06.000Z</time>
      </trkpt>
      <trkpt lat="46.81267" lon="6.3021">
        <ele>866.20001220703</ele>
        <time>2023-08-03T04:59:11.000Z</time>
      </trkpt>
      <trkpt lat="46.81272" lon="6.30216">
        <ele>866</ele>
        <time>2023-08-03T04:59:12.000Z</time>
      </trkpt>
      <trkpt lat="46.81278" lon="6.30223">
        <ele>865.59997558594</ele>
        <time>2023-08-03T04:59:13.000Z</time>
      </trkpt>
      <trkpt lat="46.8131" lon="6.30262">
        <ele>865</ele>
        <time>2023-08-03T04:59:19.000Z</time>
      </trkpt>
      <trkpt lat="46.81318" lon="6.30275">
        <ele>865</ele>
        <time>2023-08-03T04:59:21.000Z</time>
      </trkpt>
      <trkpt lat="46.81325" lon="6.3029">
        <ele>865</ele>
        <time>2023-08-03T04:59:23.000Z</time>
      </trkpt>
      <trkpt lat="46.81328" lon="6.30303">
        <ele>865</ele>
        <time>2023-08-03T04:59:25.000Z</time>
      </trkpt>
      <trkpt lat="46.8133" lon="6.3031">
        <ele>865</ele>
        <time>2023-08-03T04:59:26.000Z</time>
      </trkpt>
      <trkpt lat="46.8133" lon="6.30333">
        <ele>865.79998779297</ele>
        <time>2023-08-03T04:59:29.000Z</time>
      </trkpt>
      <trkpt lat="46.81329" lon="6.30356">
        <ele>866.40002441406</ele>
        <time>2023-08-03T04:59:32.000Z</time>
      </trkpt>
      <trkpt lat="46.81331" lon="6.30385">
        <ele>867.20001220703</ele>
        <time>2023-08-03T04:59:36.000Z</time>
      </trkpt>
      <trkpt lat="46.81331" lon="6.30391">
        <ele>867.40002441406</ele>
        <time>2023-08-03T04:59:37.000Z</time>
      </trkpt>
      <trkpt lat="46.81332" lon="6.304">
        <ele>867.59997558594</ele>
        <time>2023-08-03T04:59:38.000Z</time>
      </trkpt>
      <trkpt lat="46.81337" lon="6.30429">
        <ele>868.20001220703</ele>
        <time>2023-08-03T04:59:42.000Z</time>
      </trkpt>
      <trkpt lat="46.81353" lon="6.30476">
        <ele>868.40002441406</ele>
        <time>2023-08-03T04:59:49.000Z</time>
      </trkpt>
      <trkpt lat="46.8136" lon="6.30488">
        <ele>868.40002441406</ele>
        <time>2023-08-03T04:59:51.000Z</time>
      </trkpt>
      <trkpt lat="46.81382" lon="6.30524">
        <ele>868.79998779297</ele>
        <time>2023-08-03T04:59:57.000Z</time>
      </trkpt>
      <trkpt lat="46.81425" lon="6.30578">
        <ele>869.40002441406</ele>
        <time>2023-08-03T05:00:07.000Z</time>
      </trkpt>
      <trkpt lat="46.81435" lon="6.3059">
        <ele>869.40002441406</ele>
        <time>2023-08-03T05:00:09.000Z</time>
      </trkpt>
      <trkpt lat="46.81438" lon="6.30594">
        <ele>869.59997558594</ele>
        <time>2023-08-03T05:00:10.000Z</time>
      </trkpt>
      <trkpt lat="46.81473" lon="6.30638">
        <ele>870.20001220703</ele>
        <time>2023-08-03T05:00:18.000Z</time>
      </trkpt>
      <trkpt lat="46.81492" lon="6.30661">
        <ele>870.59997558594</ele>
        <time>2023-08-03T05:00:22.000Z</time>
      </trkpt>
      <trkpt lat="46.81513" lon="6.30688">
        <ele>871.20001220703</ele>
        <time>2023-08-03T05:00:27.000Z</time>
      </trkpt>
      <trkpt lat="46.81558" lon="6.30737">
        <ele>871.59997558594</ele>
        <time>2023-08-03T05:00:37.000Z</time>
      </trkpt>
      <trkpt lat="46.8157" lon="6.30743">
        <ele>871.79998779297</ele>
        <time>2023-08-03T05:00:39.000Z</time>
      </trkpt>
      <trkpt lat="46.81574" lon="6.30745">
        <ele>871.79998779297</ele>
        <time>2023-08-03T05:00:40.000Z</time>
      </trkpt>
      <trkpt lat="46.81592" lon="6.3075">
        <ele>872.20001220703</ele>
        <time>2023-08-03T05:00:43.000Z</time>
      </trkpt>
      <trkpt lat="46.81632" lon="6.30771">
        <ele>872.59997558594</ele>
        <time>2023-08-03T05:00:50.000Z</time>
      </trkpt>
      <trkpt lat="46.81671" lon="6.30805">
        <ele>873</ele>
        <time>2023-08-03T05:00:58.000Z</time>
      </trkpt>
      <trkpt lat="46.81683" lon="6.30815">
        <ele>873.20001220703</ele>
        <time>2023-08-03T05:01:00.000Z</time>
      </trkpt>
      <trkpt lat="46.81688" lon="6.3082">
        <ele>873.20001220703</ele>
        <time>2023-08-03T05:01:01.000Z</time>
      </trkpt>
      <trkpt lat="46.81721" lon="6.30852">
        <ele>873.79998779297</ele>
        <time>2023-08-03T05:01:08.000Z</time>
      </trkpt>
      <trkpt lat="46.81734" lon="6.30872">
        <ele>873.79998779297</ele>
        <time>2023-08-03T05:01:11.000Z</time>
      </trkpt>
      <trkpt lat="46.8174" lon="6.30886">
        <ele>874.20001220703</ele>
        <time>2023-08-03T05:01:13.000Z</time>
      </trkpt>
      <trkpt lat="46.81742" lon="6.30894">
        <ele>874.20001220703</ele>
        <time>2023-08-03T05:01:14.000Z</time>
      </trkpt>
      <trkpt lat="46.81745" lon="6.30902">
        <ele>874.40002441406</ele>
        <time>2023-08-03T05:01:15.000Z</time>
      </trkpt>
      <trkpt lat="46.8175" lon="6.30928">
        <ele>874.40002441406</ele>
        <time>2023-08-03T05:01:18.000Z</time>
      </trkpt>
      <trkpt lat="46.81764" lon="6.30974">
        <ele>875</ele>
        <time>2023-08-03T05:01:24.000Z</time>
      </trkpt>
      <trkpt lat="46.8178" lon="6.31">
        <ele>875.20001220703</ele>
        <time>2023-08-03T05:01:28.000Z</time>
      </trkpt>
      <trkpt lat="46.81789" lon="6.31012">
        <ele>875.59997558594</ele>
        <time>2023-08-03T05:01:30.000Z</time>
      </trkpt>
      <trkpt lat="46.8183" lon="6.31052">
        <ele>876</ele>
        <time>2023-08-03T05:01:38.000Z</time>
      </trkpt>
      <trkpt lat="46.81857" lon="6.31066">
        <ele>876.40002441406</ele>
        <time>2023-08-03T05:01:43.000Z</time>
      </trkpt>
      <trkpt lat="46.81869" lon="6.31072">
        <ele>876.59997558594</ele>
        <time>2023-08-03T05:01:45.000Z</time>
      </trkpt>
      <trkpt lat="46.81874" lon="6.31075">
        <ele>876.59997558594</ele>
        <time>2023-08-03T05:01:46.000Z</time>
      </trkpt>
      <trkpt lat="46.81889" lon="6.31087">
        <ele>876.79998779297</ele>
        <time>2023-08-03T05:01:49.000Z</time>
      </trkpt>
      <trkpt lat="46.81895" lon="6.31094">
        <ele>876.79998779297</ele>
        <time>2023-08-03T05:01:50.000Z</time>
      </trkpt>
      <trkpt lat="46.8191" lon="6.31116">
        <ele>877.40002441406</ele>
        <time>2023-08-03T05:01:54.000Z</time>
      </trkpt>
      <trkpt lat="46.81932" lon="6.31143">
        <ele>878</ele>
        <time>2023-08-03T05:01:59.000Z</time>
      </trkpt>
      <trkpt lat="46.81943" lon="6.31152">
        <ele>878</ele>
        <time>2023-08-03T05:02:01.000Z</time>
      </trkpt>
      <trkpt lat="46.8196" lon="6.31161">
        <ele>878.20001220703</ele>
        <time>2023-08-03T05:02:04.000Z</time>
      </trkpt>
      <trkpt lat="46.81972" lon="6.31166">
        <ele>878.40002441406</ele>
        <time>2023-08-03T05:02:06.000Z</time>
      </trkpt>
      <trkpt lat="46.82024" lon="6.31182">
        <ele>879</ele>
        <time>2023-08-03T05:02:15.000Z</time>
      </trkpt>
      <trkpt lat="46.82069" lon="6.31197">
        <ele>879.40002441406</ele>
        <time>2023-08-03T05:02:23.000Z</time>
      </trkpt>
      <trkpt lat="46.82086" lon="6.31199">
        <ele>879.79998779297</ele>
        <time>2023-08-03T05:02:26.000Z</time>
      </trkpt>
      <trkpt lat="46.82098" lon="6.31198">
        <ele>880</ele>
        <time>2023-08-03T05:02:28.000Z</time>
      </trkpt>
      <trkpt lat="46.82104" lon="6.31196">
        <ele>880</ele>
        <time>2023-08-03T05:02:29.000Z</time>
      </trkpt>
      <trkpt lat="46.82153" lon="6.31168">
        <ele>880.79998779297</ele>
        <time>2023-08-03T05:02:38.000Z</time>
      </trkpt>
      <trkpt lat="46.822" lon="6.31139">
        <ele>881.40002441406</ele>
        <time>2023-08-03T05:02:47.000Z</time>
      </trkpt>
      <trkpt lat="46.82253" lon="6.31104">
        <ele>882</ele>
        <time>2023-08-03T05:02:57.000Z</time>
      </trkpt>
      <trkpt lat="46.82258" lon="6.311">
        <ele>882</ele>
        <time>2023-08-03T05:02:58.000Z</time>
      </trkpt>
      <trkpt lat="46.82291" lon="6.31065">
        <ele>882.40002441406</ele>
        <time>2023-08-03T05:03:05.000Z</time>
      </trkpt>
      <trkpt lat="46.82334" lon="6.31016">
        <ele>882.40002441406</ele>
        <time>2023-08-03T05:03:14.000Z</time>
      </trkpt>
      <trkpt lat="46.82381" lon="6.30969">
        <ele>882</ele>
        <time>2023-08-03T05:03:23.000Z</time>
      </trkpt>
      <trkpt lat="46.82387" lon="6.30964">
        <ele>882</ele>
        <time>2023-08-03T05:03:24.000Z</time>
      </trkpt>
      <trkpt lat="46.82438" lon="6.30927">
        <ele>881.59997558594</ele>
        <time>2023-08-03T05:03:33.000Z</time>
      </trkpt>
      <trkpt lat="46.82466" lon="6.30914">
        <ele>881.40002441406</ele>
        <time>2023-08-03T05:03:38.000Z</time>
      </trkpt>
      <trkpt lat="46.82499" lon="6.30913">
        <ele>881.40002441406</ele>
        <time>2023-08-03T05:03:44.000Z</time>
      </trkpt>
      <trkpt lat="46.82515" lon="6.30919">
        <ele>881.59997558594</ele>
        <time>2023-08-03T05:03:47.000Z</time>
      </trkpt>
      <trkpt lat="46.82524" lon="6.30926">
        <ele>881.79998779297</ele>
        <time>2023-08-03T05:03:49.000Z</time>
      </trkpt>
      <trkpt lat="46.82565" lon="6.3096">
        <ele>883</ele>
        <time>2023-08-03T05:03:58.000Z</time>
      </trkpt>
      <trkpt lat="46.82569" lon="6.30965">
        <ele>883.20001220703</ele>
        <time>2023-08-03T05:03:59.000Z</time>
      </trkpt>
      <trkpt lat="46.82607" lon="6.31">
        <ele>884.20001220703</ele>
        <time>2023-08-03T05:04:08.000Z</time>
      </trkpt>
      <trkpt lat="46.82616" lon="6.3101">
        <ele>884.40002441406</ele>
        <time>2023-08-03T05:04:10.000Z</time>
      </trkpt>
      <trkpt lat="46.82629" lon="6.3103">
        <ele>884.59997558594</ele>
        <time>2023-08-03T05:04:14.000Z</time>
      </trkpt>
      <trkpt lat="46.8264" lon="6.31053">
        <ele>885</ele>
        <time>2023-08-03T05:04:18.000Z</time>
      </trkpt>
      <trkpt lat="46.82644" lon="6.31066">
        <ele>885.20001220703</ele>
        <time>2023-08-03T05:04:20.000Z</time>
      </trkpt>
      <trkpt lat="46.82646" lon="6.31072">
        <ele>885.40002441406</ele>
        <time>2023-08-03T05:04:21.000Z</time>
      </trkpt>
      <trkpt lat="46.82652" lon="6.31093">
        <ele>885.79998779297</ele>
        <time>2023-08-03T05:04:24.000Z</time>
      </trkpt>
      <trkpt lat="46.82657" lon="6.3112">
        <ele>886.20001220703</ele>
        <time>2023-08-03T05:04:28.000Z</time>
      </trkpt>
      <trkpt lat="46.82662" lon="6.3115">
        <ele>886.40002441406</ele>
        <time>2023-08-03T05:04:32.000Z</time>
      </trkpt>
      <trkpt lat="46.82668" lon="6.31182">
        <ele>886.79998779297</ele>
        <time>2023-08-03T05:04:36.000Z</time>
      </trkpt>
      <trkpt lat="46.82685" lon="6.31247">
        <ele>887.40002441406</ele>
        <time>2023-08-03T05:04:45.000Z</time>
      </trkpt>
      <trkpt lat="46.8269" lon="6.31261">
        <ele>887.59997558594</ele>
        <time>2023-08-03T05:04:47.000Z</time>
      </trkpt>
      <trkpt lat="46.82705" lon="6.31295">
        <ele>887.79998779297</ele>
        <time>2023-08-03T05:04:52.000Z</time>
      </trkpt>
      <trkpt lat="46.82731" lon="6.31349">
        <ele>888.59997558594</ele>
        <time>2023-08-03T05:05:00.000Z</time>
      </trkpt>
      <trkpt lat="46.8274" lon="6.3137">
        <ele>888.59997558594</ele>
        <time>2023-08-03T05:05:03.000Z</time>
      </trkpt>
      <trkpt lat="46.82771" lon="6.31437">
        <ele>889.20001220703</ele>
        <time>2023-08-03T05:05:13.000Z</time>
      </trkpt>
      <trkpt lat="46.82774" lon="6.31443">
        <ele>889.40002441406</ele>
        <time>2023-08-03T05:05:14.000Z</time>
      </trkpt>
      <trkpt lat="46.82783" lon="6.31462">
        <ele>889.79998779297</ele>
        <time>2023-08-03T05:05:17.000Z</time>
      </trkpt>
      <trkpt lat="46.82801" lon="6.31493">
        <ele>890.20001220703</ele>
        <time>2023-08-03T05:05:22.000Z</time>
      </trkpt>
      <trkpt lat="46.82824" lon="6.3152">
        <ele>890.40002441406</ele>
        <time>2023-08-03T05:05:27.000Z</time>
      </trkpt>
      <trkpt lat="46.82833" lon="6.31531">
        <ele>890.40002441406</ele>
        <time>2023-08-03T05:05:29.000Z</time>
      </trkpt>
      <trkpt lat="46.82876" lon="6.31569">
        <ele>890</ele>
        <time>2023-08-03T05:05:37.000Z</time>
      </trkpt>
      <trkpt lat="46.82922" lon="6.31601">
        <ele>889.40002441406</ele>
        <time>2023-08-03T05:05:45.000Z</time>
      </trkpt>
      <trkpt lat="46.82955" lon="6.31623">
        <ele>888.59997558594</ele>
        <time>2023-08-03T05:05:51.000Z</time>
      </trkpt>
      <trkpt lat="46.82958" lon="6.31626">
        <ele>888.40002441406</ele>
        <time>2023-08-03T05:05:52.000Z</time>
      </trkpt>
      <trkpt lat="46.82962" lon="6.31628">
        <ele>888</ele>
        <time>2023-08-03T05:05:55.000Z</time>
      </trkpt>
      <trkpt lat="46.82962" lon="6.31628">
        <ele>887.79998779297</ele>
        <time>2023-08-03T05:05:56.000Z</time>
      </trkpt>
      <trkpt lat="46.82964" lon="6.31629">
        <ele>887.40002441406</ele>
        <time>2023-08-03T05:06:15.000Z</time>
      </trkpt>
      <trkpt lat="46.82968" lon="6.31632">
        <ele>887.59997558594</ele>
        <time>2023-08-03T05:06:17.000Z</time>
      </trkpt>
      <trkpt lat="46.82987" lon="6.31644">
        <ele>887.59997558594</ele>
        <time>2023-08-03T05:06:22.000Z</time>
      </trkpt>
      <trkpt lat="46.83026" lon="6.3167">
        <ele>887</ele>
        <time>2023-08-03T05:06:29.000Z</time>
      </trkpt>
      <trkpt lat="46.83061" lon="6.31693">
        <ele>886.40002441406</ele>
        <time>2023-08-03T05:06:35.000Z</time>
      </trkpt>
      <trkpt lat="46.83073" lon="6.317">
        <ele>886.20001220703</ele>
        <time>2023-08-03T05:06:37.000Z</time>
      </trkpt>
      <trkpt lat="46.83109" lon="6.31729">
        <ele>885.59997558594</ele>
        <time>2023-08-03T05:06:43.000Z</time>
      </trkpt>
      <trkpt lat="46.83114" lon="6.31736">
        <ele>885.59997558594</ele>
        <time>2023-08-03T05:06:44.000Z</time>
      </trkpt>
      <trkpt lat="46.83118" lon="6.31744">
        <ele>885.20001220703</ele>
        <time>2023-08-03T05:06:45.000Z</time>
      </trkpt>
      <trkpt lat="46.83139" lon="6.31783">
        <ele>884.40002441406</ele>
        <time>2023-08-03T05:06:50.000Z</time>
      </trkpt>
      <trkpt lat="46.83144" lon="6.31791">
        <ele>884.40002441406</ele>
        <time>2023-08-03T05:06:51.000Z</time>
      </trkpt>
      <trkpt lat="46.8317" lon="6.31825">
        <ele>883.79998779297</ele>
        <time>2023-08-03T05:06:56.000Z</time>
      </trkpt>
      <trkpt lat="46.83208" lon="6.31852">
        <ele>883.59997558594</ele>
        <time>2023-08-03T05:07:02.000Z</time>
      </trkpt>
      <trkpt lat="46.83214" lon="6.31858">
        <ele>883.59997558594</ele>
        <time>2023-08-03T05:07:03.000Z</time>
      </trkpt>
      <trkpt lat="46.83225" lon="6.31871">
        <ele>883.59997558594</ele>
        <time>2023-08-03T05:07:05.000Z</time>
      </trkpt>
      <trkpt lat="46.8323" lon="6.3188">
        <ele>883.59997558594</ele>
        <time>2023-08-03T05:07:06.000Z</time>
      </trkpt>
      <trkpt lat="46.83233" lon="6.3189">
        <ele>883.40002441406</ele>
        <time>2023-08-03T05:07:07.000Z</time>
      </trkpt>
      <trkpt lat="46.83239" lon="6.3192">
        <ele>883</ele>
        <time>2023-08-03T05:07:10.000Z</time>
      </trkpt>
      <trkpt lat="46.83256" lon="6.3198">
        <ele>882.59997558594</ele>
        <time>2023-08-03T05:07:16.000Z</time>
      </trkpt>
      <trkpt lat="46.83267" lon="6.31996">
        <ele>882.20001220703</ele>
        <time>2023-08-03T05:07:18.000Z</time>
      </trkpt>
      <trkpt lat="46.83279" lon="6.32008">
        <ele>882</ele>
        <time>2023-08-03T05:07:20.000Z</time>
      </trkpt>
      <trkpt lat="46.83308" lon="6.32021">
        <ele>881.59997558594</ele>
        <time>2023-08-03T05:07:24.000Z</time>
      </trkpt>
      <trkpt lat="46.83315" lon="6.32024">
        <ele>881.59997558594</ele>
        <time>2023-08-03T05:07:25.000Z</time>
      </trkpt>
      <trkpt lat="46.83328" lon="6.32034">
        <ele>881.40002441406</ele>
        <time>2023-08-03T05:07:27.000Z</time>
      </trkpt>
      <trkpt lat="46.83334" lon="6.32041">
        <ele>881.20001220703</ele>
        <time>2023-08-03T05:07:28.000Z</time>
      </trkpt>
      <trkpt lat="46.8334" lon="6.32049">
        <ele>881.20001220703</ele>
        <time>2023-08-03T05:07:29.000Z</time>
      </trkpt>
      <trkpt lat="46.83347" lon="6.32068">
        <ele>880.79998779297</ele>
        <time>2023-08-03T05:07:31.000Z</time>
      </trkpt>
      <trkpt lat="46.83351" lon="6.32111">
        <ele>879.59997558594</ele>
        <time>2023-08-03T05:07:35.000Z</time>
      </trkpt>
      <trkpt lat="46.83349" lon="6.32174">
        <ele>879</ele>
        <time>2023-08-03T05:07:41.000Z</time>
      </trkpt>
      <trkpt lat="46.83349" lon="6.32233">
        <ele>879</ele>
        <time>2023-08-03T05:07:47.000Z</time>
      </trkpt>
      <trkpt lat="46.83355" lon="6.32288">
        <ele>879</ele>
        <time>2023-08-03T05:07:53.000Z</time>
      </trkpt>
      <trkpt lat="46.83357" lon="6.32315">
        <ele>879</ele>
        <time>2023-08-03T05:07:56.000Z</time>
      </trkpt>
      <trkpt lat="46.83362" lon="6.32343">
        <ele>879.20001220703</ele>
        <time>2023-08-03T05:07:59.000Z</time>
      </trkpt>
      <trkpt lat="46.83366" lon="6.32361">
        <ele>879.20001220703</ele>
        <time>2023-08-03T05:08:01.000Z</time>
      </trkpt>
      <trkpt lat="46.83372" lon="6.32378">
        <ele>879.20001220703</ele>
        <time>2023-08-03T05:08:03.000Z</time>
      </trkpt>
      <trkpt lat="46.83374" lon="6.32387">
        <ele>879.20001220703</ele>
        <time>2023-08-03T05:08:04.000Z</time>
      </trkpt>
      <trkpt lat="46.8338" lon="6.32404">
        <ele>879.20001220703</ele>
        <time>2023-08-03T05:08:06.000Z</time>
      </trkpt>
      <trkpt lat="46.83386" lon="6.3243">
        <ele>879.20001220703</ele>
        <time>2023-08-03T05:08:09.000Z</time>
      </trkpt>
      <trkpt lat="46.83394" lon="6.32458">
        <ele>879.20001220703</ele>
        <time>2023-08-03T05:08:12.000Z</time>
      </trkpt>
      <trkpt lat="46.83397" lon="6.32466">
        <ele>879.20001220703</ele>
        <time>2023-08-03T05:08:13.000Z</time>
      </trkpt>
      <trkpt lat="46.83404" lon="6.32494">
        <ele>879.20001220703</ele>
        <time>2023-08-03T05:08:16.000Z</time>
      </trkpt>
      <trkpt lat="46.8341" lon="6.32511">
        <ele>879.20001220703</ele>
        <time>2023-08-03T05:08:18.000Z</time>
      </trkpt>
      <trkpt lat="46.83427" lon="6.32567">
        <ele>879.20001220703</ele>
        <time>2023-08-03T05:08:24.000Z</time>
      </trkpt>
      <trkpt lat="46.8343" lon="6.32575">
        <ele>879.20001220703</ele>
        <time>2023-08-03T05:08:25.000Z</time>
      </trkpt>
      <trkpt lat="46.83437" lon="6.32589">
        <ele>879.20001220703</ele>
        <time>2023-08-03T05:08:27.000Z</time>
      </trkpt>
      <trkpt lat="46.83445" lon="6.32604">
        <ele>879.20001220703</ele>
        <time>2023-08-03T05:08:29.000Z</time>
      </trkpt>
      <trkpt lat="46.8345" lon="6.32611">
        <ele>879.20001220703</ele>
        <time>2023-08-03T05:08:30.000Z</time>
      </trkpt>
      <trkpt lat="46.83458" lon="6.32623">
        <ele>879.20001220703</ele>
        <time>2023-08-03T05:08:32.000Z</time>
      </trkpt>
      <trkpt lat="46.83467" lon="6.32636">
        <ele>879.20001220703</ele>
        <time>2023-08-03T05:08:34.000Z</time>
      </trkpt>
      <trkpt lat="46.83472" lon="6.32643">
        <ele>879.20001220703</ele>
        <time>2023-08-03T05:08:35.000Z</time>
      </trkpt>
      <trkpt lat="46.83481" lon="6.32667">
        <ele>879.20001220703</ele>
        <time>2023-08-03T05:08:38.000Z</time>
      </trkpt>
      <trkpt lat="46.83488" lon="6.32685">
        <ele>879.20001220703</ele>
        <time>2023-08-03T05:08:40.000Z</time>
      </trkpt>
      <trkpt lat="46.83501" lon="6.32724">
        <ele>879</ele>
        <time>2023-08-03T05:08:45.000Z</time>
      </trkpt>
      <trkpt lat="46.83505" lon="6.32732">
        <ele>879</ele>
        <time>2023-08-03T05:08:46.000Z</time>
      </trkpt>
      <trkpt lat="46.83511" lon="6.32748">
        <ele>879</ele>
        <time>2023-08-03T05:08:48.000Z</time>
      </trkpt>
      <trkpt lat="46.83515" lon="6.32755">
        <ele>879</ele>
        <time>2023-08-03T05:08:49.000Z</time>
      </trkpt>
      <trkpt lat="46.83519" lon="6.32763">
        <ele>879</ele>
        <time>2023-08-03T05:08:50.000Z</time>
      </trkpt>
      <trkpt lat="46.8353" lon="6.32788">
        <ele>879</ele>
        <time>2023-08-03T05:08:53.000Z</time>
      </trkpt>
      <trkpt lat="46.83541" lon="6.32812">
        <ele>879</ele>
        <time>2023-08-03T05:08:56.000Z</time>
      </trkpt>
      <trkpt lat="46.8355" lon="6.32828">
        <ele>879</ele>
        <time>2023-08-03T05:08:58.000Z</time>
      </trkpt>
      <trkpt lat="46.83568" lon="6.32861">
        <ele>879</ele>
        <time>2023-08-03T05:09:02.000Z</time>
      </trkpt>
      <trkpt lat="46.8358" lon="6.32882">
        <ele>879.20001220703</ele>
        <time>2023-08-03T05:09:05.000Z</time>
      </trkpt>
      <trkpt lat="46.83589" lon="6.32908">
        <ele>879.20001220703</ele>
        <time>2023-08-03T05:09:08.000Z</time>
      </trkpt>
      <trkpt lat="46.83597" lon="6.32936">
        <ele>879.20001220703</ele>
        <time>2023-08-03T05:09:11.000Z</time>
      </trkpt>
      <trkpt lat="46.83602" lon="6.32955">
        <ele>879</ele>
        <time>2023-08-03T05:09:13.000Z</time>
      </trkpt>
      <trkpt lat="46.83602" lon="6.3299">
        <ele>879</ele>
        <time>2023-08-03T05:09:16.000Z</time>
      </trkpt>
      <trkpt lat="46.83603" lon="6.32999">
        <ele>879</ele>
        <time>2023-08-03T05:09:17.000Z</time>
      </trkpt>
      <trkpt lat="46.83604" lon="6.33029">
        <ele>878.79998779297</ele>
        <time>2023-08-03T05:09:20.000Z</time>
      </trkpt>
      <trkpt lat="46.83617" lon="6.33074">
        <ele>878.79998779297</ele>
        <time>2023-08-03T05:09:25.000Z</time>
      </trkpt>
      <trkpt lat="46.83624" lon="6.33091">
        <ele>878.79998779297</ele>
        <time>2023-08-03T05:09:27.000Z</time>
      </trkpt>
      <trkpt lat="46.83637" lon="6.33112">
        <ele>878.40002441406</ele>
        <time>2023-08-03T05:09:30.000Z</time>
      </trkpt>
      <trkpt lat="46.83642" lon="6.33118">
        <ele>878.40002441406</ele>
        <time>2023-08-03T05:09:31.000Z</time>
      </trkpt>
      <trkpt lat="46.83648" lon="6.33124">
        <ele>878.20001220703</ele>
        <time>2023-08-03T05:09:32.000Z</time>
      </trkpt>
      <trkpt lat="46.83663" lon="6.33137">
        <ele>878</ele>
        <time>2023-08-03T05:09:35.000Z</time>
      </trkpt>
      <trkpt lat="46.83669" lon="6.33141">
        <ele>878</ele>
        <time>2023-08-03T05:09:36.000Z</time>
      </trkpt>
      <trkpt lat="46.83687" lon="6.3315">
        <ele>877.59997558594</ele>
        <time>2023-08-03T05:09:39.000Z</time>
      </trkpt>
      <trkpt lat="46.83692" lon="6.33152">
        <ele>877.59997558594</ele>
        <time>2023-08-03T05:09:40.000Z</time>
      </trkpt>
      <trkpt lat="46.83701" lon="6.33158">
        <ele>877.40002441406</ele>
        <time>2023-08-03T05:09:42.000Z</time>
      </trkpt>
      <trkpt lat="46.83705" lon="6.33161">
        <ele>877.20001220703</ele>
        <time>2023-08-03T05:09:43.000Z</time>
      </trkpt>
      <trkpt lat="46.83709" lon="6.33163">
        <ele>877</ele>
        <time>2023-08-03T05:09:44.000Z</time>
      </trkpt>
      <trkpt lat="46.83717" lon="6.33168">
        <ele>876.79998779297</ele>
        <time>2023-08-03T05:09:46.000Z</time>
      </trkpt>
      <trkpt lat="46.83722" lon="6.3317">
        <ele>876.59997558594</ele>
        <time>2023-08-03T05:09:47.000Z</time>
      </trkpt>
      <trkpt lat="46.83727" lon="6.33173">
        <ele>876.59997558594</ele>
        <time>2023-08-03T05:09:48.000Z</time>
      </trkpt>
      <trkpt lat="46.83744" lon="6.33189">
        <ele>876.20001220703</ele>
        <time>2023-08-03T05:09:52.000Z</time>
      </trkpt>
      <trkpt lat="46.83749" lon="6.33195">
        <ele>876.20001220703</ele>
        <time>2023-08-03T05:09:53.000Z</time>
      </trkpt>
      <trkpt lat="46.83758" lon="6.33204">
        <ele>876</ele>
        <time>2023-08-03T05:09:55.000Z</time>
      </trkpt>
      <trkpt lat="46.83778" lon="6.33227">
        <ele>875.59997558594</ele>
        <time>2023-08-03T05:09:59.000Z</time>
      </trkpt>
      <trkpt lat="46.83802" lon="6.33245">
        <ele>875.40002441406</ele>
        <time>2023-08-03T05:10:03.000Z</time>
      </trkpt>
      <trkpt lat="46.83812" lon="6.33252">
        <ele>875.20001220703</ele>
        <time>2023-08-03T05:10:05.000Z</time>
      </trkpt>
      <trkpt lat="46.83818" lon="6.33256">
        <ele>875.20001220703</ele>
        <time>2023-08-03T05:10:06.000Z</time>
      </trkpt>
      <trkpt lat="46.83848" lon="6.33272">
        <ele>874.59997558594</ele>
        <time>2023-08-03T05:10:11.000Z</time>
      </trkpt>
      <trkpt lat="46.83855" lon="6.33274">
        <ele>874.59997558594</ele>
        <time>2023-08-03T05:10:12.000Z</time>
      </trkpt>
      <trkpt lat="46.83869" lon="6.33274">
        <ele>874.40002441406</ele>
        <time>2023-08-03T05:10:14.000Z</time>
      </trkpt>
      <trkpt lat="46.83877" lon="6.3327">
        <ele>874.40002441406</ele>
        <time>2023-08-03T05:10:15.000Z</time>
      </trkpt>
      <trkpt lat="46.83887" lon="6.33265">
        <ele>874.20001220703</ele>
        <time>2023-08-03T05:10:16.000Z</time>
      </trkpt>
      <trkpt lat="46.83898" lon="6.33254">
        <ele>873.79998779297</ele>
        <time>2023-08-03T05:10:18.000Z</time>
      </trkpt>
      <trkpt lat="46.83904" lon="6.33246">
        <ele>873.59997558594</ele>
        <time>2023-08-03T05:10:19.000Z</time>
      </trkpt>
      <trkpt lat="46.83911" lon="6.33233">
        <ele>873.40002441406</ele>
        <time>2023-08-03T05:10:21.000Z</time>
      </trkpt>
      <trkpt lat="46.83915" lon="6.33215">
        <ele>873</ele>
        <time>2023-08-03T05:10:23.000Z</time>
      </trkpt>
      <trkpt lat="46.83917" lon="6.33186">
        <ele>872.79998779297</ele>
        <time>2023-08-03T05:10:26.000Z</time>
      </trkpt>
      <trkpt lat="46.83916" lon="6.33176">
        <ele>872.59997558594</ele>
        <time>2023-08-03T05:10:27.000Z</time>
      </trkpt>
      <trkpt lat="46.83915" lon="6.33166">
        <ele>872.59997558594</ele>
        <time>2023-08-03T05:10:28.000Z</time>
      </trkpt>
      <trkpt lat="46.83911" lon="6.33127">
        <ele>872.20001220703</ele>
        <time>2023-08-03T05:10:32.000Z</time>
      </trkpt>
      <trkpt lat="46.83913" lon="6.33098">
        <ele>871.79998779297</ele>
        <time>2023-08-03T05:10:35.000Z</time>
      </trkpt>
      <trkpt lat="46.83916" lon="6.33069">
        <ele>871.40002441406</ele>
        <time>2023-08-03T05:10:38.000Z</time>
      </trkpt>
      <trkpt lat="46.8392" lon="6.33049">
        <ele>871.40002441406</ele>
        <time>2023-08-03T05:10:40.000Z</time>
      </trkpt>
      <trkpt lat="46.83928" lon="6.33033">
        <ele>871.20001220703</ele>
        <time>2023-08-03T05:10:42.000Z</time>
      </trkpt>
      <trkpt lat="46.83941" lon="6.33022">
        <ele>871</ele>
        <time>2023-08-03T05:10:44.000Z</time>
      </trkpt>
      <trkpt lat="46.83948" lon="6.3302">
        <ele>870.79998779297</ele>
        <time>2023-08-03T05:10:45.000Z</time>
      </trkpt>
      <trkpt lat="46.83955" lon="6.33018">
        <ele>870.59997558594</ele>
        <time>2023-08-03T05:10:46.000Z</time>
      </trkpt>
      <trkpt lat="46.83961" lon="6.33018">
        <ele>870.59997558594</ele>
        <time>2023-08-03T05:10:47.000Z</time>
      </trkpt>
      <trkpt lat="46.83975" lon="6.33016">
        <ele>870.40002441406</ele>
        <time>2023-08-03T05:10:49.000Z</time>
      </trkpt>
      <trkpt lat="46.8403" lon="6.33012">
        <ele>869.79998779297</ele>
        <time>2023-08-03T05:10:57.000Z</time>
      </trkpt>
      <trkpt lat="46.84035" lon="6.33012">
        <ele>869.79998779297</ele>
        <time>2023-08-03T05:10:58.000Z</time>
      </trkpt>
      <trkpt lat="46.84049" lon="6.33015">
        <ele>869.79998779297</ele>
        <time>2023-08-03T05:11:00.000Z</time>
      </trkpt>
      <trkpt lat="46.8407" lon="6.33022">
        <ele>869.40002441406</ele>
        <time>2023-08-03T05:11:03.000Z</time>
      </trkpt>
      <trkpt lat="46.84077" lon="6.33025">
        <ele>869.20001220703</ele>
        <time>2023-08-03T05:11:04.000Z</time>
      </trkpt>
      <trkpt lat="46.84091" lon="6.33029">
        <ele>869</ele>
        <time>2023-08-03T05:11:06.000Z</time>
      </trkpt>
      <trkpt lat="46.84119" lon="6.33035">
        <ele>868.20001220703</ele>
        <time>2023-08-03T05:11:10.000Z</time>
      </trkpt>
      <trkpt lat="46.84124" lon="6.33035">
        <ele>868.20001220703</ele>
        <time>2023-08-03T05:11:11.000Z</time>
      </trkpt>
      <trkpt lat="46.84153" lon="6.3304">
        <ele>868</ele>
        <time>2023-08-03T05:11:15.000Z</time>
      </trkpt>
      <trkpt lat="46.8416" lon="6.33043">
        <ele>867.79998779297</ele>
        <time>2023-08-03T05:11:16.000Z</time>
      </trkpt>
      <trkpt lat="46.84166" lon="6.33047">
        <ele>867.59997558594</ele>
        <time>2023-08-03T05:11:17.000Z</time>
      </trkpt>
      <trkpt lat="46.84182" lon="6.33065">
        <ele>867</ele>
        <time>2023-08-03T05:11:20.000Z</time>
      </trkpt>
      <trkpt lat="46.84191" lon="6.33082">
        <ele>867</ele>
        <time>2023-08-03T05:11:22.000Z</time>
      </trkpt>
      <trkpt lat="46.84198" lon="6.33099">
        <ele>867</ele>
        <time>2023-08-03T05:11:24.000Z</time>
      </trkpt>
      <trkpt lat="46.8422" lon="6.33163">
        <ele>866.40002441406</ele>
        <time>2023-08-03T05:11:31.000Z</time>
      </trkpt>
      <trkpt lat="46.8423" lon="6.3319">
        <ele>866</ele>
        <time>2023-08-03T05:11:34.000Z</time>
      </trkpt>
      <trkpt lat="46.84247" lon="6.33246">
        <ele>865.40002441406</ele>
        <time>2023-08-03T05:11:40.000Z</time>
      </trkpt>
      <trkpt lat="46.8425" lon="6.33266">
        <ele>865.40002441406</ele>
        <time>2023-08-03T05:11:42.000Z</time>
      </trkpt>
      <trkpt lat="46.84252" lon="6.33286">
        <ele>864.79998779297</ele>
        <time>2023-08-03T05:11:44.000Z</time>
      </trkpt>
      <trkpt lat="46.84254" lon="6.33305">
        <ele>864.59997558594</ele>
        <time>2023-08-03T05:11:46.000Z</time>
      </trkpt>
      <trkpt lat="46.84256" lon="6.33314">
        <ele>864.40002441406</ele>
        <time>2023-08-03T05:11:47.000Z</time>
      </trkpt>
      <trkpt lat="46.84263" lon="6.33331">
        <ele>864.40002441406</ele>
        <time>2023-08-03T05:11:49.000Z</time>
      </trkpt>
      <trkpt lat="46.84273" lon="6.33341">
        <ele>864.40002441406</ele>
        <time>2023-08-03T05:11:51.000Z</time>
      </trkpt>
      <trkpt lat="46.8428" lon="6.33344">
        <ele>864.40002441406</ele>
        <time>2023-08-03T05:11:52.000Z</time>
      </trkpt>
      <trkpt lat="46.84293" lon="6.33346">
        <ele>864.20001220703</ele>
        <time>2023-08-03T05:11:54.000Z</time>
      </trkpt>
      <trkpt lat="46.843" lon="6.33344">
        <ele>864.20001220703</ele>
        <time>2023-08-03T05:11:55.000Z</time>
      </trkpt>
      <trkpt lat="46.84307" lon="6.33339">
        <ele>864</ele>
        <time>2023-08-03T05:11:56.000Z</time>
      </trkpt>
      <trkpt lat="46.84318" lon="6.33327">
        <ele>864</ele>
        <time>2023-08-03T05:11:58.000Z</time>
      </trkpt>
      <trkpt lat="46.84323" lon="6.33319">
        <ele>864</ele>
        <time>2023-08-03T05:11:59.000Z</time>
      </trkpt>
      <trkpt lat="46.84344" lon="6.33283">
        <ele>863.79998779297</ele>
        <time>2023-08-03T05:12:04.000Z</time>
      </trkpt>
      <trkpt lat="46.84361" lon="6.33241">
        <ele>863.79998779297</ele>
        <time>2023-08-03T05:12:09.000Z</time>
      </trkpt>
      <trkpt lat="46.84363" lon="6.33234">
        <ele>863.79998779297</ele>
        <time>2023-08-03T05:12:10.000Z</time>
      </trkpt>
      <trkpt lat="46.84367" lon="6.33216">
        <ele>863.79998779297</ele>
        <time>2023-08-03T05:12:12.000Z</time>
      </trkpt>
      <trkpt lat="46.84379" lon="6.33179">
        <ele>863.59997558594</ele>
        <time>2023-08-03T05:12:16.000Z</time>
      </trkpt>
      <trkpt lat="46.84383" lon="6.33171">
        <ele>863.59997558594</ele>
        <time>2023-08-03T05:12:17.000Z</time>
      </trkpt>
      <trkpt lat="46.84389" lon="6.33162">
        <ele>863.59997558594</ele>
        <time>2023-08-03T05:12:18.000Z</time>
      </trkpt>
      <trkpt lat="46.844" lon="6.33152">
        <ele>863.40002441406</ele>
        <time>2023-08-03T05:12:20.000Z</time>
      </trkpt>
      <trkpt lat="46.84406" lon="6.33148">
        <ele>863.40002441406</ele>
        <time>2023-08-03T05:12:21.000Z</time>
      </trkpt>
      <trkpt lat="46.84412" lon="6.33145">
        <ele>863.20001220703</ele>
        <time>2023-08-03T05:12:22.000Z</time>
      </trkpt>
      <trkpt lat="46.84425" lon="6.33145">
        <ele>863.20001220703</ele>
        <time>2023-08-03T05:12:24.000Z</time>
      </trkpt>
      <trkpt lat="46.84438" lon="6.3315">
        <ele>863</ele>
        <time>2023-08-03T05:12:26.000Z</time>
      </trkpt>
      <trkpt lat="46.8445" lon="6.33157">
        <ele>863</ele>
        <time>2023-08-03T05:12:28.000Z</time>
      </trkpt>
      <trkpt lat="46.84501" lon="6.33191">
        <ele>863</ele>
        <time>2023-08-03T05:12:37.000Z</time>
      </trkpt>
      <trkpt lat="46.84542" lon="6.33211">
        <ele>863</ele>
        <time>2023-08-03T05:12:44.000Z</time>
      </trkpt>
      <trkpt lat="46.84594" lon="6.33231">
        <ele>863</ele>
        <time>2023-08-03T05:12:53.000Z</time>
      </trkpt>
      <trkpt lat="46.84641" lon="6.33256">
        <ele>863</ele>
        <time>2023-08-03T05:13:01.000Z</time>
      </trkpt>
      <trkpt lat="46.84675" lon="6.33275">
        <ele>863.20001220703</ele>
        <time>2023-08-03T05:13:07.000Z</time>
      </trkpt>
      <trkpt lat="46.8471" lon="6.33293">
        <ele>863.20001220703</ele>
        <time>2023-08-03T05:13:13.000Z</time>
      </trkpt>
      <trkpt lat="46.84738" lon="6.33307">
        <ele>863.20001220703</ele>
        <time>2023-08-03T05:13:18.000Z</time>
      </trkpt>
      <trkpt lat="46.8475" lon="6.33312">
        <ele>863.20001220703</ele>
        <time>2023-08-03T05:13:20.000Z</time>
      </trkpt>
      <trkpt lat="46.84806" lon="6.33331">
        <ele>862.59997558594</ele>
        <time>2023-08-03T05:13:29.000Z</time>
      </trkpt>
      <trkpt lat="46.84812" lon="6.33332">
        <ele>862.59997558594</ele>
        <time>2023-08-03T05:13:30.000Z</time>
      </trkpt>
      <trkpt lat="46.84846" lon="6.3334">
        <ele>862.40002441406</ele>
        <time>2023-08-03T05:13:36.000Z</time>
      </trkpt>
      <trkpt lat="46.84851" lon="6.33343">
        <ele>862.40002441406</ele>
        <time>2023-08-03T05:13:37.000Z</time>
      </trkpt>
      <trkpt lat="46.84854" lon="6.33347">
        <ele>862.20001220703</ele>
        <time>2023-08-03T05:13:38.000Z</time>
      </trkpt>
      <trkpt lat="46.84859" lon="6.33356">
        <ele>862</ele>
        <time>2023-08-03T05:13:41.000Z</time>
      </trkpt>
      <trkpt lat="46.8487" lon="6.33358">
        <ele>861.79998779297</ele>
        <time>2023-08-03T05:13:45.000Z</time>
      </trkpt>
      <trkpt lat="46.84875" lon="6.33355">
        <ele>861.79998779297</ele>
        <time>2023-08-03T05:13:46.000Z</time>
      </trkpt>
      <trkpt lat="46.84891" lon="6.33345">
        <ele>861.79998779297</ele>
        <time>2023-08-03T05:13:49.000Z</time>
      </trkpt>
      <trkpt lat="46.84908" lon="6.33339">
        <ele>861.79998779297</ele>
        <time>2023-08-03T05:13:52.000Z</time>
      </trkpt>
      <trkpt lat="46.84932" lon="6.33335">
        <ele>861.40002441406</ele>
        <time>2023-08-03T05:13:56.000Z</time>
      </trkpt>
      <trkpt lat="46.84972" lon="6.3333">
        <ele>860.79998779297</ele>
        <time>2023-08-03T05:14:03.000Z</time>
      </trkpt>
      <trkpt lat="46.84996" lon="6.33328">
        <ele>860.40002441406</ele>
        <time>2023-08-03T05:14:09.000Z</time>
      </trkpt>
      <trkpt lat="46.84998" lon="6.33329">
        <ele>860.40002441406</ele>
        <time>2023-08-03T05:14:10.000Z</time>
      </trkpt>
      <trkpt lat="46.84998" lon="6.33329">
        <ele>860.40002441406</ele>
        <time>2023-08-03T05:14:12.000Z</time>
      </trkpt>
      <trkpt lat="46.85004" lon="6.33326">
        <ele>860</ele>
        <time>2023-08-03T05:14:24.000Z</time>
      </trkpt>
      <trkpt lat="46.8501" lon="6.33326">
        <ele>860</ele>
        <time>2023-08-03T05:14:26.000Z</time>
      </trkpt>
      <trkpt lat="46.85034" lon="6.33325">
        <ele>860</ele>
        <time>2023-08-03T05:14:31.000Z</time>
      </trkpt>
      <trkpt lat="46.85072" lon="6.33331">
        <ele>860</ele>
        <time>2023-08-03T05:14:38.000Z</time>
      </trkpt>
      <trkpt lat="46.85103" lon="6.33347">
        <ele>860</ele>
        <time>2023-08-03T05:14:44.000Z</time>
      </trkpt>
      <trkpt lat="46.85137" lon="6.33374">
        <ele>860.59997558594</ele>
        <time>2023-08-03T05:14:51.000Z</time>
      </trkpt>
      <trkpt lat="46.8517" lon="6.33404">
        <ele>861.40002441406</ele>
        <time>2023-08-03T05:14:58.000Z</time>
      </trkpt>
      <trkpt lat="46.85183" lon="6.33416">
        <ele>861.79998779297</ele>
        <time>2023-08-03T05:15:01.000Z</time>
      </trkpt>
      <trkpt lat="46.85223" lon="6.33443">
        <ele>862.40002441406</ele>
        <time>2023-08-03T05:15:09.000Z</time>
      </trkpt>
      <trkpt lat="46.85259" lon="6.33465">
        <ele>862.79998779297</ele>
        <time>2023-08-03T05:15:16.000Z</time>
      </trkpt>
      <trkpt lat="46.85291" lon="6.33495">
        <ele>863.40002441406</ele>
        <time>2023-08-03T05:15:23.000Z</time>
      </trkpt>
      <trkpt lat="46.85295" lon="6.33499">
        <ele>863.59997558594</ele>
        <time>2023-08-03T05:15:24.000Z</time>
      </trkpt>
      <trkpt lat="46.85335" lon="6.33545">
        <ele>864.40002441406</ele>
        <time>2023-08-03T05:15:33.000Z</time>
      </trkpt>
      <trkpt lat="46.85371" lon="6.33582">
        <ele>864.20001220703</ele>
        <time>2023-08-03T05:15:40.000Z</time>
      </trkpt>
      <trkpt lat="46.85402" lon="6.336">
        <ele>863.79998779297</ele>
        <time>2023-08-03T05:15:45.000Z</time>
      </trkpt>
      <trkpt lat="46.85408" lon="6.33602">
        <ele>863.79998779297</ele>
        <time>2023-08-03T05:15:46.000Z</time>
      </trkpt>
      <trkpt lat="46.85454" lon="6.33614">
        <ele>863</ele>
        <time>2023-08-03T05:15:53.000Z</time>
      </trkpt>
      <trkpt lat="46.8548" lon="6.33618">
        <ele>862.40002441406</ele>
        <time>2023-08-03T05:15:57.000Z</time>
      </trkpt>
      <trkpt lat="46.85511" lon="6.33623">
        <ele>862.59997558594</ele>
        <time>2023-08-03T05:16:02.000Z</time>
      </trkpt>
      <trkpt lat="46.85566" lon="6.33632">
        <ele>862.59997558594</ele>
        <time>2023-08-03T05:16:11.000Z</time>
      </trkpt>
      <trkpt lat="46.85571" lon="6.33633">
        <ele>862.59997558594</ele>
        <time>2023-08-03T05:16:12.000Z</time>
      </trkpt>
      <trkpt lat="46.85588" lon="6.3364">
        <ele>862.59997558594</ele>
        <time>2023-08-03T05:16:15.000Z</time>
      </trkpt>
      <trkpt lat="46.85599" lon="6.33646">
        <ele>862.59997558594</ele>
        <time>2023-08-03T05:16:17.000Z</time>
      </trkpt>
      <trkpt lat="46.85604" lon="6.33651">
        <ele>862.59997558594</ele>
        <time>2023-08-03T05:16:18.000Z</time>
      </trkpt>
      <trkpt lat="46.85634" lon="6.33684">
        <ele>863.20001220703</ele>
        <time>2023-08-03T05:16:25.000Z</time>
      </trkpt>
      <trkpt lat="46.85651" lon="6.33704">
        <ele>863.79998779297</ele>
        <time>2023-08-03T05:16:29.000Z</time>
      </trkpt>
      <trkpt lat="46.85677" lon="6.3373">
        <ele>864.20001220703</ele>
        <time>2023-08-03T05:16:35.000Z</time>
      </trkpt>
      <trkpt lat="46.85712" lon="6.33759">
        <ele>864.79998779297</ele>
        <time>2023-08-03T05:16:43.000Z</time>
      </trkpt>
      <trkpt lat="46.85716" lon="6.33762">
        <ele>864.79998779297</ele>
        <time>2023-08-03T05:16:44.000Z</time>
      </trkpt>
      <trkpt lat="46.85732" lon="6.33779">
        <ele>865.20001220703</ele>
        <time>2023-08-03T05:16:48.000Z</time>
      </trkpt>
      <trkpt lat="46.8574" lon="6.33791">
        <ele>865.40002441406</ele>
        <time>2023-08-03T05:16:50.000Z</time>
      </trkpt>
      <trkpt lat="46.85755" lon="6.33824">
        <ele>865.79998779297</ele>
        <time>2023-08-03T05:16:55.000Z</time>
      </trkpt>
      <trkpt lat="46.8576" lon="6.3384">
        <ele>865.79998779297</ele>
        <time>2023-08-03T05:16:57.000Z</time>
      </trkpt>
      <trkpt lat="46.85763" lon="6.33847">
        <ele>865.79998779297</ele>
        <time>2023-08-03T05:16:58.000Z</time>
      </trkpt>
      <trkpt lat="46.8578" lon="6.33905">
        <ele>865.59997558594</ele>
        <time>2023-08-03T05:17:05.000Z</time>
      </trkpt>
      <trkpt lat="46.85796" lon="6.33966">
        <ele>865.20001220703</ele>
        <time>2023-08-03T05:17:12.000Z</time>
      </trkpt>
      <trkpt lat="46.85809" lon="6.34028">
        <ele>865.20001220703</ele>
        <time>2023-08-03T05:17:19.000Z</time>
      </trkpt>
      <trkpt lat="46.85826" lon="6.34091">
        <ele>865.20001220703</ele>
        <time>2023-08-03T05:17:26.000Z</time>
      </trkpt>
      <trkpt lat="46.85855" lon="6.34154">
        <ele>865.20001220703</ele>
        <time>2023-08-03T05:17:34.000Z</time>
      </trkpt>
      <trkpt lat="46.8589" lon="6.34222">
        <ele>865.59997558594</ele>
        <time>2023-08-03T05:17:43.000Z</time>
      </trkpt>
      <trkpt lat="46.85897" lon="6.34239">
        <ele>865.59997558594</ele>
        <time>2023-08-03T05:17:45.000Z</time>
      </trkpt>
      <trkpt lat="46.85919" lon="6.343">
        <ele>865.59997558594</ele>
        <time>2023-08-03T05:17:52.000Z</time>
      </trkpt>
      <trkpt lat="46.85938" lon="6.34382">
        <ele>865.79998779297</ele>
        <time>2023-08-03T05:18:01.000Z</time>
      </trkpt>
      <trkpt lat="46.85941" lon="6.34391">
        <ele>865.79998779297</ele>
        <time>2023-08-03T05:18:02.000Z</time>
      </trkpt>
      <trkpt lat="46.85961" lon="6.34463">
        <ele>866.20001220703</ele>
        <time>2023-08-03T05:18:10.000Z</time>
      </trkpt>
      <trkpt lat="46.85989" lon="6.34536">
        <ele>866.40002441406</ele>
        <time>2023-08-03T05:18:18.000Z</time>
      </trkpt>
      <trkpt lat="46.85996" lon="6.34555">
        <ele>866.40002441406</ele>
        <time>2023-08-03T05:18:20.000Z</time>
      </trkpt>
      <trkpt lat="46.86025" lon="6.34628">
        <ele>866.40002441406</ele>
        <time>2023-08-03T05:18:28.000Z</time>
      </trkpt>
      <trkpt lat="46.86032" lon="6.34647">
        <ele>866.40002441406</ele>
        <time>2023-08-03T05:18:30.000Z</time>
      </trkpt>
      <trkpt lat="46.86061" lon="6.34722">
        <ele>866.40002441406</ele>
        <time>2023-08-03T05:18:38.000Z</time>
      </trkpt>
      <trkpt lat="46.86082" lon="6.34778">
        <ele>866.40002441406</ele>
        <time>2023-08-03T05:18:44.000Z</time>
      </trkpt>
      <trkpt lat="46.86112" lon="6.34849">
        <ele>866.59997558594</ele>
        <time>2023-08-03T05:18:52.000Z</time>
      </trkpt>
      <trkpt lat="46.86119" lon="6.34866">
        <ele>866.79998779297</ele>
        <time>2023-08-03T05:18:54.000Z</time>
      </trkpt>
      <trkpt lat="46.86127" lon="6.34883">
        <ele>866.79998779297</ele>
        <time>2023-08-03T05:18:56.000Z</time>
      </trkpt>
      <trkpt lat="46.8616" lon="6.34953">
        <ele>866.79998779297</ele>
        <time>2023-08-03T05:19:04.000Z</time>
      </trkpt>
      <trkpt lat="46.86167" lon="6.3497">
        <ele>866.79998779297</ele>
        <time>2023-08-03T05:19:06.000Z</time>
      </trkpt>
      <trkpt lat="46.86198" lon="6.35037">
        <ele>866.79998779297</ele>
        <time>2023-08-03T05:19:14.000Z</time>
      </trkpt>
      <trkpt lat="46.86202" lon="6.35046">
        <ele>867</ele>
        <time>2023-08-03T05:19:15.000Z</time>
      </trkpt>
      <trkpt lat="46.86236" lon="6.35111">
        <ele>867</ele>
        <time>2023-08-03T05:19:23.000Z</time>
      </trkpt>
      <trkpt lat="46.86245" lon="6.35127">
        <ele>867.20001220703</ele>
        <time>2023-08-03T05:19:25.000Z</time>
      </trkpt>
      <trkpt lat="46.86282" lon="6.35174">
        <ele>867.20001220703</ele>
        <time>2023-08-03T05:19:32.000Z</time>
      </trkpt>
      <trkpt lat="46.86326" lon="6.35225">
        <ele>867.40002441406</ele>
        <time>2023-08-03T05:19:40.000Z</time>
      </trkpt>
      <trkpt lat="46.86337" lon="6.35238">
        <ele>867.20001220703</ele>
        <time>2023-08-03T05:19:42.000Z</time>
      </trkpt>
      <trkpt lat="46.86372" lon="6.3529">
        <ele>867</ele>
        <time>2023-08-03T05:19:49.000Z</time>
      </trkpt>
      <trkpt lat="46.86407" lon="6.35359">
        <ele>866.40002441406</ele>
        <time>2023-08-03T05:19:57.000Z</time>
      </trkpt>
      <trkpt lat="46.86438" lon="6.35429">
        <ele>865.79998779297</ele>
        <time>2023-08-03T05:20:05.000Z</time>
      </trkpt>
      <trkpt lat="46.86446" lon="6.35446">
        <ele>865.59997558594</ele>
        <time>2023-08-03T05:20:07.000Z</time>
      </trkpt>
      <trkpt lat="46.86456" lon="6.35463">
        <ele>865.40002441406</ele>
        <time>2023-08-03T05:20:09.000Z</time>
      </trkpt>
      <trkpt lat="46.86478" lon="6.35495">
        <ele>864.79998779297</ele>
        <time>2023-08-03T05:20:13.000Z</time>
      </trkpt>
      <trkpt lat="46.86507" lon="6.35531">
        <ele>864.40002441406</ele>
        <time>2023-08-03T05:20:18.000Z</time>
      </trkpt>
      <trkpt lat="46.86525" lon="6.35553">
        <ele>864</ele>
        <time>2023-08-03T05:20:21.000Z</time>
      </trkpt>
      <trkpt lat="46.86555" lon="6.35601">
        <ele>863.59997558594</ele>
        <time>2023-08-03T05:20:27.000Z</time>
      </trkpt>
      <trkpt lat="46.86579" lon="6.35655">
        <ele>863.20001220703</ele>
        <time>2023-08-03T05:20:33.000Z</time>
      </trkpt>
      <trkpt lat="46.86605" lon="6.35731">
        <ele>863.20001220703</ele>
        <time>2023-08-03T05:20:41.000Z</time>
      </trkpt>
      <trkpt lat="46.86615" lon="6.35759">
        <ele>863.20001220703</ele>
        <time>2023-08-03T05:20:44.000Z</time>
      </trkpt>
      <trkpt lat="46.86648" lon="6.3583">
        <ele>863.20001220703</ele>
        <time>2023-08-03T05:20:52.000Z</time>
      </trkpt>
      <trkpt lat="46.86668" lon="6.35866">
        <ele>863</ele>
        <time>2023-08-03T05:20:56.000Z</time>
      </trkpt>
      <trkpt lat="46.86693" lon="6.35912">
        <ele>862.59997558594</ele>
        <time>2023-08-03T05:21:01.000Z</time>
      </trkpt>
      <trkpt lat="46.86703" lon="6.35932">
        <ele>862</ele>
        <time>2023-08-03T05:21:03.000Z</time>
      </trkpt>
      <trkpt lat="46.86733" lon="6.36005">
        <ele>861.40002441406</ele>
        <time>2023-08-03T05:21:10.000Z</time>
      </trkpt>
      <trkpt lat="46.86757" lon="6.36079">
        <ele>861</ele>
        <time>2023-08-03T05:21:17.000Z</time>
      </trkpt>
      <trkpt lat="46.8676" lon="6.36089">
        <ele>860.79998779297</ele>
        <time>2023-08-03T05:21:18.000Z</time>
      </trkpt>
      <trkpt lat="46.86784" lon="6.36161">
        <ele>860.59997558594</ele>
        <time>2023-08-03T05:21:25.000Z</time>
      </trkpt>
      <trkpt lat="46.86805" lon="6.36209">
        <ele>860.40002441406</ele>
        <time>2023-08-03T05:21:30.000Z</time>
      </trkpt>
      <trkpt lat="46.86815" lon="6.36227">
        <ele>860.40002441406</ele>
        <time>2023-08-03T05:21:32.000Z</time>
      </trkpt>
      <trkpt lat="46.86853" lon="6.36283">
        <ele>860.40002441406</ele>
        <time>2023-08-03T05:21:39.000Z</time>
      </trkpt>
      <trkpt lat="46.86859" lon="6.36291">
        <ele>860.40002441406</ele>
        <time>2023-08-03T05:21:40.000Z</time>
      </trkpt>
      <trkpt lat="46.86899" lon="6.36342">
        <ele>860.20001220703</ele>
        <time>2023-08-03T05:21:47.000Z</time>
      </trkpt>
      <trkpt lat="46.86942" lon="6.36384">
        <ele>860</ele>
        <time>2023-08-03T05:21:54.000Z</time>
      </trkpt>
      <trkpt lat="46.86981" lon="6.3641">
        <ele>859.79998779297</ele>
        <time>2023-08-03T05:22:00.000Z</time>
      </trkpt>
      <trkpt lat="46.8701" lon="6.36424">
        <ele>859.59997558594</ele>
        <time>2023-08-03T05:22:04.000Z</time>
      </trkpt>
      <trkpt lat="46.87024" lon="6.36429">
        <ele>859.59997558594</ele>
        <time>2023-08-03T05:22:06.000Z</time>
      </trkpt>
      <trkpt lat="46.87077" lon="6.36442">
        <ele>859.40002441406</ele>
        <time>2023-08-03T05:22:13.000Z</time>
      </trkpt>
      <trkpt lat="46.87123" lon="6.36451">
        <ele>859</ele>
        <time>2023-08-03T05:22:19.000Z</time>
      </trkpt>
      <trkpt lat="46.87178" lon="6.36465">
        <ele>859</ele>
        <time>2023-08-03T05:22:26.000Z</time>
      </trkpt>
      <trkpt lat="46.87185" lon="6.36468">
        <ele>859</ele>
        <time>2023-08-03T05:22:27.000Z</time>
      </trkpt>
      <trkpt lat="46.87199" lon="6.36474">
        <ele>859</ele>
        <time>2023-08-03T05:22:29.000Z</time>
      </trkpt>
      <trkpt lat="46.87222" lon="6.3649">
        <ele>858.79998779297</ele>
        <time>2023-08-03T05:22:32.000Z</time>
      </trkpt>
      <trkpt lat="46.87269" lon="6.3653">
        <ele>858.59997558594</ele>
        <time>2023-08-03T05:22:39.000Z</time>
      </trkpt>
      <trkpt lat="46.8732" lon="6.36576">
        <ele>858.79998779297</ele>
        <time>2023-08-03T05:22:47.000Z</time>
      </trkpt>
      <trkpt lat="46.87376" lon="6.3661">
        <ele>858.79998779297</ele>
        <time>2023-08-03T05:22:55.000Z</time>
      </trkpt>
      <trkpt lat="46.87433" lon="6.36638">
        <ele>858.40002441406</ele>
        <time>2023-08-03T05:23:03.000Z</time>
      </trkpt>
      <trkpt lat="46.87455" lon="6.36649">
        <ele>858.40002441406</ele>
        <time>2023-08-03T05:23:06.000Z</time>
      </trkpt>
      <trkpt lat="46.87512" lon="6.36671">
        <ele>858.59997558594</ele>
        <time>2023-08-03T05:23:14.000Z</time>
      </trkpt>
      <trkpt lat="46.87571" lon="6.36681">
        <ele>858.59997558594</ele>
        <time>2023-08-03T05:23:22.000Z</time>
      </trkpt>
      <trkpt lat="46.87601" lon="6.36686">
        <ele>858.40002441406</ele>
        <time>2023-08-03T05:23:26.000Z</time>
      </trkpt>
      <trkpt lat="46.87645" lon="6.36692">
        <ele>858.20001220703</ele>
        <time>2023-08-03T05:23:32.000Z</time>
      </trkpt>
      <trkpt lat="46.87703" lon="6.36699">
        <ele>858</ele>
        <time>2023-08-03T05:23:40.000Z</time>
      </trkpt>
      <trkpt lat="46.87759" lon="6.36707">
        <ele>857.79998779297</ele>
        <time>2023-08-03T05:23:48.000Z</time>
      </trkpt>
      <trkpt lat="46.87773" lon="6.36709">
        <ele>857.79998779297</ele>
        <time>2023-08-03T05:23:50.000Z</time>
      </trkpt>
      <trkpt lat="46.87813" lon="6.36707">
        <ele>857.79998779297</ele>
        <time>2023-08-03T05:23:56.000Z</time>
      </trkpt>
      <trkpt lat="46.87819" lon="6.36705">
        <ele>858</ele>
        <time>2023-08-03T05:23:57.000Z</time>
      </trkpt>
      <trkpt lat="46.87838" lon="6.36698">
        <ele>858</ele>
        <time>2023-08-03T05:24:00.000Z</time>
      </trkpt>
      <trkpt lat="46.87845" lon="6.36696">
        <ele>858</ele>
        <time>2023-08-03T05:24:01.000Z</time>
      </trkpt>
      <trkpt lat="46.87884" lon="6.36677">
        <ele>858</ele>
        <time>2023-08-03T05:24:07.000Z</time>
      </trkpt>
      <trkpt lat="46.87926" lon="6.36645">
        <ele>857.59997558594</ele>
        <time>2023-08-03T05:24:14.000Z</time>
      </trkpt>
      <trkpt lat="46.87966" lon="6.36604">
        <ele>857.59997558594</ele>
        <time>2023-08-03T05:24:21.000Z</time>
      </trkpt>
      <trkpt lat="46.87997" lon="6.3656">
        <ele>857.40002441406</ele>
        <time>2023-08-03T05:24:27.000Z</time>
      </trkpt>
      <trkpt lat="46.88028" lon="6.36513">
        <ele>857.20001220703</ele>
        <time>2023-08-03T05:24:33.000Z</time>
      </trkpt>
      <trkpt lat="46.8804" lon="6.36498">
        <ele>857</ele>
        <time>2023-08-03T05:24:35.000Z</time>
      </trkpt>
      <trkpt lat="46.88075" lon="6.3646">
        <ele>856.59997558594</ele>
        <time>2023-08-03T05:24:41.000Z</time>
      </trkpt>
      <trkpt lat="46.88115" lon="6.36435">
        <ele>856.20001220703</ele>
        <time>2023-08-03T05:24:47.000Z</time>
      </trkpt>
      <trkpt lat="46.88122" lon="6.36433">
        <ele>856.20001220703</ele>
        <time>2023-08-03T05:24:48.000Z</time>
      </trkpt>
      <trkpt lat="46.88158" lon="6.36431">
        <ele>855.59997558594</ele>
        <time>2023-08-03T05:24:53.000Z</time>
      </trkpt>
      <trkpt lat="46.88202" lon="6.36443">
        <ele>855.40002441406</ele>
        <time>2023-08-03T05:25:00.000Z</time>
      </trkpt>
      <trkpt lat="46.88213" lon="6.36451">
        <ele>855.40002441406</ele>
        <time>2023-08-03T05:25:02.000Z</time>
      </trkpt>
      <trkpt lat="46.88222" lon="6.3646">
        <ele>855.40002441406</ele>
        <time>2023-08-03T05:25:04.000Z</time>
      </trkpt>
      <trkpt lat="46.88234" lon="6.36471">
        <ele>855.59997558594</ele>
        <time>2023-08-03T05:25:07.000Z</time>
      </trkpt>
      <trkpt lat="46.88236" lon="6.3647">
        <ele>855.59997558594</ele>
        <time>2023-08-03T05:25:08.000Z</time>
      </trkpt>
      <trkpt lat="46.88245" lon="6.36478">
        <ele>856</ele>
        <time>2023-08-03T05:25:11.000Z</time>
      </trkpt>
      <trkpt lat="46.88253" lon="6.36494">
        <ele>856.40002441406</ele>
        <time>2023-08-03T05:25:13.000Z</time>
      </trkpt>
      <trkpt lat="46.88256" lon="6.36499">
        <ele>856.79998779297</ele>
        <time>2023-08-03T05:25:14.000Z</time>
      </trkpt>
      <trkpt lat="46.88263" lon="6.36506">
        <ele>857.20001220703</ele>
        <time>2023-08-03T05:25:16.000Z</time>
      </trkpt>
      <trkpt lat="46.88276" lon="6.3651">
        <ele>858.20001220703</ele>
        <time>2023-08-03T05:25:19.000Z</time>
      </trkpt>
      <trkpt lat="46.88279" lon="6.3651">
        <ele>858.20001220703</ele>
        <time>2023-08-03T05:25:20.000Z</time>
      </trkpt>
      <trkpt lat="46.88283" lon="6.36507">
        <ele>858.59997558594</ele>
        <time>2023-08-03T05:25:21.000Z</time>
      </trkpt>
      <trkpt lat="46.88286" lon="6.36504">
        <ele>858.79998779297</ele>
        <time>2023-08-03T05:25:22.000Z</time>
      </trkpt>
      <trkpt lat="46.88296" lon="6.36493">
        <ele>860</ele>
        <time>2023-08-03T05:25:26.000Z</time>
      </trkpt>
      <trkpt lat="46.88298" lon="6.36491">
        <ele>859.79998779297</ele>
        <time>2023-08-03T05:25:27.000Z</time>
      </trkpt>
      <trkpt lat="46.8832" lon="6.36489">
        <ele>860.79998779297</ele>
        <time>2023-08-03T05:25:33.000Z</time>
      </trkpt>
      <trkpt lat="46.88343" lon="6.36493">
        <ele>861.40002441406</ele>
        <time>2023-08-03T05:25:38.000Z</time>
      </trkpt>
      <trkpt lat="46.88378" lon="6.36498">
        <ele>861.59997558594</ele>
        <time>2023-08-03T05:25:45.000Z</time>
      </trkpt>
      <trkpt lat="46.88413" lon="6.36499">
        <ele>861</ele>
        <time>2023-08-03T05:25:51.000Z</time>
      </trkpt>
      <trkpt lat="46.88463" lon="6.36499">
        <ele>860.20001220703</ele>
        <time>2023-08-03T05:25:59.000Z</time>
      </trkpt>
      <trkpt lat="46.88484" lon="6.36502">
        <ele>859.79998779297</ele>
        <time>2023-08-03T05:26:02.000Z</time>
      </trkpt>
      <trkpt lat="46.88526" lon="6.36504">
        <ele>859</ele>
        <time>2023-08-03T05:26:08.000Z</time>
      </trkpt>
      <trkpt lat="46.8854" lon="6.36505">
        <ele>858.79998779297</ele>
        <time>2023-08-03T05:26:10.000Z</time>
      </trkpt>
      <trkpt lat="46.88593" lon="6.36512">
        <ele>858</ele>
        <time>2023-08-03T05:26:17.000Z</time>
      </trkpt>
      <trkpt lat="46.886" lon="6.36513">
        <ele>857.79998779297</ele>
        <time>2023-08-03T05:26:18.000Z</time>
      </trkpt>
      <trkpt lat="46.88657" lon="6.36519">
        <ele>857.20001220703</ele>
        <time>2023-08-03T05:26:26.000Z</time>
      </trkpt>
      <trkpt lat="46.88665" lon="6.36519">
        <ele>857</ele>
        <time>2023-08-03T05:26:27.000Z</time>
      </trkpt>
      <trkpt lat="46.88686" lon="6.36521">
        <ele>856.79998779297</ele>
        <time>2023-08-03T05:26:30.000Z</time>
      </trkpt>
      <trkpt lat="46.88745" lon="6.36528">
        <ele>856.20001220703</ele>
        <time>2023-08-03T05:26:38.000Z</time>
      </trkpt>
      <trkpt lat="46.88752" lon="6.36529">
        <ele>856</ele>
        <time>2023-08-03T05:26:39.000Z</time>
      </trkpt>
      <trkpt lat="46.88772" lon="6.36531">
        <ele>855.79998779297</ele>
        <time>2023-08-03T05:26:42.000Z</time>
      </trkpt>
      <trkpt lat="46.88815" lon="6.36532">
        <ele>855</ele>
        <time>2023-08-03T05:26:48.000Z</time>
      </trkpt>
      <trkpt lat="46.88822" lon="6.36531">
        <ele>854.79998779297</ele>
        <time>2023-08-03T05:26:49.000Z</time>
      </trkpt>
      <trkpt lat="46.88883" lon="6.36525">
        <ele>854</ele>
        <time>2023-08-03T05:26:57.000Z</time>
      </trkpt>
      <trkpt lat="46.88889" lon="6.36524">
        <ele>854</ele>
        <time>2023-08-03T05:26:58.000Z</time>
      </trkpt>
      <trkpt lat="46.88913" lon="6.3652">
        <ele>853.79998779297</ele>
        <time>2023-08-03T05:27:01.000Z</time>
      </trkpt>
      <trkpt lat="46.88967" lon="6.36515">
        <ele>853</ele>
        <time>2023-08-03T05:27:08.000Z</time>
      </trkpt>
      <trkpt lat="46.88974" lon="6.36515">
        <ele>852.79998779297</ele>
        <time>2023-08-03T05:27:09.000Z</time>
      </trkpt>
      <trkpt lat="46.89016" lon="6.36511">
        <ele>851.79998779297</ele>
        <time>2023-08-03T05:27:14.000Z</time>
      </trkpt>
      <trkpt lat="46.8904" lon="6.36509">
        <ele>851.20001220703</ele>
        <time>2023-08-03T05:27:17.000Z</time>
      </trkpt>
      <trkpt lat="46.8907" lon="6.36506">
        <ele>850.79998779297</ele>
        <time>2023-08-03T05:27:21.000Z</time>
      </trkpt>
      <trkpt lat="46.89109" lon="6.36503">
        <ele>850.59997558594</ele>
        <time>2023-08-03T05:27:26.000Z</time>
      </trkpt>
      <trkpt lat="46.8917" lon="6.36498">
        <ele>850.40002441406</ele>
        <time>2023-08-03T05:27:34.000Z</time>
      </trkpt>
      <trkpt lat="46.89225" lon="6.36495">
        <ele>849.79998779297</ele>
        <time>2023-08-03T05:27:41.000Z</time>
      </trkpt>
      <trkpt lat="46.89264" lon="6.36493">
        <ele>849.40002441406</ele>
        <time>2023-08-03T05:27:47.000Z</time>
      </trkpt>
      <trkpt lat="46.89267" lon="6.36493">
        <ele>849.20001220703</ele>
        <time>2023-08-03T05:27:48.000Z</time>
      </trkpt>
      <trkpt lat="46.89271" lon="6.36496">
        <ele>849</ele>
        <time>2023-08-03T05:27:50.000Z</time>
      </trkpt>
      <trkpt lat="46.89273" lon="6.365">
        <ele>848.79998779297</ele>
        <time>2023-08-03T05:27:52.000Z</time>
      </trkpt>
      <trkpt lat="46.89273" lon="6.365">
        <ele>848.79998779297</ele>
        <time>2023-08-03T05:27:53.000Z</time>
      </trkpt>
      <trkpt lat="46.89273" lon="6.365">
        <ele>848.79998779297</ele>
        <time>2023-08-03T05:27:54.000Z</time>
      </trkpt>
      <trkpt lat="46.89273" lon="6.365">
        <ele>848.79998779297</ele>
        <time>2023-08-03T05:27:55.000Z</time>
      </trkpt>
      <trkpt lat="46.8928" lon="6.36497">
        <ele>847.59997558594</ele>
        <time>2023-08-03T05:49:02.000Z</time>
      </trkpt>
      <trkpt lat="46.89286" lon="6.36494">
        <ele>847.59997558594</ele>
        <time>2023-08-03T05:49:04.000Z</time>
      </trkpt>
      <trkpt lat="46.8931" lon="6.36491">
        <ele>847.59997558594</ele>
        <time>2023-08-03T05:49:09.000Z</time>
      </trkpt>
      <trkpt lat="46.89343" lon="6.36485">
        <ele>847.40002441406</ele>
        <time>2023-08-03T05:49:15.000Z</time>
      </trkpt>
      <trkpt lat="46.89349" lon="6.36483">
        <ele>847.40002441406</ele>
        <time>2023-08-03T05:49:16.000Z</time>
      </trkpt>
      <trkpt lat="46.89397" lon="6.3646">
        <ele>847</ele>
        <time>2023-08-03T05:49:24.000Z</time>
      </trkpt>
      <trkpt lat="46.89434" lon="6.36439">
        <ele>846.59997558594</ele>
        <time>2023-08-03T05:49:31.000Z</time>
      </trkpt>
      <trkpt lat="46.8948" lon="6.36416">
        <ele>846.20001220703</ele>
        <time>2023-08-03T05:49:39.000Z</time>
      </trkpt>
      <trkpt lat="46.89487" lon="6.36406">
        <ele>846.20001220703</ele>
        <time>2023-08-03T05:49:41.000Z</time>
      </trkpt>
      <trkpt lat="46.89489" lon="6.36401">
        <ele>846.20001220703</ele>
        <time>2023-08-03T05:49:42.000Z</time>
      </trkpt>
      <trkpt lat="46.89488" lon="6.36395">
        <ele>846</ele>
        <time>2023-08-03T05:49:43.000Z</time>
      </trkpt>
      <trkpt lat="46.89485" lon="6.36391">
        <ele>846</ele>
        <time>2023-08-03T05:49:44.000Z</time>
      </trkpt>
      <trkpt lat="46.89481" lon="6.36389">
        <ele>846</ele>
        <time>2023-08-03T05:49:45.000Z</time>
      </trkpt>
      <trkpt lat="46.89471" lon="6.36386">
        <ele>846</ele>
        <time>2023-08-03T05:49:48.000Z</time>
      </trkpt>
      <trkpt lat="46.89472" lon="6.36378">
        <ele>846</ele>
        <time>2023-08-03T05:49:51.000Z</time>
      </trkpt>
      <trkpt lat="46.89484" lon="6.3636">
        <ele>846</ele>
        <time>2023-08-03T05:49:56.000Z</time>
      </trkpt>
      <trkpt lat="46.89487" lon="6.36355">
        <ele>846</ele>
        <time>2023-08-03T05:49:57.000Z</time>
      </trkpt>
      <trkpt lat="46.89505" lon="6.36327">
        <ele>845.79998779297</ele>
        <time>2023-08-03T05:50:02.000Z</time>
      </trkpt>
      <trkpt lat="46.89516" lon="6.36308">
        <ele>845.59997558594</ele>
        <time>2023-08-03T05:50:05.000Z</time>
      </trkpt>
      <trkpt lat="46.89528" lon="6.36288">
        <ele>845.20001220703</ele>
        <time>2023-08-03T05:50:08.000Z</time>
      </trkpt>
      <trkpt lat="46.89543" lon="6.3626">
        <ele>845.20001220703</ele>
        <time>2023-08-03T05:50:12.000Z</time>
      </trkpt>
      <trkpt lat="46.89555" lon="6.36238">
        <ele>845.20001220703</ele>
        <time>2023-08-03T05:50:15.000Z</time>
      </trkpt>
      <trkpt lat="46.89562" lon="6.36223">
        <ele>845</ele>
        <time>2023-08-03T05:50:17.000Z</time>
      </trkpt>
      <trkpt lat="46.89572" lon="6.36201">
        <ele>844.79998779297</ele>
        <time>2023-08-03T05:50:20.000Z</time>
      </trkpt>
      <trkpt lat="46.8959" lon="6.36164">
        <ele>844.59997558594</ele>
        <time>2023-08-03T05:50:25.000Z</time>
      </trkpt>
      <trkpt lat="46.89602" lon="6.3614">
        <ele>844.59997558594</ele>
        <time>2023-08-03T05:50:28.000Z</time>
      </trkpt>
      <trkpt lat="46.89642" lon="6.36075">
        <ele>843.59997558594</ele>
        <time>2023-08-03T05:50:37.000Z</time>
      </trkpt>
      <trkpt lat="46.89648" lon="6.36067">
        <ele>843.59997558594</ele>
        <time>2023-08-03T05:50:38.000Z</time>
      </trkpt>
      <trkpt lat="46.89677" lon="6.36038">
        <ele>842.59997558594</ele>
        <time>2023-08-03T05:50:43.000Z</time>
      </trkpt>
      <trkpt lat="46.89683" lon="6.36034">
        <ele>842.40002441406</ele>
        <time>2023-08-03T05:50:44.000Z</time>
      </trkpt>
      <trkpt lat="46.89701" lon="6.36021">
        <ele>841.20001220703</ele>
        <time>2023-08-03T05:50:48.000Z</time>
      </trkpt>
      <trkpt lat="46.89726" lon="6.36002">
        <ele>840.20001220703</ele>
        <time>2023-08-03T05:50:51.000Z</time>
      </trkpt>
      <trkpt lat="46.89741" lon="6.35991">
        <ele>839.79998779297</ele>
        <time>2023-08-03T05:50:53.000Z</time>
      </trkpt>
      <trkpt lat="46.8976" lon="6.35975">
        <ele>839.20001220703</ele>
        <time>2023-08-03T05:50:56.000Z</time>
      </trkpt>
      <trkpt lat="46.89781" lon="6.35959">
        <ele>838</ele>
        <time>2023-08-03T05:50:59.000Z</time>
      </trkpt>
      <trkpt lat="46.89788" lon="6.35954">
        <ele>837.79998779297</ele>
        <time>2023-08-03T05:51:00.000Z</time>
      </trkpt>
      <trkpt lat="46.89807" lon="6.35943">
        <ele>837.20001220703</ele>
        <time>2023-08-03T05:51:03.000Z</time>
      </trkpt>
      <trkpt lat="46.89813" lon="6.35942">
        <ele>837.20001220703</ele>
        <time>2023-08-03T05:51:04.000Z</time>
      </trkpt>
      <trkpt lat="46.89819" lon="6.3594">
        <ele>836.79998779297</ele>
        <time>2023-08-03T05:51:05.000Z</time>
      </trkpt>
      <trkpt lat="46.8985" lon="6.35928">
        <ele>836</ele>
        <time>2023-08-03T05:51:10.000Z</time>
      </trkpt>
      <trkpt lat="46.89887" lon="6.35915">
        <ele>835.79998779297</ele>
        <time>2023-08-03T05:51:16.000Z</time>
      </trkpt>
      <trkpt lat="46.89926" lon="6.35898">
        <ele>836</ele>
        <time>2023-08-03T05:51:23.000Z</time>
      </trkpt>
      <trkpt lat="46.89964" lon="6.35877">
        <ele>836</ele>
        <time>2023-08-03T05:51:31.000Z</time>
      </trkpt>
      <trkpt lat="46.8998" lon="6.35868">
        <ele>836.40002441406</ele>
        <time>2023-08-03T05:51:37.000Z</time>
      </trkpt>
      <trkpt lat="46.89981" lon="6.35867">
        <ele>836.40002441406</ele>
        <time>2023-08-03T05:51:40.000Z</time>
      </trkpt>
      <trkpt lat="46.89983" lon="6.35869">
        <ele>836.20001220703</ele>
        <time>2023-08-03T05:51:57.000Z</time>
      </trkpt>
      <trkpt lat="46.89989" lon="6.35877">
        <ele>836.20001220703</ele>
        <time>2023-08-03T05:52:00.000Z</time>
      </trkpt>
      <trkpt lat="46.89992" lon="6.35876">
        <ele>836.40002441406</ele>
        <time>2023-08-03T05:52:01.000Z</time>
      </trkpt>
      <trkpt lat="46.89994" lon="6.35874">
        <ele>836.59997558594</ele>
        <time>2023-08-03T05:52:02.000Z</time>
      </trkpt>
      <trkpt lat="46.89999" lon="6.35862">
        <ele>836.79998779297</ele>
        <time>2023-08-03T05:52:05.000Z</time>
      </trkpt>
      <trkpt lat="46.90005" lon="6.3584">
        <ele>837</ele>
        <time>2023-08-03T05:52:10.000Z</time>
      </trkpt>
      <trkpt lat="46.90012" lon="6.35816">
        <ele>837.20001220703</ele>
        <time>2023-08-03T05:52:14.000Z</time>
      </trkpt>
      <trkpt lat="46.90015" lon="6.35803">
        <ele>837.40002441406</ele>
        <time>2023-08-03T05:52:16.000Z</time>
      </trkpt>
      <trkpt lat="46.9002" lon="6.35784">
        <ele>837.59997558594</ele>
        <time>2023-08-03T05:52:20.000Z</time>
      </trkpt>
      <trkpt lat="46.90021" lon="6.35781">
        <ele>837.59997558594</ele>
        <time>2023-08-03T05:52:21.000Z</time>
      </trkpt>
      <trkpt lat="46.90025" lon="6.35761">
        <ele>837.79998779297</ele>
        <time>2023-08-03T05:52:26.000Z</time>
      </trkpt>
      <trkpt lat="46.90028" lon="6.3575">
        <ele>838</ele>
        <time>2023-08-03T05:52:28.000Z</time>
      </trkpt>
      <trkpt lat="46.90034" lon="6.35723">
        <ele>838</ele>
        <time>2023-08-03T05:52:32.000Z</time>
      </trkpt>
      <trkpt lat="46.90042" lon="6.35698">
        <ele>838.20001220703</ele>
        <time>2023-08-03T05:52:36.000Z</time>
      </trkpt>
      <trkpt lat="46.90049" lon="6.35685">
        <ele>838.59997558594</ele>
        <time>2023-08-03T05:52:39.000Z</time>
      </trkpt>
      <trkpt lat="46.90052" lon="6.35681">
        <ele>838.59997558594</ele>
        <time>2023-08-03T05:52:40.000Z</time>
      </trkpt>
      <trkpt lat="46.9006" lon="6.35678">
        <ele>839</ele>
        <time>2023-08-03T05:52:43.000Z</time>
      </trkpt>
      <trkpt lat="46.9007" lon="6.35684">
        <ele>839</ele>
        <time>2023-08-03T05:52:46.000Z</time>
      </trkpt>
      <trkpt lat="46.90087" lon="6.35702">
        <ele>838.59997558594</ele>
        <time>2023-08-03T05:52:51.000Z</time>
      </trkpt>
      <trkpt lat="46.9011" lon="6.35723">
        <ele>837.79998779297</ele>
        <time>2023-08-03T05:52:56.000Z</time>
      </trkpt>
      <trkpt lat="46.90115" lon="6.35727">
        <ele>837.59997558594</ele>
        <time>2023-08-03T05:52:57.000Z</time>
      </trkpt>
      <trkpt lat="46.90156" lon="6.35765">
        <ele>837.20001220703</ele>
        <time>2023-08-03T05:53:05.000Z</time>
      </trkpt>
      <trkpt lat="46.90161" lon="6.35769">
        <ele>837</ele>
        <time>2023-08-03T05:53:06.000Z</time>
      </trkpt>
      <trkpt lat="46.90178" lon="6.35783">
        <ele>836.40002441406</ele>
        <time>2023-08-03T05:53:09.000Z</time>
      </trkpt>
      <trkpt lat="46.902" lon="6.35798">
        <ele>835.59997558594</ele>
        <time>2023-08-03T05:53:13.000Z</time>
      </trkpt>
      <trkpt lat="46.90223" lon="6.35813">
        <ele>835.59997558594</ele>
        <time>2023-08-03T05:53:18.000Z</time>
      </trkpt>
      <trkpt lat="46.90229" lon="6.35819">
        <ele>835.79998779297</ele>
        <time>2023-08-03T05:53:21.000Z</time>
      </trkpt>
      <trkpt lat="46.9023" lon="6.3582">
        <ele>836</ele>
        <time>2023-08-03T05:53:23.000Z</time>
      </trkpt>
      <trkpt lat="46.90228" lon="6.35824">
        <ele>836</ele>
        <time>2023-08-03T05:53:38.000Z</time>
      </trkpt>
      <trkpt lat="46.90222" lon="6.35845">
        <ele>836</ele>
        <time>2023-08-03T05:53:42.000Z</time>
      </trkpt>
      <trkpt lat="46.90212" lon="6.35899">
        <ele>836.20001220703</ele>
        <time>2023-08-03T05:53:49.000Z</time>
      </trkpt>
      <trkpt lat="46.9021" lon="6.35904">
        <ele>836</ele>
        <time>2023-08-03T05:53:50.000Z</time>
      </trkpt>
      <trkpt lat="46.90208" lon="6.35917">
        <ele>836</ele>
        <time>2023-08-03T05:53:52.000Z</time>
      </trkpt>
      <trkpt lat="46.9021" lon="6.35929">
        <ele>836</ele>
        <time>2023-08-03T05:53:54.000Z</time>
      </trkpt>
      <trkpt lat="46.90214" lon="6.35938">
        <ele>835.79998779297</ele>
        <time>2023-08-03T05:53:56.000Z</time>
      </trkpt>
      <trkpt lat="46.90218" lon="6.35945">
        <ele>835.79998779297</ele>
        <time>2023-08-03T05:53:57.000Z</time>
      </trkpt>
      <trkpt lat="46.90239" lon="6.35973">
        <ele>835.79998779297</ele>
        <time>2023-08-03T05:54:02.000Z</time>
      </trkpt>
      <trkpt lat="46.90262" lon="6.36012">
        <ele>836.59997558594</ele>
        <time>2023-08-03T05:54:09.000Z</time>
      </trkpt>
      <trkpt lat="46.90272" lon="6.36018">
        <ele>836.79998779297</ele>
        <time>2023-08-03T05:54:11.000Z</time>
      </trkpt>
      <trkpt lat="46.90281" lon="6.36022">
        <ele>837</ele>
        <time>2023-08-03T05:54:13.000Z</time>
      </trkpt>
      <trkpt lat="46.90295" lon="6.36027">
        <ele>837.40002441406</ele>
        <time>2023-08-03T05:54:16.000Z</time>
      </trkpt>
      <trkpt lat="46.90305" lon="6.36029">
        <ele>837.59997558594</ele>
        <time>2023-08-03T05:54:18.000Z</time>
      </trkpt>
      <trkpt lat="46.90311" lon="6.36029">
        <ele>837.79998779297</ele>
        <time>2023-08-03T05:54:19.000Z</time>
      </trkpt>
      <trkpt lat="46.90342" lon="6.36026">
        <ele>838.40002441406</ele>
        <time>2023-08-03T05:54:25.000Z</time>
      </trkpt>
      <trkpt lat="46.9036" lon="6.36025">
        <ele>838.40002441406</ele>
        <time>2023-08-03T05:54:28.000Z</time>
      </trkpt>
      <trkpt lat="46.90388" lon="6.3601">
        <ele>838.40002441406</ele>
        <time>2023-08-03T05:54:33.000Z</time>
      </trkpt>
      <trkpt lat="46.90414" lon="6.35995">
        <ele>838.40002441406</ele>
        <time>2023-08-03T05:54:39.000Z</time>
      </trkpt>
      <trkpt lat="46.90426" lon="6.35982">
        <ele>838.40002441406</ele>
        <time>2023-08-03T05:54:42.000Z</time>
      </trkpt>
      <trkpt lat="46.90437" lon="6.35969">
        <ele>838.40002441406</ele>
        <time>2023-08-03T05:54:45.000Z</time>
      </trkpt>
      <trkpt lat="46.90458" lon="6.35946">
        <ele>838</ele>
        <time>2023-08-03T05:54:50.000Z</time>
      </trkpt>
      <trkpt lat="46.90468" lon="6.35936">
        <ele>837.59997558594</ele>
        <time>2023-08-03T05:54:52.000Z</time>
      </trkpt>
      <trkpt lat="46.90482" lon="6.3592">
        <ele>837.40002441406</ele>
        <time>2023-08-03T05:54:55.000Z</time>
      </trkpt>
      <trkpt lat="46.90506" lon="6.35893">
        <ele>836.20001220703</ele>
        <time>2023-08-03T05:55:00.000Z</time>
      </trkpt>
      <trkpt lat="46.90511" lon="6.35888">
        <ele>836</ele>
        <time>2023-08-03T05:55:01.000Z</time>
      </trkpt>
      <trkpt lat="46.90533" lon="6.35872">
        <ele>835.20001220703</ele>
        <time>2023-08-03T05:55:05.000Z</time>
      </trkpt>
      <trkpt lat="46.90546" lon="6.35869">
        <ele>834.79998779297</ele>
        <time>2023-08-03T05:55:07.000Z</time>
      </trkpt>
      <trkpt lat="46.90563" lon="6.35867">
        <ele>834.20001220703</ele>
        <time>2023-08-03T05:55:10.000Z</time>
      </trkpt>
      <trkpt lat="46.90569" lon="6.35867">
        <ele>834</ele>
        <time>2023-08-03T05:55:11.000Z</time>
      </trkpt>
      <trkpt lat="46.90572" lon="6.35867">
        <ele>834</ele>
        <time>2023-08-03T05:55:12.000Z</time>
      </trkpt>
      <trkpt lat="46.90577" lon="6.35867">
        <ele>834</ele>
        <time>2023-08-03T05:55:13.000Z</time>
      </trkpt>
      <trkpt lat="46.90587" lon="6.35863">
        <ele>833.59997558594</ele>
        <time>2023-08-03T05:55:16.000Z</time>
      </trkpt>
      <trkpt lat="46.90587" lon="6.3585">
        <ele>833.59997558594</ele>
        <time>2023-08-03T05:55:18.000Z</time>
      </trkpt>
      <trkpt lat="46.90586" lon="6.35842">
        <ele>833.59997558594</ele>
        <time>2023-08-03T05:55:19.000Z</time>
      </trkpt>
      <trkpt lat="46.90581" lon="6.35799">
        <ele>833.59997558594</ele>
        <time>2023-08-03T05:55:24.000Z</time>
      </trkpt>
      <trkpt lat="46.90581" lon="6.35792">
        <ele>833.59997558594</ele>
        <time>2023-08-03T05:55:25.000Z</time>
      </trkpt>
      <trkpt lat="46.90583" lon="6.35786">
        <ele>833.59997558594</ele>
        <time>2023-08-03T05:55:26.000Z</time>
      </trkpt>
      <trkpt lat="46.90587" lon="6.35772">
        <ele>833.59997558594</ele>
        <time>2023-08-03T05:55:28.000Z</time>
      </trkpt>
      <trkpt lat="46.90588" lon="6.35765">
        <ele>833.79998779297</ele>
        <time>2023-08-03T05:55:29.000Z</time>
      </trkpt>
      <trkpt lat="46.90589" lon="6.35758">
        <ele>834</ele>
        <time>2023-08-03T05:55:30.000Z</time>
      </trkpt>
      <trkpt lat="46.90592" lon="6.35743">
        <ele>834</ele>
        <time>2023-08-03T05:55:32.000Z</time>
      </trkpt>
      <trkpt lat="46.90595" lon="6.35736">
        <ele>834</ele>
        <time>2023-08-03T05:55:33.000Z</time>
      </trkpt>
      <trkpt lat="46.90611" lon="6.357">
        <ele>833.79998779297</ele>
        <time>2023-08-03T05:55:38.000Z</time>
      </trkpt>
      <trkpt lat="46.90635" lon="6.35665">
        <ele>833.79998779297</ele>
        <time>2023-08-03T05:55:44.000Z</time>
      </trkpt>
      <trkpt lat="46.90668" lon="6.35631">
        <ele>834.20001220703</ele>
        <time>2023-08-03T05:55:51.000Z</time>
      </trkpt>
      <trkpt lat="46.90718" lon="6.356">
        <ele>834.40002441406</ele>
        <time>2023-08-03T05:56:00.000Z</time>
      </trkpt>
      <trkpt lat="46.9077" lon="6.35576">
        <ele>834.20001220703</ele>
        <time>2023-08-03T05:56:09.000Z</time>
      </trkpt>
      <trkpt lat="46.90776" lon="6.35574">
        <ele>834</ele>
        <time>2023-08-03T05:56:10.000Z</time>
      </trkpt>
      <trkpt lat="46.90823" lon="6.35557">
        <ele>833.79998779297</ele>
        <time>2023-08-03T05:56:18.000Z</time>
      </trkpt>
      <trkpt lat="46.90875" lon="6.35543">
        <ele>834</ele>
        <time>2023-08-03T05:56:27.000Z</time>
      </trkpt>
      <trkpt lat="46.90928" lon="6.35526">
        <ele>834</ele>
        <time>2023-08-03T05:56:36.000Z</time>
      </trkpt>
      <trkpt lat="46.90961" lon="6.35513">
        <ele>834.40002441406</ele>
        <time>2023-08-03T05:56:42.000Z</time>
      </trkpt>
      <trkpt lat="46.91012" lon="6.35488">
        <ele>834.40002441406</ele>
        <time>2023-08-03T05:56:51.000Z</time>
      </trkpt>
      <trkpt lat="46.91058" lon="6.3546">
        <ele>833.79998779297</ele>
        <time>2023-08-03T05:56:59.000Z</time>
      </trkpt>
      <trkpt lat="46.9111" lon="6.35429">
        <ele>833.59997558594</ele>
        <time>2023-08-03T05:57:08.000Z</time>
      </trkpt>
      <trkpt lat="46.91147" lon="6.35404">
        <ele>834</ele>
        <time>2023-08-03T05:57:15.000Z</time>
      </trkpt>
      <trkpt lat="46.91197" lon="6.35377">
        <ele>834.79998779297</ele>
        <time>2023-08-03T05:57:24.000Z</time>
      </trkpt>
      <trkpt lat="46.91207" lon="6.35371">
        <ele>835.20001220703</ele>
        <time>2023-08-03T05:57:26.000Z</time>
      </trkpt>
      <trkpt lat="46.91244" lon="6.35351">
        <ele>835.59997558594</ele>
        <time>2023-08-03T05:57:33.000Z</time>
      </trkpt>
      <trkpt lat="46.91296" lon="6.3532">
        <ele>835.59997558594</ele>
        <time>2023-08-03T05:57:42.000Z</time>
      </trkpt>
      <trkpt lat="46.913" lon="6.35317">
        <ele>835.59997558594</ele>
        <time>2023-08-03T05:57:43.000Z</time>
      </trkpt>
      <trkpt lat="46.91348" lon="6.3529">
        <ele>835.20001220703</ele>
        <time>2023-08-03T05:57:51.000Z</time>
      </trkpt>
      <trkpt lat="46.91402" lon="6.35258">
        <ele>834.59997558594</ele>
        <time>2023-08-03T05:58:00.000Z</time>
      </trkpt>
      <trkpt lat="46.91412" lon="6.35249">
        <ele>834.40002441406</ele>
        <time>2023-08-03T05:58:02.000Z</time>
      </trkpt>
      <trkpt lat="46.91418" lon="6.35245">
        <ele>834.40002441406</ele>
        <time>2023-08-03T05:58:03.000Z</time>
      </trkpt>
      <trkpt lat="46.9143" lon="6.35239">
        <ele>834.20001220703</ele>
        <time>2023-08-03T05:58:05.000Z</time>
      </trkpt>
      <trkpt lat="46.91435" lon="6.35238">
        <ele>834</ele>
        <time>2023-08-03T05:58:06.000Z</time>
      </trkpt>
      <trkpt lat="46.91443" lon="6.35235">
        <ele>834</ele>
        <time>2023-08-03T05:58:07.000Z</time>
      </trkpt>
      <trkpt lat="46.91486" lon="6.35211">
        <ele>833.40002441406</ele>
        <time>2023-08-03T05:58:14.000Z</time>
      </trkpt>
      <trkpt lat="46.91505" lon="6.352">
        <ele>833</ele>
        <time>2023-08-03T05:58:17.000Z</time>
      </trkpt>
      <trkpt lat="46.91542" lon="6.35178">
        <ele>832.59997558594</ele>
        <time>2023-08-03T05:58:23.000Z</time>
      </trkpt>
      <trkpt lat="46.91591" lon="6.35149">
        <ele>832.20001220703</ele>
        <time>2023-08-03T05:58:31.000Z</time>
      </trkpt>
      <trkpt lat="46.91597" lon="6.35146">
        <ele>832</ele>
        <time>2023-08-03T05:58:32.000Z</time>
      </trkpt>
      <trkpt lat="46.91603" lon="6.35143">
        <ele>832</ele>
        <time>2023-08-03T05:58:33.000Z</time>
      </trkpt>
      <trkpt lat="46.9162" lon="6.35131">
        <ele>831.79998779297</ele>
        <time>2023-08-03T05:58:36.000Z</time>
      </trkpt>
      <trkpt lat="46.91669" lon="6.35104">
        <ele>832.40002441406</ele>
        <time>2023-08-03T05:58:45.000Z</time>
      </trkpt>
      <trkpt lat="46.9169" lon="6.35091">
        <ele>833</ele>
        <time>2023-08-03T05:58:49.000Z</time>
      </trkpt>
      <trkpt lat="46.91723" lon="6.35072">
        <ele>833.40002441406</ele>
        <time>2023-08-03T05:58:55.000Z</time>
      </trkpt>
      <trkpt lat="46.91763" lon="6.35057">
        <ele>834</ele>
        <time>2023-08-03T05:59:02.000Z</time>
      </trkpt>
      <trkpt lat="46.91817" lon="6.35044">
        <ele>832.79998779297</ele>
        <time>2023-08-03T05:59:11.000Z</time>
      </trkpt>
      <trkpt lat="46.91848" lon="6.35036">
        <ele>831.79998779297</ele>
        <time>2023-08-03T05:59:16.000Z</time>
      </trkpt>
      <trkpt lat="46.9187" lon="6.35029">
        <ele>831.59997558594</ele>
        <time>2023-08-03T05:59:19.000Z</time>
      </trkpt>
      <trkpt lat="46.91898" lon="6.35019">
        <ele>830.79998779297</ele>
        <time>2023-08-03T05:59:23.000Z</time>
      </trkpt>
      <trkpt lat="46.91925" lon="6.3501">
        <ele>830</ele>
        <time>2023-08-03T05:59:27.000Z</time>
      </trkpt>
      <trkpt lat="46.91945" lon="6.35003">
        <ele>829.79998779297</ele>
        <time>2023-08-03T05:59:30.000Z</time>
      </trkpt>
      <trkpt lat="46.91989" lon="6.34988">
        <ele>828.59997558594</ele>
        <time>2023-08-03T05:59:36.000Z</time>
      </trkpt>
      <trkpt lat="46.91996" lon="6.34986">
        <ele>828.40002441406</ele>
        <time>2023-08-03T05:59:37.000Z</time>
      </trkpt>
      <trkpt lat="46.92015" lon="6.34981">
        <ele>828</ele>
        <time>2023-08-03T05:59:40.000Z</time>
      </trkpt>
      <trkpt lat="46.9202" lon="6.34982">
        <ele>827.79998779297</ele>
        <time>2023-08-03T05:59:41.000Z</time>
      </trkpt>
      <trkpt lat="46.92025" lon="6.34985">
        <ele>827.59997558594</ele>
        <time>2023-08-03T05:59:42.000Z</time>
      </trkpt>
      <trkpt lat="46.92032" lon="6.34994">
        <ele>827.40002441406</ele>
        <time>2023-08-03T05:59:44.000Z</time>
      </trkpt>
      <trkpt lat="46.92037" lon="6.34999">
        <ele>827.20001220703</ele>
        <time>2023-08-03T05:59:45.000Z</time>
      </trkpt>
      <trkpt lat="46.92046" lon="6.34997">
        <ele>827</ele>
        <time>2023-08-03T05:59:47.000Z</time>
      </trkpt>
      <trkpt lat="46.92057" lon="6.34982">
        <ele>826.79998779297</ele>
        <time>2023-08-03T05:59:50.000Z</time>
      </trkpt>
      <trkpt lat="46.92063" lon="6.34974">
        <ele>826.59997558594</ele>
        <time>2023-08-03T05:59:52.000Z</time>
      </trkpt>
      <trkpt lat="46.92065" lon="6.34974">
        <ele>826.59997558594</ele>
        <time>2023-08-03T05:59:53.000Z</time>
      </trkpt>
      <trkpt lat="46.92072" lon="6.34984">
        <ele>826.20001220703</ele>
        <time>2023-08-03T05:59:56.000Z</time>
      </trkpt>
      <trkpt lat="46.92088" lon="6.34997">
        <ele>825.79998779297</ele>
        <time>2023-08-03T06:00:01.000Z</time>
      </trkpt>
      <trkpt lat="46.92097" lon="6.35">
        <ele>825.79998779297</ele>
        <time>2023-08-03T06:00:03.000Z</time>
      </trkpt>
      <trkpt lat="46.92111" lon="6.35008">
        <ele>825.79998779297</ele>
        <time>2023-08-03T06:00:06.000Z</time>
      </trkpt>
      <trkpt lat="46.92149" lon="6.35028">
        <ele>826.20001220703</ele>
        <time>2023-08-03T06:00:13.000Z</time>
      </trkpt>
      <trkpt lat="46.92202" lon="6.35056">
        <ele>825.79998779297</ele>
        <time>2023-08-03T06:00:22.000Z</time>
      </trkpt>
      <trkpt lat="46.92242" lon="6.35077">
        <ele>825.59997558594</ele>
        <time>2023-08-03T06:00:29.000Z</time>
      </trkpt>
      <trkpt lat="46.92249" lon="6.3508">
        <ele>825.59997558594</ele>
        <time>2023-08-03T06:00:30.000Z</time>
      </trkpt>
      <trkpt lat="46.92302" lon="6.35113">
        <ele>825.20001220703</ele>
        <time>2023-08-03T06:00:39.000Z</time>
      </trkpt>
      <trkpt lat="46.92355" lon="6.3515">
        <ele>825</ele>
        <time>2023-08-03T06:00:48.000Z</time>
      </trkpt>
      <trkpt lat="46.92366" lon="6.35159">
        <ele>825</ele>
        <time>2023-08-03T06:00:50.000Z</time>
      </trkpt>
      <trkpt lat="46.92418" lon="6.35197">
        <ele>825.20001220703</ele>
        <time>2023-08-03T06:00:59.000Z</time>
      </trkpt>
      <trkpt lat="46.9243" lon="6.35206">
        <ele>825.40002441406</ele>
        <time>2023-08-03T06:01:01.000Z</time>
      </trkpt>
      <trkpt lat="46.92463" lon="6.35232">
        <ele>825.40002441406</ele>
        <time>2023-08-03T06:01:07.000Z</time>
      </trkpt>
      <trkpt lat="46.92515" lon="6.35273">
        <ele>825.59997558594</ele>
        <time>2023-08-03T06:01:16.000Z</time>
      </trkpt>
      <trkpt lat="46.92526" lon="6.35283">
        <ele>825.59997558594</ele>
        <time>2023-08-03T06:01:18.000Z</time>
      </trkpt>
      <trkpt lat="46.92568" lon="6.35327">
        <ele>825.79998779297</ele>
        <time>2023-08-03T06:01:26.000Z</time>
      </trkpt>
      <trkpt lat="46.92608" lon="6.35369">
        <ele>825.79998779297</ele>
        <time>2023-08-03T06:01:34.000Z</time>
      </trkpt>
      <trkpt lat="46.92623" lon="6.35385">
        <ele>825.40002441406</ele>
        <time>2023-08-03T06:01:38.000Z</time>
      </trkpt>
      <trkpt lat="46.92626" lon="6.35387">
        <ele>825.59997558594</ele>
        <time>2023-08-03T06:01:39.000Z</time>
      </trkpt>
      <trkpt lat="46.92634" lon="6.35395">
        <ele>825.79998779297</ele>
        <time>2023-08-03T06:01:43.000Z</time>
      </trkpt>
      <trkpt lat="46.92648" lon="6.35406">
        <ele>826</ele>
        <time>2023-08-03T06:01:48.000Z</time>
      </trkpt>
      <trkpt lat="46.92665" lon="6.35425">
        <ele>826</ele>
        <time>2023-08-03T06:01:52.000Z</time>
      </trkpt>
      <trkpt lat="46.927" lon="6.35466">
        <ele>825.59997558594</ele>
        <time>2023-08-03T06:01:59.000Z</time>
      </trkpt>
      <trkpt lat="46.92724" lon="6.35497">
        <ele>825.20001220703</ele>
        <time>2023-08-03T06:02:04.000Z</time>
      </trkpt>
      <trkpt lat="46.92735" lon="6.3551">
        <ele>824.79998779297</ele>
        <time>2023-08-03T06:02:06.000Z</time>
      </trkpt>
      <trkpt lat="46.9274" lon="6.35516">
        <ele>824.59997558594</ele>
        <time>2023-08-03T06:02:07.000Z</time>
      </trkpt>
      <trkpt lat="46.92771" lon="6.35552">
        <ele>824.20001220703</ele>
        <time>2023-08-03T06:02:13.000Z</time>
      </trkpt>
      <trkpt lat="46.9281" lon="6.35605">
        <ele>824</ele>
        <time>2023-08-03T06:02:21.000Z</time>
      </trkpt>
      <trkpt lat="46.92829" lon="6.35632">
        <ele>823.59997558594</ele>
        <time>2023-08-03T06:02:25.000Z</time>
      </trkpt>
      <trkpt lat="46.92843" lon="6.35653">
        <ele>823.40002441406</ele>
        <time>2023-08-03T06:02:28.000Z</time>
      </trkpt>
      <trkpt lat="46.92863" lon="6.35681">
        <ele>823</ele>
        <time>2023-08-03T06:02:32.000Z</time>
      </trkpt>
      <trkpt lat="46.92899" lon="6.35728">
        <ele>822.59997558594</ele>
        <time>2023-08-03T06:02:39.000Z</time>
      </trkpt>
      <trkpt lat="46.92908" lon="6.35739">
        <ele>822.59997558594</ele>
        <time>2023-08-03T06:02:41.000Z</time>
      </trkpt>
      <trkpt lat="46.9295" lon="6.35797">
        <ele>823.20001220703</ele>
        <time>2023-08-03T06:02:50.000Z</time>
      </trkpt>
      <trkpt lat="46.9299" lon="6.35852">
        <ele>823</ele>
        <time>2023-08-03T06:02:58.000Z</time>
      </trkpt>
      <trkpt lat="46.93" lon="6.35865">
        <ele>823</ele>
        <time>2023-08-03T06:03:00.000Z</time>
      </trkpt>
      <trkpt lat="46.93038" lon="6.35919">
        <ele>822.59997558594</ele>
        <time>2023-08-03T06:03:08.000Z</time>
      </trkpt>
      <trkpt lat="46.93068" lon="6.35959">
        <ele>822.40002441406</ele>
        <time>2023-08-03T06:03:15.000Z</time>
      </trkpt>
      <trkpt lat="46.93086" lon="6.35985">
        <ele>822</ele>
        <time>2023-08-03T06:03:20.000Z</time>
      </trkpt>
      <trkpt lat="46.93095" lon="6.36001">
        <ele>822</ele>
        <time>2023-08-03T06:03:23.000Z</time>
      </trkpt>
      <trkpt lat="46.93099" lon="6.36016">
        <ele>821.79998779297</ele>
        <time>2023-08-03T06:03:25.000Z</time>
      </trkpt>
      <trkpt lat="46.931" lon="6.36023">
        <ele>821.79998779297</ele>
        <time>2023-08-03T06:03:26.000Z</time>
      </trkpt>
      <trkpt lat="46.93105" lon="6.36033">
        <ele>821.59997558594</ele>
        <time>2023-08-03T06:03:28.000Z</time>
      </trkpt>
      <trkpt lat="46.93107" lon="6.36037">
        <ele>821.59997558594</ele>
        <time>2023-08-03T06:03:29.000Z</time>
      </trkpt>
      <trkpt lat="46.9311" lon="6.36039">
        <ele>821.59997558594</ele>
        <time>2023-08-03T06:03:30.000Z</time>
      </trkpt>
      <trkpt lat="46.93115" lon="6.36039">
        <ele>821.59997558594</ele>
        <time>2023-08-03T06:03:32.000Z</time>
      </trkpt>
      <trkpt lat="46.93126" lon="6.36044">
        <ele>821.40002441406</ele>
        <time>2023-08-03T06:03:35.000Z</time>
      </trkpt>
      <trkpt lat="46.93131" lon="6.36048">
        <ele>821.40002441406</ele>
        <time>2023-08-03T06:03:36.000Z</time>
      </trkpt>
      <trkpt lat="46.93154" lon="6.36079">
        <ele>821.20001220703</ele>
        <time>2023-08-03T06:03:41.000Z</time>
      </trkpt>
      <trkpt lat="46.93191" lon="6.36131">
        <ele>821</ele>
        <time>2023-08-03T06:03:49.000Z</time>
      </trkpt>
      <trkpt lat="46.93212" lon="6.3616">
        <ele>820.79998779297</ele>
        <time>2023-08-03T06:03:53.000Z</time>
      </trkpt>
      <trkpt lat="46.93232" lon="6.36187">
        <ele>820.40002441406</ele>
        <time>2023-08-03T06:03:57.000Z</time>
      </trkpt>
      <trkpt lat="46.93275" lon="6.36247">
        <ele>820.20001220703</ele>
        <time>2023-08-03T06:04:06.000Z</time>
      </trkpt>
      <trkpt lat="46.9328" lon="6.36254">
        <ele>820.20001220703</ele>
        <time>2023-08-03T06:04:07.000Z</time>
      </trkpt>
      <trkpt lat="46.93322" lon="6.36312">
        <ele>820.20001220703</ele>
        <time>2023-08-03T06:04:16.000Z</time>
      </trkpt>
      <trkpt lat="46.93333" lon="6.36327">
        <ele>820.20001220703</ele>
        <time>2023-08-03T06:04:18.000Z</time>
      </trkpt>
      <trkpt lat="46.93374" lon="6.36384">
        <ele>820</ele>
        <time>2023-08-03T06:04:27.000Z</time>
      </trkpt>
      <trkpt lat="46.93393" lon="6.36411">
        <ele>819.59997558594</ele>
        <time>2023-08-03T06:04:31.000Z</time>
      </trkpt>
      <trkpt lat="46.93418" lon="6.36443">
        <ele>819.20001220703</ele>
        <time>2023-08-03T06:04:36.000Z</time>
      </trkpt>
      <trkpt lat="46.93456" lon="6.36485">
        <ele>819</ele>
        <time>2023-08-03T06:04:43.000Z</time>
      </trkpt>
      <trkpt lat="46.93509" lon="6.36528">
        <ele>819</ele>
        <time>2023-08-03T06:04:52.000Z</time>
      </trkpt>
      <trkpt lat="46.93545" lon="6.36551">
        <ele>818.59997558594</ele>
        <time>2023-08-03T06:04:58.000Z</time>
      </trkpt>
      <trkpt lat="46.93571" lon="6.36564">
        <ele>818.40002441406</ele>
        <time>2023-08-03T06:05:02.000Z</time>
      </trkpt>
      <trkpt lat="46.9363" lon="6.36591">
        <ele>818.20001220703</ele>
        <time>2023-08-03T06:05:11.000Z</time>
      </trkpt>
      <trkpt lat="46.93637" lon="6.36594">
        <ele>818</ele>
        <time>2023-08-03T06:05:12.000Z</time>
      </trkpt>
      <trkpt lat="46.93689" lon="6.36617">
        <ele>818</ele>
        <time>2023-08-03T06:05:20.000Z</time>
      </trkpt>
      <trkpt lat="46.93701" lon="6.36623">
        <ele>818</ele>
        <time>2023-08-03T06:05:22.000Z</time>
      </trkpt>
      <trkpt lat="46.93756" lon="6.3665">
        <ele>818</ele>
        <time>2023-08-03T06:05:31.000Z</time>
      </trkpt>
      <trkpt lat="46.9381" lon="6.36686">
        <ele>817.59997558594</ele>
        <time>2023-08-03T06:05:40.000Z</time>
      </trkpt>
      <trkpt lat="46.93847" lon="6.36723">
        <ele>818</ele>
        <time>2023-08-03T06:05:47.000Z</time>
      </trkpt>
      <trkpt lat="46.93885" lon="6.36779">
        <ele>818</ele>
        <time>2023-08-03T06:05:55.000Z</time>
      </trkpt>
      <trkpt lat="46.9391" lon="6.36835">
        <ele>817.59997558594</ele>
        <time>2023-08-03T06:06:02.000Z</time>
      </trkpt>
      <trkpt lat="46.9393" lon="6.36903">
        <ele>817.40002441406</ele>
        <time>2023-08-03T06:06:10.000Z</time>
      </trkpt>
      <trkpt lat="46.93942" lon="6.36979">
        <ele>817.20001220703</ele>
        <time>2023-08-03T06:06:18.000Z</time>
      </trkpt>
      <trkpt lat="46.93953" lon="6.37058">
        <ele>817.40002441406</ele>
        <time>2023-08-03T06:06:26.000Z</time>
      </trkpt>
      <trkpt lat="46.93954" lon="6.37067">
        <ele>817.40002441406</ele>
        <time>2023-08-03T06:06:27.000Z</time>
      </trkpt>
      <trkpt lat="46.9397" lon="6.37145">
        <ele>817.59997558594</ele>
        <time>2023-08-03T06:06:35.000Z</time>
      </trkpt>
      <trkpt lat="46.93973" lon="6.37155">
        <ele>817.59997558594</ele>
        <time>2023-08-03T06:06:36.000Z</time>
      </trkpt>
      <trkpt lat="46.93999" lon="6.37227">
        <ele>817.59997558594</ele>
        <time>2023-08-03T06:06:44.000Z</time>
      </trkpt>
      <trkpt lat="46.94032" lon="6.37282">
        <ele>817.59997558594</ele>
        <time>2023-08-03T06:06:51.000Z</time>
      </trkpt>
      <trkpt lat="46.94073" lon="6.37338">
        <ele>817.59997558594</ele>
        <time>2023-08-03T06:06:59.000Z</time>
      </trkpt>
      <trkpt lat="46.94099" lon="6.37373">
        <ele>817.59997558594</ele>
        <time>2023-08-03T06:07:04.000Z</time>
      </trkpt>
      <trkpt lat="46.94141" lon="6.37428">
        <ele>817.59997558594</ele>
        <time>2023-08-03T06:07:12.000Z</time>
      </trkpt>
      <trkpt lat="46.94168" lon="6.37462">
        <ele>817.40002441406</ele>
        <time>2023-08-03T06:07:17.000Z</time>
      </trkpt>
      <trkpt lat="46.94209" lon="6.37517">
        <ele>817.59997558594</ele>
        <time>2023-08-03T06:07:25.000Z</time>
      </trkpt>
      <trkpt lat="46.94221" lon="6.37531">
        <ele>817.59997558594</ele>
        <time>2023-08-03T06:07:27.000Z</time>
      </trkpt>
      <trkpt lat="46.94262" lon="6.37585">
        <ele>817.40002441406</ele>
        <time>2023-08-03T06:07:35.000Z</time>
      </trkpt>
      <trkpt lat="46.94266" lon="6.37591">
        <ele>817.40002441406</ele>
        <time>2023-08-03T06:07:36.000Z</time>
      </trkpt>
      <trkpt lat="46.94307" lon="6.37649">
        <ele>817.20001220703</ele>
        <time>2023-08-03T06:07:44.000Z</time>
      </trkpt>
      <trkpt lat="46.94342" lon="6.3771">
        <ele>817</ele>
        <time>2023-08-03T06:07:52.000Z</time>
      </trkpt>
      <trkpt lat="46.94355" lon="6.37734">
        <ele>817.20001220703</ele>
        <time>2023-08-03T06:07:55.000Z</time>
      </trkpt>
      <trkpt lat="46.94388" lon="6.37782">
        <ele>817.20001220703</ele>
        <time>2023-08-03T06:08:02.000Z</time>
      </trkpt>
      <trkpt lat="46.94426" lon="6.3783">
        <ele>817.40002441406</ele>
        <time>2023-08-03T06:08:09.000Z</time>
      </trkpt>
      <trkpt lat="46.94468" lon="6.37881">
        <ele>817.40002441406</ele>
        <time>2023-08-03T06:08:17.000Z</time>
      </trkpt>
      <trkpt lat="46.94473" lon="6.37887">
        <ele>817.40002441406</ele>
        <time>2023-08-03T06:08:18.000Z</time>
      </trkpt>
      <trkpt lat="46.94515" lon="6.37938">
        <ele>817.20001220703</ele>
        <time>2023-08-03T06:08:26.000Z</time>
      </trkpt>
      <trkpt lat="46.94524" lon="6.37951">
        <ele>817.20001220703</ele>
        <time>2023-08-03T06:08:28.000Z</time>
      </trkpt>
      <trkpt lat="46.94557" lon="6.38001">
        <ele>817.20001220703</ele>
        <time>2023-08-03T06:08:35.000Z</time>
      </trkpt>
      <trkpt lat="46.94595" lon="6.38067">
        <ele>817.20001220703</ele>
        <time>2023-08-03T06:08:44.000Z</time>
      </trkpt>
      <trkpt lat="46.94603" lon="6.38083">
        <ele>817.20001220703</ele>
        <time>2023-08-03T06:08:46.000Z</time>
      </trkpt>
      <trkpt lat="46.94635" lon="6.38155">
        <ele>817.20001220703</ele>
        <time>2023-08-03T06:08:55.000Z</time>
      </trkpt>
      <trkpt lat="46.94638" lon="6.38163">
        <ele>817.20001220703</ele>
        <time>2023-08-03T06:08:56.000Z</time>
      </trkpt>
      <trkpt lat="46.94669" lon="6.38236">
        <ele>817.40002441406</ele>
        <time>2023-08-03T06:09:05.000Z</time>
      </trkpt>
      <trkpt lat="46.94699" lon="6.38296">
        <ele>817.59997558594</ele>
        <time>2023-08-03T06:09:13.000Z</time>
      </trkpt>
      <trkpt lat="46.94738" lon="6.38349">
        <ele>817.79998779297</ele>
        <time>2023-08-03T06:09:21.000Z</time>
      </trkpt>
      <trkpt lat="46.9478" lon="6.3839">
        <ele>817.59997558594</ele>
        <time>2023-08-03T06:09:29.000Z</time>
      </trkpt>
      <trkpt lat="46.94827" lon="6.38432">
        <ele>817.59997558594</ele>
        <time>2023-08-03T06:09:37.000Z</time>
      </trkpt>
      <trkpt lat="46.94839" lon="6.38441">
        <ele>817.79998779297</ele>
        <time>2023-08-03T06:09:39.000Z</time>
      </trkpt>
      <trkpt lat="46.94883" lon="6.3848">
        <ele>817.79998779297</ele>
        <time>2023-08-03T06:09:47.000Z</time>
      </trkpt>
      <trkpt lat="46.94926" lon="6.38529">
        <ele>817.59997558594</ele>
        <time>2023-08-03T06:09:55.000Z</time>
      </trkpt>
      <trkpt lat="46.94951" lon="6.38565">
        <ele>817.59997558594</ele>
        <time>2023-08-03T06:10:00.000Z</time>
      </trkpt>
      <trkpt lat="46.94954" lon="6.38572">
        <ele>817.79998779297</ele>
        <time>2023-08-03T06:10:01.000Z</time>
      </trkpt>
      <trkpt lat="46.94981" lon="6.38625">
        <ele>817.59997558594</ele>
        <time>2023-08-03T06:10:08.000Z</time>
      </trkpt>
      <trkpt lat="46.94996" lon="6.38656">
        <ele>817.59997558594</ele>
        <time>2023-08-03T06:10:12.000Z</time>
      </trkpt>
      <trkpt lat="46.95006" lon="6.38668">
        <ele>817.59997558594</ele>
        <time>2023-08-03T06:10:14.000Z</time>
      </trkpt>
      <trkpt lat="46.95011" lon="6.38674">
        <ele>817.59997558594</ele>
        <time>2023-08-03T06:10:15.000Z</time>
      </trkpt>
      <trkpt lat="46.95019" lon="6.38689">
        <ele>817.59997558594</ele>
        <time>2023-08-03T06:10:17.000Z</time>
      </trkpt>
      <trkpt lat="46.95046" lon="6.38766">
        <ele>817.59997558594</ele>
        <time>2023-08-03T06:10:26.000Z</time>
      </trkpt>
      <trkpt lat="46.95069" lon="6.38845">
        <ele>817.40002441406</ele>
        <time>2023-08-03T06:10:35.000Z</time>
      </trkpt>
      <trkpt lat="46.95096" lon="6.38922">
        <ele>817.40002441406</ele>
        <time>2023-08-03T06:10:44.000Z</time>
      </trkpt>
      <trkpt lat="46.95099" lon="6.3893">
        <ele>817.40002441406</ele>
        <time>2023-08-03T06:10:45.000Z</time>
      </trkpt>
      <trkpt lat="46.95121" lon="6.38989">
        <ele>817.40002441406</ele>
        <time>2023-08-03T06:10:52.000Z</time>
      </trkpt>
      <trkpt lat="46.95157" lon="6.39059">
        <ele>817.59997558594</ele>
        <time>2023-08-03T06:11:01.000Z</time>
      </trkpt>
      <trkpt lat="46.95192" lon="6.39121">
        <ele>817.59997558594</ele>
        <time>2023-08-03T06:11:09.000Z</time>
      </trkpt>
      <trkpt lat="46.95202" lon="6.39138">
        <ele>817.59997558594</ele>
        <time>2023-08-03T06:11:11.000Z</time>
      </trkpt>
      <trkpt lat="46.95235" lon="6.39212">
        <ele>817.79998779297</ele>
        <time>2023-08-03T06:11:20.000Z</time>
      </trkpt>
      <trkpt lat="46.95259" lon="6.39282">
        <ele>818</ele>
        <time>2023-08-03T06:11:28.000Z</time>
      </trkpt>
      <trkpt lat="46.95276" lon="6.39358">
        <ele>818.20001220703</ele>
        <time>2023-08-03T06:11:36.000Z</time>
      </trkpt>
      <trkpt lat="46.95278" lon="6.39369">
        <ele>818.20001220703</ele>
        <time>2023-08-03T06:11:37.000Z</time>
      </trkpt>
      <trkpt lat="46.95292" lon="6.39449">
        <ele>818</ele>
        <time>2023-08-03T06:11:45.000Z</time>
      </trkpt>
      <trkpt lat="46.95295" lon="6.39469">
        <ele>818</ele>
        <time>2023-08-03T06:11:47.000Z</time>
      </trkpt>
      <trkpt lat="46.95309" lon="6.39547">
        <ele>818</ele>
        <time>2023-08-03T06:11:55.000Z</time>
      </trkpt>
      <trkpt lat="46.95311" lon="6.39557">
        <ele>818</ele>
        <time>2023-08-03T06:11:56.000Z</time>
      </trkpt>
      <trkpt lat="46.95329" lon="6.39624">
        <ele>818.20001220703</ele>
        <time>2023-08-03T06:12:03.000Z</time>
      </trkpt>
      <trkpt lat="46.95356" lon="6.39699">
        <ele>818</ele>
        <time>2023-08-03T06:12:12.000Z</time>
      </trkpt>
      <trkpt lat="46.95359" lon="6.39707">
        <ele>818</ele>
        <time>2023-08-03T06:12:13.000Z</time>
      </trkpt>
      <trkpt lat="46.95388" lon="6.39775">
        <ele>818</ele>
        <time>2023-08-03T06:12:22.000Z</time>
      </trkpt>
      <trkpt lat="46.95419" lon="6.39845">
        <ele>818.20001220703</ele>
        <time>2023-08-03T06:12:31.000Z</time>
      </trkpt>
      <trkpt lat="46.95422" lon="6.39852">
        <ele>818.20001220703</ele>
        <time>2023-08-03T06:12:32.000Z</time>
      </trkpt>
      <trkpt lat="46.95454" lon="6.39923">
        <ele>818.20001220703</ele>
        <time>2023-08-03T06:12:41.000Z</time>
      </trkpt>
      <trkpt lat="46.95464" lon="6.39947">
        <ele>818.20001220703</ele>
        <time>2023-08-03T06:12:44.000Z</time>
      </trkpt>
      <trkpt lat="46.95492" lon="6.40012">
        <ele>818.40002441406</ele>
        <time>2023-08-03T06:12:52.000Z</time>
      </trkpt>
      <trkpt lat="46.95521" lon="6.40079">
        <ele>818.59997558594</ele>
        <time>2023-08-03T06:13:00.000Z</time>
      </trkpt>
      <trkpt lat="46.95528" lon="6.40096">
        <ele>818.59997558594</ele>
        <time>2023-08-03T06:13:02.000Z</time>
      </trkpt>
      <trkpt lat="46.95557" lon="6.40163">
        <ele>818.59997558594</ele>
        <time>2023-08-03T06:13:10.000Z</time>
      </trkpt>
      <trkpt lat="46.95577" lon="6.40203">
        <ele>818.59997558594</ele>
        <time>2023-08-03T06:13:15.000Z</time>
      </trkpt>
      <trkpt lat="46.95613" lon="6.40264">
        <ele>818.79998779297</ele>
        <time>2023-08-03T06:13:23.000Z</time>
      </trkpt>
      <trkpt lat="46.95622" lon="6.40278">
        <ele>818.79998779297</ele>
        <time>2023-08-03T06:13:25.000Z</time>
      </trkpt>
      <trkpt lat="46.95641" lon="6.40304">
        <ele>819</ele>
        <time>2023-08-03T06:13:29.000Z</time>
      </trkpt>
      <trkpt lat="46.95652" lon="6.4032">
        <ele>819</ele>
        <time>2023-08-03T06:13:31.000Z</time>
      </trkpt>
      <trkpt lat="46.95694" lon="6.40381">
        <ele>819.20001220703</ele>
        <time>2023-08-03T06:13:40.000Z</time>
      </trkpt>
      <trkpt lat="46.95708" lon="6.40401">
        <ele>819.20001220703</ele>
        <time>2023-08-03T06:13:43.000Z</time>
      </trkpt>
      <trkpt lat="46.95743" lon="6.40451">
        <ele>819.40002441406</ele>
        <time>2023-08-03T06:13:50.000Z</time>
      </trkpt>
      <trkpt lat="46.95751" lon="6.40466">
        <ele>819.59997558594</ele>
        <time>2023-08-03T06:13:52.000Z</time>
      </trkpt>
      <trkpt lat="46.95777" lon="6.40508">
        <ele>819.59997558594</ele>
        <time>2023-08-03T06:13:58.000Z</time>
      </trkpt>
      <trkpt lat="46.95802" lon="6.40553">
        <ele>819.59997558594</ele>
        <time>2023-08-03T06:14:04.000Z</time>
      </trkpt>
      <trkpt lat="46.95828" lon="6.40599">
        <ele>819.79998779297</ele>
        <time>2023-08-03T06:14:10.000Z</time>
      </trkpt>
      <trkpt lat="46.9584" lon="6.40622">
        <ele>820.20001220703</ele>
        <time>2023-08-03T06:14:13.000Z</time>
      </trkpt>
      <trkpt lat="46.95849" lon="6.40638">
        <ele>820.20001220703</ele>
        <time>2023-08-03T06:14:15.000Z</time>
      </trkpt>
      <trkpt lat="46.95881" lon="6.40697">
        <ele>820.40002441406</ele>
        <time>2023-08-03T06:14:23.000Z</time>
      </trkpt>
      <trkpt lat="46.95908" lon="6.40738">
        <ele>820.40002441406</ele>
        <time>2023-08-03T06:14:29.000Z</time>
      </trkpt>
      <trkpt lat="46.95914" lon="6.40745">
        <ele>820.40002441406</ele>
        <time>2023-08-03T06:14:30.000Z</time>
      </trkpt>
      <trkpt lat="46.95951" lon="6.40787">
        <ele>820.40002441406</ele>
        <time>2023-08-03T06:14:37.000Z</time>
      </trkpt>
      <trkpt lat="46.95998" lon="6.40841">
        <ele>820.40002441406</ele>
        <time>2023-08-03T06:14:46.000Z</time>
      </trkpt>
      <trkpt lat="46.9604" lon="6.40899">
        <ele>820.79998779297</ele>
        <time>2023-08-03T06:14:55.000Z</time>
      </trkpt>
      <trkpt lat="46.96043" lon="6.40905">
        <ele>820.79998779297</ele>
        <time>2023-08-03T06:14:56.000Z</time>
      </trkpt>
      <trkpt lat="46.9608" lon="6.40966">
        <ele>820.79998779297</ele>
        <time>2023-08-03T06:15:04.000Z</time>
      </trkpt>
      <trkpt lat="46.96116" lon="6.41023">
        <ele>820.59997558594</ele>
        <time>2023-08-03T06:15:12.000Z</time>
      </trkpt>
      <trkpt lat="46.96155" lon="6.41074">
        <ele>820.79998779297</ele>
        <time>2023-08-03T06:15:20.000Z</time>
      </trkpt>
      <trkpt lat="46.96197" lon="6.41125">
        <ele>820.79998779297</ele>
        <time>2023-08-03T06:15:28.000Z</time>
      </trkpt>
      <trkpt lat="46.96239" lon="6.41176">
        <ele>820.59997558594</ele>
        <time>2023-08-03T06:15:36.000Z</time>
      </trkpt>
      <trkpt lat="46.96244" lon="6.41183">
        <ele>820.59997558594</ele>
        <time>2023-08-03T06:15:37.000Z</time>
      </trkpt>
      <trkpt lat="46.96268" lon="6.41214">
        <ele>820.59997558594</ele>
        <time>2023-08-03T06:15:42.000Z</time>
      </trkpt>
      <trkpt lat="46.96298" lon="6.41255">
        <ele>820.59997558594</ele>
        <time>2023-08-03T06:15:48.000Z</time>
      </trkpt>
      <trkpt lat="46.96335" lon="6.41314">
        <ele>820.59997558594</ele>
        <time>2023-08-03T06:15:56.000Z</time>
      </trkpt>
      <trkpt lat="46.96373" lon="6.41373">
        <ele>820.40002441406</ele>
        <time>2023-08-03T06:16:04.000Z</time>
      </trkpt>
      <trkpt lat="46.96377" lon="6.41381">
        <ele>820.40002441406</ele>
        <time>2023-08-03T06:16:05.000Z</time>
      </trkpt>
      <trkpt lat="46.96403" lon="6.41427">
        <ele>820.20001220703</ele>
        <time>2023-08-03T06:16:11.000Z</time>
      </trkpt>
      <trkpt lat="46.96419" lon="6.41459">
        <ele>820.20001220703</ele>
        <time>2023-08-03T06:16:15.000Z</time>
      </trkpt>
      <trkpt lat="46.96427" lon="6.41472">
        <ele>820.20001220703</ele>
        <time>2023-08-03T06:16:17.000Z</time>
      </trkpt>
      <trkpt lat="46.96457" lon="6.41523">
        <ele>820</ele>
        <time>2023-08-03T06:16:25.000Z</time>
      </trkpt>
      <trkpt lat="46.96475" lon="6.41548">
        <ele>820</ele>
        <time>2023-08-03T06:16:30.000Z</time>
      </trkpt>
      <trkpt lat="46.96479" lon="6.41552">
        <ele>819.79998779297</ele>
        <time>2023-08-03T06:16:31.000Z</time>
      </trkpt>
      <trkpt lat="46.96484" lon="6.41555">
        <ele>819.59997558594</ele>
        <time>2023-08-03T06:16:32.000Z</time>
      </trkpt>
      <trkpt lat="46.96493" lon="6.4156">
        <ele>819.20001220703</ele>
        <time>2023-08-03T06:16:34.000Z</time>
      </trkpt>
      <trkpt lat="46.96496" lon="6.41563">
        <ele>819.20001220703</ele>
        <time>2023-08-03T06:16:35.000Z</time>
      </trkpt>
      <trkpt lat="46.965" lon="6.41568">
        <ele>819</ele>
        <time>2023-08-03T06:16:36.000Z</time>
      </trkpt>
      <trkpt lat="46.96502" lon="6.41574">
        <ele>818.59997558594</ele>
        <time>2023-08-03T06:16:37.000Z</time>
      </trkpt>
      <trkpt lat="46.96504" lon="6.41588">
        <ele>818.20001220703</ele>
        <time>2023-08-03T06:16:39.000Z</time>
      </trkpt>
      <trkpt lat="46.96506" lon="6.41594">
        <ele>818</ele>
        <time>2023-08-03T06:16:40.000Z</time>
      </trkpt>
      <trkpt lat="46.96512" lon="6.41604">
        <ele>817.40002441406</ele>
        <time>2023-08-03T06:16:42.000Z</time>
      </trkpt>
      <trkpt lat="46.96514" lon="6.4161">
        <ele>817.40002441406</ele>
        <time>2023-08-03T06:16:43.000Z</time>
      </trkpt>
      <trkpt lat="46.96518" lon="6.41621">
        <ele>817</ele>
        <time>2023-08-03T06:16:45.000Z</time>
      </trkpt>
      <trkpt lat="46.96527" lon="6.41646">
        <ele>816.20001220703</ele>
        <time>2023-08-03T06:16:50.000Z</time>
      </trkpt>
      <trkpt lat="46.96529" lon="6.41651">
        <ele>816.20001220703</ele>
        <time>2023-08-03T06:16:51.000Z</time>
      </trkpt>
      <trkpt lat="46.96532" lon="6.41662">
        <ele>816</ele>
        <time>2023-08-03T06:16:53.000Z</time>
      </trkpt>
      <trkpt lat="46.96538" lon="6.41684">
        <ele>815.59997558594</ele>
        <time>2023-08-03T06:16:57.000Z</time>
      </trkpt>
      <trkpt lat="46.96544" lon="6.41715">
        <ele>815.20001220703</ele>
        <time>2023-08-03T06:17:02.000Z</time>
      </trkpt>
      <trkpt lat="46.96548" lon="6.41728">
        <ele>814.79998779297</ele>
        <time>2023-08-03T06:17:04.000Z</time>
      </trkpt>
      <trkpt lat="46.96555" lon="6.41753">
        <ele>813.79998779297</ele>
        <time>2023-08-03T06:17:09.000Z</time>
      </trkpt>
      <trkpt lat="46.96557" lon="6.4176">
        <ele>813.59997558594</ele>
        <time>2023-08-03T06:17:11.000Z</time>
      </trkpt>
      <trkpt lat="46.96562" lon="6.41786">
        <ele>812.79998779297</ele>
        <time>2023-08-03T06:17:16.000Z</time>
      </trkpt>
      <trkpt lat="46.96563" lon="6.41795">
        <ele>812.59997558594</ele>
        <time>2023-08-03T06:17:17.000Z</time>
      </trkpt>
      <trkpt lat="46.96565" lon="6.4182">
        <ele>812.20001220703</ele>
        <time>2023-08-03T06:17:20.000Z</time>
      </trkpt>
      <trkpt lat="46.96568" lon="6.41852">
        <ele>811.40002441406</ele>
        <time>2023-08-03T06:17:23.000Z</time>
      </trkpt>
      <trkpt lat="46.96569" lon="6.41873">
        <ele>811</ele>
        <time>2023-08-03T06:17:25.000Z</time>
      </trkpt>
      <trkpt lat="46.96568" lon="6.41922">
        <ele>810.40002441406</ele>
        <time>2023-08-03T06:17:30.000Z</time>
      </trkpt>
      <trkpt lat="46.96567" lon="6.41951">
        <ele>810</ele>
        <time>2023-08-03T06:17:33.000Z</time>
      </trkpt>
      <trkpt lat="46.96564" lon="6.42021">
        <ele>810.20001220703</ele>
        <time>2023-08-03T06:17:41.000Z</time>
      </trkpt>
      <trkpt lat="46.96564" lon="6.42102">
        <ele>810.79998779297</ele>
        <time>2023-08-03T06:17:50.000Z</time>
      </trkpt>
      <trkpt lat="46.96571" lon="6.42165">
        <ele>811.20001220703</ele>
        <time>2023-08-03T06:17:57.000Z</time>
      </trkpt>
      <trkpt lat="46.96583" lon="6.42218">
        <ele>811.59997558594</ele>
        <time>2023-08-03T06:18:03.000Z</time>
      </trkpt>
      <trkpt lat="46.96585" lon="6.42226">
        <ele>811.59997558594</ele>
        <time>2023-08-03T06:18:04.000Z</time>
      </trkpt>
      <trkpt lat="46.96587" lon="6.42233">
        <ele>811.59997558594</ele>
        <time>2023-08-03T06:18:05.000Z</time>
      </trkpt>
      <trkpt lat="46.96592" lon="6.42255">
        <ele>811.79998779297</ele>
        <time>2023-08-03T06:18:09.000Z</time>
      </trkpt>
      <trkpt lat="46.96594" lon="6.42267">
        <ele>812</ele>
        <time>2023-08-03T06:18:13.000Z</time>
      </trkpt>
      <trkpt lat="46.966" lon="6.42286">
        <ele>812.40002441406</ele>
        <time>2023-08-03T06:18:18.000Z</time>
      </trkpt>
      <trkpt lat="46.96605" lon="6.42301">
        <ele>812.59997558594</ele>
        <time>2023-08-03T06:18:21.000Z</time>
      </trkpt>
      <trkpt lat="46.96609" lon="6.42314">
        <ele>812.59997558594</ele>
        <time>2023-08-03T06:18:23.000Z</time>
      </trkpt>
      <trkpt lat="46.96613" lon="6.42328">
        <ele>812.79998779297</ele>
        <time>2023-08-03T06:18:25.000Z</time>
      </trkpt>
      <trkpt lat="46.96622" lon="6.42351">
        <ele>812.79998779297</ele>
        <time>2023-08-03T06:18:28.000Z</time>
      </trkpt>
      <trkpt lat="46.96632" lon="6.42373">
        <ele>812.79998779297</ele>
        <time>2023-08-03T06:18:31.000Z</time>
      </trkpt>
      <trkpt lat="46.96639" lon="6.42386">
        <ele>812.79998779297</ele>
        <time>2023-08-03T06:18:33.000Z</time>
      </trkpt>
      <trkpt lat="46.96669" lon="6.4243">
        <ele>813</ele>
        <time>2023-08-03T06:18:40.000Z</time>
      </trkpt>
      <trkpt lat="46.967" lon="6.42476">
        <ele>811</ele>
        <time>2023-08-03T06:18:47.000Z</time>
      </trkpt>
      <trkpt lat="46.96708" lon="6.42489">
        <ele>810.59997558594</ele>
        <time>2023-08-03T06:18:49.000Z</time>
      </trkpt>
      <trkpt lat="46.96749" lon="6.4255">
        <ele>810.20001220703</ele>
        <time>2023-08-03T06:18:58.000Z</time>
      </trkpt>
      <trkpt lat="46.96757" lon="6.42564">
        <ele>810.20001220703</ele>
        <time>2023-08-03T06:19:00.000Z</time>
      </trkpt>
      <trkpt lat="46.96797" lon="6.42618">
        <ele>810</ele>
        <time>2023-08-03T06:19:08.000Z</time>
      </trkpt>
      <trkpt lat="46.96802" lon="6.42623">
        <ele>810</ele>
        <time>2023-08-03T06:19:09.000Z</time>
      </trkpt>
      <trkpt lat="46.96818" lon="6.42642">
        <ele>810</ele>
        <time>2023-08-03T06:19:12.000Z</time>
      </trkpt>
      <trkpt lat="46.96863" lon="6.42696">
        <ele>810</ele>
        <time>2023-08-03T06:19:21.000Z</time>
      </trkpt>
      <trkpt lat="46.96868" lon="6.42702">
        <ele>810</ele>
        <time>2023-08-03T06:19:22.000Z</time>
      </trkpt>
      <trkpt lat="46.96915" lon="6.42759">
        <ele>810.20001220703</ele>
        <time>2023-08-03T06:19:31.000Z</time>
      </trkpt>
      <trkpt lat="46.9693" lon="6.42779">
        <ele>810.20001220703</ele>
        <time>2023-08-03T06:19:34.000Z</time>
      </trkpt>
      <trkpt lat="46.96972" lon="6.42842">
        <ele>809.79998779297</ele>
        <time>2023-08-03T06:19:43.000Z</time>
      </trkpt>
      <trkpt lat="46.96976" lon="6.42849">
        <ele>809.79998779297</ele>
        <time>2023-08-03T06:19:44.000Z</time>
      </trkpt>
      <trkpt lat="46.97003" lon="6.42891">
        <ele>810.20001220703</ele>
        <time>2023-08-03T06:19:50.000Z</time>
      </trkpt>
      <trkpt lat="46.97031" lon="6.42939">
        <ele>810.59997558594</ele>
        <time>2023-08-03T06:19:57.000Z</time>
      </trkpt>
      <trkpt lat="46.97051" lon="6.42971">
        <ele>810.40002441406</ele>
        <time>2023-08-03T06:20:02.000Z</time>
      </trkpt>
      <trkpt lat="46.97063" lon="6.42991">
        <ele>810.59997558594</ele>
        <time>2023-08-03T06:20:05.000Z</time>
      </trkpt>
      <trkpt lat="46.97076" lon="6.4301">
        <ele>810.79998779297</ele>
        <time>2023-08-03T06:20:08.000Z</time>
      </trkpt>
      <trkpt lat="46.97101" lon="6.43044">
        <ele>811</ele>
        <time>2023-08-03T06:20:13.000Z</time>
      </trkpt>
      <trkpt lat="46.9711" lon="6.43057">
        <ele>811.20001220703</ele>
        <time>2023-08-03T06:20:15.000Z</time>
      </trkpt>
      <trkpt lat="46.97115" lon="6.43063">
        <ele>811.20001220703</ele>
        <time>2023-08-03T06:20:16.000Z</time>
      </trkpt>
      <trkpt lat="46.97124" lon="6.43074">
        <ele>811.40002441406</ele>
        <time>2023-08-03T06:20:18.000Z</time>
      </trkpt>
      <trkpt lat="46.97133" lon="6.43087">
        <ele>811.59997558594</ele>
        <time>2023-08-03T06:20:20.000Z</time>
      </trkpt>
      <trkpt lat="46.97161" lon="6.43123">
        <ele>811.79998779297</ele>
        <time>2023-08-03T06:20:26.000Z</time>
      </trkpt>
      <trkpt lat="46.97181" lon="6.43146">
        <ele>812.20001220703</ele>
        <time>2023-08-03T06:20:30.000Z</time>
      </trkpt>
      <trkpt lat="46.9721" lon="6.43177">
        <ele>812.40002441406</ele>
        <time>2023-08-03T06:20:36.000Z</time>
      </trkpt>
      <trkpt lat="46.97244" lon="6.43215">
        <ele>813</ele>
        <time>2023-08-03T06:20:43.000Z</time>
      </trkpt>
      <trkpt lat="46.97264" lon="6.43236">
        <ele>813.20001220703</ele>
        <time>2023-08-03T06:20:47.000Z</time>
      </trkpt>
      <trkpt lat="46.97284" lon="6.43256">
        <ele>813.40002441406</ele>
        <time>2023-08-03T06:20:51.000Z</time>
      </trkpt>
      <trkpt lat="46.97331" lon="6.43299">
        <ele>814</ele>
        <time>2023-08-03T06:21:00.000Z</time>
      </trkpt>
      <trkpt lat="46.97347" lon="6.43313">
        <ele>814</ele>
        <time>2023-08-03T06:21:03.000Z</time>
      </trkpt>
      <trkpt lat="46.97357" lon="6.43322">
        <ele>814.20001220703</ele>
        <time>2023-08-03T06:21:05.000Z</time>
      </trkpt>
      <trkpt lat="46.97394" lon="6.43354">
        <ele>814.59997558594</ele>
        <time>2023-08-03T06:21:12.000Z</time>
      </trkpt>
      <trkpt lat="46.9744" lon="6.43398">
        <ele>815.20001220703</ele>
        <time>2023-08-03T06:21:21.000Z</time>
      </trkpt>
      <trkpt lat="46.97449" lon="6.43409">
        <ele>815.20001220703</ele>
        <time>2023-08-03T06:21:23.000Z</time>
      </trkpt>
      <trkpt lat="46.97454" lon="6.43415">
        <ele>815.40002441406</ele>
        <time>2023-08-03T06:21:24.000Z</time>
      </trkpt>
      <trkpt lat="46.97481" lon="6.43449">
        <ele>815.79998779297</ele>
        <time>2023-08-03T06:21:30.000Z</time>
      </trkpt>
      <trkpt lat="46.97516" lon="6.43499">
        <ele>816.20001220703</ele>
        <time>2023-08-03T06:21:38.000Z</time>
      </trkpt>
      <trkpt lat="46.9752" lon="6.43504">
        <ele>816.40002441406</ele>
        <time>2023-08-03T06:21:39.000Z</time>
      </trkpt>
      <trkpt lat="46.97525" lon="6.4351">
        <ele>816.59997558594</ele>
        <time>2023-08-03T06:21:40.000Z</time>
      </trkpt>
      <trkpt lat="46.97552" lon="6.43549">
        <ele>816.79998779297</ele>
        <time>2023-08-03T06:21:46.000Z</time>
      </trkpt>
      <trkpt lat="46.97584" lon="6.43589">
        <ele>817.20001220703</ele>
        <time>2023-08-03T06:21:53.000Z</time>
      </trkpt>
      <trkpt lat="46.97626" lon="6.43629">
        <ele>817.59997558594</ele>
        <time>2023-08-03T06:22:01.000Z</time>
      </trkpt>
      <trkpt lat="46.97679" lon="6.43656">
        <ele>818</ele>
        <time>2023-08-03T06:22:10.000Z</time>
      </trkpt>
      <trkpt lat="46.97727" lon="6.4367">
        <ele>817.79998779297</ele>
        <time>2023-08-03T06:22:18.000Z</time>
      </trkpt>
      <trkpt lat="46.97781" lon="6.43682">
        <ele>818</ele>
        <time>2023-08-03T06:22:27.000Z</time>
      </trkpt>
      <trkpt lat="46.97787" lon="6.43684">
        <ele>818</ele>
        <time>2023-08-03T06:22:28.000Z</time>
      </trkpt>
      <trkpt lat="46.97809" lon="6.43692">
        <ele>818</ele>
        <time>2023-08-03T06:22:33.000Z</time>
      </trkpt>
      <trkpt lat="46.97831" lon="6.43699">
        <ele>817.20001220703</ele>
        <time>2023-08-03T06:22:38.000Z</time>
      </trkpt>
      <trkpt lat="46.97841" lon="6.43704">
        <ele>816.40002441406</ele>
        <time>2023-08-03T06:22:40.000Z</time>
      </trkpt>
      <trkpt lat="46.97851" lon="6.43711">
        <ele>815</ele>
        <time>2023-08-03T06:22:42.000Z</time>
      </trkpt>
      <trkpt lat="46.97863" lon="6.43721">
        <ele>814</ele>
        <time>2023-08-03T06:22:45.000Z</time>
      </trkpt>
      <trkpt lat="46.97867" lon="6.43724">
        <ele>813.79998779297</ele>
        <time>2023-08-03T06:22:46.000Z</time>
      </trkpt>
      <trkpt lat="46.97887" lon="6.4374">
        <ele>815.40002441406</ele>
        <time>2023-08-03T06:22:53.000Z</time>
      </trkpt>
      <trkpt lat="46.97899" lon="6.43751">
        <ele>816.79998779297</ele>
        <time>2023-08-03T06:22:57.000Z</time>
      </trkpt>
      <trkpt lat="46.97902" lon="6.43755">
        <ele>817.20001220703</ele>
        <time>2023-08-03T06:22:58.000Z</time>
      </trkpt>
      <trkpt lat="46.97908" lon="6.43763">
        <ele>818</ele>
        <time>2023-08-03T06:23:00.000Z</time>
      </trkpt>
      <trkpt lat="46.97913" lon="6.43768">
        <ele>818</ele>
        <time>2023-08-03T06:23:01.000Z</time>
      </trkpt>
      <trkpt lat="46.9792" lon="6.43776">
        <ele>818.40002441406</ele>
        <time>2023-08-03T06:23:03.000Z</time>
      </trkpt>
      <trkpt lat="46.97923" lon="6.43782">
        <ele>818.40002441406</ele>
        <time>2023-08-03T06:23:04.000Z</time>
      </trkpt>
      <trkpt lat="46.97937" lon="6.43802">
        <ele>819</ele>
        <time>2023-08-03T06:23:08.000Z</time>
      </trkpt>
      <trkpt lat="46.97947" lon="6.43818">
        <ele>819.20001220703</ele>
        <time>2023-08-03T06:23:11.000Z</time>
      </trkpt>
      <trkpt lat="46.97988" lon="6.43878">
        <ele>819.59997558594</ele>
        <time>2023-08-03T06:23:22.000Z</time>
      </trkpt>
      <trkpt lat="46.97991" lon="6.43884">
        <ele>819.59997558594</ele>
        <time>2023-08-03T06:23:23.000Z</time>
      </trkpt>
      <trkpt lat="46.98014" lon="6.43918">
        <ele>820</ele>
        <time>2023-08-03T06:23:29.000Z</time>
      </trkpt>
      <trkpt lat="46.98022" lon="6.4393">
        <ele>820.20001220703</ele>
        <time>2023-08-03T06:23:31.000Z</time>
      </trkpt>
      <trkpt lat="46.98053" lon="6.43977">
        <ele>820.79998779297</ele>
        <time>2023-08-03T06:23:39.000Z</time>
      </trkpt>
      <trkpt lat="46.98073" lon="6.44007">
        <ele>821.20001220703</ele>
        <time>2023-08-03T06:23:44.000Z</time>
      </trkpt>
      <trkpt lat="46.98097" lon="6.44041">
        <ele>821.59997558594</ele>
        <time>2023-08-03T06:23:50.000Z</time>
      </trkpt>
      <trkpt lat="46.98132" lon="6.44097">
        <ele>822.20001220703</ele>
        <time>2023-08-03T06:23:59.000Z</time>
      </trkpt>
      <trkpt lat="46.98135" lon="6.44103">
        <ele>822.20001220703</ele>
        <time>2023-08-03T06:24:00.000Z</time>
      </trkpt>
      <trkpt lat="46.98154" lon="6.44146">
        <ele>822.59997558594</ele>
        <time>2023-08-03T06:24:06.000Z</time>
      </trkpt>
      <trkpt lat="46.98175" lon="6.44206">
        <ele>823</ele>
        <time>2023-08-03T06:24:14.000Z</time>
      </trkpt>
      <trkpt lat="46.98184" lon="6.44246">
        <ele>823.20001220703</ele>
        <time>2023-08-03T06:24:19.000Z</time>
      </trkpt>
      <trkpt lat="46.98188" lon="6.4427">
        <ele>823.40002441406</ele>
        <time>2023-08-03T06:24:22.000Z</time>
      </trkpt>
      <trkpt lat="46.98198" lon="6.44342">
        <ele>824</ele>
        <time>2023-08-03T06:24:31.000Z</time>
      </trkpt>
      <trkpt lat="46.98203" lon="6.44375">
        <ele>824.20001220703</ele>
        <time>2023-08-03T06:24:35.000Z</time>
      </trkpt>
      <trkpt lat="46.98214" lon="6.44452">
        <ele>824.79998779297</ele>
        <time>2023-08-03T06:24:44.000Z</time>
      </trkpt>
      <trkpt lat="46.9822" lon="6.44494">
        <ele>825.40002441406</ele>
        <time>2023-08-03T06:24:49.000Z</time>
      </trkpt>
      <trkpt lat="46.98225" lon="6.44527">
        <ele>825.79998779297</ele>
        <time>2023-08-03T06:24:53.000Z</time>
      </trkpt>
      <trkpt lat="46.98232" lon="6.44576">
        <ele>826.40002441406</ele>
        <time>2023-08-03T06:24:59.000Z</time>
      </trkpt>
      <trkpt lat="46.98237" lon="6.44609">
        <ele>826.79998779297</ele>
        <time>2023-08-03T06:25:03.000Z</time>
      </trkpt>
      <trkpt lat="46.98248" lon="6.44667">
        <ele>827.40002441406</ele>
        <time>2023-08-03T06:25:10.000Z</time>
      </trkpt>
      <trkpt lat="46.98252" lon="6.44683">
        <ele>827.59997558594</ele>
        <time>2023-08-03T06:25:12.000Z</time>
      </trkpt>
      <trkpt lat="46.98263" lon="6.44714">
        <ele>827.79998779297</ele>
        <time>2023-08-03T06:25:16.000Z</time>
      </trkpt>
      <trkpt lat="46.98269" lon="6.44729">
        <ele>828</ele>
        <time>2023-08-03T06:25:18.000Z</time>
      </trkpt>
      <trkpt lat="46.98272" lon="6.44736">
        <ele>828.20001220703</ele>
        <time>2023-08-03T06:25:19.000Z</time>
      </trkpt>
      <trkpt lat="46.98282" lon="6.44758">
        <ele>828.40002441406</ele>
        <time>2023-08-03T06:25:22.000Z</time>
      </trkpt>
      <trkpt lat="46.98288" lon="6.44771">
        <ele>828.79998779297</ele>
        <time>2023-08-03T06:25:24.000Z</time>
      </trkpt>
      <trkpt lat="46.98323" lon="6.44825">
        <ele>829.40002441406</ele>
        <time>2023-08-03T06:25:33.000Z</time>
      </trkpt>
      <trkpt lat="46.98332" lon="6.44835">
        <ele>829.59997558594</ele>
        <time>2023-08-03T06:25:35.000Z</time>
      </trkpt>
      <trkpt lat="46.98367" lon="6.44871">
        <ele>829.79998779297</ele>
        <time>2023-08-03T06:25:42.000Z</time>
      </trkpt>
      <trkpt lat="46.98411" lon="6.44901">
        <ele>829.79998779297</ele>
        <time>2023-08-03T06:25:50.000Z</time>
      </trkpt>
      <trkpt lat="46.98457" lon="6.44918">
        <ele>830.20001220703</ele>
        <time>2023-08-03T06:25:58.000Z</time>
      </trkpt>
      <trkpt lat="46.98487" lon="6.44923">
        <ele>830.59997558594</ele>
        <time>2023-08-03T06:26:03.000Z</time>
      </trkpt>
      <trkpt lat="46.98511" lon="6.44923">
        <ele>831</ele>
        <time>2023-08-03T06:26:07.000Z</time>
      </trkpt>
      <trkpt lat="46.9857" lon="6.44914">
        <ele>831.20001220703</ele>
        <time>2023-08-03T06:26:17.000Z</time>
      </trkpt>
      <trkpt lat="46.98582" lon="6.44911">
        <ele>831.20001220703</ele>
        <time>2023-08-03T06:26:19.000Z</time>
      </trkpt>
      <trkpt lat="46.98617" lon="6.44905">
        <ele>831.79998779297</ele>
        <time>2023-08-03T06:26:25.000Z</time>
      </trkpt>
      <trkpt lat="46.98634" lon="6.44905">
        <ele>831.79998779297</ele>
        <time>2023-08-03T06:26:28.000Z</time>
      </trkpt>
      <trkpt lat="46.9868" lon="6.4491">
        <ele>831.79998779297</ele>
        <time>2023-08-03T06:26:36.000Z</time>
      </trkpt>
      <trkpt lat="46.9872" lon="6.44925">
        <ele>832</ele>
        <time>2023-08-03T06:26:43.000Z</time>
      </trkpt>
      <trkpt lat="46.9877" lon="6.44957">
        <ele>832.20001220703</ele>
        <time>2023-08-03T06:26:52.000Z</time>
      </trkpt>
      <trkpt lat="46.98812" lon="6.44993">
        <ele>832.20001220703</ele>
        <time>2023-08-03T06:27:00.000Z</time>
      </trkpt>
      <trkpt lat="46.98847" lon="6.45023">
        <ele>832.79998779297</ele>
        <time>2023-08-03T06:27:07.000Z</time>
      </trkpt>
      <trkpt lat="46.98897" lon="6.45064">
        <ele>833.79998779297</ele>
        <time>2023-08-03T06:27:16.000Z</time>
      </trkpt>
      <trkpt lat="46.98902" lon="6.45069">
        <ele>833.79998779297</ele>
        <time>2023-08-03T06:27:17.000Z</time>
      </trkpt>
      <trkpt lat="46.98951" lon="6.45109">
        <ele>834</ele>
        <time>2023-08-03T06:27:26.000Z</time>
      </trkpt>
      <trkpt lat="46.98997" lon="6.45148">
        <ele>834</ele>
        <time>2023-08-03T06:27:35.000Z</time>
      </trkpt>
      <trkpt lat="46.99036" lon="6.45181">
        <ele>834.40002441406</ele>
        <time>2023-08-03T06:27:43.000Z</time>
      </trkpt>
      <trkpt lat="46.9904" lon="6.45185">
        <ele>834.59997558594</ele>
        <time>2023-08-03T06:27:44.000Z</time>
      </trkpt>
      <trkpt lat="46.99063" lon="6.45203">
        <ele>834.79998779297</ele>
        <time>2023-08-03T06:27:49.000Z</time>
      </trkpt>
      <trkpt lat="46.99072" lon="6.4521">
        <ele>834.79998779297</ele>
        <time>2023-08-03T06:27:51.000Z</time>
      </trkpt>
      <trkpt lat="46.99076" lon="6.45214">
        <ele>834.79998779297</ele>
        <time>2023-08-03T06:27:52.000Z</time>
      </trkpt>
      <trkpt lat="46.99092" lon="6.45226">
        <ele>835</ele>
        <time>2023-08-03T06:27:55.000Z</time>
      </trkpt>
      <trkpt lat="46.99123" lon="6.45253">
        <ele>835.79998779297</ele>
        <time>2023-08-03T06:28:01.000Z</time>
      </trkpt>
      <trkpt lat="46.9913" lon="6.45258">
        <ele>835.79998779297</ele>
        <time>2023-08-03T06:28:02.000Z</time>
      </trkpt>
      <trkpt lat="46.99135" lon="6.45263">
        <ele>835.79998779297</ele>
        <time>2023-08-03T06:28:03.000Z</time>
      </trkpt>
      <trkpt lat="46.99141" lon="6.45268">
        <ele>836</ele>
        <time>2023-08-03T06:28:04.000Z</time>
      </trkpt>
      <trkpt lat="46.99147" lon="6.45273">
        <ele>836</ele>
        <time>2023-08-03T06:28:05.000Z</time>
      </trkpt>
      <trkpt lat="46.99157" lon="6.45281">
        <ele>836.20001220703</ele>
        <time>2023-08-03T06:28:07.000Z</time>
      </trkpt>
      <trkpt lat="46.99166" lon="6.45287">
        <ele>836.20001220703</ele>
        <time>2023-08-03T06:28:09.000Z</time>
      </trkpt>
      <trkpt lat="46.9918" lon="6.45297">
        <ele>836.40002441406</ele>
        <time>2023-08-03T06:28:11.000Z</time>
      </trkpt>
      <trkpt lat="46.99189" lon="6.45306">
        <ele>836.59997558594</ele>
        <time>2023-08-03T06:28:13.000Z</time>
      </trkpt>
      <trkpt lat="46.99216" lon="6.45328">
        <ele>836.59997558594</ele>
        <time>2023-08-03T06:28:18.000Z</time>
      </trkpt>
      <trkpt lat="46.99222" lon="6.45333">
        <ele>836.79998779297</ele>
        <time>2023-08-03T06:28:19.000Z</time>
      </trkpt>
      <trkpt lat="46.99228" lon="6.45335">
        <ele>836.79998779297</ele>
        <time>2023-08-03T06:28:20.000Z</time>
      </trkpt>
      <trkpt lat="46.99238" lon="6.45342">
        <ele>836.79998779297</ele>
        <time>2023-08-03T06:28:22.000Z</time>
      </trkpt>
      <trkpt lat="46.99259" lon="6.45369">
        <ele>837</ele>
        <time>2023-08-03T06:28:26.000Z</time>
      </trkpt>
      <trkpt lat="46.99266" lon="6.45382">
        <ele>837.20001220703</ele>
        <time>2023-08-03T06:28:28.000Z</time>
      </trkpt>
      <trkpt lat="46.99285" lon="6.45415">
        <ele>837.20001220703</ele>
        <time>2023-08-03T06:28:33.000Z</time>
      </trkpt>
      <trkpt lat="46.9929" lon="6.45422">
        <ele>837.20001220703</ele>
        <time>2023-08-03T06:28:34.000Z</time>
      </trkpt>
      <trkpt lat="46.99304" lon="6.45442">
        <ele>837.20001220703</ele>
        <time>2023-08-03T06:28:37.000Z</time>
      </trkpt>
      <trkpt lat="46.99314" lon="6.45457">
        <ele>837.40002441406</ele>
        <time>2023-08-03T06:28:39.000Z</time>
      </trkpt>
      <trkpt lat="46.99318" lon="6.45465">
        <ele>837.40002441406</ele>
        <time>2023-08-03T06:28:40.000Z</time>
      </trkpt>
      <trkpt lat="46.99323" lon="6.45483">
        <ele>837.40002441406</ele>
        <time>2023-08-03T06:28:42.000Z</time>
      </trkpt>
      <trkpt lat="46.99326" lon="6.45491">
        <ele>837.40002441406</ele>
        <time>2023-08-03T06:28:43.000Z</time>
      </trkpt>
      <trkpt lat="46.99329" lon="6.455">
        <ele>837.40002441406</ele>
        <time>2023-08-03T06:28:44.000Z</time>
      </trkpt>
      <trkpt lat="46.99334" lon="6.45518">
        <ele>837.59997558594</ele>
        <time>2023-08-03T06:28:46.000Z</time>
      </trkpt>
      <trkpt lat="46.99336" lon="6.45526">
        <ele>837.59997558594</ele>
        <time>2023-08-03T06:28:47.000Z</time>
      </trkpt>
      <trkpt lat="46.99343" lon="6.45548">
        <ele>837.59997558594</ele>
        <time>2023-08-03T06:28:50.000Z</time>
      </trkpt>
      <trkpt lat="46.99346" lon="6.45575">
        <ele>837.79998779297</ele>
        <time>2023-08-03T06:28:53.000Z</time>
      </trkpt>
      <trkpt lat="46.99353" lon="6.45627">
        <ele>837.79998779297</ele>
        <time>2023-08-03T06:28:59.000Z</time>
      </trkpt>
      <trkpt lat="46.99354" lon="6.45636">
        <ele>838</ele>
        <time>2023-08-03T06:29:00.000Z</time>
      </trkpt>
      <trkpt lat="46.99355" lon="6.45706">
        <ele>838.20001220703</ele>
        <time>2023-08-03T06:29:08.000Z</time>
      </trkpt>
      <trkpt lat="46.99347" lon="6.45775">
        <ele>838.40002441406</ele>
        <time>2023-08-03T06:29:16.000Z</time>
      </trkpt>
      <trkpt lat="46.99345" lon="6.45783">
        <ele>838.59997558594</ele>
        <time>2023-08-03T06:29:17.000Z</time>
      </trkpt>
      <trkpt lat="46.99336" lon="6.45842">
        <ele>838.59997558594</ele>
        <time>2023-08-03T06:29:24.000Z</time>
      </trkpt>
      <trkpt lat="46.99326" lon="6.459">
        <ele>839</ele>
        <time>2023-08-03T06:29:31.000Z</time>
      </trkpt>
      <trkpt lat="46.99324" lon="6.45918">
        <ele>839.20001220703</ele>
        <time>2023-08-03T06:29:33.000Z</time>
      </trkpt>
      <trkpt lat="46.99322" lon="6.45945">
        <ele>839.59997558594</ele>
        <time>2023-08-03T06:29:36.000Z</time>
      </trkpt>
      <trkpt lat="46.99322" lon="6.45962">
        <ele>839.79998779297</ele>
        <time>2023-08-03T06:29:38.000Z</time>
      </trkpt>
      <trkpt lat="46.99326" lon="6.46022">
        <ele>840.40002441406</ele>
        <time>2023-08-03T06:29:45.000Z</time>
      </trkpt>
      <trkpt lat="46.99329" lon="6.46046">
        <ele>840.59997558594</ele>
        <time>2023-08-03T06:29:48.000Z</time>
      </trkpt>
      <trkpt lat="46.99338" lon="6.46093">
        <ele>840.79998779297</ele>
        <time>2023-08-03T06:29:54.000Z</time>
      </trkpt>
      <trkpt lat="46.99359" lon="6.4616">
        <ele>840.79998779297</ele>
        <time>2023-08-03T06:30:03.000Z</time>
      </trkpt>
      <trkpt lat="46.99364" lon="6.46175">
        <ele>841.20001220703</ele>
        <time>2023-08-03T06:30:05.000Z</time>
      </trkpt>
      <trkpt lat="46.99372" lon="6.46195">
        <ele>841.20001220703</ele>
        <time>2023-08-03T06:30:08.000Z</time>
      </trkpt>
      <trkpt lat="46.99388" lon="6.46232">
        <ele>841</ele>
        <time>2023-08-03T06:30:14.000Z</time>
      </trkpt>
      <trkpt lat="46.99392" lon="6.46237">
        <ele>841.20001220703</ele>
        <time>2023-08-03T06:30:15.000Z</time>
      </trkpt>
      <trkpt lat="46.99398" lon="6.46252">
        <ele>841.20001220703</ele>
        <time>2023-08-03T06:30:19.000Z</time>
      </trkpt>
      <trkpt lat="46.994" lon="6.46263">
        <ele>841.20001220703</ele>
        <time>2023-08-03T06:30:22.000Z</time>
      </trkpt>
      <trkpt lat="46.99398" lon="6.46267">
        <ele>841.20001220703</ele>
        <time>2023-08-03T06:30:23.000Z</time>
      </trkpt>
      <trkpt lat="46.9939" lon="6.46297">
        <ele>841.20001220703</ele>
        <time>2023-08-03T06:30:29.000Z</time>
      </trkpt>
      <trkpt lat="46.99389" lon="6.46303">
        <ele>841.20001220703</ele>
        <time>2023-08-03T06:30:30.000Z</time>
      </trkpt>
      <trkpt lat="46.99388" lon="6.4631">
        <ele>841.20001220703</ele>
        <time>2023-08-03T06:30:31.000Z</time>
      </trkpt>
      <trkpt lat="46.99386" lon="6.46324">
        <ele>841</ele>
        <time>2023-08-03T06:30:33.000Z</time>
      </trkpt>
      <trkpt lat="46.99386" lon="6.46332">
        <ele>841</ele>
        <time>2023-08-03T06:30:34.000Z</time>
      </trkpt>
      <trkpt lat="46.99387" lon="6.4634">
        <ele>840.79998779297</ele>
        <time>2023-08-03T06:30:35.000Z</time>
      </trkpt>
      <trkpt lat="46.99395" lon="6.46354">
        <ele>840.59997558594</ele>
        <time>2023-08-03T06:30:37.000Z</time>
      </trkpt>
      <trkpt lat="46.9941" lon="6.46367">
        <ele>839.59997558594</ele>
        <time>2023-08-03T06:30:40.000Z</time>
      </trkpt>
      <trkpt lat="46.99415" lon="6.46371">
        <ele>839.40002441406</ele>
        <time>2023-08-03T06:30:41.000Z</time>
      </trkpt>
      <trkpt lat="46.99419" lon="6.46376">
        <ele>839</ele>
        <time>2023-08-03T06:30:42.000Z</time>
      </trkpt>
      <trkpt lat="46.99425" lon="6.46383">
        <ele>838.40002441406</ele>
        <time>2023-08-03T06:30:43.000Z</time>
      </trkpt>
      <trkpt lat="46.99431" lon="6.46395">
        <ele>837.59997558594</ele>
        <time>2023-08-03T06:30:45.000Z</time>
      </trkpt>
      <trkpt lat="46.99433" lon="6.46403">
        <ele>837.40002441406</ele>
        <time>2023-08-03T06:30:46.000Z</time>
      </trkpt>
      <trkpt lat="46.99438" lon="6.46419">
        <ele>836.20001220703</ele>
        <time>2023-08-03T06:30:48.000Z</time>
      </trkpt>
      <trkpt lat="46.99448" lon="6.46452">
        <ele>835</ele>
        <time>2023-08-03T06:30:52.000Z</time>
      </trkpt>
      <trkpt lat="46.99452" lon="6.4647">
        <ele>834.40002441406</ele>
        <time>2023-08-03T06:30:54.000Z</time>
      </trkpt>
      <trkpt lat="46.99458" lon="6.46488">
        <ele>834</ele>
        <time>2023-08-03T06:30:56.000Z</time>
      </trkpt>
      <trkpt lat="46.99466" lon="6.46517">
        <ele>832.79998779297</ele>
        <time>2023-08-03T06:30:59.000Z</time>
      </trkpt>
      <trkpt lat="46.99469" lon="6.46527">
        <ele>832.20001220703</ele>
        <time>2023-08-03T06:31:00.000Z</time>
      </trkpt>
      <trkpt lat="46.99475" lon="6.46547">
        <ele>831.59997558594</ele>
        <time>2023-08-03T06:31:02.000Z</time>
      </trkpt>
      <trkpt lat="46.99484" lon="6.46576">
        <ele>830.40002441406</ele>
        <time>2023-08-03T06:31:05.000Z</time>
      </trkpt>
      <trkpt lat="46.99489" lon="6.46592">
        <ele>829.40002441406</ele>
        <time>2023-08-03T06:31:07.000Z</time>
      </trkpt>
      <trkpt lat="46.99495" lon="6.46612">
        <ele>828.20001220703</ele>
        <time>2023-08-03T06:31:10.000Z</time>
      </trkpt>
      <trkpt lat="46.99498" lon="6.46625">
        <ele>827.20001220703</ele>
        <time>2023-08-03T06:31:12.000Z</time>
      </trkpt>
      <trkpt lat="46.995" lon="6.46631">
        <ele>827</ele>
        <time>2023-08-03T06:31:13.000Z</time>
      </trkpt>
      <trkpt lat="46.99503" lon="6.46646">
        <ele>825.79998779297</ele>
        <time>2023-08-03T06:31:16.000Z</time>
      </trkpt>
      <trkpt lat="46.99506" lon="6.46652">
        <ele>825.59997558594</ele>
        <time>2023-08-03T06:31:17.000Z</time>
      </trkpt>
      <trkpt lat="46.99509" lon="6.46658">
        <ele>825.40002441406</ele>
        <time>2023-08-03T06:31:18.000Z</time>
      </trkpt>
      <trkpt lat="46.99518" lon="6.4668">
        <ele>824.79998779297</ele>
        <time>2023-08-03T06:31:21.000Z</time>
      </trkpt>
      <trkpt lat="46.99542" lon="6.46713">
        <ele>823.40002441406</ele>
        <time>2023-08-03T06:31:26.000Z</time>
      </trkpt>
      <trkpt lat="46.99547" lon="6.46719">
        <ele>823.20001220703</ele>
        <time>2023-08-03T06:31:27.000Z</time>
      </trkpt>
      <trkpt lat="46.99555" lon="6.46735">
        <ele>822.59997558594</ele>
        <time>2023-08-03T06:31:29.000Z</time>
      </trkpt>
      <trkpt lat="46.99556" lon="6.46745">
        <ele>822.59997558594</ele>
        <time>2023-08-03T06:31:30.000Z</time>
      </trkpt>
      <trkpt lat="46.99556" lon="6.46755">
        <ele>822.20001220703</ele>
        <time>2023-08-03T06:31:31.000Z</time>
      </trkpt>
      <trkpt lat="46.9955" lon="6.46774">
        <ele>821.20001220703</ele>
        <time>2023-08-03T06:31:33.000Z</time>
      </trkpt>
      <trkpt lat="46.99538" lon="6.46784">
        <ele>820</ele>
        <time>2023-08-03T06:31:35.000Z</time>
      </trkpt>
      <trkpt lat="46.99531" lon="6.46787">
        <ele>819.59997558594</ele>
        <time>2023-08-03T06:31:36.000Z</time>
      </trkpt>
      <trkpt lat="46.99524" lon="6.46786">
        <ele>819</ele>
        <time>2023-08-03T06:31:37.000Z</time>
      </trkpt>
      <trkpt lat="46.9951" lon="6.46778">
        <ele>818</ele>
        <time>2023-08-03T06:31:39.000Z</time>
      </trkpt>
      <trkpt lat="46.99504" lon="6.46772">
        <ele>817.59997558594</ele>
        <time>2023-08-03T06:31:40.000Z</time>
      </trkpt>
      <trkpt lat="46.99499" lon="6.46765">
        <ele>816.79998779297</ele>
        <time>2023-08-03T06:31:41.000Z</time>
      </trkpt>
      <trkpt lat="46.99495" lon="6.46757">
        <ele>816.40002441406</ele>
        <time>2023-08-03T06:31:42.000Z</time>
      </trkpt>
      <trkpt lat="46.99493" lon="6.46749">
        <ele>816.20001220703</ele>
        <time>2023-08-03T06:31:43.000Z</time>
      </trkpt>
      <trkpt lat="46.9949" lon="6.46732">
        <ele>815.79998779297</ele>
        <time>2023-08-03T06:31:45.000Z</time>
      </trkpt>
      <trkpt lat="46.99486" lon="6.4671">
        <ele>815.59997558594</ele>
        <time>2023-08-03T06:31:48.000Z</time>
      </trkpt>
      <trkpt lat="46.99481" lon="6.46696">
        <ele>815.79998779297</ele>
        <time>2023-08-03T06:31:50.000Z</time>
      </trkpt>
      <trkpt lat="46.99468" lon="6.46679">
        <ele>816</ele>
        <time>2023-08-03T06:31:53.000Z</time>
      </trkpt>
      <trkpt lat="46.99458" lon="6.46669">
        <ele>816</ele>
        <time>2023-08-03T06:31:55.000Z</time>
      </trkpt>
      <trkpt lat="46.99446" lon="6.46658">
        <ele>816</ele>
        <time>2023-08-03T06:31:57.000Z</time>
      </trkpt>
      <trkpt lat="46.99433" lon="6.46656">
        <ele>815.40002441406</ele>
        <time>2023-08-03T06:31:59.000Z</time>
      </trkpt>
      <trkpt lat="46.99427" lon="6.46659">
        <ele>815.20001220703</ele>
        <time>2023-08-03T06:32:00.000Z</time>
      </trkpt>
      <trkpt lat="46.99422" lon="6.46665">
        <ele>815</ele>
        <time>2023-08-03T06:32:01.000Z</time>
      </trkpt>
      <trkpt lat="46.99416" lon="6.46677">
        <ele>814.40002441406</ele>
        <time>2023-08-03T06:32:03.000Z</time>
      </trkpt>
      <trkpt lat="46.99414" lon="6.4668">
        <ele>814</ele>
        <time>2023-08-03T06:32:04.000Z</time>
      </trkpt>
      <trkpt lat="46.99412" lon="6.46681">
        <ele>813.59997558594</ele>
        <time>2023-08-03T06:32:05.000Z</time>
      </trkpt>
      <trkpt lat="46.9941" lon="6.46681">
        <ele>812.79998779297</ele>
        <time>2023-08-03T06:32:06.000Z</time>
      </trkpt>
      <trkpt lat="46.99409" lon="6.4668">
        <ele>812.59997558594</ele>
        <time>2023-08-03T06:32:07.000Z</time>
      </trkpt>
      <trkpt lat="46.99409" lon="6.46679">
        <ele>811.79998779297</ele>
        <time>2023-08-03T06:32:09.000Z</time>
      </trkpt>
      <trkpt lat="46.99404" lon="6.46675">
        <ele>810.79998779297</ele>
        <time>2023-08-03T06:32:17.000Z</time>
      </trkpt>
      <trkpt lat="46.99402" lon="6.46673">
        <ele>810.79998779297</ele>
        <time>2023-08-03T06:32:18.000Z</time>
      </trkpt>
      <trkpt lat="46.99393" lon="6.46662">
        <ele>810.59997558594</ele>
        <time>2023-08-03T06:32:21.000Z</time>
      </trkpt>
      <trkpt lat="46.99372" lon="6.46637">
        <ele>810.40002441406</ele>
        <time>2023-08-03T06:32:26.000Z</time>
      </trkpt>
      <trkpt lat="46.99345" lon="6.46599">
        <ele>810</ele>
        <time>2023-08-03T06:32:32.000Z</time>
      </trkpt>
      <trkpt lat="46.99338" lon="6.46583">
        <ele>809.79998779297</ele>
        <time>2023-08-03T06:32:34.000Z</time>
      </trkpt>
      <trkpt lat="46.99326" lon="6.4655">
        <ele>809</ele>
        <time>2023-08-03T06:32:38.000Z</time>
      </trkpt>
      <trkpt lat="46.99316" lon="6.46504">
        <ele>808.59997558594</ele>
        <time>2023-08-03T06:32:43.000Z</time>
      </trkpt>
      <trkpt lat="46.99312" lon="6.46485">
        <ele>808.20001220703</ele>
        <time>2023-08-03T06:32:45.000Z</time>
      </trkpt>
      <trkpt lat="46.99304" lon="6.46454">
        <ele>807.20001220703</ele>
        <time>2023-08-03T06:32:48.000Z</time>
      </trkpt>
      <trkpt lat="46.99293" lon="6.46416">
        <ele>806</ele>
        <time>2023-08-03T06:32:52.000Z</time>
      </trkpt>
      <trkpt lat="46.99291" lon="6.46406">
        <ele>805.59997558594</ele>
        <time>2023-08-03T06:32:53.000Z</time>
      </trkpt>
      <trkpt lat="46.99289" lon="6.46397">
        <ele>805.40002441406</ele>
        <time>2023-08-03T06:32:54.000Z</time>
      </trkpt>
      <trkpt lat="46.99286" lon="6.46379">
        <ele>805</ele>
        <time>2023-08-03T06:32:56.000Z</time>
      </trkpt>
      <trkpt lat="46.99287" lon="6.46371">
        <ele>804.79998779297</ele>
        <time>2023-08-03T06:32:57.000Z</time>
      </trkpt>
      <trkpt lat="46.99288" lon="6.46362">
        <ele>804.40002441406</ele>
        <time>2023-08-03T06:32:58.000Z</time>
      </trkpt>
      <trkpt lat="46.99294" lon="6.46335">
        <ele>804.20001220703</ele>
        <time>2023-08-03T06:33:01.000Z</time>
      </trkpt>
      <trkpt lat="46.99303" lon="6.4631">
        <ele>803.79998779297</ele>
        <time>2023-08-03T06:33:04.000Z</time>
      </trkpt>
      <trkpt lat="46.99307" lon="6.46294">
        <ele>803.59997558594</ele>
        <time>2023-08-03T06:33:06.000Z</time>
      </trkpt>
      <trkpt lat="46.99308" lon="6.46286">
        <ele>803.40002441406</ele>
        <time>2023-08-03T06:33:07.000Z</time>
      </trkpt>
      <trkpt lat="46.99308" lon="6.46278">
        <ele>803.40002441406</ele>
        <time>2023-08-03T06:33:08.000Z</time>
      </trkpt>
      <trkpt lat="46.99304" lon="6.46262">
        <ele>803</ele>
        <time>2023-08-03T06:33:10.000Z</time>
      </trkpt>
      <trkpt lat="46.99299" lon="6.46246">
        <ele>802.40002441406</ele>
        <time>2023-08-03T06:33:12.000Z</time>
      </trkpt>
      <trkpt lat="46.99288" lon="6.46217">
        <ele>801.40002441406</ele>
        <time>2023-08-03T06:33:16.000Z</time>
      </trkpt>
      <trkpt lat="46.99286" lon="6.4621">
        <ele>801</ele>
        <time>2023-08-03T06:33:17.000Z</time>
      </trkpt>
      <trkpt lat="46.9928" lon="6.46192">
        <ele>800.20001220703</ele>
        <time>2023-08-03T06:33:20.000Z</time>
      </trkpt>
      <trkpt lat="46.99278" lon="6.46187">
        <ele>800.20001220703</ele>
        <time>2023-08-03T06:33:21.000Z</time>
      </trkpt>
      <trkpt lat="46.99276" lon="6.46183">
        <ele>800</ele>
        <time>2023-08-03T06:33:22.000Z</time>
      </trkpt>
      <trkpt lat="46.99274" lon="6.46181">
        <ele>799.79998779297</ele>
        <time>2023-08-03T06:33:23.000Z</time>
      </trkpt>
      <trkpt lat="46.99271" lon="6.4618">
        <ele>799.20001220703</ele>
        <time>2023-08-03T06:33:24.000Z</time>
      </trkpt>
      <trkpt lat="46.99269" lon="6.46181">
        <ele>798.59997558594</ele>
        <time>2023-08-03T06:33:25.000Z</time>
      </trkpt>
      <trkpt lat="46.99267" lon="6.46182">
        <ele>798.40002441406</ele>
        <time>2023-08-03T06:33:26.000Z</time>
      </trkpt>
      <trkpt lat="46.99267" lon="6.46182">
        <ele>798</ele>
        <time>2023-08-03T06:33:27.000Z</time>
      </trkpt>
      <trkpt lat="46.99265" lon="6.46189">
        <ele>798</ele>
        <time>2023-08-03T06:33:28.000Z</time>
      </trkpt>
      <trkpt lat="46.99265" lon="6.46194">
        <ele>797.59997558594</ele>
        <time>2023-08-03T06:33:29.000Z</time>
      </trkpt>
      <trkpt lat="46.99265" lon="6.46204">
        <ele>797</ele>
        <time>2023-08-03T06:33:31.000Z</time>
      </trkpt>
      <trkpt lat="46.99261" lon="6.4622">
        <ele>796.20001220703</ele>
        <time>2023-08-03T06:33:36.000Z</time>
      </trkpt>
      <trkpt lat="46.99259" lon="6.4622">
        <ele>795.59997558594</ele>
        <time>2023-08-03T06:33:39.000Z</time>
      </trkpt>
      <trkpt lat="46.99259" lon="6.4622">
        <ele>795.40002441406</ele>
        <time>2023-08-03T06:33:40.000Z</time>
      </trkpt>
      <trkpt lat="46.9925" lon="6.46238">
        <ele>791.59997558594</ele>
        <time>2023-08-03T06:39:28.000Z</time>
      </trkpt>
      <trkpt lat="46.9925" lon="6.46235">
        <ele>791.79998779297</ele>
        <time>2023-08-03T06:39:30.000Z</time>
      </trkpt>
      <trkpt lat="46.9925" lon="6.46233">
        <ele>792</ele>
        <time>2023-08-03T06:39:31.000Z</time>
      </trkpt>
      <trkpt lat="46.9925" lon="6.46228">
        <ele>792.40002441406</ele>
        <time>2023-08-03T06:39:37.000Z</time>
      </trkpt>
      <trkpt lat="46.99251" lon="6.46227">
        <ele>792.40002441406</ele>
        <time>2023-08-03T06:39:39.000Z</time>
      </trkpt>
      <trkpt lat="46.99254" lon="6.46226">
        <ele>792.79998779297</ele>
        <time>2023-08-03T06:39:42.000Z</time>
      </trkpt>
      <trkpt lat="46.99259" lon="6.46226">
        <ele>793.20001220703</ele>
        <time>2023-08-03T06:39:49.000Z</time>
      </trkpt>
      <trkpt lat="46.99259" lon="6.46226">
        <ele>793.59997558594</ele>
        <time>2023-08-03T06:39:51.000Z</time>
      </trkpt>
      <trkpt lat="46.99261" lon="6.46221">
        <ele>794.20001220703</ele>
        <time>2023-08-03T06:40:54.000Z</time>
      </trkpt>
      <trkpt lat="46.99263" lon="6.46217">
        <ele>794.20001220703</ele>
        <time>2023-08-03T06:40:56.000Z</time>
      </trkpt>
      <trkpt lat="46.99266" lon="6.462">
        <ele>794.79998779297</ele>
        <time>2023-08-03T06:41:02.000Z</time>
      </trkpt>
      <trkpt lat="46.99265" lon="6.46194">
        <ele>795.20001220703</ele>
        <time>2023-08-03T06:41:04.000Z</time>
      </trkpt>
      <trkpt lat="46.99268" lon="6.46186">
        <ele>795.59997558594</ele>
        <time>2023-08-03T06:41:08.000Z</time>
      </trkpt>
      <trkpt lat="46.99268" lon="6.46185">
        <ele>795.79998779297</ele>
        <time>2023-08-03T06:41:10.000Z</time>
      </trkpt>
      <trkpt lat="46.99271" lon="6.46188">
        <ele>796.40002441406</ele>
        <time>2023-08-03T06:41:13.000Z</time>
      </trkpt>
      <trkpt lat="46.99272" lon="6.46191">
        <ele>796.40002441406</ele>
        <time>2023-08-03T06:41:14.000Z</time>
      </trkpt>
      <trkpt lat="46.99277" lon="6.46207">
        <ele>797</ele>
        <time>2023-08-03T06:41:20.000Z</time>
      </trkpt>
      <trkpt lat="46.99281" lon="6.46218">
        <ele>797.40002441406</ele>
        <time>2023-08-03T06:41:23.000Z</time>
      </trkpt>
      <trkpt lat="46.99282" lon="6.46226">
        <ele>797.79998779297</ele>
        <time>2023-08-03T06:41:25.000Z</time>
      </trkpt>
      <trkpt lat="46.99284" lon="6.46234">
        <ele>798.40002441406</ele>
        <time>2023-08-03T06:41:27.000Z</time>
      </trkpt>
      <trkpt lat="46.99289" lon="6.46252">
        <ele>799.20001220703</ele>
        <time>2023-08-03T06:41:31.000Z</time>
      </trkpt>
      <trkpt lat="46.99291" lon="6.46256">
        <ele>799.40002441406</ele>
        <time>2023-08-03T06:41:32.000Z</time>
      </trkpt>
      <trkpt lat="46.99298" lon="6.46283">
        <ele>800.59997558594</ele>
        <time>2023-08-03T06:41:38.000Z</time>
      </trkpt>
      <trkpt lat="46.99295" lon="6.46307">
        <ele>801.40002441406</ele>
        <time>2023-08-03T06:41:43.000Z</time>
      </trkpt>
      <trkpt lat="46.99294" lon="6.46311">
        <ele>801.79998779297</ele>
        <time>2023-08-03T06:41:44.000Z</time>
      </trkpt>
      <trkpt lat="46.99283" lon="6.46347">
        <ele>802.59997558594</ele>
        <time>2023-08-03T06:41:52.000Z</time>
      </trkpt>
      <trkpt lat="46.99281" lon="6.46357">
        <ele>802.79998779297</ele>
        <time>2023-08-03T06:41:54.000Z</time>
      </trkpt>
      <trkpt lat="46.9928" lon="6.46379">
        <ele>803</ele>
        <time>2023-08-03T06:41:58.000Z</time>
      </trkpt>
      <trkpt lat="46.99287" lon="6.46414">
        <ele>803.40002441406</ele>
        <time>2023-08-03T06:42:04.000Z</time>
      </trkpt>
      <trkpt lat="46.9929" lon="6.46424">
        <ele>803.59997558594</ele>
        <time>2023-08-03T06:42:06.000Z</time>
      </trkpt>
      <trkpt lat="46.99297" lon="6.46445">
        <ele>803.79998779297</ele>
        <time>2023-08-03T06:42:10.000Z</time>
      </trkpt>
      <trkpt lat="46.99302" lon="6.46465">
        <ele>804.20001220703</ele>
        <time>2023-08-03T06:42:14.000Z</time>
      </trkpt>
      <trkpt lat="46.99308" lon="6.46485">
        <ele>804.79998779297</ele>
        <time>2023-08-03T06:42:18.000Z</time>
      </trkpt>
      <trkpt lat="46.99313" lon="6.46512">
        <ele>805.59997558594</ele>
        <time>2023-08-03T06:42:23.000Z</time>
      </trkpt>
      <trkpt lat="46.99316" lon="6.46527">
        <ele>805.79998779297</ele>
        <time>2023-08-03T06:42:26.000Z</time>
      </trkpt>
      <trkpt lat="46.99328" lon="6.4657">
        <ele>807</ele>
        <time>2023-08-03T06:42:34.000Z</time>
      </trkpt>
      <trkpt lat="46.9935" lon="6.46616">
        <ele>808</ele>
        <time>2023-08-03T06:42:43.000Z</time>
      </trkpt>
      <trkpt lat="46.99352" lon="6.46619">
        <ele>808</ele>
        <time>2023-08-03T06:42:44.000Z</time>
      </trkpt>
      <trkpt lat="46.99368" lon="6.46641">
        <ele>808.59997558594</ele>
        <time>2023-08-03T06:42:49.000Z</time>
      </trkpt>
      <trkpt lat="46.99378" lon="6.46652">
        <ele>808.79998779297</ele>
        <time>2023-08-03T06:42:52.000Z</time>
      </trkpt>
      <trkpt lat="46.99395" lon="6.46671">
        <ele>809.20001220703</ele>
        <time>2023-08-03T06:42:57.000Z</time>
      </trkpt>
      <trkpt lat="46.99407" lon="6.46685">
        <ele>809.40002441406</ele>
        <time>2023-08-03T06:43:01.000Z</time>
      </trkpt>
      <trkpt lat="46.99414" lon="6.46688">
        <ele>809.59997558594</ele>
        <time>2023-08-03T06:43:03.000Z</time>
      </trkpt>
      <trkpt lat="46.99417" lon="6.46686">
        <ele>809.79998779297</ele>
        <time>2023-08-03T06:43:04.000Z</time>
      </trkpt>
      <trkpt lat="46.99431" lon="6.46667">
        <ele>810.20001220703</ele>
        <time>2023-08-03T06:43:09.000Z</time>
      </trkpt>
      <trkpt lat="46.99444" lon="6.46662">
        <ele>810.79998779297</ele>
        <time>2023-08-03T06:43:13.000Z</time>
      </trkpt>
      <trkpt lat="46.99452" lon="6.46669">
        <ele>811.40002441406</ele>
        <time>2023-08-03T06:43:16.000Z</time>
      </trkpt>
      <trkpt lat="46.99458" lon="6.46675">
        <ele>811.79998779297</ele>
        <time>2023-08-03T06:43:18.000Z</time>
      </trkpt>
      <trkpt lat="46.99465" lon="6.46685">
        <ele>812.59997558594</ele>
        <time>2023-08-03T06:43:21.000Z</time>
      </trkpt>
      <trkpt lat="46.99478" lon="6.46703">
        <ele>813.79998779297</ele>
        <time>2023-08-03T06:43:26.000Z</time>
      </trkpt>
      <trkpt lat="46.99485" lon="6.46723">
        <ele>814.20001220703</ele>
        <time>2023-08-03T06:43:30.000Z</time>
      </trkpt>
      <trkpt lat="46.99487" lon="6.46736">
        <ele>814.20001220703</ele>
        <time>2023-08-03T06:43:32.000Z</time>
      </trkpt>
      <trkpt lat="46.99489" lon="6.4675">
        <ele>814.20001220703</ele>
        <time>2023-08-03T06:43:34.000Z</time>
      </trkpt>
      <trkpt lat="46.99494" lon="6.46764">
        <ele>814</ele>
        <time>2023-08-03T06:43:36.000Z</time>
      </trkpt>
      <trkpt lat="46.99498" lon="6.46771">
        <ele>814</ele>
        <time>2023-08-03T06:43:37.000Z</time>
      </trkpt>
      <trkpt lat="46.99501" lon="6.46775">
        <ele>813.79998779297</ele>
        <time>2023-08-03T06:43:38.000Z</time>
      </trkpt>
      <trkpt lat="46.99518" lon="6.46789">
        <ele>813.59997558594</ele>
        <time>2023-08-03T06:43:42.000Z</time>
      </trkpt>
      <trkpt lat="46.99533" lon="6.46792">
        <ele>813.59997558594</ele>
        <time>2023-08-03T06:43:46.000Z</time>
      </trkpt>
      <trkpt lat="46.99551" lon="6.4678">
        <ele>815</ele>
        <time>2023-08-03T06:43:51.000Z</time>
      </trkpt>
      <trkpt lat="46.99553" lon="6.46776">
        <ele>815.20001220703</ele>
        <time>2023-08-03T06:43:52.000Z</time>
      </trkpt>
      <trkpt lat="46.99558" lon="6.46761">
        <ele>816</ele>
        <time>2023-08-03T06:43:55.000Z</time>
      </trkpt>
      <trkpt lat="46.99559" lon="6.46756">
        <ele>816.40002441406</ele>
        <time>2023-08-03T06:43:56.000Z</time>
      </trkpt>
      <trkpt lat="46.99556" lon="6.46739">
        <ele>817.59997558594</ele>
        <time>2023-08-03T06:44:00.000Z</time>
      </trkpt>
      <trkpt lat="46.99551" lon="6.46726">
        <ele>818.59997558594</ele>
        <time>2023-08-03T06:44:03.000Z</time>
      </trkpt>
      <trkpt lat="46.99544" lon="6.46716">
        <ele>819.40002441406</ele>
        <time>2023-08-03T06:44:06.000Z</time>
      </trkpt>
      <trkpt lat="46.99542" lon="6.46713">
        <ele>819.59997558594</ele>
        <time>2023-08-03T06:44:07.000Z</time>
      </trkpt>
      <trkpt lat="46.99539" lon="6.4671">
        <ele>820.20001220703</ele>
        <time>2023-08-03T06:44:08.000Z</time>
      </trkpt>
      <trkpt lat="46.99529" lon="6.46696">
        <ele>820.79998779297</ele>
        <time>2023-08-03T06:44:12.000Z</time>
      </trkpt>
      <trkpt lat="46.99524" lon="6.46689">
        <ele>821.20001220703</ele>
        <time>2023-08-03T06:44:14.000Z</time>
      </trkpt>
      <trkpt lat="46.99517" lon="6.46677">
        <ele>821.79998779297</ele>
        <time>2023-08-03T06:44:17.000Z</time>
      </trkpt>
      <trkpt lat="46.99511" lon="6.4666">
        <ele>822.40002441406</ele>
        <time>2023-08-03T06:44:21.000Z</time>
      </trkpt>
      <trkpt lat="46.99509" lon="6.46651">
        <ele>822.79998779297</ele>
        <time>2023-08-03T06:44:23.000Z</time>
      </trkpt>
      <trkpt lat="46.995" lon="6.46622">
        <ele>824</ele>
        <time>2023-08-03T06:44:30.000Z</time>
      </trkpt>
      <trkpt lat="46.99499" lon="6.46617">
        <ele>824.20001220703</ele>
        <time>2023-08-03T06:44:31.000Z</time>
      </trkpt>
      <trkpt lat="46.99494" lon="6.46602">
        <ele>825</ele>
        <time>2023-08-03T06:44:35.000Z</time>
      </trkpt>
      <trkpt lat="46.9949" lon="6.46589">
        <ele>825.79998779297</ele>
        <time>2023-08-03T06:44:38.000Z</time>
      </trkpt>
      <trkpt lat="46.99487" lon="6.46576">
        <ele>826.40002441406</ele>
        <time>2023-08-03T06:44:41.000Z</time>
      </trkpt>
      <trkpt lat="46.99481" lon="6.46555">
        <ele>827.59997558594</ele>
        <time>2023-08-03T06:44:46.000Z</time>
      </trkpt>
      <trkpt lat="46.99477" lon="6.46543">
        <ele>828</ele>
        <time>2023-08-03T06:44:49.000Z</time>
      </trkpt>
      <trkpt lat="46.99472" lon="6.46532">
        <ele>828.79998779297</ele>
        <time>2023-08-03T06:44:52.000Z</time>
      </trkpt>
      <trkpt lat="46.99467" lon="6.46514">
        <ele>829.79998779297</ele>
        <time>2023-08-03T06:44:56.000Z</time>
      </trkpt>
      <trkpt lat="46.99465" lon="6.46509">
        <ele>829.79998779297</ele>
        <time>2023-08-03T06:44:57.000Z</time>
      </trkpt>
      <trkpt lat="46.99458" lon="6.46484">
        <ele>831</ele>
        <time>2023-08-03T06:45:03.000Z</time>
      </trkpt>
      <trkpt lat="46.99452" lon="6.46462">
        <ele>832</ele>
        <time>2023-08-03T06:45:08.000Z</time>
      </trkpt>
      <trkpt lat="46.99446" lon="6.46442">
        <ele>832.79998779297</ele>
        <time>2023-08-03T06:45:13.000Z</time>
      </trkpt>
      <trkpt lat="46.99444" lon="6.46435">
        <ele>833</ele>
        <time>2023-08-03T06:45:15.000Z</time>
      </trkpt>
      <trkpt lat="46.99437" lon="6.4641">
        <ele>834.20001220703</ele>
        <time>2023-08-03T06:45:21.000Z</time>
      </trkpt>
      <trkpt lat="46.99436" lon="6.46405">
        <ele>834.40002441406</ele>
        <time>2023-08-03T06:45:22.000Z</time>
      </trkpt>
      <trkpt lat="46.99426" lon="6.46382">
        <ele>835.40002441406</ele>
        <time>2023-08-03T06:45:28.000Z</time>
      </trkpt>
      <trkpt lat="46.99424" lon="6.46379">
        <ele>835.40002441406</ele>
        <time>2023-08-03T06:45:29.000Z</time>
      </trkpt>
      <trkpt lat="46.99412" lon="6.46364">
        <ele>836.40002441406</ele>
        <time>2023-08-03T06:45:34.000Z</time>
      </trkpt>
      <trkpt lat="46.99402" lon="6.46356">
        <ele>837</ele>
        <time>2023-08-03T06:45:37.000Z</time>
      </trkpt>
      <trkpt lat="46.99395" lon="6.46348">
        <ele>837.40002441406</ele>
        <time>2023-08-03T06:45:40.000Z</time>
      </trkpt>
      <trkpt lat="46.99389" lon="6.46334">
        <ele>838</ele>
        <time>2023-08-03T06:45:43.000Z</time>
      </trkpt>
      <trkpt lat="46.9939" lon="6.46315">
        <ele>838.59997558594</ele>
        <time>2023-08-03T06:45:47.000Z</time>
      </trkpt>
      <trkpt lat="46.99391" lon="6.46311">
        <ele>839.20001220703</ele>
        <time>2023-08-03T06:45:48.000Z</time>
      </trkpt>
      <trkpt lat="46.99395" lon="6.46307">
        <ele>839.59997558594</ele>
        <time>2023-08-03T06:45:50.000Z</time>
      </trkpt>
      <trkpt lat="46.99399" lon="6.46306">
        <ele>839.79998779297</ele>
        <time>2023-08-03T06:45:51.000Z</time>
      </trkpt>
      <trkpt lat="46.99406" lon="6.46298">
        <ele>840.59997558594</ele>
        <time>2023-08-03T06:45:55.000Z</time>
      </trkpt>
      <trkpt lat="46.99412" lon="6.46299">
        <ele>840.79998779297</ele>
        <time>2023-08-03T06:45:58.000Z</time>
      </trkpt>
      <trkpt lat="46.99414" lon="6.463">
        <ele>840.79998779297</ele>
        <time>2023-08-03T06:45:59.000Z</time>
      </trkpt>
      <trkpt lat="46.99426" lon="6.46313">
        <ele>841</ele>
        <time>2023-08-03T06:46:04.000Z</time>
      </trkpt>
      <trkpt lat="46.99444" lon="6.46339">
        <ele>841</ele>
        <time>2023-08-03T06:46:10.000Z</time>
      </trkpt>
      <trkpt lat="46.99465" lon="6.46369">
        <ele>841.20001220703</ele>
        <time>2023-08-03T06:46:18.000Z</time>
      </trkpt>
      <trkpt lat="46.99484" lon="6.46397">
        <ele>841.20001220703</ele>
        <time>2023-08-03T06:46:25.000Z</time>
      </trkpt>
      <trkpt lat="46.995" lon="6.46417">
        <ele>841</ele>
        <time>2023-08-03T06:46:30.000Z</time>
      </trkpt>
      <trkpt lat="46.99506" lon="6.46426">
        <ele>841</ele>
        <time>2023-08-03T06:46:32.000Z</time>
      </trkpt>
      <trkpt lat="46.99531" lon="6.46455">
        <ele>841</ele>
        <time>2023-08-03T06:46:38.000Z</time>
      </trkpt>
      <trkpt lat="46.9957" lon="6.46496">
        <ele>841</ele>
        <time>2023-08-03T06:46:47.000Z</time>
      </trkpt>
      <trkpt lat="46.99609" lon="6.46535">
        <ele>841</ele>
        <time>2023-08-03T06:46:55.000Z</time>
      </trkpt>
      <trkpt lat="46.99654" lon="6.46581">
        <ele>840.79998779297</ele>
        <time>2023-08-03T06:47:04.000Z</time>
      </trkpt>
      <trkpt lat="46.99665" lon="6.46591">
        <ele>840.79998779297</ele>
        <time>2023-08-03T06:47:06.000Z</time>
      </trkpt>
      <trkpt lat="46.99712" lon="6.46644">
        <ele>840.79998779297</ele>
        <time>2023-08-03T06:47:15.000Z</time>
      </trkpt>
      <trkpt lat="46.99734" lon="6.46678">
        <ele>840.79998779297</ele>
        <time>2023-08-03T06:47:20.000Z</time>
      </trkpt>
      <trkpt lat="46.99763" lon="6.46733">
        <ele>841</ele>
        <time>2023-08-03T06:47:27.000Z</time>
      </trkpt>
      <trkpt lat="46.99788" lon="6.46782">
        <ele>841.79998779297</ele>
        <time>2023-08-03T06:47:34.000Z</time>
      </trkpt>
      <trkpt lat="46.99795" lon="6.46797">
        <ele>842.20001220703</ele>
        <time>2023-08-03T06:47:36.000Z</time>
      </trkpt>
      <trkpt lat="46.99818" lon="6.46835">
        <ele>842.40002441406</ele>
        <time>2023-08-03T06:47:42.000Z</time>
      </trkpt>
      <trkpt lat="46.99838" lon="6.46862">
        <ele>842.59997558594</ele>
        <time>2023-08-03T06:47:47.000Z</time>
      </trkpt>
      <trkpt lat="46.99846" lon="6.46873">
        <ele>842.59997558594</ele>
        <time>2023-08-03T06:47:49.000Z</time>
      </trkpt>
      <trkpt lat="46.99859" lon="6.46885">
        <ele>843</ele>
        <time>2023-08-03T06:47:52.000Z</time>
      </trkpt>
      <trkpt lat="46.99865" lon="6.46891">
        <ele>843</ele>
        <time>2023-08-03T06:47:53.000Z</time>
      </trkpt>
      <trkpt lat="46.99898" lon="6.46917">
        <ele>843.79998779297</ele>
        <time>2023-08-03T06:48:00.000Z</time>
      </trkpt>
      <trkpt lat="46.99915" lon="6.46928">
        <ele>844</ele>
        <time>2023-08-03T06:48:03.000Z</time>
      </trkpt>
      <trkpt lat="46.99927" lon="6.46934">
        <ele>844.20001220703</ele>
        <time>2023-08-03T06:48:05.000Z</time>
      </trkpt>
      <trkpt lat="46.99981" lon="6.4695">
        <ele>844.79998779297</ele>
        <time>2023-08-03T06:48:14.000Z</time>
      </trkpt>
      <trkpt lat="46.99992" lon="6.46951">
        <ele>844.79998779297</ele>
        <time>2023-08-03T06:48:16.000Z</time>
      </trkpt>
      <trkpt lat="47.00015" lon="6.46951">
        <ele>845</ele>
        <time>2023-08-03T06:48:20.000Z</time>
      </trkpt>
      <trkpt lat="47.00021" lon="6.46951">
        <ele>845</ele>
        <time>2023-08-03T06:48:21.000Z</time>
      </trkpt>
      <trkpt lat="47.0003" lon="6.46951">
        <ele>845</ele>
        <time>2023-08-03T06:48:23.000Z</time>
      </trkpt>
      <trkpt lat="47.00039" lon="6.46949">
        <ele>845</ele>
        <time>2023-08-03T06:48:25.000Z</time>
      </trkpt>
      <trkpt lat="47.00062" lon="6.46943">
        <ele>845.40002441406</ele>
        <time>2023-08-03T06:48:30.000Z</time>
      </trkpt>
      <trkpt lat="47.00071" lon="6.46941">
        <ele>845.40002441406</ele>
        <time>2023-08-03T06:48:32.000Z</time>
      </trkpt>
      <trkpt lat="47.00087" lon="6.46934">
        <ele>845.79998779297</ele>
        <time>2023-08-03T06:48:36.000Z</time>
      </trkpt>
      <trkpt lat="47.00091" lon="6.46933">
        <ele>846</ele>
        <time>2023-08-03T06:48:40.000Z</time>
      </trkpt>
      <trkpt lat="47.00091" lon="6.46933">
        <ele>846</ele>
        <time>2023-08-03T06:48:41.000Z</time>
      </trkpt>
      <trkpt lat="47.00095" lon="6.46931">
        <ele>845.79998779297</ele>
        <time>2023-08-03T06:49:41.000Z</time>
      </trkpt>
      <trkpt lat="47.00099" lon="6.4693">
        <ele>846</ele>
        <time>2023-08-03T06:49:43.000Z</time>
      </trkpt>
      <trkpt lat="47.00113" lon="6.46919">
        <ele>845.79998779297</ele>
        <time>2023-08-03T06:49:48.000Z</time>
      </trkpt>
      <trkpt lat="47.00136" lon="6.46903">
        <ele>845.59997558594</ele>
        <time>2023-08-03T06:49:54.000Z</time>
      </trkpt>
      <trkpt lat="47.0016" lon="6.46882">
        <ele>845.59997558594</ele>
        <time>2023-08-03T06:50:00.000Z</time>
      </trkpt>
      <trkpt lat="47.00195" lon="6.46848">
        <ele>846.20001220703</ele>
        <time>2023-08-03T06:50:09.000Z</time>
      </trkpt>
      <trkpt lat="47.00227" lon="6.4682">
        <ele>846.59997558594</ele>
        <time>2023-08-03T06:50:17.000Z</time>
      </trkpt>
      <trkpt lat="47.00259" lon="6.46795">
        <ele>847</ele>
        <time>2023-08-03T06:50:24.000Z</time>
      </trkpt>
      <trkpt lat="47.00272" lon="6.46788">
        <ele>847</ele>
        <time>2023-08-03T06:50:27.000Z</time>
      </trkpt>
      <trkpt lat="47.00309" lon="6.4677">
        <ele>847.40002441406</ele>
        <time>2023-08-03T06:50:35.000Z</time>
      </trkpt>
      <trkpt lat="47.0033" lon="6.46763">
        <ele>847.20001220703</ele>
        <time>2023-08-03T06:50:41.000Z</time>
      </trkpt>
      <trkpt lat="47.00336" lon="6.46762">
        <ele>847.20001220703</ele>
        <time>2023-08-03T06:50:45.000Z</time>
      </trkpt>
      <trkpt lat="47.00352" lon="6.46762">
        <ele>846.59997558594</ele>
        <time>2023-08-03T06:50:49.000Z</time>
      </trkpt>
      <trkpt lat="47.00356" lon="6.46762">
        <ele>846.40002441406</ele>
        <time>2023-08-03T06:50:50.000Z</time>
      </trkpt>
      <trkpt lat="47.00361" lon="6.4676">
        <ele>846</ele>
        <time>2023-08-03T06:50:51.000Z</time>
      </trkpt>
      <trkpt lat="47.00366" lon="6.46758">
        <ele>845.59997558594</ele>
        <time>2023-08-03T06:50:52.000Z</time>
      </trkpt>
      <trkpt lat="47.00372" lon="6.46757">
        <ele>845.40002441406</ele>
        <time>2023-08-03T06:50:53.000Z</time>
      </trkpt>
      <trkpt lat="47.00376" lon="6.46758">
        <ele>845</ele>
        <time>2023-08-03T06:50:54.000Z</time>
      </trkpt>
      <trkpt lat="47.00393" lon="6.46762">
        <ele>844.59997558594</ele>
        <time>2023-08-03T06:50:58.000Z</time>
      </trkpt>
      <trkpt lat="47.00406" lon="6.46763">
        <ele>846</ele>
        <time>2023-08-03T06:51:02.000Z</time>
      </trkpt>
      <trkpt lat="47.0041" lon="6.46764">
        <ele>846.40002441406</ele>
        <time>2023-08-03T06:51:03.000Z</time>
      </trkpt>
      <trkpt lat="47.00413" lon="6.46765">
        <ele>847</ele>
        <time>2023-08-03T06:51:04.000Z</time>
      </trkpt>
      <trkpt lat="47.00433" lon="6.46771">
        <ele>848</ele>
        <time>2023-08-03T06:51:09.000Z</time>
      </trkpt>
      <trkpt lat="47.00442" lon="6.46774">
        <ele>848.20001220703</ele>
        <time>2023-08-03T06:51:11.000Z</time>
      </trkpt>
      <trkpt lat="47.00446" lon="6.46776">
        <ele>848.20001220703</ele>
        <time>2023-08-03T06:51:12.000Z</time>
      </trkpt>
      <trkpt lat="47.00468" lon="6.46786">
        <ele>848</ele>
        <time>2023-08-03T06:51:17.000Z</time>
      </trkpt>
      <trkpt lat="47.00485" lon="6.46796">
        <ele>848.20001220703</ele>
        <time>2023-08-03T06:51:21.000Z</time>
      </trkpt>
      <trkpt lat="47.00503" lon="6.46809">
        <ele>848.59997558594</ele>
        <time>2023-08-03T06:51:25.000Z</time>
      </trkpt>
      <trkpt lat="47.00535" lon="6.4683">
        <ele>848.79998779297</ele>
        <time>2023-08-03T06:51:32.000Z</time>
      </trkpt>
      <trkpt lat="47.00553" lon="6.46843">
        <ele>849.20001220703</ele>
        <time>2023-08-03T06:51:36.000Z</time>
      </trkpt>
      <trkpt lat="47.00581" lon="6.46862">
        <ele>850</ele>
        <time>2023-08-03T06:51:42.000Z</time>
      </trkpt>
      <trkpt lat="47.00585" lon="6.46866">
        <ele>850</ele>
        <time>2023-08-03T06:51:43.000Z</time>
      </trkpt>
      <trkpt lat="47.0061" lon="6.46883">
        <ele>850.20001220703</ele>
        <time>2023-08-03T06:51:48.000Z</time>
      </trkpt>
      <trkpt lat="47.00663" lon="6.4692">
        <ele>850.20001220703</ele>
        <time>2023-08-03T06:51:58.000Z</time>
      </trkpt>
      <trkpt lat="47.00668" lon="6.46924">
        <ele>850.20001220703</ele>
        <time>2023-08-03T06:51:59.000Z</time>
      </trkpt>
      <trkpt lat="47.00672" lon="6.46928">
        <ele>850.20001220703</ele>
        <time>2023-08-03T06:52:00.000Z</time>
      </trkpt>
      <trkpt lat="47.00692" lon="6.46947">
        <ele>850.40002441406</ele>
        <time>2023-08-03T06:52:04.000Z</time>
      </trkpt>
      <trkpt lat="47.00726" lon="6.46991">
        <ele>850.59997558594</ele>
        <time>2023-08-03T06:52:12.000Z</time>
      </trkpt>
      <trkpt lat="47.00751" lon="6.47038">
        <ele>850.79998779297</ele>
        <time>2023-08-03T06:52:19.000Z</time>
      </trkpt>
      <trkpt lat="47.00769" lon="6.47081">
        <ele>851.20001220703</ele>
        <time>2023-08-03T06:52:25.000Z</time>
      </trkpt>
      <trkpt lat="47.00774" lon="6.47095">
        <ele>851.20001220703</ele>
        <time>2023-08-03T06:52:27.000Z</time>
      </trkpt>
      <trkpt lat="47.00783" lon="6.47121">
        <ele>851.40002441406</ele>
        <time>2023-08-03T06:52:31.000Z</time>
      </trkpt>
      <trkpt lat="47.00785" lon="6.47126">
        <ele>851.40002441406</ele>
        <time>2023-08-03T06:52:32.000Z</time>
      </trkpt>
      <trkpt lat="47.00793" lon="6.47152">
        <ele>851.40002441406</ele>
        <time>2023-08-03T06:52:37.000Z</time>
      </trkpt>
      <trkpt lat="47.00806" lon="6.47188">
        <ele>851.59997558594</ele>
        <time>2023-08-03T06:52:43.000Z</time>
      </trkpt>
      <trkpt lat="47.0082" lon="6.47226">
        <ele>851.79998779297</ele>
        <time>2023-08-03T06:52:49.000Z</time>
      </trkpt>
      <trkpt lat="47.00838" lon="6.47274">
        <ele>852</ele>
        <time>2023-08-03T06:52:57.000Z</time>
      </trkpt>
      <trkpt lat="47.00856" lon="6.47311">
        <ele>852.59997558594</ele>
        <time>2023-08-03T06:53:03.000Z</time>
      </trkpt>
      <trkpt lat="47.00859" lon="6.47317">
        <ele>852.59997558594</ele>
        <time>2023-08-03T06:53:04.000Z</time>
      </trkpt>
      <trkpt lat="47.00878" lon="6.47348">
        <ele>853.20001220703</ele>
        <time>2023-08-03T06:53:10.000Z</time>
      </trkpt>
      <trkpt lat="47.00881" lon="6.47353">
        <ele>853.20001220703</ele>
        <time>2023-08-03T06:53:11.000Z</time>
      </trkpt>
      <trkpt lat="47.00883" lon="6.47356">
        <ele>853.20001220703</ele>
        <time>2023-08-03T06:53:12.000Z</time>
      </trkpt>
      <trkpt lat="47.00893" lon="6.47372">
        <ele>853.59997558594</ele>
        <time>2023-08-03T06:53:16.000Z</time>
      </trkpt>
      <trkpt lat="47.00897" lon="6.47381">
        <ele>853.79998779297</ele>
        <time>2023-08-03T06:53:19.000Z</time>
      </trkpt>
      <trkpt lat="47.00898" lon="6.47388">
        <ele>854</ele>
        <time>2023-08-03T06:53:21.000Z</time>
      </trkpt>
      <trkpt lat="47.00901" lon="6.47404">
        <ele>854</ele>
        <time>2023-08-03T06:53:24.000Z</time>
      </trkpt>
      <trkpt lat="47.00903" lon="6.47411">
        <ele>854</ele>
        <time>2023-08-03T06:53:25.000Z</time>
      </trkpt>
      <trkpt lat="47.00917" lon="6.47444">
        <ele>853.40002441406</ele>
        <time>2023-08-03T06:53:29.000Z</time>
      </trkpt>
      <trkpt lat="47.00922" lon="6.47454">
        <ele>852.79998779297</ele>
        <time>2023-08-03T06:53:30.000Z</time>
      </trkpt>
      <trkpt lat="47.00931" lon="6.47464">
        <ele>852.20001220703</ele>
        <time>2023-08-03T06:53:32.000Z</time>
      </trkpt>
      <trkpt lat="47.00936" lon="6.47468">
        <ele>852</ele>
        <time>2023-08-03T06:53:33.000Z</time>
      </trkpt>
      <trkpt lat="47.00949" lon="6.47476">
        <ele>851.79998779297</ele>
        <time>2023-08-03T06:53:36.000Z</time>
      </trkpt>
      <trkpt lat="47.00958" lon="6.47481">
        <ele>851.79998779297</ele>
        <time>2023-08-03T06:53:38.000Z</time>
      </trkpt>
      <trkpt lat="47.00975" lon="6.47494">
        <ele>852.20001220703</ele>
        <time>2023-08-03T06:53:42.000Z</time>
      </trkpt>
      <trkpt lat="47.00984" lon="6.47499">
        <ele>852.20001220703</ele>
        <time>2023-08-03T06:53:44.000Z</time>
      </trkpt>
      <trkpt lat="47.00997" lon="6.47503">
        <ele>852.59997558594</ele>
        <time>2023-08-03T06:53:47.000Z</time>
      </trkpt>
      <trkpt lat="47.01013" lon="6.47518">
        <ele>853</ele>
        <time>2023-08-03T06:53:52.000Z</time>
      </trkpt>
      <trkpt lat="47.01016" lon="6.4752">
        <ele>853.20001220703</ele>
        <time>2023-08-03T06:53:53.000Z</time>
      </trkpt>
      <trkpt lat="47.01038" lon="6.47533">
        <ele>854</ele>
        <time>2023-08-03T06:53:59.000Z</time>
      </trkpt>
      <trkpt lat="47.01058" lon="6.47548">
        <ele>854.20001220703</ele>
        <time>2023-08-03T06:54:04.000Z</time>
      </trkpt>
      <trkpt lat="47.01064" lon="6.4755">
        <ele>854.40002441406</ele>
        <time>2023-08-03T06:54:06.000Z</time>
      </trkpt>
      <trkpt lat="47.01089" lon="6.47551">
        <ele>855</ele>
        <time>2023-08-03T06:54:12.000Z</time>
      </trkpt>
      <trkpt lat="47.01093" lon="6.47552">
        <ele>855.40002441406</ele>
        <time>2023-08-03T06:54:13.000Z</time>
      </trkpt>
      <trkpt lat="47.01116" lon="6.47567">
        <ele>855.79998779297</ele>
        <time>2023-08-03T06:54:19.000Z</time>
      </trkpt>
      <trkpt lat="47.0112" lon="6.4757">
        <ele>855.79998779297</ele>
        <time>2023-08-03T06:54:20.000Z</time>
      </trkpt>
      <trkpt lat="47.01146" lon="6.47588">
        <ele>856.20001220703</ele>
        <time>2023-08-03T06:54:26.000Z</time>
      </trkpt>
      <trkpt lat="47.0115" lon="6.47591">
        <ele>856.20001220703</ele>
        <time>2023-08-03T06:54:27.000Z</time>
      </trkpt>
      <trkpt lat="47.01167" lon="6.47603">
        <ele>856.40002441406</ele>
        <time>2023-08-03T06:54:31.000Z</time>
      </trkpt>
      <trkpt lat="47.01172" lon="6.47606">
        <ele>856.40002441406</ele>
        <time>2023-08-03T06:54:32.000Z</time>
      </trkpt>
      <trkpt lat="47.01196" lon="6.47623">
        <ele>856.79998779297</ele>
        <time>2023-08-03T06:54:38.000Z</time>
      </trkpt>
      <trkpt lat="47.0123" lon="6.47644">
        <ele>857</ele>
        <time>2023-08-03T06:54:46.000Z</time>
      </trkpt>
      <trkpt lat="47.01234" lon="6.47648">
        <ele>857.20001220703</ele>
        <time>2023-08-03T06:54:48.000Z</time>
      </trkpt>
      <trkpt lat="47.01235" lon="6.4765">
        <ele>857.20001220703</ele>
        <time>2023-08-03T06:54:49.000Z</time>
      </trkpt>
      <trkpt lat="47.01237" lon="6.47652">
        <ele>857.20001220703</ele>
        <time>2023-08-03T06:54:50.000Z</time>
      </trkpt>
      <trkpt lat="47.01244" lon="6.47654">
        <ele>857.20001220703</ele>
        <time>2023-08-03T06:54:53.000Z</time>
      </trkpt>
      <trkpt lat="47.01247" lon="6.47656">
        <ele>857.40002441406</ele>
        <time>2023-08-03T06:54:54.000Z</time>
      </trkpt>
      <trkpt lat="47.01248" lon="6.47658">
        <ele>857.40002441406</ele>
        <time>2023-08-03T06:54:55.000Z</time>
      </trkpt>
      <trkpt lat="47.01251" lon="6.4766">
        <ele>857.40002441406</ele>
        <time>2023-08-03T06:54:56.000Z</time>
      </trkpt>
      <trkpt lat="47.01269" lon="6.47673">
        <ele>857.59997558594</ele>
        <time>2023-08-03T06:55:02.000Z</time>
      </trkpt>
      <trkpt lat="47.01306" lon="6.47698">
        <ele>857.79998779297</ele>
        <time>2023-08-03T06:55:11.000Z</time>
      </trkpt>
      <trkpt lat="47.01345" lon="6.47725">
        <ele>858.20001220703</ele>
        <time>2023-08-03T06:55:19.000Z</time>
      </trkpt>
      <trkpt lat="47.01354" lon="6.47731">
        <ele>858.40002441406</ele>
        <time>2023-08-03T06:55:21.000Z</time>
      </trkpt>
      <trkpt lat="47.01384" lon="6.47751">
        <ele>858.59997558594</ele>
        <time>2023-08-03T06:55:27.000Z</time>
      </trkpt>
      <trkpt lat="47.01434" lon="6.47785">
        <ele>859.20001220703</ele>
        <time>2023-08-03T06:55:37.000Z</time>
      </trkpt>
      <trkpt lat="47.01439" lon="6.47789">
        <ele>859.40002441406</ele>
        <time>2023-08-03T06:55:38.000Z</time>
      </trkpt>
      <trkpt lat="47.01444" lon="6.47792">
        <ele>859.40002441406</ele>
        <time>2023-08-03T06:55:39.000Z</time>
      </trkpt>
      <trkpt lat="47.01469" lon="6.4781">
        <ele>859.79998779297</ele>
        <time>2023-08-03T06:55:44.000Z</time>
      </trkpt>
      <trkpt lat="47.01509" lon="6.47836">
        <ele>860.40002441406</ele>
        <time>2023-08-03T06:55:52.000Z</time>
      </trkpt>
      <trkpt lat="47.01519" lon="6.47843">
        <ele>860.59997558594</ele>
        <time>2023-08-03T06:55:54.000Z</time>
      </trkpt>
      <trkpt lat="47.01569" lon="6.4787">
        <ele>861</ele>
        <time>2023-08-03T06:56:03.000Z</time>
      </trkpt>
      <trkpt lat="47.0161" lon="6.47893">
        <ele>861.20001220703</ele>
        <time>2023-08-03T06:56:11.000Z</time>
      </trkpt>
      <trkpt lat="47.0165" lon="6.47922">
        <ele>861.20001220703</ele>
        <time>2023-08-03T06:56:19.000Z</time>
      </trkpt>
      <trkpt lat="47.01693" lon="6.47967">
        <ele>861.20001220703</ele>
        <time>2023-08-03T06:56:28.000Z</time>
      </trkpt>
      <trkpt lat="47.01733" lon="6.48029">
        <ele>861.40002441406</ele>
        <time>2023-08-03T06:56:38.000Z</time>
      </trkpt>
      <trkpt lat="47.01743" lon="6.48051">
        <ele>861.40002441406</ele>
        <time>2023-08-03T06:56:41.000Z</time>
      </trkpt>
      <trkpt lat="47.01756" lon="6.48085">
        <ele>861.59997558594</ele>
        <time>2023-08-03T06:56:46.000Z</time>
      </trkpt>
      <trkpt lat="47.01771" lon="6.48139">
        <ele>862.20001220703</ele>
        <time>2023-08-03T06:56:53.000Z</time>
      </trkpt>
      <trkpt lat="47.01781" lon="6.48198">
        <ele>862.40002441406</ele>
        <time>2023-08-03T06:57:00.000Z</time>
      </trkpt>
      <trkpt lat="47.01782" lon="6.48204">
        <ele>862.59997558594</ele>
        <time>2023-08-03T06:57:01.000Z</time>
      </trkpt>
      <trkpt lat="47.0179" lon="6.48279">
        <ele>863</ele>
        <time>2023-08-03T06:57:10.000Z</time>
      </trkpt>
      <trkpt lat="47.01795" lon="6.4833">
        <ele>863.59997558594</ele>
        <time>2023-08-03T06:57:16.000Z</time>
      </trkpt>
      <trkpt lat="47.01798" lon="6.48346">
        <ele>863.59997558594</ele>
        <time>2023-08-03T06:57:18.000Z</time>
      </trkpt>
      <trkpt lat="47.01805" lon="6.48404">
        <ele>863.79998779297</ele>
        <time>2023-08-03T06:57:25.000Z</time>
      </trkpt>
      <trkpt lat="47.01816" lon="6.48452">
        <ele>864.20001220703</ele>
        <time>2023-08-03T06:57:31.000Z</time>
      </trkpt>
      <trkpt lat="47.01819" lon="6.4846">
        <ele>864.40002441406</ele>
        <time>2023-08-03T06:57:32.000Z</time>
      </trkpt>
      <trkpt lat="47.01823" lon="6.48473">
        <ele>864.40002441406</ele>
        <time>2023-08-03T06:57:34.000Z</time>
      </trkpt>
      <trkpt lat="47.01828" lon="6.4849">
        <ele>864.59997558594</ele>
        <time>2023-08-03T06:57:36.000Z</time>
      </trkpt>
      <trkpt lat="47.0183" lon="6.48496">
        <ele>864.59997558594</ele>
        <time>2023-08-03T06:57:37.000Z</time>
      </trkpt>
      <trkpt lat="47.01835" lon="6.4851">
        <ele>864.79998779297</ele>
        <time>2023-08-03T06:57:39.000Z</time>
      </trkpt>
      <trkpt lat="47.01844" lon="6.48533">
        <ele>865</ele>
        <time>2023-08-03T06:57:42.000Z</time>
      </trkpt>
      <trkpt lat="47.01851" lon="6.48546">
        <ele>865.20001220703</ele>
        <time>2023-08-03T06:57:44.000Z</time>
      </trkpt>
      <trkpt lat="47.01864" lon="6.48568">
        <ele>865.20001220703</ele>
        <time>2023-08-03T06:57:47.000Z</time>
      </trkpt>
      <trkpt lat="47.01898" lon="6.48616">
        <ele>865</ele>
        <time>2023-08-03T06:57:55.000Z</time>
      </trkpt>
      <trkpt lat="47.01907" lon="6.48627">
        <ele>865</ele>
        <time>2023-08-03T06:57:57.000Z</time>
      </trkpt>
      <trkpt lat="47.01921" lon="6.48644">
        <ele>865</ele>
        <time>2023-08-03T06:58:00.000Z</time>
      </trkpt>
      <trkpt lat="47.01961" lon="6.48679">
        <ele>865.20001220703</ele>
        <time>2023-08-03T06:58:08.000Z</time>
      </trkpt>
      <trkpt lat="47.01978" lon="6.48691">
        <ele>865.20001220703</ele>
        <time>2023-08-03T06:58:11.000Z</time>
      </trkpt>
      <trkpt lat="47.02" lon="6.48704">
        <ele>865.40002441406</ele>
        <time>2023-08-03T06:58:15.000Z</time>
      </trkpt>
      <trkpt lat="47.02052" lon="6.48724">
        <ele>865.40002441406</ele>
        <time>2023-08-03T06:58:24.000Z</time>
      </trkpt>
      <trkpt lat="47.0209" lon="6.48731">
        <ele>865.59997558594</ele>
        <time>2023-08-03T06:58:30.000Z</time>
      </trkpt>
      <trkpt lat="47.02101" lon="6.48731">
        <ele>865.59997558594</ele>
        <time>2023-08-03T06:58:32.000Z</time>
      </trkpt>
      <trkpt lat="47.02109" lon="6.48731">
        <ele>865.59997558594</ele>
        <time>2023-08-03T06:58:33.000Z</time>
      </trkpt>
      <trkpt lat="47.02151" lon="6.48729">
        <ele>865.59997558594</ele>
        <time>2023-08-03T06:58:40.000Z</time>
      </trkpt>
      <trkpt lat="47.02162" lon="6.48727">
        <ele>865.40002441406</ele>
        <time>2023-08-03T06:58:44.000Z</time>
      </trkpt>
      <trkpt lat="47.0217" lon="6.48726">
        <ele>864.59997558594</ele>
        <time>2023-08-03T06:58:49.000Z</time>
      </trkpt>
      <trkpt lat="47.02176" lon="6.48725">
        <ele>863.20001220703</ele>
        <time>2023-08-03T06:58:53.000Z</time>
      </trkpt>
      <trkpt lat="47.02178" lon="6.48725">
        <ele>862.20001220703</ele>
        <time>2023-08-03T06:58:56.000Z</time>
      </trkpt>
      <trkpt lat="47.02178" lon="6.48725">
        <ele>862</ele>
        <time>2023-08-03T06:58:57.000Z</time>
      </trkpt>
      <trkpt lat="47.02179" lon="6.48725">
        <ele>861.59997558594</ele>
        <time>2023-08-03T06:58:59.000Z</time>
      </trkpt>
      <trkpt lat="47.02215" lon="6.48723">
        <ele>865.40002441406</ele>
        <time>2023-08-03T06:59:42.000Z</time>
      </trkpt>
      <trkpt lat="47.02219" lon="6.48722">
        <ele>865.40002441406</ele>
        <time>2023-08-03T06:59:44.000Z</time>
      </trkpt>
      <trkpt lat="47.02234" lon="6.48718">
        <ele>865.20001220703</ele>
        <time>2023-08-03T06:59:49.000Z</time>
      </trkpt>
      <trkpt lat="47.02256" lon="6.48715">
        <ele>865.20001220703</ele>
        <time>2023-08-03T06:59:55.000Z</time>
      </trkpt>
      <trkpt lat="47.02284" lon="6.48712">
        <ele>865</ele>
        <time>2023-08-03T07:00:02.000Z</time>
      </trkpt>
      <trkpt lat="47.02305" lon="6.48712">
        <ele>865</ele>
        <time>2023-08-03T07:00:07.000Z</time>
      </trkpt>
      <trkpt lat="47.02336" lon="6.48707">
        <ele>865</ele>
        <time>2023-08-03T07:00:12.000Z</time>
      </trkpt>
      <trkpt lat="47.02371" lon="6.48705">
        <ele>865</ele>
        <time>2023-08-03T07:00:17.000Z</time>
      </trkpt>
      <trkpt lat="47.02418" lon="6.487">
        <ele>865</ele>
        <time>2023-08-03T07:00:24.000Z</time>
      </trkpt>
      <trkpt lat="47.0247" lon="6.48693">
        <ele>865</ele>
        <time>2023-08-03T07:00:32.000Z</time>
      </trkpt>
      <trkpt lat="47.02529" lon="6.48687">
        <ele>865</ele>
        <time>2023-08-03T07:00:41.000Z</time>
      </trkpt>
      <trkpt lat="47.02535" lon="6.48686">
        <ele>865</ele>
        <time>2023-08-03T07:00:42.000Z</time>
      </trkpt>
      <trkpt lat="47.02565" lon="6.48683">
        <ele>865</ele>
        <time>2023-08-03T07:00:48.000Z</time>
      </trkpt>
      <trkpt lat="47.02571" lon="6.48685">
        <ele>864.79998779297</ele>
        <time>2023-08-03T07:00:51.000Z</time>
      </trkpt>
      <trkpt lat="47.02573" lon="6.48684">
        <ele>865</ele>
        <time>2023-08-03T07:00:52.000Z</time>
      </trkpt>
      <trkpt lat="47.02582" lon="6.48684">
        <ele>864.79998779297</ele>
        <time>2023-08-03T07:00:55.000Z</time>
      </trkpt>
      <trkpt lat="47.02585" lon="6.48684">
        <ele>864.79998779297</ele>
        <time>2023-08-03T07:00:56.000Z</time>
      </trkpt>
      <trkpt lat="47.02595" lon="6.48683">
        <ele>864.79998779297</ele>
        <time>2023-08-03T07:00:58.000Z</time>
      </trkpt>
      <trkpt lat="47.02599" lon="6.48683">
        <ele>864.79998779297</ele>
        <time>2023-08-03T07:00:59.000Z</time>
      </trkpt>
      <trkpt lat="47.0263" lon="6.48686">
        <ele>864.59997558594</ele>
        <time>2023-08-03T07:01:04.000Z</time>
      </trkpt>
      <trkpt lat="47.02672" lon="6.48695">
        <ele>864.59997558594</ele>
        <time>2023-08-03T07:01:11.000Z</time>
      </trkpt>
      <trkpt lat="47.0273" lon="6.4871">
        <ele>864.79998779297</ele>
        <time>2023-08-03T07:01:20.000Z</time>
      </trkpt>
      <trkpt lat="47.02736" lon="6.48712">
        <ele>864.79998779297</ele>
        <time>2023-08-03T07:01:21.000Z</time>
      </trkpt>
      <trkpt lat="47.02741" lon="6.48713">
        <ele>864.79998779297</ele>
        <time>2023-08-03T07:01:22.000Z</time>
      </trkpt>
      <trkpt lat="47.02755" lon="6.48719">
        <ele>864.79998779297</ele>
        <time>2023-08-03T07:01:25.000Z</time>
      </trkpt>
      <trkpt lat="47.02794" lon="6.48736">
        <ele>864.79998779297</ele>
        <time>2023-08-03T07:01:32.000Z</time>
      </trkpt>
      <trkpt lat="47.02838" lon="6.4876">
        <ele>864.79998779297</ele>
        <time>2023-08-03T07:01:40.000Z</time>
      </trkpt>
      <trkpt lat="47.02889" lon="6.48792">
        <ele>865</ele>
        <time>2023-08-03T07:01:49.000Z</time>
      </trkpt>
      <trkpt lat="47.02901" lon="6.488">
        <ele>865</ele>
        <time>2023-08-03T07:01:51.000Z</time>
      </trkpt>
      <trkpt lat="47.02945" lon="6.48836">
        <ele>865.20001220703</ele>
        <time>2023-08-03T07:01:59.000Z</time>
      </trkpt>
      <trkpt lat="47.02995" lon="6.48883">
        <ele>865</ele>
        <time>2023-08-03T07:02:08.000Z</time>
      </trkpt>
      <trkpt lat="47.03032" lon="6.48924">
        <ele>865</ele>
        <time>2023-08-03T07:02:15.000Z</time>
      </trkpt>
      <trkpt lat="47.03074" lon="6.48979">
        <ele>864.79998779297</ele>
        <time>2023-08-03T07:02:23.000Z</time>
      </trkpt>
      <trkpt lat="47.0308" lon="6.48988">
        <ele>865</ele>
        <time>2023-08-03T07:02:24.000Z</time>
      </trkpt>
      <trkpt lat="47.03104" lon="6.49021">
        <ele>864.59997558594</ele>
        <time>2023-08-03T07:02:29.000Z</time>
      </trkpt>
      <trkpt lat="47.03109" lon="6.4903">
        <ele>864.59997558594</ele>
        <time>2023-08-03T07:02:30.000Z</time>
      </trkpt>
      <trkpt lat="47.03138" lon="6.49083">
        <ele>864.59997558594</ele>
        <time>2023-08-03T07:02:37.000Z</time>
      </trkpt>
      <trkpt lat="47.03171" lon="6.49148">
        <ele>864.59997558594</ele>
        <time>2023-08-03T07:02:45.000Z</time>
      </trkpt>
      <trkpt lat="47.03187" lon="6.49178">
        <ele>864.40002441406</ele>
        <time>2023-08-03T07:02:49.000Z</time>
      </trkpt>
      <trkpt lat="47.03192" lon="6.49185">
        <ele>864.40002441406</ele>
        <time>2023-08-03T07:02:50.000Z</time>
      </trkpt>
      <trkpt lat="47.03215" lon="6.49235">
        <ele>864.40002441406</ele>
        <time>2023-08-03T07:02:56.000Z</time>
      </trkpt>
      <trkpt lat="47.03223" lon="6.49251">
        <ele>864.40002441406</ele>
        <time>2023-08-03T07:02:58.000Z</time>
      </trkpt>
      <trkpt lat="47.03231" lon="6.49267">
        <ele>864.40002441406</ele>
        <time>2023-08-03T07:03:00.000Z</time>
      </trkpt>
      <trkpt lat="47.03239" lon="6.49284">
        <ele>864.40002441406</ele>
        <time>2023-08-03T07:03:02.000Z</time>
      </trkpt>
      <trkpt lat="47.03265" lon="6.4934">
        <ele>864.40002441406</ele>
        <time>2023-08-03T07:03:09.000Z</time>
      </trkpt>
      <trkpt lat="47.03296" lon="6.49409">
        <ele>864.40002441406</ele>
        <time>2023-08-03T07:03:17.000Z</time>
      </trkpt>
      <trkpt lat="47.03319" lon="6.49445">
        <ele>864.40002441406</ele>
        <time>2023-08-03T07:03:22.000Z</time>
      </trkpt>
      <trkpt lat="47.03323" lon="6.49452">
        <ele>864.40002441406</ele>
        <time>2023-08-03T07:03:23.000Z</time>
      </trkpt>
      <trkpt lat="47.03346" lon="6.49485">
        <ele>864.40002441406</ele>
        <time>2023-08-03T07:03:28.000Z</time>
      </trkpt>
      <trkpt lat="47.03351" lon="6.49491">
        <ele>864.40002441406</ele>
        <time>2023-08-03T07:03:29.000Z</time>
      </trkpt>
      <trkpt lat="47.03355" lon="6.49496">
        <ele>864.40002441406</ele>
        <time>2023-08-03T07:03:30.000Z</time>
      </trkpt>
      <trkpt lat="47.03365" lon="6.49504">
        <ele>864.40002441406</ele>
        <time>2023-08-03T07:03:32.000Z</time>
      </trkpt>
      <trkpt lat="47.03371" lon="6.49509">
        <ele>864.40002441406</ele>
        <time>2023-08-03T07:03:33.000Z</time>
      </trkpt>
      <trkpt lat="47.03406" lon="6.49533">
        <ele>864.20001220703</ele>
        <time>2023-08-03T07:03:39.000Z</time>
      </trkpt>
      <trkpt lat="47.03412" lon="6.49537">
        <ele>864.20001220703</ele>
        <time>2023-08-03T07:03:40.000Z</time>
      </trkpt>
      <trkpt lat="47.03424" lon="6.49544">
        <ele>864</ele>
        <time>2023-08-03T07:03:42.000Z</time>
      </trkpt>
      <trkpt lat="47.03437" lon="6.49551">
        <ele>864</ele>
        <time>2023-08-03T07:03:44.000Z</time>
      </trkpt>
      <trkpt lat="47.03477" lon="6.49565">
        <ele>863.79998779297</ele>
        <time>2023-08-03T07:03:50.000Z</time>
      </trkpt>
      <trkpt lat="47.03523" lon="6.49569">
        <ele>863.59997558594</ele>
        <time>2023-08-03T07:03:57.000Z</time>
      </trkpt>
      <trkpt lat="47.03555" lon="6.49563">
        <ele>863.40002441406</ele>
        <time>2023-08-03T07:04:02.000Z</time>
      </trkpt>
      <trkpt lat="47.03562" lon="6.49562">
        <ele>863.40002441406</ele>
        <time>2023-08-03T07:04:03.000Z</time>
      </trkpt>
      <trkpt lat="47.03572" lon="6.49559">
        <ele>863.40002441406</ele>
        <time>2023-08-03T07:04:05.000Z</time>
      </trkpt>
      <trkpt lat="47.03582" lon="6.49554">
        <ele>863.40002441406</ele>
        <time>2023-08-03T07:04:07.000Z</time>
      </trkpt>
      <trkpt lat="47.03607" lon="6.4954">
        <ele>863.40002441406</ele>
        <time>2023-08-03T07:04:11.000Z</time>
      </trkpt>
      <trkpt lat="47.03657" lon="6.49504">
        <ele>863.40002441406</ele>
        <time>2023-08-03T07:04:19.000Z</time>
      </trkpt>
      <trkpt lat="47.03704" lon="6.4946">
        <ele>863.20001220703</ele>
        <time>2023-08-03T07:04:27.000Z</time>
      </trkpt>
      <trkpt lat="47.03714" lon="6.49449">
        <ele>863</ele>
        <time>2023-08-03T07:04:29.000Z</time>
      </trkpt>
      <trkpt lat="47.03746" lon="6.49415">
        <ele>863</ele>
        <time>2023-08-03T07:04:35.000Z</time>
      </trkpt>
      <trkpt lat="47.03752" lon="6.4941">
        <ele>863</ele>
        <time>2023-08-03T07:04:36.000Z</time>
      </trkpt>
      <trkpt lat="47.03773" lon="6.4939">
        <ele>863</ele>
        <time>2023-08-03T07:04:40.000Z</time>
      </trkpt>
      <trkpt lat="47.03778" lon="6.49384">
        <ele>863</ele>
        <time>2023-08-03T07:04:41.000Z</time>
      </trkpt>
      <trkpt lat="47.03827" lon="6.49338">
        <ele>862.79998779297</ele>
        <time>2023-08-03T07:04:50.000Z</time>
      </trkpt>
      <trkpt lat="47.03839" lon="6.49328">
        <ele>862.79998779297</ele>
        <time>2023-08-03T07:04:52.000Z</time>
      </trkpt>
      <trkpt lat="47.03856" lon="6.49313">
        <ele>863</ele>
        <time>2023-08-03T07:04:55.000Z</time>
      </trkpt>
      <trkpt lat="47.03902" lon="6.49277">
        <ele>863</ele>
        <time>2023-08-03T07:05:03.000Z</time>
      </trkpt>
      <trkpt lat="47.03946" lon="6.49253">
        <ele>862.79998779297</ele>
        <time>2023-08-03T07:05:10.000Z</time>
      </trkpt>
      <trkpt lat="47.03997" lon="6.49232">
        <ele>862.79998779297</ele>
        <time>2023-08-03T07:05:18.000Z</time>
      </trkpt>
      <trkpt lat="47.04052" lon="6.49218">
        <ele>862.59997558594</ele>
        <time>2023-08-03T07:05:27.000Z</time>
      </trkpt>
      <trkpt lat="47.04082" lon="6.49215">
        <ele>862.40002441406</ele>
        <time>2023-08-03T07:05:33.000Z</time>
      </trkpt>
      <trkpt lat="47.04099" lon="6.49212">
        <ele>862.20001220703</ele>
        <time>2023-08-03T07:05:37.000Z</time>
      </trkpt>
      <trkpt lat="47.04106" lon="6.49207">
        <ele>862</ele>
        <time>2023-08-03T07:05:39.000Z</time>
      </trkpt>
      <trkpt lat="47.04113" lon="6.49201">
        <ele>861.79998779297</ele>
        <time>2023-08-03T07:05:41.000Z</time>
      </trkpt>
      <trkpt lat="47.04122" lon="6.49197">
        <ele>861.59997558594</ele>
        <time>2023-08-03T07:05:43.000Z</time>
      </trkpt>
      <trkpt lat="47.04126" lon="6.49197">
        <ele>861.40002441406</ele>
        <time>2023-08-03T07:05:44.000Z</time>
      </trkpt>
      <trkpt lat="47.0413" lon="6.49198">
        <ele>861.20001220703</ele>
        <time>2023-08-03T07:05:45.000Z</time>
      </trkpt>
      <trkpt lat="47.04135" lon="6.49206">
        <ele>860.59997558594</ele>
        <time>2023-08-03T07:05:47.000Z</time>
      </trkpt>
      <trkpt lat="47.0414" lon="6.49214">
        <ele>859.40002441406</ele>
        <time>2023-08-03T07:05:49.000Z</time>
      </trkpt>
      <trkpt lat="47.04146" lon="6.49218">
        <ele>858.79998779297</ele>
        <time>2023-08-03T07:05:51.000Z</time>
      </trkpt>
      <trkpt lat="47.0415" lon="6.49218">
        <ele>858.59997558594</ele>
        <time>2023-08-03T07:05:52.000Z</time>
      </trkpt>
      <trkpt lat="47.04157" lon="6.49216">
        <ele>858.40002441406</ele>
        <time>2023-08-03T07:05:54.000Z</time>
      </trkpt>
      <trkpt lat="47.0417" lon="6.49215">
        <ele>858.59997558594</ele>
        <time>2023-08-03T07:05:57.000Z</time>
      </trkpt>
      <trkpt lat="47.04192" lon="6.49217">
        <ele>859.59997558594</ele>
        <time>2023-08-03T07:06:03.000Z</time>
      </trkpt>
      <trkpt lat="47.04199" lon="6.49218">
        <ele>860.40002441406</ele>
        <time>2023-08-03T07:06:05.000Z</time>
      </trkpt>
      <trkpt lat="47.04202" lon="6.49218">
        <ele>860.59997558594</ele>
        <time>2023-08-03T07:06:06.000Z</time>
      </trkpt>
      <trkpt lat="47.04214" lon="6.4922">
        <ele>861.59997558594</ele>
        <time>2023-08-03T07:06:09.000Z</time>
      </trkpt>
      <trkpt lat="47.04226" lon="6.49222">
        <ele>862.20001220703</ele>
        <time>2023-08-03T07:06:12.000Z</time>
      </trkpt>
      <trkpt lat="47.04238" lon="6.49224">
        <ele>862.59997558594</ele>
        <time>2023-08-03T07:06:15.000Z</time>
      </trkpt>
      <trkpt lat="47.04255" lon="6.49227">
        <ele>863</ele>
        <time>2023-08-03T07:06:19.000Z</time>
      </trkpt>
      <trkpt lat="47.0427" lon="6.49228">
        <ele>863.20001220703</ele>
        <time>2023-08-03T07:06:22.000Z</time>
      </trkpt>
      <trkpt lat="47.04286" lon="6.49231">
        <ele>863.40002441406</ele>
        <time>2023-08-03T07:06:25.000Z</time>
      </trkpt>
      <trkpt lat="47.04302" lon="6.49233">
        <ele>863.79998779297</ele>
        <time>2023-08-03T07:06:28.000Z</time>
      </trkpt>
      <trkpt lat="47.04329" lon="6.49237">
        <ele>864</ele>
        <time>2023-08-03T07:06:33.000Z</time>
      </trkpt>
      <trkpt lat="47.04378" lon="6.49245">
        <ele>864.79998779297</ele>
        <time>2023-08-03T07:06:42.000Z</time>
      </trkpt>
      <trkpt lat="47.04384" lon="6.49246">
        <ele>864.79998779297</ele>
        <time>2023-08-03T07:06:43.000Z</time>
      </trkpt>
      <trkpt lat="47.04417" lon="6.49251">
        <ele>865.40002441406</ele>
        <time>2023-08-03T07:06:49.000Z</time>
      </trkpt>
      <trkpt lat="47.04456" lon="6.49257">
        <ele>865.79998779297</ele>
        <time>2023-08-03T07:06:55.000Z</time>
      </trkpt>
      <trkpt lat="47.04498" lon="6.49263">
        <ele>866.40002441406</ele>
        <time>2023-08-03T07:07:02.000Z</time>
      </trkpt>
      <trkpt lat="47.04555" lon="6.49273">
        <ele>866.79998779297</ele>
        <time>2023-08-03T07:07:12.000Z</time>
      </trkpt>
      <trkpt lat="47.04566" lon="6.49275">
        <ele>866.79998779297</ele>
        <time>2023-08-03T07:07:14.000Z</time>
      </trkpt>
      <trkpt lat="47.04583" lon="6.49277">
        <ele>867.20001220703</ele>
        <time>2023-08-03T07:07:17.000Z</time>
      </trkpt>
      <trkpt lat="47.04611" lon="6.49282">
        <ele>867.79998779297</ele>
        <time>2023-08-03T07:07:22.000Z</time>
      </trkpt>
      <trkpt lat="47.04616" lon="6.49283">
        <ele>867.79998779297</ele>
        <time>2023-08-03T07:07:23.000Z</time>
      </trkpt>
      <trkpt lat="47.04638" lon="6.49285">
        <ele>868.20001220703</ele>
        <time>2023-08-03T07:07:27.000Z</time>
      </trkpt>
      <trkpt lat="47.0466" lon="6.49288">
        <ele>868.59997558594</ele>
        <time>2023-08-03T07:07:31.000Z</time>
      </trkpt>
      <trkpt lat="47.04717" lon="6.49298">
        <ele>869.20001220703</ele>
        <time>2023-08-03T07:07:41.000Z</time>
      </trkpt>
      <trkpt lat="47.04735" lon="6.49301">
        <ele>869.20001220703</ele>
        <time>2023-08-03T07:07:44.000Z</time>
      </trkpt>
      <trkpt lat="47.04735" lon="6.49301">
        <ele>869.20001220703</ele>
        <time>2023-08-03T07:07:45.000Z</time>
      </trkpt>
      <trkpt lat="47.04792" lon="6.49308">
        <ele>870</ele>
        <time>2023-08-03T07:07:54.000Z</time>
      </trkpt>
      <trkpt lat="47.04808" lon="6.49309">
        <ele>870.40002441406</ele>
        <time>2023-08-03T07:07:57.000Z</time>
      </trkpt>
      <trkpt lat="47.04819" lon="6.49308">
        <ele>870.59997558594</ele>
        <time>2023-08-03T07:07:59.000Z</time>
      </trkpt>
      <trkpt lat="47.04839" lon="6.49302">
        <ele>871.20001220703</ele>
        <time>2023-08-03T07:08:03.000Z</time>
      </trkpt>
      <trkpt lat="47.04854" lon="6.49297">
        <ele>871.40002441406</ele>
        <time>2023-08-03T07:08:07.000Z</time>
      </trkpt>
      <trkpt lat="47.04871" lon="6.49289">
        <ele>871.59997558594</ele>
        <time>2023-08-03T07:08:13.000Z</time>
      </trkpt>
      <trkpt lat="47.04878" lon="6.49284">
        <ele>871.59997558594</ele>
        <time>2023-08-03T07:08:17.000Z</time>
      </trkpt>
      <trkpt lat="47.04879" lon="6.49286">
        <ele>871.59997558594</ele>
        <time>2023-08-03T07:08:18.000Z</time>
      </trkpt>
      <trkpt lat="47.04886" lon="6.49307">
        <ele>871.79998779297</ele>
        <time>2023-08-03T07:08:23.000Z</time>
      </trkpt>
      <trkpt lat="47.04893" lon="6.49338">
        <ele>872</ele>
        <time>2023-08-03T07:08:28.000Z</time>
      </trkpt>
      <trkpt lat="47.04895" lon="6.49345">
        <ele>872</ele>
        <time>2023-08-03T07:08:29.000Z</time>
      </trkpt>
      <trkpt lat="47.04901" lon="6.49356">
        <ele>872.20001220703</ele>
        <time>2023-08-03T07:08:31.000Z</time>
      </trkpt>
      <trkpt lat="47.04903" lon="6.4936">
        <ele>872.20001220703</ele>
        <time>2023-08-03T07:08:32.000Z</time>
      </trkpt>
      <trkpt lat="47.04906" lon="6.49365">
        <ele>872.40002441406</ele>
        <time>2023-08-03T07:08:33.000Z</time>
      </trkpt>
      <trkpt lat="47.04906" lon="6.49365">
        <ele>872.40002441406</ele>
        <time>2023-08-03T07:08:34.000Z</time>
      </trkpt>
      <trkpt lat="47.04913" lon="6.49386">
        <ele>872.79998779297</ele>
        <time>2023-08-03T07:08:37.000Z</time>
      </trkpt>
      <trkpt lat="47.04924" lon="6.49429">
        <ele>873.59997558594</ele>
        <time>2023-08-03T07:08:45.000Z</time>
      </trkpt>
      <trkpt lat="47.04926" lon="6.49434">
        <ele>873.79998779297</ele>
        <time>2023-08-03T07:08:46.000Z</time>
      </trkpt>
      <trkpt lat="47.04941" lon="6.49472">
        <ele>874.59997558594</ele>
        <time>2023-08-03T07:08:54.000Z</time>
      </trkpt>
      <trkpt lat="47.04944" lon="6.49477">
        <ele>874.79998779297</ele>
        <time>2023-08-03T07:08:55.000Z</time>
      </trkpt>
      <trkpt lat="47.04964" lon="6.49499">
        <ele>875.20001220703</ele>
        <time>2023-08-03T07:09:01.000Z</time>
      </trkpt>
      <trkpt lat="47.04972" lon="6.49505">
        <ele>875.59997558594</ele>
        <time>2023-08-03T07:09:03.000Z</time>
      </trkpt>
      <trkpt lat="47.04987" lon="6.49514">
        <ele>875.59997558594</ele>
        <time>2023-08-03T07:09:06.000Z</time>
      </trkpt>
      <trkpt lat="47.04992" lon="6.49515">
        <ele>875.59997558594</ele>
        <time>2023-08-03T07:09:07.000Z</time>
      </trkpt>
      <trkpt lat="47.05004" lon="6.49516">
        <ele>875.59997558594</ele>
        <time>2023-08-03T07:09:09.000Z</time>
      </trkpt>
      <trkpt lat="47.05017" lon="6.49515">
        <ele>875.40002441406</ele>
        <time>2023-08-03T07:09:11.000Z</time>
      </trkpt>
      <trkpt lat="47.05071" lon="6.495">
        <ele>875</ele>
        <time>2023-08-03T07:09:19.000Z</time>
      </trkpt>
      <trkpt lat="47.05122" lon="6.49483">
        <ele>873.59997558594</ele>
        <time>2023-08-03T07:09:26.000Z</time>
      </trkpt>
      <trkpt lat="47.05154" lon="6.49477">
        <ele>872.40002441406</ele>
        <time>2023-08-03T07:09:30.000Z</time>
      </trkpt>
      <trkpt lat="47.0517" lon="6.49476">
        <ele>871.59997558594</ele>
        <time>2023-08-03T07:09:32.000Z</time>
      </trkpt>
      <trkpt lat="47.05188" lon="6.49478">
        <ele>871.20001220703</ele>
        <time>2023-08-03T07:09:34.000Z</time>
      </trkpt>
      <trkpt lat="47.05219" lon="6.49487">
        <ele>870.40002441406</ele>
        <time>2023-08-03T07:09:38.000Z</time>
      </trkpt>
      <trkpt lat="47.05227" lon="6.49491">
        <ele>870.20001220703</ele>
        <time>2023-08-03T07:09:39.000Z</time>
      </trkpt>
      <trkpt lat="47.05259" lon="6.49515">
        <ele>869</ele>
        <time>2023-08-03T07:09:43.000Z</time>
      </trkpt>
      <trkpt lat="47.05284" lon="6.49535">
        <ele>867.59997558594</ele>
        <time>2023-08-03T07:09:47.000Z</time>
      </trkpt>
      <trkpt lat="47.05324" lon="6.49568">
        <ele>867</ele>
        <time>2023-08-03T07:09:51.000Z</time>
      </trkpt>
      <trkpt lat="47.05339" lon="6.4958">
        <ele>866.59997558594</ele>
        <time>2023-08-03T07:09:53.000Z</time>
      </trkpt>
      <trkpt lat="47.05393" lon="6.49623">
        <ele>865.79998779297</ele>
        <time>2023-08-03T07:10:00.000Z</time>
      </trkpt>
      <trkpt lat="47.05393" lon="6.49623">
        <ele>865.79998779297</ele>
        <time>2023-08-03T07:10:01.000Z</time>
      </trkpt>
      <trkpt lat="47.05445" lon="6.49665">
        <ele>865.59997558594</ele>
        <time>2023-08-03T07:10:07.000Z</time>
      </trkpt>
      <trkpt lat="47.0546" lon="6.49678">
        <ele>865.59997558594</ele>
        <time>2023-08-03T07:10:09.000Z</time>
      </trkpt>
      <trkpt lat="47.05489" lon="6.49702">
        <ele>865.20001220703</ele>
        <time>2023-08-03T07:10:13.000Z</time>
      </trkpt>
      <trkpt lat="47.05539" lon="6.49742">
        <ele>865</ele>
        <time>2023-08-03T07:10:20.000Z</time>
      </trkpt>
      <trkpt lat="47.05574" lon="6.4977">
        <ele>864.79998779297</ele>
        <time>2023-08-03T07:10:25.000Z</time>
      </trkpt>
      <trkpt lat="47.05623" lon="6.49808">
        <ele>864.59997558594</ele>
        <time>2023-08-03T07:10:32.000Z</time>
      </trkpt>
      <trkpt lat="47.05629" lon="6.49814">
        <ele>864.59997558594</ele>
        <time>2023-08-03T07:10:33.000Z</time>
      </trkpt>
      <trkpt lat="47.05672" lon="6.49859">
        <ele>865.20001220703</ele>
        <time>2023-08-03T07:10:40.000Z</time>
      </trkpt>
      <trkpt lat="47.05714" lon="6.49921">
        <ele>865.40002441406</ele>
        <time>2023-08-03T07:10:48.000Z</time>
      </trkpt>
      <trkpt lat="47.05724" lon="6.49936">
        <ele>865.40002441406</ele>
        <time>2023-08-03T07:10:50.000Z</time>
      </trkpt>
      <trkpt lat="47.05769" lon="6.50006">
        <ele>865.79998779297</ele>
        <time>2023-08-03T07:10:59.000Z</time>
      </trkpt>
      <trkpt lat="47.05794" lon="6.50044">
        <ele>866</ele>
        <time>2023-08-03T07:11:04.000Z</time>
      </trkpt>
      <trkpt lat="47.05834" lon="6.50105">
        <ele>866.20001220703</ele>
        <time>2023-08-03T07:11:12.000Z</time>
      </trkpt>
      <trkpt lat="47.05834" lon="6.50105">
        <ele>866.40002441406</ele>
        <time>2023-08-03T07:11:13.000Z</time>
      </trkpt>
      <trkpt lat="47.05855" lon="6.50135">
        <ele>866.40002441406</ele>
        <time>2023-08-03T07:11:16.000Z</time>
      </trkpt>
      <trkpt lat="47.05865" lon="6.50151">
        <ele>866.59997558594</ele>
        <time>2023-08-03T07:11:19.000Z</time>
      </trkpt>
      <trkpt lat="47.05876" lon="6.50165">
        <ele>866.59997558594</ele>
        <time>2023-08-03T07:11:20.000Z</time>
      </trkpt>
      <trkpt lat="47.05916" lon="6.50213">
        <ele>867</ele>
        <time>2023-08-03T07:11:28.000Z</time>
      </trkpt>
      <trkpt lat="47.05967" lon="6.50273">
        <ele>867.59997558594</ele>
        <time>2023-08-03T07:11:36.000Z</time>
      </trkpt>
      <trkpt lat="47.05983" lon="6.50294">
        <ele>867.59997558594</ele>
        <time>2023-08-03T07:11:39.000Z</time>
      </trkpt>
      <trkpt lat="47.05994" lon="6.50307">
        <ele>867.79998779297</ele>
        <time>2023-08-03T07:11:41.000Z</time>
      </trkpt>
      <trkpt lat="47.06005" lon="6.5032">
        <ele>868</ele>
        <time>2023-08-03T07:11:44.000Z</time>
      </trkpt>
      <trkpt lat="47.06047" lon="6.50371">
        <ele>868.79998779297</ele>
        <time>2023-08-03T07:11:51.000Z</time>
      </trkpt>
      <trkpt lat="47.06087" lon="6.50418">
        <ele>870</ele>
        <time>2023-08-03T07:11:59.000Z</time>
      </trkpt>
      <trkpt lat="47.06093" lon="6.50425">
        <ele>870.20001220703</ele>
        <time>2023-08-03T07:12:00.000Z</time>
      </trkpt>
      <trkpt lat="47.06129" lon="6.50467">
        <ele>870.59997558594</ele>
        <time>2023-08-03T07:12:07.000Z</time>
      </trkpt>
      <trkpt lat="47.06173" lon="6.50521">
        <ele>870.40002441406</ele>
        <time>2023-08-03T07:12:15.000Z</time>
      </trkpt>
      <trkpt lat="47.06179" lon="6.50528">
        <ele>870.20001220703</ele>
        <time>2023-08-03T07:12:16.000Z</time>
      </trkpt>
      <trkpt lat="47.06225" lon="6.50581">
        <ele>869.79998779297</ele>
        <time>2023-08-03T07:12:24.000Z</time>
      </trkpt>
      <trkpt lat="47.06237" lon="6.50595">
        <ele>869.79998779297</ele>
        <time>2023-08-03T07:12:26.000Z</time>
      </trkpt>
      <trkpt lat="47.06282" lon="6.50652">
        <ele>869.40002441406</ele>
        <time>2023-08-03T07:12:34.000Z</time>
      </trkpt>
      <trkpt lat="47.06288" lon="6.50661">
        <ele>869.40002441406</ele>
        <time>2023-08-03T07:12:35.000Z</time>
      </trkpt>
      <trkpt lat="47.06307" lon="6.50687">
        <ele>869.40002441406</ele>
        <time>2023-08-03T07:12:39.000Z</time>
      </trkpt>
      <trkpt lat="47.06313" lon="6.50693">
        <ele>869.40002441406</ele>
        <time>2023-08-03T07:12:40.000Z</time>
      </trkpt>
      <trkpt lat="47.06343" lon="6.50717">
        <ele>869.59997558594</ele>
        <time>2023-08-03T07:12:46.000Z</time>
      </trkpt>
      <trkpt lat="47.06354" lon="6.50728">
        <ele>869.79998779297</ele>
        <time>2023-08-03T07:12:47.000Z</time>
      </trkpt>
      <trkpt lat="47.06365" lon="6.50741">
        <ele>869.79998779297</ele>
        <time>2023-08-03T07:12:49.000Z</time>
      </trkpt>
      <trkpt lat="47.06369" lon="6.50749">
        <ele>870</ele>
        <time>2023-08-03T07:12:50.000Z</time>
      </trkpt>
      <trkpt lat="47.06385" lon="6.50779">
        <ele>870.40002441406</ele>
        <time>2023-08-03T07:12:54.000Z</time>
      </trkpt>
      <trkpt lat="47.06391" lon="6.50795">
        <ele>870.79998779297</ele>
        <time>2023-08-03T07:12:56.000Z</time>
      </trkpt>
      <trkpt lat="47.06394" lon="6.50803">
        <ele>871</ele>
        <time>2023-08-03T07:12:57.000Z</time>
      </trkpt>
      <trkpt lat="47.06411" lon="6.50843">
        <ele>872</ele>
        <time>2023-08-03T07:13:02.000Z</time>
      </trkpt>
      <trkpt lat="47.06414" lon="6.50851">
        <ele>872</ele>
        <time>2023-08-03T07:13:03.000Z</time>
      </trkpt>
      <trkpt lat="47.06417" lon="6.50859">
        <ele>872.20001220703</ele>
        <time>2023-08-03T07:13:04.000Z</time>
      </trkpt>
      <trkpt lat="47.06425" lon="6.50875">
        <ele>872.59997558594</ele>
        <time>2023-08-03T07:13:07.000Z</time>
      </trkpt>
      <trkpt lat="47.06443" lon="6.50912">
        <ele>873.20001220703</ele>
        <time>2023-08-03T07:13:12.000Z</time>
      </trkpt>
      <trkpt lat="47.06449" lon="6.50926">
        <ele>873.20001220703</ele>
        <time>2023-08-03T07:13:13.000Z</time>
      </trkpt>
      <trkpt lat="47.06451" lon="6.50933">
        <ele>873.40002441406</ele>
        <time>2023-08-03T07:13:14.000Z</time>
      </trkpt>
      <trkpt lat="47.06458" lon="6.50952">
        <ele>873.20001220703</ele>
        <time>2023-08-03T07:13:16.000Z</time>
      </trkpt>
      <trkpt lat="47.06464" lon="6.5097">
        <ele>873.40002441406</ele>
        <time>2023-08-03T07:13:18.000Z</time>
      </trkpt>
      <trkpt lat="47.06468" lon="6.50999">
        <ele>873.79998779297</ele>
        <time>2023-08-03T07:13:21.000Z</time>
      </trkpt>
      <trkpt lat="47.06469" lon="6.5101">
        <ele>874</ele>
        <time>2023-08-03T07:13:22.000Z</time>
      </trkpt>
      <trkpt lat="47.06472" lon="6.51021">
        <ele>874</ele>
        <time>2023-08-03T07:13:23.000Z</time>
      </trkpt>
      <trkpt lat="47.06481" lon="6.5105">
        <ele>874.40002441406</ele>
        <time>2023-08-03T07:13:26.000Z</time>
      </trkpt>
      <trkpt lat="47.06499" lon="6.51101">
        <ele>874.59997558594</ele>
        <time>2023-08-03T07:13:32.000Z</time>
      </trkpt>
      <trkpt lat="47.06506" lon="6.51117">
        <ele>874.79998779297</ele>
        <time>2023-08-03T07:13:34.000Z</time>
      </trkpt>
      <trkpt lat="47.0652" lon="6.51137">
        <ele>875</ele>
        <time>2023-08-03T07:13:38.000Z</time>
      </trkpt>
      <trkpt lat="47.06536" lon="6.51157">
        <ele>875.40002441406</ele>
        <time>2023-08-03T07:13:43.000Z</time>
      </trkpt>
      <trkpt lat="47.06551" lon="6.51173">
        <ele>875.40002441406</ele>
        <time>2023-08-03T07:13:49.000Z</time>
      </trkpt>
      <trkpt lat="47.0656" lon="6.51183">
        <ele>875.59997558594</ele>
        <time>2023-08-03T07:13:50.000Z</time>
      </trkpt>
      <trkpt lat="47.06579" lon="6.512">
        <ele>875.79998779297</ele>
        <time>2023-08-03T07:13:54.000Z</time>
      </trkpt>
      <trkpt lat="47.06584" lon="6.51205">
        <ele>875.79998779297</ele>
        <time>2023-08-03T07:13:55.000Z</time>
      </trkpt>
      <trkpt lat="47.06602" lon="6.51223">
        <ele>876</ele>
        <time>2023-08-03T07:14:00.000Z</time>
      </trkpt>
      <trkpt lat="47.06608" lon="6.51228">
        <ele>875.79998779297</ele>
        <time>2023-08-03T07:14:01.000Z</time>
      </trkpt>
      <trkpt lat="47.06622" lon="6.51239">
        <ele>876.20001220703</ele>
        <time>2023-08-03T07:14:03.000Z</time>
      </trkpt>
      <trkpt lat="47.06634" lon="6.51247">
        <ele>876.20001220703</ele>
        <time>2023-08-03T07:14:04.000Z</time>
      </trkpt>
      <trkpt lat="47.06652" lon="6.51266">
        <ele>876.40002441406</ele>
        <time>2023-08-03T07:14:07.000Z</time>
      </trkpt>
      <trkpt lat="47.06665" lon="6.51275">
        <ele>876.40002441406</ele>
        <time>2023-08-03T07:14:09.000Z</time>
      </trkpt>
      <trkpt lat="47.06716" lon="6.51309">
        <ele>876.40002441406</ele>
        <time>2023-08-03T07:14:16.000Z</time>
      </trkpt>
      <trkpt lat="47.06754" lon="6.5134">
        <ele>876.79998779297</ele>
        <time>2023-08-03T07:14:22.000Z</time>
      </trkpt>
      <trkpt lat="47.06773" lon="6.51357">
        <ele>876.79998779297</ele>
        <time>2023-08-03T07:14:26.000Z</time>
      </trkpt>
      <trkpt lat="47.06798" lon="6.51374">
        <ele>877</ele>
        <time>2023-08-03T07:14:29.000Z</time>
      </trkpt>
      <trkpt lat="47.06814" lon="6.51387">
        <ele>877.40002441406</ele>
        <time>2023-08-03T07:14:32.000Z</time>
      </trkpt>
      <trkpt lat="47.06818" lon="6.51391">
        <ele>877.40002441406</ele>
        <time>2023-08-03T07:14:33.000Z</time>
      </trkpt>
      <trkpt lat="47.06824" lon="6.51401">
        <ele>877.40002441406</ele>
        <time>2023-08-03T07:14:35.000Z</time>
      </trkpt>
      <trkpt lat="47.06828" lon="6.51405">
        <ele>877.40002441406</ele>
        <time>2023-08-03T07:14:36.000Z</time>
      </trkpt>
      <trkpt lat="47.06834" lon="6.51409">
        <ele>877.40002441406</ele>
        <time>2023-08-03T07:14:37.000Z</time>
      </trkpt>
      <trkpt lat="47.06847" lon="6.51422">
        <ele>877.59997558594</ele>
        <time>2023-08-03T07:14:40.000Z</time>
      </trkpt>
      <trkpt lat="47.06854" lon="6.5143">
        <ele>877.79998779297</ele>
        <time>2023-08-03T07:14:42.000Z</time>
      </trkpt>
      <trkpt lat="47.06854" lon="6.5143">
        <ele>877.79998779297</ele>
        <time>2023-08-03T07:14:43.000Z</time>
      </trkpt>
      <trkpt lat="47.06875" lon="6.51449">
        <ele>878</ele>
        <time>2023-08-03T07:14:47.000Z</time>
      </trkpt>
      <trkpt lat="47.06875" lon="6.51449">
        <ele>878</ele>
        <time>2023-08-03T07:14:48.000Z</time>
      </trkpt>
      <trkpt lat="47.06884" lon="6.51459">
        <ele>878.20001220703</ele>
        <time>2023-08-03T07:14:50.000Z</time>
      </trkpt>
      <trkpt lat="47.06898" lon="6.5147">
        <ele>878.40002441406</ele>
        <time>2023-08-03T07:14:52.000Z</time>
      </trkpt>
      <trkpt lat="47.06898" lon="6.5147">
        <ele>878.20001220703</ele>
        <time>2023-08-03T07:14:53.000Z</time>
      </trkpt>
      <trkpt lat="47.06902" lon="6.51474">
        <ele>878.40002441406</ele>
        <time>2023-08-03T07:14:54.000Z</time>
      </trkpt>
      <trkpt lat="47.06919" lon="6.51489">
        <ele>878.59997558594</ele>
        <time>2023-08-03T07:14:56.000Z</time>
      </trkpt>
      <trkpt lat="47.06919" lon="6.51489">
        <ele>878.59997558594</ele>
        <time>2023-08-03T07:14:57.000Z</time>
      </trkpt>
      <trkpt lat="47.0696" lon="6.5152">
        <ele>878.79998779297</ele>
        <time>2023-08-03T07:15:03.000Z</time>
      </trkpt>
      <trkpt lat="47.06969" lon="6.51528">
        <ele>879</ele>
        <time>2023-08-03T07:15:05.000Z</time>
      </trkpt>
      <trkpt lat="47.06986" lon="6.51543">
        <ele>879</ele>
        <time>2023-08-03T07:15:07.000Z</time>
      </trkpt>
      <trkpt lat="47.06994" lon="6.51548">
        <ele>879.20001220703</ele>
        <time>2023-08-03T07:15:08.000Z</time>
      </trkpt>
      <trkpt lat="47.06999" lon="6.51551">
        <ele>879.20001220703</ele>
        <time>2023-08-03T07:15:09.000Z</time>
      </trkpt>
      <trkpt lat="47.0702" lon="6.51566">
        <ele>879.59997558594</ele>
        <time>2023-08-03T07:15:12.000Z</time>
      </trkpt>
      <trkpt lat="47.07028" lon="6.51573">
        <ele>879.59997558594</ele>
        <time>2023-08-03T07:15:14.000Z</time>
      </trkpt>
      <trkpt lat="47.07062" lon="6.51602">
        <ele>879.79998779297</ele>
        <time>2023-08-03T07:15:20.000Z</time>
      </trkpt>
      <trkpt lat="47.07069" lon="6.51608">
        <ele>879.79998779297</ele>
        <time>2023-08-03T07:15:21.000Z</time>
      </trkpt>
      <trkpt lat="47.07083" lon="6.51615">
        <ele>880</ele>
        <time>2023-08-03T07:15:23.000Z</time>
      </trkpt>
      <trkpt lat="47.07087" lon="6.51619">
        <ele>880</ele>
        <time>2023-08-03T07:15:24.000Z</time>
      </trkpt>
      <trkpt lat="47.07092" lon="6.51623">
        <ele>880</ele>
        <time>2023-08-03T07:15:25.000Z</time>
      </trkpt>
      <trkpt lat="47.07103" lon="6.51631">
        <ele>880.20001220703</ele>
        <time>2023-08-03T07:15:27.000Z</time>
      </trkpt>
      <trkpt lat="47.07103" lon="6.51631">
        <ele>880.20001220703</ele>
        <time>2023-08-03T07:15:28.000Z</time>
      </trkpt>
      <trkpt lat="47.0713" lon="6.51659">
        <ele>880.20001220703</ele>
        <time>2023-08-03T07:15:33.000Z</time>
      </trkpt>
      <trkpt lat="47.07136" lon="6.51663">
        <ele>880.20001220703</ele>
        <time>2023-08-03T07:15:34.000Z</time>
      </trkpt>
      <trkpt lat="47.07161" lon="6.51685">
        <ele>880.79998779297</ele>
        <time>2023-08-03T07:15:39.000Z</time>
      </trkpt>
      <trkpt lat="47.07166" lon="6.5169">
        <ele>881</ele>
        <time>2023-08-03T07:15:40.000Z</time>
      </trkpt>
      <trkpt lat="47.07194" lon="6.51712">
        <ele>882</ele>
        <time>2023-08-03T07:15:47.000Z</time>
      </trkpt>
      <trkpt lat="47.07198" lon="6.51715">
        <ele>882.20001220703</ele>
        <time>2023-08-03T07:15:48.000Z</time>
      </trkpt>
      <trkpt lat="47.0721" lon="6.51724">
        <ele>882.40002441406</ele>
        <time>2023-08-03T07:15:51.000Z</time>
      </trkpt>
      <trkpt lat="47.07224" lon="6.51738">
        <ele>883</ele>
        <time>2023-08-03T07:15:55.000Z</time>
      </trkpt>
      <trkpt lat="47.07237" lon="6.51753">
        <ele>883.20001220703</ele>
        <time>2023-08-03T07:15:58.000Z</time>
      </trkpt>
      <trkpt lat="47.07242" lon="6.51757">
        <ele>883.20001220703</ele>
        <time>2023-08-03T07:15:59.000Z</time>
      </trkpt>
      <trkpt lat="47.07246" lon="6.5176">
        <ele>883.20001220703</ele>
        <time>2023-08-03T07:16:00.000Z</time>
      </trkpt>
      <trkpt lat="47.07258" lon="6.51772">
        <ele>883.40002441406</ele>
        <time>2023-08-03T07:16:03.000Z</time>
      </trkpt>
      <trkpt lat="47.07268" lon="6.5178">
        <ele>883.59997558594</ele>
        <time>2023-08-03T07:16:06.000Z</time>
      </trkpt>
      <trkpt lat="47.07275" lon="6.51785">
        <ele>884</ele>
        <time>2023-08-03T07:16:08.000Z</time>
      </trkpt>
      <trkpt lat="47.07287" lon="6.51796">
        <ele>884.59997558594</ele>
        <time>2023-08-03T07:16:12.000Z</time>
      </trkpt>
      <trkpt lat="47.0731" lon="6.51814">
        <ele>885</ele>
        <time>2023-08-03T07:16:16.000Z</time>
      </trkpt>
      <trkpt lat="47.07314" lon="6.51818">
        <ele>885.20001220703</ele>
        <time>2023-08-03T07:16:17.000Z</time>
      </trkpt>
      <trkpt lat="47.07338" lon="6.51842">
        <ele>885.79998779297</ele>
        <time>2023-08-03T07:16:21.000Z</time>
      </trkpt>
      <trkpt lat="47.07361" lon="6.51873">
        <ele>886</ele>
        <time>2023-08-03T07:16:26.000Z</time>
      </trkpt>
      <trkpt lat="47.07361" lon="6.51873">
        <ele>886.20001220703</ele>
        <time>2023-08-03T07:16:27.000Z</time>
      </trkpt>
      <trkpt lat="47.0739" lon="6.51905">
        <ele>886.79998779297</ele>
        <time>2023-08-03T07:16:32.000Z</time>
      </trkpt>
      <trkpt lat="47.07404" lon="6.51928">
        <ele>887</ele>
        <time>2023-08-03T07:16:36.000Z</time>
      </trkpt>
      <trkpt lat="47.07415" lon="6.51944">
        <ele>887.20001220703</ele>
        <time>2023-08-03T07:16:39.000Z</time>
      </trkpt>
      <trkpt lat="47.07454" lon="6.52">
        <ele>887.79998779297</ele>
        <time>2023-08-03T07:16:50.000Z</time>
      </trkpt>
      <trkpt lat="47.07458" lon="6.52005">
        <ele>887.79998779297</ele>
        <time>2023-08-03T07:16:51.000Z</time>
      </trkpt>
      <trkpt lat="47.07472" lon="6.52025">
        <ele>888</ele>
        <time>2023-08-03T07:16:55.000Z</time>
      </trkpt>
      <trkpt lat="47.07494" lon="6.52056">
        <ele>888.59997558594</ele>
        <time>2023-08-03T07:17:01.000Z</time>
      </trkpt>
      <trkpt lat="47.07522" lon="6.52095">
        <ele>889.20001220703</ele>
        <time>2023-08-03T07:17:09.000Z</time>
      </trkpt>
      <trkpt lat="47.07525" lon="6.52099">
        <ele>889.59997558594</ele>
        <time>2023-08-03T07:17:10.000Z</time>
      </trkpt>
      <trkpt lat="47.07531" lon="6.52107">
        <ele>889.79998779297</ele>
        <time>2023-08-03T07:17:12.000Z</time>
      </trkpt>
      <trkpt lat="47.07541" lon="6.52122">
        <ele>890.40002441406</ele>
        <time>2023-08-03T07:17:15.000Z</time>
      </trkpt>
      <trkpt lat="47.07544" lon="6.52126">
        <ele>890.40002441406</ele>
        <time>2023-08-03T07:17:16.000Z</time>
      </trkpt>
      <trkpt lat="47.07573" lon="6.52167">
        <ele>891</ele>
        <time>2023-08-03T07:17:24.000Z</time>
      </trkpt>
      <trkpt lat="47.07593" lon="6.52195">
        <ele>891.40002441406</ele>
        <time>2023-08-03T07:17:30.000Z</time>
      </trkpt>
      <trkpt lat="47.07597" lon="6.522">
        <ele>891.40002441406</ele>
        <time>2023-08-03T07:17:31.000Z</time>
      </trkpt>
      <trkpt lat="47.076" lon="6.52205">
        <ele>891.40002441406</ele>
        <time>2023-08-03T07:17:32.000Z</time>
      </trkpt>
      <trkpt lat="47.07626" lon="6.52243">
        <ele>892.40002441406</ele>
        <time>2023-08-03T07:17:40.000Z</time>
      </trkpt>
      <trkpt lat="47.07648" lon="6.52276">
        <ele>893.40002441406</ele>
        <time>2023-08-03T07:17:47.000Z</time>
      </trkpt>
      <trkpt lat="47.07648" lon="6.52276">
        <ele>893.59997558594</ele>
        <time>2023-08-03T07:17:48.000Z</time>
      </trkpt>
      <trkpt lat="47.0766" lon="6.52294">
        <ele>894</ele>
        <time>2023-08-03T07:17:51.000Z</time>
      </trkpt>
      <trkpt lat="47.07668" lon="6.52304">
        <ele>894.59997558594</ele>
        <time>2023-08-03T07:17:54.000Z</time>
      </trkpt>
      <trkpt lat="47.0768" lon="6.52321">
        <ele>895.20001220703</ele>
        <time>2023-08-03T07:17:57.000Z</time>
      </trkpt>
      <trkpt lat="47.07689" lon="6.52334">
        <ele>895.59997558594</ele>
        <time>2023-08-03T07:18:00.000Z</time>
      </trkpt>
      <trkpt lat="47.07712" lon="6.52366">
        <ele>896.59997558594</ele>
        <time>2023-08-03T07:18:07.000Z</time>
      </trkpt>
      <trkpt lat="47.07715" lon="6.5237">
        <ele>896.59997558594</ele>
        <time>2023-08-03T07:18:08.000Z</time>
      </trkpt>
      <trkpt lat="47.07735" lon="6.524">
        <ele>897.59997558594</ele>
        <time>2023-08-03T07:18:15.000Z</time>
      </trkpt>
      <trkpt lat="47.07746" lon="6.52417">
        <ele>898.79998779297</ele>
        <time>2023-08-03T07:18:19.000Z</time>
      </trkpt>
      <trkpt lat="47.07749" lon="6.52422">
        <ele>898.79998779297</ele>
        <time>2023-08-03T07:18:20.000Z</time>
      </trkpt>
      <trkpt lat="47.07755" lon="6.5243">
        <ele>899.20001220703</ele>
        <time>2023-08-03T07:18:22.000Z</time>
      </trkpt>
      <trkpt lat="47.07762" lon="6.52443">
        <ele>899.79998779297</ele>
        <time>2023-08-03T07:18:25.000Z</time>
      </trkpt>
      <trkpt lat="47.07766" lon="6.5245">
        <ele>900.40002441406</ele>
        <time>2023-08-03T07:18:27.000Z</time>
      </trkpt>
      <trkpt lat="47.07771" lon="6.52458">
        <ele>901.40002441406</ele>
        <time>2023-08-03T07:18:29.000Z</time>
      </trkpt>
      <trkpt lat="47.07777" lon="6.52468">
        <ele>902.20001220703</ele>
        <time>2023-08-03T07:18:32.000Z</time>
      </trkpt>
      <trkpt lat="47.07781" lon="6.52474">
        <ele>902.40002441406</ele>
        <time>2023-08-03T07:18:33.000Z</time>
      </trkpt>
      <trkpt lat="47.07796" lon="6.52496">
        <ele>903.20001220703</ele>
        <time>2023-08-03T07:18:38.000Z</time>
      </trkpt>
      <trkpt lat="47.078" lon="6.52501">
        <ele>903.59997558594</ele>
        <time>2023-08-03T07:18:39.000Z</time>
      </trkpt>
      <trkpt lat="47.07811" lon="6.52517">
        <ele>904.20001220703</ele>
        <time>2023-08-03T07:18:43.000Z</time>
      </trkpt>
      <trkpt lat="47.07817" lon="6.52525">
        <ele>905</ele>
        <time>2023-08-03T07:18:45.000Z</time>
      </trkpt>
      <trkpt lat="47.0782" lon="6.52529">
        <ele>905.40002441406</ele>
        <time>2023-08-03T07:18:46.000Z</time>
      </trkpt>
      <trkpt lat="47.07832" lon="6.52548">
        <ele>906.59997558594</ele>
        <time>2023-08-03T07:18:51.000Z</time>
      </trkpt>
      <trkpt lat="47.07848" lon="6.52567">
        <ele>907.79998779297</ele>
        <time>2023-08-03T07:18:57.000Z</time>
      </trkpt>
      <trkpt lat="47.0786" lon="6.52581">
        <ele>908.79998779297</ele>
        <time>2023-08-03T07:19:01.000Z</time>
      </trkpt>
      <trkpt lat="47.07867" lon="6.52592">
        <ele>909</ele>
        <time>2023-08-03T07:19:03.000Z</time>
      </trkpt>
      <trkpt lat="47.07875" lon="6.52601">
        <ele>909.79998779297</ele>
        <time>2023-08-03T07:19:07.000Z</time>
      </trkpt>
      <trkpt lat="47.07882" lon="6.52609">
        <ele>909.79998779297</ele>
        <time>2023-08-03T07:19:08.000Z</time>
      </trkpt>
      <trkpt lat="47.07906" lon="6.5264">
        <ele>910.40002441406</ele>
        <time>2023-08-03T07:19:14.000Z</time>
      </trkpt>
      <trkpt lat="47.07913" lon="6.52653">
        <ele>910.79998779297</ele>
        <time>2023-08-03T07:19:17.000Z</time>
      </trkpt>
      <trkpt lat="47.07921" lon="6.52668">
        <ele>911.20001220703</ele>
        <time>2023-08-03T07:19:19.000Z</time>
      </trkpt>
      <trkpt lat="47.0794" lon="6.52689">
        <ele>912</ele>
        <time>2023-08-03T07:19:24.000Z</time>
      </trkpt>
      <trkpt lat="47.07961" lon="6.52719">
        <ele>912.20001220703</ele>
        <time>2023-08-03T07:19:29.000Z</time>
      </trkpt>
      <trkpt lat="47.07988" lon="6.52758">
        <ele>912.79998779297</ele>
        <time>2023-08-03T07:19:37.000Z</time>
      </trkpt>
      <trkpt lat="47.0802" lon="6.52801">
        <ele>913.59997558594</ele>
        <time>2023-08-03T07:19:46.000Z</time>
      </trkpt>
      <trkpt lat="47.08022" lon="6.52805">
        <ele>913.79998779297</ele>
        <time>2023-08-03T07:19:47.000Z</time>
      </trkpt>
      <trkpt lat="47.08026" lon="6.5281">
        <ele>914</ele>
        <time>2023-08-03T07:19:48.000Z</time>
      </trkpt>
      <trkpt lat="47.08053" lon="6.52848">
        <ele>915.20001220703</ele>
        <time>2023-08-03T07:19:56.000Z</time>
      </trkpt>
      <trkpt lat="47.08085" lon="6.52894">
        <ele>915.79998779297</ele>
        <time>2023-08-03T07:20:05.000Z</time>
      </trkpt>
      <trkpt lat="47.08119" lon="6.52942">
        <ele>916</ele>
        <time>2023-08-03T07:20:13.000Z</time>
      </trkpt>
      <trkpt lat="47.08153" lon="6.52991">
        <ele>916</ele>
        <time>2023-08-03T07:20:21.000Z</time>
      </trkpt>
      <trkpt lat="47.08178" lon="6.53039">
        <ele>916</ele>
        <time>2023-08-03T07:20:28.000Z</time>
      </trkpt>
      <trkpt lat="47.08184" lon="6.53052">
        <ele>916.20001220703</ele>
        <time>2023-08-03T07:20:30.000Z</time>
      </trkpt>
      <trkpt lat="47.08192" lon="6.53079">
        <ele>916.40002441406</ele>
        <time>2023-08-03T07:20:34.000Z</time>
      </trkpt>
      <trkpt lat="47.08204" lon="6.53117">
        <ele>917.59997558594</ele>
        <time>2023-08-03T07:20:40.000Z</time>
      </trkpt>
      <trkpt lat="47.08208" lon="6.5313">
        <ele>918</ele>
        <time>2023-08-03T07:20:42.000Z</time>
      </trkpt>
      <trkpt lat="47.08215" lon="6.53156">
        <ele>918.59997558594</ele>
        <time>2023-08-03T07:20:46.000Z</time>
      </trkpt>
      <trkpt lat="47.08222" lon="6.53181">
        <ele>919</ele>
        <time>2023-08-03T07:20:50.000Z</time>
      </trkpt>
      <trkpt lat="47.08229" lon="6.53206">
        <ele>919.59997558594</ele>
        <time>2023-08-03T07:20:54.000Z</time>
      </trkpt>
      <trkpt lat="47.08242" lon="6.53237">
        <ele>920.59997558594</ele>
        <time>2023-08-03T07:20:59.000Z</time>
      </trkpt>
      <trkpt lat="47.08245" lon="6.53242">
        <ele>920.79998779297</ele>
        <time>2023-08-03T07:21:00.000Z</time>
      </trkpt>
      <trkpt lat="47.08255" lon="6.53258">
        <ele>921.20001220703</ele>
        <time>2023-08-03T07:21:03.000Z</time>
      </trkpt>
      <trkpt lat="47.08265" lon="6.5327">
        <ele>921.79998779297</ele>
        <time>2023-08-03T07:21:06.000Z</time>
      </trkpt>
      <trkpt lat="47.08281" lon="6.53284">
        <ele>923</ele>
        <time>2023-08-03T07:21:11.000Z</time>
      </trkpt>
      <trkpt lat="47.08284" lon="6.53287">
        <ele>923.20001220703</ele>
        <time>2023-08-03T07:21:12.000Z</time>
      </trkpt>
      <trkpt lat="47.08301" lon="6.53304">
        <ele>924.20001220703</ele>
        <time>2023-08-03T07:21:17.000Z</time>
      </trkpt>
      <trkpt lat="47.08304" lon="6.53307">
        <ele>924.40002441406</ele>
        <time>2023-08-03T07:21:18.000Z</time>
      </trkpt>
      <trkpt lat="47.08325" lon="6.53333">
        <ele>925</ele>
        <time>2023-08-03T07:21:24.000Z</time>
      </trkpt>
      <trkpt lat="47.08332" lon="6.53342">
        <ele>925.59997558594</ele>
        <time>2023-08-03T07:21:26.000Z</time>
      </trkpt>
      <trkpt lat="47.08344" lon="6.53358">
        <ele>926</ele>
        <time>2023-08-03T07:21:30.000Z</time>
      </trkpt>
      <trkpt lat="47.0835" lon="6.53365">
        <ele>926.59997558594</ele>
        <time>2023-08-03T07:21:32.000Z</time>
      </trkpt>
      <trkpt lat="47.08357" lon="6.53372">
        <ele>927.40002441406</ele>
        <time>2023-08-03T07:21:34.000Z</time>
      </trkpt>
      <trkpt lat="47.08371" lon="6.5339">
        <ele>928.59997558594</ele>
        <time>2023-08-03T07:21:39.000Z</time>
      </trkpt>
      <trkpt lat="47.0838" lon="6.53403">
        <ele>929.59997558594</ele>
        <time>2023-08-03T07:21:43.000Z</time>
      </trkpt>
      <trkpt lat="47.08383" lon="6.53406">
        <ele>929.79998779297</ele>
        <time>2023-08-03T07:21:44.000Z</time>
      </trkpt>
      <trkpt lat="47.08388" lon="6.53414">
        <ele>930.20001220703</ele>
        <time>2023-08-03T07:21:46.000Z</time>
      </trkpt>
      <trkpt lat="47.0839" lon="6.53416">
        <ele>930.40002441406</ele>
        <time>2023-08-03T07:21:47.000Z</time>
      </trkpt>
      <trkpt lat="47.08393" lon="6.5342">
        <ele>931</ele>
        <time>2023-08-03T07:21:48.000Z</time>
      </trkpt>
      <trkpt lat="47.08402" lon="6.53434">
        <ele>931.59997558594</ele>
        <time>2023-08-03T07:21:51.000Z</time>
      </trkpt>
      <trkpt lat="47.0841" lon="6.53443">
        <ele>932</ele>
        <time>2023-08-03T07:21:53.000Z</time>
      </trkpt>
      <trkpt lat="47.08418" lon="6.53454">
        <ele>932.59997558594</ele>
        <time>2023-08-03T07:21:56.000Z</time>
      </trkpt>
      <trkpt lat="47.08421" lon="6.53457">
        <ele>932.79998779297</ele>
        <time>2023-08-03T07:21:57.000Z</time>
      </trkpt>
      <trkpt lat="47.0843" lon="6.53468">
        <ele>933.59997558594</ele>
        <time>2023-08-03T07:22:01.000Z</time>
      </trkpt>
      <trkpt lat="47.08433" lon="6.53475">
        <ele>934</ele>
        <time>2023-08-03T07:22:03.000Z</time>
      </trkpt>
      <trkpt lat="47.08444" lon="6.5349">
        <ele>934.20001220703</ele>
        <time>2023-08-03T07:22:07.000Z</time>
      </trkpt>
      <trkpt lat="47.08467" lon="6.53519">
        <ele>934.20001220703</ele>
        <time>2023-08-03T07:22:12.000Z</time>
      </trkpt>
      <trkpt lat="47.08498" lon="6.53541">
        <ele>934.59997558594</ele>
        <time>2023-08-03T07:22:18.000Z</time>
      </trkpt>
      <trkpt lat="47.08517" lon="6.53548">
        <ele>934.79998779297</ele>
        <time>2023-08-03T07:22:22.000Z</time>
      </trkpt>
      <trkpt lat="47.08528" lon="6.53551">
        <ele>935</ele>
        <time>2023-08-03T07:22:24.000Z</time>
      </trkpt>
      <trkpt lat="47.08562" lon="6.5356">
        <ele>935.40002441406</ele>
        <time>2023-08-03T07:22:30.000Z</time>
      </trkpt>
      <trkpt lat="47.08568" lon="6.5356">
        <ele>935.40002441406</ele>
        <time>2023-08-03T07:22:31.000Z</time>
      </trkpt>
      <trkpt lat="47.08605" lon="6.53566">
        <ele>935.40002441406</ele>
        <time>2023-08-03T07:22:37.000Z</time>
      </trkpt>
      <trkpt lat="47.08611" lon="6.53567">
        <ele>935.40002441406</ele>
        <time>2023-08-03T07:22:38.000Z</time>
      </trkpt>
      <trkpt lat="47.08653" lon="6.5358">
        <ele>934.40002441406</ele>
        <time>2023-08-03T07:22:44.000Z</time>
      </trkpt>
      <trkpt lat="47.08676" lon="6.53585">
        <ele>933.40002441406</ele>
        <time>2023-08-03T07:22:47.000Z</time>
      </trkpt>
      <trkpt lat="47.08703" lon="6.53592">
        <ele>931.79998779297</ele>
        <time>2023-08-03T07:22:50.000Z</time>
      </trkpt>
      <trkpt lat="47.08728" lon="6.53596">
        <ele>930.59997558594</ele>
        <time>2023-08-03T07:22:53.000Z</time>
      </trkpt>
      <trkpt lat="47.08747" lon="6.53597">
        <ele>929.20001220703</ele>
        <time>2023-08-03T07:22:55.000Z</time>
      </trkpt>
      <trkpt lat="47.08756" lon="6.53598">
        <ele>928.79998779297</ele>
        <time>2023-08-03T07:22:56.000Z</time>
      </trkpt>
      <trkpt lat="47.08776" lon="6.53599">
        <ele>928</ele>
        <time>2023-08-03T07:22:58.000Z</time>
      </trkpt>
      <trkpt lat="47.08796" lon="6.53603">
        <ele>927</ele>
        <time>2023-08-03T07:23:00.000Z</time>
      </trkpt>
      <trkpt lat="47.08808" lon="6.53606">
        <ele>926.59997558594</ele>
        <time>2023-08-03T07:23:01.000Z</time>
      </trkpt>
      <trkpt lat="47.08817" lon="6.53609">
        <ele>925.59997558594</ele>
        <time>2023-08-03T07:23:02.000Z</time>
      </trkpt>
      <trkpt lat="47.08834" lon="6.53622">
        <ele>924.40002441406</ele>
        <time>2023-08-03T07:23:04.000Z</time>
      </trkpt>
      <trkpt lat="47.08851" lon="6.53642">
        <ele>923.20001220703</ele>
        <time>2023-08-03T07:23:06.000Z</time>
      </trkpt>
      <trkpt lat="47.08874" lon="6.53669">
        <ele>921.59997558594</ele>
        <time>2023-08-03T07:23:09.000Z</time>
      </trkpt>
      <trkpt lat="47.08896" lon="6.53692">
        <ele>920.20001220703</ele>
        <time>2023-08-03T07:23:12.000Z</time>
      </trkpt>
      <trkpt lat="47.08902" lon="6.53701">
        <ele>919.59997558594</ele>
        <time>2023-08-03T07:23:13.000Z</time>
      </trkpt>
      <trkpt lat="47.08908" lon="6.53712">
        <ele>918.79998779297</ele>
        <time>2023-08-03T07:23:14.000Z</time>
      </trkpt>
      <trkpt lat="47.08913" lon="6.53724">
        <ele>918.40002441406</ele>
        <time>2023-08-03T07:23:15.000Z</time>
      </trkpt>
      <trkpt lat="47.08916" lon="6.5374">
        <ele>917.40002441406</ele>
        <time>2023-08-03T07:23:16.000Z</time>
      </trkpt>
      <trkpt lat="47.08919" lon="6.53754">
        <ele>916.20001220703</ele>
        <time>2023-08-03T07:23:17.000Z</time>
      </trkpt>
      <trkpt lat="47.08926" lon="6.53781">
        <ele>914.79998779297</ele>
        <time>2023-08-03T07:23:19.000Z</time>
      </trkpt>
      <trkpt lat="47.0893" lon="6.53796">
        <ele>914.40002441406</ele>
        <time>2023-08-03T07:23:20.000Z</time>
      </trkpt>
      <trkpt lat="47.08933" lon="6.53813">
        <ele>913.79998779297</ele>
        <time>2023-08-03T07:23:21.000Z</time>
      </trkpt>
      <trkpt lat="47.08936" lon="6.53827">
        <ele>912.79998779297</ele>
        <time>2023-08-03T07:23:22.000Z</time>
      </trkpt>
      <trkpt lat="47.08939" lon="6.5384">
        <ele>912.40002441406</ele>
        <time>2023-08-03T07:23:23.000Z</time>
      </trkpt>
      <trkpt lat="47.08942" lon="6.53848">
        <ele>911.59997558594</ele>
        <time>2023-08-03T07:23:24.000Z</time>
      </trkpt>
      <trkpt lat="47.08955" lon="6.53863">
        <ele>910.20001220703</ele>
        <time>2023-08-03T07:23:26.000Z</time>
      </trkpt>
      <trkpt lat="47.08968" lon="6.5386">
        <ele>908.79998779297</ele>
        <time>2023-08-03T07:23:28.000Z</time>
      </trkpt>
      <trkpt lat="47.08976" lon="6.53855">
        <ele>907.79998779297</ele>
        <time>2023-08-03T07:23:29.000Z</time>
      </trkpt>
      <trkpt lat="47.08983" lon="6.5385">
        <ele>907.40002441406</ele>
        <time>2023-08-03T07:23:30.000Z</time>
      </trkpt>
      <trkpt lat="47.08999" lon="6.53841">
        <ele>906.20001220703</ele>
        <time>2023-08-03T07:23:32.000Z</time>
      </trkpt>
      <trkpt lat="47.09017" lon="6.53843">
        <ele>905</ele>
        <time>2023-08-03T07:23:34.000Z</time>
      </trkpt>
      <trkpt lat="47.09027" lon="6.53846">
        <ele>904.59997558594</ele>
        <time>2023-08-03T07:23:35.000Z</time>
      </trkpt>
      <trkpt lat="47.09037" lon="6.53848">
        <ele>903.79998779297</ele>
        <time>2023-08-03T07:23:36.000Z</time>
      </trkpt>
      <trkpt lat="47.09058" lon="6.53852">
        <ele>902.79998779297</ele>
        <time>2023-08-03T07:23:38.000Z</time>
      </trkpt>
      <trkpt lat="47.09067" lon="6.53857">
        <ele>902.40002441406</ele>
        <time>2023-08-03T07:23:39.000Z</time>
      </trkpt>
      <trkpt lat="47.09078" lon="6.53862">
        <ele>902</ele>
        <time>2023-08-03T07:23:40.000Z</time>
      </trkpt>
      <trkpt lat="47.09088" lon="6.5387">
        <ele>901.20001220703</ele>
        <time>2023-08-03T07:23:41.000Z</time>
      </trkpt>
      <trkpt lat="47.09112" lon="6.53897">
        <ele>900</ele>
        <time>2023-08-03T07:23:43.000Z</time>
      </trkpt>
      <trkpt lat="47.09127" lon="6.53926">
        <ele>899.20001220703</ele>
        <time>2023-08-03T07:23:45.000Z</time>
      </trkpt>
      <trkpt lat="47.09134" lon="6.53942">
        <ele>898.20001220703</ele>
        <time>2023-08-03T07:23:46.000Z</time>
      </trkpt>
      <trkpt lat="47.09152" lon="6.53984">
        <ele>897</ele>
        <time>2023-08-03T07:23:49.000Z</time>
      </trkpt>
      <trkpt lat="47.09156" lon="6.53996">
        <ele>896.20001220703</ele>
        <time>2023-08-03T07:23:50.000Z</time>
      </trkpt>
      <trkpt lat="47.09163" lon="6.54013">
        <ele>895.59997558594</ele>
        <time>2023-08-03T07:23:51.000Z</time>
      </trkpt>
      <trkpt lat="47.09176" lon="6.54037">
        <ele>894.20001220703</ele>
        <time>2023-08-03T07:23:53.000Z</time>
      </trkpt>
      <trkpt lat="47.09181" lon="6.54053">
        <ele>893.79998779297</ele>
        <time>2023-08-03T07:23:54.000Z</time>
      </trkpt>
      <trkpt lat="47.09186" lon="6.54072">
        <ele>893</ele>
        <time>2023-08-03T07:23:55.000Z</time>
      </trkpt>
      <trkpt lat="47.09195" lon="6.54103">
        <ele>891.79998779297</ele>
        <time>2023-08-03T07:23:57.000Z</time>
      </trkpt>
      <trkpt lat="47.09209" lon="6.54143">
        <ele>890.20001220703</ele>
        <time>2023-08-03T07:24:00.000Z</time>
      </trkpt>
      <trkpt lat="47.09218" lon="6.54172">
        <ele>889</ele>
        <time>2023-08-03T07:24:02.000Z</time>
      </trkpt>
      <trkpt lat="47.09227" lon="6.542">
        <ele>888</ele>
        <time>2023-08-03T07:24:04.000Z</time>
      </trkpt>
      <trkpt lat="47.09231" lon="6.54215">
        <ele>887.20001220703</ele>
        <time>2023-08-03T07:24:05.000Z</time>
      </trkpt>
      <trkpt lat="47.09235" lon="6.5423">
        <ele>886.40002441406</ele>
        <time>2023-08-03T07:24:06.000Z</time>
      </trkpt>
      <trkpt lat="47.0924" lon="6.54245">
        <ele>884.59997558594</ele>
        <time>2023-08-03T07:24:08.000Z</time>
      </trkpt>
      <trkpt lat="47.0925" lon="6.54285">
        <ele>883</ele>
        <time>2023-08-03T07:24:10.000Z</time>
      </trkpt>
      <trkpt lat="47.09255" lon="6.54297">
        <ele>882.59997558594</ele>
        <time>2023-08-03T07:24:11.000Z</time>
      </trkpt>
      <trkpt lat="47.09259" lon="6.54309">
        <ele>881.40002441406</ele>
        <time>2023-08-03T07:24:12.000Z</time>
      </trkpt>
      <trkpt lat="47.09263" lon="6.54319">
        <ele>880.20001220703</ele>
        <time>2023-08-03T07:24:13.000Z</time>
      </trkpt>
      <trkpt lat="47.09276" lon="6.54329">
        <ele>878.20001220703</ele>
        <time>2023-08-03T07:24:15.000Z</time>
      </trkpt>
      <trkpt lat="47.09292" lon="6.54328">
        <ele>876</ele>
        <time>2023-08-03T07:24:17.000Z</time>
      </trkpt>
      <trkpt lat="47.093" lon="6.54323">
        <ele>874.59997558594</ele>
        <time>2023-08-03T07:24:18.000Z</time>
      </trkpt>
      <trkpt lat="47.09307" lon="6.54315">
        <ele>874</ele>
        <time>2023-08-03T07:24:19.000Z</time>
      </trkpt>
      <trkpt lat="47.09313" lon="6.54306">
        <ele>873</ele>
        <time>2023-08-03T07:24:20.000Z</time>
      </trkpt>
      <trkpt lat="47.09319" lon="6.54296">
        <ele>872.40002441406</ele>
        <time>2023-08-03T07:24:21.000Z</time>
      </trkpt>
      <trkpt lat="47.09325" lon="6.54287">
        <ele>871.79998779297</ele>
        <time>2023-08-03T07:24:22.000Z</time>
      </trkpt>
      <trkpt lat="47.09335" lon="6.54272">
        <ele>870.79998779297</ele>
        <time>2023-08-03T07:24:24.000Z</time>
      </trkpt>
      <trkpt lat="47.0934" lon="6.54267">
        <ele>870</ele>
        <time>2023-08-03T07:24:25.000Z</time>
      </trkpt>
      <trkpt lat="47.09345" lon="6.54263">
        <ele>869.59997558594</ele>
        <time>2023-08-03T07:24:26.000Z</time>
      </trkpt>
      <trkpt lat="47.09358" lon="6.54257">
        <ele>868.40002441406</ele>
        <time>2023-08-03T07:24:29.000Z</time>
      </trkpt>
      <trkpt lat="47.09364" lon="6.5425">
        <ele>867.59997558594</ele>
        <time>2023-08-03T07:24:31.000Z</time>
      </trkpt>
      <trkpt lat="47.09364" lon="6.54245">
        <ele>867.20001220703</ele>
        <time>2023-08-03T07:24:32.000Z</time>
      </trkpt>
      <trkpt lat="47.09361" lon="6.54217">
        <ele>866.59997558594</ele>
        <time>2023-08-03T07:24:36.000Z</time>
      </trkpt>
      <trkpt lat="47.09356" lon="6.54173">
        <ele>866.20001220703</ele>
        <time>2023-08-03T07:24:41.000Z</time>
      </trkpt>
      <trkpt lat="47.09355" lon="6.54163">
        <ele>866</ele>
        <time>2023-08-03T07:24:42.000Z</time>
      </trkpt>
      <trkpt lat="47.09351" lon="6.54119">
        <ele>865.59997558594</ele>
        <time>2023-08-03T07:24:47.000Z</time>
      </trkpt>
      <trkpt lat="47.09344" lon="6.54057">
        <ele>865.20001220703</ele>
        <time>2023-08-03T07:24:54.000Z</time>
      </trkpt>
      <trkpt lat="47.0934" lon="6.5403">
        <ele>865</ele>
        <time>2023-08-03T07:24:57.000Z</time>
      </trkpt>
      <trkpt lat="47.09327" lon="6.53959">
        <ele>864.40002441406</ele>
        <time>2023-08-03T07:25:05.000Z</time>
      </trkpt>
      <trkpt lat="47.09323" lon="6.53941">
        <ele>863.79998779297</ele>
        <time>2023-08-03T07:25:07.000Z</time>
      </trkpt>
      <trkpt lat="47.09311" lon="6.53893">
        <ele>863.40002441406</ele>
        <time>2023-08-03T07:25:12.000Z</time>
      </trkpt>
      <trkpt lat="47.09301" lon="6.53853">
        <ele>862.79998779297</ele>
        <time>2023-08-03T07:25:16.000Z</time>
      </trkpt>
      <trkpt lat="47.0929" lon="6.53799">
        <ele>861.40002441406</ele>
        <time>2023-08-03T07:25:21.000Z</time>
      </trkpt>
      <trkpt lat="47.09284" lon="6.53765">
        <ele>860.20001220703</ele>
        <time>2023-08-03T07:25:24.000Z</time>
      </trkpt>
      <trkpt lat="47.0928" lon="6.53732">
        <ele>859.59997558594</ele>
        <time>2023-08-03T07:25:27.000Z</time>
      </trkpt>
      <trkpt lat="47.09279" lon="6.53711">
        <ele>859</ele>
        <time>2023-08-03T07:25:29.000Z</time>
      </trkpt>
      <trkpt lat="47.09276" lon="6.53653">
        <ele>858</ele>
        <time>2023-08-03T07:25:34.000Z</time>
      </trkpt>
      <trkpt lat="47.09276" lon="6.53641">
        <ele>857.59997558594</ele>
        <time>2023-08-03T07:25:35.000Z</time>
      </trkpt>
      <trkpt lat="47.09275" lon="6.53617">
        <ele>856.79998779297</ele>
        <time>2023-08-03T07:25:37.000Z</time>
      </trkpt>
      <trkpt lat="47.09275" lon="6.5358">
        <ele>855.40002441406</ele>
        <time>2023-08-03T07:25:40.000Z</time>
      </trkpt>
      <trkpt lat="47.09276" lon="6.53542">
        <ele>854</ele>
        <time>2023-08-03T07:25:43.000Z</time>
      </trkpt>
      <trkpt lat="47.0928" lon="6.53505">
        <ele>853</ele>
        <time>2023-08-03T07:25:46.000Z</time>
      </trkpt>
      <trkpt lat="47.09286" lon="6.53482">
        <ele>852</ele>
        <time>2023-08-03T07:25:48.000Z</time>
      </trkpt>
      <trkpt lat="47.09288" lon="6.5347">
        <ele>852</ele>
        <time>2023-08-03T07:25:49.000Z</time>
      </trkpt>
      <trkpt lat="47.09301" lon="6.53426">
        <ele>850.59997558594</ele>
        <time>2023-08-03T07:25:53.000Z</time>
      </trkpt>
      <trkpt lat="47.09307" lon="6.53405">
        <ele>850.20001220703</ele>
        <time>2023-08-03T07:25:55.000Z</time>
      </trkpt>
      <trkpt lat="47.09318" lon="6.53361">
        <ele>849.59997558594</ele>
        <time>2023-08-03T07:25:59.000Z</time>
      </trkpt>
      <trkpt lat="47.09323" lon="6.53327">
        <ele>849</ele>
        <time>2023-08-03T07:26:02.000Z</time>
      </trkpt>
      <trkpt lat="47.09326" lon="6.53292">
        <ele>848.59997558594</ele>
        <time>2023-08-03T07:26:05.000Z</time>
      </trkpt>
      <trkpt lat="47.09327" lon="6.53255">
        <ele>847.59997558594</ele>
        <time>2023-08-03T07:26:08.000Z</time>
      </trkpt>
      <trkpt lat="47.09326" lon="6.53243">
        <ele>847.40002441406</ele>
        <time>2023-08-03T07:26:09.000Z</time>
      </trkpt>
      <trkpt lat="47.09319" lon="6.53205">
        <ele>846</ele>
        <time>2023-08-03T07:26:12.000Z</time>
      </trkpt>
      <trkpt lat="47.09309" lon="6.53166">
        <ele>844.40002441406</ele>
        <time>2023-08-03T07:26:15.000Z</time>
      </trkpt>
      <trkpt lat="47.09303" lon="6.5314">
        <ele>843.20001220703</ele>
        <time>2023-08-03T07:26:17.000Z</time>
      </trkpt>
      <trkpt lat="47.093" lon="6.53127">
        <ele>842.79998779297</ele>
        <time>2023-08-03T07:26:18.000Z</time>
      </trkpt>
      <trkpt lat="47.09295" lon="6.53101">
        <ele>841.40002441406</ele>
        <time>2023-08-03T07:26:20.000Z</time>
      </trkpt>
      <trkpt lat="47.09294" lon="6.53089">
        <ele>841.20001220703</ele>
        <time>2023-08-03T07:26:21.000Z</time>
      </trkpt>
      <trkpt lat="47.09293" lon="6.53076">
        <ele>840.59997558594</ele>
        <time>2023-08-03T07:26:22.000Z</time>
      </trkpt>
      <trkpt lat="47.09293" lon="6.53052">
        <ele>840</ele>
        <time>2023-08-03T07:26:24.000Z</time>
      </trkpt>
      <trkpt lat="47.09292" lon="6.53009">
        <ele>839.59997558594</ele>
        <time>2023-08-03T07:26:28.000Z</time>
      </trkpt>
      <trkpt lat="47.09292" lon="6.52999">
        <ele>839.40002441406</ele>
        <time>2023-08-03T07:26:29.000Z</time>
      </trkpt>
      <trkpt lat="47.09293" lon="6.52984">
        <ele>839.40002441406</ele>
        <time>2023-08-03T07:26:31.000Z</time>
      </trkpt>
      <trkpt lat="47.09296" lon="6.52972">
        <ele>839.20001220703</ele>
        <time>2023-08-03T07:26:33.000Z</time>
      </trkpt>
      <trkpt lat="47.09299" lon="6.52964">
        <ele>839</ele>
        <time>2023-08-03T07:26:34.000Z</time>
      </trkpt>
      <trkpt lat="47.09303" lon="6.52958">
        <ele>838.79998779297</ele>
        <time>2023-08-03T07:26:35.000Z</time>
      </trkpt>
      <trkpt lat="47.09317" lon="6.52938">
        <ele>838.40002441406</ele>
        <time>2023-08-03T07:26:38.000Z</time>
      </trkpt>
      <trkpt lat="47.09329" lon="6.52925">
        <ele>838.40002441406</ele>
        <time>2023-08-03T07:26:40.000Z</time>
      </trkpt>
      <trkpt lat="47.09334" lon="6.52922">
        <ele>837.79998779297</ele>
        <time>2023-08-03T07:26:42.000Z</time>
      </trkpt>
      <trkpt lat="47.09346" lon="6.52916">
        <ele>837.59997558594</ele>
        <time>2023-08-03T07:26:43.000Z</time>
      </trkpt>
      <trkpt lat="47.09359" lon="6.52914">
        <ele>837.20001220703</ele>
        <time>2023-08-03T07:26:45.000Z</time>
      </trkpt>
      <trkpt lat="47.09366" lon="6.52914">
        <ele>836.59997558594</ele>
        <time>2023-08-03T07:26:46.000Z</time>
      </trkpt>
      <trkpt lat="47.09372" lon="6.52914">
        <ele>836.20001220703</ele>
        <time>2023-08-03T07:26:47.000Z</time>
      </trkpt>
      <trkpt lat="47.09384" lon="6.52911">
        <ele>835.40002441406</ele>
        <time>2023-08-03T07:26:49.000Z</time>
      </trkpt>
      <trkpt lat="47.09389" lon="6.52908">
        <ele>835.40002441406</ele>
        <time>2023-08-03T07:26:50.000Z</time>
      </trkpt>
      <trkpt lat="47.09394" lon="6.52904">
        <ele>835.20001220703</ele>
        <time>2023-08-03T07:26:51.000Z</time>
      </trkpt>
      <trkpt lat="47.09402" lon="6.52895">
        <ele>835.20001220703</ele>
        <time>2023-08-03T07:26:53.000Z</time>
      </trkpt>
      <trkpt lat="47.09409" lon="6.52884">
        <ele>835</ele>
        <time>2023-08-03T07:26:55.000Z</time>
      </trkpt>
      <trkpt lat="47.09411" lon="6.52878">
        <ele>835.20001220703</ele>
        <time>2023-08-03T07:26:56.000Z</time>
      </trkpt>
      <trkpt lat="47.09415" lon="6.52864">
        <ele>835.20001220703</ele>
        <time>2023-08-03T07:26:58.000Z</time>
      </trkpt>
      <trkpt lat="47.09416" lon="6.52857">
        <ele>835.59997558594</ele>
        <time>2023-08-03T07:26:59.000Z</time>
      </trkpt>
      <trkpt lat="47.09416" lon="6.52843">
        <ele>836</ele>
        <time>2023-08-03T07:27:01.000Z</time>
      </trkpt>
      <trkpt lat="47.09418" lon="6.52832">
        <ele>836.40002441406</ele>
        <time>2023-08-03T07:27:03.000Z</time>
      </trkpt>
      <trkpt lat="47.0942" lon="6.52827">
        <ele>836.59997558594</ele>
        <time>2023-08-03T07:27:04.000Z</time>
      </trkpt>
      <trkpt lat="47.09422" lon="6.52822">
        <ele>836.59997558594</ele>
        <time>2023-08-03T07:27:05.000Z</time>
      </trkpt>
      <trkpt lat="47.09424" lon="6.52812">
        <ele>836.79998779297</ele>
        <time>2023-08-03T07:27:07.000Z</time>
      </trkpt>
      <trkpt lat="47.09424" lon="6.52807">
        <ele>837.20001220703</ele>
        <time>2023-08-03T07:27:08.000Z</time>
      </trkpt>
      <trkpt lat="47.09425" lon="6.52802">
        <ele>837.59997558594</ele>
        <time>2023-08-03T07:27:09.000Z</time>
      </trkpt>
      <trkpt lat="47.09426" lon="6.52793">
        <ele>838</ele>
        <time>2023-08-03T07:27:11.000Z</time>
      </trkpt>
      <trkpt lat="47.09429" lon="6.52779">
        <ele>838.59997558594</ele>
        <time>2023-08-03T07:27:14.000Z</time>
      </trkpt>
      <trkpt lat="47.09431" lon="6.52773">
        <ele>838.79998779297</ele>
        <time>2023-08-03T07:27:15.000Z</time>
      </trkpt>
      <trkpt lat="47.09443" lon="6.52738">
        <ele>840</ele>
        <time>2023-08-03T07:27:20.000Z</time>
      </trkpt>
      <trkpt lat="47.09448" lon="6.52725">
        <ele>840.20001220703</ele>
        <time>2023-08-03T07:27:22.000Z</time>
      </trkpt>
      <trkpt lat="47.09458" lon="6.52708">
        <ele>840.59997558594</ele>
        <time>2023-08-03T07:27:25.000Z</time>
      </trkpt>
      <trkpt lat="47.09472" lon="6.52687">
        <ele>841</ele>
        <time>2023-08-03T07:27:30.000Z</time>
      </trkpt>
      <trkpt lat="47.09473" lon="6.52683">
        <ele>841.20001220703</ele>
        <time>2023-08-03T07:27:31.000Z</time>
      </trkpt>
      <trkpt lat="47.09475" lon="6.52677">
        <ele>841.79998779297</ele>
        <time>2023-08-03T07:27:33.000Z</time>
      </trkpt>
      <trkpt lat="47.09478" lon="6.52672">
        <ele>842.20001220703</ele>
        <time>2023-08-03T07:27:35.000Z</time>
      </trkpt>
      <trkpt lat="47.09483" lon="6.52667">
        <ele>842.59997558594</ele>
        <time>2023-08-03T07:27:39.000Z</time>
      </trkpt>
      <trkpt lat="47.09483" lon="6.52666">
        <ele>842.79998779297</ele>
        <time>2023-08-03T07:27:40.000Z</time>
      </trkpt>
      <trkpt lat="47.09484" lon="6.52665">
        <ele>843</ele>
        <time>2023-08-03T07:27:43.000Z</time>
      </trkpt>
      <trkpt lat="47.09482" lon="6.52667">
        <ele>843.59997558594</ele>
        <time>2023-08-03T07:28:04.000Z</time>
      </trkpt>
      <trkpt lat="47.0947" lon="6.52678">
        <ele>843.59997558594</ele>
        <time>2023-08-03T07:28:09.000Z</time>
      </trkpt>
      <trkpt lat="47.09455" lon="6.52699">
        <ele>842.79998779297</ele>
        <time>2023-08-03T07:28:15.000Z</time>
      </trkpt>
      <trkpt lat="47.09452" lon="6.52703">
        <ele>842.59997558594</ele>
        <time>2023-08-03T07:28:17.000Z</time>
      </trkpt>
      <trkpt lat="47.0945" lon="6.52707">
        <ele>842.40002441406</ele>
        <time>2023-08-03T07:28:19.000Z</time>
      </trkpt>
      <trkpt lat="47.09448" lon="6.52716">
        <ele>841.79998779297</ele>
        <time>2023-08-03T07:28:22.000Z</time>
      </trkpt>
      <trkpt lat="47.09446" lon="6.52717">
        <ele>841.79998779297</ele>
        <time>2023-08-03T07:28:23.000Z</time>
      </trkpt>
      <trkpt lat="47.09445" lon="6.52716">
        <ele>841.59997558594</ele>
        <time>2023-08-03T07:28:24.000Z</time>
      </trkpt>
      <trkpt lat="47.09445" lon="6.52716">
        <ele>841.40002441406</ele>
        <time>2023-08-03T07:28:25.000Z</time>
      </trkpt>
      <trkpt lat="47.09445" lon="6.52716">
        <ele>841.20001220703</ele>
        <time>2023-08-03T07:28:26.000Z</time>
      </trkpt>
      <trkpt lat="47.09434" lon="6.52756">
        <ele>840.79998779297</ele>
        <time>2023-08-03T07:31:26.000Z</time>
      </trkpt>
      <trkpt lat="47.09431" lon="6.52766">
        <ele>840.79998779297</ele>
        <time>2023-08-03T07:31:28.000Z</time>
      </trkpt>
      <trkpt lat="47.09425" lon="6.52792">
        <ele>840.20001220703</ele>
        <time>2023-08-03T07:31:32.000Z</time>
      </trkpt>
      <trkpt lat="47.0942" lon="6.52811">
        <ele>839.79998779297</ele>
        <time>2023-08-03T07:31:34.000Z</time>
      </trkpt>
      <trkpt lat="47.09414" lon="6.5283">
        <ele>839.40002441406</ele>
        <time>2023-08-03T07:31:36.000Z</time>
      </trkpt>
      <trkpt lat="47.09407" lon="6.52861">
        <ele>838.59997558594</ele>
        <time>2023-08-03T07:31:39.000Z</time>
      </trkpt>
      <trkpt lat="47.09405" lon="6.5287">
        <ele>838.59997558594</ele>
        <time>2023-08-03T07:31:40.000Z</time>
      </trkpt>
      <trkpt lat="47.09401" lon="6.52879">
        <ele>838.20001220703</ele>
        <time>2023-08-03T07:31:41.000Z</time>
      </trkpt>
      <trkpt lat="47.09395" lon="6.52894">
        <ele>837.59997558594</ele>
        <time>2023-08-03T07:31:43.000Z</time>
      </trkpt>
      <trkpt lat="47.09391" lon="6.52899">
        <ele>837.59997558594</ele>
        <time>2023-08-03T07:31:44.000Z</time>
      </trkpt>
      <trkpt lat="47.09378" lon="6.52912">
        <ele>836.79998779297</ele>
        <time>2023-08-03T07:31:47.000Z</time>
      </trkpt>
      <trkpt lat="47.09375" lon="6.52916">
        <ele>836.40002441406</ele>
        <time>2023-08-03T07:31:48.000Z</time>
      </trkpt>
      <trkpt lat="47.09371" lon="6.52917">
        <ele>836.20001220703</ele>
        <time>2023-08-03T07:31:49.000Z</time>
      </trkpt>
      <trkpt lat="47.09371" lon="6.52917">
        <ele>836</ele>
        <time>2023-08-03T07:31:50.000Z</time>
      </trkpt>
      <trkpt lat="47.0936" lon="6.52917">
        <ele>836</ele>
        <time>2023-08-03T07:31:51.000Z</time>
      </trkpt>
      <trkpt lat="47.09349" lon="6.52918">
        <ele>836</ele>
        <time>2023-08-03T07:31:53.000Z</time>
      </trkpt>
      <trkpt lat="47.0934" lon="6.52923">
        <ele>836</ele>
        <time>2023-08-03T07:31:55.000Z</time>
      </trkpt>
      <trkpt lat="47.09328" lon="6.52932">
        <ele>836.20001220703</ele>
        <time>2023-08-03T07:31:58.000Z</time>
      </trkpt>
      <trkpt lat="47.09314" lon="6.52945">
        <ele>837.20001220703</ele>
        <time>2023-08-03T07:32:02.000Z</time>
      </trkpt>
      <trkpt lat="47.09311" lon="6.52949">
        <ele>837.40002441406</ele>
        <time>2023-08-03T07:32:03.000Z</time>
      </trkpt>
      <trkpt lat="47.09302" lon="6.52964">
        <ele>838.20001220703</ele>
        <time>2023-08-03T07:32:07.000Z</time>
      </trkpt>
      <trkpt lat="47.09298" lon="6.52962">
        <ele>838.40002441406</ele>
        <time>2023-08-03T07:32:09.000Z</time>
      </trkpt>
      <trkpt lat="47.09303" lon="6.52948">
        <ele>839</ele>
        <time>2023-08-03T07:32:13.000Z</time>
      </trkpt>
      <trkpt lat="47.09307" lon="6.52929">
        <ele>839.59997558594</ele>
        <time>2023-08-03T07:32:17.000Z</time>
      </trkpt>
      <trkpt lat="47.0931" lon="6.5292">
        <ele>839.79998779297</ele>
        <time>2023-08-03T07:32:19.000Z</time>
      </trkpt>
      <trkpt lat="47.09325" lon="6.52895">
        <ele>840.59997558594</ele>
        <time>2023-08-03T07:32:25.000Z</time>
      </trkpt>
      <trkpt lat="47.09327" lon="6.5289">
        <ele>840.59997558594</ele>
        <time>2023-08-03T07:32:26.000Z</time>
      </trkpt>
      <trkpt lat="47.09337" lon="6.52871">
        <ele>841</ele>
        <time>2023-08-03T07:32:31.000Z</time>
      </trkpt>
      <trkpt lat="47.0934" lon="6.52863">
        <ele>841.59997558594</ele>
        <time>2023-08-03T07:32:34.000Z</time>
      </trkpt>
      <trkpt lat="47.09345" lon="6.52851">
        <ele>842</ele>
        <time>2023-08-03T07:32:36.000Z</time>
      </trkpt>
      <trkpt lat="47.09347" lon="6.52847">
        <ele>842.40002441406</ele>
        <time>2023-08-03T07:32:37.000Z</time>
      </trkpt>
      <trkpt lat="47.09348" lon="6.52835">
        <ele>842.59997558594</ele>
        <time>2023-08-03T07:32:39.000Z</time>
      </trkpt>
      <trkpt lat="47.09351" lon="6.52809">
        <ele>843.40002441406</ele>
        <time>2023-08-03T07:32:44.000Z</time>
      </trkpt>
      <trkpt lat="47.09353" lon="6.52779">
        <ele>843.59997558594</ele>
        <time>2023-08-03T07:32:48.000Z</time>
      </trkpt>
      <trkpt lat="47.09354" lon="6.52758">
        <ele>843.59997558594</ele>
        <time>2023-08-03T07:32:51.000Z</time>
      </trkpt>
      <trkpt lat="47.09347" lon="6.52722">
        <ele>843.59997558594</ele>
        <time>2023-08-03T07:32:56.000Z</time>
      </trkpt>
      <trkpt lat="47.09346" lon="6.52712">
        <ele>843.40002441406</ele>
        <time>2023-08-03T07:32:57.000Z</time>
      </trkpt>
      <trkpt lat="47.09342" lon="6.52693">
        <ele>843.40002441406</ele>
        <time>2023-08-03T07:32:59.000Z</time>
      </trkpt>
      <trkpt lat="47.09343" lon="6.52684">
        <ele>843.40002441406</ele>
        <time>2023-08-03T07:33:00.000Z</time>
      </trkpt>
      <trkpt lat="47.09342" lon="6.52675">
        <ele>843.40002441406</ele>
        <time>2023-08-03T07:33:01.000Z</time>
      </trkpt>
      <trkpt lat="47.09341" lon="6.52657">
        <ele>843.20001220703</ele>
        <time>2023-08-03T07:33:03.000Z</time>
      </trkpt>
      <trkpt lat="47.09338" lon="6.52649">
        <ele>843.20001220703</ele>
        <time>2023-08-03T07:33:04.000Z</time>
      </trkpt>
      <trkpt lat="47.09328" lon="6.52615">
        <ele>841.79998779297</ele>
        <time>2023-08-03T07:33:08.000Z</time>
      </trkpt>
      <trkpt lat="47.09325" lon="6.52599">
        <ele>841.59997558594</ele>
        <time>2023-08-03T07:33:10.000Z</time>
      </trkpt>
      <trkpt lat="47.09319" lon="6.52583">
        <ele>841.40002441406</ele>
        <time>2023-08-03T07:33:12.000Z</time>
      </trkpt>
      <trkpt lat="47.09316" lon="6.52576">
        <ele>841.40002441406</ele>
        <time>2023-08-03T07:33:13.000Z</time>
      </trkpt>
      <trkpt lat="47.09305" lon="6.52545">
        <ele>841.40002441406</ele>
        <time>2023-08-03T07:33:17.000Z</time>
      </trkpt>
      <trkpt lat="47.09294" lon="6.52523">
        <ele>841.59997558594</ele>
        <time>2023-08-03T07:33:20.000Z</time>
      </trkpt>
      <trkpt lat="47.0928" lon="6.52506">
        <ele>841.79998779297</ele>
        <time>2023-08-03T07:33:23.000Z</time>
      </trkpt>
      <trkpt lat="47.09247" lon="6.5247">
        <ele>842.40002441406</ele>
        <time>2023-08-03T07:33:30.000Z</time>
      </trkpt>
      <trkpt lat="47.09242" lon="6.52466">
        <ele>842.40002441406</ele>
        <time>2023-08-03T07:33:31.000Z</time>
      </trkpt>
      <trkpt lat="47.09227" lon="6.52451">
        <ele>842.59997558594</ele>
        <time>2023-08-03T07:33:34.000Z</time>
      </trkpt>
      <trkpt lat="47.09211" lon="6.52441">
        <ele>842.79998779297</ele>
        <time>2023-08-03T07:33:37.000Z</time>
      </trkpt>
      <trkpt lat="47.09202" lon="6.52436">
        <ele>843</ele>
        <time>2023-08-03T07:33:39.000Z</time>
      </trkpt>
      <trkpt lat="47.09194" lon="6.52432">
        <ele>843.20001220703</ele>
        <time>2023-08-03T07:33:41.000Z</time>
      </trkpt>
      <trkpt lat="47.0919" lon="6.52429">
        <ele>843.59997558594</ele>
        <time>2023-08-03T07:33:42.000Z</time>
      </trkpt>
      <trkpt lat="47.09178" lon="6.52423">
        <ele>844.59997558594</ele>
        <time>2023-08-03T07:33:45.000Z</time>
      </trkpt>
      <trkpt lat="47.09175" lon="6.52422">
        <ele>844.79998779297</ele>
        <time>2023-08-03T07:33:46.000Z</time>
      </trkpt>
      <trkpt lat="47.09159" lon="6.52408">
        <ele>845.40002441406</ele>
        <time>2023-08-03T07:33:50.000Z</time>
      </trkpt>
      <trkpt lat="47.0914" lon="6.52382">
        <ele>845.79998779297</ele>
        <time>2023-08-03T07:33:54.000Z</time>
      </trkpt>
      <trkpt lat="47.09136" lon="6.52375">
        <ele>845.79998779297</ele>
        <time>2023-08-03T07:33:55.000Z</time>
      </trkpt>
      <trkpt lat="47.09124" lon="6.52353">
        <ele>845.59997558594</ele>
        <time>2023-08-03T07:33:58.000Z</time>
      </trkpt>
      <trkpt lat="47.0912" lon="6.52343">
        <ele>845.59997558594</ele>
        <time>2023-08-03T07:33:59.000Z</time>
      </trkpt>
      <trkpt lat="47.09116" lon="6.52333">
        <ele>845.40002441406</ele>
        <time>2023-08-03T07:34:00.000Z</time>
      </trkpt>
      <trkpt lat="47.09113" lon="6.52313">
        <ele>845</ele>
        <time>2023-08-03T07:34:02.000Z</time>
      </trkpt>
      <trkpt lat="47.09118" lon="6.523">
        <ele>844.40002441406</ele>
        <time>2023-08-03T07:34:04.000Z</time>
      </trkpt>
      <trkpt lat="47.09122" lon="6.523">
        <ele>844</ele>
        <time>2023-08-03T07:34:05.000Z</time>
      </trkpt>
      <trkpt lat="47.09127" lon="6.52301">
        <ele>843.20001220703</ele>
        <time>2023-08-03T07:34:06.000Z</time>
      </trkpt>
      <trkpt lat="47.09132" lon="6.52303">
        <ele>842.79998779297</ele>
        <time>2023-08-03T07:34:07.000Z</time>
      </trkpt>
      <trkpt lat="47.09143" lon="6.52308">
        <ele>842.59997558594</ele>
        <time>2023-08-03T07:34:09.000Z</time>
      </trkpt>
      <trkpt lat="47.09155" lon="6.52312">
        <ele>842.20001220703</ele>
        <time>2023-08-03T07:34:11.000Z</time>
      </trkpt>
      <trkpt lat="47.09173" lon="6.52316">
        <ele>842</ele>
        <time>2023-08-03T07:34:14.000Z</time>
      </trkpt>
      <trkpt lat="47.09206" lon="6.52314">
        <ele>841.20001220703</ele>
        <time>2023-08-03T07:34:19.000Z</time>
      </trkpt>
      <trkpt lat="47.09219" lon="6.52313">
        <ele>840.79998779297</ele>
        <time>2023-08-03T07:34:21.000Z</time>
      </trkpt>
      <trkpt lat="47.09231" lon="6.52312">
        <ele>840.40002441406</ele>
        <time>2023-08-03T07:34:23.000Z</time>
      </trkpt>
      <trkpt lat="47.0925" lon="6.52313">
        <ele>840</ele>
        <time>2023-08-03T07:34:26.000Z</time>
      </trkpt>
      <trkpt lat="47.09278" lon="6.52322">
        <ele>839.40002441406</ele>
        <time>2023-08-03T07:34:30.000Z</time>
      </trkpt>
      <trkpt lat="47.09284" lon="6.52326">
        <ele>839.20001220703</ele>
        <time>2023-08-03T07:34:31.000Z</time>
      </trkpt>
      <trkpt lat="47.09291" lon="6.5233">
        <ele>839</ele>
        <time>2023-08-03T07:34:32.000Z</time>
      </trkpt>
      <trkpt lat="47.09304" lon="6.52339">
        <ele>838.40002441406</ele>
        <time>2023-08-03T07:34:34.000Z</time>
      </trkpt>
      <trkpt lat="47.09311" lon="6.52344">
        <ele>837.79998779297</ele>
        <time>2023-08-03T07:34:35.000Z</time>
      </trkpt>
      <trkpt lat="47.09325" lon="6.52353">
        <ele>837.20001220703</ele>
        <time>2023-08-03T07:34:37.000Z</time>
      </trkpt>
      <trkpt lat="47.09333" lon="6.52356">
        <ele>836.40002441406</ele>
        <time>2023-08-03T07:34:38.000Z</time>
      </trkpt>
      <trkpt lat="47.09341" lon="6.52358">
        <ele>836</ele>
        <time>2023-08-03T07:34:39.000Z</time>
      </trkpt>
      <trkpt lat="47.09358" lon="6.52358">
        <ele>835.40002441406</ele>
        <time>2023-08-03T07:34:41.000Z</time>
      </trkpt>
      <trkpt lat="47.09394" lon="6.52358">
        <ele>834.20001220703</ele>
        <time>2023-08-03T07:34:45.000Z</time>
      </trkpt>
      <trkpt lat="47.09413" lon="6.52361">
        <ele>833.20001220703</ele>
        <time>2023-08-03T07:34:47.000Z</time>
      </trkpt>
      <trkpt lat="47.09422" lon="6.52362">
        <ele>833</ele>
        <time>2023-08-03T07:34:48.000Z</time>
      </trkpt>
      <trkpt lat="47.09442" lon="6.52363">
        <ele>832.40002441406</ele>
        <time>2023-08-03T07:34:50.000Z</time>
      </trkpt>
      <trkpt lat="47.09442" lon="6.52363">
        <ele>832.20001220703</ele>
        <time>2023-08-03T07:34:51.000Z</time>
      </trkpt>
      <trkpt lat="47.09461" lon="6.52357">
        <ele>831.79998779297</ele>
        <time>2023-08-03T07:34:52.000Z</time>
      </trkpt>
      <trkpt lat="47.09479" lon="6.52348">
        <ele>831.20001220703</ele>
        <time>2023-08-03T07:34:54.000Z</time>
      </trkpt>
      <trkpt lat="47.09488" lon="6.52342">
        <ele>830.79998779297</ele>
        <time>2023-08-03T07:34:55.000Z</time>
      </trkpt>
      <trkpt lat="47.09513" lon="6.52322">
        <ele>829.79998779297</ele>
        <time>2023-08-03T07:34:58.000Z</time>
      </trkpt>
      <trkpt lat="47.0953" lon="6.52309">
        <ele>829.40002441406</ele>
        <time>2023-08-03T07:35:00.000Z</time>
      </trkpt>
      <trkpt lat="47.09555" lon="6.52287">
        <ele>828.40002441406</ele>
        <time>2023-08-03T07:35:03.000Z</time>
      </trkpt>
      <trkpt lat="47.0957" lon="6.5227">
        <ele>827</ele>
        <time>2023-08-03T07:35:05.000Z</time>
      </trkpt>
      <trkpt lat="47.09577" lon="6.52261">
        <ele>826.79998779297</ele>
        <time>2023-08-03T07:35:06.000Z</time>
      </trkpt>
      <trkpt lat="47.09596" lon="6.52232">
        <ele>825.79998779297</ele>
        <time>2023-08-03T07:35:09.000Z</time>
      </trkpt>
      <trkpt lat="47.09609" lon="6.52213">
        <ele>824.59997558594</ele>
        <time>2023-08-03T07:35:11.000Z</time>
      </trkpt>
      <trkpt lat="47.09615" lon="6.52204">
        <ele>824</ele>
        <time>2023-08-03T07:35:12.000Z</time>
      </trkpt>
      <trkpt lat="47.09629" lon="6.52189">
        <ele>823.59997558594</ele>
        <time>2023-08-03T07:35:14.000Z</time>
      </trkpt>
      <trkpt lat="47.09644" lon="6.52176">
        <ele>822.79998779297</ele>
        <time>2023-08-03T07:35:16.000Z</time>
      </trkpt>
      <trkpt lat="47.09652" lon="6.52171">
        <ele>822.40002441406</ele>
        <time>2023-08-03T07:35:17.000Z</time>
      </trkpt>
      <trkpt lat="47.09675" lon="6.52155">
        <ele>821.40002441406</ele>
        <time>2023-08-03T07:35:20.000Z</time>
      </trkpt>
      <trkpt lat="47.0969" lon="6.52145">
        <ele>820.40002441406</ele>
        <time>2023-08-03T07:35:22.000Z</time>
      </trkpt>
      <trkpt lat="47.09705" lon="6.52136">
        <ele>820</ele>
        <time>2023-08-03T07:35:24.000Z</time>
      </trkpt>
      <trkpt lat="47.09751" lon="6.52104">
        <ele>819.40002441406</ele>
        <time>2023-08-03T07:35:30.000Z</time>
      </trkpt>
      <trkpt lat="47.09789" lon="6.52077">
        <ele>818.79998779297</ele>
        <time>2023-08-03T07:35:35.000Z</time>
      </trkpt>
      <trkpt lat="47.09811" lon="6.52061">
        <ele>818.40002441406</ele>
        <time>2023-08-03T07:35:38.000Z</time>
      </trkpt>
      <trkpt lat="47.0984" lon="6.52041">
        <ele>817.79998779297</ele>
        <time>2023-08-03T07:35:42.000Z</time>
      </trkpt>
      <trkpt lat="47.0987" lon="6.52021">
        <ele>816.79998779297</ele>
        <time>2023-08-03T07:35:46.000Z</time>
      </trkpt>
      <trkpt lat="47.09894" lon="6.52005">
        <ele>815.59997558594</ele>
        <time>2023-08-03T07:35:49.000Z</time>
      </trkpt>
      <trkpt lat="47.09901" lon="6.51998">
        <ele>815.40002441406</ele>
        <time>2023-08-03T07:35:50.000Z</time>
      </trkpt>
      <trkpt lat="47.09915" lon="6.5198">
        <ele>814.59997558594</ele>
        <time>2023-08-03T07:35:52.000Z</time>
      </trkpt>
      <trkpt lat="47.0992" lon="6.51969">
        <ele>814.20001220703</ele>
        <time>2023-08-03T07:35:53.000Z</time>
      </trkpt>
      <trkpt lat="47.09929" lon="6.51943">
        <ele>813.59997558594</ele>
        <time>2023-08-03T07:35:55.000Z</time>
      </trkpt>
      <trkpt lat="47.09932" lon="6.51929">
        <ele>813</ele>
        <time>2023-08-03T07:35:56.000Z</time>
      </trkpt>
      <trkpt lat="47.09933" lon="6.51915">
        <ele>812.59997558594</ele>
        <time>2023-08-03T07:35:57.000Z</time>
      </trkpt>
      <trkpt lat="47.09933" lon="6.519">
        <ele>812</ele>
        <time>2023-08-03T07:35:58.000Z</time>
      </trkpt>
      <trkpt lat="47.09933" lon="6.51886">
        <ele>811.59997558594</ele>
        <time>2023-08-03T07:35:59.000Z</time>
      </trkpt>
      <trkpt lat="47.09931" lon="6.51872">
        <ele>811.40002441406</ele>
        <time>2023-08-03T07:36:00.000Z</time>
      </trkpt>
      <trkpt lat="47.09928" lon="6.51857">
        <ele>810.79998779297</ele>
        <time>2023-08-03T07:36:01.000Z</time>
      </trkpt>
      <trkpt lat="47.09925" lon="6.51843">
        <ele>810.59997558594</ele>
        <time>2023-08-03T07:36:02.000Z</time>
      </trkpt>
      <trkpt lat="47.09918" lon="6.51817">
        <ele>809.79998779297</ele>
        <time>2023-08-03T07:36:04.000Z</time>
      </trkpt>
      <trkpt lat="47.09914" lon="6.51804">
        <ele>809.20001220703</ele>
        <time>2023-08-03T07:36:05.000Z</time>
      </trkpt>
      <trkpt lat="47.09911" lon="6.51791">
        <ele>808.40002441406</ele>
        <time>2023-08-03T07:36:06.000Z</time>
      </trkpt>
      <trkpt lat="47.09909" lon="6.5178">
        <ele>808.20001220703</ele>
        <time>2023-08-03T07:36:07.000Z</time>
      </trkpt>
      <trkpt lat="47.09908" lon="6.51767">
        <ele>807.20001220703</ele>
        <time>2023-08-03T07:36:08.000Z</time>
      </trkpt>
      <trkpt lat="47.09911" lon="6.51754">
        <ele>807</ele>
        <time>2023-08-03T07:36:09.000Z</time>
      </trkpt>
      <trkpt lat="47.09921" lon="6.51735">
        <ele>805.79998779297</ele>
        <time>2023-08-03T07:36:11.000Z</time>
      </trkpt>
      <trkpt lat="47.09929" lon="6.51729">
        <ele>804.40002441406</ele>
        <time>2023-08-03T07:36:13.000Z</time>
      </trkpt>
      <trkpt lat="47.09955" lon="6.5171">
        <ele>803.20001220703</ele>
        <time>2023-08-03T07:36:15.000Z</time>
      </trkpt>
      <trkpt lat="47.09972" lon="6.51697">
        <ele>801.40002441406</ele>
        <time>2023-08-03T07:36:18.000Z</time>
      </trkpt>
      <trkpt lat="47.09989" lon="6.51688">
        <ele>801</ele>
        <time>2023-08-03T07:36:19.000Z</time>
      </trkpt>
      <trkpt lat="47.09998" lon="6.51688">
        <ele>800.20001220703</ele>
        <time>2023-08-03T07:36:20.000Z</time>
      </trkpt>
      <trkpt lat="47.10008" lon="6.5169">
        <ele>800</ele>
        <time>2023-08-03T07:36:21.000Z</time>
      </trkpt>
      <trkpt lat="47.10017" lon="6.51695">
        <ele>799</ele>
        <time>2023-08-03T07:36:22.000Z</time>
      </trkpt>
      <trkpt lat="47.10025" lon="6.51703">
        <ele>798.20001220703</ele>
        <time>2023-08-03T07:36:23.000Z</time>
      </trkpt>
      <trkpt lat="47.10033" lon="6.51713">
        <ele>797.59997558594</ele>
        <time>2023-08-03T07:36:24.000Z</time>
      </trkpt>
      <trkpt lat="47.10049" lon="6.51733">
        <ele>796.59997558594</ele>
        <time>2023-08-03T07:36:26.000Z</time>
      </trkpt>
      <trkpt lat="47.10055" lon="6.51745">
        <ele>795.59997558594</ele>
        <time>2023-08-03T07:36:27.000Z</time>
      </trkpt>
      <trkpt lat="47.10061" lon="6.51758">
        <ele>794.79998779297</ele>
        <time>2023-08-03T07:36:28.000Z</time>
      </trkpt>
      <trkpt lat="47.10066" lon="6.51771">
        <ele>794.59997558594</ele>
        <time>2023-08-03T07:36:29.000Z</time>
      </trkpt>
      <trkpt lat="47.10077" lon="6.51798">
        <ele>793.59997558594</ele>
        <time>2023-08-03T07:36:31.000Z</time>
      </trkpt>
      <trkpt lat="47.10083" lon="6.51809">
        <ele>793.20001220703</ele>
        <time>2023-08-03T07:36:32.000Z</time>
      </trkpt>
      <trkpt lat="47.10089" lon="6.51819">
        <ele>792.79998779297</ele>
        <time>2023-08-03T07:36:33.000Z</time>
      </trkpt>
      <trkpt lat="47.10097" lon="6.51824">
        <ele>792.20001220703</ele>
        <time>2023-08-03T07:36:34.000Z</time>
      </trkpt>
      <trkpt lat="47.10113" lon="6.51829">
        <ele>791</ele>
        <time>2023-08-03T07:36:36.000Z</time>
      </trkpt>
      <trkpt lat="47.10131" lon="6.51818">
        <ele>790</ele>
        <time>2023-08-03T07:36:38.000Z</time>
      </trkpt>
      <trkpt lat="47.10141" lon="6.51811">
        <ele>789.59997558594</ele>
        <time>2023-08-03T07:36:39.000Z</time>
      </trkpt>
      <trkpt lat="47.1015" lon="6.51806">
        <ele>788.79998779297</ele>
        <time>2023-08-03T07:36:40.000Z</time>
      </trkpt>
      <trkpt lat="47.10159" lon="6.51804">
        <ele>788.59997558594</ele>
        <time>2023-08-03T07:36:41.000Z</time>
      </trkpt>
      <trkpt lat="47.10167" lon="6.51806">
        <ele>788</ele>
        <time>2023-08-03T07:36:42.000Z</time>
      </trkpt>
      <trkpt lat="47.10175" lon="6.51812">
        <ele>787.79998779297</ele>
        <time>2023-08-03T07:36:43.000Z</time>
      </trkpt>
      <trkpt lat="47.10181" lon="6.51823">
        <ele>787.20001220703</ele>
        <time>2023-08-03T07:36:44.000Z</time>
      </trkpt>
      <trkpt lat="47.10185" lon="6.51836">
        <ele>786.20001220703</ele>
        <time>2023-08-03T07:36:45.000Z</time>
      </trkpt>
      <trkpt lat="47.10186" lon="6.51849">
        <ele>785.79998779297</ele>
        <time>2023-08-03T07:36:46.000Z</time>
      </trkpt>
      <trkpt lat="47.10186" lon="6.51863">
        <ele>785.40002441406</ele>
        <time>2023-08-03T07:36:47.000Z</time>
      </trkpt>
      <trkpt lat="47.10186" lon="6.5189">
        <ele>784.40002441406</ele>
        <time>2023-08-03T07:36:49.000Z</time>
      </trkpt>
      <trkpt lat="47.10187" lon="6.51903">
        <ele>784</ele>
        <time>2023-08-03T07:36:50.000Z</time>
      </trkpt>
      <trkpt lat="47.1019" lon="6.51916">
        <ele>783.79998779297</ele>
        <time>2023-08-03T07:36:51.000Z</time>
      </trkpt>
      <trkpt lat="47.10192" lon="6.51929">
        <ele>783</ele>
        <time>2023-08-03T07:36:52.000Z</time>
      </trkpt>
      <trkpt lat="47.102" lon="6.51953">
        <ele>782</ele>
        <time>2023-08-03T07:36:54.000Z</time>
      </trkpt>
      <trkpt lat="47.10206" lon="6.51965">
        <ele>781.59997558594</ele>
        <time>2023-08-03T07:36:55.000Z</time>
      </trkpt>
      <trkpt lat="47.10212" lon="6.51975">
        <ele>780.59997558594</ele>
        <time>2023-08-03T07:36:56.000Z</time>
      </trkpt>
      <trkpt lat="47.10227" lon="6.51991">
        <ele>780</ele>
        <time>2023-08-03T07:36:58.000Z</time>
      </trkpt>
      <trkpt lat="47.10237" lon="6.52">
        <ele>779.40002441406</ele>
        <time>2023-08-03T07:36:59.000Z</time>
      </trkpt>
      <trkpt lat="47.1026" lon="6.5202">
        <ele>777.79998779297</ele>
        <time>2023-08-03T07:37:02.000Z</time>
      </trkpt>
      <trkpt lat="47.10277" lon="6.52039">
        <ele>777.20001220703</ele>
        <time>2023-08-03T07:37:04.000Z</time>
      </trkpt>
      <trkpt lat="47.10285" lon="6.5205">
        <ele>777</ele>
        <time>2023-08-03T07:37:05.000Z</time>
      </trkpt>
      <trkpt lat="47.10292" lon="6.52061">
        <ele>776.59997558594</ele>
        <time>2023-08-03T07:37:06.000Z</time>
      </trkpt>
      <trkpt lat="47.10298" lon="6.52074">
        <ele>776</ele>
        <time>2023-08-03T07:37:07.000Z</time>
      </trkpt>
      <trkpt lat="47.10302" lon="6.52086">
        <ele>775.40002441406</ele>
        <time>2023-08-03T07:37:08.000Z</time>
      </trkpt>
      <trkpt lat="47.10314" lon="6.52127">
        <ele>774</ele>
        <time>2023-08-03T07:37:11.000Z</time>
      </trkpt>
      <trkpt lat="47.10318" lon="6.52141">
        <ele>773.59997558594</ele>
        <time>2023-08-03T07:37:12.000Z</time>
      </trkpt>
      <trkpt lat="47.10324" lon="6.5217">
        <ele>772.79998779297</ele>
        <time>2023-08-03T07:37:14.000Z</time>
      </trkpt>
      <trkpt lat="47.10336" lon="6.52232">
        <ele>771.20001220703</ele>
        <time>2023-08-03T07:37:18.000Z</time>
      </trkpt>
      <trkpt lat="47.10344" lon="6.52258">
        <ele>770.40002441406</ele>
        <time>2023-08-03T07:37:20.000Z</time>
      </trkpt>
      <trkpt lat="47.10348" lon="6.52267">
        <ele>770</ele>
        <time>2023-08-03T07:37:21.000Z</time>
      </trkpt>
      <trkpt lat="47.10355" lon="6.52277">
        <ele>770</ele>
        <time>2023-08-03T07:37:22.000Z</time>
      </trkpt>
      <trkpt lat="47.10371" lon="6.52294">
        <ele>769.20001220703</ele>
        <time>2023-08-03T07:37:24.000Z</time>
      </trkpt>
      <trkpt lat="47.10379" lon="6.523">
        <ele>769</ele>
        <time>2023-08-03T07:37:25.000Z</time>
      </trkpt>
      <trkpt lat="47.10388" lon="6.52303">
        <ele>768.79998779297</ele>
        <time>2023-08-03T07:37:26.000Z</time>
      </trkpt>
      <trkpt lat="47.10397" lon="6.52304">
        <ele>768.40002441406</ele>
        <time>2023-08-03T07:37:27.000Z</time>
      </trkpt>
      <trkpt lat="47.10406" lon="6.52304">
        <ele>768.20001220703</ele>
        <time>2023-08-03T07:37:28.000Z</time>
      </trkpt>
      <trkpt lat="47.10416" lon="6.52303">
        <ele>768</ele>
        <time>2023-08-03T07:37:29.000Z</time>
      </trkpt>
      <trkpt lat="47.10446" lon="6.523">
        <ele>766.79998779297</ele>
        <time>2023-08-03T07:37:32.000Z</time>
      </trkpt>
      <trkpt lat="47.10466" lon="6.52299">
        <ele>765.79998779297</ele>
        <time>2023-08-03T07:37:34.000Z</time>
      </trkpt>
      <trkpt lat="47.10486" lon="6.52297">
        <ele>764.59997558594</ele>
        <time>2023-08-03T07:37:36.000Z</time>
      </trkpt>
      <trkpt lat="47.10516" lon="6.52297">
        <ele>763.59997558594</ele>
        <time>2023-08-03T07:37:39.000Z</time>
      </trkpt>
      <trkpt lat="47.10525" lon="6.52298">
        <ele>763.20001220703</ele>
        <time>2023-08-03T07:37:40.000Z</time>
      </trkpt>
      <trkpt lat="47.10543" lon="6.52298">
        <ele>762.40002441406</ele>
        <time>2023-08-03T07:37:42.000Z</time>
      </trkpt>
      <trkpt lat="47.1057" lon="6.52298">
        <ele>761.40002441406</ele>
        <time>2023-08-03T07:37:45.000Z</time>
      </trkpt>
      <trkpt lat="47.10578" lon="6.52298">
        <ele>761.40002441406</ele>
        <time>2023-08-03T07:37:46.000Z</time>
      </trkpt>
      <trkpt lat="47.10616" lon="6.523">
        <ele>760.20001220703</ele>
        <time>2023-08-03T07:37:51.000Z</time>
      </trkpt>
      <trkpt lat="47.10623" lon="6.523">
        <ele>760.20001220703</ele>
        <time>2023-08-03T07:37:52.000Z</time>
      </trkpt>
      <trkpt lat="47.10633" lon="6.52302">
        <ele>760</ele>
        <time>2023-08-03T07:37:54.000Z</time>
      </trkpt>
      <trkpt lat="47.10639" lon="6.52303">
        <ele>759.79998779297</ele>
        <time>2023-08-03T07:37:56.000Z</time>
      </trkpt>
      <trkpt lat="47.10647" lon="6.52308">
        <ele>759.20001220703</ele>
        <time>2023-08-03T07:38:00.000Z</time>
      </trkpt>
      <trkpt lat="47.10648" lon="6.5231">
        <ele>759</ele>
        <time>2023-08-03T07:38:02.000Z</time>
      </trkpt>
      <trkpt lat="47.10648" lon="6.52312">
        <ele>758.79998779297</ele>
        <time>2023-08-03T07:38:04.000Z</time>
      </trkpt>
      <trkpt lat="47.10648" lon="6.52312">
        <ele>758.40002441406</ele>
        <time>2023-08-03T07:38:07.000Z</time>
      </trkpt>
      <trkpt lat="47.10647" lon="6.52315">
        <ele>757.79998779297</ele>
        <time>2023-08-03T07:39:11.000Z</time>
      </trkpt>
      <trkpt lat="47.10645" lon="6.52317">
        <ele>757.79998779297</ele>
        <time>2023-08-03T07:39:12.000Z</time>
      </trkpt>
      <trkpt lat="47.10639" lon="6.52341">
        <ele>757.79998779297</ele>
        <time>2023-08-03T07:39:18.000Z</time>
      </trkpt>
      <trkpt lat="47.10639" lon="6.52367">
        <ele>758.20001220703</ele>
        <time>2023-08-03T07:39:23.000Z</time>
      </trkpt>
      <trkpt lat="47.10642" lon="6.52407">
        <ele>758.40002441406</ele>
        <time>2023-08-03T07:39:29.000Z</time>
      </trkpt>
      <trkpt lat="47.10645" lon="6.52429">
        <ele>758.40002441406</ele>
        <time>2023-08-03T07:39:32.000Z</time>
      </trkpt>
      <trkpt lat="47.10646" lon="6.52443">
        <ele>758.59997558594</ele>
        <time>2023-08-03T07:39:34.000Z</time>
      </trkpt>
      <trkpt lat="47.10647" lon="6.52449">
        <ele>758.59997558594</ele>
        <time>2023-08-03T07:39:35.000Z</time>
      </trkpt>
      <trkpt lat="47.1065" lon="6.52467">
        <ele>759</ele>
        <time>2023-08-03T07:39:38.000Z</time>
      </trkpt>
      <trkpt lat="47.10651" lon="6.52475">
        <ele>759.20001220703</ele>
        <time>2023-08-03T07:39:40.000Z</time>
      </trkpt>
      <trkpt lat="47.10651" lon="6.52476">
        <ele>759.40002441406</ele>
        <time>2023-08-03T07:39:42.000Z</time>
      </trkpt>
      <trkpt lat="47.10651" lon="6.52482">
        <ele>759</ele>
        <time>2023-08-03T07:40:06.000Z</time>
      </trkpt>
      <trkpt lat="47.10653" lon="6.52505">
        <ele>759</ele>
        <time>2023-08-03T07:40:12.000Z</time>
      </trkpt>
      <trkpt lat="47.10655" lon="6.52524">
        <ele>759.20001220703</ele>
        <time>2023-08-03T07:40:17.000Z</time>
      </trkpt>
      <trkpt lat="47.10659" lon="6.52538">
        <ele>759.79998779297</ele>
        <time>2023-08-03T07:40:22.000Z</time>
      </trkpt>
      <trkpt lat="47.1066" lon="6.52538">
        <ele>760</ele>
        <time>2023-08-03T07:40:23.000Z</time>
      </trkpt>
      <trkpt lat="47.1066" lon="6.52538">
        <ele>760</ele>
        <time>2023-08-03T07:40:24.000Z</time>
      </trkpt>
      <trkpt lat="47.10657" lon="6.52531">
        <ele>760.59997558594</ele>
        <time>2023-08-03T07:42:28.000Z</time>
      </trkpt>
      <trkpt lat="47.10656" lon="6.52521">
        <ele>760.59997558594</ele>
        <time>2023-08-03T07:42:30.000Z</time>
      </trkpt>
      <trkpt lat="47.10655" lon="6.52492">
        <ele>760.20001220703</ele>
        <time>2023-08-03T07:42:35.000Z</time>
      </trkpt>
      <trkpt lat="47.10652" lon="6.52457">
        <ele>759.59997558594</ele>
        <time>2023-08-03T07:42:41.000Z</time>
      </trkpt>
      <trkpt lat="47.10652" lon="6.52451">
        <ele>759.40002441406</ele>
        <time>2023-08-03T07:42:42.000Z</time>
      </trkpt>
      <trkpt lat="47.10645" lon="6.52422">
        <ele>759</ele>
        <time>2023-08-03T07:42:47.000Z</time>
      </trkpt>
      <trkpt lat="47.10642" lon="6.52384">
        <ele>758.59997558594</ele>
        <time>2023-08-03T07:42:53.000Z</time>
      </trkpt>
      <trkpt lat="47.10642" lon="6.52374">
        <ele>758.59997558594</ele>
        <time>2023-08-03T07:42:55.000Z</time>
      </trkpt>
      <trkpt lat="47.10642" lon="6.52331">
        <ele>758.59997558594</ele>
        <time>2023-08-03T07:43:02.000Z</time>
      </trkpt>
      <trkpt lat="47.10645" lon="6.52317">
        <ele>758.59997558594</ele>
        <time>2023-08-03T07:43:05.000Z</time>
      </trkpt>
      <trkpt lat="47.10649" lon="6.52311">
        <ele>758.40002441406</ele>
        <time>2023-08-03T07:43:07.000Z</time>
      </trkpt>
      <trkpt lat="47.10651" lon="6.52307">
        <ele>758.40002441406</ele>
        <time>2023-08-03T07:43:09.000Z</time>
      </trkpt>
      <trkpt lat="47.10651" lon="6.52308">
        <ele>758.20001220703</ele>
        <time>2023-08-03T07:43:10.000Z</time>
      </trkpt>
      <trkpt lat="47.10651" lon="6.52308">
        <ele>758.20001220703</ele>
        <time>2023-08-03T07:43:12.000Z</time>
      </trkpt>
      <trkpt lat="47.10655" lon="6.52305">
        <ele>757.79998779297</ele>
        <time>2023-08-03T07:43:20.000Z</time>
      </trkpt>
      <trkpt lat="47.10657" lon="6.52304">
        <ele>757.79998779297</ele>
        <time>2023-08-03T07:43:21.000Z</time>
      </trkpt>
      <trkpt lat="47.10659" lon="6.52304">
        <ele>757.79998779297</ele>
        <time>2023-08-03T07:43:22.000Z</time>
      </trkpt>
      <trkpt lat="47.10667" lon="6.52305">
        <ele>757.59997558594</ele>
        <time>2023-08-03T07:43:25.000Z</time>
      </trkpt>
      <trkpt lat="47.10689" lon="6.52311">
        <ele>757.59997558594</ele>
        <time>2023-08-03T07:43:30.000Z</time>
      </trkpt>
      <trkpt lat="47.10703" lon="6.52317">
        <ele>757.40002441406</ele>
        <time>2023-08-03T07:43:33.000Z</time>
      </trkpt>
      <trkpt lat="47.10721" lon="6.52326">
        <ele>757</ele>
        <time>2023-08-03T07:43:37.000Z</time>
      </trkpt>
      <trkpt lat="47.10772" lon="6.52354">
        <ele>756.59997558594</ele>
        <time>2023-08-03T07:43:47.000Z</time>
      </trkpt>
      <trkpt lat="47.10817" lon="6.52378">
        <ele>756.79998779297</ele>
        <time>2023-08-03T07:43:55.000Z</time>
      </trkpt>
      <trkpt lat="47.10823" lon="6.52382">
        <ele>756.59997558594</ele>
        <time>2023-08-03T07:43:56.000Z</time>
      </trkpt>
      <trkpt lat="47.10843" lon="6.52404">
        <ele>756.59997558594</ele>
        <time>2023-08-03T07:44:00.000Z</time>
      </trkpt>
      <trkpt lat="47.10868" lon="6.52438">
        <ele>756.59997558594</ele>
        <time>2023-08-03T07:44:06.000Z</time>
      </trkpt>
      <trkpt lat="47.10888" lon="6.52461">
        <ele>757.59997558594</ele>
        <time>2023-08-03T07:44:11.000Z</time>
      </trkpt>
      <trkpt lat="47.10909" lon="6.52481">
        <ele>758.79998779297</ele>
        <time>2023-08-03T07:44:16.000Z</time>
      </trkpt>
      <trkpt lat="47.10929" lon="6.52499">
        <ele>759.40002441406</ele>
        <time>2023-08-03T07:44:21.000Z</time>
      </trkpt>
      <trkpt lat="47.10951" lon="6.52517">
        <ele>760.20001220703</ele>
        <time>2023-08-03T07:44:26.000Z</time>
      </trkpt>
      <trkpt lat="47.10968" lon="6.52528">
        <ele>760.79998779297</ele>
        <time>2023-08-03T07:44:30.000Z</time>
      </trkpt>
      <trkpt lat="47.10977" lon="6.52532">
        <ele>761.20001220703</ele>
        <time>2023-08-03T07:44:32.000Z</time>
      </trkpt>
      <trkpt lat="47.11007" lon="6.52541">
        <ele>762.20001220703</ele>
        <time>2023-08-03T07:44:38.000Z</time>
      </trkpt>
      <trkpt lat="47.1103" lon="6.52553">
        <ele>762.20001220703</ele>
        <time>2023-08-03T07:44:42.000Z</time>
      </trkpt>
      <trkpt lat="47.11035" lon="6.52556">
        <ele>762.20001220703</ele>
        <time>2023-08-03T07:44:43.000Z</time>
      </trkpt>
      <trkpt lat="47.1107" lon="6.52582">
        <ele>761.40002441406</ele>
        <time>2023-08-03T07:44:48.000Z</time>
      </trkpt>
      <trkpt lat="47.11086" lon="6.52593">
        <ele>760</ele>
        <time>2023-08-03T07:44:50.000Z</time>
      </trkpt>
      <trkpt lat="47.11095" lon="6.52597">
        <ele>759.79998779297</ele>
        <time>2023-08-03T07:44:51.000Z</time>
      </trkpt>
      <trkpt lat="47.11106" lon="6.526">
        <ele>759.40002441406</ele>
        <time>2023-08-03T07:44:52.000Z</time>
      </trkpt>
      <trkpt lat="47.11114" lon="6.52601">
        <ele>759</ele>
        <time>2023-08-03T07:44:53.000Z</time>
      </trkpt>
      <trkpt lat="47.11134" lon="6.52596">
        <ele>758.20001220703</ele>
        <time>2023-08-03T07:44:55.000Z</time>
      </trkpt>
      <trkpt lat="47.11143" lon="6.52591">
        <ele>757.79998779297</ele>
        <time>2023-08-03T07:44:56.000Z</time>
      </trkpt>
      <trkpt lat="47.1117" lon="6.52574">
        <ele>756.40002441406</ele>
        <time>2023-08-03T07:44:59.000Z</time>
      </trkpt>
      <trkpt lat="47.11179" lon="6.52569">
        <ele>756.20001220703</ele>
        <time>2023-08-03T07:45:00.000Z</time>
      </trkpt>
      <trkpt lat="47.11206" lon="6.52552">
        <ele>755.40002441406</ele>
        <time>2023-08-03T07:45:03.000Z</time>
      </trkpt>
      <trkpt lat="47.11225" lon="6.5254">
        <ele>754.20001220703</ele>
        <time>2023-08-03T07:45:05.000Z</time>
      </trkpt>
      <trkpt lat="47.11239" lon="6.5253">
        <ele>753.20001220703</ele>
        <time>2023-08-03T07:45:07.000Z</time>
      </trkpt>
      <trkpt lat="47.11263" lon="6.52512">
        <ele>752.59997558594</ele>
        <time>2023-08-03T07:45:10.000Z</time>
      </trkpt>
      <trkpt lat="47.11279" lon="6.52499">
        <ele>752.20001220703</ele>
        <time>2023-08-03T07:45:12.000Z</time>
      </trkpt>
      <trkpt lat="47.11311" lon="6.52472">
        <ele>750.79998779297</ele>
        <time>2023-08-03T07:45:16.000Z</time>
      </trkpt>
      <trkpt lat="47.11325" lon="6.52461">
        <ele>749.59997558594</ele>
        <time>2023-08-03T07:45:18.000Z</time>
      </trkpt>
      <trkpt lat="47.11341" lon="6.52449">
        <ele>748.59997558594</ele>
        <time>2023-08-03T07:45:20.000Z</time>
      </trkpt>
      <trkpt lat="47.1137" lon="6.52432">
        <ele>747.79998779297</ele>
        <time>2023-08-03T07:45:24.000Z</time>
      </trkpt>
      <trkpt lat="47.11377" lon="6.5243">
        <ele>747.40002441406</ele>
        <time>2023-08-03T07:45:25.000Z</time>
      </trkpt>
      <trkpt lat="47.1139" lon="6.52429">
        <ele>747.20001220703</ele>
        <time>2023-08-03T07:45:27.000Z</time>
      </trkpt>
      <trkpt lat="47.11404" lon="6.52431">
        <ele>747</ele>
        <time>2023-08-03T07:45:29.000Z</time>
      </trkpt>
      <trkpt lat="47.11435" lon="6.52438">
        <ele>747.20001220703</ele>
        <time>2023-08-03T07:45:34.000Z</time>
      </trkpt>
      <trkpt lat="47.11456" lon="6.52439">
        <ele>748.79998779297</ele>
        <time>2023-08-03T07:45:38.000Z</time>
      </trkpt>
      <trkpt lat="47.11465" lon="6.5244">
        <ele>749.40002441406</ele>
        <time>2023-08-03T07:45:40.000Z</time>
      </trkpt>
      <trkpt lat="47.11475" lon="6.5244">
        <ele>750</ele>
        <time>2023-08-03T07:45:43.000Z</time>
      </trkpt>
      <trkpt lat="47.11481" lon="6.5244">
        <ele>750.40002441406</ele>
        <time>2023-08-03T07:45:45.000Z</time>
      </trkpt>
      <trkpt lat="47.11493" lon="6.5244">
        <ele>751</ele>
        <time>2023-08-03T07:45:48.000Z</time>
      </trkpt>
      <trkpt lat="47.11508" lon="6.5244">
        <ele>751.79998779297</ele>
        <time>2023-08-03T07:45:52.000Z</time>
      </trkpt>
      <trkpt lat="47.11512" lon="6.52441">
        <ele>752</ele>
        <time>2023-08-03T07:45:53.000Z</time>
      </trkpt>
      <trkpt lat="47.11526" lon="6.52444">
        <ele>753.20001220703</ele>
        <time>2023-08-03T07:45:57.000Z</time>
      </trkpt>
      <trkpt lat="47.11538" lon="6.52446">
        <ele>754.20001220703</ele>
        <time>2023-08-03T07:46:00.000Z</time>
      </trkpt>
      <trkpt lat="47.11561" lon="6.52449">
        <ele>755.59997558594</ele>
        <time>2023-08-03T07:46:06.000Z</time>
      </trkpt>
      <trkpt lat="47.11566" lon="6.5245">
        <ele>756</ele>
        <time>2023-08-03T07:46:07.000Z</time>
      </trkpt>
      <trkpt lat="47.11574" lon="6.52452">
        <ele>756.59997558594</ele>
        <time>2023-08-03T07:46:09.000Z</time>
      </trkpt>
      <trkpt lat="47.1159" lon="6.52457">
        <ele>757.59997558594</ele>
        <time>2023-08-03T07:46:13.000Z</time>
      </trkpt>
      <trkpt lat="47.11601" lon="6.5246">
        <ele>758</ele>
        <time>2023-08-03T07:46:16.000Z</time>
      </trkpt>
      <trkpt lat="47.11614" lon="6.52463">
        <ele>758.79998779297</ele>
        <time>2023-08-03T07:46:19.000Z</time>
      </trkpt>
      <trkpt lat="47.11637" lon="6.52468">
        <ele>759.79998779297</ele>
        <time>2023-08-03T07:46:25.000Z</time>
      </trkpt>
      <trkpt lat="47.11642" lon="6.5247">
        <ele>760.20001220703</ele>
        <time>2023-08-03T07:46:26.000Z</time>
      </trkpt>
      <trkpt lat="47.11662" lon="6.52475">
        <ele>760.79998779297</ele>
        <time>2023-08-03T07:46:31.000Z</time>
      </trkpt>
      <trkpt lat="47.11678" lon="6.5248">
        <ele>761.20001220703</ele>
        <time>2023-08-03T07:46:35.000Z</time>
      </trkpt>
      <trkpt lat="47.11683" lon="6.52482">
        <ele>761.20001220703</ele>
        <time>2023-08-03T07:46:36.000Z</time>
      </trkpt>
      <trkpt lat="47.11696" lon="6.52486">
        <ele>762</ele>
        <time>2023-08-03T07:46:39.000Z</time>
      </trkpt>
      <trkpt lat="47.11711" lon="6.52491">
        <ele>762.40002441406</ele>
        <time>2023-08-03T07:46:42.000Z</time>
      </trkpt>
      <trkpt lat="47.11751" lon="6.525">
        <ele>763</ele>
        <time>2023-08-03T07:46:50.000Z</time>
      </trkpt>
      <trkpt lat="47.11755" lon="6.525">
        <ele>763</ele>
        <time>2023-08-03T07:46:51.000Z</time>
      </trkpt>
      <trkpt lat="47.11801" lon="6.52492">
        <ele>763.79998779297</ele>
        <time>2023-08-03T07:47:00.000Z</time>
      </trkpt>
      <trkpt lat="47.11823" lon="6.52487">
        <ele>764.20001220703</ele>
        <time>2023-08-03T07:47:04.000Z</time>
      </trkpt>
      <trkpt lat="47.11854" lon="6.52482">
        <ele>765</ele>
        <time>2023-08-03T07:47:10.000Z</time>
      </trkpt>
      <trkpt lat="47.11863" lon="6.5248">
        <ele>765.40002441406</ele>
        <time>2023-08-03T07:47:12.000Z</time>
      </trkpt>
      <trkpt lat="47.11894" lon="6.52476">
        <ele>766.20001220703</ele>
        <time>2023-08-03T07:47:18.000Z</time>
      </trkpt>
      <trkpt lat="47.11899" lon="6.52475">
        <ele>766.40002441406</ele>
        <time>2023-08-03T07:47:19.000Z</time>
      </trkpt>
      <trkpt lat="47.11935" lon="6.5247">
        <ele>767</ele>
        <time>2023-08-03T07:47:25.000Z</time>
      </trkpt>
      <trkpt lat="47.11979" lon="6.52465">
        <ele>766.40002441406</ele>
        <time>2023-08-03T07:47:32.000Z</time>
      </trkpt>
      <trkpt lat="47.12009" lon="6.52461">
        <ele>765.59997558594</ele>
        <time>2023-08-03T07:47:36.000Z</time>
      </trkpt>
      <trkpt lat="47.12025" lon="6.52459">
        <ele>765.20001220703</ele>
        <time>2023-08-03T07:47:38.000Z</time>
      </trkpt>
      <trkpt lat="47.12046" lon="6.52457">
        <ele>764.59997558594</ele>
        <time>2023-08-03T07:47:41.000Z</time>
      </trkpt>
      <trkpt lat="47.12082" lon="6.52458">
        <ele>763.79998779297</ele>
        <time>2023-08-03T07:47:46.000Z</time>
      </trkpt>
      <trkpt lat="47.1211" lon="6.52458">
        <ele>763.20001220703</ele>
        <time>2023-08-03T07:47:50.000Z</time>
      </trkpt>
      <trkpt lat="47.12139" lon="6.52462">
        <ele>762.79998779297</ele>
        <time>2023-08-03T07:47:54.000Z</time>
      </trkpt>
      <trkpt lat="47.12154" lon="6.52468">
        <ele>762.59997558594</ele>
        <time>2023-08-03T07:47:56.000Z</time>
      </trkpt>
      <trkpt lat="47.12168" lon="6.52477">
        <ele>762.20001220703</ele>
        <time>2023-08-03T07:47:58.000Z</time>
      </trkpt>
      <trkpt lat="47.12174" lon="6.52481">
        <ele>762</ele>
        <time>2023-08-03T07:47:59.000Z</time>
      </trkpt>
      <trkpt lat="47.1221" lon="6.52508">
        <ele>761.59997558594</ele>
        <time>2023-08-03T07:48:05.000Z</time>
      </trkpt>
      <trkpt lat="47.12224" lon="6.52513">
        <ele>761.59997558594</ele>
        <time>2023-08-03T07:48:07.000Z</time>
      </trkpt>
      <trkpt lat="47.12261" lon="6.52516">
        <ele>761.79998779297</ele>
        <time>2023-08-03T07:48:13.000Z</time>
      </trkpt>
      <trkpt lat="47.12282" lon="6.52513">
        <ele>763.40002441406</ele>
        <time>2023-08-03T07:48:17.000Z</time>
      </trkpt>
      <trkpt lat="47.12287" lon="6.52512">
        <ele>763.40002441406</ele>
        <time>2023-08-03T07:48:18.000Z</time>
      </trkpt>
      <trkpt lat="47.1231" lon="6.5251">
        <ele>764.59997558594</ele>
        <time>2023-08-03T07:48:22.000Z</time>
      </trkpt>
      <trkpt lat="47.1233" lon="6.52507">
        <ele>765</ele>
        <time>2023-08-03T07:48:26.000Z</time>
      </trkpt>
      <trkpt lat="47.12345" lon="6.52504">
        <ele>765.59997558594</ele>
        <time>2023-08-03T07:48:29.000Z</time>
      </trkpt>
      <trkpt lat="47.12372" lon="6.52501">
        <ele>766.79998779297</ele>
        <time>2023-08-03T07:48:34.000Z</time>
      </trkpt>
      <trkpt lat="47.12376" lon="6.525">
        <ele>766.79998779297</ele>
        <time>2023-08-03T07:48:35.000Z</time>
      </trkpt>
      <trkpt lat="47.12423" lon="6.52491">
        <ele>767.79998779297</ele>
        <time>2023-08-03T07:48:44.000Z</time>
      </trkpt>
      <trkpt lat="47.12478" lon="6.52482">
        <ele>767.20001220703</ele>
        <time>2023-08-03T07:48:53.000Z</time>
      </trkpt>
      <trkpt lat="47.12515" lon="6.52471">
        <ele>766</ele>
        <time>2023-08-03T07:48:58.000Z</time>
      </trkpt>
      <trkpt lat="47.12523" lon="6.52467">
        <ele>765.79998779297</ele>
        <time>2023-08-03T07:48:59.000Z</time>
      </trkpt>
      <trkpt lat="47.12555" lon="6.52447">
        <ele>764.20001220703</ele>
        <time>2023-08-03T07:49:03.000Z</time>
      </trkpt>
      <trkpt lat="47.12586" lon="6.52419">
        <ele>762.20001220703</ele>
        <time>2023-08-03T07:49:07.000Z</time>
      </trkpt>
      <trkpt lat="47.12595" lon="6.52413">
        <ele>761.59997558594</ele>
        <time>2023-08-03T07:49:08.000Z</time>
      </trkpt>
      <trkpt lat="47.12613" lon="6.52404">
        <ele>760.59997558594</ele>
        <time>2023-08-03T07:49:10.000Z</time>
      </trkpt>
      <trkpt lat="47.12632" lon="6.52401">
        <ele>759.79998779297</ele>
        <time>2023-08-03T07:49:12.000Z</time>
      </trkpt>
      <trkpt lat="47.12641" lon="6.52401">
        <ele>759.59997558594</ele>
        <time>2023-08-03T07:49:13.000Z</time>
      </trkpt>
      <trkpt lat="47.12657" lon="6.52401">
        <ele>758.20001220703</ele>
        <time>2023-08-03T07:49:15.000Z</time>
      </trkpt>
      <trkpt lat="47.12684" lon="6.524">
        <ele>757.40002441406</ele>
        <time>2023-08-03T07:49:18.000Z</time>
      </trkpt>
      <trkpt lat="47.12697" lon="6.524">
        <ele>757.20001220703</ele>
        <time>2023-08-03T07:49:20.000Z</time>
      </trkpt>
      <trkpt lat="47.12726" lon="6.52401">
        <ele>756.79998779297</ele>
        <time>2023-08-03T07:49:24.000Z</time>
      </trkpt>
      <trkpt lat="47.12746" lon="6.52402">
        <ele>756.79998779297</ele>
        <time>2023-08-03T07:49:27.000Z</time>
      </trkpt>
      <trkpt lat="47.12757" lon="6.52404">
        <ele>756.79998779297</ele>
        <time>2023-08-03T07:49:29.000Z</time>
      </trkpt>
      <trkpt lat="47.12802" lon="6.5242">
        <ele>756.40002441406</ele>
        <time>2023-08-03T07:49:36.000Z</time>
      </trkpt>
      <trkpt lat="47.12828" lon="6.52437">
        <ele>756.79998779297</ele>
        <time>2023-08-03T07:49:41.000Z</time>
      </trkpt>
      <trkpt lat="47.12832" lon="6.52442">
        <ele>757</ele>
        <time>2023-08-03T07:49:42.000Z</time>
      </trkpt>
      <trkpt lat="47.12839" lon="6.52453">
        <ele>757</ele>
        <time>2023-08-03T07:49:44.000Z</time>
      </trkpt>
      <trkpt lat="47.12848" lon="6.52459">
        <ele>757.20001220703</ele>
        <time>2023-08-03T07:49:46.000Z</time>
      </trkpt>
      <trkpt lat="47.12861" lon="6.52453">
        <ele>757.40002441406</ele>
        <time>2023-08-03T07:49:49.000Z</time>
      </trkpt>
      <trkpt lat="47.12873" lon="6.52453">
        <ele>757.59997558594</ele>
        <time>2023-08-03T07:49:51.000Z</time>
      </trkpt>
      <trkpt lat="47.12878" lon="6.52456">
        <ele>757.59997558594</ele>
        <time>2023-08-03T07:49:52.000Z</time>
      </trkpt>
      <trkpt lat="47.12912" lon="6.52481">
        <ele>758.40002441406</ele>
        <time>2023-08-03T07:49:59.000Z</time>
      </trkpt>
      <trkpt lat="47.1292" lon="6.52486">
        <ele>759</ele>
        <time>2023-08-03T07:50:01.000Z</time>
      </trkpt>
      <trkpt lat="47.12938" lon="6.52499">
        <ele>759.40002441406</ele>
        <time>2023-08-03T07:50:05.000Z</time>
      </trkpt>
      <trkpt lat="47.12946" lon="6.52504">
        <ele>759.59997558594</ele>
        <time>2023-08-03T07:50:07.000Z</time>
      </trkpt>
      <trkpt lat="47.1295" lon="6.52506">
        <ele>759.79998779297</ele>
        <time>2023-08-03T07:50:08.000Z</time>
      </trkpt>
      <trkpt lat="47.12969" lon="6.52519">
        <ele>760.79998779297</ele>
        <time>2023-08-03T07:50:13.000Z</time>
      </trkpt>
      <trkpt lat="47.12975" lon="6.52523">
        <ele>761</ele>
        <time>2023-08-03T07:50:15.000Z</time>
      </trkpt>
      <trkpt lat="47.12978" lon="6.52526">
        <ele>761.20001220703</ele>
        <time>2023-08-03T07:50:16.000Z</time>
      </trkpt>
      <trkpt lat="47.12984" lon="6.52532">
        <ele>761.79998779297</ele>
        <time>2023-08-03T07:50:18.000Z</time>
      </trkpt>
      <trkpt lat="47.12994" lon="6.52539">
        <ele>762.79998779297</ele>
        <time>2023-08-03T07:50:21.000Z</time>
      </trkpt>
      <trkpt lat="47.13003" lon="6.52546">
        <ele>763.40002441406</ele>
        <time>2023-08-03T07:50:24.000Z</time>
      </trkpt>
      <trkpt lat="47.13013" lon="6.52554">
        <ele>764</ele>
        <time>2023-08-03T07:50:27.000Z</time>
      </trkpt>
      <trkpt lat="47.13028" lon="6.52563">
        <ele>764.59997558594</ele>
        <time>2023-08-03T07:50:31.000Z</time>
      </trkpt>
      <trkpt lat="47.13038" lon="6.52568">
        <ele>765</ele>
        <time>2023-08-03T07:50:34.000Z</time>
      </trkpt>
      <trkpt lat="47.13046" lon="6.52573">
        <ele>765.40002441406</ele>
        <time>2023-08-03T07:50:36.000Z</time>
      </trkpt>
      <trkpt lat="47.13061" lon="6.52586">
        <ele>766.20001220703</ele>
        <time>2023-08-03T07:50:41.000Z</time>
      </trkpt>
      <trkpt lat="47.13068" lon="6.5259">
        <ele>766.59997558594</ele>
        <time>2023-08-03T07:50:43.000Z</time>
      </trkpt>
      <trkpt lat="47.13079" lon="6.52597">
        <ele>767.40002441406</ele>
        <time>2023-08-03T07:50:46.000Z</time>
      </trkpt>
      <trkpt lat="47.13094" lon="6.5261">
        <ele>768.20001220703</ele>
        <time>2023-08-03T07:50:51.000Z</time>
      </trkpt>
      <trkpt lat="47.13097" lon="6.52613">
        <ele>768.40002441406</ele>
        <time>2023-08-03T07:50:52.000Z</time>
      </trkpt>
      <trkpt lat="47.13109" lon="6.52625">
        <ele>769.79998779297</ele>
        <time>2023-08-03T07:50:56.000Z</time>
      </trkpt>
      <trkpt lat="47.13115" lon="6.52631">
        <ele>770.20001220703</ele>
        <time>2023-08-03T07:50:58.000Z</time>
      </trkpt>
      <trkpt lat="47.13123" lon="6.52641">
        <ele>771</ele>
        <time>2023-08-03T07:51:01.000Z</time>
      </trkpt>
      <trkpt lat="47.13133" lon="6.52653">
        <ele>772.20001220703</ele>
        <time>2023-08-03T07:51:05.000Z</time>
      </trkpt>
      <trkpt lat="47.13146" lon="6.52669">
        <ele>773.40002441406</ele>
        <time>2023-08-03T07:51:10.000Z</time>
      </trkpt>
      <trkpt lat="47.1315" lon="6.52676">
        <ele>773.59997558594</ele>
        <time>2023-08-03T07:51:12.000Z</time>
      </trkpt>
      <trkpt lat="47.13163" lon="6.52692">
        <ele>774.79998779297</ele>
        <time>2023-08-03T07:51:17.000Z</time>
      </trkpt>
      <trkpt lat="47.13166" lon="6.52695">
        <ele>774.79998779297</ele>
        <time>2023-08-03T07:51:18.000Z</time>
      </trkpt>
      <trkpt lat="47.13178" lon="6.52711">
        <ele>775.79998779297</ele>
        <time>2023-08-03T07:51:23.000Z</time>
      </trkpt>
      <trkpt lat="47.13186" lon="6.52721">
        <ele>776.59997558594</ele>
        <time>2023-08-03T07:51:26.000Z</time>
      </trkpt>
      <trkpt lat="47.13188" lon="6.52724">
        <ele>776.79998779297</ele>
        <time>2023-08-03T07:51:27.000Z</time>
      </trkpt>
      <trkpt lat="47.13202" lon="6.52743">
        <ele>777.59997558594</ele>
        <time>2023-08-03T07:51:33.000Z</time>
      </trkpt>
      <trkpt lat="47.13205" lon="6.52746">
        <ele>777.79998779297</ele>
        <time>2023-08-03T07:51:34.000Z</time>
      </trkpt>
      <trkpt lat="47.13219" lon="6.52767">
        <ele>779</ele>
        <time>2023-08-03T07:51:40.000Z</time>
      </trkpt>
      <trkpt lat="47.13221" lon="6.52771">
        <ele>779.20001220703</ele>
        <time>2023-08-03T07:51:41.000Z</time>
      </trkpt>
      <trkpt lat="47.13232" lon="6.5279">
        <ele>780.20001220703</ele>
        <time>2023-08-03T07:51:46.000Z</time>
      </trkpt>
      <trkpt lat="47.13239" lon="6.52802">
        <ele>780.79998779297</ele>
        <time>2023-08-03T07:51:49.000Z</time>
      </trkpt>
      <trkpt lat="47.13246" lon="6.52814">
        <ele>781.20001220703</ele>
        <time>2023-08-03T07:51:52.000Z</time>
      </trkpt>
      <trkpt lat="47.13255" lon="6.52831">
        <ele>782</ele>
        <time>2023-08-03T07:51:56.000Z</time>
      </trkpt>
      <trkpt lat="47.1326" lon="6.5284">
        <ele>782.40002441406</ele>
        <time>2023-08-03T07:51:58.000Z</time>
      </trkpt>
      <trkpt lat="47.13274" lon="6.52865">
        <ele>783.20001220703</ele>
        <time>2023-08-03T07:52:04.000Z</time>
      </trkpt>
      <trkpt lat="47.13277" lon="6.52869">
        <ele>783.40002441406</ele>
        <time>2023-08-03T07:52:05.000Z</time>
      </trkpt>
      <trkpt lat="47.13297" lon="6.52903">
        <ele>784.20001220703</ele>
        <time>2023-08-03T07:52:13.000Z</time>
      </trkpt>
      <trkpt lat="47.13304" lon="6.52916">
        <ele>784.59997558594</ele>
        <time>2023-08-03T07:52:16.000Z</time>
      </trkpt>
      <trkpt lat="47.13323" lon="6.52949">
        <ele>785.59997558594</ele>
        <time>2023-08-03T07:52:23.000Z</time>
      </trkpt>
      <trkpt lat="47.13323" lon="6.52949">
        <ele>785.59997558594</ele>
        <time>2023-08-03T07:52:24.000Z</time>
      </trkpt>
      <trkpt lat="47.13348" lon="6.52994">
        <ele>786.20001220703</ele>
        <time>2023-08-03T07:52:32.000Z</time>
      </trkpt>
      <trkpt lat="47.13369" lon="6.53042">
        <ele>785.79998779297</ele>
        <time>2023-08-03T07:52:40.000Z</time>
      </trkpt>
      <trkpt lat="47.13388" lon="6.53104">
        <ele>785.59997558594</ele>
        <time>2023-08-03T07:52:49.000Z</time>
      </trkpt>
      <trkpt lat="47.13411" lon="6.53177">
        <ele>785</ele>
        <time>2023-08-03T07:52:58.000Z</time>
      </trkpt>
      <trkpt lat="47.13428" lon="6.5321">
        <ele>784.59997558594</ele>
        <time>2023-08-03T07:53:02.000Z</time>
      </trkpt>
      <trkpt lat="47.13432" lon="6.53218">
        <ele>784</ele>
        <time>2023-08-03T07:53:04.000Z</time>
      </trkpt>
      <trkpt lat="47.13438" lon="6.53233">
        <ele>783.59997558594</ele>
        <time>2023-08-03T07:53:05.000Z</time>
      </trkpt>
      <trkpt lat="47.13439" lon="6.53241">
        <ele>783.59997558594</ele>
        <time>2023-08-03T07:53:06.000Z</time>
      </trkpt>
      <trkpt lat="47.1344" lon="6.53249">
        <ele>783.40002441406</ele>
        <time>2023-08-03T07:53:07.000Z</time>
      </trkpt>
      <trkpt lat="47.13438" lon="6.53265">
        <ele>782.40002441406</ele>
        <time>2023-08-03T07:53:09.000Z</time>
      </trkpt>
      <trkpt lat="47.13434" lon="6.53281">
        <ele>781.79998779297</ele>
        <time>2023-08-03T07:53:11.000Z</time>
      </trkpt>
      <trkpt lat="47.13428" lon="6.53298">
        <ele>781.40002441406</ele>
        <time>2023-08-03T07:53:13.000Z</time>
      </trkpt>
      <trkpt lat="47.13409" lon="6.53338">
        <ele>780.40002441406</ele>
        <time>2023-08-03T07:53:18.000Z</time>
      </trkpt>
      <trkpt lat="47.13405" lon="6.53345">
        <ele>780.20001220703</ele>
        <time>2023-08-03T07:53:19.000Z</time>
      </trkpt>
      <trkpt lat="47.13376" lon="6.5339">
        <ele>779</ele>
        <time>2023-08-03T07:53:25.000Z</time>
      </trkpt>
      <trkpt lat="47.13366" lon="6.53405">
        <ele>778.79998779297</ele>
        <time>2023-08-03T07:53:27.000Z</time>
      </trkpt>
      <trkpt lat="47.13351" lon="6.53427">
        <ele>778</ele>
        <time>2023-08-03T07:53:30.000Z</time>
      </trkpt>
      <trkpt lat="47.13319" lon="6.53474">
        <ele>776.79998779297</ele>
        <time>2023-08-03T07:53:36.000Z</time>
      </trkpt>
      <trkpt lat="47.13289" lon="6.53524">
        <ele>775.40002441406</ele>
        <time>2023-08-03T07:53:42.000Z</time>
      </trkpt>
      <trkpt lat="47.13284" lon="6.53533">
        <ele>775.40002441406</ele>
        <time>2023-08-03T07:53:43.000Z</time>
      </trkpt>
      <trkpt lat="47.13267" lon="6.53583">
        <ele>774.40002441406</ele>
        <time>2023-08-03T07:53:48.000Z</time>
      </trkpt>
      <trkpt lat="47.13264" lon="6.53596">
        <ele>774</ele>
        <time>2023-08-03T07:53:49.000Z</time>
      </trkpt>
      <trkpt lat="47.13258" lon="6.53628">
        <ele>773.40002441406</ele>
        <time>2023-08-03T07:53:52.000Z</time>
      </trkpt>
      <trkpt lat="47.13254" lon="6.53663">
        <ele>772.59997558594</ele>
        <time>2023-08-03T07:53:55.000Z</time>
      </trkpt>
      <trkpt lat="47.13251" lon="6.53699">
        <ele>772.20001220703</ele>
        <time>2023-08-03T07:53:58.000Z</time>
      </trkpt>
      <trkpt lat="47.13248" lon="6.53749">
        <ele>771.20001220703</ele>
        <time>2023-08-03T07:54:02.000Z</time>
      </trkpt>
      <trkpt lat="47.13243" lon="6.53799">
        <ele>770</ele>
        <time>2023-08-03T07:54:06.000Z</time>
      </trkpt>
      <trkpt lat="47.13238" lon="6.53824">
        <ele>769.59997558594</ele>
        <time>2023-08-03T07:54:08.000Z</time>
      </trkpt>
      <trkpt lat="47.13235" lon="6.53836">
        <ele>769</ele>
        <time>2023-08-03T07:54:09.000Z</time>
      </trkpt>
      <trkpt lat="47.13221" lon="6.53868">
        <ele>768.20001220703</ele>
        <time>2023-08-03T07:54:12.000Z</time>
      </trkpt>
      <trkpt lat="47.13215" lon="6.53878">
        <ele>768</ele>
        <time>2023-08-03T07:54:13.000Z</time>
      </trkpt>
      <trkpt lat="47.13191" lon="6.53917">
        <ele>766.79998779297</ele>
        <time>2023-08-03T07:54:17.000Z</time>
      </trkpt>
      <trkpt lat="47.1318" lon="6.53936">
        <ele>766.40002441406</ele>
        <time>2023-08-03T07:54:19.000Z</time>
      </trkpt>
      <trkpt lat="47.13169" lon="6.53958">
        <ele>765.59997558594</ele>
        <time>2023-08-03T07:54:21.000Z</time>
      </trkpt>
      <trkpt lat="47.1316" lon="6.53981">
        <ele>765.20001220703</ele>
        <time>2023-08-03T07:54:23.000Z</time>
      </trkpt>
      <trkpt lat="47.13157" lon="6.53993">
        <ele>765</ele>
        <time>2023-08-03T07:54:24.000Z</time>
      </trkpt>
      <trkpt lat="47.13148" lon="6.5403">
        <ele>764.40002441406</ele>
        <time>2023-08-03T07:54:27.000Z</time>
      </trkpt>
      <trkpt lat="47.13142" lon="6.54067">
        <ele>763</ele>
        <time>2023-08-03T07:54:30.000Z</time>
      </trkpt>
      <trkpt lat="47.13136" lon="6.54118">
        <ele>762</ele>
        <time>2023-08-03T07:54:34.000Z</time>
      </trkpt>
      <trkpt lat="47.13135" lon="6.54157">
        <ele>761</ele>
        <time>2023-08-03T07:54:37.000Z</time>
      </trkpt>
      <trkpt lat="47.13136" lon="6.5417">
        <ele>760.79998779297</ele>
        <time>2023-08-03T07:54:38.000Z</time>
      </trkpt>
      <trkpt lat="47.13142" lon="6.54209">
        <ele>759.59997558594</ele>
        <time>2023-08-03T07:54:41.000Z</time>
      </trkpt>
      <trkpt lat="47.13145" lon="6.54236">
        <ele>758.79998779297</ele>
        <time>2023-08-03T07:54:43.000Z</time>
      </trkpt>
      <trkpt lat="47.13146" lon="6.54249">
        <ele>758.79998779297</ele>
        <time>2023-08-03T07:54:44.000Z</time>
      </trkpt>
      <trkpt lat="47.13146" lon="6.54277">
        <ele>758</ele>
        <time>2023-08-03T07:54:46.000Z</time>
      </trkpt>
      <trkpt lat="47.13144" lon="6.5429">
        <ele>757.79998779297</ele>
        <time>2023-08-03T07:54:47.000Z</time>
      </trkpt>
      <trkpt lat="47.13142" lon="6.54303">
        <ele>757.59997558594</ele>
        <time>2023-08-03T07:54:48.000Z</time>
      </trkpt>
      <trkpt lat="47.13134" lon="6.54327">
        <ele>757</ele>
        <time>2023-08-03T07:54:50.000Z</time>
      </trkpt>
      <trkpt lat="47.1313" lon="6.54338">
        <ele>756.79998779297</ele>
        <time>2023-08-03T07:54:51.000Z</time>
      </trkpt>
      <trkpt lat="47.13124" lon="6.54349">
        <ele>756.40002441406</ele>
        <time>2023-08-03T07:54:52.000Z</time>
      </trkpt>
      <trkpt lat="47.131" lon="6.54386">
        <ele>755.79998779297</ele>
        <time>2023-08-03T07:54:56.000Z</time>
      </trkpt>
      <trkpt lat="47.13082" lon="6.54414">
        <ele>755.40002441406</ele>
        <time>2023-08-03T07:54:59.000Z</time>
      </trkpt>
      <trkpt lat="47.13051" lon="6.54461">
        <ele>754</ele>
        <time>2023-08-03T07:55:04.000Z</time>
      </trkpt>
      <trkpt lat="47.13039" lon="6.54479">
        <ele>753.59997558594</ele>
        <time>2023-08-03T07:55:06.000Z</time>
      </trkpt>
      <trkpt lat="47.13016" lon="6.54514">
        <ele>753</ele>
        <time>2023-08-03T07:55:10.000Z</time>
      </trkpt>
      <trkpt lat="47.12988" lon="6.54562">
        <ele>752.20001220703</ele>
        <time>2023-08-03T07:55:15.000Z</time>
      </trkpt>
      <trkpt lat="47.12982" lon="6.54575">
        <ele>752</ele>
        <time>2023-08-03T07:55:16.000Z</time>
      </trkpt>
      <trkpt lat="47.12962" lon="6.54632">
        <ele>751</ele>
        <time>2023-08-03T07:55:21.000Z</time>
      </trkpt>
      <trkpt lat="47.12959" lon="6.54641">
        <ele>750.79998779297</ele>
        <time>2023-08-03T07:55:22.000Z</time>
      </trkpt>
      <trkpt lat="47.12938" lon="6.54712">
        <ele>749.59997558594</ele>
        <time>2023-08-03T07:55:28.000Z</time>
      </trkpt>
      <trkpt lat="47.12926" lon="6.54749">
        <ele>748.59997558594</ele>
        <time>2023-08-03T07:55:31.000Z</time>
      </trkpt>
      <trkpt lat="47.12902" lon="6.54803">
        <ele>747.79998779297</ele>
        <time>2023-08-03T07:55:36.000Z</time>
      </trkpt>
      <trkpt lat="47.12896" lon="6.54813">
        <ele>747.59997558594</ele>
        <time>2023-08-03T07:55:37.000Z</time>
      </trkpt>
      <trkpt lat="47.12867" lon="6.54848">
        <ele>747</ele>
        <time>2023-08-03T07:55:41.000Z</time>
      </trkpt>
      <trkpt lat="47.12854" lon="6.54862">
        <ele>746.59997558594</ele>
        <time>2023-08-03T07:55:43.000Z</time>
      </trkpt>
      <trkpt lat="47.12819" lon="6.54901">
        <ele>745.59997558594</ele>
        <time>2023-08-03T07:55:48.000Z</time>
      </trkpt>
      <trkpt lat="47.12792" lon="6.54932">
        <ele>744.79998779297</ele>
        <time>2023-08-03T07:55:52.000Z</time>
      </trkpt>
      <trkpt lat="47.12784" lon="6.54942">
        <ele>744.79998779297</ele>
        <time>2023-08-03T07:55:53.000Z</time>
      </trkpt>
      <trkpt lat="47.12755" lon="6.54986">
        <ele>744</ele>
        <time>2023-08-03T07:55:58.000Z</time>
      </trkpt>
      <trkpt lat="47.12751" lon="6.54994">
        <ele>743.59997558594</ele>
        <time>2023-08-03T07:55:59.000Z</time>
      </trkpt>
      <trkpt lat="47.12745" lon="6.55007">
        <ele>743.40002441406</ele>
        <time>2023-08-03T07:56:00.000Z</time>
      </trkpt>
      <trkpt lat="47.12733" lon="6.55039">
        <ele>742.59997558594</ele>
        <time>2023-08-03T07:56:03.000Z</time>
      </trkpt>
      <trkpt lat="47.12722" lon="6.55106">
        <ele>742</ele>
        <time>2023-08-03T07:56:08.000Z</time>
      </trkpt>
      <trkpt lat="47.12719" lon="6.55144">
        <ele>741.59997558594</ele>
        <time>2023-08-03T07:56:11.000Z</time>
      </trkpt>
      <trkpt lat="47.12715" lon="6.55186">
        <ele>741</ele>
        <time>2023-08-03T07:56:14.000Z</time>
      </trkpt>
      <trkpt lat="47.1271" lon="6.55209">
        <ele>740.59997558594</ele>
        <time>2023-08-03T07:56:16.000Z</time>
      </trkpt>
      <trkpt lat="47.12688" lon="6.55268">
        <ele>739</ele>
        <time>2023-08-03T07:56:21.000Z</time>
      </trkpt>
      <trkpt lat="47.12666" lon="6.55326">
        <ele>738</ele>
        <time>2023-08-03T07:56:26.000Z</time>
      </trkpt>
      <trkpt lat="47.12659" lon="6.55354">
        <ele>737.79998779297</ele>
        <time>2023-08-03T07:56:28.000Z</time>
      </trkpt>
      <trkpt lat="47.12653" lon="6.5539">
        <ele>737.40002441406</ele>
        <time>2023-08-03T07:56:31.000Z</time>
      </trkpt>
      <trkpt lat="47.12649" lon="6.55429">
        <ele>736.79998779297</ele>
        <time>2023-08-03T07:56:34.000Z</time>
      </trkpt>
      <trkpt lat="47.12648" lon="6.55481">
        <ele>735.79998779297</ele>
        <time>2023-08-03T07:56:38.000Z</time>
      </trkpt>
      <trkpt lat="47.12653" lon="6.55506">
        <ele>735.59997558594</ele>
        <time>2023-08-03T07:56:40.000Z</time>
      </trkpt>
      <trkpt lat="47.12656" lon="6.55518">
        <ele>735.40002441406</ele>
        <time>2023-08-03T07:56:41.000Z</time>
      </trkpt>
      <trkpt lat="47.12661" lon="6.55529">
        <ele>735.40002441406</ele>
        <time>2023-08-03T07:56:42.000Z</time>
      </trkpt>
      <trkpt lat="47.12671" lon="6.55549">
        <ele>735</ele>
        <time>2023-08-03T07:56:44.000Z</time>
      </trkpt>
      <trkpt lat="47.12685" lon="6.55565">
        <ele>734.59997558594</ele>
        <time>2023-08-03T07:56:46.000Z</time>
      </trkpt>
      <trkpt lat="47.12692" lon="6.55571">
        <ele>734.40002441406</ele>
        <time>2023-08-03T07:56:47.000Z</time>
      </trkpt>
      <trkpt lat="47.12716" lon="6.55583">
        <ele>734</ele>
        <time>2023-08-03T07:56:50.000Z</time>
      </trkpt>
      <trkpt lat="47.12737" lon="6.55586">
        <ele>733.40002441406</ele>
        <time>2023-08-03T07:56:53.000Z</time>
      </trkpt>
      <trkpt lat="47.12742" lon="6.55586">
        <ele>733.40002441406</ele>
        <time>2023-08-03T07:56:54.000Z</time>
      </trkpt>
      <trkpt lat="47.12759" lon="6.55591">
        <ele>732</ele>
        <time>2023-08-03T07:56:58.000Z</time>
      </trkpt>
      <trkpt lat="47.12763" lon="6.55593">
        <ele>731.79998779297</ele>
        <time>2023-08-03T07:56:59.000Z</time>
      </trkpt>
      <trkpt lat="47.12767" lon="6.55595">
        <ele>731.59997558594</ele>
        <time>2023-08-03T07:57:00.000Z</time>
      </trkpt>
      <trkpt lat="47.12782" lon="6.55609">
        <ele>731</ele>
        <time>2023-08-03T07:57:03.000Z</time>
      </trkpt>
      <trkpt lat="47.12785" lon="6.55614">
        <ele>731</ele>
        <time>2023-08-03T07:57:04.000Z</time>
      </trkpt>
      <trkpt lat="47.12785" lon="6.55614">
        <ele>730.79998779297</ele>
        <time>2023-08-03T07:57:05.000Z</time>
      </trkpt>
      <trkpt lat="47.12793" lon="6.55627">
        <ele>730.59997558594</ele>
        <time>2023-08-03T07:57:06.000Z</time>
      </trkpt>
      <trkpt lat="47.12803" lon="6.55649">
        <ele>730.20001220703</ele>
        <time>2023-08-03T07:57:09.000Z</time>
      </trkpt>
      <trkpt lat="47.12808" lon="6.55665">
        <ele>730</ele>
        <time>2023-08-03T07:57:11.000Z</time>
      </trkpt>
      <trkpt lat="47.12809" lon="6.55673">
        <ele>729.79998779297</ele>
        <time>2023-08-03T07:57:12.000Z</time>
      </trkpt>
      <trkpt lat="47.12812" lon="6.55692">
        <ele>729.79998779297</ele>
        <time>2023-08-03T07:57:14.000Z</time>
      </trkpt>
      <trkpt lat="47.12813" lon="6.55717">
        <ele>729.40002441406</ele>
        <time>2023-08-03T07:57:17.000Z</time>
      </trkpt>
      <trkpt lat="47.12811" lon="6.55734">
        <ele>729.20001220703</ele>
        <time>2023-08-03T07:57:19.000Z</time>
      </trkpt>
      <trkpt lat="47.12804" lon="6.55767">
        <ele>728.79998779297</ele>
        <time>2023-08-03T07:57:23.000Z</time>
      </trkpt>
      <trkpt lat="47.12801" lon="6.5578">
        <ele>728.59997558594</ele>
        <time>2023-08-03T07:57:25.000Z</time>
      </trkpt>
      <trkpt lat="47.12797" lon="6.55802">
        <ele>727.79998779297</ele>
        <time>2023-08-03T07:57:30.000Z</time>
      </trkpt>
      <trkpt lat="47.12796" lon="6.55808">
        <ele>727.40002441406</ele>
        <time>2023-08-03T07:57:33.000Z</time>
      </trkpt>
      <trkpt lat="47.12796" lon="6.5581">
        <ele>727.20001220703</ele>
        <time>2023-08-03T07:57:35.000Z</time>
      </trkpt>
      <trkpt lat="47.12792" lon="6.55815">
        <ele>726.79998779297</ele>
        <time>2023-08-03T07:57:40.000Z</time>
      </trkpt>
      <trkpt lat="47.12792" lon="6.55816">
        <ele>726.59997558594</ele>
        <time>2023-08-03T07:57:43.000Z</time>
      </trkpt>
      <trkpt lat="47.12795" lon="6.55832">
        <ele>726.79998779297</ele>
        <time>2023-08-03T07:59:47.000Z</time>
      </trkpt>
      <trkpt lat="47.12795" lon="6.55835">
        <ele>727</ele>
        <time>2023-08-03T07:59:48.000Z</time>
      </trkpt>
      <trkpt lat="47.128" lon="6.55864">
        <ele>726.79998779297</ele>
        <time>2023-08-03T07:59:53.000Z</time>
      </trkpt>
      <trkpt lat="47.12804" lon="6.5588">
        <ele>726.59997558594</ele>
        <time>2023-08-03T07:59:55.000Z</time>
      </trkpt>
      <trkpt lat="47.1281" lon="6.55901">
        <ele>726.40002441406</ele>
        <time>2023-08-03T07:59:58.000Z</time>
      </trkpt>
      <trkpt lat="47.12816" lon="6.55913">
        <ele>726</ele>
        <time>2023-08-03T08:00:00.000Z</time>
      </trkpt>
      <trkpt lat="47.12827" lon="6.55935">
        <ele>725.59997558594</ele>
        <time>2023-08-03T08:00:03.000Z</time>
      </trkpt>
      <trkpt lat="47.12854" lon="6.55983">
        <ele>724.79998779297</ele>
        <time>2023-08-03T08:00:09.000Z</time>
      </trkpt>
      <trkpt lat="47.12854" lon="6.55983">
        <ele>724.79998779297</ele>
        <time>2023-08-03T08:00:10.000Z</time>
      </trkpt>
      <trkpt lat="47.12892" lon="6.5604">
        <ele>724.20001220703</ele>
        <time>2023-08-03T08:00:16.000Z</time>
      </trkpt>
      <trkpt lat="47.12918" lon="6.56061">
        <ele>723.79998779297</ele>
        <time>2023-08-03T08:00:20.000Z</time>
      </trkpt>
      <trkpt lat="47.12925" lon="6.56065">
        <ele>723.59997558594</ele>
        <time>2023-08-03T08:00:21.000Z</time>
      </trkpt>
      <trkpt lat="47.12941" lon="6.56071">
        <ele>723.59997558594</ele>
        <time>2023-08-03T08:00:23.000Z</time>
      </trkpt>
      <trkpt lat="47.12958" lon="6.56073">
        <ele>723.20001220703</ele>
        <time>2023-08-03T08:00:25.000Z</time>
      </trkpt>
      <trkpt lat="47.12974" lon="6.56076">
        <ele>722.79998779297</ele>
        <time>2023-08-03T08:00:27.000Z</time>
      </trkpt>
      <trkpt lat="47.13007" lon="6.5608">
        <ele>722.20001220703</ele>
        <time>2023-08-03T08:00:31.000Z</time>
      </trkpt>
      <trkpt lat="47.13017" lon="6.56084">
        <ele>722</ele>
        <time>2023-08-03T08:00:32.000Z</time>
      </trkpt>
      <trkpt lat="47.13033" lon="6.56091">
        <ele>721.79998779297</ele>
        <time>2023-08-03T08:00:34.000Z</time>
      </trkpt>
      <trkpt lat="47.13062" lon="6.56106">
        <ele>721</ele>
        <time>2023-08-03T08:00:38.000Z</time>
      </trkpt>
      <trkpt lat="47.13078" lon="6.56116">
        <ele>720.59997558594</ele>
        <time>2023-08-03T08:00:41.000Z</time>
      </trkpt>
      <trkpt lat="47.13083" lon="6.5612">
        <ele>720.40002441406</ele>
        <time>2023-08-03T08:00:42.000Z</time>
      </trkpt>
      <trkpt lat="47.13087" lon="6.56126">
        <ele>720.20001220703</ele>
        <time>2023-08-03T08:00:43.000Z</time>
      </trkpt>
      <trkpt lat="47.13094" lon="6.56139">
        <ele>719.79998779297</ele>
        <time>2023-08-03T08:00:45.000Z</time>
      </trkpt>
      <trkpt lat="47.13096" lon="6.56147">
        <ele>719.79998779297</ele>
        <time>2023-08-03T08:00:46.000Z</time>
      </trkpt>
      <trkpt lat="47.13104" lon="6.56164">
        <ele>719.40002441406</ele>
        <time>2023-08-03T08:00:48.000Z</time>
      </trkpt>
      <trkpt lat="47.13123" lon="6.56202">
        <ele>719</ele>
        <time>2023-08-03T08:00:53.000Z</time>
      </trkpt>
      <trkpt lat="47.13135" lon="6.56236">
        <ele>718.40002441406</ele>
        <time>2023-08-03T08:00:57.000Z</time>
      </trkpt>
      <trkpt lat="47.13137" lon="6.56245">
        <ele>718.20001220703</ele>
        <time>2023-08-03T08:00:58.000Z</time>
      </trkpt>
      <trkpt lat="47.13144" lon="6.56305">
        <ele>717.79998779297</ele>
        <time>2023-08-03T08:01:04.000Z</time>
      </trkpt>
      <trkpt lat="47.13145" lon="6.56356">
        <ele>717.40002441406</ele>
        <time>2023-08-03T08:01:09.000Z</time>
      </trkpt>
      <trkpt lat="47.13147" lon="6.56366">
        <ele>717.40002441406</ele>
        <time>2023-08-03T08:01:10.000Z</time>
      </trkpt>
      <trkpt lat="47.13156" lon="6.56396">
        <ele>717.20001220703</ele>
        <time>2023-08-03T08:01:13.000Z</time>
      </trkpt>
      <trkpt lat="47.13166" lon="6.56427">
        <ele>717</ele>
        <time>2023-08-03T08:01:16.000Z</time>
      </trkpt>
      <trkpt lat="47.13171" lon="6.56461">
        <ele>716.59997558594</ele>
        <time>2023-08-03T08:01:19.000Z</time>
      </trkpt>
      <trkpt lat="47.13172" lon="6.56473">
        <ele>716.40002441406</ele>
        <time>2023-08-03T08:01:20.000Z</time>
      </trkpt>
      <trkpt lat="47.13171" lon="6.56485">
        <ele>716.40002441406</ele>
        <time>2023-08-03T08:01:21.000Z</time>
      </trkpt>
      <trkpt lat="47.1317" lon="6.56497">
        <ele>716.20001220703</ele>
        <time>2023-08-03T08:01:22.000Z</time>
      </trkpt>
      <trkpt lat="47.13168" lon="6.56508">
        <ele>716.20001220703</ele>
        <time>2023-08-03T08:01:23.000Z</time>
      </trkpt>
      <trkpt lat="47.13166" lon="6.56519">
        <ele>716</ele>
        <time>2023-08-03T08:01:24.000Z</time>
      </trkpt>
      <trkpt lat="47.13153" lon="6.56563">
        <ele>715</ele>
        <time>2023-08-03T08:01:28.000Z</time>
      </trkpt>
      <trkpt lat="47.13151" lon="6.56586">
        <ele>714.79998779297</ele>
        <time>2023-08-03T08:01:30.000Z</time>
      </trkpt>
      <trkpt lat="47.1315" lon="6.56597">
        <ele>714.59997558594</ele>
        <time>2023-08-03T08:01:31.000Z</time>
      </trkpt>
      <trkpt lat="47.13153" lon="6.56631">
        <ele>714.40002441406</ele>
        <time>2023-08-03T08:01:34.000Z</time>
      </trkpt>
      <trkpt lat="47.13161" lon="6.56675">
        <ele>713.79998779297</ele>
        <time>2023-08-03T08:01:38.000Z</time>
      </trkpt>
      <trkpt lat="47.13166" lon="6.5671">
        <ele>713.20001220703</ele>
        <time>2023-08-03T08:01:41.000Z</time>
      </trkpt>
      <trkpt lat="47.13171" lon="6.56755">
        <ele>712.79998779297</ele>
        <time>2023-08-03T08:01:45.000Z</time>
      </trkpt>
      <trkpt lat="47.13174" lon="6.56787">
        <ele>712.59997558594</ele>
        <time>2023-08-03T08:01:48.000Z</time>
      </trkpt>
      <trkpt lat="47.13183" lon="6.56868">
        <ele>712.20001220703</ele>
        <time>2023-08-03T08:01:55.000Z</time>
      </trkpt>
      <trkpt lat="47.13202" lon="6.56938">
        <ele>712</ele>
        <time>2023-08-03T08:02:01.000Z</time>
      </trkpt>
      <trkpt lat="47.13211" lon="6.56971">
        <ele>711.79998779297</ele>
        <time>2023-08-03T08:02:04.000Z</time>
      </trkpt>
      <trkpt lat="47.13221" lon="6.57022">
        <ele>711.59997558594</ele>
        <time>2023-08-03T08:02:08.000Z</time>
      </trkpt>
      <trkpt lat="47.13235" lon="6.57102">
        <ele>712</ele>
        <time>2023-08-03T08:02:15.000Z</time>
      </trkpt>
      <trkpt lat="47.13255" lon="6.57154">
        <ele>712.20001220703</ele>
        <time>2023-08-03T08:02:20.000Z</time>
      </trkpt>
      <trkpt lat="47.13283" lon="6.57212">
        <ele>712.59997558594</ele>
        <time>2023-08-03T08:02:26.000Z</time>
      </trkpt>
      <trkpt lat="47.13311" lon="6.57276">
        <ele>712.20001220703</ele>
        <time>2023-08-03T08:02:32.000Z</time>
      </trkpt>
      <trkpt lat="47.13342" lon="6.5735">
        <ele>711.59997558594</ele>
        <time>2023-08-03T08:02:38.000Z</time>
      </trkpt>
      <trkpt lat="47.13351" lon="6.57375">
        <ele>711</ele>
        <time>2023-08-03T08:02:40.000Z</time>
      </trkpt>
      <trkpt lat="47.13356" lon="6.57388">
        <ele>710.40002441406</ele>
        <time>2023-08-03T08:02:41.000Z</time>
      </trkpt>
      <trkpt lat="47.13368" lon="6.57428">
        <ele>709</ele>
        <time>2023-08-03T08:02:44.000Z</time>
      </trkpt>
      <trkpt lat="47.13384" lon="6.57479">
        <ele>708.40002441406</ele>
        <time>2023-08-03T08:02:48.000Z</time>
      </trkpt>
      <trkpt lat="47.13393" lon="6.57505">
        <ele>708</ele>
        <time>2023-08-03T08:02:50.000Z</time>
      </trkpt>
      <trkpt lat="47.13415" lon="6.57554">
        <ele>706.79998779297</ele>
        <time>2023-08-03T08:02:54.000Z</time>
      </trkpt>
      <trkpt lat="47.13452" lon="6.57622">
        <ele>705.79998779297</ele>
        <time>2023-08-03T08:03:00.000Z</time>
      </trkpt>
      <trkpt lat="47.13458" lon="6.57634">
        <ele>705.79998779297</ele>
        <time>2023-08-03T08:03:01.000Z</time>
      </trkpt>
      <trkpt lat="47.13471" lon="6.57657">
        <ele>705.40002441406</ele>
        <time>2023-08-03T08:03:03.000Z</time>
      </trkpt>
      <trkpt lat="47.13504" lon="6.57711">
        <ele>704.59997558594</ele>
        <time>2023-08-03T08:03:08.000Z</time>
      </trkpt>
      <trkpt lat="47.13545" lon="6.57779">
        <ele>703.79998779297</ele>
        <time>2023-08-03T08:03:14.000Z</time>
      </trkpt>
      <trkpt lat="47.1355" lon="6.57787">
        <ele>703.40002441406</ele>
        <time>2023-08-03T08:03:15.000Z</time>
      </trkpt>
      <trkpt lat="47.13566" lon="6.57809">
        <ele>703</ele>
        <time>2023-08-03T08:03:17.000Z</time>
      </trkpt>
      <trkpt lat="47.13601" lon="6.57854">
        <ele>702.40002441406</ele>
        <time>2023-08-03T08:03:22.000Z</time>
      </trkpt>
      <trkpt lat="47.13628" lon="6.5789">
        <ele>701.79998779297</ele>
        <time>2023-08-03T08:03:26.000Z</time>
      </trkpt>
      <trkpt lat="47.13663" lon="6.57947">
        <ele>701.59997558594</ele>
        <time>2023-08-03T08:03:32.000Z</time>
      </trkpt>
      <trkpt lat="47.13698" lon="6.57999">
        <ele>701.59997558594</ele>
        <time>2023-08-03T08:03:38.000Z</time>
      </trkpt>
      <trkpt lat="47.1374" lon="6.58049">
        <ele>701.59997558594</ele>
        <time>2023-08-03T08:03:45.000Z</time>
      </trkpt>
      <trkpt lat="47.13768" lon="6.58083">
        <ele>701.40002441406</ele>
        <time>2023-08-03T08:03:50.000Z</time>
      </trkpt>
      <trkpt lat="47.13779" lon="6.58095">
        <ele>701.40002441406</ele>
        <time>2023-08-03T08:03:52.000Z</time>
      </trkpt>
      <trkpt lat="47.13822" lon="6.58143">
        <ele>701.20001220703</ele>
        <time>2023-08-03T08:03:59.000Z</time>
      </trkpt>
      <trkpt lat="47.13846" lon="6.58171">
        <ele>701</ele>
        <time>2023-08-03T08:04:03.000Z</time>
      </trkpt>
      <trkpt lat="47.1388" lon="6.58221">
        <ele>700.59997558594</ele>
        <time>2023-08-03T08:04:09.000Z</time>
      </trkpt>
      <trkpt lat="47.1389" lon="6.5824">
        <ele>700.40002441406</ele>
        <time>2023-08-03T08:04:11.000Z</time>
      </trkpt>
      <trkpt lat="47.13911" lon="6.58289">
        <ele>700</ele>
        <time>2023-08-03T08:04:16.000Z</time>
      </trkpt>
      <trkpt lat="47.13939" lon="6.58372">
        <ele>700</ele>
        <time>2023-08-03T08:04:24.000Z</time>
      </trkpt>
      <trkpt lat="47.13942" lon="6.58383">
        <ele>700</ele>
        <time>2023-08-03T08:04:25.000Z</time>
      </trkpt>
      <trkpt lat="47.13961" lon="6.58458">
        <ele>700</ele>
        <time>2023-08-03T08:04:32.000Z</time>
      </trkpt>
      <trkpt lat="47.13974" lon="6.58536">
        <ele>700</ele>
        <time>2023-08-03T08:04:39.000Z</time>
      </trkpt>
      <trkpt lat="47.13979" lon="6.58559">
        <ele>700</ele>
        <time>2023-08-03T08:04:41.000Z</time>
      </trkpt>
      <trkpt lat="47.13994" lon="6.58639">
        <ele>699.59997558594</ele>
        <time>2023-08-03T08:04:48.000Z</time>
      </trkpt>
      <trkpt lat="47.14" lon="6.58673">
        <ele>699.40002441406</ele>
        <time>2023-08-03T08:04:51.000Z</time>
      </trkpt>
      <trkpt lat="47.14007" lon="6.58718">
        <ele>699.20001220703</ele>
        <time>2023-08-03T08:04:55.000Z</time>
      </trkpt>
      <trkpt lat="47.14018" lon="6.58787">
        <ele>699</ele>
        <time>2023-08-03T08:05:01.000Z</time>
      </trkpt>
      <trkpt lat="47.14021" lon="6.58798">
        <ele>699</ele>
        <time>2023-08-03T08:05:02.000Z</time>
      </trkpt>
      <trkpt lat="47.14029" lon="6.5882">
        <ele>698.79998779297</ele>
        <time>2023-08-03T08:05:04.000Z</time>
      </trkpt>
      <trkpt lat="47.14035" lon="6.58829">
        <ele>698.79998779297</ele>
        <time>2023-08-03T08:05:05.000Z</time>
      </trkpt>
      <trkpt lat="47.1407" lon="6.58872">
        <ele>698.20001220703</ele>
        <time>2023-08-03T08:05:10.000Z</time>
      </trkpt>
      <trkpt lat="47.14083" lon="6.58887">
        <ele>697.79998779297</ele>
        <time>2023-08-03T08:05:12.000Z</time>
      </trkpt>
      <trkpt lat="47.14092" lon="6.58896">
        <ele>697.59997558594</ele>
        <time>2023-08-03T08:05:13.000Z</time>
      </trkpt>
      <trkpt lat="47.14109" lon="6.58908">
        <ele>696.79998779297</ele>
        <time>2023-08-03T08:05:15.000Z</time>
      </trkpt>
      <trkpt lat="47.14117" lon="6.58911">
        <ele>696.59997558594</ele>
        <time>2023-08-03T08:05:16.000Z</time>
      </trkpt>
      <trkpt lat="47.14146" lon="6.58922">
        <ele>695.40002441406</ele>
        <time>2023-08-03T08:05:19.000Z</time>
      </trkpt>
      <trkpt lat="47.14155" lon="6.58929">
        <ele>695</ele>
        <time>2023-08-03T08:05:20.000Z</time>
      </trkpt>
      <trkpt lat="47.14163" lon="6.58938">
        <ele>694.79998779297</ele>
        <time>2023-08-03T08:05:21.000Z</time>
      </trkpt>
      <trkpt lat="47.14178" lon="6.58958">
        <ele>694.40002441406</ele>
        <time>2023-08-03T08:05:23.000Z</time>
      </trkpt>
      <trkpt lat="47.14184" lon="6.58969">
        <ele>694</ele>
        <time>2023-08-03T08:05:24.000Z</time>
      </trkpt>
      <trkpt lat="47.14199" lon="6.59005">
        <ele>693</ele>
        <time>2023-08-03T08:05:27.000Z</time>
      </trkpt>
      <trkpt lat="47.14215" lon="6.59039">
        <ele>692.59997558594</ele>
        <time>2023-08-03T08:05:30.000Z</time>
      </trkpt>
      <trkpt lat="47.14239" lon="6.59081">
        <ele>692</ele>
        <time>2023-08-03T08:05:34.000Z</time>
      </trkpt>
      <trkpt lat="47.14252" lon="6.591">
        <ele>691.79998779297</ele>
        <time>2023-08-03T08:05:36.000Z</time>
      </trkpt>
      <trkpt lat="47.14299" lon="6.59155">
        <ele>691.20001220703</ele>
        <time>2023-08-03T08:05:43.000Z</time>
      </trkpt>
      <trkpt lat="47.14337" lon="6.5919">
        <ele>690.79998779297</ele>
        <time>2023-08-03T08:05:48.000Z</time>
      </trkpt>
      <trkpt lat="47.14354" lon="6.59204">
        <ele>690.59997558594</ele>
        <time>2023-08-03T08:05:50.000Z</time>
      </trkpt>
      <trkpt lat="47.14404" lon="6.59231">
        <ele>689.59997558594</ele>
        <time>2023-08-03T08:05:56.000Z</time>
      </trkpt>
      <trkpt lat="47.1443" lon="6.59246">
        <ele>689.40002441406</ele>
        <time>2023-08-03T08:05:59.000Z</time>
      </trkpt>
      <trkpt lat="47.14487" lon="6.59275">
        <ele>688.59997558594</ele>
        <time>2023-08-03T08:06:06.000Z</time>
      </trkpt>
      <trkpt lat="47.14495" lon="6.5928">
        <ele>688.59997558594</ele>
        <time>2023-08-03T08:06:07.000Z</time>
      </trkpt>
      <trkpt lat="47.1455" lon="6.59312">
        <ele>687.59997558594</ele>
        <time>2023-08-03T08:06:14.000Z</time>
      </trkpt>
      <trkpt lat="47.14557" lon="6.59314">
        <ele>687.40002441406</ele>
        <time>2023-08-03T08:06:15.000Z</time>
      </trkpt>
      <trkpt lat="47.14614" lon="6.59336">
        <ele>687</ele>
        <time>2023-08-03T08:06:22.000Z</time>
      </trkpt>
      <trkpt lat="47.14622" lon="6.59339">
        <ele>687</ele>
        <time>2023-08-03T08:06:23.000Z</time>
      </trkpt>
      <trkpt lat="47.14657" lon="6.59357">
        <ele>687.20001220703</ele>
        <time>2023-08-03T08:06:28.000Z</time>
      </trkpt>
      <trkpt lat="47.14663" lon="6.59361">
        <ele>687.20001220703</ele>
        <time>2023-08-03T08:06:29.000Z</time>
      </trkpt>
      <trkpt lat="47.14686" lon="6.59387">
        <ele>687.40002441406</ele>
        <time>2023-08-03T08:06:33.000Z</time>
      </trkpt>
      <trkpt lat="47.14719" lon="6.59438">
        <ele>688.40002441406</ele>
        <time>2023-08-03T08:06:40.000Z</time>
      </trkpt>
      <trkpt lat="47.14723" lon="6.59447">
        <ele>688.40002441406</ele>
        <time>2023-08-03T08:06:41.000Z</time>
      </trkpt>
      <trkpt lat="47.14744" lon="6.59504">
        <ele>688.79998779297</ele>
        <time>2023-08-03T08:06:47.000Z</time>
      </trkpt>
      <trkpt lat="47.14762" lon="6.59572">
        <ele>688.40002441406</ele>
        <time>2023-08-03T08:06:53.000Z</time>
      </trkpt>
      <trkpt lat="47.14782" lon="6.59638">
        <ele>687.59997558594</ele>
        <time>2023-08-03T08:06:59.000Z</time>
      </trkpt>
      <trkpt lat="47.14798" lon="6.59682">
        <ele>687.20001220703</ele>
        <time>2023-08-03T08:07:03.000Z</time>
      </trkpt>
      <trkpt lat="47.1481" lon="6.59716">
        <ele>686.59997558594</ele>
        <time>2023-08-03T08:07:06.000Z</time>
      </trkpt>
      <trkpt lat="47.14817" lon="6.59739">
        <ele>686</ele>
        <time>2023-08-03T08:07:08.000Z</time>
      </trkpt>
      <trkpt lat="47.14836" lon="6.59797">
        <ele>685</ele>
        <time>2023-08-03T08:07:13.000Z</time>
      </trkpt>
      <trkpt lat="47.14855" lon="6.59864">
        <ele>684.20001220703</ele>
        <time>2023-08-03T08:07:19.000Z</time>
      </trkpt>
      <trkpt lat="47.14864" lon="6.59884">
        <ele>683.79998779297</ele>
        <time>2023-08-03T08:07:21.000Z</time>
      </trkpt>
      <trkpt lat="47.14882" lon="6.59914">
        <ele>683.59997558594</ele>
        <time>2023-08-03T08:07:24.000Z</time>
      </trkpt>
      <trkpt lat="47.14895" lon="6.59929">
        <ele>683</ele>
        <time>2023-08-03T08:07:26.000Z</time>
      </trkpt>
      <trkpt lat="47.14909" lon="6.59939">
        <ele>682.79998779297</ele>
        <time>2023-08-03T08:07:28.000Z</time>
      </trkpt>
      <trkpt lat="47.14933" lon="6.59941">
        <ele>682.40002441406</ele>
        <time>2023-08-03T08:07:31.000Z</time>
      </trkpt>
      <trkpt lat="47.14942" lon="6.59939">
        <ele>682.40002441406</ele>
        <time>2023-08-03T08:07:32.000Z</time>
      </trkpt>
      <trkpt lat="47.14998" lon="6.59922">
        <ele>681.59997558594</ele>
        <time>2023-08-03T08:07:39.000Z</time>
      </trkpt>
      <trkpt lat="47.15006" lon="6.59919">
        <ele>681.59997558594</ele>
        <time>2023-08-03T08:07:40.000Z</time>
      </trkpt>
      <trkpt lat="47.15022" lon="6.59913">
        <ele>681.40002441406</ele>
        <time>2023-08-03T08:07:42.000Z</time>
      </trkpt>
      <trkpt lat="47.1503" lon="6.59909">
        <ele>681.40002441406</ele>
        <time>2023-08-03T08:07:43.000Z</time>
      </trkpt>
      <trkpt lat="47.15043" lon="6.59897">
        <ele>681.20001220703</ele>
        <time>2023-08-03T08:07:45.000Z</time>
      </trkpt>
      <trkpt lat="47.15072" lon="6.59855">
        <ele>680.79998779297</ele>
        <time>2023-08-03T08:07:50.000Z</time>
      </trkpt>
      <trkpt lat="47.15107" lon="6.59808">
        <ele>680.59997558594</ele>
        <time>2023-08-03T08:07:56.000Z</time>
      </trkpt>
      <trkpt lat="47.15143" lon="6.59768">
        <ele>680.40002441406</ele>
        <time>2023-08-03T08:08:02.000Z</time>
      </trkpt>
      <trkpt lat="47.15148" lon="6.59761">
        <ele>680.20001220703</ele>
        <time>2023-08-03T08:08:03.000Z</time>
      </trkpt>
      <trkpt lat="47.15163" lon="6.5973">
        <ele>679.59997558594</ele>
        <time>2023-08-03T08:08:06.000Z</time>
      </trkpt>
      <trkpt lat="47.15172" lon="6.5971">
        <ele>679.20001220703</ele>
        <time>2023-08-03T08:08:08.000Z</time>
      </trkpt>
      <trkpt lat="47.1518" lon="6.59688">
        <ele>678.59997558594</ele>
        <time>2023-08-03T08:08:10.000Z</time>
      </trkpt>
      <trkpt lat="47.15186" lon="6.59675">
        <ele>678</ele>
        <time>2023-08-03T08:08:11.000Z</time>
      </trkpt>
      <trkpt lat="47.15201" lon="6.59642">
        <ele>677</ele>
        <time>2023-08-03T08:08:14.000Z</time>
      </trkpt>
      <trkpt lat="47.15206" lon="6.59632">
        <ele>676.59997558594</ele>
        <time>2023-08-03T08:08:15.000Z</time>
      </trkpt>
      <trkpt lat="47.15214" lon="6.59622">
        <ele>676.20001220703</ele>
        <time>2023-08-03T08:08:16.000Z</time>
      </trkpt>
      <trkpt lat="47.1522" lon="6.59616">
        <ele>675.59997558594</ele>
        <time>2023-08-03T08:08:17.000Z</time>
      </trkpt>
      <trkpt lat="47.15236" lon="6.59606">
        <ele>675.20001220703</ele>
        <time>2023-08-03T08:08:19.000Z</time>
      </trkpt>
      <trkpt lat="47.15244" lon="6.59603">
        <ele>675</ele>
        <time>2023-08-03T08:08:20.000Z</time>
      </trkpt>
      <trkpt lat="47.15252" lon="6.596">
        <ele>674.79998779297</ele>
        <time>2023-08-03T08:08:21.000Z</time>
      </trkpt>
      <trkpt lat="47.15259" lon="6.59594">
        <ele>674.40002441406</ele>
        <time>2023-08-03T08:08:22.000Z</time>
      </trkpt>
      <trkpt lat="47.15277" lon="6.59585">
        <ele>673.59997558594</ele>
        <time>2023-08-03T08:08:24.000Z</time>
      </trkpt>
      <trkpt lat="47.15294" lon="6.59581">
        <ele>673.20001220703</ele>
        <time>2023-08-03T08:08:26.000Z</time>
      </trkpt>
      <trkpt lat="47.15313" lon="6.59584">
        <ele>672.59997558594</ele>
        <time>2023-08-03T08:08:28.000Z</time>
      </trkpt>
      <trkpt lat="47.15322" lon="6.59586">
        <ele>672</ele>
        <time>2023-08-03T08:08:29.000Z</time>
      </trkpt>
      <trkpt lat="47.15352" lon="6.59595">
        <ele>671.20001220703</ele>
        <time>2023-08-03T08:08:32.000Z</time>
      </trkpt>
      <trkpt lat="47.15364" lon="6.596">
        <ele>670.79998779297</ele>
        <time>2023-08-03T08:08:33.000Z</time>
      </trkpt>
      <trkpt lat="47.15411" lon="6.59632">
        <ele>669.20001220703</ele>
        <time>2023-08-03T08:08:38.000Z</time>
      </trkpt>
      <trkpt lat="47.15439" lon="6.59649">
        <ele>668.20001220703</ele>
        <time>2023-08-03T08:08:41.000Z</time>
      </trkpt>
      <trkpt lat="47.15453" lon="6.59662">
        <ele>667.59997558594</ele>
        <time>2023-08-03T08:08:43.000Z</time>
      </trkpt>
      <trkpt lat="47.15462" lon="6.59672">
        <ele>667.40002441406</ele>
        <time>2023-08-03T08:08:44.000Z</time>
      </trkpt>
      <trkpt lat="47.15474" lon="6.59694">
        <ele>667</ele>
        <time>2023-08-03T08:08:46.000Z</time>
      </trkpt>
      <trkpt lat="47.15481" lon="6.59719">
        <ele>666</ele>
        <time>2023-08-03T08:08:48.000Z</time>
      </trkpt>
      <trkpt lat="47.15483" lon="6.59729">
        <ele>665.79998779297</ele>
        <time>2023-08-03T08:08:49.000Z</time>
      </trkpt>
      <trkpt lat="47.15485" lon="6.59744">
        <ele>665.20001220703</ele>
        <time>2023-08-03T08:08:50.000Z</time>
      </trkpt>
      <trkpt lat="47.15486" lon="6.59757">
        <ele>664.59997558594</ele>
        <time>2023-08-03T08:08:51.000Z</time>
      </trkpt>
      <trkpt lat="47.15486" lon="6.5977">
        <ele>664.20001220703</ele>
        <time>2023-08-03T08:08:52.000Z</time>
      </trkpt>
      <trkpt lat="47.15487" lon="6.59797">
        <ele>663.59997558594</ele>
        <time>2023-08-03T08:08:54.000Z</time>
      </trkpt>
      <trkpt lat="47.15486" lon="6.5981">
        <ele>663.20001220703</ele>
        <time>2023-08-03T08:08:55.000Z</time>
      </trkpt>
      <trkpt lat="47.15482" lon="6.59838">
        <ele>661.79998779297</ele>
        <time>2023-08-03T08:08:57.000Z</time>
      </trkpt>
      <trkpt lat="47.15479" lon="6.59851">
        <ele>661.20001220703</ele>
        <time>2023-08-03T08:08:58.000Z</time>
      </trkpt>
      <trkpt lat="47.15474" lon="6.59865">
        <ele>660.79998779297</ele>
        <time>2023-08-03T08:08:59.000Z</time>
      </trkpt>
      <trkpt lat="47.15469" lon="6.59878">
        <ele>660.20001220703</ele>
        <time>2023-08-03T08:09:00.000Z</time>
      </trkpt>
      <trkpt lat="47.15462" lon="6.5989">
        <ele>659.79998779297</ele>
        <time>2023-08-03T08:09:01.000Z</time>
      </trkpt>
      <trkpt lat="47.15454" lon="6.59902">
        <ele>659.20001220703</ele>
        <time>2023-08-03T08:09:02.000Z</time>
      </trkpt>
      <trkpt lat="47.15445" lon="6.59913">
        <ele>658.20001220703</ele>
        <time>2023-08-03T08:09:03.000Z</time>
      </trkpt>
      <trkpt lat="47.15425" lon="6.59936">
        <ele>657</ele>
        <time>2023-08-03T08:09:05.000Z</time>
      </trkpt>
      <trkpt lat="47.1541" lon="6.59956">
        <ele>655.59997558594</ele>
        <time>2023-08-03T08:09:07.000Z</time>
      </trkpt>
      <trkpt lat="47.15393" lon="6.59974">
        <ele>654.40002441406</ele>
        <time>2023-08-03T08:09:09.000Z</time>
      </trkpt>
      <trkpt lat="47.15377" lon="6.59979">
        <ele>653.20001220703</ele>
        <time>2023-08-03T08:09:11.000Z</time>
      </trkpt>
      <trkpt lat="47.15369" lon="6.59983">
        <ele>652.40002441406</ele>
        <time>2023-08-03T08:09:12.000Z</time>
      </trkpt>
      <trkpt lat="47.15362" lon="6.59988">
        <ele>651.40002441406</ele>
        <time>2023-08-03T08:09:13.000Z</time>
      </trkpt>
      <trkpt lat="47.15352" lon="6.60003">
        <ele>650.40002441406</ele>
        <time>2023-08-03T08:09:15.000Z</time>
      </trkpt>
      <trkpt lat="47.1535" lon="6.60014">
        <ele>650</ele>
        <time>2023-08-03T08:09:16.000Z</time>
      </trkpt>
      <trkpt lat="47.1535" lon="6.60025">
        <ele>649.20001220703</ele>
        <time>2023-08-03T08:09:17.000Z</time>
      </trkpt>
      <trkpt lat="47.1535" lon="6.60036">
        <ele>649</ele>
        <time>2023-08-03T08:09:18.000Z</time>
      </trkpt>
      <trkpt lat="47.15351" lon="6.60044">
        <ele>648.59997558594</ele>
        <time>2023-08-03T08:09:19.000Z</time>
      </trkpt>
      <trkpt lat="47.15366" lon="6.60056">
        <ele>647.59997558594</ele>
        <time>2023-08-03T08:09:21.000Z</time>
      </trkpt>
      <trkpt lat="47.15379" lon="6.6006">
        <ele>647</ele>
        <time>2023-08-03T08:09:22.000Z</time>
      </trkpt>
      <trkpt lat="47.154" lon="6.60066">
        <ele>646</ele>
        <time>2023-08-03T08:09:24.000Z</time>
      </trkpt>
      <trkpt lat="47.15432" lon="6.60076">
        <ele>644.79998779297</ele>
        <time>2023-08-03T08:09:27.000Z</time>
      </trkpt>
      <trkpt lat="47.15445" lon="6.6008">
        <ele>644.40002441406</ele>
        <time>2023-08-03T08:09:28.000Z</time>
      </trkpt>
      <trkpt lat="47.15456" lon="6.60084">
        <ele>643.79998779297</ele>
        <time>2023-08-03T08:09:29.000Z</time>
      </trkpt>
      <trkpt lat="47.15478" lon="6.60095">
        <ele>642.40002441406</ele>
        <time>2023-08-03T08:09:31.000Z</time>
      </trkpt>
      <trkpt lat="47.15498" lon="6.60106">
        <ele>641.20001220703</ele>
        <time>2023-08-03T08:09:33.000Z</time>
      </trkpt>
      <trkpt lat="47.15518" lon="6.60115">
        <ele>640</ele>
        <time>2023-08-03T08:09:35.000Z</time>
      </trkpt>
      <trkpt lat="47.15528" lon="6.6012">
        <ele>639.40002441406</ele>
        <time>2023-08-03T08:09:36.000Z</time>
      </trkpt>
      <trkpt lat="47.15537" lon="6.60125">
        <ele>638.59997558594</ele>
        <time>2023-08-03T08:09:37.000Z</time>
      </trkpt>
      <trkpt lat="47.15548" lon="6.60133">
        <ele>638.40002441406</ele>
        <time>2023-08-03T08:09:38.000Z</time>
      </trkpt>
      <trkpt lat="47.1556" lon="6.60142">
        <ele>637.20001220703</ele>
        <time>2023-08-03T08:09:39.000Z</time>
      </trkpt>
      <trkpt lat="47.15571" lon="6.60148">
        <ele>637</ele>
        <time>2023-08-03T08:09:40.000Z</time>
      </trkpt>
      <trkpt lat="47.15593" lon="6.60165">
        <ele>635.79998779297</ele>
        <time>2023-08-03T08:09:42.000Z</time>
      </trkpt>
      <trkpt lat="47.15615" lon="6.60185">
        <ele>634.79998779297</ele>
        <time>2023-08-03T08:09:44.000Z</time>
      </trkpt>
      <trkpt lat="47.15632" lon="6.60202">
        <ele>633.40002441406</ele>
        <time>2023-08-03T08:09:46.000Z</time>
      </trkpt>
      <trkpt lat="47.15643" lon="6.60209">
        <ele>633</ele>
        <time>2023-08-03T08:09:47.000Z</time>
      </trkpt>
      <trkpt lat="47.15655" lon="6.60216">
        <ele>632.59997558594</ele>
        <time>2023-08-03T08:09:48.000Z</time>
      </trkpt>
      <trkpt lat="47.15664" lon="6.60221">
        <ele>631.59997558594</ele>
        <time>2023-08-03T08:09:49.000Z</time>
      </trkpt>
      <trkpt lat="47.15674" lon="6.60226">
        <ele>631</ele>
        <time>2023-08-03T08:09:50.000Z</time>
      </trkpt>
      <trkpt lat="47.15685" lon="6.60231">
        <ele>630.40002441406</ele>
        <time>2023-08-03T08:09:51.000Z</time>
      </trkpt>
      <trkpt lat="47.15696" lon="6.60233">
        <ele>629.79998779297</ele>
        <time>2023-08-03T08:09:52.000Z</time>
      </trkpt>
      <trkpt lat="47.15707" lon="6.60238">
        <ele>629</ele>
        <time>2023-08-03T08:09:53.000Z</time>
      </trkpt>
      <trkpt lat="47.15718" lon="6.60242">
        <ele>627.79998779297</ele>
        <time>2023-08-03T08:09:54.000Z</time>
      </trkpt>
      <trkpt lat="47.15741" lon="6.60253">
        <ele>626.40002441406</ele>
        <time>2023-08-03T08:09:56.000Z</time>
      </trkpt>
      <trkpt lat="47.1576" lon="6.6027">
        <ele>625.20001220703</ele>
        <time>2023-08-03T08:09:58.000Z</time>
      </trkpt>
      <trkpt lat="47.15769" lon="6.60278">
        <ele>624.20001220703</ele>
        <time>2023-08-03T08:09:59.000Z</time>
      </trkpt>
      <trkpt lat="47.15777" lon="6.60285">
        <ele>623.79998779297</ele>
        <time>2023-08-03T08:10:00.000Z</time>
      </trkpt>
      <trkpt lat="47.15785" lon="6.60291">
        <ele>622.79998779297</ele>
        <time>2023-08-03T08:10:01.000Z</time>
      </trkpt>
      <trkpt lat="47.15794" lon="6.60298">
        <ele>622.40002441406</ele>
        <time>2023-08-03T08:10:02.000Z</time>
      </trkpt>
      <trkpt lat="47.15803" lon="6.60303">
        <ele>621.59997558594</ele>
        <time>2023-08-03T08:10:03.000Z</time>
      </trkpt>
      <trkpt lat="47.15812" lon="6.60308">
        <ele>621</ele>
        <time>2023-08-03T08:10:04.000Z</time>
      </trkpt>
      <trkpt lat="47.15829" lon="6.60313">
        <ele>619.40002441406</ele>
        <time>2023-08-03T08:10:06.000Z</time>
      </trkpt>
      <trkpt lat="47.15837" lon="6.60314">
        <ele>619</ele>
        <time>2023-08-03T08:10:07.000Z</time>
      </trkpt>
      <trkpt lat="47.15848" lon="6.60314">
        <ele>618.40002441406</ele>
        <time>2023-08-03T08:10:08.000Z</time>
      </trkpt>
      <trkpt lat="47.15857" lon="6.60313">
        <ele>618</ele>
        <time>2023-08-03T08:10:09.000Z</time>
      </trkpt>
      <trkpt lat="47.15866" lon="6.6031">
        <ele>617</ele>
        <time>2023-08-03T08:10:10.000Z</time>
      </trkpt>
      <trkpt lat="47.15886" lon="6.60306">
        <ele>616</ele>
        <time>2023-08-03T08:10:12.000Z</time>
      </trkpt>
      <trkpt lat="47.15897" lon="6.60306">
        <ele>615.59997558594</ele>
        <time>2023-08-03T08:10:13.000Z</time>
      </trkpt>
      <trkpt lat="47.15907" lon="6.60308">
        <ele>615</ele>
        <time>2023-08-03T08:10:14.000Z</time>
      </trkpt>
      <trkpt lat="47.15917" lon="6.60313">
        <ele>614.20001220703</ele>
        <time>2023-08-03T08:10:15.000Z</time>
      </trkpt>
      <trkpt lat="47.15927" lon="6.60319">
        <ele>613.59997558594</ele>
        <time>2023-08-03T08:10:16.000Z</time>
      </trkpt>
      <trkpt lat="47.15947" lon="6.60334">
        <ele>612.20001220703</ele>
        <time>2023-08-03T08:10:18.000Z</time>
      </trkpt>
      <trkpt lat="47.15967" lon="6.60355">
        <ele>611.20001220703</ele>
        <time>2023-08-03T08:10:20.000Z</time>
      </trkpt>
      <trkpt lat="47.15986" lon="6.60375">
        <ele>609.79998779297</ele>
        <time>2023-08-03T08:10:22.000Z</time>
      </trkpt>
      <trkpt lat="47.16001" lon="6.60392">
        <ele>609</ele>
        <time>2023-08-03T08:10:24.000Z</time>
      </trkpt>
      <trkpt lat="47.16008" lon="6.60398">
        <ele>608</ele>
        <time>2023-08-03T08:10:25.000Z</time>
      </trkpt>
      <trkpt lat="47.16028" lon="6.60405">
        <ele>606.79998779297</ele>
        <time>2023-08-03T08:10:27.000Z</time>
      </trkpt>
      <trkpt lat="47.16046" lon="6.60401">
        <ele>605.59997558594</ele>
        <time>2023-08-03T08:10:29.000Z</time>
      </trkpt>
      <trkpt lat="47.16056" lon="6.60397">
        <ele>604.79998779297</ele>
        <time>2023-08-03T08:10:30.000Z</time>
      </trkpt>
      <trkpt lat="47.16063" lon="6.60392">
        <ele>604.40002441406</ele>
        <time>2023-08-03T08:10:31.000Z</time>
      </trkpt>
      <trkpt lat="47.16081" lon="6.60383">
        <ele>602.59997558594</ele>
        <time>2023-08-03T08:10:33.000Z</time>
      </trkpt>
      <trkpt lat="47.16091" lon="6.60378">
        <ele>602.20001220703</ele>
        <time>2023-08-03T08:10:34.000Z</time>
      </trkpt>
      <trkpt lat="47.161" lon="6.60373">
        <ele>601.40002441406</ele>
        <time>2023-08-03T08:10:35.000Z</time>
      </trkpt>
      <trkpt lat="47.1612" lon="6.60362">
        <ele>600.40002441406</ele>
        <time>2023-08-03T08:10:37.000Z</time>
      </trkpt>
      <trkpt lat="47.16141" lon="6.60354">
        <ele>598.79998779297</ele>
        <time>2023-08-03T08:10:39.000Z</time>
      </trkpt>
      <trkpt lat="47.16175" lon="6.60345">
        <ele>597.20001220703</ele>
        <time>2023-08-03T08:10:42.000Z</time>
      </trkpt>
      <trkpt lat="47.16198" lon="6.60349">
        <ele>595.79998779297</ele>
        <time>2023-08-03T08:10:44.000Z</time>
      </trkpt>
      <trkpt lat="47.16219" lon="6.60351">
        <ele>595</ele>
        <time>2023-08-03T08:10:46.000Z</time>
      </trkpt>
      <trkpt lat="47.1623" lon="6.60351">
        <ele>594.40002441406</ele>
        <time>2023-08-03T08:10:47.000Z</time>
      </trkpt>
      <trkpt lat="47.16253" lon="6.60351">
        <ele>593</ele>
        <time>2023-08-03T08:10:49.000Z</time>
      </trkpt>
      <trkpt lat="47.16278" lon="6.6035">
        <ele>591.40002441406</ele>
        <time>2023-08-03T08:10:51.000Z</time>
      </trkpt>
      <trkpt lat="47.16289" lon="6.60349">
        <ele>590.40002441406</ele>
        <time>2023-08-03T08:10:52.000Z</time>
      </trkpt>
      <trkpt lat="47.16311" lon="6.60346">
        <ele>589</ele>
        <time>2023-08-03T08:10:54.000Z</time>
      </trkpt>
      <trkpt lat="47.16321" lon="6.60342">
        <ele>588.59997558594</ele>
        <time>2023-08-03T08:10:55.000Z</time>
      </trkpt>
      <trkpt lat="47.16331" lon="6.60338">
        <ele>587.59997558594</ele>
        <time>2023-08-03T08:10:56.000Z</time>
      </trkpt>
      <trkpt lat="47.16351" lon="6.6033">
        <ele>586.59997558594</ele>
        <time>2023-08-03T08:10:58.000Z</time>
      </trkpt>
      <trkpt lat="47.16361" lon="6.60326">
        <ele>586</ele>
        <time>2023-08-03T08:10:59.000Z</time>
      </trkpt>
      <trkpt lat="47.16371" lon="6.60321">
        <ele>585.40002441406</ele>
        <time>2023-08-03T08:11:00.000Z</time>
      </trkpt>
      <trkpt lat="47.1638" lon="6.60315">
        <ele>584.59997558594</ele>
        <time>2023-08-03T08:11:01.000Z</time>
      </trkpt>
      <trkpt lat="47.16408" lon="6.60292">
        <ele>582.59997558594</ele>
        <time>2023-08-03T08:11:04.000Z</time>
      </trkpt>
      <trkpt lat="47.16422" lon="6.60277">
        <ele>581.20001220703</ele>
        <time>2023-08-03T08:11:06.000Z</time>
      </trkpt>
      <trkpt lat="47.16432" lon="6.60269">
        <ele>580.79998779297</ele>
        <time>2023-08-03T08:11:07.000Z</time>
      </trkpt>
      <trkpt lat="47.16443" lon="6.60262">
        <ele>579.79998779297</ele>
        <time>2023-08-03T08:11:08.000Z</time>
      </trkpt>
      <trkpt lat="47.16452" lon="6.60257">
        <ele>579.20001220703</ele>
        <time>2023-08-03T08:11:09.000Z</time>
      </trkpt>
      <trkpt lat="47.16462" lon="6.60254">
        <ele>578.79998779297</ele>
        <time>2023-08-03T08:11:10.000Z</time>
      </trkpt>
      <trkpt lat="47.16471" lon="6.60251">
        <ele>577.59997558594</ele>
        <time>2023-08-03T08:11:11.000Z</time>
      </trkpt>
      <trkpt lat="47.16491" lon="6.6025">
        <ele>576.40002441406</ele>
        <time>2023-08-03T08:11:13.000Z</time>
      </trkpt>
      <trkpt lat="47.16513" lon="6.60248">
        <ele>575.20001220703</ele>
        <time>2023-08-03T08:11:15.000Z</time>
      </trkpt>
      <trkpt lat="47.16534" lon="6.60243">
        <ele>574.40002441406</ele>
        <time>2023-08-03T08:11:17.000Z</time>
      </trkpt>
      <trkpt lat="47.16545" lon="6.6024">
        <ele>573.40002441406</ele>
        <time>2023-08-03T08:11:18.000Z</time>
      </trkpt>
      <trkpt lat="47.16565" lon="6.60228">
        <ele>572.20001220703</ele>
        <time>2023-08-03T08:11:20.000Z</time>
      </trkpt>
      <trkpt lat="47.16586" lon="6.60216">
        <ele>571</ele>
        <time>2023-08-03T08:11:22.000Z</time>
      </trkpt>
      <trkpt lat="47.16597" lon="6.60209">
        <ele>569.79998779297</ele>
        <time>2023-08-03T08:11:23.000Z</time>
      </trkpt>
      <trkpt lat="47.16609" lon="6.60201">
        <ele>569.40002441406</ele>
        <time>2023-08-03T08:11:24.000Z</time>
      </trkpt>
      <trkpt lat="47.1662" lon="6.60194">
        <ele>568.40002441406</ele>
        <time>2023-08-03T08:11:25.000Z</time>
      </trkpt>
      <trkpt lat="47.16638" lon="6.60181">
        <ele>567.20001220703</ele>
        <time>2023-08-03T08:11:27.000Z</time>
      </trkpt>
      <trkpt lat="47.16649" lon="6.60175">
        <ele>566.59997558594</ele>
        <time>2023-08-03T08:11:28.000Z</time>
      </trkpt>
      <trkpt lat="47.16659" lon="6.60172">
        <ele>566.20001220703</ele>
        <time>2023-08-03T08:11:29.000Z</time>
      </trkpt>
      <trkpt lat="47.16669" lon="6.60168">
        <ele>565.20001220703</ele>
        <time>2023-08-03T08:11:30.000Z</time>
      </trkpt>
      <trkpt lat="47.16681" lon="6.60163">
        <ele>564.20001220703</ele>
        <time>2023-08-03T08:11:31.000Z</time>
      </trkpt>
      <trkpt lat="47.16703" lon="6.6015">
        <ele>562.79998779297</ele>
        <time>2023-08-03T08:11:33.000Z</time>
      </trkpt>
      <trkpt lat="47.16723" lon="6.60135">
        <ele>561.20001220703</ele>
        <time>2023-08-03T08:11:35.000Z</time>
      </trkpt>
      <trkpt lat="47.16735" lon="6.60128">
        <ele>560.20001220703</ele>
        <time>2023-08-03T08:11:36.000Z</time>
      </trkpt>
      <trkpt lat="47.16755" lon="6.60117">
        <ele>559</ele>
        <time>2023-08-03T08:11:38.000Z</time>
      </trkpt>
      <trkpt lat="47.16765" lon="6.60113">
        <ele>558.59997558594</ele>
        <time>2023-08-03T08:11:39.000Z</time>
      </trkpt>
      <trkpt lat="47.16775" lon="6.60109">
        <ele>557.79998779297</ele>
        <time>2023-08-03T08:11:40.000Z</time>
      </trkpt>
      <trkpt lat="47.16795" lon="6.60105">
        <ele>556.79998779297</ele>
        <time>2023-08-03T08:11:42.000Z</time>
      </trkpt>
      <trkpt lat="47.16816" lon="6.60102">
        <ele>555.59997558594</ele>
        <time>2023-08-03T08:11:44.000Z</time>
      </trkpt>
      <trkpt lat="47.16837" lon="6.60099">
        <ele>554.40002441406</ele>
        <time>2023-08-03T08:11:46.000Z</time>
      </trkpt>
      <trkpt lat="47.16849" lon="6.60096">
        <ele>553.59997558594</ele>
        <time>2023-08-03T08:11:47.000Z</time>
      </trkpt>
      <trkpt lat="47.16861" lon="6.60092">
        <ele>552.79998779297</ele>
        <time>2023-08-03T08:11:48.000Z</time>
      </trkpt>
      <trkpt lat="47.16873" lon="6.60087">
        <ele>552.20001220703</ele>
        <time>2023-08-03T08:11:49.000Z</time>
      </trkpt>
      <trkpt lat="47.16884" lon="6.60081">
        <ele>551.20001220703</ele>
        <time>2023-08-03T08:11:50.000Z</time>
      </trkpt>
      <trkpt lat="47.16904" lon="6.6007">
        <ele>550.20001220703</ele>
        <time>2023-08-03T08:11:52.000Z</time>
      </trkpt>
      <trkpt lat="47.16914" lon="6.60066">
        <ele>550</ele>
        <time>2023-08-03T08:11:53.000Z</time>
      </trkpt>
      <trkpt lat="47.16924" lon="6.60062">
        <ele>549.20001220703</ele>
        <time>2023-08-03T08:11:54.000Z</time>
      </trkpt>
      <trkpt lat="47.16945" lon="6.60056">
        <ele>547.79998779297</ele>
        <time>2023-08-03T08:11:56.000Z</time>
      </trkpt>
      <trkpt lat="47.16956" lon="6.60054">
        <ele>547</ele>
        <time>2023-08-03T08:11:57.000Z</time>
      </trkpt>
      <trkpt lat="47.16966" lon="6.60051">
        <ele>546.59997558594</ele>
        <time>2023-08-03T08:11:58.000Z</time>
      </trkpt>
      <trkpt lat="47.16972" lon="6.60048">
        <ele>545.79998779297</ele>
        <time>2023-08-03T08:11:59.000Z</time>
      </trkpt>
      <trkpt lat="47.1698" lon="6.60043">
        <ele>545</ele>
        <time>2023-08-03T08:12:00.000Z</time>
      </trkpt>
      <trkpt lat="47.16985" lon="6.60039">
        <ele>544.59997558594</ele>
        <time>2023-08-03T08:12:01.000Z</time>
      </trkpt>
      <trkpt lat="47.16993" lon="6.60039">
        <ele>543.79998779297</ele>
        <time>2023-08-03T08:12:02.000Z</time>
      </trkpt>
      <trkpt lat="47.16999" lon="6.60043">
        <ele>543.40002441406</ele>
        <time>2023-08-03T08:12:03.000Z</time>
      </trkpt>
      <trkpt lat="47.17003" lon="6.6005">
        <ele>542.59997558594</ele>
        <time>2023-08-03T08:12:04.000Z</time>
      </trkpt>
      <trkpt lat="47.17004" lon="6.60057">
        <ele>541.79998779297</ele>
        <time>2023-08-03T08:12:05.000Z</time>
      </trkpt>
      <trkpt lat="47.17001" lon="6.60062">
        <ele>541.40002441406</ele>
        <time>2023-08-03T08:12:06.000Z</time>
      </trkpt>
      <trkpt lat="47.16994" lon="6.60065">
        <ele>540.20001220703</ele>
        <time>2023-08-03T08:12:07.000Z</time>
      </trkpt>
      <trkpt lat="47.16987" lon="6.60068">
        <ele>539.79998779297</ele>
        <time>2023-08-03T08:12:08.000Z</time>
      </trkpt>
      <trkpt lat="47.16979" lon="6.60066">
        <ele>539</ele>
        <time>2023-08-03T08:12:09.000Z</time>
      </trkpt>
      <trkpt lat="47.16972" lon="6.60066">
        <ele>538.40002441406</ele>
        <time>2023-08-03T08:12:10.000Z</time>
      </trkpt>
      <trkpt lat="47.16963" lon="6.60068">
        <ele>537.79998779297</ele>
        <time>2023-08-03T08:12:11.000Z</time>
      </trkpt>
      <trkpt lat="47.16945" lon="6.60074">
        <ele>536.40002441406</ele>
        <time>2023-08-03T08:12:13.000Z</time>
      </trkpt>
      <trkpt lat="47.16936" lon="6.60081">
        <ele>535.79998779297</ele>
        <time>2023-08-03T08:12:14.000Z</time>
      </trkpt>
      <trkpt lat="47.16917" lon="6.60093">
        <ele>534.79998779297</ele>
        <time>2023-08-03T08:12:16.000Z</time>
      </trkpt>
      <trkpt lat="47.16909" lon="6.601">
        <ele>534.20001220703</ele>
        <time>2023-08-03T08:12:17.000Z</time>
      </trkpt>
      <trkpt lat="47.169" lon="6.6011">
        <ele>533.79998779297</ele>
        <time>2023-08-03T08:12:18.000Z</time>
      </trkpt>
      <trkpt lat="47.16891" lon="6.60119">
        <ele>533</ele>
        <time>2023-08-03T08:12:19.000Z</time>
      </trkpt>
      <trkpt lat="47.16882" lon="6.60127">
        <ele>532.59997558594</ele>
        <time>2023-08-03T08:12:20.000Z</time>
      </trkpt>
      <trkpt lat="47.16873" lon="6.60137">
        <ele>531.79998779297</ele>
        <time>2023-08-03T08:12:21.000Z</time>
      </trkpt>
      <trkpt lat="47.16864" lon="6.60146">
        <ele>531.20001220703</ele>
        <time>2023-08-03T08:12:22.000Z</time>
      </trkpt>
      <trkpt lat="47.16856" lon="6.60155">
        <ele>531</ele>
        <time>2023-08-03T08:12:23.000Z</time>
      </trkpt>
      <trkpt lat="47.16848" lon="6.60163">
        <ele>530</ele>
        <time>2023-08-03T08:12:24.000Z</time>
      </trkpt>
      <trkpt lat="47.16831" lon="6.60175">
        <ele>528.79998779297</ele>
        <time>2023-08-03T08:12:26.000Z</time>
      </trkpt>
      <trkpt lat="47.16822" lon="6.60179">
        <ele>528.40002441406</ele>
        <time>2023-08-03T08:12:27.000Z</time>
      </trkpt>
      <trkpt lat="47.16803" lon="6.60183">
        <ele>527.20001220703</ele>
        <time>2023-08-03T08:12:29.000Z</time>
      </trkpt>
      <trkpt lat="47.16784" lon="6.60188">
        <ele>526</ele>
        <time>2023-08-03T08:12:31.000Z</time>
      </trkpt>
      <trkpt lat="47.16768" lon="6.60201">
        <ele>525</ele>
        <time>2023-08-03T08:12:33.000Z</time>
      </trkpt>
      <trkpt lat="47.16763" lon="6.60211">
        <ele>524</ele>
        <time>2023-08-03T08:12:34.000Z</time>
      </trkpt>
      <trkpt lat="47.16761" lon="6.60222">
        <ele>523.40002441406</ele>
        <time>2023-08-03T08:12:35.000Z</time>
      </trkpt>
      <trkpt lat="47.16764" lon="6.60242">
        <ele>522.40002441406</ele>
        <time>2023-08-03T08:12:37.000Z</time>
      </trkpt>
      <trkpt lat="47.16772" lon="6.6025">
        <ele>521.40002441406</ele>
        <time>2023-08-03T08:12:39.000Z</time>
      </trkpt>
      <trkpt lat="47.16779" lon="6.60249">
        <ele>520.40002441406</ele>
        <time>2023-08-03T08:12:40.000Z</time>
      </trkpt>
      <trkpt lat="47.16787" lon="6.60249">
        <ele>519.79998779297</ele>
        <time>2023-08-03T08:12:41.000Z</time>
      </trkpt>
      <trkpt lat="47.16803" lon="6.60251">
        <ele>519.20001220703</ele>
        <time>2023-08-03T08:12:43.000Z</time>
      </trkpt>
      <trkpt lat="47.16813" lon="6.60254">
        <ele>518.79998779297</ele>
        <time>2023-08-03T08:12:44.000Z</time>
      </trkpt>
      <trkpt lat="47.16821" lon="6.60259">
        <ele>518.40002441406</ele>
        <time>2023-08-03T08:12:45.000Z</time>
      </trkpt>
      <trkpt lat="47.16829" lon="6.60264">
        <ele>517.59997558594</ele>
        <time>2023-08-03T08:12:46.000Z</time>
      </trkpt>
      <trkpt lat="47.16837" lon="6.60269">
        <ele>517.20001220703</ele>
        <time>2023-08-03T08:12:47.000Z</time>
      </trkpt>
      <trkpt lat="47.16844" lon="6.60275">
        <ele>516</ele>
        <time>2023-08-03T08:12:48.000Z</time>
      </trkpt>
      <trkpt lat="47.16858" lon="6.60284">
        <ele>515</ele>
        <time>2023-08-03T08:12:50.000Z</time>
      </trkpt>
      <trkpt lat="47.16873" lon="6.60295">
        <ele>514</ele>
        <time>2023-08-03T08:12:52.000Z</time>
      </trkpt>
      <trkpt lat="47.16896" lon="6.60311">
        <ele>512.79998779297</ele>
        <time>2023-08-03T08:12:55.000Z</time>
      </trkpt>
      <trkpt lat="47.16923" lon="6.60329">
        <ele>511.79998779297</ele>
        <time>2023-08-03T08:12:59.000Z</time>
      </trkpt>
      <trkpt lat="47.16946" lon="6.60347">
        <ele>511.20001220703</ele>
        <time>2023-08-03T08:13:03.000Z</time>
      </trkpt>
      <trkpt lat="47.16952" lon="6.60351">
        <ele>511</ele>
        <time>2023-08-03T08:13:04.000Z</time>
      </trkpt>
      <trkpt lat="47.16964" lon="6.60359">
        <ele>510.79998779297</ele>
        <time>2023-08-03T08:13:06.000Z</time>
      </trkpt>
      <trkpt lat="47.16989" lon="6.60371">
        <ele>510.60000610352</ele>
        <time>2023-08-03T08:13:11.000Z</time>
      </trkpt>
      <trkpt lat="47.17003" lon="6.60384">
        <ele>510.60000610352</ele>
        <time>2023-08-03T08:13:14.000Z</time>
      </trkpt>
      <trkpt lat="47.17018" lon="6.60398">
        <ele>510.60000610352</ele>
        <time>2023-08-03T08:13:17.000Z</time>
      </trkpt>
      <trkpt lat="47.17022" lon="6.60402">
        <ele>510.60000610352</ele>
        <time>2023-08-03T08:13:18.000Z</time>
      </trkpt>
      <trkpt lat="47.17031" lon="6.60413">
        <ele>510.60000610352</ele>
        <time>2023-08-03T08:13:20.000Z</time>
      </trkpt>
      <trkpt lat="47.17035" lon="6.60419">
        <ele>510.60000610352</ele>
        <time>2023-08-03T08:13:21.000Z</time>
      </trkpt>
      <trkpt lat="47.17053" lon="6.6045">
        <ele>510.79998779297</ele>
        <time>2023-08-03T08:13:26.000Z</time>
      </trkpt>
      <trkpt lat="47.1706" lon="6.6046">
        <ele>511</ele>
        <time>2023-08-03T08:13:28.000Z</time>
      </trkpt>
      <trkpt lat="47.17068" lon="6.60468">
        <ele>511.39999389648</ele>
        <time>2023-08-03T08:13:30.000Z</time>
      </trkpt>
      <trkpt lat="47.17072" lon="6.60473">
        <ele>511.39999389648</ele>
        <time>2023-08-03T08:13:31.000Z</time>
      </trkpt>
      <trkpt lat="47.17084" lon="6.60487">
        <ele>511.39999389648</ele>
        <time>2023-08-03T08:13:34.000Z</time>
      </trkpt>
      <trkpt lat="47.17096" lon="6.60501">
        <ele>511.60000610352</ele>
        <time>2023-08-03T08:13:37.000Z</time>
      </trkpt>
      <trkpt lat="47.17101" lon="6.60506">
        <ele>511.60000610352</ele>
        <time>2023-08-03T08:13:38.000Z</time>
      </trkpt>
      <trkpt lat="47.17116" lon="6.60518">
        <ele>511.39999389648</ele>
        <time>2023-08-03T08:13:41.000Z</time>
      </trkpt>
      <trkpt lat="47.17121" lon="6.60523">
        <ele>511.39999389648</ele>
        <time>2023-08-03T08:13:42.000Z</time>
      </trkpt>
      <trkpt lat="47.17154" lon="6.60552">
        <ele>511.39999389648</ele>
        <time>2023-08-03T08:13:49.000Z</time>
      </trkpt>
      <trkpt lat="47.17164" lon="6.60566">
        <ele>511.60000610352</ele>
        <time>2023-08-03T08:13:52.000Z</time>
      </trkpt>
      <trkpt lat="47.1717" lon="6.60575">
        <ele>511.79998779297</ele>
        <time>2023-08-03T08:13:54.000Z</time>
      </trkpt>
      <trkpt lat="47.17173" lon="6.6058">
        <ele>512</ele>
        <time>2023-08-03T08:13:55.000Z</time>
      </trkpt>
      <trkpt lat="47.17184" lon="6.60607">
        <ele>512.59997558594</ele>
        <time>2023-08-03T08:14:00.000Z</time>
      </trkpt>
      <trkpt lat="47.17191" lon="6.60626">
        <ele>513</ele>
        <time>2023-08-03T08:14:03.000Z</time>
      </trkpt>
      <trkpt lat="47.17199" lon="6.60648">
        <ele>513</ele>
        <time>2023-08-03T08:14:06.000Z</time>
      </trkpt>
      <trkpt lat="47.17203" lon="6.60655">
        <ele>513</ele>
        <time>2023-08-03T08:14:07.000Z</time>
      </trkpt>
      <trkpt lat="47.17212" lon="6.60669">
        <ele>512.79998779297</ele>
        <time>2023-08-03T08:14:09.000Z</time>
      </trkpt>
      <trkpt lat="47.17217" lon="6.60675">
        <ele>512.59997558594</ele>
        <time>2023-08-03T08:14:10.000Z</time>
      </trkpt>
      <trkpt lat="47.17229" lon="6.60685">
        <ele>512.40002441406</ele>
        <time>2023-08-03T08:14:12.000Z</time>
      </trkpt>
      <trkpt lat="47.17234" lon="6.60689">
        <ele>512.20001220703</ele>
        <time>2023-08-03T08:14:13.000Z</time>
      </trkpt>
      <trkpt lat="47.17246" lon="6.60696">
        <ele>512</ele>
        <time>2023-08-03T08:14:15.000Z</time>
      </trkpt>
      <trkpt lat="47.1727" lon="6.60708">
        <ele>512</ele>
        <time>2023-08-03T08:14:19.000Z</time>
      </trkpt>
      <trkpt lat="47.17291" lon="6.60713">
        <ele>512.20001220703</ele>
        <time>2023-08-03T08:14:23.000Z</time>
      </trkpt>
      <trkpt lat="47.17297" lon="6.60715">
        <ele>512.20001220703</ele>
        <time>2023-08-03T08:14:24.000Z</time>
      </trkpt>
      <trkpt lat="47.17323" lon="6.60724">
        <ele>512.20001220703</ele>
        <time>2023-08-03T08:14:28.000Z</time>
      </trkpt>
      <trkpt lat="47.17338" lon="6.60737">
        <ele>512</ele>
        <time>2023-08-03T08:14:30.000Z</time>
      </trkpt>
      <trkpt lat="47.17345" lon="6.60744">
        <ele>512</ele>
        <time>2023-08-03T08:14:31.000Z</time>
      </trkpt>
      <trkpt lat="47.17363" lon="6.60769">
        <ele>511.60000610352</ele>
        <time>2023-08-03T08:14:34.000Z</time>
      </trkpt>
      <trkpt lat="47.17373" lon="6.60785">
        <ele>510.79998779297</ele>
        <time>2023-08-03T08:14:36.000Z</time>
      </trkpt>
      <trkpt lat="47.1739" lon="6.6081">
        <ele>510.20001220703</ele>
        <time>2023-08-03T08:14:39.000Z</time>
      </trkpt>
      <trkpt lat="47.1741" lon="6.60833">
        <ele>509.79998779297</ele>
        <time>2023-08-03T08:14:42.000Z</time>
      </trkpt>
      <trkpt lat="47.17417" lon="6.60839">
        <ele>509.79998779297</ele>
        <time>2023-08-03T08:14:43.000Z</time>
      </trkpt>
      <trkpt lat="47.17452" lon="6.60879">
        <ele>509.39999389648</ele>
        <time>2023-08-03T08:14:49.000Z</time>
      </trkpt>
      <trkpt lat="47.1747" lon="6.60903">
        <ele>509.39999389648</ele>
        <time>2023-08-03T08:14:53.000Z</time>
      </trkpt>
      <trkpt lat="47.17474" lon="6.60908">
        <ele>509.60000610352</ele>
        <time>2023-08-03T08:14:54.000Z</time>
      </trkpt>
      <trkpt lat="47.17487" lon="6.60929">
        <ele>511</ele>
        <time>2023-08-03T08:14:58.000Z</time>
      </trkpt>
      <trkpt lat="47.17493" lon="6.60941">
        <ele>511.20001220703</ele>
        <time>2023-08-03T08:15:00.000Z</time>
      </trkpt>
      <trkpt lat="47.17496" lon="6.60957">
        <ele>511.39999389648</ele>
        <time>2023-08-03T08:15:02.000Z</time>
      </trkpt>
      <trkpt lat="47.17495" lon="6.60973">
        <ele>511</ele>
        <time>2023-08-03T08:15:04.000Z</time>
      </trkpt>
      <trkpt lat="47.17483" lon="6.60998">
        <ele>510.60000610352</ele>
        <time>2023-08-03T08:15:08.000Z</time>
      </trkpt>
      <trkpt lat="47.1748" lon="6.61004">
        <ele>510.60000610352</ele>
        <time>2023-08-03T08:15:09.000Z</time>
      </trkpt>
      <trkpt lat="47.17474" lon="6.61016">
        <ele>510.60000610352</ele>
        <time>2023-08-03T08:15:11.000Z</time>
      </trkpt>
      <trkpt lat="47.17471" lon="6.6103">
        <ele>510.79998779297</ele>
        <time>2023-08-03T08:15:13.000Z</time>
      </trkpt>
      <trkpt lat="47.17473" lon="6.61048">
        <ele>511.79998779297</ele>
        <time>2023-08-03T08:15:16.000Z</time>
      </trkpt>
      <trkpt lat="47.17473" lon="6.61054">
        <ele>512</ele>
        <time>2023-08-03T08:15:17.000Z</time>
      </trkpt>
      <trkpt lat="47.17474" lon="6.6106">
        <ele>512.20001220703</ele>
        <time>2023-08-03T08:15:18.000Z</time>
      </trkpt>
      <trkpt lat="47.17481" lon="6.61075">
        <ele>512.79998779297</ele>
        <time>2023-08-03T08:15:21.000Z</time>
      </trkpt>
      <trkpt lat="47.17485" lon="6.61079">
        <ele>512.79998779297</ele>
        <time>2023-08-03T08:15:22.000Z</time>
      </trkpt>
      <trkpt lat="47.17499" lon="6.61094">
        <ele>513</ele>
        <time>2023-08-03T08:15:26.000Z</time>
      </trkpt>
      <trkpt lat="47.17504" lon="6.61097">
        <ele>513</ele>
        <time>2023-08-03T08:15:27.000Z</time>
      </trkpt>
      <trkpt lat="47.1752" lon="6.61106">
        <ele>513</ele>
        <time>2023-08-03T08:15:31.000Z</time>
      </trkpt>
      <trkpt lat="47.17529" lon="6.61109">
        <ele>512.79998779297</ele>
        <time>2023-08-03T08:15:33.000Z</time>
      </trkpt>
      <trkpt lat="47.17533" lon="6.6111">
        <ele>512.59997558594</ele>
        <time>2023-08-03T08:15:34.000Z</time>
      </trkpt>
      <trkpt lat="47.17564" lon="6.61123">
        <ele>512</ele>
        <time>2023-08-03T08:15:41.000Z</time>
      </trkpt>
      <trkpt lat="47.17569" lon="6.61126">
        <ele>511.79998779297</ele>
        <time>2023-08-03T08:15:42.000Z</time>
      </trkpt>
      <trkpt lat="47.17591" lon="6.61142">
        <ele>511.39999389648</ele>
        <time>2023-08-03T08:15:47.000Z</time>
      </trkpt>
      <trkpt lat="47.1761" lon="6.61153">
        <ele>511.20001220703</ele>
        <time>2023-08-03T08:15:51.000Z</time>
      </trkpt>
      <trkpt lat="47.17615" lon="6.61155">
        <ele>511</ele>
        <time>2023-08-03T08:15:52.000Z</time>
      </trkpt>
      <trkpt lat="47.1765" lon="6.6117">
        <ele>510.60000610352</ele>
        <time>2023-08-03T08:15:58.000Z</time>
      </trkpt>
      <trkpt lat="47.17657" lon="6.61174">
        <ele>510.39999389648</ele>
        <time>2023-08-03T08:15:59.000Z</time>
      </trkpt>
      <trkpt lat="47.17663" lon="6.6118">
        <ele>510.20001220703</ele>
        <time>2023-08-03T08:16:00.000Z</time>
      </trkpt>
      <trkpt lat="47.17669" lon="6.61187">
        <ele>510</ele>
        <time>2023-08-03T08:16:01.000Z</time>
      </trkpt>
      <trkpt lat="47.17674" lon="6.61196">
        <ele>509.39999389648</ele>
        <time>2023-08-03T08:16:02.000Z</time>
      </trkpt>
      <trkpt lat="47.17679" lon="6.61218">
        <ele>508.79998779297</ele>
        <time>2023-08-03T08:16:04.000Z</time>
      </trkpt>
      <trkpt lat="47.17682" lon="6.61229">
        <ele>508.60000610352</ele>
        <time>2023-08-03T08:16:05.000Z</time>
      </trkpt>
      <trkpt lat="47.17688" lon="6.61251">
        <ele>507.79998779297</ele>
        <time>2023-08-03T08:16:07.000Z</time>
      </trkpt>
      <trkpt lat="47.17697" lon="6.61272">
        <ele>507</ele>
        <time>2023-08-03T08:16:09.000Z</time>
      </trkpt>
      <trkpt lat="47.17705" lon="6.61296">
        <ele>506.60000610352</ele>
        <time>2023-08-03T08:16:11.000Z</time>
      </trkpt>
      <trkpt lat="47.17718" lon="6.61325">
        <ele>505.60000610352</ele>
        <time>2023-08-03T08:16:14.000Z</time>
      </trkpt>
      <trkpt lat="47.17725" lon="6.61344">
        <ele>505.20001220703</ele>
        <time>2023-08-03T08:16:16.000Z</time>
      </trkpt>
      <trkpt lat="47.17732" lon="6.61362">
        <ele>505</ele>
        <time>2023-08-03T08:16:18.000Z</time>
      </trkpt>
      <trkpt lat="47.17744" lon="6.61409">
        <ele>505</ele>
        <time>2023-08-03T08:16:23.000Z</time>
      </trkpt>
      <trkpt lat="47.17752" lon="6.61425">
        <ele>505</ele>
        <time>2023-08-03T08:16:25.000Z</time>
      </trkpt>
      <trkpt lat="47.17778" lon="6.61455">
        <ele>505</ele>
        <time>2023-08-03T08:16:30.000Z</time>
      </trkpt>
      <trkpt lat="47.17807" lon="6.61501">
        <ele>504.39999389648</ele>
        <time>2023-08-03T08:16:36.000Z</time>
      </trkpt>
      <trkpt lat="47.17825" lon="6.61531">
        <ele>503.39999389648</ele>
        <time>2023-08-03T08:16:40.000Z</time>
      </trkpt>
      <trkpt lat="47.17829" lon="6.61537">
        <ele>503.39999389648</ele>
        <time>2023-08-03T08:16:41.000Z</time>
      </trkpt>
      <trkpt lat="47.17839" lon="6.61547">
        <ele>503</ele>
        <time>2023-08-03T08:16:43.000Z</time>
      </trkpt>
      <trkpt lat="47.17853" lon="6.61556">
        <ele>502.79998779297</ele>
        <time>2023-08-03T08:16:45.000Z</time>
      </trkpt>
      <trkpt lat="47.17886" lon="6.6157">
        <ele>502</ele>
        <time>2023-08-03T08:16:49.000Z</time>
      </trkpt>
      <trkpt lat="47.17894" lon="6.61574">
        <ele>501.79998779297</ele>
        <time>2023-08-03T08:16:50.000Z</time>
      </trkpt>
      <trkpt lat="47.1791" lon="6.61586">
        <ele>501.39999389648</ele>
        <time>2023-08-03T08:16:52.000Z</time>
      </trkpt>
      <trkpt lat="47.17922" lon="6.61602">
        <ele>501</ele>
        <time>2023-08-03T08:16:54.000Z</time>
      </trkpt>
      <trkpt lat="47.17935" lon="6.6162">
        <ele>500.20001220703</ele>
        <time>2023-08-03T08:16:56.000Z</time>
      </trkpt>
      <trkpt lat="47.17943" lon="6.61631">
        <ele>499.79998779297</ele>
        <time>2023-08-03T08:16:57.000Z</time>
      </trkpt>
      <trkpt lat="47.1795" lon="6.61643">
        <ele>499.39999389648</ele>
        <time>2023-08-03T08:16:58.000Z</time>
      </trkpt>
      <trkpt lat="47.17956" lon="6.61656">
        <ele>498.39999389648</ele>
        <time>2023-08-03T08:16:59.000Z</time>
      </trkpt>
      <trkpt lat="47.17969" lon="6.61685">
        <ele>497.20001220703</ele>
        <time>2023-08-03T08:17:01.000Z</time>
      </trkpt>
      <trkpt lat="47.17978" lon="6.61712">
        <ele>496.20001220703</ele>
        <time>2023-08-03T08:17:03.000Z</time>
      </trkpt>
      <trkpt lat="47.17985" lon="6.61724">
        <ele>495.39999389648</ele>
        <time>2023-08-03T08:17:04.000Z</time>
      </trkpt>
      <trkpt lat="47.17994" lon="6.61735">
        <ele>495.20001220703</ele>
        <time>2023-08-03T08:17:05.000Z</time>
      </trkpt>
      <trkpt lat="47.18009" lon="6.61751">
        <ele>494.39999389648</ele>
        <time>2023-08-03T08:17:07.000Z</time>
      </trkpt>
      <trkpt lat="47.18016" lon="6.61757">
        <ele>494.20001220703</ele>
        <time>2023-08-03T08:17:08.000Z</time>
      </trkpt>
      <trkpt lat="47.1804" lon="6.61777">
        <ele>493</ele>
        <time>2023-08-03T08:17:11.000Z</time>
      </trkpt>
      <trkpt lat="47.18072" lon="6.61799">
        <ele>491.79998779297</ele>
        <time>2023-08-03T08:17:15.000Z</time>
      </trkpt>
      <trkpt lat="47.1808" lon="6.61803">
        <ele>491.60000610352</ele>
        <time>2023-08-03T08:17:16.000Z</time>
      </trkpt>
      <trkpt lat="47.1811" lon="6.61834">
        <ele>491</ele>
        <time>2023-08-03T08:17:20.000Z</time>
      </trkpt>
      <trkpt lat="47.18123" lon="6.61848">
        <ele>490.79998779297</ele>
        <time>2023-08-03T08:17:22.000Z</time>
      </trkpt>
      <trkpt lat="47.1813" lon="6.61855">
        <ele>490.60000610352</ele>
        <time>2023-08-03T08:17:23.000Z</time>
      </trkpt>
      <trkpt lat="47.18137" lon="6.61862">
        <ele>490.39999389648</ele>
        <time>2023-08-03T08:17:24.000Z</time>
      </trkpt>
      <trkpt lat="47.18178" lon="6.61893">
        <ele>489.20001220703</ele>
        <time>2023-08-03T08:17:30.000Z</time>
      </trkpt>
      <trkpt lat="47.18192" lon="6.61902">
        <ele>489</ele>
        <time>2023-08-03T08:17:32.000Z</time>
      </trkpt>
      <trkpt lat="47.18204" lon="6.61915">
        <ele>488.79998779297</ele>
        <time>2023-08-03T08:17:34.000Z</time>
      </trkpt>
      <trkpt lat="47.18209" lon="6.61922">
        <ele>488.79998779297</ele>
        <time>2023-08-03T08:17:35.000Z</time>
      </trkpt>
      <trkpt lat="47.18214" lon="6.61929">
        <ele>488.79998779297</ele>
        <time>2023-08-03T08:17:36.000Z</time>
      </trkpt>
      <trkpt lat="47.18226" lon="6.61941">
        <ele>488.79998779297</ele>
        <time>2023-08-03T08:17:38.000Z</time>
      </trkpt>
      <trkpt lat="47.18232" lon="6.61945">
        <ele>488.79998779297</ele>
        <time>2023-08-03T08:17:39.000Z</time>
      </trkpt>
      <trkpt lat="47.18248" lon="6.61954">
        <ele>488.79998779297</ele>
        <time>2023-08-03T08:17:42.000Z</time>
      </trkpt>
      <trkpt lat="47.18252" lon="6.61956">
        <ele>488.79998779297</ele>
        <time>2023-08-03T08:17:43.000Z</time>
      </trkpt>
      <trkpt lat="47.18262" lon="6.61958">
        <ele>488.79998779297</ele>
        <time>2023-08-03T08:17:45.000Z</time>
      </trkpt>
      <trkpt lat="47.18267" lon="6.61958">
        <ele>488.79998779297</ele>
        <time>2023-08-03T08:17:46.000Z</time>
      </trkpt>
      <trkpt lat="47.18299" lon="6.61957">
        <ele>488.39999389648</ele>
        <time>2023-08-03T08:17:50.000Z</time>
      </trkpt>
      <trkpt lat="47.18318" lon="6.61956">
        <ele>488.20001220703</ele>
        <time>2023-08-03T08:17:52.000Z</time>
      </trkpt>
      <trkpt lat="47.18335" lon="6.61955">
        <ele>488.20001220703</ele>
        <time>2023-08-03T08:17:54.000Z</time>
      </trkpt>
      <trkpt lat="47.18343" lon="6.61953">
        <ele>487.79998779297</ele>
        <time>2023-08-03T08:17:55.000Z</time>
      </trkpt>
      <trkpt lat="47.18353" lon="6.61952">
        <ele>487.60000610352</ele>
        <time>2023-08-03T08:17:56.000Z</time>
      </trkpt>
      <trkpt lat="47.1837" lon="6.61949">
        <ele>487.20001220703</ele>
        <time>2023-08-03T08:17:58.000Z</time>
      </trkpt>
      <trkpt lat="47.18385" lon="6.61939">
        <ele>486.79998779297</ele>
        <time>2023-08-03T08:18:00.000Z</time>
      </trkpt>
      <trkpt lat="47.18395" lon="6.61932">
        <ele>486.60000610352</ele>
        <time>2023-08-03T08:18:01.000Z</time>
      </trkpt>
      <trkpt lat="47.18411" lon="6.61919">
        <ele>486</ele>
        <time>2023-08-03T08:18:03.000Z</time>
      </trkpt>
      <trkpt lat="47.18432" lon="6.61882">
        <ele>485.79998779297</ele>
        <time>2023-08-03T08:18:07.000Z</time>
      </trkpt>
      <trkpt lat="47.18441" lon="6.61866">
        <ele>485.60000610352</ele>
        <time>2023-08-03T08:18:09.000Z</time>
      </trkpt>
      <trkpt lat="47.18459" lon="6.6184">
        <ele>485.39999389648</ele>
        <time>2023-08-03T08:18:12.000Z</time>
      </trkpt>
      <trkpt lat="47.18472" lon="6.61829">
        <ele>485.39999389648</ele>
        <time>2023-08-03T08:18:15.000Z</time>
      </trkpt>
      <trkpt lat="47.18479" lon="6.61825">
        <ele>485.39999389648</ele>
        <time>2023-08-03T08:18:16.000Z</time>
      </trkpt>
      <trkpt lat="47.18487" lon="6.61823">
        <ele>485.20001220703</ele>
        <time>2023-08-03T08:18:17.000Z</time>
      </trkpt>
      <trkpt lat="47.18502" lon="6.61825">
        <ele>485</ele>
        <time>2023-08-03T08:18:19.000Z</time>
      </trkpt>
      <trkpt lat="47.18524" lon="6.61843">
        <ele>484.79998779297</ele>
        <time>2023-08-03T08:18:22.000Z</time>
      </trkpt>
      <trkpt lat="47.18552" lon="6.6187">
        <ele>484.60000610352</ele>
        <time>2023-08-03T08:18:27.000Z</time>
      </trkpt>
      <trkpt lat="47.18571" lon="6.61884">
        <ele>484.39999389648</ele>
        <time>2023-08-03T08:18:31.000Z</time>
      </trkpt>
      <trkpt lat="47.18582" lon="6.61888">
        <ele>484.39999389648</ele>
        <time>2023-08-03T08:18:33.000Z</time>
      </trkpt>
      <trkpt lat="47.18592" lon="6.61887">
        <ele>484</ele>
        <time>2023-08-03T08:18:35.000Z</time>
      </trkpt>
      <trkpt lat="47.18622" lon="6.6188">
        <ele>483.79998779297</ele>
        <time>2023-08-03T08:18:39.000Z</time>
      </trkpt>
      <trkpt lat="47.18645" lon="6.61874">
        <ele>483.39999389648</ele>
        <time>2023-08-03T08:18:42.000Z</time>
      </trkpt>
      <trkpt lat="47.1866" lon="6.61869">
        <ele>483.39999389648</ele>
        <time>2023-08-03T08:18:44.000Z</time>
      </trkpt>
      <trkpt lat="47.18675" lon="6.61864">
        <ele>483</ele>
        <time>2023-08-03T08:18:46.000Z</time>
      </trkpt>
      <trkpt lat="47.18691" lon="6.61858">
        <ele>482.60000610352</ele>
        <time>2023-08-03T08:18:48.000Z</time>
      </trkpt>
      <trkpt lat="47.18708" lon="6.61852">
        <ele>482.20001220703</ele>
        <time>2023-08-03T08:18:50.000Z</time>
      </trkpt>
      <trkpt lat="47.18725" lon="6.61843">
        <ele>482.20001220703</ele>
        <time>2023-08-03T08:18:52.000Z</time>
      </trkpt>
      <trkpt lat="47.18741" lon="6.61834">
        <ele>482.20001220703</ele>
        <time>2023-08-03T08:18:54.000Z</time>
      </trkpt>
      <trkpt lat="47.18775" lon="6.61807">
        <ele>481.79998779297</ele>
        <time>2023-08-03T08:18:59.000Z</time>
      </trkpt>
      <trkpt lat="47.18781" lon="6.61801">
        <ele>481.79998779297</ele>
        <time>2023-08-03T08:19:00.000Z</time>
      </trkpt>
      <trkpt lat="47.18787" lon="6.61794">
        <ele>481.60000610352</ele>
        <time>2023-08-03T08:19:01.000Z</time>
      </trkpt>
      <trkpt lat="47.188" lon="6.61783">
        <ele>481.60000610352</ele>
        <time>2023-08-03T08:19:03.000Z</time>
      </trkpt>
      <trkpt lat="47.18828" lon="6.61774">
        <ele>481.39999389648</ele>
        <time>2023-08-03T08:19:07.000Z</time>
      </trkpt>
      <trkpt lat="47.18855" lon="6.61764">
        <ele>480.79998779297</ele>
        <time>2023-08-03T08:19:10.000Z</time>
      </trkpt>
      <trkpt lat="47.18871" lon="6.61771">
        <ele>480.39999389648</ele>
        <time>2023-08-03T08:19:12.000Z</time>
      </trkpt>
      <trkpt lat="47.18879" lon="6.61779">
        <ele>480</ele>
        <time>2023-08-03T08:19:13.000Z</time>
      </trkpt>
      <trkpt lat="47.18904" lon="6.61801">
        <ele>479.39999389648</ele>
        <time>2023-08-03T08:19:16.000Z</time>
      </trkpt>
      <trkpt lat="47.18913" lon="6.61805">
        <ele>479.20001220703</ele>
        <time>2023-08-03T08:19:17.000Z</time>
      </trkpt>
      <trkpt lat="47.18923" lon="6.61808">
        <ele>479.20001220703</ele>
        <time>2023-08-03T08:19:18.000Z</time>
      </trkpt>
      <trkpt lat="47.18949" lon="6.61813">
        <ele>479.20001220703</ele>
        <time>2023-08-03T08:19:21.000Z</time>
      </trkpt>
      <trkpt lat="47.18994" lon="6.61828">
        <ele>478.60000610352</ele>
        <time>2023-08-03T08:19:27.000Z</time>
      </trkpt>
      <trkpt lat="47.19002" lon="6.61829">
        <ele>478.39999389648</ele>
        <time>2023-08-03T08:19:28.000Z</time>
      </trkpt>
      <trkpt lat="47.19017" lon="6.61828">
        <ele>478.20001220703</ele>
        <time>2023-08-03T08:19:30.000Z</time>
      </trkpt>
      <trkpt lat="47.19041" lon="6.61825">
        <ele>477.79998779297</ele>
        <time>2023-08-03T08:19:33.000Z</time>
      </trkpt>
      <trkpt lat="47.19056" lon="6.6182">
        <ele>477.39999389648</ele>
        <time>2023-08-03T08:19:35.000Z</time>
      </trkpt>
      <trkpt lat="47.19072" lon="6.61817">
        <ele>477</ele>
        <time>2023-08-03T08:19:37.000Z</time>
      </trkpt>
      <trkpt lat="47.19085" lon="6.61812">
        <ele>476.79998779297</ele>
        <time>2023-08-03T08:19:39.000Z</time>
      </trkpt>
      <trkpt lat="47.19091" lon="6.61807">
        <ele>476.79998779297</ele>
        <time>2023-08-03T08:19:40.000Z</time>
      </trkpt>
      <trkpt lat="47.19097" lon="6.61803">
        <ele>476.60000610352</ele>
        <time>2023-08-03T08:19:41.000Z</time>
      </trkpt>
      <trkpt lat="47.19125" lon="6.61786">
        <ele>476.20001220703</ele>
        <time>2023-08-03T08:19:45.000Z</time>
      </trkpt>
      <trkpt lat="47.19146" lon="6.61775">
        <ele>476</ele>
        <time>2023-08-03T08:19:48.000Z</time>
      </trkpt>
      <trkpt lat="47.19159" lon="6.61766">
        <ele>476</ele>
        <time>2023-08-03T08:19:50.000Z</time>
      </trkpt>
      <trkpt lat="47.19192" lon="6.61743">
        <ele>476</ele>
        <time>2023-08-03T08:19:55.000Z</time>
      </trkpt>
      <trkpt lat="47.19204" lon="6.61737">
        <ele>476</ele>
        <time>2023-08-03T08:19:57.000Z</time>
      </trkpt>
      <trkpt lat="47.19211" lon="6.61734">
        <ele>475.79998779297</ele>
        <time>2023-08-03T08:19:58.000Z</time>
      </trkpt>
      <trkpt lat="47.19244" lon="6.61725">
        <ele>475.79998779297</ele>
        <time>2023-08-03T08:20:03.000Z</time>
      </trkpt>
      <trkpt lat="47.19285" lon="6.61723">
        <ele>476</ele>
        <time>2023-08-03T08:20:09.000Z</time>
      </trkpt>
      <trkpt lat="47.19312" lon="6.61721">
        <ele>476.20001220703</ele>
        <time>2023-08-03T08:20:13.000Z</time>
      </trkpt>
      <trkpt lat="47.19318" lon="6.61719">
        <ele>476.20001220703</ele>
        <time>2023-08-03T08:20:14.000Z</time>
      </trkpt>
      <trkpt lat="47.19366" lon="6.61709">
        <ele>476</ele>
        <time>2023-08-03T08:20:21.000Z</time>
      </trkpt>
      <trkpt lat="47.1937" lon="6.61709">
        <ele>475.79998779297</ele>
        <time>2023-08-03T08:20:22.000Z</time>
      </trkpt>
      <trkpt lat="47.19403" lon="6.61697">
        <ele>475.60000610352</ele>
        <time>2023-08-03T08:20:27.000Z</time>
      </trkpt>
      <trkpt lat="47.1943" lon="6.61681">
        <ele>475.60000610352</ele>
        <time>2023-08-03T08:20:31.000Z</time>
      </trkpt>
      <trkpt lat="47.19448" lon="6.61668">
        <ele>475.79998779297</ele>
        <time>2023-08-03T08:20:34.000Z</time>
      </trkpt>
      <trkpt lat="47.19498" lon="6.61639">
        <ele>475.39999389648</ele>
        <time>2023-08-03T08:20:42.000Z</time>
      </trkpt>
      <trkpt lat="47.19536" lon="6.61623">
        <ele>475.20001220703</ele>
        <time>2023-08-03T08:20:48.000Z</time>
      </trkpt>
      <trkpt lat="47.19571" lon="6.61615">
        <ele>475.39999389648</ele>
        <time>2023-08-03T08:20:54.000Z</time>
      </trkpt>
      <trkpt lat="47.19618" lon="6.61606">
        <ele>476.60000610352</ele>
        <time>2023-08-03T08:21:02.000Z</time>
      </trkpt>
      <trkpt lat="47.19623" lon="6.61605">
        <ele>476.60000610352</ele>
        <time>2023-08-03T08:21:03.000Z</time>
      </trkpt>
      <trkpt lat="47.19644" lon="6.61602">
        <ele>477</ele>
        <time>2023-08-03T08:21:07.000Z</time>
      </trkpt>
      <trkpt lat="47.19656" lon="6.61602">
        <ele>477.39999389648</ele>
        <time>2023-08-03T08:21:09.000Z</time>
      </trkpt>
      <trkpt lat="47.19669" lon="6.61603">
        <ele>477.79998779297</ele>
        <time>2023-08-03T08:21:11.000Z</time>
      </trkpt>
      <trkpt lat="47.19698" lon="6.61607">
        <ele>478.20001220703</ele>
        <time>2023-08-03T08:21:16.000Z</time>
      </trkpt>
      <trkpt lat="47.19726" lon="6.61611">
        <ele>478.79998779297</ele>
        <time>2023-08-03T08:21:21.000Z</time>
      </trkpt>
      <trkpt lat="47.19743" lon="6.61612">
        <ele>479.20001220703</ele>
        <time>2023-08-03T08:21:24.000Z</time>
      </trkpt>
      <trkpt lat="47.19777" lon="6.61615">
        <ele>479.79998779297</ele>
        <time>2023-08-03T08:21:30.000Z</time>
      </trkpt>
      <trkpt lat="47.19807" lon="6.6162">
        <ele>479.79998779297</ele>
        <time>2023-08-03T08:21:35.000Z</time>
      </trkpt>
      <trkpt lat="47.19832" lon="6.61624">
        <ele>480</ele>
        <time>2023-08-03T08:21:39.000Z</time>
      </trkpt>
      <trkpt lat="47.1988" lon="6.61635">
        <ele>480</ele>
        <time>2023-08-03T08:21:47.000Z</time>
      </trkpt>
      <trkpt lat="47.19933" lon="6.61653">
        <ele>480</ele>
        <time>2023-08-03T08:21:56.000Z</time>
      </trkpt>
      <trkpt lat="47.19986" lon="6.61672">
        <ele>479.79998779297</ele>
        <time>2023-08-03T08:22:05.000Z</time>
      </trkpt>
      <trkpt lat="47.19999" lon="6.61677">
        <ele>479.60000610352</ele>
        <time>2023-08-03T08:22:07.000Z</time>
      </trkpt>
      <trkpt lat="47.20035" lon="6.61685">
        <ele>479</ele>
        <time>2023-08-03T08:22:12.000Z</time>
      </trkpt>
      <trkpt lat="47.20043" lon="6.61688">
        <ele>478.79998779297</ele>
        <time>2023-08-03T08:22:13.000Z</time>
      </trkpt>
      <trkpt lat="47.20066" lon="6.61696">
        <ele>477.79998779297</ele>
        <time>2023-08-03T08:22:16.000Z</time>
      </trkpt>
      <trkpt lat="47.20081" lon="6.617">
        <ele>477.20001220703</ele>
        <time>2023-08-03T08:22:18.000Z</time>
      </trkpt>
      <trkpt lat="47.2009" lon="6.61699">
        <ele>476.79998779297</ele>
        <time>2023-08-03T08:22:19.000Z</time>
      </trkpt>
      <trkpt lat="47.20099" lon="6.61696">
        <ele>476.60000610352</ele>
        <time>2023-08-03T08:22:20.000Z</time>
      </trkpt>
      <trkpt lat="47.20106" lon="6.6169">
        <ele>476.20001220703</ele>
        <time>2023-08-03T08:22:21.000Z</time>
      </trkpt>
      <trkpt lat="47.20112" lon="6.61681">
        <ele>475.79998779297</ele>
        <time>2023-08-03T08:22:22.000Z</time>
      </trkpt>
      <trkpt lat="47.20116" lon="6.6167">
        <ele>475.20001220703</ele>
        <time>2023-08-03T08:22:23.000Z</time>
      </trkpt>
      <trkpt lat="47.20118" lon="6.6166">
        <ele>474.60000610352</ele>
        <time>2023-08-03T08:22:24.000Z</time>
      </trkpt>
      <trkpt lat="47.20125" lon="6.61628">
        <ele>474.20001220703</ele>
        <time>2023-08-03T08:22:27.000Z</time>
      </trkpt>
      <trkpt lat="47.20127" lon="6.61618">
        <ele>474</ele>
        <time>2023-08-03T08:22:28.000Z</time>
      </trkpt>
      <trkpt lat="47.20131" lon="6.61609">
        <ele>474</ele>
        <time>2023-08-03T08:22:29.000Z</time>
      </trkpt>
      <trkpt lat="47.2014" lon="6.61596">
        <ele>473.79998779297</ele>
        <time>2023-08-03T08:22:31.000Z</time>
      </trkpt>
      <trkpt lat="47.20146" lon="6.61592">
        <ele>473.79998779297</ele>
        <time>2023-08-03T08:22:32.000Z</time>
      </trkpt>
      <trkpt lat="47.20164" lon="6.61586">
        <ele>473.39999389648</ele>
        <time>2023-08-03T08:22:35.000Z</time>
      </trkpt>
      <trkpt lat="47.20182" lon="6.61583">
        <ele>473.20001220703</ele>
        <time>2023-08-03T08:22:38.000Z</time>
      </trkpt>
      <trkpt lat="47.20188" lon="6.61582">
        <ele>473.20001220703</ele>
        <time>2023-08-03T08:22:39.000Z</time>
      </trkpt>
      <trkpt lat="47.20201" lon="6.61583">
        <ele>473.20001220703</ele>
        <time>2023-08-03T08:22:41.000Z</time>
      </trkpt>
      <trkpt lat="47.20214" lon="6.61583">
        <ele>473.20001220703</ele>
        <time>2023-08-03T08:22:43.000Z</time>
      </trkpt>
      <trkpt lat="47.2022" lon="6.61584">
        <ele>473.20001220703</ele>
        <time>2023-08-03T08:22:44.000Z</time>
      </trkpt>
      <trkpt lat="47.20232" lon="6.61591">
        <ele>473.39999389648</ele>
        <time>2023-08-03T08:22:46.000Z</time>
      </trkpt>
      <trkpt lat="47.20241" lon="6.61606">
        <ele>473.20001220703</ele>
        <time>2023-08-03T08:22:48.000Z</time>
      </trkpt>
      <trkpt lat="47.20244" lon="6.61615">
        <ele>473.20001220703</ele>
        <time>2023-08-03T08:22:49.000Z</time>
      </trkpt>
      <trkpt lat="47.20246" lon="6.61624">
        <ele>473.20001220703</ele>
        <time>2023-08-03T08:22:50.000Z</time>
      </trkpt>
      <trkpt lat="47.20253" lon="6.6167">
        <ele>472.79998779297</ele>
        <time>2023-08-03T08:22:55.000Z</time>
      </trkpt>
      <trkpt lat="47.20264" lon="6.61751">
        <ele>472.60000610352</ele>
        <time>2023-08-03T08:23:04.000Z</time>
      </trkpt>
      <trkpt lat="47.20277" lon="6.61801">
        <ele>473.20001220703</ele>
        <time>2023-08-03T08:23:10.000Z</time>
      </trkpt>
      <trkpt lat="47.20306" lon="6.61875">
        <ele>473.79998779297</ele>
        <time>2023-08-03T08:23:19.000Z</time>
      </trkpt>
      <trkpt lat="47.20332" lon="6.61943">
        <ele>474</ele>
        <time>2023-08-03T08:23:27.000Z</time>
      </trkpt>
      <trkpt lat="47.20351" lon="6.61995">
        <ele>473.79998779297</ele>
        <time>2023-08-03T08:23:33.000Z</time>
      </trkpt>
      <trkpt lat="47.20354" lon="6.62005">
        <ele>473.79998779297</ele>
        <time>2023-08-03T08:23:34.000Z</time>
      </trkpt>
      <trkpt lat="47.20365" lon="6.62073">
        <ele>473.39999389648</ele>
        <time>2023-08-03T08:23:41.000Z</time>
      </trkpt>
      <trkpt lat="47.20366" lon="6.6215">
        <ele>473.39999389648</ele>
        <time>2023-08-03T08:23:49.000Z</time>
      </trkpt>
      <trkpt lat="47.20365" lon="6.62177">
        <ele>473.20001220703</ele>
        <time>2023-08-03T08:23:52.000Z</time>
      </trkpt>
      <trkpt lat="47.2036" lon="6.62235">
        <ele>473.20001220703</ele>
        <time>2023-08-03T08:23:58.000Z</time>
      </trkpt>
      <trkpt lat="47.20357" lon="6.62245">
        <ele>473.20001220703</ele>
        <time>2023-08-03T08:23:59.000Z</time>
      </trkpt>
      <trkpt lat="47.20351" lon="6.62262">
        <ele>473.20001220703</ele>
        <time>2023-08-03T08:24:01.000Z</time>
      </trkpt>
      <trkpt lat="47.20349" lon="6.62269">
        <ele>473.20001220703</ele>
        <time>2023-08-03T08:24:02.000Z</time>
      </trkpt>
      <trkpt lat="47.20326" lon="6.62313">
        <ele>473.20001220703</ele>
        <time>2023-08-03T08:24:08.000Z</time>
      </trkpt>
      <trkpt lat="47.20321" lon="6.62322">
        <ele>473.20001220703</ele>
        <time>2023-08-03T08:24:09.000Z</time>
      </trkpt>
      <trkpt lat="47.20306" lon="6.62352">
        <ele>473.39999389648</ele>
        <time>2023-08-03T08:24:13.000Z</time>
      </trkpt>
      <trkpt lat="47.20302" lon="6.62359">
        <ele>473.39999389648</ele>
        <time>2023-08-03T08:24:14.000Z</time>
      </trkpt>
      <trkpt lat="47.20282" lon="6.62395">
        <ele>473.79998779297</ele>
        <time>2023-08-03T08:24:19.000Z</time>
      </trkpt>
      <trkpt lat="47.20247" lon="6.62447">
        <ele>474</ele>
        <time>2023-08-03T08:24:27.000Z</time>
      </trkpt>
      <trkpt lat="47.20242" lon="6.62453">
        <ele>474.20001220703</ele>
        <time>2023-08-03T08:24:28.000Z</time>
      </trkpt>
      <trkpt lat="47.20225" lon="6.62476">
        <ele>474.79998779297</ele>
        <time>2023-08-03T08:24:32.000Z</time>
      </trkpt>
      <trkpt lat="47.20221" lon="6.62482">
        <ele>474.79998779297</ele>
        <time>2023-08-03T08:24:33.000Z</time>
      </trkpt>
      <trkpt lat="47.20212" lon="6.62492">
        <ele>475.39999389648</ele>
        <time>2023-08-03T08:24:35.000Z</time>
      </trkpt>
      <trkpt lat="47.20199" lon="6.6251">
        <ele>475.60000610352</ele>
        <time>2023-08-03T08:24:38.000Z</time>
      </trkpt>
      <trkpt lat="47.20169" lon="6.62555">
        <ele>476.39999389648</ele>
        <time>2023-08-03T08:24:45.000Z</time>
      </trkpt>
      <trkpt lat="47.20164" lon="6.62561">
        <ele>476.39999389648</ele>
        <time>2023-08-03T08:24:46.000Z</time>
      </trkpt>
      <trkpt lat="47.20143" lon="6.62597">
        <ele>476.39999389648</ele>
        <time>2023-08-03T08:24:51.000Z</time>
      </trkpt>
      <trkpt lat="47.20137" lon="6.62613">
        <ele>476.39999389648</ele>
        <time>2023-08-03T08:24:53.000Z</time>
      </trkpt>
      <trkpt lat="47.20131" lon="6.6263">
        <ele>476.39999389648</ele>
        <time>2023-08-03T08:24:55.000Z</time>
      </trkpt>
      <trkpt lat="47.20126" lon="6.62648">
        <ele>476.39999389648</ele>
        <time>2023-08-03T08:24:57.000Z</time>
      </trkpt>
      <trkpt lat="47.20119" lon="6.62675">
        <ele>476.39999389648</ele>
        <time>2023-08-03T08:25:00.000Z</time>
      </trkpt>
      <trkpt lat="47.20117" lon="6.62684">
        <ele>476.39999389648</ele>
        <time>2023-08-03T08:25:01.000Z</time>
      </trkpt>
      <trkpt lat="47.20114" lon="6.62713">
        <ele>476.39999389648</ele>
        <time>2023-08-03T08:25:04.000Z</time>
      </trkpt>
      <trkpt lat="47.20114" lon="6.62722">
        <ele>476.39999389648</ele>
        <time>2023-08-03T08:25:05.000Z</time>
      </trkpt>
      <trkpt lat="47.20113" lon="6.62742">
        <ele>476.39999389648</ele>
        <time>2023-08-03T08:25:07.000Z</time>
      </trkpt>
      <trkpt lat="47.20115" lon="6.62781">
        <ele>476</ele>
        <time>2023-08-03T08:25:11.000Z</time>
      </trkpt>
      <trkpt lat="47.20115" lon="6.6284">
        <ele>475.20001220703</ele>
        <time>2023-08-03T08:25:17.000Z</time>
      </trkpt>
      <trkpt lat="47.20116" lon="6.62849">
        <ele>475.20001220703</ele>
        <time>2023-08-03T08:25:18.000Z</time>
      </trkpt>
      <trkpt lat="47.20119" lon="6.62868">
        <ele>475</ele>
        <time>2023-08-03T08:25:20.000Z</time>
      </trkpt>
      <trkpt lat="47.20124" lon="6.62887">
        <ele>474.79998779297</ele>
        <time>2023-08-03T08:25:22.000Z</time>
      </trkpt>
      <trkpt lat="47.20143" lon="6.62918">
        <ele>474.60000610352</ele>
        <time>2023-08-03T08:25:26.000Z</time>
      </trkpt>
      <trkpt lat="47.20152" lon="6.62932">
        <ele>474.60000610352</ele>
        <time>2023-08-03T08:25:28.000Z</time>
      </trkpt>
      <trkpt lat="47.20168" lon="6.6295">
        <ele>474.20001220703</ele>
        <time>2023-08-03T08:25:31.000Z</time>
      </trkpt>
      <trkpt lat="47.20179" lon="6.6296">
        <ele>474.20001220703</ele>
        <time>2023-08-03T08:25:33.000Z</time>
      </trkpt>
      <trkpt lat="47.20185" lon="6.62965">
        <ele>474</ele>
        <time>2023-08-03T08:25:34.000Z</time>
      </trkpt>
      <trkpt lat="47.20191" lon="6.62968">
        <ele>474</ele>
        <time>2023-08-03T08:25:35.000Z</time>
      </trkpt>
      <trkpt lat="47.20209" lon="6.62978">
        <ele>473.60000610352</ele>
        <time>2023-08-03T08:25:38.000Z</time>
      </trkpt>
      <trkpt lat="47.20256" lon="6.63">
        <ele>473.20001220703</ele>
        <time>2023-08-03T08:25:45.000Z</time>
      </trkpt>
      <trkpt lat="47.20268" lon="6.63004">
        <ele>473</ele>
        <time>2023-08-03T08:25:47.000Z</time>
      </trkpt>
      <trkpt lat="47.20287" lon="6.6301">
        <ele>472.39999389648</ele>
        <time>2023-08-03T08:25:50.000Z</time>
      </trkpt>
      <trkpt lat="47.20326" lon="6.63019">
        <ele>472.20001220703</ele>
        <time>2023-08-03T08:25:56.000Z</time>
      </trkpt>
      <trkpt lat="47.20332" lon="6.6302">
        <ele>472</ele>
        <time>2023-08-03T08:25:57.000Z</time>
      </trkpt>
      <trkpt lat="47.20373" lon="6.63028">
        <ele>471.60000610352</ele>
        <time>2023-08-03T08:26:03.000Z</time>
      </trkpt>
      <trkpt lat="47.20421" lon="6.63037">
        <ele>471.60000610352</ele>
        <time>2023-08-03T08:26:10.000Z</time>
      </trkpt>
      <trkpt lat="47.20452" lon="6.63044">
        <ele>471.79998779297</ele>
        <time>2023-08-03T08:26:15.000Z</time>
      </trkpt>
      <trkpt lat="47.20482" lon="6.63047">
        <ele>472</ele>
        <time>2023-08-03T08:26:20.000Z</time>
      </trkpt>
      <trkpt lat="47.20522" lon="6.63042">
        <ele>472</ele>
        <time>2023-08-03T08:26:26.000Z</time>
      </trkpt>
      <trkpt lat="47.20569" lon="6.63037">
        <ele>471.79998779297</ele>
        <time>2023-08-03T08:26:33.000Z</time>
      </trkpt>
      <trkpt lat="47.20606" lon="6.63033">
        <ele>471.39999389648</ele>
        <time>2023-08-03T08:26:39.000Z</time>
      </trkpt>
      <trkpt lat="47.20649" lon="6.63034">
        <ele>471</ele>
        <time>2023-08-03T08:26:45.000Z</time>
      </trkpt>
      <trkpt lat="47.20655" lon="6.63035">
        <ele>470.79998779297</ele>
        <time>2023-08-03T08:26:46.000Z</time>
      </trkpt>
      <trkpt lat="47.20704" lon="6.63047">
        <ele>470.20001220703</ele>
        <time>2023-08-03T08:26:53.000Z</time>
      </trkpt>
      <trkpt lat="47.20731" lon="6.63059">
        <ele>469.79998779297</ele>
        <time>2023-08-03T08:26:57.000Z</time>
      </trkpt>
      <trkpt lat="47.20749" lon="6.6307">
        <ele>469.79998779297</ele>
        <time>2023-08-03T08:27:00.000Z</time>
      </trkpt>
      <trkpt lat="47.20779" lon="6.63098">
        <ele>469.39999389648</ele>
        <time>2023-08-03T08:27:05.000Z</time>
      </trkpt>
      <trkpt lat="47.20789" lon="6.63114">
        <ele>469.20001220703</ele>
        <time>2023-08-03T08:27:07.000Z</time>
      </trkpt>
      <trkpt lat="47.208" lon="6.63139">
        <ele>468.79998779297</ele>
        <time>2023-08-03T08:27:10.000Z</time>
      </trkpt>
      <trkpt lat="47.20803" lon="6.63148">
        <ele>468.79998779297</ele>
        <time>2023-08-03T08:27:11.000Z</time>
      </trkpt>
      <trkpt lat="47.2082" lon="6.63213">
        <ele>468.39999389648</ele>
        <time>2023-08-03T08:27:18.000Z</time>
      </trkpt>
      <trkpt lat="47.20836" lon="6.63271">
        <ele>467.79998779297</ele>
        <time>2023-08-03T08:27:25.000Z</time>
      </trkpt>
      <trkpt lat="47.20839" lon="6.6328">
        <ele>467.79998779297</ele>
        <time>2023-08-03T08:27:26.000Z</time>
      </trkpt>
      <trkpt lat="47.20858" lon="6.63347">
        <ele>467.60000610352</ele>
        <time>2023-08-03T08:27:34.000Z</time>
      </trkpt>
      <trkpt lat="47.20863" lon="6.63379">
        <ele>467.60000610352</ele>
        <time>2023-08-03T08:27:38.000Z</time>
      </trkpt>
      <trkpt lat="47.20864" lon="6.63395">
        <ele>467.60000610352</ele>
        <time>2023-08-03T08:27:40.000Z</time>
      </trkpt>
      <trkpt lat="47.20864" lon="6.63421">
        <ele>468</ele>
        <time>2023-08-03T08:27:43.000Z</time>
      </trkpt>
      <trkpt lat="47.20862" lon="6.63446">
        <ele>468.39999389648</ele>
        <time>2023-08-03T08:27:46.000Z</time>
      </trkpt>
      <trkpt lat="47.20861" lon="6.63462">
        <ele>469</ele>
        <time>2023-08-03T08:27:48.000Z</time>
      </trkpt>
      <trkpt lat="47.20856" lon="6.63478">
        <ele>469.20001220703</ele>
        <time>2023-08-03T08:27:50.000Z</time>
      </trkpt>
      <trkpt lat="47.20836" lon="6.6351">
        <ele>469</ele>
        <time>2023-08-03T08:27:55.000Z</time>
      </trkpt>
      <trkpt lat="47.20831" lon="6.63515">
        <ele>469</ele>
        <time>2023-08-03T08:27:56.000Z</time>
      </trkpt>
      <trkpt lat="47.20799" lon="6.63554">
        <ele>468.60000610352</ele>
        <time>2023-08-03T08:28:03.000Z</time>
      </trkpt>
      <trkpt lat="47.20785" lon="6.63573">
        <ele>468.60000610352</ele>
        <time>2023-08-03T08:28:06.000Z</time>
      </trkpt>
      <trkpt lat="47.20774" lon="6.63594">
        <ele>468.39999389648</ele>
        <time>2023-08-03T08:28:09.000Z</time>
      </trkpt>
      <trkpt lat="47.2076" lon="6.63625">
        <ele>468</ele>
        <time>2023-08-03T08:28:13.000Z</time>
      </trkpt>
      <trkpt lat="47.20753" lon="6.63641">
        <ele>467.79998779297</ele>
        <time>2023-08-03T08:28:15.000Z</time>
      </trkpt>
      <trkpt lat="47.20725" lon="6.63704">
        <ele>467.60000610352</ele>
        <time>2023-08-03T08:28:23.000Z</time>
      </trkpt>
      <trkpt lat="47.20692" lon="6.63774">
        <ele>467.20001220703</ele>
        <time>2023-08-03T08:28:32.000Z</time>
      </trkpt>
      <trkpt lat="47.20685" lon="6.63789">
        <ele>467</ele>
        <time>2023-08-03T08:28:34.000Z</time>
      </trkpt>
      <trkpt lat="47.20666" lon="6.63839">
        <ele>466.79998779297</ele>
        <time>2023-08-03T08:28:40.000Z</time>
      </trkpt>
      <trkpt lat="47.20662" lon="6.63857">
        <ele>466.79998779297</ele>
        <time>2023-08-03T08:28:42.000Z</time>
      </trkpt>
      <trkpt lat="47.20657" lon="6.63896">
        <ele>466.79998779297</ele>
        <time>2023-08-03T08:28:46.000Z</time>
      </trkpt>
      <trkpt lat="47.20659" lon="6.63935">
        <ele>467</ele>
        <time>2023-08-03T08:28:50.000Z</time>
      </trkpt>
      <trkpt lat="47.2066" lon="6.63945">
        <ele>467</ele>
        <time>2023-08-03T08:28:51.000Z</time>
      </trkpt>
      <trkpt lat="47.20662" lon="6.63955">
        <ele>467</ele>
        <time>2023-08-03T08:28:52.000Z</time>
      </trkpt>
      <trkpt lat="47.20668" lon="6.63973">
        <ele>467</ele>
        <time>2023-08-03T08:28:54.000Z</time>
      </trkpt>
      <trkpt lat="47.20672" lon="6.63982">
        <ele>467</ele>
        <time>2023-08-03T08:28:55.000Z</time>
      </trkpt>
      <trkpt lat="47.20686" lon="6.64004">
        <ele>467</ele>
        <time>2023-08-03T08:28:58.000Z</time>
      </trkpt>
      <trkpt lat="47.20695" lon="6.64017">
        <ele>467</ele>
        <time>2023-08-03T08:29:00.000Z</time>
      </trkpt>
      <trkpt lat="47.20735" lon="6.64077">
        <ele>466.79998779297</ele>
        <time>2023-08-03T08:29:08.000Z</time>
      </trkpt>
      <trkpt lat="47.2074" lon="6.64085">
        <ele>466.79998779297</ele>
        <time>2023-08-03T08:29:09.000Z</time>
      </trkpt>
      <trkpt lat="47.20769" lon="6.64129">
        <ele>466.60000610352</ele>
        <time>2023-08-03T08:29:15.000Z</time>
      </trkpt>
      <trkpt lat="47.20792" lon="6.64164">
        <ele>466.20001220703</ele>
        <time>2023-08-03T08:29:20.000Z</time>
      </trkpt>
      <trkpt lat="47.20796" lon="6.64171">
        <ele>466</ele>
        <time>2023-08-03T08:29:21.000Z</time>
      </trkpt>
      <trkpt lat="47.208" lon="6.64178">
        <ele>465.79998779297</ele>
        <time>2023-08-03T08:29:22.000Z</time>
      </trkpt>
      <trkpt lat="47.20834" lon="6.64232">
        <ele>465.39999389648</ele>
        <time>2023-08-03T08:29:29.000Z</time>
      </trkpt>
      <trkpt lat="47.20863" lon="6.64307">
        <ele>465.20001220703</ele>
        <time>2023-08-03T08:29:38.000Z</time>
      </trkpt>
      <trkpt lat="47.20874" lon="6.6437">
        <ele>465.20001220703</ele>
        <time>2023-08-03T08:29:45.000Z</time>
      </trkpt>
      <trkpt lat="47.20875" lon="6.64436">
        <ele>465.39999389648</ele>
        <time>2023-08-03T08:29:52.000Z</time>
      </trkpt>
      <trkpt lat="47.20871" lon="6.64518">
        <ele>465.60000610352</ele>
        <time>2023-08-03T08:30:01.000Z</time>
      </trkpt>
      <trkpt lat="47.20869" lon="6.64579">
        <ele>466.20001220703</ele>
        <time>2023-08-03T08:30:08.000Z</time>
      </trkpt>
      <trkpt lat="47.20868" lon="6.64597">
        <ele>466.20001220703</ele>
        <time>2023-08-03T08:30:10.000Z</time>
      </trkpt>
      <trkpt lat="47.20862" lon="6.64652">
        <ele>466.39999389648</ele>
        <time>2023-08-03T08:30:16.000Z</time>
      </trkpt>
      <trkpt lat="47.20859" lon="6.64678">
        <ele>466.79998779297</ele>
        <time>2023-08-03T08:30:19.000Z</time>
      </trkpt>
      <trkpt lat="47.20852" lon="6.64742">
        <ele>467.39999389648</ele>
        <time>2023-08-03T08:30:26.000Z</time>
      </trkpt>
      <trkpt lat="47.20851" lon="6.64751">
        <ele>467.39999389648</ele>
        <time>2023-08-03T08:30:27.000Z</time>
      </trkpt>
      <trkpt lat="47.2085" lon="6.64818">
        <ele>467.60000610352</ele>
        <time>2023-08-03T08:30:34.000Z</time>
      </trkpt>
      <trkpt lat="47.20852" lon="6.64878">
        <ele>467.20001220703</ele>
        <time>2023-08-03T08:30:40.000Z</time>
      </trkpt>
      <trkpt lat="47.20853" lon="6.64898">
        <ele>467</ele>
        <time>2023-08-03T08:30:42.000Z</time>
      </trkpt>
      <trkpt lat="47.20853" lon="6.64918">
        <ele>467</ele>
        <time>2023-08-03T08:30:44.000Z</time>
      </trkpt>
      <trkpt lat="47.20855" lon="6.64938">
        <ele>467</ele>
        <time>2023-08-03T08:30:46.000Z</time>
      </trkpt>
      <trkpt lat="47.2086" lon="6.64986">
        <ele>467.20001220703</ele>
        <time>2023-08-03T08:30:51.000Z</time>
      </trkpt>
      <trkpt lat="47.20862" lon="6.65044">
        <ele>467.39999389648</ele>
        <time>2023-08-03T08:30:57.000Z</time>
      </trkpt>
      <trkpt lat="47.20863" lon="6.65063">
        <ele>467.39999389648</ele>
        <time>2023-08-03T08:30:59.000Z</time>
      </trkpt>
      <trkpt lat="47.20866" lon="6.65082">
        <ele>467.39999389648</ele>
        <time>2023-08-03T08:31:01.000Z</time>
      </trkpt>
      <trkpt lat="47.20868" lon="6.6511">
        <ele>467.60000610352</ele>
        <time>2023-08-03T08:31:04.000Z</time>
      </trkpt>
      <trkpt lat="47.20872" lon="6.65138">
        <ele>467.60000610352</ele>
        <time>2023-08-03T08:31:07.000Z</time>
      </trkpt>
      <trkpt lat="47.20874" lon="6.65147">
        <ele>467.60000610352</ele>
        <time>2023-08-03T08:31:08.000Z</time>
      </trkpt>
      <trkpt lat="47.20884" lon="6.65164">
        <ele>467.60000610352</ele>
        <time>2023-08-03T08:31:10.000Z</time>
      </trkpt>
      <trkpt lat="47.20887" lon="6.65173">
        <ele>467.60000610352</ele>
        <time>2023-08-03T08:31:11.000Z</time>
      </trkpt>
      <trkpt lat="47.20891" lon="6.6518">
        <ele>467.60000610352</ele>
        <time>2023-08-03T08:31:12.000Z</time>
      </trkpt>
      <trkpt lat="47.20904" lon="6.65198">
        <ele>467.60000610352</ele>
        <time>2023-08-03T08:31:15.000Z</time>
      </trkpt>
      <trkpt lat="47.20927" lon="6.65223">
        <ele>467.79998779297</ele>
        <time>2023-08-03T08:31:20.000Z</time>
      </trkpt>
      <trkpt lat="47.20931" lon="6.65227">
        <ele>468</ele>
        <time>2023-08-03T08:31:21.000Z</time>
      </trkpt>
      <trkpt lat="47.20935" lon="6.65232">
        <ele>468</ele>
        <time>2023-08-03T08:31:22.000Z</time>
      </trkpt>
      <trkpt lat="47.20945" lon="6.65243">
        <ele>468.20001220703</ele>
        <time>2023-08-03T08:31:24.000Z</time>
      </trkpt>
      <trkpt lat="47.20953" lon="6.65254">
        <ele>468.60000610352</ele>
        <time>2023-08-03T08:31:26.000Z</time>
      </trkpt>
      <trkpt lat="47.20963" lon="6.65267">
        <ele>469</ele>
        <time>2023-08-03T08:31:29.000Z</time>
      </trkpt>
      <trkpt lat="47.20982" lon="6.65286">
        <ele>469.39999389648</ele>
        <time>2023-08-03T08:31:33.000Z</time>
      </trkpt>
      <trkpt lat="47.20993" lon="6.65299">
        <ele>469.60000610352</ele>
        <time>2023-08-03T08:31:35.000Z</time>
      </trkpt>
      <trkpt lat="47.21004" lon="6.65321">
        <ele>470</ele>
        <time>2023-08-03T08:31:38.000Z</time>
      </trkpt>
      <trkpt lat="47.21016" lon="6.65361">
        <ele>470</ele>
        <time>2023-08-03T08:31:43.000Z</time>
      </trkpt>
      <trkpt lat="47.21025" lon="6.65424">
        <ele>469.60000610352</ele>
        <time>2023-08-03T08:31:50.000Z</time>
      </trkpt>
      <trkpt lat="47.2103" lon="6.65453">
        <ele>468.79998779297</ele>
        <time>2023-08-03T08:31:53.000Z</time>
      </trkpt>
      <trkpt lat="47.21032" lon="6.65473">
        <ele>468.39999389648</ele>
        <time>2023-08-03T08:31:55.000Z</time>
      </trkpt>
      <trkpt lat="47.21042" lon="6.65544">
        <ele>467.39999389648</ele>
        <time>2023-08-03T08:32:02.000Z</time>
      </trkpt>
      <trkpt lat="47.21045" lon="6.65554">
        <ele>467.39999389648</ele>
        <time>2023-08-03T08:32:03.000Z</time>
      </trkpt>
      <trkpt lat="47.21054" lon="6.65572">
        <ele>467</ele>
        <time>2023-08-03T08:32:05.000Z</time>
      </trkpt>
      <trkpt lat="47.21059" lon="6.6558">
        <ele>466.79998779297</ele>
        <time>2023-08-03T08:32:06.000Z</time>
      </trkpt>
      <trkpt lat="47.21083" lon="6.65611">
        <ele>466.20001220703</ele>
        <time>2023-08-03T08:32:10.000Z</time>
      </trkpt>
      <trkpt lat="47.2111" lon="6.65654">
        <ele>465.20001220703</ele>
        <time>2023-08-03T08:32:15.000Z</time>
      </trkpt>
      <trkpt lat="47.21114" lon="6.65664">
        <ele>465</ele>
        <time>2023-08-03T08:32:16.000Z</time>
      </trkpt>
      <trkpt lat="47.21131" lon="6.65706">
        <ele>464.39999389648</ele>
        <time>2023-08-03T08:32:20.000Z</time>
      </trkpt>
      <trkpt lat="47.21136" lon="6.65717">
        <ele>464</ele>
        <time>2023-08-03T08:32:21.000Z</time>
      </trkpt>
      <trkpt lat="47.2115" lon="6.6577">
        <ele>463.39999389648</ele>
        <time>2023-08-03T08:32:26.000Z</time>
      </trkpt>
      <trkpt lat="47.21174" lon="6.6585">
        <ele>463.39999389648</ele>
        <time>2023-08-03T08:32:34.000Z</time>
      </trkpt>
      <trkpt lat="47.21186" lon="6.65899">
        <ele>463.39999389648</ele>
        <time>2023-08-03T08:32:39.000Z</time>
      </trkpt>
      <trkpt lat="47.2119" lon="6.65919">
        <ele>463.39999389648</ele>
        <time>2023-08-03T08:32:41.000Z</time>
      </trkpt>
      <trkpt lat="47.21193" lon="6.65987">
        <ele>463.79998779297</ele>
        <time>2023-08-03T08:32:48.000Z</time>
      </trkpt>
      <trkpt lat="47.21194" lon="6.66074">
        <ele>464</ele>
        <time>2023-08-03T08:32:57.000Z</time>
      </trkpt>
      <trkpt lat="47.21195" lon="6.66093">
        <ele>464.20001220703</ele>
        <time>2023-08-03T08:32:59.000Z</time>
      </trkpt>
      <trkpt lat="47.21196" lon="6.66102">
        <ele>464.20001220703</ele>
        <time>2023-08-03T08:33:00.000Z</time>
      </trkpt>
      <trkpt lat="47.21201" lon="6.66147">
        <ele>465.20001220703</ele>
        <time>2023-08-03T08:33:05.000Z</time>
      </trkpt>
      <trkpt lat="47.2121" lon="6.6623">
        <ele>466.20001220703</ele>
        <time>2023-08-03T08:33:14.000Z</time>
      </trkpt>
      <trkpt lat="47.21211" lon="6.66239">
        <ele>466.39999389648</ele>
        <time>2023-08-03T08:33:15.000Z</time>
      </trkpt>
      <trkpt lat="47.21223" lon="6.6629">
        <ele>467.20001220703</ele>
        <time>2023-08-03T08:33:21.000Z</time>
      </trkpt>
      <trkpt lat="47.21234" lon="6.6632">
        <ele>467.79998779297</ele>
        <time>2023-08-03T08:33:25.000Z</time>
      </trkpt>
      <trkpt lat="47.21237" lon="6.66327">
        <ele>467.79998779297</ele>
        <time>2023-08-03T08:33:26.000Z</time>
      </trkpt>
      <trkpt lat="47.21247" lon="6.66347">
        <ele>468.20001220703</ele>
        <time>2023-08-03T08:33:29.000Z</time>
      </trkpt>
      <trkpt lat="47.21251" lon="6.66354">
        <ele>468.39999389648</ele>
        <time>2023-08-03T08:33:30.000Z</time>
      </trkpt>
      <trkpt lat="47.2126" lon="6.66367">
        <ele>468.60000610352</ele>
        <time>2023-08-03T08:33:32.000Z</time>
      </trkpt>
      <trkpt lat="47.21269" lon="6.66379">
        <ele>468.60000610352</ele>
        <time>2023-08-03T08:33:34.000Z</time>
      </trkpt>
      <trkpt lat="47.21279" lon="6.66389">
        <ele>468.79998779297</ele>
        <time>2023-08-03T08:33:36.000Z</time>
      </trkpt>
      <trkpt lat="47.2129" lon="6.66397">
        <ele>468.79998779297</ele>
        <time>2023-08-03T08:33:38.000Z</time>
      </trkpt>
      <trkpt lat="47.213" lon="6.66406">
        <ele>468.79998779297</ele>
        <time>2023-08-03T08:33:40.000Z</time>
      </trkpt>
      <trkpt lat="47.21314" lon="6.66418">
        <ele>468.60000610352</ele>
        <time>2023-08-03T08:33:42.000Z</time>
      </trkpt>
      <trkpt lat="47.21327" lon="6.66437">
        <ele>468.20001220703</ele>
        <time>2023-08-03T08:33:45.000Z</time>
      </trkpt>
      <trkpt lat="47.21335" lon="6.6645">
        <ele>468.20001220703</ele>
        <time>2023-08-03T08:33:47.000Z</time>
      </trkpt>
      <trkpt lat="47.21343" lon="6.66462">
        <ele>468.39999389648</ele>
        <time>2023-08-03T08:33:49.000Z</time>
      </trkpt>
      <trkpt lat="47.21373" lon="6.66488">
        <ele>468.79998779297</ele>
        <time>2023-08-03T08:33:55.000Z</time>
      </trkpt>
      <trkpt lat="47.21416" lon="6.66514">
        <ele>469</ele>
        <time>2023-08-03T08:34:03.000Z</time>
      </trkpt>
      <trkpt lat="47.21422" lon="6.66518">
        <ele>468.79998779297</ele>
        <time>2023-08-03T08:34:04.000Z</time>
      </trkpt>
      <trkpt lat="47.21459" lon="6.6655">
        <ele>468.20001220703</ele>
        <time>2023-08-03T08:34:10.000Z</time>
      </trkpt>
      <trkpt lat="47.21489" lon="6.66595">
        <ele>467.60000610352</ele>
        <time>2023-08-03T08:34:17.000Z</time>
      </trkpt>
      <trkpt lat="47.21516" lon="6.6664">
        <ele>467.60000610352</ele>
        <time>2023-08-03T08:34:24.000Z</time>
      </trkpt>
      <trkpt lat="47.2155" lon="6.66689">
        <ele>468</ele>
        <time>2023-08-03T08:34:32.000Z</time>
      </trkpt>
      <trkpt lat="47.21579" lon="6.66734">
        <ele>468.20001220703</ele>
        <time>2023-08-03T08:34:39.000Z</time>
      </trkpt>
      <trkpt lat="47.21622" lon="6.66796">
        <ele>468.20001220703</ele>
        <time>2023-08-03T08:34:49.000Z</time>
      </trkpt>
      <trkpt lat="47.21664" lon="6.66845">
        <ele>467.79998779297</ele>
        <time>2023-08-03T08:34:58.000Z</time>
      </trkpt>
      <trkpt lat="47.21707" lon="6.66893">
        <ele>467.39999389648</ele>
        <time>2023-08-03T08:35:07.000Z</time>
      </trkpt>
      <trkpt lat="47.21711" lon="6.66899">
        <ele>467.20001220703</ele>
        <time>2023-08-03T08:35:08.000Z</time>
      </trkpt>
      <trkpt lat="47.21731" lon="6.66942">
        <ele>467</ele>
        <time>2023-08-03T08:35:14.000Z</time>
      </trkpt>
      <trkpt lat="47.21746" lon="6.66999">
        <ele>467</ele>
        <time>2023-08-03T08:35:21.000Z</time>
      </trkpt>
      <trkpt lat="47.21755" lon="6.67022">
        <ele>467.20001220703</ele>
        <time>2023-08-03T08:35:24.000Z</time>
      </trkpt>
      <trkpt lat="47.21763" lon="6.67036">
        <ele>467.39999389648</ele>
        <time>2023-08-03T08:35:26.000Z</time>
      </trkpt>
      <trkpt lat="47.21786" lon="6.67065">
        <ele>467.79998779297</ele>
        <time>2023-08-03T08:35:31.000Z</time>
      </trkpt>
      <trkpt lat="47.21791" lon="6.6708">
        <ele>468</ele>
        <time>2023-08-03T08:35:33.000Z</time>
      </trkpt>
      <trkpt lat="47.21795" lon="6.67096">
        <ele>468</ele>
        <time>2023-08-03T08:35:35.000Z</time>
      </trkpt>
      <trkpt lat="47.21797" lon="6.67104">
        <ele>468</ele>
        <time>2023-08-03T08:35:36.000Z</time>
      </trkpt>
      <trkpt lat="47.21797" lon="6.6712">
        <ele>468</ele>
        <time>2023-08-03T08:35:38.000Z</time>
      </trkpt>
      <trkpt lat="47.21797" lon="6.67128">
        <ele>468</ele>
        <time>2023-08-03T08:35:39.000Z</time>
      </trkpt>
      <trkpt lat="47.21795" lon="6.67146">
        <ele>468</ele>
        <time>2023-08-03T08:35:41.000Z</time>
      </trkpt>
      <trkpt lat="47.21792" lon="6.67162">
        <ele>468</ele>
        <time>2023-08-03T08:35:43.000Z</time>
      </trkpt>
      <trkpt lat="47.21791" lon="6.6717">
        <ele>468</ele>
        <time>2023-08-03T08:35:44.000Z</time>
      </trkpt>
      <trkpt lat="47.21781" lon="6.67237">
        <ele>468.60000610352</ele>
        <time>2023-08-03T08:35:52.000Z</time>
      </trkpt>
      <trkpt lat="47.2178" lon="6.67245">
        <ele>468.60000610352</ele>
        <time>2023-08-03T08:35:53.000Z</time>
      </trkpt>
      <trkpt lat="47.2178" lon="6.67254">
        <ele>468.79998779297</ele>
        <time>2023-08-03T08:35:54.000Z</time>
      </trkpt>
      <trkpt lat="47.21781" lon="6.67298">
        <ele>469</ele>
        <time>2023-08-03T08:35:59.000Z</time>
      </trkpt>
      <trkpt lat="47.21784" lon="6.67332">
        <ele>469.60000610352</ele>
        <time>2023-08-03T08:36:03.000Z</time>
      </trkpt>
      <trkpt lat="47.21783" lon="6.67359">
        <ele>470</ele>
        <time>2023-08-03T08:36:06.000Z</time>
      </trkpt>
      <trkpt lat="47.21783" lon="6.67368">
        <ele>470</ele>
        <time>2023-08-03T08:36:07.000Z</time>
      </trkpt>
      <trkpt lat="47.21778" lon="6.67422">
        <ele>470.79998779297</ele>
        <time>2023-08-03T08:36:13.000Z</time>
      </trkpt>
      <trkpt lat="47.21777" lon="6.67431">
        <ele>470.79998779297</ele>
        <time>2023-08-03T08:36:14.000Z</time>
      </trkpt>
      <trkpt lat="47.21765" lon="6.67495">
        <ele>471.20001220703</ele>
        <time>2023-08-03T08:36:21.000Z</time>
      </trkpt>
      <trkpt lat="47.21754" lon="6.67521">
        <ele>471.20001220703</ele>
        <time>2023-08-03T08:36:24.000Z</time>
      </trkpt>
      <trkpt lat="47.21745" lon="6.67541">
        <ele>471.39999389648</ele>
        <time>2023-08-03T08:36:27.000Z</time>
      </trkpt>
      <trkpt lat="47.21741" lon="6.67551">
        <ele>471.60000610352</ele>
        <time>2023-08-03T08:36:28.000Z</time>
      </trkpt>
      <trkpt lat="47.21729" lon="6.67594">
        <ele>472.39999389648</ele>
        <time>2023-08-03T08:36:33.000Z</time>
      </trkpt>
      <trkpt lat="47.21725" lon="6.6763">
        <ele>472.79998779297</ele>
        <time>2023-08-03T08:36:37.000Z</time>
      </trkpt>
      <trkpt lat="47.21723" lon="6.67649">
        <ele>472.79998779297</ele>
        <time>2023-08-03T08:36:39.000Z</time>
      </trkpt>
      <trkpt lat="47.21721" lon="6.67709">
        <ele>473.79998779297</ele>
        <time>2023-08-03T08:36:46.000Z</time>
      </trkpt>
      <trkpt lat="47.21722" lon="6.67753">
        <ele>474.39999389648</ele>
        <time>2023-08-03T08:36:51.000Z</time>
      </trkpt>
      <trkpt lat="47.21726" lon="6.67771">
        <ele>474.79998779297</ele>
        <time>2023-08-03T08:36:53.000Z</time>
      </trkpt>
      <trkpt lat="47.21728" lon="6.67779">
        <ele>475.20001220703</ele>
        <time>2023-08-03T08:36:54.000Z</time>
      </trkpt>
      <trkpt lat="47.21732" lon="6.67802">
        <ele>475.60000610352</ele>
        <time>2023-08-03T08:36:57.000Z</time>
      </trkpt>
      <trkpt lat="47.21734" lon="6.6781">
        <ele>475.79998779297</ele>
        <time>2023-08-03T08:36:58.000Z</time>
      </trkpt>
      <trkpt lat="47.21743" lon="6.67841">
        <ele>476.20001220703</ele>
        <time>2023-08-03T08:37:02.000Z</time>
      </trkpt>
      <trkpt lat="47.2175" lon="6.67856">
        <ele>476.60000610352</ele>
        <time>2023-08-03T08:37:04.000Z</time>
      </trkpt>
      <trkpt lat="47.21762" lon="6.67884">
        <ele>477.20001220703</ele>
        <time>2023-08-03T08:37:08.000Z</time>
      </trkpt>
      <trkpt lat="47.21765" lon="6.67891">
        <ele>477.39999389648</ele>
        <time>2023-08-03T08:37:09.000Z</time>
      </trkpt>
      <trkpt lat="47.21769" lon="6.67903">
        <ele>477.60000610352</ele>
        <time>2023-08-03T08:37:11.000Z</time>
      </trkpt>
      <trkpt lat="47.21774" lon="6.67919">
        <ele>477.79998779297</ele>
        <time>2023-08-03T08:37:13.000Z</time>
      </trkpt>
      <trkpt lat="47.21786" lon="6.67957">
        <ele>478.39999389648</ele>
        <time>2023-08-03T08:37:18.000Z</time>
      </trkpt>
      <trkpt lat="47.21793" lon="6.67987">
        <ele>478.79998779297</ele>
        <time>2023-08-03T08:37:22.000Z</time>
      </trkpt>
      <trkpt lat="47.21811" lon="6.6805">
        <ele>478.79998779297</ele>
        <time>2023-08-03T08:37:29.000Z</time>
      </trkpt>
      <trkpt lat="47.21831" lon="6.68108">
        <ele>477.39999389648</ele>
        <time>2023-08-03T08:37:35.000Z</time>
      </trkpt>
      <trkpt lat="47.21834" lon="6.68116">
        <ele>476.79998779297</ele>
        <time>2023-08-03T08:37:36.000Z</time>
      </trkpt>
      <trkpt lat="47.21846" lon="6.6815">
        <ele>475.79998779297</ele>
        <time>2023-08-03T08:37:39.000Z</time>
      </trkpt>
      <trkpt lat="47.21854" lon="6.68173">
        <ele>475</ele>
        <time>2023-08-03T08:37:41.000Z</time>
      </trkpt>
      <trkpt lat="47.21862" lon="6.68196">
        <ele>474.79998779297</ele>
        <time>2023-08-03T08:37:43.000Z</time>
      </trkpt>
      <trkpt lat="47.21878" lon="6.68243">
        <ele>473.60000610352</ele>
        <time>2023-08-03T08:37:47.000Z</time>
      </trkpt>
      <trkpt lat="47.21885" lon="6.68267">
        <ele>472.39999389648</ele>
        <time>2023-08-03T08:37:49.000Z</time>
      </trkpt>
      <trkpt lat="47.21893" lon="6.68303">
        <ele>471.20001220703</ele>
        <time>2023-08-03T08:37:52.000Z</time>
      </trkpt>
      <trkpt lat="47.21895" lon="6.68318">
        <ele>470.79998779297</ele>
        <time>2023-08-03T08:37:53.000Z</time>
      </trkpt>
      <trkpt lat="47.21897" lon="6.6833">
        <ele>470.39999389648</ele>
        <time>2023-08-03T08:37:54.000Z</time>
      </trkpt>
      <trkpt lat="47.21898" lon="6.68342">
        <ele>470</ele>
        <time>2023-08-03T08:37:55.000Z</time>
      </trkpt>
      <trkpt lat="47.21902" lon="6.68403">
        <ele>468.39999389648</ele>
        <time>2023-08-03T08:38:00.000Z</time>
      </trkpt>
      <trkpt lat="47.21904" lon="6.68449">
        <ele>467.39999389648</ele>
        <time>2023-08-03T08:38:04.000Z</time>
      </trkpt>
      <trkpt lat="47.21906" lon="6.68463">
        <ele>467.20001220703</ele>
        <time>2023-08-03T08:38:05.000Z</time>
      </trkpt>
      <trkpt lat="47.2191" lon="6.68487">
        <ele>466.39999389648</ele>
        <time>2023-08-03T08:38:07.000Z</time>
      </trkpt>
      <trkpt lat="47.21915" lon="6.68523">
        <ele>465.60000610352</ele>
        <time>2023-08-03T08:38:10.000Z</time>
      </trkpt>
      <trkpt lat="47.21915" lon="6.68548">
        <ele>465</ele>
        <time>2023-08-03T08:38:12.000Z</time>
      </trkpt>
      <trkpt lat="47.21909" lon="6.68591">
        <ele>463.60000610352</ele>
        <time>2023-08-03T08:38:16.000Z</time>
      </trkpt>
      <trkpt lat="47.21907" lon="6.68601">
        <ele>463.20001220703</ele>
        <time>2023-08-03T08:38:17.000Z</time>
      </trkpt>
      <trkpt lat="47.21905" lon="6.68611">
        <ele>462.39999389648</ele>
        <time>2023-08-03T08:38:18.000Z</time>
      </trkpt>
      <trkpt lat="47.219" lon="6.6864">
        <ele>461.39999389648</ele>
        <time>2023-08-03T08:38:21.000Z</time>
      </trkpt>
      <trkpt lat="47.21897" lon="6.6866">
        <ele>460.60000610352</ele>
        <time>2023-08-03T08:38:23.000Z</time>
      </trkpt>
      <trkpt lat="47.21896" lon="6.68668">
        <ele>459.79998779297</ele>
        <time>2023-08-03T08:38:24.000Z</time>
      </trkpt>
      <trkpt lat="47.21892" lon="6.687">
        <ele>458.60000610352</ele>
        <time>2023-08-03T08:38:27.000Z</time>
      </trkpt>
      <trkpt lat="47.21891" lon="6.6871">
        <ele>458.39999389648</ele>
        <time>2023-08-03T08:38:28.000Z</time>
      </trkpt>
      <trkpt lat="47.21891" lon="6.6872">
        <ele>458.20001220703</ele>
        <time>2023-08-03T08:38:29.000Z</time>
      </trkpt>
      <trkpt lat="47.2189" lon="6.68739">
        <ele>457.79998779297</ele>
        <time>2023-08-03T08:38:31.000Z</time>
      </trkpt>
      <trkpt lat="47.21892" lon="6.68774">
        <ele>457.20001220703</ele>
        <time>2023-08-03T08:38:35.000Z</time>
      </trkpt>
      <trkpt lat="47.21892" lon="6.68796">
        <ele>457</ele>
        <time>2023-08-03T08:38:38.000Z</time>
      </trkpt>
      <trkpt lat="47.21894" lon="6.68811">
        <ele>456.79998779297</ele>
        <time>2023-08-03T08:38:40.000Z</time>
      </trkpt>
      <trkpt lat="47.21895" lon="6.68827">
        <ele>456.79998779297</ele>
        <time>2023-08-03T08:38:42.000Z</time>
      </trkpt>
      <trkpt lat="47.21901" lon="6.68877">
        <ele>456.79998779297</ele>
        <time>2023-08-03T08:38:48.000Z</time>
      </trkpt>
      <trkpt lat="47.2191" lon="6.68949">
        <ele>456.60000610352</ele>
        <time>2023-08-03T08:38:56.000Z</time>
      </trkpt>
      <trkpt lat="47.21921" lon="6.69028">
        <ele>456</ele>
        <time>2023-08-03T08:39:04.000Z</time>
      </trkpt>
      <trkpt lat="47.21923" lon="6.69038">
        <ele>456</ele>
        <time>2023-08-03T08:39:05.000Z</time>
      </trkpt>
      <trkpt lat="47.2193" lon="6.69089">
        <ele>455.60000610352</ele>
        <time>2023-08-03T08:39:10.000Z</time>
      </trkpt>
      <trkpt lat="47.21933" lon="6.69108">
        <ele>455.39999389648</ele>
        <time>2023-08-03T08:39:12.000Z</time>
      </trkpt>
      <trkpt lat="47.21942" lon="6.69182">
        <ele>455.20001220703</ele>
        <time>2023-08-03T08:39:19.000Z</time>
      </trkpt>
      <trkpt lat="47.21944" lon="6.69201">
        <ele>455</ele>
        <time>2023-08-03T08:39:21.000Z</time>
      </trkpt>
      <trkpt lat="47.21952" lon="6.69262">
        <ele>454.60000610352</ele>
        <time>2023-08-03T08:39:27.000Z</time>
      </trkpt>
      <trkpt lat="47.21963" lon="6.69345">
        <ele>454.79998779297</ele>
        <time>2023-08-03T08:39:35.000Z</time>
      </trkpt>
      <trkpt lat="47.21976" lon="6.69415">
        <ele>455.20001220703</ele>
        <time>2023-08-03T08:39:42.000Z</time>
      </trkpt>
      <trkpt lat="47.21981" lon="6.69434">
        <ele>455.20001220703</ele>
        <time>2023-08-03T08:39:44.000Z</time>
      </trkpt>
      <trkpt lat="47.21987" lon="6.69452">
        <ele>455.20001220703</ele>
        <time>2023-08-03T08:39:46.000Z</time>
      </trkpt>
      <trkpt lat="47.21998" lon="6.69476">
        <ele>455.20001220703</ele>
        <time>2023-08-03T08:39:49.000Z</time>
      </trkpt>
      <trkpt lat="47.22007" lon="6.69489">
        <ele>455.20001220703</ele>
        <time>2023-08-03T08:39:51.000Z</time>
      </trkpt>
      <trkpt lat="47.22015" lon="6.69499">
        <ele>455.20001220703</ele>
        <time>2023-08-03T08:39:53.000Z</time>
      </trkpt>
      <trkpt lat="47.22021" lon="6.69504">
        <ele>455.39999389648</ele>
        <time>2023-08-03T08:39:54.000Z</time>
      </trkpt>
      <trkpt lat="47.22045" lon="6.69522">
        <ele>455.20001220703</ele>
        <time>2023-08-03T08:39:58.000Z</time>
      </trkpt>
      <trkpt lat="47.22055" lon="6.69533">
        <ele>455.20001220703</ele>
        <time>2023-08-03T08:40:00.000Z</time>
      </trkpt>
      <trkpt lat="47.22063" lon="6.69539">
        <ele>455</ele>
        <time>2023-08-03T08:40:01.000Z</time>
      </trkpt>
      <trkpt lat="47.22111" lon="6.69588">
        <ele>454.79998779297</ele>
        <time>2023-08-03T08:40:09.000Z</time>
      </trkpt>
      <trkpt lat="47.22129" lon="6.69611">
        <ele>455.20001220703</ele>
        <time>2023-08-03T08:40:13.000Z</time>
      </trkpt>
      <trkpt lat="47.22155" lon="6.69639">
        <ele>455.39999389648</ele>
        <time>2023-08-03T08:40:18.000Z</time>
      </trkpt>
      <trkpt lat="47.22197" lon="6.69679">
        <ele>455.20001220703</ele>
        <time>2023-08-03T08:40:26.000Z</time>
      </trkpt>
      <trkpt lat="47.22237" lon="6.69702">
        <ele>455.20001220703</ele>
        <time>2023-08-03T08:40:33.000Z</time>
      </trkpt>
      <trkpt lat="47.22255" lon="6.69707">
        <ele>455.20001220703</ele>
        <time>2023-08-03T08:40:36.000Z</time>
      </trkpt>
      <trkpt lat="47.22267" lon="6.69713">
        <ele>455.20001220703</ele>
        <time>2023-08-03T08:40:38.000Z</time>
      </trkpt>
      <trkpt lat="47.22273" lon="6.69717">
        <ele>455.20001220703</ele>
        <time>2023-08-03T08:40:39.000Z</time>
      </trkpt>
      <trkpt lat="47.22306" lon="6.69738">
        <ele>455</ele>
        <time>2023-08-03T08:40:44.000Z</time>
      </trkpt>
      <trkpt lat="47.22322" lon="6.69752">
        <ele>454.79998779297</ele>
        <time>2023-08-03T08:40:47.000Z</time>
      </trkpt>
      <trkpt lat="47.22331" lon="6.69762">
        <ele>454.79998779297</ele>
        <time>2023-08-03T08:40:49.000Z</time>
      </trkpt>
      <trkpt lat="47.22351" lon="6.69789">
        <ele>454.79998779297</ele>
        <time>2023-08-03T08:40:54.000Z</time>
      </trkpt>
      <trkpt lat="47.22356" lon="6.69796">
        <ele>454.79998779297</ele>
        <time>2023-08-03T08:40:55.000Z</time>
      </trkpt>
      <trkpt lat="47.22383" lon="6.69825">
        <ele>455</ele>
        <time>2023-08-03T08:41:00.000Z</time>
      </trkpt>
      <trkpt lat="47.22406" lon="6.69863">
        <ele>454.79998779297</ele>
        <time>2023-08-03T08:41:05.000Z</time>
      </trkpt>
      <trkpt lat="47.2241" lon="6.69881">
        <ele>454.60000610352</ele>
        <time>2023-08-03T08:41:07.000Z</time>
      </trkpt>
      <trkpt lat="47.22411" lon="6.69901">
        <ele>454.60000610352</ele>
        <time>2023-08-03T08:41:09.000Z</time>
      </trkpt>
      <trkpt lat="47.22415" lon="6.69955">
        <ele>454.39999389648</ele>
        <time>2023-08-03T08:41:15.000Z</time>
      </trkpt>
      <trkpt lat="47.22418" lon="6.69963">
        <ele>454.60000610352</ele>
        <time>2023-08-03T08:41:16.000Z</time>
      </trkpt>
      <trkpt lat="47.22421" lon="6.69971">
        <ele>454.60000610352</ele>
        <time>2023-08-03T08:41:17.000Z</time>
      </trkpt>
      <trkpt lat="47.22428" lon="6.69984">
        <ele>454.60000610352</ele>
        <time>2023-08-03T08:41:19.000Z</time>
      </trkpt>
      <trkpt lat="47.22434" lon="6.69992">
        <ele>454.60000610352</ele>
        <time>2023-08-03T08:41:20.000Z</time>
      </trkpt>
      <trkpt lat="47.22472" lon="6.70025">
        <ele>454.79998779297</ele>
        <time>2023-08-03T08:41:27.000Z</time>
      </trkpt>
      <trkpt lat="47.22522" lon="6.70064">
        <ele>454.39999389648</ele>
        <time>2023-08-03T08:41:36.000Z</time>
      </trkpt>
      <trkpt lat="47.22544" lon="6.70081">
        <ele>454.20001220703</ele>
        <time>2023-08-03T08:41:40.000Z</time>
      </trkpt>
      <trkpt lat="47.2255" lon="6.70086">
        <ele>454.20001220703</ele>
        <time>2023-08-03T08:41:41.000Z</time>
      </trkpt>
      <trkpt lat="47.22566" lon="6.70097">
        <ele>454</ele>
        <time>2023-08-03T08:41:44.000Z</time>
      </trkpt>
      <trkpt lat="47.22579" lon="6.70102">
        <ele>454</ele>
        <time>2023-08-03T08:41:46.000Z</time>
      </trkpt>
      <trkpt lat="47.22612" lon="6.701">
        <ele>454.39999389648</ele>
        <time>2023-08-03T08:41:51.000Z</time>
      </trkpt>
      <trkpt lat="47.22618" lon="6.70098">
        <ele>454.20001220703</ele>
        <time>2023-08-03T08:41:52.000Z</time>
      </trkpt>
      <trkpt lat="47.2263" lon="6.7009">
        <ele>454.20001220703</ele>
        <time>2023-08-03T08:41:54.000Z</time>
      </trkpt>
      <trkpt lat="47.22636" lon="6.70084">
        <ele>454.20001220703</ele>
        <time>2023-08-03T08:41:55.000Z</time>
      </trkpt>
      <trkpt lat="47.22643" lon="6.70075">
        <ele>454.20001220703</ele>
        <time>2023-08-03T08:41:56.000Z</time>
      </trkpt>
      <trkpt lat="47.2265" lon="6.7006">
        <ele>454</ele>
        <time>2023-08-03T08:41:58.000Z</time>
      </trkpt>
      <trkpt lat="47.22655" lon="6.70051">
        <ele>453.79998779297</ele>
        <time>2023-08-03T08:41:59.000Z</time>
      </trkpt>
      <trkpt lat="47.22676" lon="6.69995">
        <ele>453.39999389648</ele>
        <time>2023-08-03T08:42:05.000Z</time>
      </trkpt>
      <trkpt lat="47.2268" lon="6.69985">
        <ele>453.20001220703</ele>
        <time>2023-08-03T08:42:06.000Z</time>
      </trkpt>
      <trkpt lat="47.22688" lon="6.69968">
        <ele>453.20001220703</ele>
        <time>2023-08-03T08:42:08.000Z</time>
      </trkpt>
      <trkpt lat="47.22705" lon="6.69943">
        <ele>452.79998779297</ele>
        <time>2023-08-03T08:42:11.000Z</time>
      </trkpt>
      <trkpt lat="47.22723" lon="6.69925">
        <ele>452.20001220703</ele>
        <time>2023-08-03T08:42:14.000Z</time>
      </trkpt>
      <trkpt lat="47.22738" lon="6.69917">
        <ele>451.79998779297</ele>
        <time>2023-08-03T08:42:16.000Z</time>
      </trkpt>
      <trkpt lat="47.22747" lon="6.69915">
        <ele>451.60000610352</ele>
        <time>2023-08-03T08:42:17.000Z</time>
      </trkpt>
      <trkpt lat="47.2276" lon="6.69916">
        <ele>451.20001220703</ele>
        <time>2023-08-03T08:42:19.000Z</time>
      </trkpt>
      <trkpt lat="47.22769" lon="6.69918">
        <ele>451.20001220703</ele>
        <time>2023-08-03T08:42:20.000Z</time>
      </trkpt>
      <trkpt lat="47.22789" lon="6.69927">
        <ele>450.79998779297</ele>
        <time>2023-08-03T08:42:23.000Z</time>
      </trkpt>
      <trkpt lat="47.22822" lon="6.69944">
        <ele>450.60000610352</ele>
        <time>2023-08-03T08:42:28.000Z</time>
      </trkpt>
      <trkpt lat="47.22829" lon="6.69947">
        <ele>450.60000610352</ele>
        <time>2023-08-03T08:42:29.000Z</time>
      </trkpt>
      <trkpt lat="47.22844" lon="6.69949">
        <ele>450.60000610352</ele>
        <time>2023-08-03T08:42:31.000Z</time>
      </trkpt>
      <trkpt lat="47.22851" lon="6.69949">
        <ele>450.60000610352</ele>
        <time>2023-08-03T08:42:32.000Z</time>
      </trkpt>
      <trkpt lat="47.2288" lon="6.69946">
        <ele>450.39999389648</ele>
        <time>2023-08-03T08:42:36.000Z</time>
      </trkpt>
      <trkpt lat="47.22888" lon="6.69946">
        <ele>450.39999389648</ele>
        <time>2023-08-03T08:42:37.000Z</time>
      </trkpt>
      <trkpt lat="47.22897" lon="6.69946">
        <ele>450.20001220703</ele>
        <time>2023-08-03T08:42:38.000Z</time>
      </trkpt>
      <trkpt lat="47.2292" lon="6.69948">
        <ele>449.79998779297</ele>
        <time>2023-08-03T08:42:41.000Z</time>
      </trkpt>
      <trkpt lat="47.22927" lon="6.6995">
        <ele>449.79998779297</ele>
        <time>2023-08-03T08:42:42.000Z</time>
      </trkpt>
      <trkpt lat="47.22934" lon="6.69955">
        <ele>449.60000610352</ele>
        <time>2023-08-03T08:42:43.000Z</time>
      </trkpt>
      <trkpt lat="47.22946" lon="6.69966">
        <ele>449.20001220703</ele>
        <time>2023-08-03T08:42:45.000Z</time>
      </trkpt>
      <trkpt lat="47.22969" lon="6.70002">
        <ele>448</ele>
        <time>2023-08-03T08:42:50.000Z</time>
      </trkpt>
      <trkpt lat="47.22991" lon="6.7003">
        <ele>447.20001220703</ele>
        <time>2023-08-03T08:42:54.000Z</time>
      </trkpt>
      <trkpt lat="47.22995" lon="6.70035">
        <ele>447.20001220703</ele>
        <time>2023-08-03T08:42:55.000Z</time>
      </trkpt>
      <trkpt lat="47.23003" lon="6.70039">
        <ele>447.20001220703</ele>
        <time>2023-08-03T08:42:56.000Z</time>
      </trkpt>
      <trkpt lat="47.23016" lon="6.70043">
        <ele>447</ele>
        <time>2023-08-03T08:42:58.000Z</time>
      </trkpt>
      <trkpt lat="47.23029" lon="6.7004">
        <ele>447</ele>
        <time>2023-08-03T08:43:00.000Z</time>
      </trkpt>
      <trkpt lat="47.23045" lon="6.70032">
        <ele>446.79998779297</ele>
        <time>2023-08-03T08:43:02.000Z</time>
      </trkpt>
      <trkpt lat="47.23052" lon="6.70027">
        <ele>446.79998779297</ele>
        <time>2023-08-03T08:43:03.000Z</time>
      </trkpt>
      <trkpt lat="47.23084" lon="6.70004">
        <ele>446.60000610352</ele>
        <time>2023-08-03T08:43:08.000Z</time>
      </trkpt>
      <trkpt lat="47.2309" lon="6.70001">
        <ele>446.60000610352</ele>
        <time>2023-08-03T08:43:09.000Z</time>
      </trkpt>
      <trkpt lat="47.23106" lon="6.69995">
        <ele>446.60000610352</ele>
        <time>2023-08-03T08:43:11.000Z</time>
      </trkpt>
      <trkpt lat="47.23113" lon="6.69992">
        <ele>446.60000610352</ele>
        <time>2023-08-03T08:43:12.000Z</time>
      </trkpt>
      <trkpt lat="47.23133" lon="6.69984">
        <ele>446.79998779297</ele>
        <time>2023-08-03T08:43:15.000Z</time>
      </trkpt>
      <trkpt lat="47.23148" lon="6.6998">
        <ele>446.60000610352</ele>
        <time>2023-08-03T08:43:17.000Z</time>
      </trkpt>
      <trkpt lat="47.23161" lon="6.69979">
        <ele>446.60000610352</ele>
        <time>2023-08-03T08:43:19.000Z</time>
      </trkpt>
      <trkpt lat="47.23182" lon="6.69981">
        <ele>446.39999389648</ele>
        <time>2023-08-03T08:43:22.000Z</time>
      </trkpt>
      <trkpt lat="47.23217" lon="6.69986">
        <ele>446.20001220703</ele>
        <time>2023-08-03T08:43:28.000Z</time>
      </trkpt>
      <trkpt lat="47.23233" lon="6.69991">
        <ele>446</ele>
        <time>2023-08-03T08:43:31.000Z</time>
      </trkpt>
      <trkpt lat="47.23258" lon="6.69997">
        <ele>446</ele>
        <time>2023-08-03T08:43:35.000Z</time>
      </trkpt>
      <trkpt lat="47.23307" lon="6.69997">
        <ele>445.60000610352</ele>
        <time>2023-08-03T08:43:42.000Z</time>
      </trkpt>
      <trkpt lat="47.23344" lon="6.69993">
        <ele>445</ele>
        <time>2023-08-03T08:43:48.000Z</time>
      </trkpt>
      <trkpt lat="47.23381" lon="6.6999">
        <ele>445</ele>
        <time>2023-08-03T08:43:54.000Z</time>
      </trkpt>
      <trkpt lat="47.23414" lon="6.69985">
        <ele>445.20001220703</ele>
        <time>2023-08-03T08:43:59.000Z</time>
      </trkpt>
      <trkpt lat="47.23433" lon="6.69982">
        <ele>445.20001220703</ele>
        <time>2023-08-03T08:44:02.000Z</time>
      </trkpt>
      <trkpt lat="47.23445" lon="6.69982">
        <ele>445.39999389648</ele>
        <time>2023-08-03T08:44:04.000Z</time>
      </trkpt>
      <trkpt lat="47.23476" lon="6.69977">
        <ele>445.60000610352</ele>
        <time>2023-08-03T08:44:09.000Z</time>
      </trkpt>
      <trkpt lat="47.23483" lon="6.69975">
        <ele>445.79998779297</ele>
        <time>2023-08-03T08:44:10.000Z</time>
      </trkpt>
      <trkpt lat="47.23532" lon="6.69957">
        <ele>446.20001220703</ele>
        <time>2023-08-03T08:44:18.000Z</time>
      </trkpt>
      <trkpt lat="47.23583" lon="6.69923">
        <ele>446.20001220703</ele>
        <time>2023-08-03T08:44:26.000Z</time>
      </trkpt>
      <trkpt lat="47.23588" lon="6.6992">
        <ele>446</ele>
        <time>2023-08-03T08:44:27.000Z</time>
      </trkpt>
      <trkpt lat="47.23631" lon="6.69904">
        <ele>445.39999389648</ele>
        <time>2023-08-03T08:44:33.000Z</time>
      </trkpt>
      <trkpt lat="47.23688" lon="6.69893">
        <ele>444.60000610352</ele>
        <time>2023-08-03T08:44:41.000Z</time>
      </trkpt>
      <trkpt lat="47.23704" lon="6.69891">
        <ele>444.60000610352</ele>
        <time>2023-08-03T08:44:43.000Z</time>
      </trkpt>
      <trkpt lat="47.23732" lon="6.69887">
        <ele>444.39999389648</ele>
        <time>2023-08-03T08:44:47.000Z</time>
      </trkpt>
      <trkpt lat="47.23768" lon="6.69886">
        <ele>444.20001220703</ele>
        <time>2023-08-03T08:44:52.000Z</time>
      </trkpt>
      <trkpt lat="47.23815" lon="6.69889">
        <ele>444.20001220703</ele>
        <time>2023-08-03T08:44:59.000Z</time>
      </trkpt>
      <trkpt lat="47.23853" lon="6.69904">
        <ele>444.20001220703</ele>
        <time>2023-08-03T08:45:05.000Z</time>
      </trkpt>
      <trkpt lat="47.23906" lon="6.6992">
        <ele>444.39999389648</ele>
        <time>2023-08-03T08:45:13.000Z</time>
      </trkpt>
      <trkpt lat="47.23913" lon="6.69921">
        <ele>444.39999389648</ele>
        <time>2023-08-03T08:45:14.000Z</time>
      </trkpt>
      <trkpt lat="47.23966" lon="6.69918">
        <ele>445</ele>
        <time>2023-08-03T08:45:22.000Z</time>
      </trkpt>
      <trkpt lat="47.24009" lon="6.69917">
        <ele>445.39999389648</ele>
        <time>2023-08-03T08:45:28.000Z</time>
      </trkpt>
      <trkpt lat="47.24022" lon="6.69916">
        <ele>445.39999389648</ele>
        <time>2023-08-03T08:45:30.000Z</time>
      </trkpt>
      <trkpt lat="47.24069" lon="6.69903">
        <ele>445.79998779297</ele>
        <time>2023-08-03T08:45:37.000Z</time>
      </trkpt>
      <trkpt lat="47.2411" lon="6.69895">
        <ele>445.79998779297</ele>
        <time>2023-08-03T08:45:43.000Z</time>
      </trkpt>
      <trkpt lat="47.24159" lon="6.6989">
        <ele>445.79998779297</ele>
        <time>2023-08-03T08:45:50.000Z</time>
      </trkpt>
      <trkpt lat="47.24186" lon="6.69882">
        <ele>446</ele>
        <time>2023-08-03T08:45:54.000Z</time>
      </trkpt>
      <trkpt lat="47.24194" lon="6.69879">
        <ele>446</ele>
        <time>2023-08-03T08:45:55.000Z</time>
      </trkpt>
      <trkpt lat="47.24233" lon="6.69857">
        <ele>445.60000610352</ele>
        <time>2023-08-03T08:46:01.000Z</time>
      </trkpt>
      <trkpt lat="47.24283" lon="6.69849">
        <ele>445.39999389648</ele>
        <time>2023-08-03T08:46:08.000Z</time>
      </trkpt>
      <trkpt lat="47.24331" lon="6.69849">
        <ele>445</ele>
        <time>2023-08-03T08:46:15.000Z</time>
      </trkpt>
      <trkpt lat="47.24377" lon="6.69858">
        <ele>445</ele>
        <time>2023-08-03T08:46:22.000Z</time>
      </trkpt>
      <trkpt lat="47.24401" lon="6.69866">
        <ele>445.39999389648</ele>
        <time>2023-08-03T08:46:26.000Z</time>
      </trkpt>
      <trkpt lat="47.24427" lon="6.69876">
        <ele>445.60000610352</ele>
        <time>2023-08-03T08:46:31.000Z</time>
      </trkpt>
      <trkpt lat="47.24472" lon="6.69881">
        <ele>445.39999389648</ele>
        <time>2023-08-03T08:46:38.000Z</time>
      </trkpt>
      <trkpt lat="47.24524" lon="6.69874">
        <ele>444.60000610352</ele>
        <time>2023-08-03T08:46:46.000Z</time>
      </trkpt>
      <trkpt lat="47.24551" lon="6.6987">
        <ele>444</ele>
        <time>2023-08-03T08:46:50.000Z</time>
      </trkpt>
      <trkpt lat="47.24578" lon="6.69868">
        <ele>443.60000610352</ele>
        <time>2023-08-03T08:46:54.000Z</time>
      </trkpt>
      <trkpt lat="47.24611" lon="6.69877">
        <ele>443.20001220703</ele>
        <time>2023-08-03T08:46:59.000Z</time>
      </trkpt>
      <trkpt lat="47.2463" lon="6.69888">
        <ele>443</ele>
        <time>2023-08-03T08:47:02.000Z</time>
      </trkpt>
      <trkpt lat="47.24639" lon="6.69897">
        <ele>443</ele>
        <time>2023-08-03T08:47:04.000Z</time>
      </trkpt>
      <trkpt lat="47.24668" lon="6.69921">
        <ele>443.20001220703</ele>
        <time>2023-08-03T08:47:09.000Z</time>
      </trkpt>
      <trkpt lat="47.24684" lon="6.69938">
        <ele>443.39999389648</ele>
        <time>2023-08-03T08:47:12.000Z</time>
      </trkpt>
      <trkpt lat="47.24698" lon="6.69959">
        <ele>443.39999389648</ele>
        <time>2023-08-03T08:47:15.000Z</time>
      </trkpt>
      <trkpt lat="47.24726" lon="6.70014">
        <ele>443.20001220703</ele>
        <time>2023-08-03T08:47:22.000Z</time>
      </trkpt>
      <trkpt lat="47.24729" lon="6.70022">
        <ele>443.20001220703</ele>
        <time>2023-08-03T08:47:23.000Z</time>
      </trkpt>
      <trkpt lat="47.24738" lon="6.70058">
        <ele>443.20001220703</ele>
        <time>2023-08-03T08:47:27.000Z</time>
      </trkpt>
      <trkpt lat="47.24739" lon="6.70067">
        <ele>443.20001220703</ele>
        <time>2023-08-03T08:47:28.000Z</time>
      </trkpt>
      <trkpt lat="47.24742" lon="6.70115">
        <ele>443.39999389648</ele>
        <time>2023-08-03T08:47:33.000Z</time>
      </trkpt>
      <trkpt lat="47.24742" lon="6.70181">
        <ele>443</ele>
        <time>2023-08-03T08:47:40.000Z</time>
      </trkpt>
      <trkpt lat="47.24742" lon="6.702">
        <ele>443</ele>
        <time>2023-08-03T08:47:42.000Z</time>
      </trkpt>
      <trkpt lat="47.24739" lon="6.70286">
        <ele>442.60000610352</ele>
        <time>2023-08-03T08:47:51.000Z</time>
      </trkpt>
      <trkpt lat="47.24738" lon="6.70332">
        <ele>443</ele>
        <time>2023-08-03T08:47:56.000Z</time>
      </trkpt>
      <trkpt lat="47.24737" lon="6.70351">
        <ele>443</ele>
        <time>2023-08-03T08:47:58.000Z</time>
      </trkpt>
      <trkpt lat="47.24742" lon="6.70419">
        <ele>443.20001220703</ele>
        <time>2023-08-03T08:48:05.000Z</time>
      </trkpt>
      <trkpt lat="47.24745" lon="6.70428">
        <ele>443</ele>
        <time>2023-08-03T08:48:06.000Z</time>
      </trkpt>
      <trkpt lat="47.24751" lon="6.70454">
        <ele>442.79998779297</ele>
        <time>2023-08-03T08:48:09.000Z</time>
      </trkpt>
      <trkpt lat="47.24758" lon="6.70469">
        <ele>442.60000610352</ele>
        <time>2023-08-03T08:48:11.000Z</time>
      </trkpt>
      <trkpt lat="47.24763" lon="6.70475">
        <ele>442.60000610352</ele>
        <time>2023-08-03T08:48:12.000Z</time>
      </trkpt>
      <trkpt lat="47.24768" lon="6.70481">
        <ele>442.39999389648</ele>
        <time>2023-08-03T08:48:13.000Z</time>
      </trkpt>
      <trkpt lat="47.24779" lon="6.7049">
        <ele>442.39999389648</ele>
        <time>2023-08-03T08:48:15.000Z</time>
      </trkpt>
      <trkpt lat="47.24785" lon="6.70493">
        <ele>442.39999389648</ele>
        <time>2023-08-03T08:48:16.000Z</time>
      </trkpt>
      <trkpt lat="47.24798" lon="6.70497">
        <ele>442.39999389648</ele>
        <time>2023-08-03T08:48:18.000Z</time>
      </trkpt>
      <trkpt lat="47.24817" lon="6.70497">
        <ele>442.20001220703</ele>
        <time>2023-08-03T08:48:21.000Z</time>
      </trkpt>
      <trkpt lat="47.2483" lon="6.70494">
        <ele>442.20001220703</ele>
        <time>2023-08-03T08:48:23.000Z</time>
      </trkpt>
      <trkpt lat="47.24843" lon="6.70488">
        <ele>442.20001220703</ele>
        <time>2023-08-03T08:48:25.000Z</time>
      </trkpt>
      <trkpt lat="47.2485" lon="6.70485">
        <ele>442.20001220703</ele>
        <time>2023-08-03T08:48:26.000Z</time>
      </trkpt>
      <trkpt lat="47.24891" lon="6.70454">
        <ele>442.39999389648</ele>
        <time>2023-08-03T08:48:33.000Z</time>
      </trkpt>
      <trkpt lat="47.24929" lon="6.70437">
        <ele>442.39999389648</ele>
        <time>2023-08-03T08:48:39.000Z</time>
      </trkpt>
      <trkpt lat="47.24973" lon="6.7042">
        <ele>442.20001220703</ele>
        <time>2023-08-03T08:48:46.000Z</time>
      </trkpt>
      <trkpt lat="47.24984" lon="6.70416">
        <ele>442</ele>
        <time>2023-08-03T08:48:48.000Z</time>
      </trkpt>
      <trkpt lat="47.25009" lon="6.70413">
        <ele>441.79998779297</ele>
        <time>2023-08-03T08:48:52.000Z</time>
      </trkpt>
      <trkpt lat="47.25015" lon="6.70412">
        <ele>441.79998779297</ele>
        <time>2023-08-03T08:48:53.000Z</time>
      </trkpt>
      <trkpt lat="47.25021" lon="6.70412">
        <ele>441.79998779297</ele>
        <time>2023-08-03T08:48:54.000Z</time>
      </trkpt>
      <trkpt lat="47.25046" lon="6.70411">
        <ele>441.60000610352</ele>
        <time>2023-08-03T08:48:58.000Z</time>
      </trkpt>
      <trkpt lat="47.2509" lon="6.70415">
        <ele>441.60000610352</ele>
        <time>2023-08-03T08:49:05.000Z</time>
      </trkpt>
      <trkpt lat="47.25142" lon="6.70427">
        <ele>441.39999389648</ele>
        <time>2023-08-03T08:49:13.000Z</time>
      </trkpt>
      <trkpt lat="47.25155" lon="6.70431">
        <ele>441.20001220703</ele>
        <time>2023-08-03T08:49:15.000Z</time>
      </trkpt>
      <trkpt lat="47.25165" lon="6.70435">
        <ele>440.79998779297</ele>
        <time>2023-08-03T08:49:17.000Z</time>
      </trkpt>
      <trkpt lat="47.2517" lon="6.70437">
        <ele>440.79998779297</ele>
        <time>2023-08-03T08:49:18.000Z</time>
      </trkpt>
      <trkpt lat="47.2521" lon="6.7046">
        <ele>440.39999389648</ele>
        <time>2023-08-03T08:49:26.000Z</time>
      </trkpt>
      <trkpt lat="47.25242" lon="6.70481">
        <ele>440.60000610352</ele>
        <time>2023-08-03T08:49:32.000Z</time>
      </trkpt>
      <trkpt lat="47.25275" lon="6.70506">
        <ele>440.60000610352</ele>
        <time>2023-08-03T08:49:39.000Z</time>
      </trkpt>
      <trkpt lat="47.2529" lon="6.70519">
        <ele>441</ele>
        <time>2023-08-03T08:49:42.000Z</time>
      </trkpt>
      <trkpt lat="47.25301" lon="6.70527">
        <ele>441</ele>
        <time>2023-08-03T08:49:44.000Z</time>
      </trkpt>
      <trkpt lat="47.25331" lon="6.70557">
        <ele>441</ele>
        <time>2023-08-03T08:49:50.000Z</time>
      </trkpt>
      <trkpt lat="47.25335" lon="6.70561">
        <ele>441</ele>
        <time>2023-08-03T08:49:51.000Z</time>
      </trkpt>
      <trkpt lat="47.25362" lon="6.70594">
        <ele>440.60000610352</ele>
        <time>2023-08-03T08:49:57.000Z</time>
      </trkpt>
      <trkpt lat="47.25366" lon="6.706">
        <ele>440.39999389648</ele>
        <time>2023-08-03T08:49:58.000Z</time>
      </trkpt>
      <trkpt lat="47.25369" lon="6.70606">
        <ele>440.39999389648</ele>
        <time>2023-08-03T08:49:59.000Z</time>
      </trkpt>
      <trkpt lat="47.25375" lon="6.70621">
        <ele>440.20001220703</ele>
        <time>2023-08-03T08:50:01.000Z</time>
      </trkpt>
      <trkpt lat="47.25378" lon="6.70637">
        <ele>440.20001220703</ele>
        <time>2023-08-03T08:50:03.000Z</time>
      </trkpt>
      <trkpt lat="47.25387" lon="6.70688">
        <ele>440.20001220703</ele>
        <time>2023-08-03T08:50:09.000Z</time>
      </trkpt>
      <trkpt lat="47.2541" lon="6.70741">
        <ele>440.60000610352</ele>
        <time>2023-08-03T08:50:16.000Z</time>
      </trkpt>
      <trkpt lat="47.25443" lon="6.70799">
        <ele>440.39999389648</ele>
        <time>2023-08-03T08:50:24.000Z</time>
      </trkpt>
      <trkpt lat="47.25469" lon="6.70849">
        <ele>440</ele>
        <time>2023-08-03T08:50:31.000Z</time>
      </trkpt>
      <trkpt lat="47.25477" lon="6.70862">
        <ele>439.79998779297</ele>
        <time>2023-08-03T08:50:33.000Z</time>
      </trkpt>
      <trkpt lat="47.25496" lon="6.70898">
        <ele>439.79998779297</ele>
        <time>2023-08-03T08:50:38.000Z</time>
      </trkpt>
      <trkpt lat="47.25517" lon="6.70952">
        <ele>439.60000610352</ele>
        <time>2023-08-03T08:50:45.000Z</time>
      </trkpt>
      <trkpt lat="47.25521" lon="6.70969">
        <ele>439.60000610352</ele>
        <time>2023-08-03T08:50:47.000Z</time>
      </trkpt>
      <trkpt lat="47.25523" lon="6.70996">
        <ele>439.60000610352</ele>
        <time>2023-08-03T08:50:50.000Z</time>
      </trkpt>
      <trkpt lat="47.25526" lon="6.71041">
        <ele>439.60000610352</ele>
        <time>2023-08-03T08:50:55.000Z</time>
      </trkpt>
      <trkpt lat="47.25524" lon="6.7106">
        <ele>439.60000610352</ele>
        <time>2023-08-03T08:50:57.000Z</time>
      </trkpt>
      <trkpt lat="47.25518" lon="6.71104">
        <ele>440</ele>
        <time>2023-08-03T08:51:02.000Z</time>
      </trkpt>
      <trkpt lat="47.25513" lon="6.71121">
        <ele>440</ele>
        <time>2023-08-03T08:51:04.000Z</time>
      </trkpt>
      <trkpt lat="47.25492" lon="6.71187">
        <ele>440</ele>
        <time>2023-08-03T08:51:12.000Z</time>
      </trkpt>
      <trkpt lat="47.25488" lon="6.71203">
        <ele>440.20001220703</ele>
        <time>2023-08-03T08:51:14.000Z</time>
      </trkpt>
      <trkpt lat="47.25486" lon="6.71219">
        <ele>440.60000610352</ele>
        <time>2023-08-03T08:51:16.000Z</time>
      </trkpt>
      <trkpt lat="47.25484" lon="6.71227">
        <ele>440.79998779297</ele>
        <time>2023-08-03T08:51:17.000Z</time>
      </trkpt>
      <trkpt lat="47.2548" lon="6.71286">
        <ele>440.60000610352</ele>
        <time>2023-08-03T08:51:24.000Z</time>
      </trkpt>
      <trkpt lat="47.25484" lon="6.71328">
        <ele>440</ele>
        <time>2023-08-03T08:51:29.000Z</time>
      </trkpt>
      <trkpt lat="47.25486" lon="6.71336">
        <ele>440</ele>
        <time>2023-08-03T08:51:30.000Z</time>
      </trkpt>
      <trkpt lat="47.25492" lon="6.71352">
        <ele>439.79998779297</ele>
        <time>2023-08-03T08:51:32.000Z</time>
      </trkpt>
      <trkpt lat="47.25504" lon="6.71372">
        <ele>439.79998779297</ele>
        <time>2023-08-03T08:51:35.000Z</time>
      </trkpt>
      <trkpt lat="47.25517" lon="6.71389">
        <ele>439.79998779297</ele>
        <time>2023-08-03T08:51:38.000Z</time>
      </trkpt>
      <trkpt lat="47.25527" lon="6.71398">
        <ele>439.79998779297</ele>
        <time>2023-08-03T08:51:40.000Z</time>
      </trkpt>
      <trkpt lat="47.2556" lon="6.71411">
        <ele>440</ele>
        <time>2023-08-03T08:51:46.000Z</time>
      </trkpt>
      <trkpt lat="47.25584" lon="6.71412">
        <ele>440</ele>
        <time>2023-08-03T08:51:50.000Z</time>
      </trkpt>
      <trkpt lat="47.25596" lon="6.7141">
        <ele>440</ele>
        <time>2023-08-03T08:51:52.000Z</time>
      </trkpt>
      <trkpt lat="47.25643" lon="6.71399">
        <ele>439.60000610352</ele>
        <time>2023-08-03T08:52:00.000Z</time>
      </trkpt>
      <trkpt lat="47.25699" lon="6.71388">
        <ele>440.39999389648</ele>
        <time>2023-08-03T08:52:09.000Z</time>
      </trkpt>
      <trkpt lat="47.25705" lon="6.71386">
        <ele>440.39999389648</ele>
        <time>2023-08-03T08:52:10.000Z</time>
      </trkpt>
      <trkpt lat="47.25748" lon="6.71379">
        <ele>441.60000610352</ele>
        <time>2023-08-03T08:52:17.000Z</time>
      </trkpt>
      <trkpt lat="47.2576" lon="6.7138">
        <ele>441.79998779297</ele>
        <time>2023-08-03T08:52:19.000Z</time>
      </trkpt>
      <trkpt lat="47.25772" lon="6.71381">
        <ele>442</ele>
        <time>2023-08-03T08:52:21.000Z</time>
      </trkpt>
      <trkpt lat="47.25785" lon="6.71386">
        <ele>442</ele>
        <time>2023-08-03T08:52:23.000Z</time>
      </trkpt>
      <trkpt lat="47.25796" lon="6.71396">
        <ele>442</ele>
        <time>2023-08-03T08:52:25.000Z</time>
      </trkpt>
      <trkpt lat="47.25831" lon="6.71435">
        <ele>441.60000610352</ele>
        <time>2023-08-03T08:52:32.000Z</time>
      </trkpt>
      <trkpt lat="47.25875" lon="6.71492">
        <ele>441</ele>
        <time>2023-08-03T08:52:41.000Z</time>
      </trkpt>
      <trkpt lat="47.2588" lon="6.71499">
        <ele>440.79998779297</ele>
        <time>2023-08-03T08:52:42.000Z</time>
      </trkpt>
      <trkpt lat="47.25903" lon="6.71544">
        <ele>440.60000610352</ele>
        <time>2023-08-03T08:52:48.000Z</time>
      </trkpt>
      <trkpt lat="47.25912" lon="6.71568">
        <ele>440.60000610352</ele>
        <time>2023-08-03T08:52:51.000Z</time>
      </trkpt>
      <trkpt lat="47.2592" lon="6.71592">
        <ele>440.79998779297</ele>
        <time>2023-08-03T08:52:54.000Z</time>
      </trkpt>
      <trkpt lat="47.25939" lon="6.71659">
        <ele>440.60000610352</ele>
        <time>2023-08-03T08:53:02.000Z</time>
      </trkpt>
      <trkpt lat="47.25954" lon="6.7172">
        <ele>440.79998779297</ele>
        <time>2023-08-03T08:53:09.000Z</time>
      </trkpt>
      <trkpt lat="47.25956" lon="6.71729">
        <ele>440.79998779297</ele>
        <time>2023-08-03T08:53:10.000Z</time>
      </trkpt>
      <trkpt lat="47.25968" lon="6.71785">
        <ele>441</ele>
        <time>2023-08-03T08:53:16.000Z</time>
      </trkpt>
      <trkpt lat="47.25987" lon="6.71852">
        <ele>441.20001220703</ele>
        <time>2023-08-03T08:53:23.000Z</time>
      </trkpt>
      <trkpt lat="47.25992" lon="6.7186">
        <ele>441.20001220703</ele>
        <time>2023-08-03T08:53:24.000Z</time>
      </trkpt>
      <trkpt lat="47.25998" lon="6.71865">
        <ele>441</ele>
        <time>2023-08-03T08:53:25.000Z</time>
      </trkpt>
      <trkpt lat="47.26006" lon="6.71868">
        <ele>441</ele>
        <time>2023-08-03T08:53:26.000Z</time>
      </trkpt>
      <trkpt lat="47.2602" lon="6.7187">
        <ele>441</ele>
        <time>2023-08-03T08:53:28.000Z</time>
      </trkpt>
      <trkpt lat="47.26061" lon="6.71862">
        <ele>440.79998779297</ele>
        <time>2023-08-03T08:53:34.000Z</time>
      </trkpt>
      <trkpt lat="47.26114" lon="6.71853">
        <ele>440.39999389648</ele>
        <time>2023-08-03T08:53:42.000Z</time>
      </trkpt>
      <trkpt lat="47.2614" lon="6.71845">
        <ele>440.39999389648</ele>
        <time>2023-08-03T08:53:46.000Z</time>
      </trkpt>
      <trkpt lat="47.26147" lon="6.71841">
        <ele>440.39999389648</ele>
        <time>2023-08-03T08:53:47.000Z</time>
      </trkpt>
      <trkpt lat="47.26162" lon="6.71826">
        <ele>440.39999389648</ele>
        <time>2023-08-03T08:53:50.000Z</time>
      </trkpt>
      <trkpt lat="47.26169" lon="6.71819">
        <ele>440.20001220703</ele>
        <time>2023-08-03T08:53:51.000Z</time>
      </trkpt>
      <trkpt lat="47.26176" lon="6.71814">
        <ele>440.20001220703</ele>
        <time>2023-08-03T08:53:52.000Z</time>
      </trkpt>
      <trkpt lat="47.26182" lon="6.71811">
        <ele>440</ele>
        <time>2023-08-03T08:53:53.000Z</time>
      </trkpt>
      <trkpt lat="47.26203" lon="6.71807">
        <ele>439.60000610352</ele>
        <time>2023-08-03T08:53:56.000Z</time>
      </trkpt>
      <trkpt lat="47.26217" lon="6.71809">
        <ele>439</ele>
        <time>2023-08-03T08:53:58.000Z</time>
      </trkpt>
      <trkpt lat="47.26236" lon="6.71816">
        <ele>438.79998779297</ele>
        <time>2023-08-03T08:54:01.000Z</time>
      </trkpt>
      <trkpt lat="47.26242" lon="6.7182">
        <ele>438.60000610352</ele>
        <time>2023-08-03T08:54:02.000Z</time>
      </trkpt>
      <trkpt lat="47.26266" lon="6.71837">
        <ele>438.20001220703</ele>
        <time>2023-08-03T08:54:06.000Z</time>
      </trkpt>
      <trkpt lat="47.26292" lon="6.71857">
        <ele>437.79998779297</ele>
        <time>2023-08-03T08:54:10.000Z</time>
      </trkpt>
      <trkpt lat="47.26297" lon="6.71864">
        <ele>437.60000610352</ele>
        <time>2023-08-03T08:54:11.000Z</time>
      </trkpt>
      <trkpt lat="47.26322" lon="6.71899">
        <ele>437.20001220703</ele>
        <time>2023-08-03T08:54:16.000Z</time>
      </trkpt>
      <trkpt lat="47.26326" lon="6.71907">
        <ele>437</ele>
        <time>2023-08-03T08:54:17.000Z</time>
      </trkpt>
      <trkpt lat="47.26334" lon="6.71923">
        <ele>436.79998779297</ele>
        <time>2023-08-03T08:54:19.000Z</time>
      </trkpt>
      <trkpt lat="47.2634" lon="6.71948">
        <ele>436.39999389648</ele>
        <time>2023-08-03T08:54:22.000Z</time>
      </trkpt>
      <trkpt lat="47.26345" lon="6.71989">
        <ele>436.60000610352</ele>
        <time>2023-08-03T08:54:27.000Z</time>
      </trkpt>
      <trkpt lat="47.26348" lon="6.72022">
        <ele>437.20001220703</ele>
        <time>2023-08-03T08:54:32.000Z</time>
      </trkpt>
      <trkpt lat="47.26349" lon="6.72041">
        <ele>437.60000610352</ele>
        <time>2023-08-03T08:54:35.000Z</time>
      </trkpt>
      <trkpt lat="47.26347" lon="6.7206">
        <ele>438</ele>
        <time>2023-08-03T08:54:38.000Z</time>
      </trkpt>
      <trkpt lat="47.26341" lon="6.72089">
        <ele>438.60000610352</ele>
        <time>2023-08-03T08:54:43.000Z</time>
      </trkpt>
      <trkpt lat="47.26338" lon="6.72099">
        <ele>439.20001220703</ele>
        <time>2023-08-03T08:54:45.000Z</time>
      </trkpt>
      <trkpt lat="47.2633" lon="6.72127">
        <ele>440.39999389648</ele>
        <time>2023-08-03T08:54:50.000Z</time>
      </trkpt>
      <trkpt lat="47.26315" lon="6.72156">
        <ele>441</ele>
        <time>2023-08-03T08:54:56.000Z</time>
      </trkpt>
      <trkpt lat="47.26305" lon="6.72168">
        <ele>441.60000610352</ele>
        <time>2023-08-03T08:54:59.000Z</time>
      </trkpt>
      <trkpt lat="47.26302" lon="6.72175">
        <ele>441.79998779297</ele>
        <time>2023-08-03T08:55:00.000Z</time>
      </trkpt>
      <trkpt lat="47.26292" lon="6.722">
        <ele>442.39999389648</ele>
        <time>2023-08-03T08:55:04.000Z</time>
      </trkpt>
      <trkpt lat="47.26291" lon="6.72207">
        <ele>442.60000610352</ele>
        <time>2023-08-03T08:55:05.000Z</time>
      </trkpt>
      <trkpt lat="47.26288" lon="6.72212">
        <ele>442.79998779297</ele>
        <time>2023-08-03T08:55:06.000Z</time>
      </trkpt>
      <trkpt lat="47.26285" lon="6.72224">
        <ele>443.20001220703</ele>
        <time>2023-08-03T08:55:08.000Z</time>
      </trkpt>
      <trkpt lat="47.2628" lon="6.7224">
        <ele>443.60000610352</ele>
        <time>2023-08-03T08:55:11.000Z</time>
      </trkpt>
      <trkpt lat="47.26277" lon="6.72249">
        <ele>444</ele>
        <time>2023-08-03T08:55:13.000Z</time>
      </trkpt>
      <trkpt lat="47.26269" lon="6.72268">
        <ele>444.79998779297</ele>
        <time>2023-08-03T08:55:17.000Z</time>
      </trkpt>
      <trkpt lat="47.26257" lon="6.72296">
        <ele>445.20001220703</ele>
        <time>2023-08-03T08:55:22.000Z</time>
      </trkpt>
      <trkpt lat="47.26244" lon="6.72321">
        <ele>446</ele>
        <time>2023-08-03T08:55:27.000Z</time>
      </trkpt>
      <trkpt lat="47.26241" lon="6.72325">
        <ele>446.20001220703</ele>
        <time>2023-08-03T08:55:28.000Z</time>
      </trkpt>
      <trkpt lat="47.26238" lon="6.72329">
        <ele>446.20001220703</ele>
        <time>2023-08-03T08:55:29.000Z</time>
      </trkpt>
      <trkpt lat="47.26235" lon="6.72333">
        <ele>446.39999389648</ele>
        <time>2023-08-03T08:55:30.000Z</time>
      </trkpt>
      <trkpt lat="47.26221" lon="6.72344">
        <ele>447.20001220703</ele>
        <time>2023-08-03T08:55:34.000Z</time>
      </trkpt>
      <trkpt lat="47.26203" lon="6.72355">
        <ele>448.39999389648</ele>
        <time>2023-08-03T08:55:39.000Z</time>
      </trkpt>
      <trkpt lat="47.26196" lon="6.72359">
        <ele>449</ele>
        <time>2023-08-03T08:55:41.000Z</time>
      </trkpt>
      <trkpt lat="47.26187" lon="6.72364">
        <ele>449.60000610352</ele>
        <time>2023-08-03T08:55:44.000Z</time>
      </trkpt>
      <trkpt lat="47.26179" lon="6.7237">
        <ele>450.39999389648</ele>
        <time>2023-08-03T08:55:47.000Z</time>
      </trkpt>
      <trkpt lat="47.26174" lon="6.72376">
        <ele>450.79998779297</ele>
        <time>2023-08-03T08:55:50.000Z</time>
      </trkpt>
      <trkpt lat="47.26172" lon="6.72377">
        <ele>450.79998779297</ele>
        <time>2023-08-03T08:55:51.000Z</time>
      </trkpt>
      <trkpt lat="47.26171" lon="6.72378">
        <ele>451</ele>
        <time>2023-08-03T08:55:52.000Z</time>
      </trkpt>
      <trkpt lat="47.26171" lon="6.72378">
        <ele>451</ele>
        <time>2023-08-03T08:55:55.000Z</time>
      </trkpt>
      <trkpt lat="47.2617" lon="6.72378">
        <ele>452</ele>
        <time>2023-08-03T09:15:50.000Z</time>
      </trkpt>
      <trkpt lat="47.26164" lon="6.72381">
        <ele>452</ele>
        <time>2023-08-03T09:15:52.000Z</time>
      </trkpt>
      <trkpt lat="47.26151" lon="6.72384">
        <ele>451.60000610352</ele>
        <time>2023-08-03T09:15:55.000Z</time>
      </trkpt>
      <trkpt lat="47.26143" lon="6.72388">
        <ele>451.20001220703</ele>
        <time>2023-08-03T09:15:57.000Z</time>
      </trkpt>
      <trkpt lat="47.26131" lon="6.72393">
        <ele>450.79998779297</ele>
        <time>2023-08-03T09:15:59.000Z</time>
      </trkpt>
      <trkpt lat="47.2612" lon="6.72401">
        <ele>450.39999389648</ele>
        <time>2023-08-03T09:16:01.000Z</time>
      </trkpt>
      <trkpt lat="47.26111" lon="6.72414">
        <ele>450</ele>
        <time>2023-08-03T09:16:03.000Z</time>
      </trkpt>
      <trkpt lat="47.26106" lon="6.72423">
        <ele>449.79998779297</ele>
        <time>2023-08-03T09:16:04.000Z</time>
      </trkpt>
      <trkpt lat="47.26104" lon="6.72433">
        <ele>449.60000610352</ele>
        <time>2023-08-03T09:16:05.000Z</time>
      </trkpt>
      <trkpt lat="47.26101" lon="6.72458">
        <ele>449</ele>
        <time>2023-08-03T09:16:07.000Z</time>
      </trkpt>
      <trkpt lat="47.26104" lon="6.72479">
        <ele>448.60000610352</ele>
        <time>2023-08-03T09:16:09.000Z</time>
      </trkpt>
      <trkpt lat="47.26109" lon="6.72504">
        <ele>448</ele>
        <time>2023-08-03T09:16:11.000Z</time>
      </trkpt>
      <trkpt lat="47.26112" lon="6.72517">
        <ele>447.60000610352</ele>
        <time>2023-08-03T09:16:12.000Z</time>
      </trkpt>
      <trkpt lat="47.26115" lon="6.72545">
        <ele>446.39999389648</ele>
        <time>2023-08-03T09:16:14.000Z</time>
      </trkpt>
      <trkpt lat="47.26114" lon="6.72558">
        <ele>446.20001220703</ele>
        <time>2023-08-03T09:16:15.000Z</time>
      </trkpt>
      <trkpt lat="47.26113" lon="6.72571">
        <ele>445.39999389648</ele>
        <time>2023-08-03T09:16:16.000Z</time>
      </trkpt>
      <trkpt lat="47.2611" lon="6.72598">
        <ele>444.39999389648</ele>
        <time>2023-08-03T09:16:18.000Z</time>
      </trkpt>
      <trkpt lat="47.26109" lon="6.72612">
        <ele>444</ele>
        <time>2023-08-03T09:16:19.000Z</time>
      </trkpt>
      <trkpt lat="47.2611" lon="6.72625">
        <ele>443.60000610352</ele>
        <time>2023-08-03T09:16:20.000Z</time>
      </trkpt>
      <trkpt lat="47.26112" lon="6.72638">
        <ele>443</ele>
        <time>2023-08-03T09:16:21.000Z</time>
      </trkpt>
      <trkpt lat="47.26122" lon="6.72674">
        <ele>441.79998779297</ele>
        <time>2023-08-03T09:16:24.000Z</time>
      </trkpt>
      <trkpt lat="47.26124" lon="6.72696">
        <ele>441</ele>
        <time>2023-08-03T09:16:26.000Z</time>
      </trkpt>
      <trkpt lat="47.26123" lon="6.72706">
        <ele>440.79998779297</ele>
        <time>2023-08-03T09:16:27.000Z</time>
      </trkpt>
      <trkpt lat="47.26123" lon="6.72716">
        <ele>440.20001220703</ele>
        <time>2023-08-03T09:16:28.000Z</time>
      </trkpt>
      <trkpt lat="47.26126" lon="6.72746">
        <ele>439.20001220703</ele>
        <time>2023-08-03T09:16:31.000Z</time>
      </trkpt>
      <trkpt lat="47.2613" lon="6.7279">
        <ele>438</ele>
        <time>2023-08-03T09:16:35.000Z</time>
      </trkpt>
      <trkpt lat="47.2613" lon="6.72799">
        <ele>437.79998779297</ele>
        <time>2023-08-03T09:16:36.000Z</time>
      </trkpt>
      <trkpt lat="47.26133" lon="6.72833">
        <ele>436.60000610352</ele>
        <time>2023-08-03T09:16:39.000Z</time>
      </trkpt>
      <trkpt lat="47.26133" lon="6.72853">
        <ele>436</ele>
        <time>2023-08-03T09:16:41.000Z</time>
      </trkpt>
      <trkpt lat="47.26131" lon="6.72865">
        <ele>435.60000610352</ele>
        <time>2023-08-03T09:16:42.000Z</time>
      </trkpt>
      <trkpt lat="47.2613" lon="6.72879">
        <ele>435.39999389648</ele>
        <time>2023-08-03T09:16:43.000Z</time>
      </trkpt>
      <trkpt lat="47.26126" lon="6.72917">
        <ele>434.20001220703</ele>
        <time>2023-08-03T09:16:46.000Z</time>
      </trkpt>
      <trkpt lat="47.26125" lon="6.72927">
        <ele>433.79998779297</ele>
        <time>2023-08-03T09:16:47.000Z</time>
      </trkpt>
      <trkpt lat="47.2612" lon="6.72943">
        <ele>433.60000610352</ele>
        <time>2023-08-03T09:16:48.000Z</time>
      </trkpt>
      <trkpt lat="47.26116" lon="6.72952">
        <ele>433.20001220703</ele>
        <time>2023-08-03T09:16:49.000Z</time>
      </trkpt>
      <trkpt lat="47.26111" lon="6.72965">
        <ele>433</ele>
        <time>2023-08-03T09:16:50.000Z</time>
      </trkpt>
      <trkpt lat="47.26097" lon="6.72992">
        <ele>432.20001220703</ele>
        <time>2023-08-03T09:16:53.000Z</time>
      </trkpt>
      <trkpt lat="47.26086" lon="6.7301">
        <ele>432</ele>
        <time>2023-08-03T09:16:55.000Z</time>
      </trkpt>
      <trkpt lat="47.26078" lon="6.73028">
        <ele>431.79998779297</ele>
        <time>2023-08-03T09:16:57.000Z</time>
      </trkpt>
      <trkpt lat="47.26067" lon="6.73044">
        <ele>431.60000610352</ele>
        <time>2023-08-03T09:16:59.000Z</time>
      </trkpt>
      <trkpt lat="47.26036" lon="6.73093">
        <ele>431</ele>
        <time>2023-08-03T09:17:05.000Z</time>
      </trkpt>
      <trkpt lat="47.26028" lon="6.73113">
        <ele>431</ele>
        <time>2023-08-03T09:17:07.000Z</time>
      </trkpt>
      <trkpt lat="47.26017" lon="6.73156">
        <ele>430.60000610352</ele>
        <time>2023-08-03T09:17:11.000Z</time>
      </trkpt>
      <trkpt lat="47.2601" lon="6.73214">
        <ele>430.60000610352</ele>
        <time>2023-08-03T09:17:16.000Z</time>
      </trkpt>
      <trkpt lat="47.26014" lon="6.73248">
        <ele>430.60000610352</ele>
        <time>2023-08-03T09:17:19.000Z</time>
      </trkpt>
      <trkpt lat="47.26019" lon="6.73271">
        <ele>430.60000610352</ele>
        <time>2023-08-03T09:17:21.000Z</time>
      </trkpt>
      <trkpt lat="47.26035" lon="6.73336">
        <ele>430.79998779297</ele>
        <time>2023-08-03T09:17:27.000Z</time>
      </trkpt>
      <trkpt lat="47.26048" lon="6.73381">
        <ele>431</ele>
        <time>2023-08-03T09:17:33.000Z</time>
      </trkpt>
      <trkpt lat="47.26052" lon="6.73392">
        <ele>431.60000610352</ele>
        <time>2023-08-03T09:17:37.000Z</time>
      </trkpt>
      <trkpt lat="47.26056" lon="6.73398">
        <ele>431.79998779297</ele>
        <time>2023-08-03T09:17:40.000Z</time>
      </trkpt>
      <trkpt lat="47.26058" lon="6.73401">
        <ele>431.60000610352</ele>
        <time>2023-08-03T09:17:42.000Z</time>
      </trkpt>
      <trkpt lat="47.26068" lon="6.73419">
        <ele>431.60000610352</ele>
        <time>2023-08-03T09:17:47.000Z</time>
      </trkpt>
      <trkpt lat="47.26083" lon="6.73446">
        <ele>431.39999389648</ele>
        <time>2023-08-03T09:17:52.000Z</time>
      </trkpt>
      <trkpt lat="47.26112" lon="6.73476">
        <ele>431</ele>
        <time>2023-08-03T09:17:58.000Z</time>
      </trkpt>
      <trkpt lat="47.26136" lon="6.73489">
        <ele>430.60000610352</ele>
        <time>2023-08-03T09:18:02.000Z</time>
      </trkpt>
      <trkpt lat="47.26148" lon="6.73494">
        <ele>430.60000610352</ele>
        <time>2023-08-03T09:18:04.000Z</time>
      </trkpt>
      <trkpt lat="47.26167" lon="6.73496">
        <ele>430.60000610352</ele>
        <time>2023-08-03T09:18:07.000Z</time>
      </trkpt>
      <trkpt lat="47.26188" lon="6.73495">
        <ele>430.60000610352</ele>
        <time>2023-08-03T09:18:10.000Z</time>
      </trkpt>
      <trkpt lat="47.26244" lon="6.73481">
        <ele>430</ele>
        <time>2023-08-03T09:18:19.000Z</time>
      </trkpt>
      <trkpt lat="47.26291" lon="6.73465">
        <ele>429.79998779297</ele>
        <time>2023-08-03T09:18:26.000Z</time>
      </trkpt>
      <trkpt lat="47.26319" lon="6.7346">
        <ele>429.60000610352</ele>
        <time>2023-08-03T09:18:30.000Z</time>
      </trkpt>
      <trkpt lat="47.2634" lon="6.7346">
        <ele>429.39999389648</ele>
        <time>2023-08-03T09:18:33.000Z</time>
      </trkpt>
      <trkpt lat="47.26374" lon="6.7347">
        <ele>429</ele>
        <time>2023-08-03T09:18:38.000Z</time>
      </trkpt>
      <trkpt lat="47.26387" lon="6.73476">
        <ele>428.79998779297</ele>
        <time>2023-08-03T09:18:40.000Z</time>
      </trkpt>
      <trkpt lat="47.264" lon="6.73484">
        <ele>428.60000610352</ele>
        <time>2023-08-03T09:18:42.000Z</time>
      </trkpt>
      <trkpt lat="47.26407" lon="6.73489">
        <ele>428.60000610352</ele>
        <time>2023-08-03T09:18:43.000Z</time>
      </trkpt>
      <trkpt lat="47.2643" lon="6.73514">
        <ele>428.60000610352</ele>
        <time>2023-08-03T09:18:47.000Z</time>
      </trkpt>
      <trkpt lat="47.26441" lon="6.73529">
        <ele>428.39999389648</ele>
        <time>2023-08-03T09:18:49.000Z</time>
      </trkpt>
      <trkpt lat="47.26445" lon="6.73537">
        <ele>428.39999389648</ele>
        <time>2023-08-03T09:18:50.000Z</time>
      </trkpt>
      <trkpt lat="47.26451" lon="6.73555">
        <ele>428.20001220703</ele>
        <time>2023-08-03T09:18:52.000Z</time>
      </trkpt>
      <trkpt lat="47.26453" lon="6.73564">
        <ele>428.20001220703</ele>
        <time>2023-08-03T09:18:53.000Z</time>
      </trkpt>
      <trkpt lat="47.26455" lon="6.73573">
        <ele>428.20001220703</ele>
        <time>2023-08-03T09:18:54.000Z</time>
      </trkpt>
      <trkpt lat="47.26456" lon="6.73612">
        <ele>428.20001220703</ele>
        <time>2023-08-03T09:18:58.000Z</time>
      </trkpt>
      <trkpt lat="47.26448" lon="6.73657">
        <ele>428</ele>
        <time>2023-08-03T09:19:03.000Z</time>
      </trkpt>
      <trkpt lat="47.26436" lon="6.7369">
        <ele>428</ele>
        <time>2023-08-03T09:19:07.000Z</time>
      </trkpt>
      <trkpt lat="47.26432" lon="6.73697">
        <ele>428</ele>
        <time>2023-08-03T09:19:08.000Z</time>
      </trkpt>
      <trkpt lat="47.26407" lon="6.73747">
        <ele>427.79998779297</ele>
        <time>2023-08-03T09:19:15.000Z</time>
      </trkpt>
      <trkpt lat="47.264" lon="6.73763">
        <ele>427.79998779297</ele>
        <time>2023-08-03T09:19:17.000Z</time>
      </trkpt>
      <trkpt lat="47.26393" lon="6.73777">
        <ele>427.79998779297</ele>
        <time>2023-08-03T09:19:19.000Z</time>
      </trkpt>
      <trkpt lat="47.26386" lon="6.73792">
        <ele>427.79998779297</ele>
        <time>2023-08-03T09:19:21.000Z</time>
      </trkpt>
      <trkpt lat="47.26385" lon="6.73802">
        <ele>427.79998779297</ele>
        <time>2023-08-03T09:19:22.000Z</time>
      </trkpt>
      <trkpt lat="47.26381" lon="6.73831">
        <ele>427.60000610352</ele>
        <time>2023-08-03T09:19:25.000Z</time>
      </trkpt>
      <trkpt lat="47.26381" lon="6.73851">
        <ele>427.60000610352</ele>
        <time>2023-08-03T09:19:27.000Z</time>
      </trkpt>
      <trkpt lat="47.26385" lon="6.73881">
        <ele>427.60000610352</ele>
        <time>2023-08-03T09:19:30.000Z</time>
      </trkpt>
      <trkpt lat="47.26388" lon="6.73891">
        <ele>427.60000610352</ele>
        <time>2023-08-03T09:19:31.000Z</time>
      </trkpt>
      <trkpt lat="47.26398" lon="6.73917">
        <ele>427.60000610352</ele>
        <time>2023-08-03T09:19:34.000Z</time>
      </trkpt>
      <trkpt lat="47.26403" lon="6.73925">
        <ele>427.60000610352</ele>
        <time>2023-08-03T09:19:35.000Z</time>
      </trkpt>
      <trkpt lat="47.26413" lon="6.73938">
        <ele>427.79998779297</ele>
        <time>2023-08-03T09:19:37.000Z</time>
      </trkpt>
      <trkpt lat="47.26425" lon="6.73948">
        <ele>427.79998779297</ele>
        <time>2023-08-03T09:19:39.000Z</time>
      </trkpt>
      <trkpt lat="47.26431" lon="6.73952">
        <ele>427.60000610352</ele>
        <time>2023-08-03T09:19:40.000Z</time>
      </trkpt>
      <trkpt lat="47.26463" lon="6.73971">
        <ele>427.60000610352</ele>
        <time>2023-08-03T09:19:45.000Z</time>
      </trkpt>
      <trkpt lat="47.26498" lon="6.74002">
        <ele>427.60000610352</ele>
        <time>2023-08-03T09:19:51.000Z</time>
      </trkpt>
      <trkpt lat="47.26514" lon="6.7402">
        <ele>427.60000610352</ele>
        <time>2023-08-03T09:19:54.000Z</time>
      </trkpt>
      <trkpt lat="47.26534" lon="6.74046">
        <ele>427.60000610352</ele>
        <time>2023-08-03T09:19:58.000Z</time>
      </trkpt>
      <trkpt lat="47.26557" lon="6.74094">
        <ele>427.39999389648</ele>
        <time>2023-08-03T09:20:04.000Z</time>
      </trkpt>
      <trkpt lat="47.26578" lon="6.74156">
        <ele>427.20001220703</ele>
        <time>2023-08-03T09:20:11.000Z</time>
      </trkpt>
      <trkpt lat="47.26582" lon="6.74175">
        <ele>427.20001220703</ele>
        <time>2023-08-03T09:20:13.000Z</time>
      </trkpt>
      <trkpt lat="47.26591" lon="6.74222">
        <ele>427.20001220703</ele>
        <time>2023-08-03T09:20:18.000Z</time>
      </trkpt>
      <trkpt lat="47.26594" lon="6.74291">
        <ele>427.20001220703</ele>
        <time>2023-08-03T09:20:25.000Z</time>
      </trkpt>
      <trkpt lat="47.26588" lon="6.74348">
        <ele>427</ele>
        <time>2023-08-03T09:20:31.000Z</time>
      </trkpt>
      <trkpt lat="47.26578" lon="6.74405">
        <ele>427.20001220703</ele>
        <time>2023-08-03T09:20:37.000Z</time>
      </trkpt>
      <trkpt lat="47.26573" lon="6.74433">
        <ele>427.20001220703</ele>
        <time>2023-08-03T09:20:40.000Z</time>
      </trkpt>
      <trkpt lat="47.26566" lon="6.74486">
        <ele>427.20001220703</ele>
        <time>2023-08-03T09:20:46.000Z</time>
      </trkpt>
      <trkpt lat="47.26565" lon="6.74495">
        <ele>427.20001220703</ele>
        <time>2023-08-03T09:20:47.000Z</time>
      </trkpt>
      <trkpt lat="47.26568" lon="6.74515">
        <ele>427.20001220703</ele>
        <time>2023-08-03T09:20:49.000Z</time>
      </trkpt>
      <trkpt lat="47.2657" lon="6.74525">
        <ele>427.20001220703</ele>
        <time>2023-08-03T09:20:50.000Z</time>
      </trkpt>
      <trkpt lat="47.26575" lon="6.74545">
        <ele>427</ele>
        <time>2023-08-03T09:20:52.000Z</time>
      </trkpt>
      <trkpt lat="47.26583" lon="6.74565">
        <ele>426.79998779297</ele>
        <time>2023-08-03T09:20:54.000Z</time>
      </trkpt>
      <trkpt lat="47.26595" lon="6.7458">
        <ele>426.39999389648</ele>
        <time>2023-08-03T09:20:56.000Z</time>
      </trkpt>
      <trkpt lat="47.26603" lon="6.74585">
        <ele>426.39999389648</ele>
        <time>2023-08-03T09:20:57.000Z</time>
      </trkpt>
      <trkpt lat="47.26611" lon="6.74588">
        <ele>426</ele>
        <time>2023-08-03T09:20:58.000Z</time>
      </trkpt>
      <trkpt lat="47.26632" lon="6.74591">
        <ele>425.39999389648</ele>
        <time>2023-08-03T09:21:01.000Z</time>
      </trkpt>
      <trkpt lat="47.26655" lon="6.74596">
        <ele>424.79998779297</ele>
        <time>2023-08-03T09:21:04.000Z</time>
      </trkpt>
      <trkpt lat="47.26672" lon="6.74598">
        <ele>424.60000610352</ele>
        <time>2023-08-03T09:21:06.000Z</time>
      </trkpt>
      <trkpt lat="47.2668" lon="6.74598">
        <ele>424.39999389648</ele>
        <time>2023-08-03T09:21:07.000Z</time>
      </trkpt>
      <trkpt lat="47.26728" lon="6.74595">
        <ele>424</ele>
        <time>2023-08-03T09:21:13.000Z</time>
      </trkpt>
      <trkpt lat="47.26781" lon="6.74587">
        <ele>424</ele>
        <time>2023-08-03T09:21:20.000Z</time>
      </trkpt>
      <trkpt lat="47.26817" lon="6.74583">
        <ele>424.20001220703</ele>
        <time>2023-08-03T09:21:25.000Z</time>
      </trkpt>
      <trkpt lat="47.26853" lon="6.74579">
        <ele>424.20001220703</ele>
        <time>2023-08-03T09:21:30.000Z</time>
      </trkpt>
      <trkpt lat="47.26904" lon="6.74575">
        <ele>424</ele>
        <time>2023-08-03T09:21:37.000Z</time>
      </trkpt>
      <trkpt lat="47.26948" lon="6.74587">
        <ele>424.20001220703</ele>
        <time>2023-08-03T09:21:43.000Z</time>
      </trkpt>
      <trkpt lat="47.26987" lon="6.74616">
        <ele>424</ele>
        <time>2023-08-03T09:21:49.000Z</time>
      </trkpt>
      <trkpt lat="47.27037" lon="6.74668">
        <ele>423.39999389648</ele>
        <time>2023-08-03T09:21:57.000Z</time>
      </trkpt>
      <trkpt lat="47.27074" lon="6.7472">
        <ele>423.39999389648</ele>
        <time>2023-08-03T09:22:04.000Z</time>
      </trkpt>
      <trkpt lat="47.27084" lon="6.74738">
        <ele>423.39999389648</ele>
        <time>2023-08-03T09:22:06.000Z</time>
      </trkpt>
      <trkpt lat="47.27108" lon="6.74789">
        <ele>423.39999389648</ele>
        <time>2023-08-03T09:22:12.000Z</time>
      </trkpt>
      <trkpt lat="47.27132" lon="6.74864">
        <ele>423.20001220703</ele>
        <time>2023-08-03T09:22:20.000Z</time>
      </trkpt>
      <trkpt lat="47.27135" lon="6.74873">
        <ele>423.20001220703</ele>
        <time>2023-08-03T09:22:21.000Z</time>
      </trkpt>
      <trkpt lat="47.27159" lon="6.74948">
        <ele>422.79998779297</ele>
        <time>2023-08-03T09:22:29.000Z</time>
      </trkpt>
      <trkpt lat="47.27162" lon="6.74957">
        <ele>422.79998779297</ele>
        <time>2023-08-03T09:22:30.000Z</time>
      </trkpt>
      <trkpt lat="47.27185" lon="6.75029">
        <ele>422.79998779297</ele>
        <time>2023-08-03T09:22:38.000Z</time>
      </trkpt>
      <trkpt lat="47.27214" lon="6.75093">
        <ele>423.20001220703</ele>
        <time>2023-08-03T09:22:46.000Z</time>
      </trkpt>
      <trkpt lat="47.27224" lon="6.75115">
        <ele>423.39999389648</ele>
        <time>2023-08-03T09:22:49.000Z</time>
      </trkpt>
      <trkpt lat="47.27244" lon="6.7516">
        <ele>423.60000610352</ele>
        <time>2023-08-03T09:22:55.000Z</time>
      </trkpt>
      <trkpt lat="47.27247" lon="6.75168">
        <ele>423.79998779297</ele>
        <time>2023-08-03T09:22:56.000Z</time>
      </trkpt>
      <trkpt lat="47.27256" lon="6.75203">
        <ele>423.79998779297</ele>
        <time>2023-08-03T09:23:00.000Z</time>
      </trkpt>
      <trkpt lat="47.27264" lon="6.75271">
        <ele>423.79998779297</ele>
        <time>2023-08-03T09:23:07.000Z</time>
      </trkpt>
      <trkpt lat="47.2726" lon="6.75342">
        <ele>423.20001220703</ele>
        <time>2023-08-03T09:23:14.000Z</time>
      </trkpt>
      <trkpt lat="47.27258" lon="6.75364">
        <ele>422.79998779297</ele>
        <time>2023-08-03T09:23:16.000Z</time>
      </trkpt>
      <trkpt lat="47.27254" lon="6.75384">
        <ele>422.60000610352</ele>
        <time>2023-08-03T09:23:18.000Z</time>
      </trkpt>
      <trkpt lat="47.27252" lon="6.75395">
        <ele>422.60000610352</ele>
        <time>2023-08-03T09:23:19.000Z</time>
      </trkpt>
      <trkpt lat="47.27251" lon="6.75406">
        <ele>422.39999389648</ele>
        <time>2023-08-03T09:23:20.000Z</time>
      </trkpt>
      <trkpt lat="47.27239" lon="6.75493">
        <ele>421.39999389648</ele>
        <time>2023-08-03T09:23:28.000Z</time>
      </trkpt>
      <trkpt lat="47.27233" lon="6.75536">
        <ele>421.20001220703</ele>
        <time>2023-08-03T09:23:32.000Z</time>
      </trkpt>
      <trkpt lat="47.27228" lon="6.75577">
        <ele>421</ele>
        <time>2023-08-03T09:23:36.000Z</time>
      </trkpt>
      <trkpt lat="47.27228" lon="6.75587">
        <ele>421</ele>
        <time>2023-08-03T09:23:37.000Z</time>
      </trkpt>
      <trkpt lat="47.27229" lon="6.75618">
        <ele>421.20001220703</ele>
        <time>2023-08-03T09:23:40.000Z</time>
      </trkpt>
      <trkpt lat="47.27231" lon="6.75628">
        <ele>421.20001220703</ele>
        <time>2023-08-03T09:23:41.000Z</time>
      </trkpt>
      <trkpt lat="47.27236" lon="6.75647">
        <ele>421.20001220703</ele>
        <time>2023-08-03T09:23:43.000Z</time>
      </trkpt>
      <trkpt lat="47.27243" lon="6.75664">
        <ele>421.60000610352</ele>
        <time>2023-08-03T09:23:45.000Z</time>
      </trkpt>
      <trkpt lat="47.27262" lon="6.75703">
        <ele>421.79998779297</ele>
        <time>2023-08-03T09:23:50.000Z</time>
      </trkpt>
      <trkpt lat="47.27267" lon="6.75709">
        <ele>422</ele>
        <time>2023-08-03T09:23:51.000Z</time>
      </trkpt>
      <trkpt lat="47.27284" lon="6.75725">
        <ele>422</ele>
        <time>2023-08-03T09:23:54.000Z</time>
      </trkpt>
      <trkpt lat="47.2729" lon="6.7573">
        <ele>422</ele>
        <time>2023-08-03T09:23:55.000Z</time>
      </trkpt>
      <trkpt lat="47.27303" lon="6.7574">
        <ele>422</ele>
        <time>2023-08-03T09:23:57.000Z</time>
      </trkpt>
      <trkpt lat="47.27318" lon="6.75745">
        <ele>422</ele>
        <time>2023-08-03T09:23:59.000Z</time>
      </trkpt>
      <trkpt lat="47.27333" lon="6.75749">
        <ele>421.79998779297</ele>
        <time>2023-08-03T09:24:01.000Z</time>
      </trkpt>
      <trkpt lat="47.27356" lon="6.7575">
        <ele>421.39999389648</ele>
        <time>2023-08-03T09:24:04.000Z</time>
      </trkpt>
      <trkpt lat="47.27364" lon="6.75752">
        <ele>421</ele>
        <time>2023-08-03T09:24:05.000Z</time>
      </trkpt>
      <trkpt lat="47.27407" lon="6.75762">
        <ele>420.79998779297</ele>
        <time>2023-08-03T09:24:11.000Z</time>
      </trkpt>
      <trkpt lat="47.27433" lon="6.75768">
        <ele>421</ele>
        <time>2023-08-03T09:24:15.000Z</time>
      </trkpt>
      <trkpt lat="47.27447" lon="6.7577">
        <ele>421.20001220703</ele>
        <time>2023-08-03T09:24:17.000Z</time>
      </trkpt>
      <trkpt lat="47.27494" lon="6.75773">
        <ele>421.39999389648</ele>
        <time>2023-08-03T09:24:24.000Z</time>
      </trkpt>
      <trkpt lat="47.27536" lon="6.7578">
        <ele>421.20001220703</ele>
        <time>2023-08-03T09:24:30.000Z</time>
      </trkpt>
      <trkpt lat="47.27561" lon="6.75787">
        <ele>421</ele>
        <time>2023-08-03T09:24:34.000Z</time>
      </trkpt>
      <trkpt lat="47.2758" lon="6.75796">
        <ele>421</ele>
        <time>2023-08-03T09:24:37.000Z</time>
      </trkpt>
      <trkpt lat="47.27614" lon="6.75821">
        <ele>420.60000610352</ele>
        <time>2023-08-03T09:24:42.000Z</time>
      </trkpt>
      <trkpt lat="47.2762" lon="6.75827">
        <ele>420.60000610352</ele>
        <time>2023-08-03T09:24:43.000Z</time>
      </trkpt>
      <trkpt lat="47.27642" lon="6.75854">
        <ele>420.20001220703</ele>
        <time>2023-08-03T09:24:47.000Z</time>
      </trkpt>
      <trkpt lat="47.27668" lon="6.75901">
        <ele>419.79998779297</ele>
        <time>2023-08-03T09:24:53.000Z</time>
      </trkpt>
      <trkpt lat="47.27674" lon="6.75918">
        <ele>419.79998779297</ele>
        <time>2023-08-03T09:24:55.000Z</time>
      </trkpt>
      <trkpt lat="47.2768" lon="6.75936">
        <ele>419.79998779297</ele>
        <time>2023-08-03T09:24:57.000Z</time>
      </trkpt>
      <trkpt lat="47.27688" lon="6.75962">
        <ele>419.60000610352</ele>
        <time>2023-08-03T09:25:00.000Z</time>
      </trkpt>
      <trkpt lat="47.2771" lon="6.76044">
        <ele>419.20001220703</ele>
        <time>2023-08-03T09:25:09.000Z</time>
      </trkpt>
      <trkpt lat="47.27723" lon="6.7612">
        <ele>419</ele>
        <time>2023-08-03T09:25:17.000Z</time>
      </trkpt>
      <trkpt lat="47.27733" lon="6.76181">
        <ele>419.79998779297</ele>
        <time>2023-08-03T09:25:24.000Z</time>
      </trkpt>
      <trkpt lat="47.27736" lon="6.76189">
        <ele>420</ele>
        <time>2023-08-03T09:25:25.000Z</time>
      </trkpt>
      <trkpt lat="47.27743" lon="6.76204">
        <ele>420.20001220703</ele>
        <time>2023-08-03T09:25:27.000Z</time>
      </trkpt>
      <trkpt lat="47.27753" lon="6.76214">
        <ele>420.20001220703</ele>
        <time>2023-08-03T09:25:29.000Z</time>
      </trkpt>
      <trkpt lat="47.27766" lon="6.76216">
        <ele>420.39999389648</ele>
        <time>2023-08-03T09:25:31.000Z</time>
      </trkpt>
      <trkpt lat="47.27772" lon="6.76215">
        <ele>420.39999389648</ele>
        <time>2023-08-03T09:25:32.000Z</time>
      </trkpt>
      <trkpt lat="47.27777" lon="6.76211">
        <ele>420.60000610352</ele>
        <time>2023-08-03T09:25:33.000Z</time>
      </trkpt>
      <trkpt lat="47.27787" lon="6.762">
        <ele>420.60000610352</ele>
        <time>2023-08-03T09:25:35.000Z</time>
      </trkpt>
      <trkpt lat="47.27799" lon="6.76185">
        <ele>420.60000610352</ele>
        <time>2023-08-03T09:25:37.000Z</time>
      </trkpt>
      <trkpt lat="47.27819" lon="6.7616">
        <ele>420.79998779297</ele>
        <time>2023-08-03T09:25:41.000Z</time>
      </trkpt>
      <trkpt lat="47.27869" lon="6.76113">
        <ele>420.79998779297</ele>
        <time>2023-08-03T09:25:49.000Z</time>
      </trkpt>
      <trkpt lat="47.27917" lon="6.76076">
        <ele>420</ele>
        <time>2023-08-03T09:25:56.000Z</time>
      </trkpt>
      <trkpt lat="47.27931" lon="6.76067">
        <ele>420</ele>
        <time>2023-08-03T09:25:58.000Z</time>
      </trkpt>
      <trkpt lat="47.27981" lon="6.76044">
        <ele>419.60000610352</ele>
        <time>2023-08-03T09:26:05.000Z</time>
      </trkpt>
      <trkpt lat="47.28038" lon="6.76029">
        <ele>418.39999389648</ele>
        <time>2023-08-03T09:26:13.000Z</time>
      </trkpt>
      <trkpt lat="47.28045" lon="6.76029">
        <ele>418.39999389648</ele>
        <time>2023-08-03T09:26:14.000Z</time>
      </trkpt>
      <trkpt lat="47.2809" lon="6.76026">
        <ele>418.20001220703</ele>
        <time>2023-08-03T09:26:21.000Z</time>
      </trkpt>
      <trkpt lat="47.28109" lon="6.76025">
        <ele>418.20001220703</ele>
        <time>2023-08-03T09:26:24.000Z</time>
      </trkpt>
      <trkpt lat="47.28154" lon="6.76011">
        <ele>418</ele>
        <time>2023-08-03T09:26:31.000Z</time>
      </trkpt>
      <trkpt lat="47.28161" lon="6.76009">
        <ele>418</ele>
        <time>2023-08-03T09:26:32.000Z</time>
      </trkpt>
      <trkpt lat="47.28185" lon="6.76008">
        <ele>418.39999389648</ele>
        <time>2023-08-03T09:26:36.000Z</time>
      </trkpt>
      <trkpt lat="47.28222" lon="6.76013">
        <ele>418.60000610352</ele>
        <time>2023-08-03T09:26:42.000Z</time>
      </trkpt>
      <trkpt lat="47.28278" lon="6.7603">
        <ele>418.20001220703</ele>
        <time>2023-08-03T09:26:50.000Z</time>
      </trkpt>
      <trkpt lat="47.2833" lon="6.76059">
        <ele>417.60000610352</ele>
        <time>2023-08-03T09:26:58.000Z</time>
      </trkpt>
      <trkpt lat="47.28365" lon="6.7609">
        <ele>417.39999389648</ele>
        <time>2023-08-03T09:27:04.000Z</time>
      </trkpt>
      <trkpt lat="47.2837" lon="6.76097">
        <ele>417.39999389648</ele>
        <time>2023-08-03T09:27:05.000Z</time>
      </trkpt>
      <trkpt lat="47.28375" lon="6.76105">
        <ele>417.20001220703</ele>
        <time>2023-08-03T09:27:06.000Z</time>
      </trkpt>
      <trkpt lat="47.28393" lon="6.76135">
        <ele>417.20001220703</ele>
        <time>2023-08-03T09:27:10.000Z</time>
      </trkpt>
      <trkpt lat="47.2842" lon="6.76195">
        <ele>417.20001220703</ele>
        <time>2023-08-03T09:27:17.000Z</time>
      </trkpt>
      <trkpt lat="47.2843" lon="6.76247">
        <ele>417</ele>
        <time>2023-08-03T09:27:22.000Z</time>
      </trkpt>
      <trkpt lat="47.28431" lon="6.7626">
        <ele>417</ele>
        <time>2023-08-03T09:27:23.000Z</time>
      </trkpt>
      <trkpt lat="47.28428" lon="6.76299">
        <ele>416.79998779297</ele>
        <time>2023-08-03T09:27:27.000Z</time>
      </trkpt>
      <trkpt lat="47.28412" lon="6.76366">
        <ele>416.60000610352</ele>
        <time>2023-08-03T09:27:34.000Z</time>
      </trkpt>
      <trkpt lat="47.28386" lon="6.76435">
        <ele>416.60000610352</ele>
        <time>2023-08-03T09:27:42.000Z</time>
      </trkpt>
      <trkpt lat="47.28357" lon="6.76503">
        <ele>416.60000610352</ele>
        <time>2023-08-03T09:27:50.000Z</time>
      </trkpt>
      <trkpt lat="47.28346" lon="6.7653">
        <ele>416.60000610352</ele>
        <time>2023-08-03T09:27:53.000Z</time>
      </trkpt>
      <trkpt lat="47.28318" lon="6.766">
        <ele>416.39999389648</ele>
        <time>2023-08-03T09:28:01.000Z</time>
      </trkpt>
      <trkpt lat="47.28302" lon="6.7667">
        <ele>416.20001220703</ele>
        <time>2023-08-03T09:28:08.000Z</time>
      </trkpt>
      <trkpt lat="47.28294" lon="6.76751">
        <ele>416.20001220703</ele>
        <time>2023-08-03T09:28:16.000Z</time>
      </trkpt>
      <trkpt lat="47.28293" lon="6.76761">
        <ele>416.20001220703</ele>
        <time>2023-08-03T09:28:17.000Z</time>
      </trkpt>
      <trkpt lat="47.28293" lon="6.76771">
        <ele>416</ele>
        <time>2023-08-03T09:28:18.000Z</time>
      </trkpt>
      <trkpt lat="47.28297" lon="6.76812">
        <ele>416</ele>
        <time>2023-08-03T09:28:22.000Z</time>
      </trkpt>
      <trkpt lat="47.28303" lon="6.76834">
        <ele>416</ele>
        <time>2023-08-03T09:28:24.000Z</time>
      </trkpt>
      <trkpt lat="47.28309" lon="6.76851">
        <ele>416</ele>
        <time>2023-08-03T09:28:26.000Z</time>
      </trkpt>
      <trkpt lat="47.28331" lon="6.76885">
        <ele>416</ele>
        <time>2023-08-03T09:28:31.000Z</time>
      </trkpt>
      <trkpt lat="47.28336" lon="6.7689">
        <ele>415.79998779297</ele>
        <time>2023-08-03T09:28:32.000Z</time>
      </trkpt>
      <trkpt lat="47.28348" lon="6.76899">
        <ele>416</ele>
        <time>2023-08-03T09:28:34.000Z</time>
      </trkpt>
      <trkpt lat="47.28354" lon="6.76902">
        <ele>416</ele>
        <time>2023-08-03T09:28:35.000Z</time>
      </trkpt>
      <trkpt lat="47.28372" lon="6.76908">
        <ele>416.39999389648</ele>
        <time>2023-08-03T09:28:38.000Z</time>
      </trkpt>
      <trkpt lat="47.28386" lon="6.76909">
        <ele>416.60000610352</ele>
        <time>2023-08-03T09:28:40.000Z</time>
      </trkpt>
      <trkpt lat="47.28434" lon="6.76908">
        <ele>416.79998779297</ele>
        <time>2023-08-03T09:28:47.000Z</time>
      </trkpt>
      <trkpt lat="47.28486" lon="6.769">
        <ele>416</ele>
        <time>2023-08-03T09:28:54.000Z</time>
      </trkpt>
      <trkpt lat="47.285" lon="6.76894">
        <ele>415.39999389648</ele>
        <time>2023-08-03T09:28:56.000Z</time>
      </trkpt>
      <trkpt lat="47.28514" lon="6.76884">
        <ele>415</ele>
        <time>2023-08-03T09:28:58.000Z</time>
      </trkpt>
      <trkpt lat="47.28552" lon="6.7685">
        <ele>414.60000610352</ele>
        <time>2023-08-03T09:29:04.000Z</time>
      </trkpt>
      <trkpt lat="47.28585" lon="6.76828">
        <ele>414.20001220703</ele>
        <time>2023-08-03T09:29:09.000Z</time>
      </trkpt>
      <trkpt lat="47.28628" lon="6.76813">
        <ele>414</ele>
        <time>2023-08-03T09:29:15.000Z</time>
      </trkpt>
      <trkpt lat="47.28685" lon="6.76804">
        <ele>414</ele>
        <time>2023-08-03T09:29:23.000Z</time>
      </trkpt>
      <trkpt lat="47.28692" lon="6.76803">
        <ele>414</ele>
        <time>2023-08-03T09:29:24.000Z</time>
      </trkpt>
      <trkpt lat="47.28724" lon="6.76809">
        <ele>414.20001220703</ele>
        <time>2023-08-03T09:29:29.000Z</time>
      </trkpt>
      <trkpt lat="47.28755" lon="6.76821">
        <ele>414.60000610352</ele>
        <time>2023-08-03T09:29:34.000Z</time>
      </trkpt>
      <trkpt lat="47.28761" lon="6.76824">
        <ele>414.79998779297</ele>
        <time>2023-08-03T09:29:35.000Z</time>
      </trkpt>
      <trkpt lat="47.28782" lon="6.76836">
        <ele>414.79998779297</ele>
        <time>2023-08-03T09:29:38.000Z</time>
      </trkpt>
      <trkpt lat="47.28819" lon="6.76864">
        <ele>414.39999389648</ele>
        <time>2023-08-03T09:29:44.000Z</time>
      </trkpt>
      <trkpt lat="47.28858" lon="6.76907">
        <ele>413.79998779297</ele>
        <time>2023-08-03T09:29:51.000Z</time>
      </trkpt>
      <trkpt lat="47.28868" lon="6.76921">
        <ele>413.79998779297</ele>
        <time>2023-08-03T09:29:53.000Z</time>
      </trkpt>
      <trkpt lat="47.28885" lon="6.76951">
        <ele>413.79998779297</ele>
        <time>2023-08-03T09:29:57.000Z</time>
      </trkpt>
      <trkpt lat="47.28896" lon="6.76982">
        <ele>414</ele>
        <time>2023-08-03T09:30:01.000Z</time>
      </trkpt>
      <trkpt lat="47.28902" lon="6.77001">
        <ele>414.20001220703</ele>
        <time>2023-08-03T09:30:03.000Z</time>
      </trkpt>
      <trkpt lat="47.28914" lon="6.77061">
        <ele>414.20001220703</ele>
        <time>2023-08-03T09:30:10.000Z</time>
      </trkpt>
      <trkpt lat="47.28925" lon="6.77126">
        <ele>413.39999389648</ele>
        <time>2023-08-03T09:30:17.000Z</time>
      </trkpt>
      <trkpt lat="47.28931" lon="6.77161">
        <ele>413.20001220703</ele>
        <time>2023-08-03T09:30:21.000Z</time>
      </trkpt>
      <trkpt lat="47.28934" lon="6.7718">
        <ele>413.20001220703</ele>
        <time>2023-08-03T09:30:23.000Z</time>
      </trkpt>
      <trkpt lat="47.28936" lon="6.77207">
        <ele>413.20001220703</ele>
        <time>2023-08-03T09:30:26.000Z</time>
      </trkpt>
      <trkpt lat="47.28938" lon="6.77232">
        <ele>413</ele>
        <time>2023-08-03T09:30:29.000Z</time>
      </trkpt>
      <trkpt lat="47.2894" lon="6.77264">
        <ele>413</ele>
        <time>2023-08-03T09:30:33.000Z</time>
      </trkpt>
      <trkpt lat="47.28941" lon="6.77274">
        <ele>413</ele>
        <time>2023-08-03T09:30:34.000Z</time>
      </trkpt>
      <trkpt lat="47.28947" lon="6.77331">
        <ele>413</ele>
        <time>2023-08-03T09:30:40.000Z</time>
      </trkpt>
      <trkpt lat="47.28957" lon="6.77413">
        <ele>412.60000610352</ele>
        <time>2023-08-03T09:30:49.000Z</time>
      </trkpt>
      <trkpt lat="47.28958" lon="6.77422">
        <ele>412.60000610352</ele>
        <time>2023-08-03T09:30:50.000Z</time>
      </trkpt>
      <trkpt lat="47.28963" lon="6.77458">
        <ele>412.60000610352</ele>
        <time>2023-08-03T09:30:54.000Z</time>
      </trkpt>
      <trkpt lat="47.28964" lon="6.77482">
        <ele>412.60000610352</ele>
        <time>2023-08-03T09:30:57.000Z</time>
      </trkpt>
      <trkpt lat="47.28967" lon="6.77499">
        <ele>412.60000610352</ele>
        <time>2023-08-03T09:30:59.000Z</time>
      </trkpt>
      <trkpt lat="47.28973" lon="6.77521">
        <ele>412.60000610352</ele>
        <time>2023-08-03T09:31:01.000Z</time>
      </trkpt>
      <trkpt lat="47.28976" lon="6.77532">
        <ele>412.60000610352</ele>
        <time>2023-08-03T09:31:02.000Z</time>
      </trkpt>
      <trkpt lat="47.28991" lon="6.77578">
        <ele>412.39999389648</ele>
        <time>2023-08-03T09:31:07.000Z</time>
      </trkpt>
      <trkpt lat="47.29008" lon="6.77613">
        <ele>412.39999389648</ele>
        <time>2023-08-03T09:31:11.000Z</time>
      </trkpt>
      <trkpt lat="47.29013" lon="6.7762">
        <ele>412.20001220703</ele>
        <time>2023-08-03T09:31:12.000Z</time>
      </trkpt>
      <trkpt lat="47.29028" lon="6.77644">
        <ele>412.20001220703</ele>
        <time>2023-08-03T09:31:15.000Z</time>
      </trkpt>
      <trkpt lat="47.29059" lon="6.77699">
        <ele>411.60000610352</ele>
        <time>2023-08-03T09:31:22.000Z</time>
      </trkpt>
      <trkpt lat="47.29083" lon="6.77761">
        <ele>411.20001220703</ele>
        <time>2023-08-03T09:31:29.000Z</time>
      </trkpt>
      <trkpt lat="47.29113" lon="6.77835">
        <ele>410.79998779297</ele>
        <time>2023-08-03T09:31:37.000Z</time>
      </trkpt>
      <trkpt lat="47.29141" lon="6.77908">
        <ele>410.79998779297</ele>
        <time>2023-08-03T09:31:45.000Z</time>
      </trkpt>
      <trkpt lat="47.2917" lon="6.77979">
        <ele>410</ele>
        <time>2023-08-03T09:31:53.000Z</time>
      </trkpt>
      <trkpt lat="47.29181" lon="6.78006">
        <ele>410</ele>
        <time>2023-08-03T09:31:56.000Z</time>
      </trkpt>
      <trkpt lat="47.29206" lon="6.7808">
        <ele>410.39999389648</ele>
        <time>2023-08-03T09:32:04.000Z</time>
      </trkpt>
      <trkpt lat="47.29208" lon="6.7809">
        <ele>410.39999389648</ele>
        <time>2023-08-03T09:32:05.000Z</time>
      </trkpt>
      <trkpt lat="47.29213" lon="6.78118">
        <ele>410.60000610352</ele>
        <time>2023-08-03T09:32:08.000Z</time>
      </trkpt>
      <trkpt lat="47.29215" lon="6.78137">
        <ele>410.60000610352</ele>
        <time>2023-08-03T09:32:10.000Z</time>
      </trkpt>
      <trkpt lat="47.29223" lon="6.78184">
        <ele>410.79998779297</ele>
        <time>2023-08-03T09:32:15.000Z</time>
      </trkpt>
      <trkpt lat="47.29233" lon="6.78261">
        <ele>410.79998779297</ele>
        <time>2023-08-03T09:32:23.000Z</time>
      </trkpt>
      <trkpt lat="47.29234" lon="6.78271">
        <ele>410.79998779297</ele>
        <time>2023-08-03T09:32:24.000Z</time>
      </trkpt>
      <trkpt lat="47.29238" lon="6.7831">
        <ele>411.20001220703</ele>
        <time>2023-08-03T09:32:28.000Z</time>
      </trkpt>
      <trkpt lat="47.2924" lon="6.7832">
        <ele>411.20001220703</ele>
        <time>2023-08-03T09:32:29.000Z</time>
      </trkpt>
      <trkpt lat="47.29251" lon="6.78398">
        <ele>411.60000610352</ele>
        <time>2023-08-03T09:32:37.000Z</time>
      </trkpt>
      <trkpt lat="47.29261" lon="6.78455">
        <ele>412</ele>
        <time>2023-08-03T09:32:43.000Z</time>
      </trkpt>
      <trkpt lat="47.29262" lon="6.78465">
        <ele>412</ele>
        <time>2023-08-03T09:32:44.000Z</time>
      </trkpt>
      <trkpt lat="47.29276" lon="6.78537">
        <ele>412.60000610352</ele>
        <time>2023-08-03T09:32:52.000Z</time>
      </trkpt>
      <trkpt lat="47.29287" lon="6.78576">
        <ele>413</ele>
        <time>2023-08-03T09:32:57.000Z</time>
      </trkpt>
      <trkpt lat="47.2929" lon="6.78583">
        <ele>413</ele>
        <time>2023-08-03T09:32:58.000Z</time>
      </trkpt>
      <trkpt lat="47.29295" lon="6.7859">
        <ele>413</ele>
        <time>2023-08-03T09:32:59.000Z</time>
      </trkpt>
      <trkpt lat="47.29326" lon="6.78623">
        <ele>413.20001220703</ele>
        <time>2023-08-03T09:33:05.000Z</time>
      </trkpt>
      <trkpt lat="47.29364" lon="6.78638">
        <ele>412.60000610352</ele>
        <time>2023-08-03T09:33:11.000Z</time>
      </trkpt>
      <trkpt lat="47.29371" lon="6.78639">
        <ele>412.79998779297</ele>
        <time>2023-08-03T09:33:12.000Z</time>
      </trkpt>
      <trkpt lat="47.29402" lon="6.78641">
        <ele>412.60000610352</ele>
        <time>2023-08-03T09:33:17.000Z</time>
      </trkpt>
      <trkpt lat="47.29457" lon="6.78654">
        <ele>412.20001220703</ele>
        <time>2023-08-03T09:33:25.000Z</time>
      </trkpt>
      <trkpt lat="47.29464" lon="6.78657">
        <ele>412</ele>
        <time>2023-08-03T09:33:26.000Z</time>
      </trkpt>
      <trkpt lat="47.29499" lon="6.78669">
        <ele>411.60000610352</ele>
        <time>2023-08-03T09:33:31.000Z</time>
      </trkpt>
      <trkpt lat="47.2955" lon="6.78695">
        <ele>410.79998779297</ele>
        <time>2023-08-03T09:33:38.000Z</time>
      </trkpt>
      <trkpt lat="47.29556" lon="6.78701">
        <ele>410.60000610352</ele>
        <time>2023-08-03T09:33:39.000Z</time>
      </trkpt>
      <trkpt lat="47.29579" lon="6.78726">
        <ele>410.39999389648</ele>
        <time>2023-08-03T09:33:43.000Z</time>
      </trkpt>
      <trkpt lat="47.29601" lon="6.7875">
        <ele>410.20001220703</ele>
        <time>2023-08-03T09:33:47.000Z</time>
      </trkpt>
      <trkpt lat="47.29606" lon="6.78757">
        <ele>410.20001220703</ele>
        <time>2023-08-03T09:33:48.000Z</time>
      </trkpt>
      <trkpt lat="47.29628" lon="6.78798">
        <ele>410</ele>
        <time>2023-08-03T09:33:53.000Z</time>
      </trkpt>
      <trkpt lat="47.29641" lon="6.78834">
        <ele>409.79998779297</ele>
        <time>2023-08-03T09:33:57.000Z</time>
      </trkpt>
      <trkpt lat="47.29645" lon="6.78854">
        <ele>409.79998779297</ele>
        <time>2023-08-03T09:33:59.000Z</time>
      </trkpt>
      <trkpt lat="47.29657" lon="6.78909">
        <ele>409.79998779297</ele>
        <time>2023-08-03T09:34:05.000Z</time>
      </trkpt>
      <trkpt lat="47.29678" lon="6.78984">
        <ele>409.20001220703</ele>
        <time>2023-08-03T09:34:13.000Z</time>
      </trkpt>
      <trkpt lat="47.29701" lon="6.79042">
        <ele>409</ele>
        <time>2023-08-03T09:34:20.000Z</time>
      </trkpt>
      <trkpt lat="47.29705" lon="6.79049">
        <ele>409</ele>
        <time>2023-08-03T09:34:21.000Z</time>
      </trkpt>
      <trkpt lat="47.2972" lon="6.79068">
        <ele>408.79998779297</ele>
        <time>2023-08-03T09:34:24.000Z</time>
      </trkpt>
      <trkpt lat="47.29725" lon="6.79074">
        <ele>408.79998779297</ele>
        <time>2023-08-03T09:34:25.000Z</time>
      </trkpt>
      <trkpt lat="47.29761" lon="6.79101">
        <ele>408.20001220703</ele>
        <time>2023-08-03T09:34:31.000Z</time>
      </trkpt>
      <trkpt lat="47.29792" lon="6.79111">
        <ele>408.20001220703</ele>
        <time>2023-08-03T09:34:36.000Z</time>
      </trkpt>
      <trkpt lat="47.29831" lon="6.79104">
        <ele>408.39999389648</ele>
        <time>2023-08-03T09:34:42.000Z</time>
      </trkpt>
      <trkpt lat="47.29838" lon="6.79101">
        <ele>408.39999389648</ele>
        <time>2023-08-03T09:34:43.000Z</time>
      </trkpt>
      <trkpt lat="47.29868" lon="6.79083">
        <ele>408.20001220703</ele>
        <time>2023-08-03T09:34:48.000Z</time>
      </trkpt>
      <trkpt lat="47.29894" lon="6.79069">
        <ele>408</ele>
        <time>2023-08-03T09:34:52.000Z</time>
      </trkpt>
      <trkpt lat="47.29912" lon="6.79058">
        <ele>408</ele>
        <time>2023-08-03T09:34:55.000Z</time>
      </trkpt>
      <trkpt lat="47.29953" lon="6.79031">
        <ele>407.79998779297</ele>
        <time>2023-08-03T09:35:02.000Z</time>
      </trkpt>
      <trkpt lat="47.29992" lon="6.79008">
        <ele>407.79998779297</ele>
        <time>2023-08-03T09:35:08.000Z</time>
      </trkpt>
      <trkpt lat="47.30032" lon="6.78998">
        <ele>407.60000610352</ele>
        <time>2023-08-03T09:35:14.000Z</time>
      </trkpt>
      <trkpt lat="47.30078" lon="6.78994">
        <ele>407.60000610352</ele>
        <time>2023-08-03T09:35:21.000Z</time>
      </trkpt>
      <trkpt lat="47.30092" lon="6.78996">
        <ele>407.60000610352</ele>
        <time>2023-08-03T09:35:23.000Z</time>
      </trkpt>
      <trkpt lat="47.30112" lon="6.79004">
        <ele>407.60000610352</ele>
        <time>2023-08-03T09:35:26.000Z</time>
      </trkpt>
      <trkpt lat="47.30145" lon="6.79022">
        <ele>407.60000610352</ele>
        <time>2023-08-03T09:35:31.000Z</time>
      </trkpt>
      <trkpt lat="47.30151" lon="6.79027">
        <ele>407.60000610352</ele>
        <time>2023-08-03T09:35:32.000Z</time>
      </trkpt>
      <trkpt lat="47.30182" lon="6.79052">
        <ele>407.79998779297</ele>
        <time>2023-08-03T09:35:37.000Z</time>
      </trkpt>
      <trkpt lat="47.30225" lon="6.79093">
        <ele>407.60000610352</ele>
        <time>2023-08-03T09:35:44.000Z</time>
      </trkpt>
      <trkpt lat="47.3027" lon="6.79137">
        <ele>407.60000610352</ele>
        <time>2023-08-03T09:35:52.000Z</time>
      </trkpt>
      <trkpt lat="47.30281" lon="6.79149">
        <ele>407.60000610352</ele>
        <time>2023-08-03T09:35:54.000Z</time>
      </trkpt>
      <trkpt lat="47.30288" lon="6.79156">
        <ele>407.60000610352</ele>
        <time>2023-08-03T09:35:55.000Z</time>
      </trkpt>
      <trkpt lat="47.30314" lon="6.79185">
        <ele>407.20001220703</ele>
        <time>2023-08-03T09:36:00.000Z</time>
      </trkpt>
      <trkpt lat="47.30336" lon="6.79211">
        <ele>407</ele>
        <time>2023-08-03T09:36:04.000Z</time>
      </trkpt>
      <trkpt lat="47.30383" lon="6.79264">
        <ele>406.60000610352</ele>
        <time>2023-08-03T09:36:13.000Z</time>
      </trkpt>
      <trkpt lat="47.30389" lon="6.79269">
        <ele>406.60000610352</ele>
        <time>2023-08-03T09:36:14.000Z</time>
      </trkpt>
      <trkpt lat="47.30406" lon="6.79286">
        <ele>406.20001220703</ele>
        <time>2023-08-03T09:36:17.000Z</time>
      </trkpt>
      <trkpt lat="47.30441" lon="6.79318">
        <ele>406</ele>
        <time>2023-08-03T09:36:23.000Z</time>
      </trkpt>
      <trkpt lat="47.30488" lon="6.79357">
        <ele>405.79998779297</ele>
        <time>2023-08-03T09:36:31.000Z</time>
      </trkpt>
      <trkpt lat="47.30507" lon="6.79371">
        <ele>405.79998779297</ele>
        <time>2023-08-03T09:36:34.000Z</time>
      </trkpt>
      <trkpt lat="47.30554" lon="6.79392">
        <ele>405.79998779297</ele>
        <time>2023-08-03T09:36:41.000Z</time>
      </trkpt>
      <trkpt lat="47.30603" lon="6.79407">
        <ele>405.39999389648</ele>
        <time>2023-08-03T09:36:48.000Z</time>
      </trkpt>
      <trkpt lat="47.30623" lon="6.79413">
        <ele>405.39999389648</ele>
        <time>2023-08-03T09:36:51.000Z</time>
      </trkpt>
      <trkpt lat="47.30679" lon="6.79431">
        <ele>405</ele>
        <time>2023-08-03T09:36:59.000Z</time>
      </trkpt>
      <trkpt lat="47.307" lon="6.79441">
        <ele>405</ele>
        <time>2023-08-03T09:37:02.000Z</time>
      </trkpt>
      <trkpt lat="47.30721" lon="6.79451">
        <ele>404.60000610352</ele>
        <time>2023-08-03T09:37:05.000Z</time>
      </trkpt>
      <trkpt lat="47.30755" lon="6.79473">
        <ele>404.39999389648</ele>
        <time>2023-08-03T09:37:10.000Z</time>
      </trkpt>
      <trkpt lat="47.30779" lon="6.79497">
        <ele>404.39999389648</ele>
        <time>2023-08-03T09:37:14.000Z</time>
      </trkpt>
      <trkpt lat="47.30784" lon="6.79505">
        <ele>404.39999389648</ele>
        <time>2023-08-03T09:37:15.000Z</time>
      </trkpt>
      <trkpt lat="47.30804" lon="6.7955">
        <ele>404.20001220703</ele>
        <time>2023-08-03T09:37:20.000Z</time>
      </trkpt>
      <trkpt lat="47.30829" lon="6.79625">
        <ele>403.79998779297</ele>
        <time>2023-08-03T09:37:28.000Z</time>
      </trkpt>
      <trkpt lat="47.30831" lon="6.79635">
        <ele>403.79998779297</ele>
        <time>2023-08-03T09:37:29.000Z</time>
      </trkpt>
      <trkpt lat="47.30853" lon="6.79712">
        <ele>403.60000610352</ele>
        <time>2023-08-03T09:37:37.000Z</time>
      </trkpt>
      <trkpt lat="47.30854" lon="6.79723">
        <ele>403.60000610352</ele>
        <time>2023-08-03T09:37:38.000Z</time>
      </trkpt>
      <trkpt lat="47.30856" lon="6.79744">
        <ele>403.39999389648</ele>
        <time>2023-08-03T09:37:40.000Z</time>
      </trkpt>
      <trkpt lat="47.30855" lon="6.79765">
        <ele>402.79998779297</ele>
        <time>2023-08-03T09:37:42.000Z</time>
      </trkpt>
      <trkpt lat="47.30847" lon="6.79816">
        <ele>402.79998779297</ele>
        <time>2023-08-03T09:37:47.000Z</time>
      </trkpt>
      <trkpt lat="47.3083" lon="6.79898">
        <ele>402.39999389648</ele>
        <time>2023-08-03T09:37:55.000Z</time>
      </trkpt>
      <trkpt lat="47.30828" lon="6.79908">
        <ele>402.20001220703</ele>
        <time>2023-08-03T09:37:56.000Z</time>
      </trkpt>
      <trkpt lat="47.30818" lon="6.79971">
        <ele>402.20001220703</ele>
        <time>2023-08-03T09:38:02.000Z</time>
      </trkpt>
      <trkpt lat="47.30813" lon="6.80055">
        <ele>402.20001220703</ele>
        <time>2023-08-03T09:38:10.000Z</time>
      </trkpt>
      <trkpt lat="47.30819" lon="6.80128">
        <ele>402.39999389648</ele>
        <time>2023-08-03T09:38:17.000Z</time>
      </trkpt>
      <trkpt lat="47.3083" lon="6.80179">
        <ele>402.39999389648</ele>
        <time>2023-08-03T09:38:22.000Z</time>
      </trkpt>
      <trkpt lat="47.30833" lon="6.80189">
        <ele>402.39999389648</ele>
        <time>2023-08-03T09:38:23.000Z</time>
      </trkpt>
      <trkpt lat="47.30861" lon="6.80251">
        <ele>401.79998779297</ele>
        <time>2023-08-03T09:38:30.000Z</time>
      </trkpt>
      <trkpt lat="47.30866" lon="6.80261">
        <ele>401.79998779297</ele>
        <time>2023-08-03T09:38:31.000Z</time>
      </trkpt>
      <trkpt lat="47.30875" lon="6.80275">
        <ele>401.79998779297</ele>
        <time>2023-08-03T09:38:33.000Z</time>
      </trkpt>
      <trkpt lat="47.30887" lon="6.8029">
        <ele>401.79998779297</ele>
        <time>2023-08-03T09:38:35.000Z</time>
      </trkpt>
      <trkpt lat="47.30905" lon="6.80304">
        <ele>401.60000610352</ele>
        <time>2023-08-03T09:38:38.000Z</time>
      </trkpt>
      <trkpt lat="47.30919" lon="6.80314">
        <ele>401.60000610352</ele>
        <time>2023-08-03T09:38:40.000Z</time>
      </trkpt>
      <trkpt lat="47.30926" lon="6.80317">
        <ele>401.39999389648</ele>
        <time>2023-08-03T09:38:41.000Z</time>
      </trkpt>
      <trkpt lat="47.30952" lon="6.80328">
        <ele>401.20001220703</ele>
        <time>2023-08-03T09:38:45.000Z</time>
      </trkpt>
      <trkpt lat="47.30974" lon="6.80336">
        <ele>401.20001220703</ele>
        <time>2023-08-03T09:38:48.000Z</time>
      </trkpt>
      <trkpt lat="47.3101" lon="6.80348">
        <ele>401</ele>
        <time>2023-08-03T09:38:53.000Z</time>
      </trkpt>
      <trkpt lat="47.31063" lon="6.80373">
        <ele>400.60000610352</ele>
        <time>2023-08-03T09:39:01.000Z</time>
      </trkpt>
      <trkpt lat="47.31093" lon="6.80401">
        <ele>400.60000610352</ele>
        <time>2023-08-03T09:39:06.000Z</time>
      </trkpt>
      <trkpt lat="47.31098" lon="6.80409">
        <ele>400.60000610352</ele>
        <time>2023-08-03T09:39:07.000Z</time>
      </trkpt>
      <trkpt lat="47.31112" lon="6.80433">
        <ele>400.39999389648</ele>
        <time>2023-08-03T09:39:10.000Z</time>
      </trkpt>
      <trkpt lat="47.31116" lon="6.80442">
        <ele>400.39999389648</ele>
        <time>2023-08-03T09:39:11.000Z</time>
      </trkpt>
      <trkpt lat="47.3112" lon="6.80454">
        <ele>400</ele>
        <time>2023-08-03T09:39:12.000Z</time>
      </trkpt>
      <trkpt lat="47.31144" lon="6.80526">
        <ele>399.39999389648</ele>
        <time>2023-08-03T09:39:20.000Z</time>
      </trkpt>
      <trkpt lat="47.31165" lon="6.80603">
        <ele>399.60000610352</ele>
        <time>2023-08-03T09:39:28.000Z</time>
      </trkpt>
      <trkpt lat="47.31177" lon="6.80673">
        <ele>399.60000610352</ele>
        <time>2023-08-03T09:39:35.000Z</time>
      </trkpt>
      <trkpt lat="47.31175" lon="6.80736">
        <ele>398.79998779297</ele>
        <time>2023-08-03T09:39:41.000Z</time>
      </trkpt>
      <trkpt lat="47.31166" lon="6.80819">
        <ele>398.60000610352</ele>
        <time>2023-08-03T09:39:49.000Z</time>
      </trkpt>
      <trkpt lat="47.31166" lon="6.80882">
        <ele>398</ele>
        <time>2023-08-03T09:39:55.000Z</time>
      </trkpt>
      <trkpt lat="47.31167" lon="6.80893">
        <ele>398</ele>
        <time>2023-08-03T09:39:56.000Z</time>
      </trkpt>
      <trkpt lat="47.31169" lon="6.80904">
        <ele>397.79998779297</ele>
        <time>2023-08-03T09:39:57.000Z</time>
      </trkpt>
      <trkpt lat="47.31176" lon="6.80923">
        <ele>397.79998779297</ele>
        <time>2023-08-03T09:39:59.000Z</time>
      </trkpt>
      <trkpt lat="47.31182" lon="6.80931">
        <ele>397.60000610352</ele>
        <time>2023-08-03T09:40:00.000Z</time>
      </trkpt>
      <trkpt lat="47.31194" lon="6.80945">
        <ele>397.20001220703</ele>
        <time>2023-08-03T09:40:02.000Z</time>
      </trkpt>
      <trkpt lat="47.31201" lon="6.80951">
        <ele>397.20001220703</ele>
        <time>2023-08-03T09:40:03.000Z</time>
      </trkpt>
      <trkpt lat="47.31207" lon="6.80957">
        <ele>396.79998779297</ele>
        <time>2023-08-03T09:40:04.000Z</time>
      </trkpt>
      <trkpt lat="47.31245" lon="6.80987">
        <ele>396.20001220703</ele>
        <time>2023-08-03T09:40:09.000Z</time>
      </trkpt>
      <trkpt lat="47.31292" lon="6.81018">
        <ele>395.79998779297</ele>
        <time>2023-08-03T09:40:15.000Z</time>
      </trkpt>
      <trkpt lat="47.31302" lon="6.81021">
        <ele>395.79998779297</ele>
        <time>2023-08-03T09:40:16.000Z</time>
      </trkpt>
      <trkpt lat="47.31316" lon="6.81022">
        <ele>395.60000610352</ele>
        <time>2023-08-03T09:40:18.000Z</time>
      </trkpt>
      <trkpt lat="47.31324" lon="6.81021">
        <ele>395.60000610352</ele>
        <time>2023-08-03T09:40:19.000Z</time>
      </trkpt>
      <trkpt lat="47.3134" lon="6.81019">
        <ele>395.60000610352</ele>
        <time>2023-08-03T09:40:21.000Z</time>
      </trkpt>
      <trkpt lat="47.31356" lon="6.81018">
        <ele>395.60000610352</ele>
        <time>2023-08-03T09:40:23.000Z</time>
      </trkpt>
      <trkpt lat="47.31391" lon="6.81013">
        <ele>395.60000610352</ele>
        <time>2023-08-03T09:40:28.000Z</time>
      </trkpt>
      <trkpt lat="47.31407" lon="6.81011">
        <ele>395.60000610352</ele>
        <time>2023-08-03T09:40:30.000Z</time>
      </trkpt>
      <trkpt lat="47.31424" lon="6.81006">
        <ele>395.60000610352</ele>
        <time>2023-08-03T09:40:33.000Z</time>
      </trkpt>
      <trkpt lat="47.3145" lon="6.81">
        <ele>396.20001220703</ele>
        <time>2023-08-03T09:40:37.000Z</time>
      </trkpt>
      <trkpt lat="47.31462" lon="6.80997">
        <ele>396.39999389648</ele>
        <time>2023-08-03T09:40:39.000Z</time>
      </trkpt>
      <trkpt lat="47.31469" lon="6.80996">
        <ele>396.39999389648</ele>
        <time>2023-08-03T09:40:40.000Z</time>
      </trkpt>
      <trkpt lat="47.31499" lon="6.80994">
        <ele>396.60000610352</ele>
        <time>2023-08-03T09:40:45.000Z</time>
      </trkpt>
      <trkpt lat="47.31504" lon="6.80994">
        <ele>396.60000610352</ele>
        <time>2023-08-03T09:40:46.000Z</time>
      </trkpt>
      <trkpt lat="47.3151" lon="6.80994">
        <ele>396.79998779297</ele>
        <time>2023-08-03T09:40:47.000Z</time>
      </trkpt>
      <trkpt lat="47.3154" lon="6.80994">
        <ele>397.39999389648</ele>
        <time>2023-08-03T09:40:52.000Z</time>
      </trkpt>
      <trkpt lat="47.31576" lon="6.80996">
        <ele>397.39999389648</ele>
        <time>2023-08-03T09:40:58.000Z</time>
      </trkpt>
      <trkpt lat="47.31588" lon="6.80998">
        <ele>397.39999389648</ele>
        <time>2023-08-03T09:41:00.000Z</time>
      </trkpt>
      <trkpt lat="47.31631" lon="6.81005">
        <ele>396.79998779297</ele>
        <time>2023-08-03T09:41:07.000Z</time>
      </trkpt>
      <trkpt lat="47.31678" lon="6.8102">
        <ele>395.79998779297</ele>
        <time>2023-08-03T09:41:14.000Z</time>
      </trkpt>
      <trkpt lat="47.31714" lon="6.81036">
        <ele>395</ele>
        <time>2023-08-03T09:41:20.000Z</time>
      </trkpt>
      <trkpt lat="47.31719" lon="6.81041">
        <ele>395</ele>
        <time>2023-08-03T09:41:21.000Z</time>
      </trkpt>
      <trkpt lat="47.31722" lon="6.81047">
        <ele>395</ele>
        <time>2023-08-03T09:41:22.000Z</time>
      </trkpt>
      <trkpt lat="47.31725" lon="6.8106">
        <ele>395.20001220703</ele>
        <time>2023-08-03T09:41:24.000Z</time>
      </trkpt>
      <trkpt lat="47.31723" lon="6.81089">
        <ele>395.60000610352</ele>
        <time>2023-08-03T09:41:28.000Z</time>
      </trkpt>
      <trkpt lat="47.3172" lon="6.81108">
        <ele>396.60000610352</ele>
        <time>2023-08-03T09:41:31.000Z</time>
      </trkpt>
      <trkpt lat="47.3172" lon="6.81114">
        <ele>397</ele>
        <time>2023-08-03T09:41:32.000Z</time>
      </trkpt>
      <trkpt lat="47.31718" lon="6.81126">
        <ele>397.60000610352</ele>
        <time>2023-08-03T09:41:34.000Z</time>
      </trkpt>
      <trkpt lat="47.31716" lon="6.81135">
        <ele>398.20001220703</ele>
        <time>2023-08-03T09:41:36.000Z</time>
      </trkpt>
      <trkpt lat="47.31716" lon="6.81146">
        <ele>398.39999389648</ele>
        <time>2023-08-03T09:41:39.000Z</time>
      </trkpt>
      <trkpt lat="47.31716" lon="6.81148">
        <ele>398.60000610352</ele>
        <time>2023-08-03T09:41:40.000Z</time>
      </trkpt>
      <trkpt lat="47.31721" lon="6.81152">
        <ele>399.20001220703</ele>
        <time>2023-08-03T09:41:43.000Z</time>
      </trkpt>
      <trkpt lat="47.31736" lon="6.81157">
        <ele>399.60000610352</ele>
        <time>2023-08-03T09:41:48.000Z</time>
      </trkpt>
      <trkpt lat="47.31759" lon="6.81169">
        <ele>399.60000610352</ele>
        <time>2023-08-03T09:41:54.000Z</time>
      </trkpt>
      <trkpt lat="47.31767" lon="6.81174">
        <ele>399.39999389648</ele>
        <time>2023-08-03T09:41:56.000Z</time>
      </trkpt>
      <trkpt lat="47.31776" lon="6.81182">
        <ele>399.39999389648</ele>
        <time>2023-08-03T09:41:58.000Z</time>
      </trkpt>
      <trkpt lat="47.3178" lon="6.81186">
        <ele>399.39999389648</ele>
        <time>2023-08-03T09:41:59.000Z</time>
      </trkpt>
      <trkpt lat="47.31794" lon="6.81206">
        <ele>399.39999389648</ele>
        <time>2023-08-03T09:42:03.000Z</time>
      </trkpt>
      <trkpt lat="47.318" lon="6.81215">
        <ele>399.60000610352</ele>
        <time>2023-08-03T09:42:05.000Z</time>
      </trkpt>
      <trkpt lat="47.31804" lon="6.8122">
        <ele>399.20001220703</ele>
        <time>2023-08-03T09:42:08.000Z</time>
      </trkpt>
      <trkpt lat="47.31804" lon="6.8122">
        <ele>399.20001220703</ele>
        <time>2023-08-03T09:42:09.000Z</time>
      </trkpt>
      <trkpt lat="47.31804" lon="6.8122">
        <ele>399.39999389648</ele>
        <time>2023-08-03T09:42:11.000Z</time>
      </trkpt>
      <trkpt lat="47.31805" lon="6.81222">
        <ele>399.20001220703</ele>
        <time>2023-08-03T09:42:14.000Z</time>
      </trkpt>
      <trkpt lat="47.31806" lon="6.81224">
        <ele>399.20001220703</ele>
        <time>2023-08-03T09:42:15.000Z</time>
      </trkpt>
      <trkpt lat="47.31815" lon="6.81238">
        <ele>399.20001220703</ele>
        <time>2023-08-03T09:42:20.000Z</time>
      </trkpt>
      <trkpt lat="47.31819" lon="6.81245">
        <ele>399.20001220703</ele>
        <time>2023-08-03T09:42:23.000Z</time>
      </trkpt>
      <trkpt lat="47.31822" lon="6.81249">
        <ele>399</ele>
        <time>2023-08-03T09:42:25.000Z</time>
      </trkpt>
      <trkpt lat="47.31823" lon="6.8125">
        <ele>399</ele>
        <time>2023-08-03T09:42:26.000Z</time>
      </trkpt>
      <trkpt lat="47.31824" lon="6.81247">
        <ele>399</ele>
        <time>2023-08-03T09:42:28.000Z</time>
      </trkpt>
      <trkpt lat="47.31825" lon="6.81243">
        <ele>399</ele>
        <time>2023-08-03T09:42:30.000Z</time>
      </trkpt>
      <trkpt lat="47.31825" lon="6.81237">
        <ele>399.20001220703</ele>
        <time>2023-08-03T09:42:33.000Z</time>
      </trkpt>
      <trkpt lat="47.31825" lon="6.81234">
        <ele>399.20001220703</ele>
        <time>2023-08-03T09:42:34.000Z</time>
      </trkpt>
      <trkpt lat="47.31824" lon="6.81228">
        <ele>399.20001220703</ele>
        <time>2023-08-03T09:42:36.000Z</time>
      </trkpt>
      <trkpt lat="47.31823" lon="6.81225">
        <ele>399.20001220703</ele>
        <time>2023-08-03T09:42:37.000Z</time>
      </trkpt>
      <trkpt lat="47.31814" lon="6.81202">
        <ele>399.39999389648</ele>
        <time>2023-08-03T09:42:44.000Z</time>
      </trkpt>
      <trkpt lat="47.31813" lon="6.81199">
        <ele>399.60000610352</ele>
        <time>2023-08-03T09:42:45.000Z</time>
      </trkpt>
      <trkpt lat="47.31811" lon="6.81189">
        <ele>399</ele>
        <time>2023-08-03T09:42:51.000Z</time>
      </trkpt>
      <trkpt lat="47.31811" lon="6.81189">
        <ele>398.79998779297</ele>
        <time>2023-08-03T09:42:52.000Z</time>
      </trkpt>
      <trkpt lat="47.3181" lon="6.81197">
        <ele>398.79998779297</ele>
        <time>2023-08-03T09:43:23.000Z</time>
      </trkpt>
      <trkpt lat="47.31808" lon="6.81205">
        <ele>398.79998779297</ele>
        <time>2023-08-03T09:43:25.000Z</time>
      </trkpt>
      <trkpt lat="47.31811" lon="6.81212">
        <ele>398.79998779297</ele>
        <time>2023-08-03T09:43:28.000Z</time>
      </trkpt>
      <trkpt lat="47.3182" lon="6.81227">
        <ele>398.60000610352</ele>
        <time>2023-08-03T09:43:32.000Z</time>
      </trkpt>
      <trkpt lat="47.3182" lon="6.81229">
        <ele>398.39999389648</ele>
        <time>2023-08-03T09:43:34.000Z</time>
      </trkpt>
      <trkpt lat="47.31817" lon="6.81237">
        <ele>398</ele>
        <time>2023-08-03T09:43:39.000Z</time>
      </trkpt>
      <trkpt lat="47.31817" lon="6.81237">
        <ele>397.79998779297</ele>
        <time>2023-08-03T09:43:41.000Z</time>
      </trkpt>
      <trkpt lat="47.3181" lon="6.8125">
        <ele>398.20001220703</ele>
        <time>2023-08-03T09:43:57.000Z</time>
      </trkpt>
      <trkpt lat="47.3181" lon="6.8125">
        <ele>398.20001220703</ele>
        <time>2023-08-03T09:43:58.000Z</time>
      </trkpt>
      <trkpt lat="47.31801" lon="6.81279">
        <ele>398.39999389648</ele>
        <time>2023-08-03T09:44:03.000Z</time>
      </trkpt>
      <trkpt lat="47.31801" lon="6.81281">
        <ele>398.39999389648</ele>
        <time>2023-08-03T09:44:04.000Z</time>
      </trkpt>
      <trkpt lat="47.31801" lon="6.81282">
        <ele>398.60000610352</ele>
        <time>2023-08-03T09:44:07.000Z</time>
      </trkpt>
      <trkpt lat="47.31801" lon="6.81282">
        <ele>398.79998779297</ele>
        <time>2023-08-03T09:44:10.000Z</time>
      </trkpt>
      <trkpt lat="47.31795" lon="6.81295">
        <ele>397.39999389648</ele>
        <time>2023-08-03T09:49:12.000Z</time>
      </trkpt>
      <trkpt lat="47.31792" lon="6.81299">
        <ele>397.39999389648</ele>
        <time>2023-08-03T09:49:14.000Z</time>
      </trkpt>
      <trkpt lat="47.31787" lon="6.8132">
        <ele>397.79998779297</ele>
        <time>2023-08-03T09:49:19.000Z</time>
      </trkpt>
      <trkpt lat="47.31787" lon="6.81342">
        <ele>398.39999389648</ele>
        <time>2023-08-03T09:49:23.000Z</time>
      </trkpt>
      <trkpt lat="47.31787" lon="6.81347">
        <ele>398.60000610352</ele>
        <time>2023-08-03T09:49:24.000Z</time>
      </trkpt>
      <trkpt lat="47.31784" lon="6.81375">
        <ele>399.39999389648</ele>
        <time>2023-08-03T09:49:30.000Z</time>
      </trkpt>
      <trkpt lat="47.31784" lon="6.81404">
        <ele>400.39999389648</ele>
        <time>2023-08-03T09:49:37.000Z</time>
      </trkpt>
      <trkpt lat="47.31784" lon="6.81408">
        <ele>400.60000610352</ele>
        <time>2023-08-03T09:49:38.000Z</time>
      </trkpt>
      <trkpt lat="47.31784" lon="6.81423">
        <ele>401.39999389648</ele>
        <time>2023-08-03T09:49:42.000Z</time>
      </trkpt>
      <trkpt lat="47.31785" lon="6.81426">
        <ele>401.60000610352</ele>
        <time>2023-08-03T09:49:43.000Z</time>
      </trkpt>
      <trkpt lat="47.31786" lon="6.8144">
        <ele>402</ele>
        <time>2023-08-03T09:49:47.000Z</time>
      </trkpt>
      <trkpt lat="47.31787" lon="6.8145">
        <ele>402.60000610352</ele>
        <time>2023-08-03T09:49:51.000Z</time>
      </trkpt>
      <trkpt lat="47.31789" lon="6.81468">
        <ele>403.39999389648</ele>
        <time>2023-08-03T09:49:56.000Z</time>
      </trkpt>
      <trkpt lat="47.31791" lon="6.81485">
        <ele>403.60000610352</ele>
        <time>2023-08-03T09:49:59.000Z</time>
      </trkpt>
      <trkpt lat="47.31791" lon="6.81496">
        <ele>404</ele>
        <time>2023-08-03T09:50:02.000Z</time>
      </trkpt>
      <trkpt lat="47.31794" lon="6.81526">
        <ele>404</ele>
        <time>2023-08-03T09:50:08.000Z</time>
      </trkpt>
      <trkpt lat="47.31797" lon="6.81551">
        <ele>404</ele>
        <time>2023-08-03T09:50:12.000Z</time>
      </trkpt>
      <trkpt lat="47.31798" lon="6.81572">
        <ele>404.20001220703</ele>
        <time>2023-08-03T09:50:15.000Z</time>
      </trkpt>
      <trkpt lat="47.31799" lon="6.81602">
        <ele>404.79998779297</ele>
        <time>2023-08-03T09:50:19.000Z</time>
      </trkpt>
      <trkpt lat="47.31801" lon="6.81632">
        <ele>404.79998779297</ele>
        <time>2023-08-03T09:50:23.000Z</time>
      </trkpt>
      <trkpt lat="47.31803" lon="6.81663">
        <ele>403.79998779297</ele>
        <time>2023-08-03T09:50:27.000Z</time>
      </trkpt>
      <trkpt lat="47.31804" lon="6.81687">
        <ele>402.79998779297</ele>
        <time>2023-08-03T09:50:30.000Z</time>
      </trkpt>
      <trkpt lat="47.31805" lon="6.81695">
        <ele>402.60000610352</ele>
        <time>2023-08-03T09:50:31.000Z</time>
      </trkpt>
      <trkpt lat="47.31811" lon="6.81752">
        <ele>402.39999389648</ele>
        <time>2023-08-03T09:50:38.000Z</time>
      </trkpt>
      <trkpt lat="47.31815" lon="6.81793">
        <ele>402.60000610352</ele>
        <time>2023-08-03T09:50:43.000Z</time>
      </trkpt>
      <trkpt lat="47.3182" lon="6.81826">
        <ele>402.79998779297</ele>
        <time>2023-08-03T09:50:47.000Z</time>
      </trkpt>
      <trkpt lat="47.31837" lon="6.81877">
        <ele>403</ele>
        <time>2023-08-03T09:50:54.000Z</time>
      </trkpt>
      <trkpt lat="47.31857" lon="6.81913">
        <ele>403.39999389648</ele>
        <time>2023-08-03T09:51:00.000Z</time>
      </trkpt>
      <trkpt lat="47.3187" lon="6.81935">
        <ele>404</ele>
        <time>2023-08-03T09:51:04.000Z</time>
      </trkpt>
      <trkpt lat="47.31883" lon="6.81955">
        <ele>404.39999389648</ele>
        <time>2023-08-03T09:51:08.000Z</time>
      </trkpt>
      <trkpt lat="47.31897" lon="6.81979">
        <ele>405.20001220703</ele>
        <time>2023-08-03T09:51:13.000Z</time>
      </trkpt>
      <trkpt lat="47.31908" lon="6.81997">
        <ele>406</ele>
        <time>2023-08-03T09:51:17.000Z</time>
      </trkpt>
      <trkpt lat="47.31911" lon="6.82002">
        <ele>406.60000610352</ele>
        <time>2023-08-03T09:51:18.000Z</time>
      </trkpt>
      <trkpt lat="47.31923" lon="6.8202">
        <ele>407.60000610352</ele>
        <time>2023-08-03T09:51:23.000Z</time>
      </trkpt>
      <trkpt lat="47.31928" lon="6.8203">
        <ele>407.79998779297</ele>
        <time>2023-08-03T09:51:24.000Z</time>
      </trkpt>
      <trkpt lat="47.31933" lon="6.8204">
        <ele>408.20001220703</ele>
        <time>2023-08-03T09:51:26.000Z</time>
      </trkpt>
      <trkpt lat="47.31947" lon="6.82064">
        <ele>408.60000610352</ele>
        <time>2023-08-03T09:51:31.000Z</time>
      </trkpt>
      <trkpt lat="47.31955" lon="6.82079">
        <ele>409.79998779297</ele>
        <time>2023-08-03T09:51:34.000Z</time>
      </trkpt>
      <trkpt lat="47.31971" lon="6.82109">
        <ele>410.79998779297</ele>
        <time>2023-08-03T09:51:40.000Z</time>
      </trkpt>
      <trkpt lat="47.31976" lon="6.82119">
        <ele>411.39999389648</ele>
        <time>2023-08-03T09:51:42.000Z</time>
      </trkpt>
      <trkpt lat="47.31978" lon="6.82124">
        <ele>411.39999389648</ele>
        <time>2023-08-03T09:51:43.000Z</time>
      </trkpt>
      <trkpt lat="47.31989" lon="6.82145">
        <ele>412.20001220703</ele>
        <time>2023-08-03T09:51:47.000Z</time>
      </trkpt>
      <trkpt lat="47.3201" lon="6.82183">
        <ele>412.60000610352</ele>
        <time>2023-08-03T09:51:54.000Z</time>
      </trkpt>
      <trkpt lat="47.32035" lon="6.8223">
        <ele>412.79998779297</ele>
        <time>2023-08-03T09:52:03.000Z</time>
      </trkpt>
      <trkpt lat="47.32046" lon="6.82253">
        <ele>413.20001220703</ele>
        <time>2023-08-03T09:52:06.000Z</time>
      </trkpt>
      <trkpt lat="47.32049" lon="6.82259">
        <ele>413.39999389648</ele>
        <time>2023-08-03T09:52:07.000Z</time>
      </trkpt>
      <trkpt lat="47.32056" lon="6.82285">
        <ele>414</ele>
        <time>2023-08-03T09:52:11.000Z</time>
      </trkpt>
      <trkpt lat="47.3206" lon="6.82297">
        <ele>414.60000610352</ele>
        <time>2023-08-03T09:52:13.000Z</time>
      </trkpt>
      <trkpt lat="47.32066" lon="6.82321">
        <ele>415.79998779297</ele>
        <time>2023-08-03T09:52:17.000Z</time>
      </trkpt>
      <trkpt lat="47.32068" lon="6.82333">
        <ele>416</ele>
        <time>2023-08-03T09:52:19.000Z</time>
      </trkpt>
      <trkpt lat="47.32072" lon="6.8235">
        <ele>416.79998779297</ele>
        <time>2023-08-03T09:52:22.000Z</time>
      </trkpt>
      <trkpt lat="47.32076" lon="6.82372">
        <ele>418</ele>
        <time>2023-08-03T09:52:26.000Z</time>
      </trkpt>
      <trkpt lat="47.32078" lon="6.82382">
        <ele>418.39999389648</ele>
        <time>2023-08-03T09:52:28.000Z</time>
      </trkpt>
      <trkpt lat="47.32082" lon="6.82398">
        <ele>419.20001220703</ele>
        <time>2023-08-03T09:52:31.000Z</time>
      </trkpt>
      <trkpt lat="47.32088" lon="6.82431">
        <ele>420.20001220703</ele>
        <time>2023-08-03T09:52:37.000Z</time>
      </trkpt>
      <trkpt lat="47.3209" lon="6.82436">
        <ele>420.39999389648</ele>
        <time>2023-08-03T09:52:38.000Z</time>
      </trkpt>
      <trkpt lat="47.32095" lon="6.82457">
        <ele>421.39999389648</ele>
        <time>2023-08-03T09:52:42.000Z</time>
      </trkpt>
      <trkpt lat="47.32098" lon="6.82467">
        <ele>422.20001220703</ele>
        <time>2023-08-03T09:52:44.000Z</time>
      </trkpt>
      <trkpt lat="47.321" lon="6.82473">
        <ele>422.79998779297</ele>
        <time>2023-08-03T09:52:45.000Z</time>
      </trkpt>
      <trkpt lat="47.32101" lon="6.82477">
        <ele>422.79998779297</ele>
        <time>2023-08-03T09:52:46.000Z</time>
      </trkpt>
      <trkpt lat="47.32108" lon="6.82497">
        <ele>423.79998779297</ele>
        <time>2023-08-03T09:52:50.000Z</time>
      </trkpt>
      <trkpt lat="47.32115" lon="6.82517">
        <ele>424.20001220703</ele>
        <time>2023-08-03T09:52:54.000Z</time>
      </trkpt>
      <trkpt lat="47.32123" lon="6.82548">
        <ele>425</ele>
        <time>2023-08-03T09:53:00.000Z</time>
      </trkpt>
      <trkpt lat="47.32125" lon="6.82554">
        <ele>425.20001220703</ele>
        <time>2023-08-03T09:53:01.000Z</time>
      </trkpt>
      <trkpt lat="47.32139" lon="6.82601">
        <ele>426</ele>
        <time>2023-08-03T09:53:11.000Z</time>
      </trkpt>
      <trkpt lat="47.32146" lon="6.82621">
        <ele>426.20001220703</ele>
        <time>2023-08-03T09:53:14.000Z</time>
      </trkpt>
      <trkpt lat="47.32156" lon="6.82646">
        <ele>426.39999389648</ele>
        <time>2023-08-03T09:53:19.000Z</time>
      </trkpt>
      <trkpt lat="47.32164" lon="6.82667">
        <ele>427.60000610352</ele>
        <time>2023-08-03T09:53:23.000Z</time>
      </trkpt>
      <trkpt lat="47.32174" lon="6.82695">
        <ele>428.39999389648</ele>
        <time>2023-08-03T09:53:29.000Z</time>
      </trkpt>
      <trkpt lat="47.32175" lon="6.827">
        <ele>428.60000610352</ele>
        <time>2023-08-03T09:53:30.000Z</time>
      </trkpt>
      <trkpt lat="47.32189" lon="6.82731">
        <ele>429.79998779297</ele>
        <time>2023-08-03T09:53:37.000Z</time>
      </trkpt>
      <trkpt lat="47.32192" lon="6.82739">
        <ele>430</ele>
        <time>2023-08-03T09:53:39.000Z</time>
      </trkpt>
      <trkpt lat="47.32201" lon="6.82759">
        <ele>431</ele>
        <time>2023-08-03T09:53:44.000Z</time>
      </trkpt>
      <trkpt lat="47.32213" lon="6.82788">
        <ele>432.60000610352</ele>
        <time>2023-08-03T09:53:51.000Z</time>
      </trkpt>
      <trkpt lat="47.32215" lon="6.82792">
        <ele>432.79998779297</ele>
        <time>2023-08-03T09:53:52.000Z</time>
      </trkpt>
      <trkpt lat="47.32221" lon="6.82809">
        <ele>434</ele>
        <time>2023-08-03T09:53:56.000Z</time>
      </trkpt>
      <trkpt lat="47.32229" lon="6.82827">
        <ele>435</ele>
        <time>2023-08-03T09:54:00.000Z</time>
      </trkpt>
      <trkpt lat="47.32233" lon="6.82836">
        <ele>435.39999389648</ele>
        <time>2023-08-03T09:54:02.000Z</time>
      </trkpt>
      <trkpt lat="47.32246" lon="6.82863">
        <ele>436.39999389648</ele>
        <time>2023-08-03T09:54:08.000Z</time>
      </trkpt>
      <trkpt lat="47.32255" lon="6.82883">
        <ele>437.39999389648</ele>
        <time>2023-08-03T09:54:12.000Z</time>
      </trkpt>
      <trkpt lat="47.32264" lon="6.82903">
        <ele>438.60000610352</ele>
        <time>2023-08-03T09:54:16.000Z</time>
      </trkpt>
      <trkpt lat="47.32267" lon="6.82908">
        <ele>438.79998779297</ele>
        <time>2023-08-03T09:54:17.000Z</time>
      </trkpt>
      <trkpt lat="47.32281" lon="6.82935">
        <ele>439.20001220703</ele>
        <time>2023-08-03T09:54:22.000Z</time>
      </trkpt>
      <trkpt lat="47.32306" lon="6.82983">
        <ele>439.60000610352</ele>
        <time>2023-08-03T09:54:30.000Z</time>
      </trkpt>
      <trkpt lat="47.32317" lon="6.83001">
        <ele>439.39999389648</ele>
        <time>2023-08-03T09:54:33.000Z</time>
      </trkpt>
      <trkpt lat="47.32331" lon="6.83016">
        <ele>439.20001220703</ele>
        <time>2023-08-03T09:54:36.000Z</time>
      </trkpt>
      <trkpt lat="47.32346" lon="6.83033">
        <ele>439</ele>
        <time>2023-08-03T09:54:39.000Z</time>
      </trkpt>
      <trkpt lat="47.32356" lon="6.83049">
        <ele>438.60000610352</ele>
        <time>2023-08-03T09:54:41.000Z</time>
      </trkpt>
      <trkpt lat="47.32364" lon="6.83068">
        <ele>438.39999389648</ele>
        <time>2023-08-03T09:54:43.000Z</time>
      </trkpt>
      <trkpt lat="47.3237" lon="6.83089">
        <ele>438.20001220703</ele>
        <time>2023-08-03T09:54:45.000Z</time>
      </trkpt>
      <trkpt lat="47.32377" lon="6.83121">
        <ele>437.60000610352</ele>
        <time>2023-08-03T09:54:48.000Z</time>
      </trkpt>
      <trkpt lat="47.32378" lon="6.83132">
        <ele>437.60000610352</ele>
        <time>2023-08-03T09:54:49.000Z</time>
      </trkpt>
      <trkpt lat="47.32379" lon="6.83141">
        <ele>437.39999389648</ele>
        <time>2023-08-03T09:54:50.000Z</time>
      </trkpt>
      <trkpt lat="47.32381" lon="6.8315">
        <ele>437.20001220703</ele>
        <time>2023-08-03T09:54:51.000Z</time>
      </trkpt>
      <trkpt lat="47.32384" lon="6.83162">
        <ele>437</ele>
        <time>2023-08-03T09:54:52.000Z</time>
      </trkpt>
      <trkpt lat="47.32396" lon="6.83185">
        <ele>436.79998779297</ele>
        <time>2023-08-03T09:54:54.000Z</time>
      </trkpt>
      <trkpt lat="47.32419" lon="6.83211">
        <ele>436.79998779297</ele>
        <time>2023-08-03T09:54:57.000Z</time>
      </trkpt>
      <trkpt lat="47.32425" lon="6.8322">
        <ele>436.60000610352</ele>
        <time>2023-08-03T09:54:58.000Z</time>
      </trkpt>
      <trkpt lat="47.32435" lon="6.83234">
        <ele>436.60000610352</ele>
        <time>2023-08-03T09:55:00.000Z</time>
      </trkpt>
      <trkpt lat="47.3244" lon="6.83241">
        <ele>436.39999389648</ele>
        <time>2023-08-03T09:55:01.000Z</time>
      </trkpt>
      <trkpt lat="47.32445" lon="6.83246">
        <ele>436.39999389648</ele>
        <time>2023-08-03T09:55:02.000Z</time>
      </trkpt>
      <trkpt lat="47.32456" lon="6.83263">
        <ele>436.20001220703</ele>
        <time>2023-08-03T09:55:04.000Z</time>
      </trkpt>
      <trkpt lat="47.32467" lon="6.83284">
        <ele>436</ele>
        <time>2023-08-03T09:55:06.000Z</time>
      </trkpt>
      <trkpt lat="47.32472" lon="6.83309">
        <ele>435.60000610352</ele>
        <time>2023-08-03T09:55:08.000Z</time>
      </trkpt>
      <trkpt lat="47.32472" lon="6.8332">
        <ele>435.39999389648</ele>
        <time>2023-08-03T09:55:09.000Z</time>
      </trkpt>
      <trkpt lat="47.3247" lon="6.83332">
        <ele>435.20001220703</ele>
        <time>2023-08-03T09:55:10.000Z</time>
      </trkpt>
      <trkpt lat="47.32468" lon="6.83368">
        <ele>434.60000610352</ele>
        <time>2023-08-03T09:55:13.000Z</time>
      </trkpt>
      <trkpt lat="47.32469" lon="6.83391">
        <ele>434.20001220703</ele>
        <time>2023-08-03T09:55:15.000Z</time>
      </trkpt>
      <trkpt lat="47.32469" lon="6.83438">
        <ele>433.39999389648</ele>
        <time>2023-08-03T09:55:19.000Z</time>
      </trkpt>
      <trkpt lat="47.32469" lon="6.8345">
        <ele>433.20001220703</ele>
        <time>2023-08-03T09:55:20.000Z</time>
      </trkpt>
      <trkpt lat="47.32472" lon="6.83511">
        <ele>432</ele>
        <time>2023-08-03T09:55:25.000Z</time>
      </trkpt>
      <trkpt lat="47.32474" lon="6.83536">
        <ele>431.79998779297</ele>
        <time>2023-08-03T09:55:27.000Z</time>
      </trkpt>
      <trkpt lat="47.32471" lon="6.83572">
        <ele>431.60000610352</ele>
        <time>2023-08-03T09:55:30.000Z</time>
      </trkpt>
      <trkpt lat="47.32466" lon="6.83605">
        <ele>431</ele>
        <time>2023-08-03T09:55:33.000Z</time>
      </trkpt>
      <trkpt lat="47.3247" lon="6.83639">
        <ele>430.79998779297</ele>
        <time>2023-08-03T09:55:36.000Z</time>
      </trkpt>
      <trkpt lat="47.32465" lon="6.83683">
        <ele>430</ele>
        <time>2023-08-03T09:55:40.000Z</time>
      </trkpt>
      <trkpt lat="47.32461" lon="6.83692">
        <ele>429.79998779297</ele>
        <time>2023-08-03T09:55:41.000Z</time>
      </trkpt>
      <trkpt lat="47.32452" lon="6.83731">
        <ele>428.79998779297</ele>
        <time>2023-08-03T09:55:45.000Z</time>
      </trkpt>
      <trkpt lat="47.32452" lon="6.83741">
        <ele>428.60000610352</ele>
        <time>2023-08-03T09:55:46.000Z</time>
      </trkpt>
      <trkpt lat="47.32455" lon="6.83793">
        <ele>427.79998779297</ele>
        <time>2023-08-03T09:55:51.000Z</time>
      </trkpt>
      <trkpt lat="47.32455" lon="6.83804">
        <ele>427.60000610352</ele>
        <time>2023-08-03T09:55:52.000Z</time>
      </trkpt>
      <trkpt lat="47.32455" lon="6.83838">
        <ele>426.60000610352</ele>
        <time>2023-08-03T09:55:55.000Z</time>
      </trkpt>
      <trkpt lat="47.32458" lon="6.83873">
        <ele>425.60000610352</ele>
        <time>2023-08-03T09:55:58.000Z</time>
      </trkpt>
      <trkpt lat="47.3246" lon="6.83885">
        <ele>425.39999389648</ele>
        <time>2023-08-03T09:55:59.000Z</time>
      </trkpt>
      <trkpt lat="47.32459" lon="6.83896">
        <ele>424.60000610352</ele>
        <time>2023-08-03T09:56:00.000Z</time>
      </trkpt>
      <trkpt lat="47.32458" lon="6.83908">
        <ele>424.39999389648</ele>
        <time>2023-08-03T09:56:01.000Z</time>
      </trkpt>
      <trkpt lat="47.32456" lon="6.8392">
        <ele>424.20001220703</ele>
        <time>2023-08-03T09:56:02.000Z</time>
      </trkpt>
      <trkpt lat="47.32453" lon="6.83931">
        <ele>423.79998779297</ele>
        <time>2023-08-03T09:56:03.000Z</time>
      </trkpt>
      <trkpt lat="47.32437" lon="6.83974">
        <ele>423.20001220703</ele>
        <time>2023-08-03T09:56:07.000Z</time>
      </trkpt>
      <trkpt lat="47.32434" lon="6.83985">
        <ele>423</ele>
        <time>2023-08-03T09:56:09.000Z</time>
      </trkpt>
      <trkpt lat="47.32428" lon="6.84009">
        <ele>422.60000610352</ele>
        <time>2023-08-03T09:56:10.000Z</time>
      </trkpt>
      <trkpt lat="47.32424" lon="6.84046">
        <ele>422.20001220703</ele>
        <time>2023-08-03T09:56:13.000Z</time>
      </trkpt>
      <trkpt lat="47.32427" lon="6.8407">
        <ele>421.79998779297</ele>
        <time>2023-08-03T09:56:15.000Z</time>
      </trkpt>
      <trkpt lat="47.32427" lon="6.84083">
        <ele>421.60000610352</ele>
        <time>2023-08-03T09:56:16.000Z</time>
      </trkpt>
      <trkpt lat="47.32427" lon="6.84096">
        <ele>421.60000610352</ele>
        <time>2023-08-03T09:56:17.000Z</time>
      </trkpt>
      <trkpt lat="47.32425" lon="6.84121">
        <ele>421</ele>
        <time>2023-08-03T09:56:19.000Z</time>
      </trkpt>
      <trkpt lat="47.32423" lon="6.84146">
        <ele>420.60000610352</ele>
        <time>2023-08-03T09:56:21.000Z</time>
      </trkpt>
      <trkpt lat="47.32418" lon="6.84183">
        <ele>420</ele>
        <time>2023-08-03T09:56:24.000Z</time>
      </trkpt>
      <trkpt lat="47.32414" lon="6.84207">
        <ele>419.60000610352</ele>
        <time>2023-08-03T09:56:26.000Z</time>
      </trkpt>
      <trkpt lat="47.32408" lon="6.84245">
        <ele>418.79998779297</ele>
        <time>2023-08-03T09:56:29.000Z</time>
      </trkpt>
      <trkpt lat="47.32403" lon="6.84283">
        <ele>418</ele>
        <time>2023-08-03T09:56:32.000Z</time>
      </trkpt>
      <trkpt lat="47.32397" lon="6.84319">
        <ele>417.60000610352</ele>
        <time>2023-08-03T09:56:35.000Z</time>
      </trkpt>
      <trkpt lat="47.32386" lon="6.84367">
        <ele>416.79998779297</ele>
        <time>2023-08-03T09:56:39.000Z</time>
      </trkpt>
      <trkpt lat="47.32383" lon="6.84379">
        <ele>416.39999389648</ele>
        <time>2023-08-03T09:56:40.000Z</time>
      </trkpt>
      <trkpt lat="47.32374" lon="6.84427">
        <ele>415.39999389648</ele>
        <time>2023-08-03T09:56:44.000Z</time>
      </trkpt>
      <trkpt lat="47.32366" lon="6.84449">
        <ele>414.60000610352</ele>
        <time>2023-08-03T09:56:46.000Z</time>
      </trkpt>
      <trkpt lat="47.32361" lon="6.8446">
        <ele>414.20001220703</ele>
        <time>2023-08-03T09:56:47.000Z</time>
      </trkpt>
      <trkpt lat="47.32338" lon="6.84501">
        <ele>413.39999389648</ele>
        <time>2023-08-03T09:56:51.000Z</time>
      </trkpt>
      <trkpt lat="47.32331" lon="6.8451">
        <ele>413</ele>
        <time>2023-08-03T09:56:52.000Z</time>
      </trkpt>
      <trkpt lat="47.32325" lon="6.84519">
        <ele>412.79998779297</ele>
        <time>2023-08-03T09:56:53.000Z</time>
      </trkpt>
      <trkpt lat="47.32313" lon="6.8454">
        <ele>412.20001220703</ele>
        <time>2023-08-03T09:56:55.000Z</time>
      </trkpt>
      <trkpt lat="47.32308" lon="6.84551">
        <ele>412.20001220703</ele>
        <time>2023-08-03T09:56:56.000Z</time>
      </trkpt>
      <trkpt lat="47.32303" lon="6.84562">
        <ele>411.79998779297</ele>
        <time>2023-08-03T09:56:57.000Z</time>
      </trkpt>
      <trkpt lat="47.32298" lon="6.84574">
        <ele>411.79998779297</ele>
        <time>2023-08-03T09:56:58.000Z</time>
      </trkpt>
      <trkpt lat="47.32288" lon="6.84609">
        <ele>411.20001220703</ele>
        <time>2023-08-03T09:57:01.000Z</time>
      </trkpt>
      <trkpt lat="47.32286" lon="6.84634">
        <ele>410.79998779297</ele>
        <time>2023-08-03T09:57:03.000Z</time>
      </trkpt>
      <trkpt lat="47.32285" lon="6.84646">
        <ele>410.60000610352</ele>
        <time>2023-08-03T09:57:04.000Z</time>
      </trkpt>
      <trkpt lat="47.32285" lon="6.84658">
        <ele>410.60000610352</ele>
        <time>2023-08-03T09:57:05.000Z</time>
      </trkpt>
      <trkpt lat="47.32283" lon="6.84694">
        <ele>410</ele>
        <time>2023-08-03T09:57:08.000Z</time>
      </trkpt>
      <trkpt lat="47.32279" lon="6.84718">
        <ele>409.60000610352</ele>
        <time>2023-08-03T09:57:10.000Z</time>
      </trkpt>
      <trkpt lat="47.32276" lon="6.8473">
        <ele>409.39999389648</ele>
        <time>2023-08-03T09:57:11.000Z</time>
      </trkpt>
      <trkpt lat="47.32258" lon="6.84788">
        <ele>408.20001220703</ele>
        <time>2023-08-03T09:57:16.000Z</time>
      </trkpt>
      <trkpt lat="47.3225" lon="6.84811">
        <ele>407.79998779297</ele>
        <time>2023-08-03T09:57:18.000Z</time>
      </trkpt>
      <trkpt lat="47.32238" lon="6.84845">
        <ele>407.20001220703</ele>
        <time>2023-08-03T09:57:21.000Z</time>
      </trkpt>
      <trkpt lat="47.32225" lon="6.84862">
        <ele>406.79998779297</ele>
        <time>2023-08-03T09:57:23.000Z</time>
      </trkpt>
      <trkpt lat="47.32208" lon="6.84873">
        <ele>406.20001220703</ele>
        <time>2023-08-03T09:57:25.000Z</time>
      </trkpt>
      <trkpt lat="47.32192" lon="6.84885">
        <ele>405.79998779297</ele>
        <time>2023-08-03T09:57:27.000Z</time>
      </trkpt>
      <trkpt lat="47.32185" lon="6.84892">
        <ele>405.60000610352</ele>
        <time>2023-08-03T09:57:28.000Z</time>
      </trkpt>
      <trkpt lat="47.32178" lon="6.849">
        <ele>405.39999389648</ele>
        <time>2023-08-03T09:57:29.000Z</time>
      </trkpt>
      <trkpt lat="47.32168" lon="6.84921">
        <ele>405.39999389648</ele>
        <time>2023-08-03T09:57:31.000Z</time>
      </trkpt>
      <trkpt lat="47.32161" lon="6.84957">
        <ele>404.79998779297</ele>
        <time>2023-08-03T09:57:34.000Z</time>
      </trkpt>
      <trkpt lat="47.32154" lon="6.85017">
        <ele>404.20001220703</ele>
        <time>2023-08-03T09:57:39.000Z</time>
      </trkpt>
      <trkpt lat="47.32154" lon="6.85029">
        <ele>404.20001220703</ele>
        <time>2023-08-03T09:57:40.000Z</time>
      </trkpt>
      <trkpt lat="47.32155" lon="6.85052">
        <ele>403.79998779297</ele>
        <time>2023-08-03T09:57:42.000Z</time>
      </trkpt>
      <trkpt lat="47.3216" lon="6.85083">
        <ele>403.39999389648</ele>
        <time>2023-08-03T09:57:45.000Z</time>
      </trkpt>
      <trkpt lat="47.32163" lon="6.85101">
        <ele>403.39999389648</ele>
        <time>2023-08-03T09:57:47.000Z</time>
      </trkpt>
      <trkpt lat="47.32168" lon="6.8513">
        <ele>403.39999389648</ele>
        <time>2023-08-03T09:57:50.000Z</time>
      </trkpt>
      <trkpt lat="47.32176" lon="6.85156">
        <ele>403.60000610352</ele>
        <time>2023-08-03T09:57:53.000Z</time>
      </trkpt>
      <trkpt lat="47.3219" lon="6.85187">
        <ele>403.60000610352</ele>
        <time>2023-08-03T09:57:57.000Z</time>
      </trkpt>
      <trkpt lat="47.32218" lon="6.85234">
        <ele>403.60000610352</ele>
        <time>2023-08-03T09:58:04.000Z</time>
      </trkpt>
      <trkpt lat="47.32248" lon="6.85274">
        <ele>403.20001220703</ele>
        <time>2023-08-03T09:58:11.000Z</time>
      </trkpt>
      <trkpt lat="47.32257" lon="6.85287">
        <ele>402.79998779297</ele>
        <time>2023-08-03T09:58:13.000Z</time>
      </trkpt>
      <trkpt lat="47.32283" lon="6.85327">
        <ele>402.60000610352</ele>
        <time>2023-08-03T09:58:19.000Z</time>
      </trkpt>
      <trkpt lat="47.32317" lon="6.85387">
        <ele>402.60000610352</ele>
        <time>2023-08-03T09:58:28.000Z</time>
      </trkpt>
      <trkpt lat="47.32353" lon="6.85457">
        <ele>402.60000610352</ele>
        <time>2023-08-03T09:58:38.000Z</time>
      </trkpt>
      <trkpt lat="47.32378" lon="6.85528">
        <ele>403.20001220703</ele>
        <time>2023-08-03T09:58:47.000Z</time>
      </trkpt>
      <trkpt lat="47.32403" lon="6.856">
        <ele>402.60000610352</ele>
        <time>2023-08-03T09:58:56.000Z</time>
      </trkpt>
      <trkpt lat="47.32427" lon="6.85659">
        <ele>403.39999389648</ele>
        <time>2023-08-03T09:59:04.000Z</time>
      </trkpt>
      <trkpt lat="47.32459" lon="6.85713">
        <ele>403.20001220703</ele>
        <time>2023-08-03T09:59:12.000Z</time>
      </trkpt>
      <trkpt lat="47.32485" lon="6.85754">
        <ele>402.20001220703</ele>
        <time>2023-08-03T09:59:18.000Z</time>
      </trkpt>
      <trkpt lat="47.32489" lon="6.85761">
        <ele>402.20001220703</ele>
        <time>2023-08-03T09:59:19.000Z</time>
      </trkpt>
      <trkpt lat="47.32526" lon="6.85822">
        <ele>401.79998779297</ele>
        <time>2023-08-03T09:59:28.000Z</time>
      </trkpt>
      <trkpt lat="47.32563" lon="6.85875">
        <ele>401.20001220703</ele>
        <time>2023-08-03T09:59:36.000Z</time>
      </trkpt>
      <trkpt lat="47.32567" lon="6.85881">
        <ele>401.20001220703</ele>
        <time>2023-08-03T09:59:37.000Z</time>
      </trkpt>
      <trkpt lat="47.32571" lon="6.85888">
        <ele>401.20001220703</ele>
        <time>2023-08-03T09:59:38.000Z</time>
      </trkpt>
      <trkpt lat="47.32575" lon="6.85895">
        <ele>401.20001220703</ele>
        <time>2023-08-03T09:59:39.000Z</time>
      </trkpt>
      <trkpt lat="47.32583" lon="6.85922">
        <ele>401.20001220703</ele>
        <time>2023-08-03T09:59:42.000Z</time>
      </trkpt>
      <trkpt lat="47.3259" lon="6.85951">
        <ele>401.20001220703</ele>
        <time>2023-08-03T09:59:45.000Z</time>
      </trkpt>
      <trkpt lat="47.32593" lon="6.85973">
        <ele>401.39999389648</ele>
        <time>2023-08-03T09:59:47.000Z</time>
      </trkpt>
      <trkpt lat="47.32593" lon="6.85995">
        <ele>401.60000610352</ele>
        <time>2023-08-03T09:59:49.000Z</time>
      </trkpt>
      <trkpt lat="47.32589" lon="6.86016">
        <ele>401.60000610352</ele>
        <time>2023-08-03T09:59:51.000Z</time>
      </trkpt>
      <trkpt lat="47.32573" lon="6.86063">
        <ele>401.60000610352</ele>
        <time>2023-08-03T09:59:56.000Z</time>
      </trkpt>
      <trkpt lat="47.32546" lon="6.86131">
        <ele>402</ele>
        <time>2023-08-03T10:00:04.000Z</time>
      </trkpt>
      <trkpt lat="47.3254" lon="6.86148">
        <ele>402.39999389648</ele>
        <time>2023-08-03T10:00:06.000Z</time>
      </trkpt>
      <trkpt lat="47.32525" lon="6.86192">
        <ele>402.60000610352</ele>
        <time>2023-08-03T10:00:11.000Z</time>
      </trkpt>
      <trkpt lat="47.32514" lon="6.86227">
        <ele>402.60000610352</ele>
        <time>2023-08-03T10:00:15.000Z</time>
      </trkpt>
      <trkpt lat="47.32508" lon="6.86256">
        <ele>402.79998779297</ele>
        <time>2023-08-03T10:00:18.000Z</time>
      </trkpt>
      <trkpt lat="47.32495" lon="6.86334">
        <ele>403</ele>
        <time>2023-08-03T10:00:26.000Z</time>
      </trkpt>
      <trkpt lat="47.32492" lon="6.86355">
        <ele>403.20001220703</ele>
        <time>2023-08-03T10:00:28.000Z</time>
      </trkpt>
      <trkpt lat="47.32483" lon="6.86405">
        <ele>403.79998779297</ele>
        <time>2023-08-03T10:00:33.000Z</time>
      </trkpt>
      <trkpt lat="47.32472" lon="6.86463">
        <ele>404.79998779297</ele>
        <time>2023-08-03T10:00:39.000Z</time>
      </trkpt>
      <trkpt lat="47.32463" lon="6.86509">
        <ele>406</ele>
        <time>2023-08-03T10:00:44.000Z</time>
      </trkpt>
      <trkpt lat="47.32455" lon="6.86543">
        <ele>406.39999389648</ele>
        <time>2023-08-03T10:00:48.000Z</time>
      </trkpt>
      <trkpt lat="47.32449" lon="6.8657">
        <ele>407</ele>
        <time>2023-08-03T10:00:51.000Z</time>
      </trkpt>
      <trkpt lat="47.32443" lon="6.86596">
        <ele>407.60000610352</ele>
        <time>2023-08-03T10:00:54.000Z</time>
      </trkpt>
      <trkpt lat="47.32437" lon="6.86622">
        <ele>407.79998779297</ele>
        <time>2023-08-03T10:00:57.000Z</time>
      </trkpt>
      <trkpt lat="47.32428" lon="6.86676">
        <ele>408</ele>
        <time>2023-08-03T10:01:03.000Z</time>
      </trkpt>
      <trkpt lat="47.32427" lon="6.86685">
        <ele>408</ele>
        <time>2023-08-03T10:01:04.000Z</time>
      </trkpt>
      <trkpt lat="47.32427" lon="6.86702">
        <ele>408.20001220703</ele>
        <time>2023-08-03T10:01:06.000Z</time>
      </trkpt>
      <trkpt lat="47.32429" lon="6.86737">
        <ele>408.39999389648</ele>
        <time>2023-08-03T10:01:10.000Z</time>
      </trkpt>
      <trkpt lat="47.3244" lon="6.86803">
        <ele>408.79998779297</ele>
        <time>2023-08-03T10:01:18.000Z</time>
      </trkpt>
      <trkpt lat="47.32441" lon="6.86811">
        <ele>409</ele>
        <time>2023-08-03T10:01:19.000Z</time>
      </trkpt>
      <trkpt lat="47.3245" lon="6.8686">
        <ele>410</ele>
        <time>2023-08-03T10:01:25.000Z</time>
      </trkpt>
      <trkpt lat="47.32454" lon="6.86876">
        <ele>410</ele>
        <time>2023-08-03T10:01:27.000Z</time>
      </trkpt>
      <trkpt lat="47.32469" lon="6.86956">
        <ele>409.60000610352</ele>
        <time>2023-08-03T10:01:36.000Z</time>
      </trkpt>
      <trkpt lat="47.32484" lon="6.87025">
        <ele>409.20001220703</ele>
        <time>2023-08-03T10:01:44.000Z</time>
      </trkpt>
      <trkpt lat="47.32496" lon="6.8708">
        <ele>409</ele>
        <time>2023-08-03T10:01:51.000Z</time>
      </trkpt>
      <trkpt lat="47.32515" lon="6.8714">
        <ele>409.79998779297</ele>
        <time>2023-08-03T10:01:59.000Z</time>
      </trkpt>
      <trkpt lat="47.32535" lon="6.87179">
        <ele>410.20001220703</ele>
        <time>2023-08-03T10:02:05.000Z</time>
      </trkpt>
      <trkpt lat="47.32561" lon="6.87222">
        <ele>410.60000610352</ele>
        <time>2023-08-03T10:02:12.000Z</time>
      </trkpt>
      <trkpt lat="47.32571" lon="6.87231">
        <ele>410.60000610352</ele>
        <time>2023-08-03T10:02:14.000Z</time>
      </trkpt>
      <trkpt lat="47.32582" lon="6.87238">
        <ele>410.60000610352</ele>
        <time>2023-08-03T10:02:16.000Z</time>
      </trkpt>
      <trkpt lat="47.32595" lon="6.87241">
        <ele>410.60000610352</ele>
        <time>2023-08-03T10:02:18.000Z</time>
      </trkpt>
      <trkpt lat="47.32607" lon="6.8724">
        <ele>410.60000610352</ele>
        <time>2023-08-03T10:02:20.000Z</time>
      </trkpt>
      <trkpt lat="47.32626" lon="6.87235">
        <ele>410.20001220703</ele>
        <time>2023-08-03T10:02:23.000Z</time>
      </trkpt>
      <trkpt lat="47.32632" lon="6.87233">
        <ele>410.20001220703</ele>
        <time>2023-08-03T10:02:24.000Z</time>
      </trkpt>
      <trkpt lat="47.32645" lon="6.87234">
        <ele>410</ele>
        <time>2023-08-03T10:02:26.000Z</time>
      </trkpt>
      <trkpt lat="47.32651" lon="6.87236">
        <ele>410</ele>
        <time>2023-08-03T10:02:27.000Z</time>
      </trkpt>
      <trkpt lat="47.32672" lon="6.87247">
        <ele>409.20001220703</ele>
        <time>2023-08-03T10:02:30.000Z</time>
      </trkpt>
      <trkpt lat="47.32685" lon="6.87253">
        <ele>408.79998779297</ele>
        <time>2023-08-03T10:02:32.000Z</time>
      </trkpt>
      <trkpt lat="47.327" lon="6.87258">
        <ele>408.60000610352</ele>
        <time>2023-08-03T10:02:34.000Z</time>
      </trkpt>
      <trkpt lat="47.32722" lon="6.87263">
        <ele>408.39999389648</ele>
        <time>2023-08-03T10:02:37.000Z</time>
      </trkpt>
      <trkpt lat="47.32775" lon="6.87277">
        <ele>407.79998779297</ele>
        <time>2023-08-03T10:02:44.000Z</time>
      </trkpt>
      <trkpt lat="47.32791" lon="6.8728">
        <ele>407.39999389648</ele>
        <time>2023-08-03T10:02:46.000Z</time>
      </trkpt>
      <trkpt lat="47.32806" lon="6.87278">
        <ele>407.20001220703</ele>
        <time>2023-08-03T10:02:48.000Z</time>
      </trkpt>
      <trkpt lat="47.32814" lon="6.87276">
        <ele>407</ele>
        <time>2023-08-03T10:02:49.000Z</time>
      </trkpt>
      <trkpt lat="47.32841" lon="6.87259">
        <ele>406.20001220703</ele>
        <time>2023-08-03T10:02:53.000Z</time>
      </trkpt>
      <trkpt lat="47.3288" lon="6.87229">
        <ele>406.20001220703</ele>
        <time>2023-08-03T10:03:00.000Z</time>
      </trkpt>
      <trkpt lat="47.32923" lon="6.87188">
        <ele>406.39999389648</ele>
        <time>2023-08-03T10:03:08.000Z</time>
      </trkpt>
      <trkpt lat="47.32948" lon="6.87164">
        <ele>407</ele>
        <time>2023-08-03T10:03:13.000Z</time>
      </trkpt>
      <trkpt lat="47.32953" lon="6.8716">
        <ele>407</ele>
        <time>2023-08-03T10:03:14.000Z</time>
      </trkpt>
      <trkpt lat="47.32963" lon="6.87152">
        <ele>407.20001220703</ele>
        <time>2023-08-03T10:03:16.000Z</time>
      </trkpt>
      <trkpt lat="47.32985" lon="6.8713">
        <ele>408</ele>
        <time>2023-08-03T10:03:21.000Z</time>
      </trkpt>
      <trkpt lat="47.33" lon="6.87118">
        <ele>408</ele>
        <time>2023-08-03T10:03:24.000Z</time>
      </trkpt>
      <trkpt lat="47.33009" lon="6.87109">
        <ele>408</ele>
        <time>2023-08-03T10:03:26.000Z</time>
      </trkpt>
      <trkpt lat="47.33013" lon="6.87105">
        <ele>408</ele>
        <time>2023-08-03T10:03:27.000Z</time>
      </trkpt>
      <trkpt lat="47.33052" lon="6.8707">
        <ele>408</ele>
        <time>2023-08-03T10:03:35.000Z</time>
      </trkpt>
      <trkpt lat="47.33075" lon="6.87044">
        <ele>407.20001220703</ele>
        <time>2023-08-03T10:03:40.000Z</time>
      </trkpt>
      <trkpt lat="47.3308" lon="6.8704">
        <ele>407</ele>
        <time>2023-08-03T10:03:41.000Z</time>
      </trkpt>
      <trkpt lat="47.33104" lon="6.87019">
        <ele>405.79998779297</ele>
        <time>2023-08-03T10:03:46.000Z</time>
      </trkpt>
      <trkpt lat="47.33109" lon="6.87015">
        <ele>405.60000610352</ele>
        <time>2023-08-03T10:03:47.000Z</time>
      </trkpt>
      <trkpt lat="47.3314" lon="6.86987">
        <ele>405</ele>
        <time>2023-08-03T10:03:54.000Z</time>
      </trkpt>
      <trkpt lat="47.33148" lon="6.86979">
        <ele>404.79998779297</ele>
        <time>2023-08-03T10:03:56.000Z</time>
      </trkpt>
      <trkpt lat="47.33155" lon="6.86971">
        <ele>404.60000610352</ele>
        <time>2023-08-03T10:03:58.000Z</time>
      </trkpt>
      <trkpt lat="47.33159" lon="6.86968">
        <ele>404.60000610352</ele>
        <time>2023-08-03T10:03:59.000Z</time>
      </trkpt>
      <trkpt lat="47.33166" lon="6.86961">
        <ele>404.79998779297</ele>
        <time>2023-08-03T10:04:01.000Z</time>
      </trkpt>
      <trkpt lat="47.33187" lon="6.86937">
        <ele>405</ele>
        <time>2023-08-03T10:04:07.000Z</time>
      </trkpt>
      <trkpt lat="47.33201" lon="6.86922">
        <ele>405.79998779297</ele>
        <time>2023-08-03T10:04:11.000Z</time>
      </trkpt>
      <trkpt lat="47.33211" lon="6.86911">
        <ele>406.60000610352</ele>
        <time>2023-08-03T10:04:14.000Z</time>
      </trkpt>
      <trkpt lat="47.33214" lon="6.86907">
        <ele>407</ele>
        <time>2023-08-03T10:04:15.000Z</time>
      </trkpt>
      <trkpt lat="47.3322" lon="6.869">
        <ele>408</ele>
        <time>2023-08-03T10:04:17.000Z</time>
      </trkpt>
      <trkpt lat="47.33228" lon="6.86891">
        <ele>409.39999389648</ele>
        <time>2023-08-03T10:04:20.000Z</time>
      </trkpt>
      <trkpt lat="47.33239" lon="6.86879">
        <ele>410.60000610352</ele>
        <time>2023-08-03T10:04:23.000Z</time>
      </trkpt>
      <trkpt lat="47.33253" lon="6.86869">
        <ele>412</ele>
        <time>2023-08-03T10:04:27.000Z</time>
      </trkpt>
      <trkpt lat="47.33271" lon="6.86858">
        <ele>413</ele>
        <time>2023-08-03T10:04:32.000Z</time>
      </trkpt>
      <trkpt lat="47.33285" lon="6.86852">
        <ele>413.79998779297</ele>
        <time>2023-08-03T10:04:36.000Z</time>
      </trkpt>
      <trkpt lat="47.33293" lon="6.86851">
        <ele>414.20001220703</ele>
        <time>2023-08-03T10:04:38.000Z</time>
      </trkpt>
      <trkpt lat="47.33307" lon="6.8685">
        <ele>415.39999389648</ele>
        <time>2023-08-03T10:04:42.000Z</time>
      </trkpt>
      <trkpt lat="47.33314" lon="6.86851">
        <ele>415.79998779297</ele>
        <time>2023-08-03T10:04:44.000Z</time>
      </trkpt>
      <trkpt lat="47.33322" lon="6.86853">
        <ele>416.39999389648</ele>
        <time>2023-08-03T10:04:46.000Z</time>
      </trkpt>
      <trkpt lat="47.33356" lon="6.86856">
        <ele>417.39999389648</ele>
        <time>2023-08-03T10:04:54.000Z</time>
      </trkpt>
      <trkpt lat="47.3336" lon="6.86857">
        <ele>417.39999389648</ele>
        <time>2023-08-03T10:04:55.000Z</time>
      </trkpt>
      <trkpt lat="47.33396" lon="6.86859">
        <ele>418.60000610352</ele>
        <time>2023-08-03T10:05:03.000Z</time>
      </trkpt>
      <trkpt lat="47.3343" lon="6.86861">
        <ele>419</ele>
        <time>2023-08-03T10:05:10.000Z</time>
      </trkpt>
      <trkpt lat="47.33435" lon="6.86861">
        <ele>419</ele>
        <time>2023-08-03T10:05:11.000Z</time>
      </trkpt>
      <trkpt lat="47.33458" lon="6.86862">
        <ele>419.39999389648</ele>
        <time>2023-08-03T10:05:15.000Z</time>
      </trkpt>
      <trkpt lat="47.33469" lon="6.86864">
        <ele>419.60000610352</ele>
        <time>2023-08-03T10:05:17.000Z</time>
      </trkpt>
      <trkpt lat="47.33502" lon="6.86876">
        <ele>419.60000610352</ele>
        <time>2023-08-03T10:05:23.000Z</time>
      </trkpt>
      <trkpt lat="47.33524" lon="6.869">
        <ele>419.39999389648</ele>
        <time>2023-08-03T10:05:28.000Z</time>
      </trkpt>
      <trkpt lat="47.33551" lon="6.86943">
        <ele>419</ele>
        <time>2023-08-03T10:05:35.000Z</time>
      </trkpt>
      <trkpt lat="47.33589" lon="6.87006">
        <ele>418.20001220703</ele>
        <time>2023-08-03T10:05:45.000Z</time>
      </trkpt>
      <trkpt lat="47.33597" lon="6.87018">
        <ele>418.20001220703</ele>
        <time>2023-08-03T10:05:47.000Z</time>
      </trkpt>
      <trkpt lat="47.33631" lon="6.87075">
        <ele>418.20001220703</ele>
        <time>2023-08-03T10:05:56.000Z</time>
      </trkpt>
      <trkpt lat="47.33634" lon="6.87081">
        <ele>418.20001220703</ele>
        <time>2023-08-03T10:05:57.000Z</time>
      </trkpt>
      <trkpt lat="47.33665" lon="6.8713">
        <ele>418.20001220703</ele>
        <time>2023-08-03T10:06:05.000Z</time>
      </trkpt>
      <trkpt lat="47.33704" lon="6.87179">
        <ele>418.60000610352</ele>
        <time>2023-08-03T10:06:14.000Z</time>
      </trkpt>
      <trkpt lat="47.33728" lon="6.87218">
        <ele>420.20001220703</ele>
        <time>2023-08-03T10:06:20.000Z</time>
      </trkpt>
      <trkpt lat="47.33731" lon="6.87225">
        <ele>420.39999389648</ele>
        <time>2023-08-03T10:06:21.000Z</time>
      </trkpt>
      <trkpt lat="47.33742" lon="6.87269">
        <ele>420.60000610352</ele>
        <time>2023-08-03T10:06:26.000Z</time>
      </trkpt>
      <trkpt lat="47.33743" lon="6.87277">
        <ele>420.60000610352</ele>
        <time>2023-08-03T10:06:27.000Z</time>
      </trkpt>
      <trkpt lat="47.33745" lon="6.87308">
        <ele>420.79998779297</ele>
        <time>2023-08-03T10:06:30.000Z</time>
      </trkpt>
      <trkpt lat="47.33745" lon="6.87318">
        <ele>420.79998779297</ele>
        <time>2023-08-03T10:06:31.000Z</time>
      </trkpt>
      <trkpt lat="47.33744" lon="6.87347">
        <ele>421.20001220703</ele>
        <time>2023-08-03T10:06:34.000Z</time>
      </trkpt>
      <trkpt lat="47.33744" lon="6.87401">
        <ele>421.60000610352</ele>
        <time>2023-08-03T10:06:40.000Z</time>
      </trkpt>
      <trkpt lat="47.33745" lon="6.8741">
        <ele>421.60000610352</ele>
        <time>2023-08-03T10:06:41.000Z</time>
      </trkpt>
      <trkpt lat="47.3375" lon="6.87435">
        <ele>421.60000610352</ele>
        <time>2023-08-03T10:06:44.000Z</time>
      </trkpt>
      <trkpt lat="47.33769" lon="6.87479">
        <ele>421.60000610352</ele>
        <time>2023-08-03T10:06:50.000Z</time>
      </trkpt>
      <trkpt lat="47.33793" lon="6.87527">
        <ele>421.79998779297</ele>
        <time>2023-08-03T10:06:57.000Z</time>
      </trkpt>
      <trkpt lat="47.33812" lon="6.87563">
        <ele>421.79998779297</ele>
        <time>2023-08-03T10:07:02.000Z</time>
      </trkpt>
      <trkpt lat="47.3384" lon="6.87619">
        <ele>421.79998779297</ele>
        <time>2023-08-03T10:07:10.000Z</time>
      </trkpt>
      <trkpt lat="47.33861" lon="6.8766">
        <ele>421.20001220703</ele>
        <time>2023-08-03T10:07:15.000Z</time>
      </trkpt>
      <trkpt lat="47.33871" lon="6.87677">
        <ele>420.20001220703</ele>
        <time>2023-08-03T10:07:17.000Z</time>
      </trkpt>
      <trkpt lat="47.33885" lon="6.87703">
        <ele>419.20001220703</ele>
        <time>2023-08-03T10:07:20.000Z</time>
      </trkpt>
      <trkpt lat="47.3389" lon="6.87712">
        <ele>418.79998779297</ele>
        <time>2023-08-03T10:07:21.000Z</time>
      </trkpt>
      <trkpt lat="47.33905" lon="6.87736">
        <ele>418</ele>
        <time>2023-08-03T10:07:24.000Z</time>
      </trkpt>
      <trkpt lat="47.33932" lon="6.87774">
        <ele>417.79998779297</ele>
        <time>2023-08-03T10:07:29.000Z</time>
      </trkpt>
      <trkpt lat="47.33956" lon="6.87812">
        <ele>418.20001220703</ele>
        <time>2023-08-03T10:07:34.000Z</time>
      </trkpt>
      <trkpt lat="47.33964" lon="6.87827">
        <ele>418.20001220703</ele>
        <time>2023-08-03T10:07:36.000Z</time>
      </trkpt>
      <trkpt lat="47.33993" lon="6.8788">
        <ele>418.20001220703</ele>
        <time>2023-08-03T10:07:43.000Z</time>
      </trkpt>
      <trkpt lat="47.34029" lon="6.87947">
        <ele>417.79998779297</ele>
        <time>2023-08-03T10:07:52.000Z</time>
      </trkpt>
      <trkpt lat="47.34033" lon="6.87954">
        <ele>417.79998779297</ele>
        <time>2023-08-03T10:07:53.000Z</time>
      </trkpt>
      <trkpt lat="47.34071" lon="6.88019">
        <ele>418</ele>
        <time>2023-08-03T10:08:02.000Z</time>
      </trkpt>
      <trkpt lat="47.34107" lon="6.88076">
        <ele>417.79998779297</ele>
        <time>2023-08-03T10:08:10.000Z</time>
      </trkpt>
      <trkpt lat="47.34138" lon="6.88128">
        <ele>417.39999389648</ele>
        <time>2023-08-03T10:08:17.000Z</time>
      </trkpt>
      <trkpt lat="47.34145" lon="6.8814">
        <ele>417.20001220703</ele>
        <time>2023-08-03T10:08:19.000Z</time>
      </trkpt>
      <trkpt lat="47.34156" lon="6.8816">
        <ele>417.39999389648</ele>
        <time>2023-08-03T10:08:22.000Z</time>
      </trkpt>
      <trkpt lat="47.34166" lon="6.88178">
        <ele>417.79998779297</ele>
        <time>2023-08-03T10:08:25.000Z</time>
      </trkpt>
      <trkpt lat="47.34169" lon="6.88184">
        <ele>417.79998779297</ele>
        <time>2023-08-03T10:08:26.000Z</time>
      </trkpt>
      <trkpt lat="47.34178" lon="6.88201">
        <ele>418.20001220703</ele>
        <time>2023-08-03T10:08:29.000Z</time>
      </trkpt>
      <trkpt lat="47.34187" lon="6.88214">
        <ele>418.60000610352</ele>
        <time>2023-08-03T10:08:31.000Z</time>
      </trkpt>
      <trkpt lat="47.342" lon="6.8823">
        <ele>419.20001220703</ele>
        <time>2023-08-03T10:08:34.000Z</time>
      </trkpt>
      <trkpt lat="47.34221" lon="6.88259">
        <ele>419.60000610352</ele>
        <time>2023-08-03T10:08:39.000Z</time>
      </trkpt>
      <trkpt lat="47.34237" lon="6.88276">
        <ele>420</ele>
        <time>2023-08-03T10:08:42.000Z</time>
      </trkpt>
      <trkpt lat="47.34245" lon="6.88288">
        <ele>420.39999389648</ele>
        <time>2023-08-03T10:08:44.000Z</time>
      </trkpt>
      <trkpt lat="47.34249" lon="6.88294">
        <ele>420.39999389648</ele>
        <time>2023-08-03T10:08:45.000Z</time>
      </trkpt>
      <trkpt lat="47.34252" lon="6.88303">
        <ele>420.60000610352</ele>
        <time>2023-08-03T10:08:46.000Z</time>
      </trkpt>
      <trkpt lat="47.34254" lon="6.88316">
        <ele>421.20001220703</ele>
        <time>2023-08-03T10:08:48.000Z</time>
      </trkpt>
      <trkpt lat="47.34256" lon="6.88323">
        <ele>421.39999389648</ele>
        <time>2023-08-03T10:08:49.000Z</time>
      </trkpt>
      <trkpt lat="47.34258" lon="6.88331">
        <ele>421.79998779297</ele>
        <time>2023-08-03T10:08:50.000Z</time>
      </trkpt>
      <trkpt lat="47.34269" lon="6.88357">
        <ele>423</ele>
        <time>2023-08-03T10:08:54.000Z</time>
      </trkpt>
      <trkpt lat="47.34272" lon="6.88363">
        <ele>423.20001220703</ele>
        <time>2023-08-03T10:08:55.000Z</time>
      </trkpt>
      <trkpt lat="47.34277" lon="6.88376">
        <ele>423.39999389648</ele>
        <time>2023-08-03T10:08:57.000Z</time>
      </trkpt>
      <trkpt lat="47.34285" lon="6.88406">
        <ele>424.20001220703</ele>
        <time>2023-08-03T10:09:02.000Z</time>
      </trkpt>
      <trkpt lat="47.34286" lon="6.88411">
        <ele>424.39999389648</ele>
        <time>2023-08-03T10:09:03.000Z</time>
      </trkpt>
      <trkpt lat="47.3429" lon="6.8843">
        <ele>425</ele>
        <time>2023-08-03T10:09:06.000Z</time>
      </trkpt>
      <trkpt lat="47.34293" lon="6.88436">
        <ele>425.20001220703</ele>
        <time>2023-08-03T10:09:07.000Z</time>
      </trkpt>
      <trkpt lat="47.34295" lon="6.88442">
        <ele>425.39999389648</ele>
        <time>2023-08-03T10:09:08.000Z</time>
      </trkpt>
      <trkpt lat="47.34301" lon="6.8846">
        <ele>426</ele>
        <time>2023-08-03T10:09:11.000Z</time>
      </trkpt>
      <trkpt lat="47.34309" lon="6.88478">
        <ele>426.39999389648</ele>
        <time>2023-08-03T10:09:14.000Z</time>
      </trkpt>
      <trkpt lat="47.34319" lon="6.88498">
        <ele>427</ele>
        <time>2023-08-03T10:09:17.000Z</time>
      </trkpt>
      <trkpt lat="47.34327" lon="6.88519">
        <ele>427.20001220703</ele>
        <time>2023-08-03T10:09:20.000Z</time>
      </trkpt>
      <trkpt lat="47.34329" lon="6.88528">
        <ele>427.60000610352</ele>
        <time>2023-08-03T10:09:21.000Z</time>
      </trkpt>
      <trkpt lat="47.34332" lon="6.88542">
        <ele>428</ele>
        <time>2023-08-03T10:09:23.000Z</time>
      </trkpt>
      <trkpt lat="47.34334" lon="6.88556">
        <ele>428.20001220703</ele>
        <time>2023-08-03T10:09:25.000Z</time>
      </trkpt>
      <trkpt lat="47.34336" lon="6.88563">
        <ele>428.60000610352</ele>
        <time>2023-08-03T10:09:26.000Z</time>
      </trkpt>
      <trkpt lat="47.34344" lon="6.88597">
        <ele>429.60000610352</ele>
        <time>2023-08-03T10:09:31.000Z</time>
      </trkpt>
      <trkpt lat="47.34351" lon="6.88624">
        <ele>430.39999389648</ele>
        <time>2023-08-03T10:09:35.000Z</time>
      </trkpt>
      <trkpt lat="47.34355" lon="6.88638">
        <ele>430.60000610352</ele>
        <time>2023-08-03T10:09:37.000Z</time>
      </trkpt>
      <trkpt lat="47.34361" lon="6.88657">
        <ele>431</ele>
        <time>2023-08-03T10:09:40.000Z</time>
      </trkpt>
      <trkpt lat="47.34374" lon="6.8871">
        <ele>431</ele>
        <time>2023-08-03T10:09:47.000Z</time>
      </trkpt>
      <trkpt lat="47.34375" lon="6.88717">
        <ele>431</ele>
        <time>2023-08-03T10:09:48.000Z</time>
      </trkpt>
      <trkpt lat="47.34376" lon="6.88734">
        <ele>431</ele>
        <time>2023-08-03T10:09:50.000Z</time>
      </trkpt>
      <trkpt lat="47.34377" lon="6.88752">
        <ele>431</ele>
        <time>2023-08-03T10:09:52.000Z</time>
      </trkpt>
      <trkpt lat="47.34377" lon="6.8877">
        <ele>431</ele>
        <time>2023-08-03T10:09:54.000Z</time>
      </trkpt>
      <trkpt lat="47.34376" lon="6.88813">
        <ele>431.20001220703</ele>
        <time>2023-08-03T10:09:59.000Z</time>
      </trkpt>
      <trkpt lat="47.34383" lon="6.88865">
        <ele>431.39999389648</ele>
        <time>2023-08-03T10:10:05.000Z</time>
      </trkpt>
      <trkpt lat="47.34385" lon="6.88874">
        <ele>431.39999389648</ele>
        <time>2023-08-03T10:10:06.000Z</time>
      </trkpt>
      <trkpt lat="47.34395" lon="6.88938">
        <ele>430.39999389648</ele>
        <time>2023-08-03T10:10:13.000Z</time>
      </trkpt>
      <trkpt lat="47.34397" lon="6.89002">
        <ele>429.79998779297</ele>
        <time>2023-08-03T10:10:19.000Z</time>
      </trkpt>
      <trkpt lat="47.34397" lon="6.89013">
        <ele>429.60000610352</ele>
        <time>2023-08-03T10:10:20.000Z</time>
      </trkpt>
      <trkpt lat="47.34397" lon="6.8906">
        <ele>428.39999389648</ele>
        <time>2023-08-03T10:10:24.000Z</time>
      </trkpt>
      <trkpt lat="47.34397" lon="6.89084">
        <ele>427.60000610352</ele>
        <time>2023-08-03T10:10:26.000Z</time>
      </trkpt>
      <trkpt lat="47.34397" lon="6.89096">
        <ele>427.39999389648</ele>
        <time>2023-08-03T10:10:27.000Z</time>
      </trkpt>
      <trkpt lat="47.34396" lon="6.89144">
        <ele>426.39999389648</ele>
        <time>2023-08-03T10:10:31.000Z</time>
      </trkpt>
      <trkpt lat="47.34395" lon="6.89166">
        <ele>426.20001220703</ele>
        <time>2023-08-03T10:10:33.000Z</time>
      </trkpt>
      <trkpt lat="47.34388" lon="6.89222">
        <ele>426.60000610352</ele>
        <time>2023-08-03T10:10:39.000Z</time>
      </trkpt>
      <trkpt lat="47.34387" lon="6.89231">
        <ele>427</ele>
        <time>2023-08-03T10:10:40.000Z</time>
      </trkpt>
      <trkpt lat="47.34381" lon="6.89265">
        <ele>427.60000610352</ele>
        <time>2023-08-03T10:10:44.000Z</time>
      </trkpt>
      <trkpt lat="47.34379" lon="6.8928">
        <ele>428</ele>
        <time>2023-08-03T10:10:46.000Z</time>
      </trkpt>
      <trkpt lat="47.34376" lon="6.89297">
        <ele>428.79998779297</ele>
        <time>2023-08-03T10:10:48.000Z</time>
      </trkpt>
      <trkpt lat="47.34372" lon="6.89317">
        <ele>429.20001220703</ele>
        <time>2023-08-03T10:10:51.000Z</time>
      </trkpt>
      <trkpt lat="47.3437" lon="6.89325">
        <ele>429.39999389648</ele>
        <time>2023-08-03T10:10:52.000Z</time>
      </trkpt>
      <trkpt lat="47.34367" lon="6.8934">
        <ele>429.79998779297</ele>
        <time>2023-08-03T10:10:54.000Z</time>
      </trkpt>
      <trkpt lat="47.34363" lon="6.89363">
        <ele>430.60000610352</ele>
        <time>2023-08-03T10:10:57.000Z</time>
      </trkpt>
      <trkpt lat="47.34361" lon="6.89369">
        <ele>430.60000610352</ele>
        <time>2023-08-03T10:10:58.000Z</time>
      </trkpt>
      <trkpt lat="47.34358" lon="6.89377">
        <ele>431.20001220703</ele>
        <time>2023-08-03T10:10:59.000Z</time>
      </trkpt>
      <trkpt lat="47.34352" lon="6.89391">
        <ele>431.39999389648</ele>
        <time>2023-08-03T10:11:01.000Z</time>
      </trkpt>
      <trkpt lat="47.34344" lon="6.89413">
        <ele>431.60000610352</ele>
        <time>2023-08-03T10:11:04.000Z</time>
      </trkpt>
      <trkpt lat="47.34342" lon="6.8942">
        <ele>431.79998779297</ele>
        <time>2023-08-03T10:11:05.000Z</time>
      </trkpt>
      <trkpt lat="47.34339" lon="6.89436">
        <ele>432</ele>
        <time>2023-08-03T10:11:07.000Z</time>
      </trkpt>
      <trkpt lat="47.34337" lon="6.89451">
        <ele>432.20001220703</ele>
        <time>2023-08-03T10:11:09.000Z</time>
      </trkpt>
      <trkpt lat="47.34336" lon="6.89467">
        <ele>432.20001220703</ele>
        <time>2023-08-03T10:11:11.000Z</time>
      </trkpt>
      <trkpt lat="47.34342" lon="6.89524">
        <ele>432.20001220703</ele>
        <time>2023-08-03T10:11:18.000Z</time>
      </trkpt>
      <trkpt lat="47.34358" lon="6.8961">
        <ele>431.39999389648</ele>
        <time>2023-08-03T10:11:28.000Z</time>
      </trkpt>
      <trkpt lat="47.3436" lon="6.89619">
        <ele>431.20001220703</ele>
        <time>2023-08-03T10:11:29.000Z</time>
      </trkpt>
      <trkpt lat="47.34371" lon="6.89668">
        <ele>430.60000610352</ele>
        <time>2023-08-03T10:11:35.000Z</time>
      </trkpt>
      <trkpt lat="47.34383" lon="6.89717">
        <ele>430.60000610352</ele>
        <time>2023-08-03T10:11:41.000Z</time>
      </trkpt>
      <trkpt lat="47.34396" lon="6.89769">
        <ele>430.20001220703</ele>
        <time>2023-08-03T10:11:47.000Z</time>
      </trkpt>
      <trkpt lat="47.344" lon="6.89787">
        <ele>429.79998779297</ele>
        <time>2023-08-03T10:11:49.000Z</time>
      </trkpt>
      <trkpt lat="47.34414" lon="6.89839">
        <ele>429.20001220703</ele>
        <time>2023-08-03T10:11:55.000Z</time>
      </trkpt>
      <trkpt lat="47.34419" lon="6.89855">
        <ele>429</ele>
        <time>2023-08-03T10:11:57.000Z</time>
      </trkpt>
      <trkpt lat="47.34442" lon="6.89919">
        <ele>428.60000610352</ele>
        <time>2023-08-03T10:12:05.000Z</time>
      </trkpt>
      <trkpt lat="47.34479" lon="6.89986">
        <ele>428.79998779297</ele>
        <time>2023-08-03T10:12:14.000Z</time>
      </trkpt>
      <trkpt lat="47.34505" lon="6.90028">
        <ele>428.20001220703</ele>
        <time>2023-08-03T10:12:19.000Z</time>
      </trkpt>
      <trkpt lat="47.3452" lon="6.90053">
        <ele>428</ele>
        <time>2023-08-03T10:12:22.000Z</time>
      </trkpt>
      <trkpt lat="47.34545" lon="6.90096">
        <ele>427.20001220703</ele>
        <time>2023-08-03T10:12:27.000Z</time>
      </trkpt>
      <trkpt lat="47.34561" lon="6.90122">
        <ele>426.79998779297</ele>
        <time>2023-08-03T10:12:30.000Z</time>
      </trkpt>
      <trkpt lat="47.34599" lon="6.90185">
        <ele>426.20001220703</ele>
        <time>2023-08-03T10:12:37.000Z</time>
      </trkpt>
      <trkpt lat="47.34605" lon="6.90195">
        <ele>425.79998779297</ele>
        <time>2023-08-03T10:12:38.000Z</time>
      </trkpt>
      <trkpt lat="47.34628" lon="6.9024">
        <ele>425</ele>
        <time>2023-08-03T10:12:42.000Z</time>
      </trkpt>
      <trkpt lat="47.34632" lon="6.90249">
        <ele>424.79998779297</ele>
        <time>2023-08-03T10:12:43.000Z</time>
      </trkpt>
      <trkpt lat="47.3465" lon="6.90298">
        <ele>423.79998779297</ele>
        <time>2023-08-03T10:12:47.000Z</time>
      </trkpt>
      <trkpt lat="47.34655" lon="6.90318">
        <ele>423.60000610352</ele>
        <time>2023-08-03T10:12:49.000Z</time>
      </trkpt>
      <trkpt lat="47.34663" lon="6.90368">
        <ele>423.39999389648</ele>
        <time>2023-08-03T10:12:54.000Z</time>
      </trkpt>
      <trkpt lat="47.34668" lon="6.90394">
        <ele>423.60000610352</ele>
        <time>2023-08-03T10:12:57.000Z</time>
      </trkpt>
      <trkpt lat="47.3467" lon="6.90409">
        <ele>423.79998779297</ele>
        <time>2023-08-03T10:12:59.000Z</time>
      </trkpt>
      <trkpt lat="47.34671" lon="6.90416">
        <ele>423.79998779297</ele>
        <time>2023-08-03T10:13:00.000Z</time>
      </trkpt>
      <trkpt lat="47.34676" lon="6.90443">
        <ele>425.20001220703</ele>
        <time>2023-08-03T10:13:04.000Z</time>
      </trkpt>
      <trkpt lat="47.3468" lon="6.90469">
        <ele>426.20001220703</ele>
        <time>2023-08-03T10:13:08.000Z</time>
      </trkpt>
      <trkpt lat="47.34681" lon="6.90474">
        <ele>426.39999389648</ele>
        <time>2023-08-03T10:13:09.000Z</time>
      </trkpt>
      <trkpt lat="47.34683" lon="6.90495">
        <ele>426.60000610352</ele>
        <time>2023-08-03T10:13:12.000Z</time>
      </trkpt>
      <trkpt lat="47.34685" lon="6.90506">
        <ele>426.79998779297</ele>
        <time>2023-08-03T10:13:14.000Z</time>
      </trkpt>
      <trkpt lat="47.34685" lon="6.90565">
        <ele>427.39999389648</ele>
        <time>2023-08-03T10:13:22.000Z</time>
      </trkpt>
      <trkpt lat="47.34676" lon="6.90637">
        <ele>427.79998779297</ele>
        <time>2023-08-03T10:13:31.000Z</time>
      </trkpt>
      <trkpt lat="47.34669" lon="6.90689">
        <ele>428</ele>
        <time>2023-08-03T10:13:36.000Z</time>
      </trkpt>
      <trkpt lat="47.34665" lon="6.90737">
        <ele>427</ele>
        <time>2023-08-03T10:13:40.000Z</time>
      </trkpt>
      <trkpt lat="47.34665" lon="6.9075">
        <ele>426.60000610352</ele>
        <time>2023-08-03T10:13:41.000Z</time>
      </trkpt>
      <trkpt lat="47.34666" lon="6.90762">
        <ele>426.39999389648</ele>
        <time>2023-08-03T10:13:42.000Z</time>
      </trkpt>
      <trkpt lat="47.3467" lon="6.908">
        <ele>426</ele>
        <time>2023-08-03T10:13:45.000Z</time>
      </trkpt>
      <trkpt lat="47.34672" lon="6.90812">
        <ele>425.79998779297</ele>
        <time>2023-08-03T10:13:46.000Z</time>
      </trkpt>
      <trkpt lat="47.34677" lon="6.90895">
        <ele>425.60000610352</ele>
        <time>2023-08-03T10:13:53.000Z</time>
      </trkpt>
      <trkpt lat="47.34673" lon="6.90943">
        <ele>425.79998779297</ele>
        <time>2023-08-03T10:13:58.000Z</time>
      </trkpt>
      <trkpt lat="47.34664" lon="6.91005">
        <ele>426.79998779297</ele>
        <time>2023-08-03T10:14:05.000Z</time>
      </trkpt>
      <trkpt lat="47.34652" lon="6.91088">
        <ele>426.39999389648</ele>
        <time>2023-08-03T10:14:14.000Z</time>
      </trkpt>
      <trkpt lat="47.34653" lon="6.9114">
        <ele>426.39999389648</ele>
        <time>2023-08-03T10:14:20.000Z</time>
      </trkpt>
      <trkpt lat="47.34653" lon="6.91148">
        <ele>426.39999389648</ele>
        <time>2023-08-03T10:14:21.000Z</time>
      </trkpt>
      <trkpt lat="47.34657" lon="6.91179">
        <ele>426.79998779297</ele>
        <time>2023-08-03T10:14:25.000Z</time>
      </trkpt>
      <trkpt lat="47.34659" lon="6.91187">
        <ele>427</ele>
        <time>2023-08-03T10:14:26.000Z</time>
      </trkpt>
      <trkpt lat="47.34664" lon="6.91209">
        <ele>427.79998779297</ele>
        <time>2023-08-03T10:14:29.000Z</time>
      </trkpt>
      <trkpt lat="47.34672" lon="6.91237">
        <ele>429</ele>
        <time>2023-08-03T10:14:33.000Z</time>
      </trkpt>
      <trkpt lat="47.34689" lon="6.9131">
        <ele>429.20001220703</ele>
        <time>2023-08-03T10:14:42.000Z</time>
      </trkpt>
      <trkpt lat="47.34707" lon="6.91391">
        <ele>428.39999389648</ele>
        <time>2023-08-03T10:14:51.000Z</time>
      </trkpt>
      <trkpt lat="47.34714" lon="6.91422">
        <ele>427.60000610352</ele>
        <time>2023-08-03T10:14:54.000Z</time>
      </trkpt>
      <trkpt lat="47.34719" lon="6.91445">
        <ele>427.20001220703</ele>
        <time>2023-08-03T10:14:56.000Z</time>
      </trkpt>
      <trkpt lat="47.34724" lon="6.9147">
        <ele>426.60000610352</ele>
        <time>2023-08-03T10:14:58.000Z</time>
      </trkpt>
      <trkpt lat="47.34733" lon="6.91513">
        <ele>425.60000610352</ele>
        <time>2023-08-03T10:15:01.000Z</time>
      </trkpt>
      <trkpt lat="47.34739" lon="6.91555">
        <ele>424.60000610352</ele>
        <time>2023-08-03T10:15:04.000Z</time>
      </trkpt>
      <trkpt lat="47.34744" lon="6.91596">
        <ele>423</ele>
        <time>2023-08-03T10:15:07.000Z</time>
      </trkpt>
      <trkpt lat="47.34745" lon="6.91609">
        <ele>422.60000610352</ele>
        <time>2023-08-03T10:15:08.000Z</time>
      </trkpt>
      <trkpt lat="47.34748" lon="6.91672">
        <ele>422</ele>
        <time>2023-08-03T10:15:13.000Z</time>
      </trkpt>
      <trkpt lat="47.34748" lon="6.91685">
        <ele>422</ele>
        <time>2023-08-03T10:15:14.000Z</time>
      </trkpt>
      <trkpt lat="47.34747" lon="6.91757">
        <ele>422</ele>
        <time>2023-08-03T10:15:20.000Z</time>
      </trkpt>
      <trkpt lat="47.34738" lon="6.91838">
        <ele>421.60000610352</ele>
        <time>2023-08-03T10:15:27.000Z</time>
      </trkpt>
      <trkpt lat="47.34726" lon="6.91887">
        <ele>421.20001220703</ele>
        <time>2023-08-03T10:15:32.000Z</time>
      </trkpt>
      <trkpt lat="47.34723" lon="6.91897">
        <ele>421</ele>
        <time>2023-08-03T10:15:33.000Z</time>
      </trkpt>
      <trkpt lat="47.34697" lon="6.91971">
        <ele>420.79998779297</ele>
        <time>2023-08-03T10:15:41.000Z</time>
      </trkpt>
      <trkpt lat="47.34694" lon="6.91978">
        <ele>420.79998779297</ele>
        <time>2023-08-03T10:15:42.000Z</time>
      </trkpt>
      <trkpt lat="47.34668" lon="6.92035">
        <ele>421</ele>
        <time>2023-08-03T10:15:49.000Z</time>
      </trkpt>
      <trkpt lat="47.34644" lon="6.92083">
        <ele>421.20001220703</ele>
        <time>2023-08-03T10:15:55.000Z</time>
      </trkpt>
      <trkpt lat="47.34634" lon="6.92104">
        <ele>421.20001220703</ele>
        <time>2023-08-03T10:15:58.000Z</time>
      </trkpt>
      <trkpt lat="47.34616" lon="6.92139">
        <ele>421.20001220703</ele>
        <time>2023-08-03T10:16:03.000Z</time>
      </trkpt>
      <trkpt lat="47.34598" lon="6.92176">
        <ele>420.79998779297</ele>
        <time>2023-08-03T10:16:09.000Z</time>
      </trkpt>
      <trkpt lat="47.34596" lon="6.92182">
        <ele>420.79998779297</ele>
        <time>2023-08-03T10:16:10.000Z</time>
      </trkpt>
      <trkpt lat="47.34594" lon="6.92197">
        <ele>420.79998779297</ele>
        <time>2023-08-03T10:16:12.000Z</time>
      </trkpt>
      <trkpt lat="47.34595" lon="6.92204">
        <ele>420.79998779297</ele>
        <time>2023-08-03T10:16:13.000Z</time>
      </trkpt>
      <trkpt lat="47.34596" lon="6.9221">
        <ele>420.60000610352</ele>
        <time>2023-08-03T10:16:14.000Z</time>
      </trkpt>
      <trkpt lat="47.34605" lon="6.92223">
        <ele>420.60000610352</ele>
        <time>2023-08-03T10:16:16.000Z</time>
      </trkpt>
      <trkpt lat="47.34615" lon="6.92235">
        <ele>420.79998779297</ele>
        <time>2023-08-03T10:16:18.000Z</time>
      </trkpt>
      <trkpt lat="47.34632" lon="6.92252">
        <ele>420.20001220703</ele>
        <time>2023-08-03T10:16:21.000Z</time>
      </trkpt>
      <trkpt lat="47.34658" lon="6.92281">
        <ele>419.20001220703</ele>
        <time>2023-08-03T10:16:26.000Z</time>
      </trkpt>
      <trkpt lat="47.34667" lon="6.9229">
        <ele>418.79998779297</ele>
        <time>2023-08-03T10:16:28.000Z</time>
      </trkpt>
      <trkpt lat="47.34701" lon="6.92326">
        <ele>418</ele>
        <time>2023-08-03T10:16:35.000Z</time>
      </trkpt>
      <trkpt lat="47.34726" lon="6.92346">
        <ele>417.60000610352</ele>
        <time>2023-08-03T10:16:40.000Z</time>
      </trkpt>
      <trkpt lat="47.3473" lon="6.9235">
        <ele>417.60000610352</ele>
        <time>2023-08-03T10:16:41.000Z</time>
      </trkpt>
      <trkpt lat="47.34734" lon="6.92354">
        <ele>417.60000610352</ele>
        <time>2023-08-03T10:16:42.000Z</time>
      </trkpt>
      <trkpt lat="47.34749" lon="6.92366">
        <ele>418.20001220703</ele>
        <time>2023-08-03T10:16:47.000Z</time>
      </trkpt>
      <trkpt lat="47.34753" lon="6.92373">
        <ele>418.60000610352</ele>
        <time>2023-08-03T10:16:49.000Z</time>
      </trkpt>
      <trkpt lat="47.34754" lon="6.92382">
        <ele>419</ele>
        <time>2023-08-03T10:16:51.000Z</time>
      </trkpt>
      <trkpt lat="47.34754" lon="6.92384">
        <ele>419</ele>
        <time>2023-08-03T10:16:52.000Z</time>
      </trkpt>
      <trkpt lat="47.34754" lon="6.92387">
        <ele>419.39999389648</ele>
        <time>2023-08-03T10:16:54.000Z</time>
      </trkpt>
      <trkpt lat="47.34754" lon="6.92388">
        <ele>419.60000610352</ele>
        <time>2023-08-03T10:16:55.000Z</time>
      </trkpt>
      <trkpt lat="47.34754" lon="6.92388">
        <ele>419.60000610352</ele>
        <time>2023-08-03T10:16:56.000Z</time>
      </trkpt>
      <trkpt lat="47.34761" lon="6.92386">
        <ele>422.39999389648</ele>
        <time>2023-08-03T10:28:01.000Z</time>
      </trkpt>
      <trkpt lat="47.34765" lon="6.92384">
        <ele>422.60000610352</ele>
        <time>2023-08-03T10:28:03.000Z</time>
      </trkpt>
      <trkpt lat="47.34777" lon="6.92386">
        <ele>422.60000610352</ele>
        <time>2023-08-03T10:28:08.000Z</time>
      </trkpt>
      <trkpt lat="47.34796" lon="6.92394">
        <ele>423.20001220703</ele>
        <time>2023-08-03T10:28:16.000Z</time>
      </trkpt>
      <trkpt lat="47.348" lon="6.92397">
        <ele>423.39999389648</ele>
        <time>2023-08-03T10:28:18.000Z</time>
      </trkpt>
      <trkpt lat="47.34807" lon="6.92403">
        <ele>424.39999389648</ele>
        <time>2023-08-03T10:28:21.000Z</time>
      </trkpt>
      <trkpt lat="47.34815" lon="6.92411">
        <ele>425.39999389648</ele>
        <time>2023-08-03T10:28:25.000Z</time>
      </trkpt>
      <trkpt lat="47.34817" lon="6.92413">
        <ele>425.60000610352</ele>
        <time>2023-08-03T10:28:26.000Z</time>
      </trkpt>
      <trkpt lat="47.34832" lon="6.92415">
        <ele>426.60000610352</ele>
        <time>2023-08-03T10:28:31.000Z</time>
      </trkpt>
      <trkpt lat="47.34834" lon="6.92415">
        <ele>426.60000610352</ele>
        <time>2023-08-03T10:28:32.000Z</time>
      </trkpt>
      <trkpt lat="47.34836" lon="6.92413">
        <ele>426.60000610352</ele>
        <time>2023-08-03T10:28:33.000Z</time>
      </trkpt>
      <trkpt lat="47.34838" lon="6.9241">
        <ele>426.79998779297</ele>
        <time>2023-08-03T10:28:34.000Z</time>
      </trkpt>
      <trkpt lat="47.3484" lon="6.92406">
        <ele>427</ele>
        <time>2023-08-03T10:28:35.000Z</time>
      </trkpt>
      <trkpt lat="47.3485" lon="6.92393">
        <ele>427.60000610352</ele>
        <time>2023-08-03T10:28:40.000Z</time>
      </trkpt>
      <trkpt lat="47.34852" lon="6.92391">
        <ele>427.60000610352</ele>
        <time>2023-08-03T10:28:41.000Z</time>
      </trkpt>
      <trkpt lat="47.3486" lon="6.92379">
        <ele>428.39999389648</ele>
        <time>2023-08-03T10:28:46.000Z</time>
      </trkpt>
      <trkpt lat="47.34865" lon="6.92372">
        <ele>428.79998779297</ele>
        <time>2023-08-03T10:28:49.000Z</time>
      </trkpt>
      <trkpt lat="47.34869" lon="6.92366">
        <ele>429.20001220703</ele>
        <time>2023-08-03T10:28:51.000Z</time>
      </trkpt>
      <trkpt lat="47.34874" lon="6.92358">
        <ele>429.79998779297</ele>
        <time>2023-08-03T10:28:54.000Z</time>
      </trkpt>
      <trkpt lat="47.34876" lon="6.92355">
        <ele>429.79998779297</ele>
        <time>2023-08-03T10:28:55.000Z</time>
      </trkpt>
      <trkpt lat="47.34887" lon="6.92346">
        <ele>431.20001220703</ele>
        <time>2023-08-03T10:29:00.000Z</time>
      </trkpt>
      <trkpt lat="47.34891" lon="6.92341">
        <ele>431.39999389648</ele>
        <time>2023-08-03T10:29:02.000Z</time>
      </trkpt>
      <trkpt lat="47.349" lon="6.92334">
        <ele>432.20001220703</ele>
        <time>2023-08-03T10:29:06.000Z</time>
      </trkpt>
      <trkpt lat="47.34904" lon="6.92333">
        <ele>432.60000610352</ele>
        <time>2023-08-03T10:29:08.000Z</time>
      </trkpt>
      <trkpt lat="47.3491" lon="6.9233">
        <ele>433.39999389648</ele>
        <time>2023-08-03T10:29:11.000Z</time>
      </trkpt>
      <trkpt lat="47.34921" lon="6.92326">
        <ele>434.39999389648</ele>
        <time>2023-08-03T10:29:16.000Z</time>
      </trkpt>
      <trkpt lat="47.34923" lon="6.92325">
        <ele>434.39999389648</ele>
        <time>2023-08-03T10:29:17.000Z</time>
      </trkpt>
      <trkpt lat="47.34935" lon="6.92317">
        <ele>435.60000610352</ele>
        <time>2023-08-03T10:29:24.000Z</time>
      </trkpt>
      <trkpt lat="47.34939" lon="6.92314">
        <ele>436</ele>
        <time>2023-08-03T10:29:26.000Z</time>
      </trkpt>
      <trkpt lat="47.34944" lon="6.92309">
        <ele>436.60000610352</ele>
        <time>2023-08-03T10:29:29.000Z</time>
      </trkpt>
      <trkpt lat="47.34949" lon="6.92303">
        <ele>437.60000610352</ele>
        <time>2023-08-03T10:29:32.000Z</time>
      </trkpt>
      <trkpt lat="47.3495" lon="6.92301">
        <ele>437.79998779297</ele>
        <time>2023-08-03T10:29:33.000Z</time>
      </trkpt>
      <trkpt lat="47.34954" lon="6.92297">
        <ele>438.39999389648</ele>
        <time>2023-08-03T10:29:35.000Z</time>
      </trkpt>
      <trkpt lat="47.34957" lon="6.9229">
        <ele>438.79998779297</ele>
        <time>2023-08-03T10:29:38.000Z</time>
      </trkpt>
      <trkpt lat="47.34958" lon="6.92287">
        <ele>439</ele>
        <time>2023-08-03T10:29:39.000Z</time>
      </trkpt>
      <trkpt lat="47.34962" lon="6.92273">
        <ele>440</ele>
        <time>2023-08-03T10:29:44.000Z</time>
      </trkpt>
      <trkpt lat="47.34962" lon="6.9227">
        <ele>440.20001220703</ele>
        <time>2023-08-03T10:29:45.000Z</time>
      </trkpt>
      <trkpt lat="47.34964" lon="6.92262">
        <ele>441.20001220703</ele>
        <time>2023-08-03T10:29:48.000Z</time>
      </trkpt>
      <trkpt lat="47.34966" lon="6.9225">
        <ele>442.20001220703</ele>
        <time>2023-08-03T10:29:52.000Z</time>
      </trkpt>
      <trkpt lat="47.34968" lon="6.9224">
        <ele>443.39999389648</ele>
        <time>2023-08-03T10:29:55.000Z</time>
      </trkpt>
      <trkpt lat="47.34968" lon="6.9223">
        <ele>444.79998779297</ele>
        <time>2023-08-03T10:29:59.000Z</time>
      </trkpt>
      <trkpt lat="47.34967" lon="6.92224">
        <ele>445.39999389648</ele>
        <time>2023-08-03T10:30:01.000Z</time>
      </trkpt>
      <trkpt lat="47.34967" lon="6.92221">
        <ele>446</ele>
        <time>2023-08-03T10:30:02.000Z</time>
      </trkpt>
      <trkpt lat="47.34967" lon="6.92211">
        <ele>446.60000610352</ele>
        <time>2023-08-03T10:30:05.000Z</time>
      </trkpt>
      <trkpt lat="47.34966" lon="6.92203">
        <ele>447</ele>
        <time>2023-08-03T10:30:07.000Z</time>
      </trkpt>
      <trkpt lat="47.34966" lon="6.92195">
        <ele>447.39999389648</ele>
        <time>2023-08-03T10:30:09.000Z</time>
      </trkpt>
      <trkpt lat="47.34966" lon="6.92168">
        <ele>447.79998779297</ele>
        <time>2023-08-03T10:30:15.000Z</time>
      </trkpt>
      <trkpt lat="47.34971" lon="6.92136">
        <ele>447.79998779297</ele>
        <time>2023-08-03T10:30:20.000Z</time>
      </trkpt>
      <trkpt lat="47.34977" lon="6.92106">
        <ele>447.60000610352</ele>
        <time>2023-08-03T10:30:24.000Z</time>
      </trkpt>
      <trkpt lat="47.34982" lon="6.92089">
        <ele>447.60000610352</ele>
        <time>2023-08-03T10:30:26.000Z</time>
      </trkpt>
      <trkpt lat="47.34998" lon="6.92048">
        <ele>446.79998779297</ele>
        <time>2023-08-03T10:30:32.000Z</time>
      </trkpt>
      <trkpt lat="47.35004" lon="6.92036">
        <ele>446.39999389648</ele>
        <time>2023-08-03T10:30:34.000Z</time>
      </trkpt>
      <trkpt lat="47.35012" lon="6.92018">
        <ele>446.20001220703</ele>
        <time>2023-08-03T10:30:37.000Z</time>
      </trkpt>
      <trkpt lat="47.35023" lon="6.91995">
        <ele>446.20001220703</ele>
        <time>2023-08-03T10:30:41.000Z</time>
      </trkpt>
      <trkpt lat="47.35025" lon="6.91989">
        <ele>446.20001220703</ele>
        <time>2023-08-03T10:30:42.000Z</time>
      </trkpt>
      <trkpt lat="47.35028" lon="6.91978">
        <ele>446</ele>
        <time>2023-08-03T10:30:44.000Z</time>
      </trkpt>
      <trkpt lat="47.35036" lon="6.91949">
        <ele>446.20001220703</ele>
        <time>2023-08-03T10:30:50.000Z</time>
      </trkpt>
      <trkpt lat="47.35042" lon="6.91927">
        <ele>446.39999389648</ele>
        <time>2023-08-03T10:30:56.000Z</time>
      </trkpt>
      <trkpt lat="47.35045" lon="6.91908">
        <ele>447</ele>
        <time>2023-08-03T10:31:02.000Z</time>
      </trkpt>
      <trkpt lat="47.35048" lon="6.91895">
        <ele>447.39999389648</ele>
        <time>2023-08-03T10:31:06.000Z</time>
      </trkpt>
      <trkpt lat="47.35049" lon="6.91892">
        <ele>447.79998779297</ele>
        <time>2023-08-03T10:31:07.000Z</time>
      </trkpt>
      <trkpt lat="47.35051" lon="6.9188">
        <ele>448.60000610352</ele>
        <time>2023-08-03T10:31:11.000Z</time>
      </trkpt>
      <trkpt lat="47.35052" lon="6.91877">
        <ele>448.60000610352</ele>
        <time>2023-08-03T10:31:12.000Z</time>
      </trkpt>
      <trkpt lat="47.35053" lon="6.91871">
        <ele>449</ele>
        <time>2023-08-03T10:31:14.000Z</time>
      </trkpt>
      <trkpt lat="47.35056" lon="6.91858">
        <ele>449.79998779297</ele>
        <time>2023-08-03T10:31:18.000Z</time>
      </trkpt>
      <trkpt lat="47.35056" lon="6.91843">
        <ele>451</ele>
        <time>2023-08-03T10:31:23.000Z</time>
      </trkpt>
      <trkpt lat="47.35055" lon="6.91839">
        <ele>451</ele>
        <time>2023-08-03T10:31:24.000Z</time>
      </trkpt>
      <trkpt lat="47.35054" lon="6.91827">
        <ele>452.20001220703</ele>
        <time>2023-08-03T10:31:28.000Z</time>
      </trkpt>
      <trkpt lat="47.35055" lon="6.91824">
        <ele>452.39999389648</ele>
        <time>2023-08-03T10:31:29.000Z</time>
      </trkpt>
      <trkpt lat="47.35054" lon="6.91811">
        <ele>453.20001220703</ele>
        <time>2023-08-03T10:31:33.000Z</time>
      </trkpt>
      <trkpt lat="47.35053" lon="6.91799">
        <ele>454.60000610352</ele>
        <time>2023-08-03T10:31:37.000Z</time>
      </trkpt>
      <trkpt lat="47.35053" lon="6.91791">
        <ele>455.20001220703</ele>
        <time>2023-08-03T10:31:39.000Z</time>
      </trkpt>
      <trkpt lat="47.35052" lon="6.91785">
        <ele>455.79998779297</ele>
        <time>2023-08-03T10:31:41.000Z</time>
      </trkpt>
      <trkpt lat="47.35049" lon="6.91769">
        <ele>456.39999389648</ele>
        <time>2023-08-03T10:31:46.000Z</time>
      </trkpt>
      <trkpt lat="47.35048" lon="6.91765">
        <ele>456.60000610352</ele>
        <time>2023-08-03T10:31:47.000Z</time>
      </trkpt>
      <trkpt lat="47.35048" lon="6.91757">
        <ele>457.79998779297</ele>
        <time>2023-08-03T10:31:50.000Z</time>
      </trkpt>
      <trkpt lat="47.35046" lon="6.91746">
        <ele>458.79998779297</ele>
        <time>2023-08-03T10:31:54.000Z</time>
      </trkpt>
      <trkpt lat="47.35046" lon="6.91743">
        <ele>459.39999389648</ele>
        <time>2023-08-03T10:31:55.000Z</time>
      </trkpt>
      <trkpt lat="47.35043" lon="6.91731">
        <ele>460.39999389648</ele>
        <time>2023-08-03T10:32:00.000Z</time>
      </trkpt>
      <trkpt lat="47.35042" lon="6.91728">
        <ele>460.39999389648</ele>
        <time>2023-08-03T10:32:01.000Z</time>
      </trkpt>
      <trkpt lat="47.35039" lon="6.91712">
        <ele>461.79998779297</ele>
        <time>2023-08-03T10:32:07.000Z</time>
      </trkpt>
      <trkpt lat="47.35034" lon="6.91704">
        <ele>462</ele>
        <time>2023-08-03T10:32:11.000Z</time>
      </trkpt>
      <trkpt lat="47.3503" lon="6.91698">
        <ele>462.20001220703</ele>
        <time>2023-08-03T10:32:14.000Z</time>
      </trkpt>
      <trkpt lat="47.35026" lon="6.91691">
        <ele>462.79998779297</ele>
        <time>2023-08-03T10:32:17.000Z</time>
      </trkpt>
      <trkpt lat="47.3502" lon="6.91683">
        <ele>464</ele>
        <time>2023-08-03T10:32:21.000Z</time>
      </trkpt>
      <trkpt lat="47.35015" lon="6.91671">
        <ele>465</ele>
        <time>2023-08-03T10:32:26.000Z</time>
      </trkpt>
      <trkpt lat="47.35013" lon="6.91663">
        <ele>466.20001220703</ele>
        <time>2023-08-03T10:32:29.000Z</time>
      </trkpt>
      <trkpt lat="47.35013" lon="6.91656">
        <ele>467.39999389648</ele>
        <time>2023-08-03T10:32:32.000Z</time>
      </trkpt>
      <trkpt lat="47.35014" lon="6.91646">
        <ele>468.60000610352</ele>
        <time>2023-08-03T10:32:36.000Z</time>
      </trkpt>
      <trkpt lat="47.35014" lon="6.91644">
        <ele>469.20001220703</ele>
        <time>2023-08-03T10:32:37.000Z</time>
      </trkpt>
      <trkpt lat="47.35016" lon="6.91639">
        <ele>469.79998779297</ele>
        <time>2023-08-03T10:32:39.000Z</time>
      </trkpt>
      <trkpt lat="47.35019" lon="6.9163">
        <ele>471</ele>
        <time>2023-08-03T10:32:42.000Z</time>
      </trkpt>
      <trkpt lat="47.35021" lon="6.91622">
        <ele>471.39999389648</ele>
        <time>2023-08-03T10:32:44.000Z</time>
      </trkpt>
      <trkpt lat="47.35026" lon="6.91613">
        <ele>472</ele>
        <time>2023-08-03T10:32:48.000Z</time>
      </trkpt>
      <trkpt lat="47.35032" lon="6.916">
        <ele>473.60000610352</ele>
        <time>2023-08-03T10:32:53.000Z</time>
      </trkpt>
      <trkpt lat="47.35034" lon="6.91597">
        <ele>473.79998779297</ele>
        <time>2023-08-03T10:32:54.000Z</time>
      </trkpt>
      <trkpt lat="47.35035" lon="6.91595">
        <ele>474</ele>
        <time>2023-08-03T10:32:55.000Z</time>
      </trkpt>
      <trkpt lat="47.35039" lon="6.91591">
        <ele>474.79998779297</ele>
        <time>2023-08-03T10:32:57.000Z</time>
      </trkpt>
      <trkpt lat="47.35049" lon="6.91584">
        <ele>476.20001220703</ele>
        <time>2023-08-03T10:33:02.000Z</time>
      </trkpt>
      <trkpt lat="47.35054" lon="6.91581">
        <ele>477.39999389648</ele>
        <time>2023-08-03T10:33:05.000Z</time>
      </trkpt>
      <trkpt lat="47.35062" lon="6.91577">
        <ele>478.39999389648</ele>
        <time>2023-08-03T10:33:10.000Z</time>
      </trkpt>
      <trkpt lat="47.3507" lon="6.91572">
        <ele>479.39999389648</ele>
        <time>2023-08-03T10:33:14.000Z</time>
      </trkpt>
      <trkpt lat="47.35079" lon="6.91565">
        <ele>480.79998779297</ele>
        <time>2023-08-03T10:33:19.000Z</time>
      </trkpt>
      <trkpt lat="47.35082" lon="6.91561">
        <ele>481.60000610352</ele>
        <time>2023-08-03T10:33:21.000Z</time>
      </trkpt>
      <trkpt lat="47.35084" lon="6.91559">
        <ele>481.79998779297</ele>
        <time>2023-08-03T10:33:22.000Z</time>
      </trkpt>
      <trkpt lat="47.35086" lon="6.91555">
        <ele>482.20001220703</ele>
        <time>2023-08-03T10:33:24.000Z</time>
      </trkpt>
      <trkpt lat="47.35091" lon="6.91548">
        <ele>483</ele>
        <time>2023-08-03T10:33:28.000Z</time>
      </trkpt>
      <trkpt lat="47.35094" lon="6.91544">
        <ele>483.60000610352</ele>
        <time>2023-08-03T10:33:30.000Z</time>
      </trkpt>
      <trkpt lat="47.35095" lon="6.91542">
        <ele>483.79998779297</ele>
        <time>2023-08-03T10:33:31.000Z</time>
      </trkpt>
      <trkpt lat="47.35097" lon="6.91537">
        <ele>484.39999389648</ele>
        <time>2023-08-03T10:33:33.000Z</time>
      </trkpt>
      <trkpt lat="47.35102" lon="6.91526">
        <ele>485</ele>
        <time>2023-08-03T10:33:38.000Z</time>
      </trkpt>
      <trkpt lat="47.35105" lon="6.91521">
        <ele>485.39999389648</ele>
        <time>2023-08-03T10:33:40.000Z</time>
      </trkpt>
      <trkpt lat="47.35109" lon="6.91508">
        <ele>486.39999389648</ele>
        <time>2023-08-03T10:33:44.000Z</time>
      </trkpt>
      <trkpt lat="47.35116" lon="6.91483">
        <ele>487.60000610352</ele>
        <time>2023-08-03T10:33:51.000Z</time>
      </trkpt>
      <trkpt lat="47.35118" lon="6.91476">
        <ele>487.79998779297</ele>
        <time>2023-08-03T10:33:53.000Z</time>
      </trkpt>
      <trkpt lat="47.3512" lon="6.91467">
        <ele>488</ele>
        <time>2023-08-03T10:33:56.000Z</time>
      </trkpt>
      <trkpt lat="47.35126" lon="6.91452">
        <ele>488.39999389648</ele>
        <time>2023-08-03T10:34:01.000Z</time>
      </trkpt>
      <trkpt lat="47.35129" lon="6.9144">
        <ele>488.79998779297</ele>
        <time>2023-08-03T10:34:05.000Z</time>
      </trkpt>
      <trkpt lat="47.35133" lon="6.91433">
        <ele>489.39999389648</ele>
        <time>2023-08-03T10:34:08.000Z</time>
      </trkpt>
      <trkpt lat="47.35134" lon="6.91428">
        <ele>490</ele>
        <time>2023-08-03T10:34:10.000Z</time>
      </trkpt>
      <trkpt lat="47.3514" lon="6.91416">
        <ele>491.20001220703</ele>
        <time>2023-08-03T10:34:15.000Z</time>
      </trkpt>
      <trkpt lat="47.35144" lon="6.91407">
        <ele>492.60000610352</ele>
        <time>2023-08-03T10:34:19.000Z</time>
      </trkpt>
      <trkpt lat="47.35145" lon="6.91402">
        <ele>493</ele>
        <time>2023-08-03T10:34:21.000Z</time>
      </trkpt>
      <trkpt lat="47.35147" lon="6.91388">
        <ele>493.79998779297</ele>
        <time>2023-08-03T10:34:25.000Z</time>
      </trkpt>
      <trkpt lat="47.35151" lon="6.91368">
        <ele>494.79998779297</ele>
        <time>2023-08-03T10:34:31.000Z</time>
      </trkpt>
      <trkpt lat="47.35152" lon="6.91365">
        <ele>494.79998779297</ele>
        <time>2023-08-03T10:34:32.000Z</time>
      </trkpt>
      <trkpt lat="47.35156" lon="6.91349">
        <ele>495.60000610352</ele>
        <time>2023-08-03T10:34:37.000Z</time>
      </trkpt>
      <trkpt lat="47.35157" lon="6.91343">
        <ele>496.20001220703</ele>
        <time>2023-08-03T10:34:39.000Z</time>
      </trkpt>
      <trkpt lat="47.35157" lon="6.91333">
        <ele>497.60000610352</ele>
        <time>2023-08-03T10:34:42.000Z</time>
      </trkpt>
      <trkpt lat="47.35159" lon="6.91323">
        <ele>498.60000610352</ele>
        <time>2023-08-03T10:34:45.000Z</time>
      </trkpt>
      <trkpt lat="47.3516" lon="6.91319">
        <ele>499</ele>
        <time>2023-08-03T10:34:46.000Z</time>
      </trkpt>
      <trkpt lat="47.3516" lon="6.91315">
        <ele>499.20001220703</ele>
        <time>2023-08-03T10:34:47.000Z</time>
      </trkpt>
      <trkpt lat="47.35161" lon="6.91304">
        <ele>499.60000610352</ele>
        <time>2023-08-03T10:34:50.000Z</time>
      </trkpt>
      <trkpt lat="47.35161" lon="6.91301">
        <ele>500</ele>
        <time>2023-08-03T10:34:51.000Z</time>
      </trkpt>
      <trkpt lat="47.35163" lon="6.91293">
        <ele>501.20001220703</ele>
        <time>2023-08-03T10:34:54.000Z</time>
      </trkpt>
      <trkpt lat="47.35165" lon="6.91289">
        <ele>501.79998779297</ele>
        <time>2023-08-03T10:34:56.000Z</time>
      </trkpt>
      <trkpt lat="47.35168" lon="6.9128">
        <ele>502.39999389648</ele>
        <time>2023-08-03T10:35:00.000Z</time>
      </trkpt>
      <trkpt lat="47.3517" lon="6.91273">
        <ele>503</ele>
        <time>2023-08-03T10:35:03.000Z</time>
      </trkpt>
      <trkpt lat="47.35172" lon="6.91265">
        <ele>503.39999389648</ele>
        <time>2023-08-03T10:35:06.000Z</time>
      </trkpt>
      <trkpt lat="47.35175" lon="6.91255">
        <ele>503.79998779297</ele>
        <time>2023-08-03T10:35:10.000Z</time>
      </trkpt>
      <trkpt lat="47.35177" lon="6.91248">
        <ele>504.39999389648</ele>
        <time>2023-08-03T10:35:13.000Z</time>
      </trkpt>
      <trkpt lat="47.35178" lon="6.91238">
        <ele>505.60000610352</ele>
        <time>2023-08-03T10:35:17.000Z</time>
      </trkpt>
      <trkpt lat="47.35178" lon="6.91235">
        <ele>505.60000610352</ele>
        <time>2023-08-03T10:35:18.000Z</time>
      </trkpt>
      <trkpt lat="47.35179" lon="6.91219">
        <ele>506.60000610352</ele>
        <time>2023-08-03T10:35:23.000Z</time>
      </trkpt>
      <trkpt lat="47.35178" lon="6.9121">
        <ele>507</ele>
        <time>2023-08-03T10:35:25.000Z</time>
      </trkpt>
      <trkpt lat="47.35181" lon="6.91201">
        <ele>507.60000610352</ele>
        <time>2023-08-03T10:35:27.000Z</time>
      </trkpt>
      <trkpt lat="47.35183" lon="6.91175">
        <ele>508.79998779297</ele>
        <time>2023-08-03T10:35:33.000Z</time>
      </trkpt>
      <trkpt lat="47.35184" lon="6.91172">
        <ele>508.79998779297</ele>
        <time>2023-08-03T10:35:34.000Z</time>
      </trkpt>
      <trkpt lat="47.35186" lon="6.91162">
        <ele>509.79998779297</ele>
        <time>2023-08-03T10:35:37.000Z</time>
      </trkpt>
      <trkpt lat="47.35187" lon="6.91158">
        <ele>510</ele>
        <time>2023-08-03T10:35:38.000Z</time>
      </trkpt>
      <trkpt lat="47.3519" lon="6.91151">
        <ele>510.39999389648</ele>
        <time>2023-08-03T10:35:40.000Z</time>
      </trkpt>
      <trkpt lat="47.35191" lon="6.91143">
        <ele>511</ele>
        <time>2023-08-03T10:35:42.000Z</time>
      </trkpt>
      <trkpt lat="47.35195" lon="6.91132">
        <ele>511.39999389648</ele>
        <time>2023-08-03T10:35:46.000Z</time>
      </trkpt>
      <trkpt lat="47.35199" lon="6.91117">
        <ele>512.20001220703</ele>
        <time>2023-08-03T10:35:51.000Z</time>
      </trkpt>
      <trkpt lat="47.35201" lon="6.91115">
        <ele>512.59997558594</ele>
        <time>2023-08-03T10:35:52.000Z</time>
      </trkpt>
      <trkpt lat="47.35204" lon="6.91107">
        <ele>513.40002441406</ele>
        <time>2023-08-03T10:35:55.000Z</time>
      </trkpt>
      <trkpt lat="47.3521" lon="6.91095">
        <ele>514</ele>
        <time>2023-08-03T10:36:00.000Z</time>
      </trkpt>
      <trkpt lat="47.35213" lon="6.91087">
        <ele>514.40002441406</ele>
        <time>2023-08-03T10:36:03.000Z</time>
      </trkpt>
      <trkpt lat="47.35222" lon="6.91076">
        <ele>515.40002441406</ele>
        <time>2023-08-03T10:36:08.000Z</time>
      </trkpt>
      <trkpt lat="47.3523" lon="6.91069">
        <ele>516.59997558594</ele>
        <time>2023-08-03T10:36:12.000Z</time>
      </trkpt>
      <trkpt lat="47.35235" lon="6.91064">
        <ele>518.20001220703</ele>
        <time>2023-08-03T10:36:15.000Z</time>
      </trkpt>
      <trkpt lat="47.35244" lon="6.91052">
        <ele>519.20001220703</ele>
        <time>2023-08-03T10:36:21.000Z</time>
      </trkpt>
      <trkpt lat="47.35246" lon="6.9105">
        <ele>519.20001220703</ele>
        <time>2023-08-03T10:36:22.000Z</time>
      </trkpt>
      <trkpt lat="47.35255" lon="6.91041">
        <ele>519.59997558594</ele>
        <time>2023-08-03T10:36:27.000Z</time>
      </trkpt>
      <trkpt lat="47.35257" lon="6.91041">
        <ele>519.79998779297</ele>
        <time>2023-08-03T10:36:28.000Z</time>
      </trkpt>
      <trkpt lat="47.35263" lon="6.91037">
        <ele>520.20001220703</ele>
        <time>2023-08-03T10:36:32.000Z</time>
      </trkpt>
      <trkpt lat="47.35269" lon="6.91034">
        <ele>520.59997558594</ele>
        <time>2023-08-03T10:36:35.000Z</time>
      </trkpt>
      <trkpt lat="47.35271" lon="6.91033">
        <ele>520.79998779297</ele>
        <time>2023-08-03T10:36:36.000Z</time>
      </trkpt>
      <trkpt lat="47.35274" lon="6.91026">
        <ele>521.20001220703</ele>
        <time>2023-08-03T10:36:38.000Z</time>
      </trkpt>
      <trkpt lat="47.35277" lon="6.9102">
        <ele>521.59997558594</ele>
        <time>2023-08-03T10:36:40.000Z</time>
      </trkpt>
      <trkpt lat="47.35283" lon="6.90999">
        <ele>522.40002441406</ele>
        <time>2023-08-03T10:36:46.000Z</time>
      </trkpt>
      <trkpt lat="47.35285" lon="6.90987">
        <ele>523.40002441406</ele>
        <time>2023-08-03T10:36:51.000Z</time>
      </trkpt>
      <trkpt lat="47.35285" lon="6.90985">
        <ele>523.59997558594</ele>
        <time>2023-08-03T10:36:52.000Z</time>
      </trkpt>
      <trkpt lat="47.35285" lon="6.90971">
        <ele>525</ele>
        <time>2023-08-03T10:36:55.000Z</time>
      </trkpt>
      <trkpt lat="47.35285" lon="6.90962">
        <ele>525.79998779297</ele>
        <time>2023-08-03T10:36:57.000Z</time>
      </trkpt>
      <trkpt lat="47.35286" lon="6.90954">
        <ele>526</ele>
        <time>2023-08-03T10:36:59.000Z</time>
      </trkpt>
      <trkpt lat="47.35287" lon="6.90941">
        <ele>526.40002441406</ele>
        <time>2023-08-03T10:37:02.000Z</time>
      </trkpt>
      <trkpt lat="47.35287" lon="6.90923">
        <ele>527.20001220703</ele>
        <time>2023-08-03T10:37:06.000Z</time>
      </trkpt>
      <trkpt lat="47.35291" lon="6.90909">
        <ele>528</ele>
        <time>2023-08-03T10:37:11.000Z</time>
      </trkpt>
      <trkpt lat="47.35292" lon="6.90904">
        <ele>528.20001220703</ele>
        <time>2023-08-03T10:37:12.000Z</time>
      </trkpt>
      <trkpt lat="47.35297" lon="6.90885">
        <ele>529.59997558594</ele>
        <time>2023-08-03T10:37:17.000Z</time>
      </trkpt>
      <trkpt lat="47.35304" lon="6.90878">
        <ele>530.20001220703</ele>
        <time>2023-08-03T10:37:20.000Z</time>
      </trkpt>
      <trkpt lat="47.35306" lon="6.90879">
        <ele>530.20001220703</ele>
        <time>2023-08-03T10:37:21.000Z</time>
      </trkpt>
      <trkpt lat="47.35306" lon="6.90882">
        <ele>530.59997558594</ele>
        <time>2023-08-03T10:37:22.000Z</time>
      </trkpt>
      <trkpt lat="47.35304" lon="6.90895">
        <ele>531.20001220703</ele>
        <time>2023-08-03T10:37:25.000Z</time>
      </trkpt>
      <trkpt lat="47.35301" lon="6.90914">
        <ele>531.59997558594</ele>
        <time>2023-08-03T10:37:30.000Z</time>
      </trkpt>
      <trkpt lat="47.353" lon="6.90917">
        <ele>531.79998779297</ele>
        <time>2023-08-03T10:37:31.000Z</time>
      </trkpt>
      <trkpt lat="47.35299" lon="6.90935">
        <ele>533</ele>
        <time>2023-08-03T10:37:36.000Z</time>
      </trkpt>
      <trkpt lat="47.353" lon="6.90942">
        <ele>533.20001220703</ele>
        <time>2023-08-03T10:37:38.000Z</time>
      </trkpt>
      <trkpt lat="47.35301" lon="6.90961">
        <ele>534</ele>
        <time>2023-08-03T10:37:43.000Z</time>
      </trkpt>
      <trkpt lat="47.35302" lon="6.90971">
        <ele>534.79998779297</ele>
        <time>2023-08-03T10:37:46.000Z</time>
      </trkpt>
      <trkpt lat="47.35302" lon="6.90975">
        <ele>535</ele>
        <time>2023-08-03T10:37:47.000Z</time>
      </trkpt>
      <trkpt lat="47.35303" lon="6.90984">
        <ele>536</ele>
        <time>2023-08-03T10:37:50.000Z</time>
      </trkpt>
      <trkpt lat="47.35306" lon="6.90997">
        <ele>537</ele>
        <time>2023-08-03T10:37:54.000Z</time>
      </trkpt>
      <trkpt lat="47.35306" lon="6.91001">
        <ele>537.40002441406</ele>
        <time>2023-08-03T10:37:55.000Z</time>
      </trkpt>
      <trkpt lat="47.35307" lon="6.91007">
        <ele>537.59997558594</ele>
        <time>2023-08-03T10:37:57.000Z</time>
      </trkpt>
      <trkpt lat="47.35309" lon="6.91014">
        <ele>537.79998779297</ele>
        <time>2023-08-03T10:37:59.000Z</time>
      </trkpt>
      <trkpt lat="47.35314" lon="6.9104">
        <ele>538.20001220703</ele>
        <time>2023-08-03T10:38:07.000Z</time>
      </trkpt>
      <trkpt lat="47.35314" lon="6.91043">
        <ele>538.40002441406</ele>
        <time>2023-08-03T10:38:08.000Z</time>
      </trkpt>
      <trkpt lat="47.35311" lon="6.91061">
        <ele>539.40002441406</ele>
        <time>2023-08-03T10:38:13.000Z</time>
      </trkpt>
      <trkpt lat="47.3531" lon="6.91064">
        <ele>539.59997558594</ele>
        <time>2023-08-03T10:38:14.000Z</time>
      </trkpt>
      <trkpt lat="47.35299" lon="6.91077">
        <ele>540.79998779297</ele>
        <time>2023-08-03T10:38:20.000Z</time>
      </trkpt>
      <trkpt lat="47.35297" lon="6.91079">
        <ele>541.20001220703</ele>
        <time>2023-08-03T10:38:21.000Z</time>
      </trkpt>
      <trkpt lat="47.35293" lon="6.91084">
        <ele>542.20001220703</ele>
        <time>2023-08-03T10:38:23.000Z</time>
      </trkpt>
      <trkpt lat="47.35288" lon="6.91097">
        <ele>543.40002441406</ele>
        <time>2023-08-03T10:38:27.000Z</time>
      </trkpt>
      <trkpt lat="47.35285" lon="6.91103">
        <ele>544</ele>
        <time>2023-08-03T10:38:29.000Z</time>
      </trkpt>
      <trkpt lat="47.35281" lon="6.91114">
        <ele>544.59997558594</ele>
        <time>2023-08-03T10:38:32.000Z</time>
      </trkpt>
      <trkpt lat="47.3528" lon="6.91129">
        <ele>545.40002441406</ele>
        <time>2023-08-03T10:38:36.000Z</time>
      </trkpt>
      <trkpt lat="47.35281" lon="6.91132">
        <ele>545.59997558594</ele>
        <time>2023-08-03T10:38:37.000Z</time>
      </trkpt>
      <trkpt lat="47.35283" lon="6.91146">
        <ele>547</ele>
        <time>2023-08-03T10:38:41.000Z</time>
      </trkpt>
      <trkpt lat="47.35284" lon="6.91157">
        <ele>547.79998779297</ele>
        <time>2023-08-03T10:38:44.000Z</time>
      </trkpt>
      <trkpt lat="47.35285" lon="6.91163">
        <ele>548.20001220703</ele>
        <time>2023-08-03T10:38:46.000Z</time>
      </trkpt>
      <trkpt lat="47.35286" lon="6.91174">
        <ele>548.59997558594</ele>
        <time>2023-08-03T10:38:49.000Z</time>
      </trkpt>
      <trkpt lat="47.35289" lon="6.91182">
        <ele>549.20001220703</ele>
        <time>2023-08-03T10:38:52.000Z</time>
      </trkpt>
      <trkpt lat="47.35294" lon="6.912">
        <ele>550.40002441406</ele>
        <time>2023-08-03T10:38:57.000Z</time>
      </trkpt>
      <trkpt lat="47.35294" lon="6.91203">
        <ele>550.59997558594</ele>
        <time>2023-08-03T10:38:58.000Z</time>
      </trkpt>
      <trkpt lat="47.353" lon="6.91222">
        <ele>551.40002441406</ele>
        <time>2023-08-03T10:39:04.000Z</time>
      </trkpt>
      <trkpt lat="47.35301" lon="6.91226">
        <ele>551.59997558594</ele>
        <time>2023-08-03T10:39:05.000Z</time>
      </trkpt>
      <trkpt lat="47.35305" lon="6.91248">
        <ele>552.40002441406</ele>
        <time>2023-08-03T10:39:11.000Z</time>
      </trkpt>
      <trkpt lat="47.35307" lon="6.91255">
        <ele>552.79998779297</ele>
        <time>2023-08-03T10:39:13.000Z</time>
      </trkpt>
      <trkpt lat="47.35308" lon="6.91268">
        <ele>553.79998779297</ele>
        <time>2023-08-03T10:39:17.000Z</time>
      </trkpt>
      <trkpt lat="47.35309" lon="6.91276">
        <ele>554.59997558594</ele>
        <time>2023-08-03T10:39:19.000Z</time>
      </trkpt>
      <trkpt lat="47.35309" lon="6.91279">
        <ele>555.20001220703</ele>
        <time>2023-08-03T10:39:20.000Z</time>
      </trkpt>
      <trkpt lat="47.35312" lon="6.91303">
        <ele>556.40002441406</ele>
        <time>2023-08-03T10:39:27.000Z</time>
      </trkpt>
      <trkpt lat="47.35313" lon="6.91317">
        <ele>557.20001220703</ele>
        <time>2023-08-03T10:39:31.000Z</time>
      </trkpt>
      <trkpt lat="47.35314" lon="6.91321">
        <ele>557.40002441406</ele>
        <time>2023-08-03T10:39:32.000Z</time>
      </trkpt>
      <trkpt lat="47.35314" lon="6.91328">
        <ele>557.59997558594</ele>
        <time>2023-08-03T10:39:34.000Z</time>
      </trkpt>
      <trkpt lat="47.35315" lon="6.91347">
        <ele>558.40002441406</ele>
        <time>2023-08-03T10:39:40.000Z</time>
      </trkpt>
      <trkpt lat="47.35316" lon="6.91351">
        <ele>558.59997558594</ele>
        <time>2023-08-03T10:39:41.000Z</time>
      </trkpt>
      <trkpt lat="47.35316" lon="6.91368">
        <ele>559.59997558594</ele>
        <time>2023-08-03T10:39:46.000Z</time>
      </trkpt>
      <trkpt lat="47.35316" lon="6.9138">
        <ele>560</ele>
        <time>2023-08-03T10:39:49.000Z</time>
      </trkpt>
      <trkpt lat="47.35316" lon="6.9139">
        <ele>560.59997558594</ele>
        <time>2023-08-03T10:39:51.000Z</time>
      </trkpt>
      <trkpt lat="47.35316" lon="6.91406">
        <ele>561</ele>
        <time>2023-08-03T10:39:55.000Z</time>
      </trkpt>
      <trkpt lat="47.35315" lon="6.91432">
        <ele>561.59997558594</ele>
        <time>2023-08-03T10:40:02.000Z</time>
      </trkpt>
      <trkpt lat="47.35315" lon="6.91435">
        <ele>561.79998779297</ele>
        <time>2023-08-03T10:40:03.000Z</time>
      </trkpt>
      <trkpt lat="47.35313" lon="6.91454">
        <ele>562.79998779297</ele>
        <time>2023-08-03T10:40:08.000Z</time>
      </trkpt>
      <trkpt lat="47.35313" lon="6.91457">
        <ele>563.20001220703</ele>
        <time>2023-08-03T10:40:09.000Z</time>
      </trkpt>
      <trkpt lat="47.35312" lon="6.91467">
        <ele>564</ele>
        <time>2023-08-03T10:40:12.000Z</time>
      </trkpt>
      <trkpt lat="47.35312" lon="6.9148">
        <ele>564.20001220703</ele>
        <time>2023-08-03T10:40:15.000Z</time>
      </trkpt>
      <trkpt lat="47.35312" lon="6.91504">
        <ele>565</ele>
        <time>2023-08-03T10:40:21.000Z</time>
      </trkpt>
      <trkpt lat="47.35312" lon="6.91509">
        <ele>565</ele>
        <time>2023-08-03T10:40:22.000Z</time>
      </trkpt>
      <trkpt lat="47.3531" lon="6.91537">
        <ele>566</ele>
        <time>2023-08-03T10:40:29.000Z</time>
      </trkpt>
      <trkpt lat="47.3531" lon="6.91548">
        <ele>566.20001220703</ele>
        <time>2023-08-03T10:40:32.000Z</time>
      </trkpt>
      <trkpt lat="47.35308" lon="6.91572">
        <ele>567.40002441406</ele>
        <time>2023-08-03T10:40:38.000Z</time>
      </trkpt>
      <trkpt lat="47.35304" lon="6.91605">
        <ele>568.40002441406</ele>
        <time>2023-08-03T10:40:47.000Z</time>
      </trkpt>
      <trkpt lat="47.35304" lon="6.9161">
        <ele>568.59997558594</ele>
        <time>2023-08-03T10:40:48.000Z</time>
      </trkpt>
      <trkpt lat="47.35302" lon="6.91629">
        <ele>569.40002441406</ele>
        <time>2023-08-03T10:40:53.000Z</time>
      </trkpt>
      <trkpt lat="47.35301" lon="6.91632">
        <ele>569.59997558594</ele>
        <time>2023-08-03T10:40:54.000Z</time>
      </trkpt>
      <trkpt lat="47.35301" lon="6.91635">
        <ele>569.79998779297</ele>
        <time>2023-08-03T10:40:55.000Z</time>
      </trkpt>
      <trkpt lat="47.353" lon="6.91646">
        <ele>570.40002441406</ele>
        <time>2023-08-03T10:40:58.000Z</time>
      </trkpt>
      <trkpt lat="47.35299" lon="6.91653">
        <ele>570.59997558594</ele>
        <time>2023-08-03T10:41:00.000Z</time>
      </trkpt>
      <trkpt lat="47.35297" lon="6.91669">
        <ele>571.59997558594</ele>
        <time>2023-08-03T10:41:04.000Z</time>
      </trkpt>
      <trkpt lat="47.35297" lon="6.91675">
        <ele>572.40002441406</ele>
        <time>2023-08-03T10:41:06.000Z</time>
      </trkpt>
      <trkpt lat="47.35297" lon="6.91679">
        <ele>572.79998779297</ele>
        <time>2023-08-03T10:41:07.000Z</time>
      </trkpt>
      <trkpt lat="47.35295" lon="6.91695">
        <ele>573.79998779297</ele>
        <time>2023-08-03T10:41:11.000Z</time>
      </trkpt>
      <trkpt lat="47.35294" lon="6.91703">
        <ele>574</ele>
        <time>2023-08-03T10:41:13.000Z</time>
      </trkpt>
      <trkpt lat="47.35292" lon="6.91722">
        <ele>574.79998779297</ele>
        <time>2023-08-03T10:41:18.000Z</time>
      </trkpt>
      <trkpt lat="47.35291" lon="6.91733">
        <ele>576.20001220703</ele>
        <time>2023-08-03T10:41:21.000Z</time>
      </trkpt>
      <trkpt lat="47.35289" lon="6.91757">
        <ele>577.40002441406</ele>
        <time>2023-08-03T10:41:27.000Z</time>
      </trkpt>
      <trkpt lat="47.35287" lon="6.91767">
        <ele>578.20001220703</ele>
        <time>2023-08-03T10:41:29.000Z</time>
      </trkpt>
      <trkpt lat="47.35287" lon="6.91771">
        <ele>578.79998779297</ele>
        <time>2023-08-03T10:41:30.000Z</time>
      </trkpt>
      <trkpt lat="47.35284" lon="6.91796">
        <ele>579.79998779297</ele>
        <time>2023-08-03T10:41:36.000Z</time>
      </trkpt>
      <trkpt lat="47.35283" lon="6.91801">
        <ele>579.79998779297</ele>
        <time>2023-08-03T10:41:37.000Z</time>
      </trkpt>
      <trkpt lat="47.35278" lon="6.91838">
        <ele>580.79998779297</ele>
        <time>2023-08-03T10:41:46.000Z</time>
      </trkpt>
      <trkpt lat="47.35278" lon="6.91842">
        <ele>581.20001220703</ele>
        <time>2023-08-03T10:41:47.000Z</time>
      </trkpt>
      <trkpt lat="47.35282" lon="6.91858">
        <ele>581.79998779297</ele>
        <time>2023-08-03T10:41:52.000Z</time>
      </trkpt>
      <trkpt lat="47.3529" lon="6.91859">
        <ele>582.79998779297</ele>
        <time>2023-08-03T10:41:56.000Z</time>
      </trkpt>
      <trkpt lat="47.35295" lon="6.91857">
        <ele>583.59997558594</ele>
        <time>2023-08-03T10:41:58.000Z</time>
      </trkpt>
      <trkpt lat="47.35298" lon="6.91852">
        <ele>584.79998779297</ele>
        <time>2023-08-03T10:42:00.000Z</time>
      </trkpt>
      <trkpt lat="47.35299" lon="6.91849">
        <ele>585.20001220703</ele>
        <time>2023-08-03T10:42:01.000Z</time>
      </trkpt>
      <trkpt lat="47.35304" lon="6.91834">
        <ele>586</ele>
        <time>2023-08-03T10:42:05.000Z</time>
      </trkpt>
      <trkpt lat="47.35307" lon="6.91822">
        <ele>587</ele>
        <time>2023-08-03T10:42:08.000Z</time>
      </trkpt>
      <trkpt lat="47.35307" lon="6.91818">
        <ele>587.20001220703</ele>
        <time>2023-08-03T10:42:09.000Z</time>
      </trkpt>
      <trkpt lat="47.35312" lon="6.91799">
        <ele>588.20001220703</ele>
        <time>2023-08-03T10:42:14.000Z</time>
      </trkpt>
      <trkpt lat="47.35313" lon="6.91795">
        <ele>588.40002441406</ele>
        <time>2023-08-03T10:42:15.000Z</time>
      </trkpt>
      <trkpt lat="47.3532" lon="6.91764">
        <ele>589.20001220703</ele>
        <time>2023-08-03T10:42:23.000Z</time>
      </trkpt>
      <trkpt lat="47.35321" lon="6.91761">
        <ele>589.40002441406</ele>
        <time>2023-08-03T10:42:24.000Z</time>
      </trkpt>
      <trkpt lat="47.35328" lon="6.91744">
        <ele>590.20001220703</ele>
        <time>2023-08-03T10:42:29.000Z</time>
      </trkpt>
      <trkpt lat="47.3533" lon="6.91738">
        <ele>590.40002441406</ele>
        <time>2023-08-03T10:42:31.000Z</time>
      </trkpt>
      <trkpt lat="47.35339" lon="6.91719">
        <ele>590.79998779297</ele>
        <time>2023-08-03T10:42:37.000Z</time>
      </trkpt>
      <trkpt lat="47.35351" lon="6.91691">
        <ele>591.20001220703</ele>
        <time>2023-08-03T10:42:46.000Z</time>
      </trkpt>
      <trkpt lat="47.35359" lon="6.9167">
        <ele>591.40002441406</ele>
        <time>2023-08-03T10:42:52.000Z</time>
      </trkpt>
      <trkpt lat="47.35361" lon="6.91667">
        <ele>591.59997558594</ele>
        <time>2023-08-03T10:42:53.000Z</time>
      </trkpt>
      <trkpt lat="47.35375" lon="6.91631">
        <ele>592.40002441406</ele>
        <time>2023-08-03T10:43:03.000Z</time>
      </trkpt>
      <trkpt lat="47.35376" lon="6.91628">
        <ele>592.40002441406</ele>
        <time>2023-08-03T10:43:04.000Z</time>
      </trkpt>
      <trkpt lat="47.35386" lon="6.91592">
        <ele>593.40002441406</ele>
        <time>2023-08-03T10:43:13.000Z</time>
      </trkpt>
      <trkpt lat="47.3539" lon="6.91585">
        <ele>593.59997558594</ele>
        <time>2023-08-03T10:43:15.000Z</time>
      </trkpt>
      <trkpt lat="47.35393" lon="6.91573">
        <ele>594.79998779297</ele>
        <time>2023-08-03T10:43:18.000Z</time>
      </trkpt>
      <trkpt lat="47.35395" lon="6.91567">
        <ele>595.79998779297</ele>
        <time>2023-08-03T10:43:20.000Z</time>
      </trkpt>
      <trkpt lat="47.35399" lon="6.91555">
        <ele>596.20001220703</ele>
        <time>2023-08-03T10:43:23.000Z</time>
      </trkpt>
      <trkpt lat="47.35406" lon="6.91534">
        <ele>597</ele>
        <time>2023-08-03T10:43:29.000Z</time>
      </trkpt>
      <trkpt lat="47.35408" lon="6.91527">
        <ele>597.40002441406</ele>
        <time>2023-08-03T10:43:31.000Z</time>
      </trkpt>
      <trkpt lat="47.35412" lon="6.9152">
        <ele>598.20001220703</ele>
        <time>2023-08-03T10:43:33.000Z</time>
      </trkpt>
      <trkpt lat="47.35418" lon="6.91509">
        <ele>599</ele>
        <time>2023-08-03T10:43:37.000Z</time>
      </trkpt>
      <trkpt lat="47.3542" lon="6.91507">
        <ele>599</ele>
        <time>2023-08-03T10:43:38.000Z</time>
      </trkpt>
      <trkpt lat="47.35425" lon="6.91506">
        <ele>599.20001220703</ele>
        <time>2023-08-03T10:43:40.000Z</time>
      </trkpt>
      <trkpt lat="47.35427" lon="6.91507">
        <ele>599.40002441406</ele>
        <time>2023-08-03T10:43:41.000Z</time>
      </trkpt>
      <trkpt lat="47.35428" lon="6.9151">
        <ele>599.40002441406</ele>
        <time>2023-08-03T10:43:42.000Z</time>
      </trkpt>
      <trkpt lat="47.3543" lon="6.91521">
        <ele>600.59997558594</ele>
        <time>2023-08-03T10:43:45.000Z</time>
      </trkpt>
      <trkpt lat="47.3543" lon="6.91543">
        <ele>601.59997558594</ele>
        <time>2023-08-03T10:43:51.000Z</time>
      </trkpt>
      <trkpt lat="47.3543" lon="6.91546">
        <ele>601.59997558594</ele>
        <time>2023-08-03T10:43:52.000Z</time>
      </trkpt>
      <trkpt lat="47.35429" lon="6.91566">
        <ele>602.20001220703</ele>
        <time>2023-08-03T10:43:57.000Z</time>
      </trkpt>
      <trkpt lat="47.35428" lon="6.91593">
        <ele>603</ele>
        <time>2023-08-03T10:44:04.000Z</time>
      </trkpt>
      <trkpt lat="47.35428" lon="6.91601">
        <ele>603.20001220703</ele>
        <time>2023-08-03T10:44:06.000Z</time>
      </trkpt>
      <trkpt lat="47.35429" lon="6.91616">
        <ele>604.20001220703</ele>
        <time>2023-08-03T10:44:10.000Z</time>
      </trkpt>
      <trkpt lat="47.35429" lon="6.9163">
        <ele>604.59997558594</ele>
        <time>2023-08-03T10:44:14.000Z</time>
      </trkpt>
      <trkpt lat="47.3543" lon="6.91643">
        <ele>605.59997558594</ele>
        <time>2023-08-03T10:44:18.000Z</time>
      </trkpt>
      <trkpt lat="47.3543" lon="6.91655">
        <ele>606.59997558594</ele>
        <time>2023-08-03T10:44:21.000Z</time>
      </trkpt>
      <trkpt lat="47.3543" lon="6.91659">
        <ele>607</ele>
        <time>2023-08-03T10:44:22.000Z</time>
      </trkpt>
      <trkpt lat="47.35431" lon="6.91674">
        <ele>607.79998779297</ele>
        <time>2023-08-03T10:44:26.000Z</time>
      </trkpt>
      <trkpt lat="47.35432" lon="6.91704">
        <ele>608.40002441406</ele>
        <time>2023-08-03T10:44:34.000Z</time>
      </trkpt>
      <trkpt lat="47.35433" lon="6.91723">
        <ele>609.20001220703</ele>
        <time>2023-08-03T10:44:39.000Z</time>
      </trkpt>
      <trkpt lat="47.35433" lon="6.91742">
        <ele>610.20001220703</ele>
        <time>2023-08-03T10:44:45.000Z</time>
      </trkpt>
      <trkpt lat="47.35433" lon="6.91746">
        <ele>610.40002441406</ele>
        <time>2023-08-03T10:44:46.000Z</time>
      </trkpt>
      <trkpt lat="47.35434" lon="6.91767">
        <ele>611.40002441406</ele>
        <time>2023-08-03T10:44:52.000Z</time>
      </trkpt>
      <trkpt lat="47.35434" lon="6.91782">
        <ele>612.40002441406</ele>
        <time>2023-08-03T10:44:56.000Z</time>
      </trkpt>
      <trkpt lat="47.35434" lon="6.91785">
        <ele>612.59997558594</ele>
        <time>2023-08-03T10:44:57.000Z</time>
      </trkpt>
      <trkpt lat="47.35435" lon="6.91824">
        <ele>613.59997558594</ele>
        <time>2023-08-03T10:45:07.000Z</time>
      </trkpt>
      <trkpt lat="47.35436" lon="6.9184">
        <ele>614.79998779297</ele>
        <time>2023-08-03T10:45:11.000Z</time>
      </trkpt>
      <trkpt lat="47.35436" lon="6.91854">
        <ele>616.20001220703</ele>
        <time>2023-08-03T10:45:15.000Z</time>
      </trkpt>
      <trkpt lat="47.35436" lon="6.91872">
        <ele>617</ele>
        <time>2023-08-03T10:45:20.000Z</time>
      </trkpt>
      <trkpt lat="47.35436" lon="6.91882">
        <ele>617.79998779297</ele>
        <time>2023-08-03T10:45:23.000Z</time>
      </trkpt>
      <trkpt lat="47.35436" lon="6.9189">
        <ele>618.20001220703</ele>
        <time>2023-08-03T10:45:25.000Z</time>
      </trkpt>
      <trkpt lat="47.35438" lon="6.91916">
        <ele>619</ele>
        <time>2023-08-03T10:45:32.000Z</time>
      </trkpt>
      <trkpt lat="47.35438" lon="6.91927">
        <ele>619.20001220703</ele>
        <time>2023-08-03T10:45:35.000Z</time>
      </trkpt>
      <trkpt lat="47.35439" lon="6.91952">
        <ele>620.20001220703</ele>
        <time>2023-08-03T10:45:42.000Z</time>
      </trkpt>
      <trkpt lat="47.35438" lon="6.91955">
        <ele>620.40002441406</ele>
        <time>2023-08-03T10:45:43.000Z</time>
      </trkpt>
      <trkpt lat="47.35437" lon="6.91969">
        <ele>621.20001220703</ele>
        <time>2023-08-03T10:45:47.000Z</time>
      </trkpt>
      <trkpt lat="47.35436" lon="6.91973">
        <ele>621.59997558594</ele>
        <time>2023-08-03T10:45:48.000Z</time>
      </trkpt>
      <trkpt lat="47.35436" lon="6.91983">
        <ele>622.59997558594</ele>
        <time>2023-08-03T10:45:50.000Z</time>
      </trkpt>
      <trkpt lat="47.35438" lon="6.91998">
        <ele>623.20001220703</ele>
        <time>2023-08-03T10:45:54.000Z</time>
      </trkpt>
      <trkpt lat="47.3544" lon="6.92001">
        <ele>623.59997558594</ele>
        <time>2023-08-03T10:45:55.000Z</time>
      </trkpt>
      <trkpt lat="47.35446" lon="6.92008">
        <ele>623.79998779297</ele>
        <time>2023-08-03T10:45:58.000Z</time>
      </trkpt>
      <trkpt lat="47.35448" lon="6.92009">
        <ele>623.79998779297</ele>
        <time>2023-08-03T10:45:59.000Z</time>
      </trkpt>
      <trkpt lat="47.35452" lon="6.92006">
        <ele>623.79998779297</ele>
        <time>2023-08-03T10:46:01.000Z</time>
      </trkpt>
      <trkpt lat="47.35455" lon="6.91999">
        <ele>624.20001220703</ele>
        <time>2023-08-03T10:46:03.000Z</time>
      </trkpt>
      <trkpt lat="47.35456" lon="6.91996">
        <ele>625</ele>
        <time>2023-08-03T10:46:04.000Z</time>
      </trkpt>
      <trkpt lat="47.35458" lon="6.91982">
        <ele>626</ele>
        <time>2023-08-03T10:46:08.000Z</time>
      </trkpt>
      <trkpt lat="47.35459" lon="6.91979">
        <ele>626.20001220703</ele>
        <time>2023-08-03T10:46:09.000Z</time>
      </trkpt>
      <trkpt lat="47.35461" lon="6.91967">
        <ele>626.79998779297</ele>
        <time>2023-08-03T10:46:13.000Z</time>
      </trkpt>
      <trkpt lat="47.35463" lon="6.9196">
        <ele>627.40002441406</ele>
        <time>2023-08-03T10:46:16.000Z</time>
      </trkpt>
      <trkpt lat="47.35465" lon="6.91953">
        <ele>628</ele>
        <time>2023-08-03T10:46:19.000Z</time>
      </trkpt>
      <trkpt lat="47.35467" lon="6.91947">
        <ele>628.59997558594</ele>
        <time>2023-08-03T10:46:21.000Z</time>
      </trkpt>
      <trkpt lat="47.35469" lon="6.91934">
        <ele>629.40002441406</ele>
        <time>2023-08-03T10:46:26.000Z</time>
      </trkpt>
      <trkpt lat="47.35469" lon="6.91931">
        <ele>629.79998779297</ele>
        <time>2023-08-03T10:46:27.000Z</time>
      </trkpt>
      <trkpt lat="47.35471" lon="6.9192">
        <ele>630.79998779297</ele>
        <time>2023-08-03T10:46:30.000Z</time>
      </trkpt>
      <trkpt lat="47.35471" lon="6.91907">
        <ele>631.59997558594</ele>
        <time>2023-08-03T10:46:32.000Z</time>
      </trkpt>
      <trkpt lat="47.35471" lon="6.91903">
        <ele>631.79998779297</ele>
        <time>2023-08-03T10:46:33.000Z</time>
      </trkpt>
      <trkpt lat="47.35475" lon="6.9189">
        <ele>632.59997558594</ele>
        <time>2023-08-03T10:46:36.000Z</time>
      </trkpt>
      <trkpt lat="47.35476" lon="6.91888">
        <ele>632.79998779297</ele>
        <time>2023-08-03T10:46:37.000Z</time>
      </trkpt>
      <trkpt lat="47.35479" lon="6.91882">
        <ele>633</ele>
        <time>2023-08-03T10:46:39.000Z</time>
      </trkpt>
      <trkpt lat="47.3548" lon="6.91878">
        <ele>633.20001220703</ele>
        <time>2023-08-03T10:46:40.000Z</time>
      </trkpt>
      <trkpt lat="47.35483" lon="6.91872">
        <ele>633.79998779297</ele>
        <time>2023-08-03T10:46:42.000Z</time>
      </trkpt>
      <trkpt lat="47.35484" lon="6.91868">
        <ele>633.79998779297</ele>
        <time>2023-08-03T10:46:43.000Z</time>
      </trkpt>
      <trkpt lat="47.35485" lon="6.91865">
        <ele>634</ele>
        <time>2023-08-03T10:46:44.000Z</time>
      </trkpt>
      <trkpt lat="47.35487" lon="6.91846">
        <ele>634.79998779297</ele>
        <time>2023-08-03T10:46:49.000Z</time>
      </trkpt>
      <trkpt lat="47.35488" lon="6.9184">
        <ele>635.20001220703</ele>
        <time>2023-08-03T10:46:51.000Z</time>
      </trkpt>
      <trkpt lat="47.35489" lon="6.91832">
        <ele>635.59997558594</ele>
        <time>2023-08-03T10:46:53.000Z</time>
      </trkpt>
      <trkpt lat="47.35492" lon="6.91827">
        <ele>636.20001220703</ele>
        <time>2023-08-03T10:46:55.000Z</time>
      </trkpt>
      <trkpt lat="47.35495" lon="6.91819">
        <ele>636.59997558594</ele>
        <time>2023-08-03T10:46:58.000Z</time>
      </trkpt>
      <trkpt lat="47.35501" lon="6.91809">
        <ele>637</ele>
        <time>2023-08-03T10:47:01.000Z</time>
      </trkpt>
      <trkpt lat="47.35503" lon="6.91806">
        <ele>637</ele>
        <time>2023-08-03T10:47:02.000Z</time>
      </trkpt>
      <trkpt lat="47.35504" lon="6.91804">
        <ele>637.40002441406</ele>
        <time>2023-08-03T10:47:03.000Z</time>
      </trkpt>
      <trkpt lat="47.35504" lon="6.91803">
        <ele>637.40002441406</ele>
        <time>2023-08-03T10:47:04.000Z</time>
      </trkpt>
      <trkpt lat="47.35507" lon="6.91797">
        <ele>638.20001220703</ele>
        <time>2023-08-03T10:47:07.000Z</time>
      </trkpt>
      <trkpt lat="47.35509" lon="6.91795">
        <ele>638.79998779297</ele>
        <time>2023-08-03T10:47:09.000Z</time>
      </trkpt>
      <trkpt lat="47.35511" lon="6.91793">
        <ele>639.40002441406</ele>
        <time>2023-08-03T10:47:11.000Z</time>
      </trkpt>
      <trkpt lat="47.35516" lon="6.91788">
        <ele>640.40002441406</ele>
        <time>2023-08-03T10:47:14.000Z</time>
      </trkpt>
      <trkpt lat="47.35519" lon="6.91784">
        <ele>640.79998779297</ele>
        <time>2023-08-03T10:47:16.000Z</time>
      </trkpt>
      <trkpt lat="47.3553" lon="6.91776">
        <ele>641.40002441406</ele>
        <time>2023-08-03T10:47:19.000Z</time>
      </trkpt>
      <trkpt lat="47.35532" lon="6.91774">
        <ele>641.59997558594</ele>
        <time>2023-08-03T10:47:20.000Z</time>
      </trkpt>
      <trkpt lat="47.35534" lon="6.91771">
        <ele>641.79998779297</ele>
        <time>2023-08-03T10:47:21.000Z</time>
      </trkpt>
      <trkpt lat="47.3554" lon="6.91763">
        <ele>642.79998779297</ele>
        <time>2023-08-03T10:47:26.000Z</time>
      </trkpt>
      <trkpt lat="47.35541" lon="6.91762">
        <ele>643</ele>
        <time>2023-08-03T10:47:27.000Z</time>
      </trkpt>
      <trkpt lat="47.35545" lon="6.91756">
        <ele>643.79998779297</ele>
        <time>2023-08-03T10:47:30.000Z</time>
      </trkpt>
      <trkpt lat="47.35549" lon="6.91749">
        <ele>644.20001220703</ele>
        <time>2023-08-03T10:47:32.000Z</time>
      </trkpt>
      <trkpt lat="47.35551" lon="6.91745">
        <ele>644.40002441406</ele>
        <time>2023-08-03T10:47:33.000Z</time>
      </trkpt>
      <trkpt lat="47.35552" lon="6.91742">
        <ele>644.59997558594</ele>
        <time>2023-08-03T10:47:34.000Z</time>
      </trkpt>
      <trkpt lat="47.35553" lon="6.9174">
        <ele>644.79998779297</ele>
        <time>2023-08-03T10:47:35.000Z</time>
      </trkpt>
      <trkpt lat="47.35558" lon="6.91733">
        <ele>646</ele>
        <time>2023-08-03T10:47:38.000Z</time>
      </trkpt>
      <trkpt lat="47.35565" lon="6.91725">
        <ele>646.40002441406</ele>
        <time>2023-08-03T10:47:40.000Z</time>
      </trkpt>
      <trkpt lat="47.35568" lon="6.91721">
        <ele>646.59997558594</ele>
        <time>2023-08-03T10:47:42.000Z</time>
      </trkpt>
      <trkpt lat="47.35571" lon="6.91717">
        <ele>646.59997558594</ele>
        <time>2023-08-03T10:47:43.000Z</time>
      </trkpt>
      <trkpt lat="47.35575" lon="6.91711">
        <ele>646.59997558594</ele>
        <time>2023-08-03T10:47:45.000Z</time>
      </trkpt>
      <trkpt lat="47.35576" lon="6.91709">
        <ele>646.79998779297</ele>
        <time>2023-08-03T10:47:46.000Z</time>
      </trkpt>
      <trkpt lat="47.3558" lon="6.91703">
        <ele>647.20001220703</ele>
        <time>2023-08-03T10:47:49.000Z</time>
      </trkpt>
      <trkpt lat="47.3558" lon="6.91701">
        <ele>647.40002441406</ele>
        <time>2023-08-03T10:47:50.000Z</time>
      </trkpt>
      <trkpt lat="47.3558" lon="6.91699">
        <ele>647.79998779297</ele>
        <time>2023-08-03T10:47:51.000Z</time>
      </trkpt>
      <trkpt lat="47.35585" lon="6.91689">
        <ele>648.59997558594</ele>
        <time>2023-08-03T10:47:55.000Z</time>
      </trkpt>
      <trkpt lat="47.35587" lon="6.91687">
        <ele>648.79998779297</ele>
        <time>2023-08-03T10:47:56.000Z</time>
      </trkpt>
      <trkpt lat="47.35588" lon="6.91686">
        <ele>648.79998779297</ele>
        <time>2023-08-03T10:47:57.000Z</time>
      </trkpt>
      <trkpt lat="47.3559" lon="6.91686">
        <ele>649.40002441406</ele>
        <time>2023-08-03T10:47:58.000Z</time>
      </trkpt>
      <trkpt lat="47.35593" lon="6.91683">
        <ele>649.79998779297</ele>
        <time>2023-08-03T10:48:00.000Z</time>
      </trkpt>
      <trkpt lat="47.35602" lon="6.91674">
        <ele>651</ele>
        <time>2023-08-03T10:48:06.000Z</time>
      </trkpt>
      <trkpt lat="47.35604" lon="6.91672">
        <ele>651.20001220703</ele>
        <time>2023-08-03T10:48:07.000Z</time>
      </trkpt>
      <trkpt lat="47.35608" lon="6.91668">
        <ele>652</ele>
        <time>2023-08-03T10:48:10.000Z</time>
      </trkpt>
      <trkpt lat="47.35614" lon="6.9166">
        <ele>653.40002441406</ele>
        <time>2023-08-03T10:48:15.000Z</time>
      </trkpt>
      <trkpt lat="47.35627" lon="6.91646">
        <ele>654.79998779297</ele>
        <time>2023-08-03T10:48:23.000Z</time>
      </trkpt>
      <trkpt lat="47.35628" lon="6.91644">
        <ele>655</ele>
        <time>2023-08-03T10:48:24.000Z</time>
      </trkpt>
      <trkpt lat="47.35633" lon="6.91636">
        <ele>655.79998779297</ele>
        <time>2023-08-03T10:48:27.000Z</time>
      </trkpt>
      <trkpt lat="47.35636" lon="6.91632">
        <ele>656</ele>
        <time>2023-08-03T10:48:29.000Z</time>
      </trkpt>
      <trkpt lat="47.35643" lon="6.91624">
        <ele>656.79998779297</ele>
        <time>2023-08-03T10:48:33.000Z</time>
      </trkpt>
      <trkpt lat="47.35654" lon="6.91609">
        <ele>657.59997558594</ele>
        <time>2023-08-03T10:48:38.000Z</time>
      </trkpt>
      <trkpt lat="47.35657" lon="6.91605">
        <ele>658</ele>
        <time>2023-08-03T10:48:40.000Z</time>
      </trkpt>
      <trkpt lat="47.3566" lon="6.91604">
        <ele>658.40002441406</ele>
        <time>2023-08-03T10:48:42.000Z</time>
      </trkpt>
      <trkpt lat="47.35662" lon="6.91602">
        <ele>658.59997558594</ele>
        <time>2023-08-03T10:48:43.000Z</time>
      </trkpt>
      <trkpt lat="47.35666" lon="6.916">
        <ele>659.20001220703</ele>
        <time>2023-08-03T10:48:45.000Z</time>
      </trkpt>
      <trkpt lat="47.35675" lon="6.91593">
        <ele>660</ele>
        <time>2023-08-03T10:48:50.000Z</time>
      </trkpt>
      <trkpt lat="47.35678" lon="6.91591">
        <ele>660</ele>
        <time>2023-08-03T10:48:51.000Z</time>
      </trkpt>
      <trkpt lat="47.35683" lon="6.91586">
        <ele>661</ele>
        <time>2023-08-03T10:48:54.000Z</time>
      </trkpt>
      <trkpt lat="47.35692" lon="6.91576">
        <ele>662</ele>
        <time>2023-08-03T10:48:58.000Z</time>
      </trkpt>
      <trkpt lat="47.35694" lon="6.91574">
        <ele>662.40002441406</ele>
        <time>2023-08-03T10:48:59.000Z</time>
      </trkpt>
      <trkpt lat="47.35707" lon="6.91565">
        <ele>663.40002441406</ele>
        <time>2023-08-03T10:49:05.000Z</time>
      </trkpt>
      <trkpt lat="47.3571" lon="6.91562">
        <ele>663.79998779297</ele>
        <time>2023-08-03T10:49:06.000Z</time>
      </trkpt>
      <trkpt lat="47.35712" lon="6.91562">
        <ele>664.79998779297</ele>
        <time>2023-08-03T10:49:08.000Z</time>
      </trkpt>
      <trkpt lat="47.35716" lon="6.91559">
        <ele>666</ele>
        <time>2023-08-03T10:49:10.000Z</time>
      </trkpt>
      <trkpt lat="47.3572" lon="6.91558">
        <ele>666.79998779297</ele>
        <time>2023-08-03T10:49:12.000Z</time>
      </trkpt>
      <trkpt lat="47.35722" lon="6.91557">
        <ele>667.20001220703</ele>
        <time>2023-08-03T10:49:13.000Z</time>
      </trkpt>
      <trkpt lat="47.3573" lon="6.91559">
        <ele>668.40002441406</ele>
        <time>2023-08-03T10:49:16.000Z</time>
      </trkpt>
      <trkpt lat="47.35736" lon="6.9156">
        <ele>669</ele>
        <time>2023-08-03T10:49:18.000Z</time>
      </trkpt>
      <trkpt lat="47.35741" lon="6.9156">
        <ele>669.79998779297</ele>
        <time>2023-08-03T10:49:20.000Z</time>
      </trkpt>
      <trkpt lat="47.35748" lon="6.91557">
        <ele>670.79998779297</ele>
        <time>2023-08-03T10:49:23.000Z</time>
      </trkpt>
      <trkpt lat="47.35751" lon="6.91555">
        <ele>671.20001220703</ele>
        <time>2023-08-03T10:49:25.000Z</time>
      </trkpt>
      <trkpt lat="47.35758" lon="6.91551">
        <ele>672</ele>
        <time>2023-08-03T10:49:29.000Z</time>
      </trkpt>
      <trkpt lat="47.35765" lon="6.91548">
        <ele>673.20001220703</ele>
        <time>2023-08-03T10:49:32.000Z</time>
      </trkpt>
      <trkpt lat="47.35767" lon="6.91547">
        <ele>673.40002441406</ele>
        <time>2023-08-03T10:49:33.000Z</time>
      </trkpt>
      <trkpt lat="47.35772" lon="6.91546">
        <ele>674.79998779297</ele>
        <time>2023-08-03T10:49:36.000Z</time>
      </trkpt>
      <trkpt lat="47.35777" lon="6.91546">
        <ele>676</ele>
        <time>2023-08-03T10:49:39.000Z</time>
      </trkpt>
      <trkpt lat="47.35777" lon="6.91547">
        <ele>676</ele>
        <time>2023-08-03T10:49:40.000Z</time>
      </trkpt>
      <trkpt lat="47.35777" lon="6.91547">
        <ele>676.40002441406</ele>
        <time>2023-08-03T10:49:42.000Z</time>
      </trkpt>
      <trkpt lat="47.35781" lon="6.91547">
        <ele>677.59997558594</ele>
        <time>2023-08-03T10:50:39.000Z</time>
      </trkpt>
      <trkpt lat="47.35783" lon="6.91547">
        <ele>677.59997558594</ele>
        <time>2023-08-03T10:50:40.000Z</time>
      </trkpt>
      <trkpt lat="47.35797" lon="6.91547">
        <ele>676.59997558594</ele>
        <time>2023-08-03T10:50:44.000Z</time>
      </trkpt>
      <trkpt lat="47.3581" lon="6.91548">
        <ele>675.59997558594</ele>
        <time>2023-08-03T10:50:47.000Z</time>
      </trkpt>
      <trkpt lat="47.35814" lon="6.91548">
        <ele>675.59997558594</ele>
        <time>2023-08-03T10:50:48.000Z</time>
      </trkpt>
      <trkpt lat="47.35832" lon="6.91548">
        <ele>674.59997558594</ele>
        <time>2023-08-03T10:50:53.000Z</time>
      </trkpt>
      <trkpt lat="47.35835" lon="6.91548">
        <ele>674.40002441406</ele>
        <time>2023-08-03T10:50:54.000Z</time>
      </trkpt>
      <trkpt lat="47.35851" lon="6.91549">
        <ele>673.40002441406</ele>
        <time>2023-08-03T10:50:59.000Z</time>
      </trkpt>
      <trkpt lat="47.35863" lon="6.91551">
        <ele>672.20001220703</ele>
        <time>2023-08-03T10:51:03.000Z</time>
      </trkpt>
      <trkpt lat="47.35867" lon="6.91551">
        <ele>671.59997558594</ele>
        <time>2023-08-03T10:51:05.000Z</time>
      </trkpt>
      <trkpt lat="47.35867" lon="6.91551">
        <ele>671.20001220703</ele>
        <time>2023-08-03T10:51:08.000Z</time>
      </trkpt>
      <trkpt lat="47.35867" lon="6.91551">
        <ele>671</ele>
        <time>2023-08-03T10:51:09.000Z</time>
      </trkpt>
      <trkpt lat="47.35874" lon="6.91551">
        <ele>669.79998779297</ele>
        <time>2023-08-03T10:52:47.000Z</time>
      </trkpt>
      <trkpt lat="47.35881" lon="6.91551">
        <ele>670.20001220703</ele>
        <time>2023-08-03T10:52:49.000Z</time>
      </trkpt>
      <trkpt lat="47.35904" lon="6.91549">
        <ele>669.59997558594</ele>
        <time>2023-08-03T10:52:54.000Z</time>
      </trkpt>
      <trkpt lat="47.35916" lon="6.91548">
        <ele>668.40002441406</ele>
        <time>2023-08-03T10:52:56.000Z</time>
      </trkpt>
      <trkpt lat="47.35929" lon="6.91549">
        <ele>667.20001220703</ele>
        <time>2023-08-03T10:52:58.000Z</time>
      </trkpt>
      <trkpt lat="47.35936" lon="6.91549">
        <ele>666.20001220703</ele>
        <time>2023-08-03T10:52:59.000Z</time>
      </trkpt>
      <trkpt lat="47.35944" lon="6.91549">
        <ele>666</ele>
        <time>2023-08-03T10:53:00.000Z</time>
      </trkpt>
      <trkpt lat="47.35973" lon="6.9155">
        <ele>664.59997558594</ele>
        <time>2023-08-03T10:53:04.000Z</time>
      </trkpt>
      <trkpt lat="47.35988" lon="6.91551">
        <ele>663.59997558594</ele>
        <time>2023-08-03T10:53:06.000Z</time>
      </trkpt>
      <trkpt lat="47.36003" lon="6.91551">
        <ele>662.40002441406</ele>
        <time>2023-08-03T10:53:08.000Z</time>
      </trkpt>
      <trkpt lat="47.36029" lon="6.91554">
        <ele>660.40002441406</ele>
        <time>2023-08-03T10:53:11.000Z</time>
      </trkpt>
      <trkpt lat="47.36047" lon="6.91558">
        <ele>658.20001220703</ele>
        <time>2023-08-03T10:53:13.000Z</time>
      </trkpt>
      <trkpt lat="47.36064" lon="6.91566">
        <ele>656.79998779297</ele>
        <time>2023-08-03T10:53:15.000Z</time>
      </trkpt>
      <trkpt lat="47.36073" lon="6.91571">
        <ele>656</ele>
        <time>2023-08-03T10:53:16.000Z</time>
      </trkpt>
      <trkpt lat="47.36083" lon="6.91575">
        <ele>655.59997558594</ele>
        <time>2023-08-03T10:53:17.000Z</time>
      </trkpt>
      <trkpt lat="47.36102" lon="6.91585">
        <ele>654.20001220703</ele>
        <time>2023-08-03T10:53:19.000Z</time>
      </trkpt>
      <trkpt lat="47.36131" lon="6.91599">
        <ele>652.59997558594</ele>
        <time>2023-08-03T10:53:22.000Z</time>
      </trkpt>
      <trkpt lat="47.36142" lon="6.91604">
        <ele>651.40002441406</ele>
        <time>2023-08-03T10:53:23.000Z</time>
      </trkpt>
      <trkpt lat="47.36163" lon="6.91614">
        <ele>650.20001220703</ele>
        <time>2023-08-03T10:53:25.000Z</time>
      </trkpt>
      <trkpt lat="47.36182" lon="6.91624">
        <ele>648.79998779297</ele>
        <time>2023-08-03T10:53:27.000Z</time>
      </trkpt>
      <trkpt lat="47.36191" lon="6.91629">
        <ele>648.20001220703</ele>
        <time>2023-08-03T10:53:28.000Z</time>
      </trkpt>
      <trkpt lat="47.36201" lon="6.91633">
        <ele>647.40002441406</ele>
        <time>2023-08-03T10:53:29.000Z</time>
      </trkpt>
      <trkpt lat="47.3622" lon="6.91639">
        <ele>646</ele>
        <time>2023-08-03T10:53:31.000Z</time>
      </trkpt>
      <trkpt lat="47.3624" lon="6.91644">
        <ele>645.20001220703</ele>
        <time>2023-08-03T10:53:33.000Z</time>
      </trkpt>
      <trkpt lat="47.36251" lon="6.91646">
        <ele>644.59997558594</ele>
        <time>2023-08-03T10:53:34.000Z</time>
      </trkpt>
      <trkpt lat="47.36284" lon="6.9165">
        <ele>642.59997558594</ele>
        <time>2023-08-03T10:53:37.000Z</time>
      </trkpt>
      <trkpt lat="47.36307" lon="6.91654">
        <ele>641.20001220703</ele>
        <time>2023-08-03T10:53:39.000Z</time>
      </trkpt>
      <trkpt lat="47.3633" lon="6.91658">
        <ele>639.79998779297</ele>
        <time>2023-08-03T10:53:41.000Z</time>
      </trkpt>
      <trkpt lat="47.36342" lon="6.91661">
        <ele>638.20001220703</ele>
        <time>2023-08-03T10:53:42.000Z</time>
      </trkpt>
      <trkpt lat="47.36365" lon="6.91667">
        <ele>635.59997558594</ele>
        <time>2023-08-03T10:53:44.000Z</time>
      </trkpt>
      <trkpt lat="47.36377" lon="6.91671">
        <ele>634.79998779297</ele>
        <time>2023-08-03T10:53:45.000Z</time>
      </trkpt>
      <trkpt lat="47.36389" lon="6.91675">
        <ele>632.79998779297</ele>
        <time>2023-08-03T10:53:46.000Z</time>
      </trkpt>
      <trkpt lat="47.36415" lon="6.91682">
        <ele>629.59997558594</ele>
        <time>2023-08-03T10:53:48.000Z</time>
      </trkpt>
      <trkpt lat="47.36428" lon="6.91684">
        <ele>627.59997558594</ele>
        <time>2023-08-03T10:53:49.000Z</time>
      </trkpt>
      <trkpt lat="47.36441" lon="6.91684">
        <ele>626.59997558594</ele>
        <time>2023-08-03T10:53:50.000Z</time>
      </trkpt>
      <trkpt lat="47.36451" lon="6.91684">
        <ele>624.59997558594</ele>
        <time>2023-08-03T10:53:51.000Z</time>
      </trkpt>
      <trkpt lat="47.36466" lon="6.91681">
        <ele>623.79998779297</ele>
        <time>2023-08-03T10:53:52.000Z</time>
      </trkpt>
      <trkpt lat="47.36476" lon="6.91678">
        <ele>622</ele>
        <time>2023-08-03T10:53:53.000Z</time>
      </trkpt>
      <trkpt lat="47.365" lon="6.9167">
        <ele>619.79998779297</ele>
        <time>2023-08-03T10:53:55.000Z</time>
      </trkpt>
      <trkpt lat="47.36512" lon="6.91665">
        <ele>618.79998779297</ele>
        <time>2023-08-03T10:53:56.000Z</time>
      </trkpt>
      <trkpt lat="47.36534" lon="6.91654">
        <ele>617.59997558594</ele>
        <time>2023-08-03T10:53:58.000Z</time>
      </trkpt>
      <trkpt lat="47.36555" lon="6.9164">
        <ele>616</ele>
        <time>2023-08-03T10:54:00.000Z</time>
      </trkpt>
      <trkpt lat="47.36575" lon="6.91622">
        <ele>614.59997558594</ele>
        <time>2023-08-03T10:54:02.000Z</time>
      </trkpt>
      <trkpt lat="47.36584" lon="6.91614">
        <ele>613.79998779297</ele>
        <time>2023-08-03T10:54:03.000Z</time>
      </trkpt>
      <trkpt lat="47.36595" lon="6.91605">
        <ele>613.40002441406</ele>
        <time>2023-08-03T10:54:04.000Z</time>
      </trkpt>
      <trkpt lat="47.36617" lon="6.91593">
        <ele>612</ele>
        <time>2023-08-03T10:54:06.000Z</time>
      </trkpt>
      <trkpt lat="47.36627" lon="6.91589">
        <ele>610.79998779297</ele>
        <time>2023-08-03T10:54:07.000Z</time>
      </trkpt>
      <trkpt lat="47.36638" lon="6.91586">
        <ele>609.40002441406</ele>
        <time>2023-08-03T10:54:08.000Z</time>
      </trkpt>
      <trkpt lat="47.36659" lon="6.91583">
        <ele>607.40002441406</ele>
        <time>2023-08-03T10:54:10.000Z</time>
      </trkpt>
      <trkpt lat="47.3668" lon="6.9158">
        <ele>606.20001220703</ele>
        <time>2023-08-03T10:54:12.000Z</time>
      </trkpt>
      <trkpt lat="47.36706" lon="6.91578">
        <ele>605</ele>
        <time>2023-08-03T10:54:15.000Z</time>
      </trkpt>
      <trkpt lat="47.36724" lon="6.91578">
        <ele>604.79998779297</ele>
        <time>2023-08-03T10:54:17.000Z</time>
      </trkpt>
      <trkpt lat="47.36757" lon="6.91585">
        <ele>604.59997558594</ele>
        <time>2023-08-03T10:54:21.000Z</time>
      </trkpt>
      <trkpt lat="47.36764" lon="6.91587">
        <ele>604.59997558594</ele>
        <time>2023-08-03T10:54:22.000Z</time>
      </trkpt>
      <trkpt lat="47.3681" lon="6.91599">
        <ele>604</ele>
        <time>2023-08-03T10:54:28.000Z</time>
      </trkpt>
      <trkpt lat="47.36824" lon="6.91604">
        <ele>603.40002441406</ele>
        <time>2023-08-03T10:54:30.000Z</time>
      </trkpt>
      <trkpt lat="47.36851" lon="6.9161">
        <ele>603</ele>
        <time>2023-08-03T10:54:34.000Z</time>
      </trkpt>
      <trkpt lat="47.36866" lon="6.91611">
        <ele>602.59997558594</ele>
        <time>2023-08-03T10:54:36.000Z</time>
      </trkpt>
      <trkpt lat="47.36893" lon="6.91615">
        <ele>601.79998779297</ele>
        <time>2023-08-03T10:54:39.000Z</time>
      </trkpt>
      <trkpt lat="47.36903" lon="6.91618">
        <ele>601.40002441406</ele>
        <time>2023-08-03T10:54:40.000Z</time>
      </trkpt>
      <trkpt lat="47.36924" lon="6.91624">
        <ele>600.59997558594</ele>
        <time>2023-08-03T10:54:42.000Z</time>
      </trkpt>
      <trkpt lat="47.36946" lon="6.91633">
        <ele>599.20001220703</ele>
        <time>2023-08-03T10:54:44.000Z</time>
      </trkpt>
      <trkpt lat="47.36959" lon="6.91639">
        <ele>598.20001220703</ele>
        <time>2023-08-03T10:54:45.000Z</time>
      </trkpt>
      <trkpt lat="47.36977" lon="6.91649">
        <ele>597</ele>
        <time>2023-08-03T10:54:47.000Z</time>
      </trkpt>
      <trkpt lat="47.36996" lon="6.91664">
        <ele>595.59997558594</ele>
        <time>2023-08-03T10:54:49.000Z</time>
      </trkpt>
      <trkpt lat="47.37005" lon="6.91672">
        <ele>594.79998779297</ele>
        <time>2023-08-03T10:54:50.000Z</time>
      </trkpt>
      <trkpt lat="47.37013" lon="6.91681">
        <ele>594.59997558594</ele>
        <time>2023-08-03T10:54:51.000Z</time>
      </trkpt>
      <trkpt lat="47.37045" lon="6.9171">
        <ele>593.40002441406</ele>
        <time>2023-08-03T10:54:55.000Z</time>
      </trkpt>
      <trkpt lat="47.3706" lon="6.91721">
        <ele>593.40002441406</ele>
        <time>2023-08-03T10:54:57.000Z</time>
      </trkpt>
      <trkpt lat="47.37081" lon="6.91735">
        <ele>593</ele>
        <time>2023-08-03T10:55:00.000Z</time>
      </trkpt>
      <trkpt lat="47.37127" lon="6.91755">
        <ele>592.79998779297</ele>
        <time>2023-08-03T10:55:07.000Z</time>
      </trkpt>
      <trkpt lat="47.37162" lon="6.91771">
        <ele>592.59997558594</ele>
        <time>2023-08-03T10:55:13.000Z</time>
      </trkpt>
      <trkpt lat="47.37167" lon="6.91774">
        <ele>592.59997558594</ele>
        <time>2023-08-03T10:55:14.000Z</time>
      </trkpt>
      <trkpt lat="47.37204" lon="6.9179">
        <ele>593.20001220703</ele>
        <time>2023-08-03T10:55:21.000Z</time>
      </trkpt>
      <trkpt lat="47.37223" lon="6.91797">
        <ele>593.79998779297</ele>
        <time>2023-08-03T10:55:25.000Z</time>
      </trkpt>
      <trkpt lat="47.37243" lon="6.91806">
        <ele>594.40002441406</ele>
        <time>2023-08-03T10:55:29.000Z</time>
      </trkpt>
      <trkpt lat="47.37247" lon="6.91808">
        <ele>594.79998779297</ele>
        <time>2023-08-03T10:55:30.000Z</time>
      </trkpt>
      <trkpt lat="47.3728" lon="6.91817">
        <ele>595.20001220703</ele>
        <time>2023-08-03T10:55:37.000Z</time>
      </trkpt>
      <trkpt lat="47.37313" lon="6.91818">
        <ele>595.40002441406</ele>
        <time>2023-08-03T10:55:44.000Z</time>
      </trkpt>
      <trkpt lat="47.37344" lon="6.91814">
        <ele>595.79998779297</ele>
        <time>2023-08-03T10:55:51.000Z</time>
      </trkpt>
      <trkpt lat="47.37352" lon="6.91812">
        <ele>595.79998779297</ele>
        <time>2023-08-03T10:55:53.000Z</time>
      </trkpt>
      <trkpt lat="47.37379" lon="6.91805">
        <ele>596.59997558594</ele>
        <time>2023-08-03T10:56:00.000Z</time>
      </trkpt>
      <trkpt lat="47.37383" lon="6.91804">
        <ele>596.79998779297</ele>
        <time>2023-08-03T10:56:01.000Z</time>
      </trkpt>
      <trkpt lat="47.37397" lon="6.91801">
        <ele>598.20001220703</ele>
        <time>2023-08-03T10:56:05.000Z</time>
      </trkpt>
      <trkpt lat="47.37403" lon="6.91798">
        <ele>598.59997558594</ele>
        <time>2023-08-03T10:56:07.000Z</time>
      </trkpt>
      <trkpt lat="47.3742" lon="6.91793">
        <ele>599.20001220703</ele>
        <time>2023-08-03T10:56:12.000Z</time>
      </trkpt>
      <trkpt lat="47.37423" lon="6.91793">
        <ele>599.40002441406</ele>
        <time>2023-08-03T10:56:13.000Z</time>
      </trkpt>
      <trkpt lat="47.37439" lon="6.91794">
        <ele>600.20001220703</ele>
        <time>2023-08-03T10:56:18.000Z</time>
      </trkpt>
      <trkpt lat="47.37443" lon="6.91796">
        <ele>600.40002441406</ele>
        <time>2023-08-03T10:56:19.000Z</time>
      </trkpt>
      <trkpt lat="47.3746" lon="6.91815">
        <ele>601.20001220703</ele>
        <time>2023-08-03T10:56:25.000Z</time>
      </trkpt>
      <trkpt lat="47.37467" lon="6.91826">
        <ele>601.40002441406</ele>
        <time>2023-08-03T10:56:28.000Z</time>
      </trkpt>
      <trkpt lat="47.37478" lon="6.91846">
        <ele>601.40002441406</ele>
        <time>2023-08-03T10:56:33.000Z</time>
      </trkpt>
      <trkpt lat="47.37486" lon="6.91857">
        <ele>601.20001220703</ele>
        <time>2023-08-03T10:56:38.000Z</time>
      </trkpt>
      <trkpt lat="47.37488" lon="6.91863">
        <ele>602</ele>
        <time>2023-08-03T10:56:43.000Z</time>
      </trkpt>
      <trkpt lat="47.37488" lon="6.91863">
        <ele>602.40002441406</ele>
        <time>2023-08-03T10:56:44.000Z</time>
      </trkpt>
      <trkpt lat="47.37489" lon="6.91867">
        <ele>604.59997558594</ele>
        <time>2023-08-03T10:57:17.000Z</time>
      </trkpt>
      <trkpt lat="47.37492" lon="6.91877">
        <ele>604.59997558594</ele>
        <time>2023-08-03T10:57:19.000Z</time>
      </trkpt>
      <trkpt lat="47.37494" lon="6.91889">
        <ele>604.40002441406</ele>
        <time>2023-08-03T10:57:21.000Z</time>
      </trkpt>
      <trkpt lat="47.37496" lon="6.91903">
        <ele>604</ele>
        <time>2023-08-03T10:57:23.000Z</time>
      </trkpt>
      <trkpt lat="47.37498" lon="6.91911">
        <ele>603.79998779297</ele>
        <time>2023-08-03T10:57:24.000Z</time>
      </trkpt>
      <trkpt lat="47.37499" lon="6.91918">
        <ele>603.59997558594</ele>
        <time>2023-08-03T10:57:25.000Z</time>
      </trkpt>
      <trkpt lat="47.375" lon="6.91924">
        <ele>603.59997558594</ele>
        <time>2023-08-03T10:57:26.000Z</time>
      </trkpt>
      <trkpt lat="47.37501" lon="6.91938">
        <ele>603.40002441406</ele>
        <time>2023-08-03T10:57:28.000Z</time>
      </trkpt>
      <trkpt lat="47.37505" lon="6.91983">
        <ele>603.40002441406</ele>
        <time>2023-08-03T10:57:35.000Z</time>
      </trkpt>
      <trkpt lat="47.37508" lon="6.92018">
        <ele>604.79998779297</ele>
        <time>2023-08-03T10:57:41.000Z</time>
      </trkpt>
      <trkpt lat="47.3751" lon="6.92042">
        <ele>606</ele>
        <time>2023-08-03T10:57:45.000Z</time>
      </trkpt>
      <trkpt lat="47.3751" lon="6.92047">
        <ele>606.40002441406</ele>
        <time>2023-08-03T10:57:46.000Z</time>
      </trkpt>
      <trkpt lat="47.37512" lon="6.92065">
        <ele>607</ele>
        <time>2023-08-03T10:57:49.000Z</time>
      </trkpt>
      <trkpt lat="47.37513" lon="6.9207">
        <ele>607</ele>
        <time>2023-08-03T10:57:50.000Z</time>
      </trkpt>
      <trkpt lat="47.37517" lon="6.92097">
        <ele>607.59997558594</ele>
        <time>2023-08-03T10:57:55.000Z</time>
      </trkpt>
      <trkpt lat="47.37528" lon="6.92144">
        <ele>607.79998779297</ele>
        <time>2023-08-03T10:58:02.000Z</time>
      </trkpt>
      <trkpt lat="47.37541" lon="6.922">
        <ele>606.40002441406</ele>
        <time>2023-08-03T10:58:08.000Z</time>
      </trkpt>
      <trkpt lat="47.37545" lon="6.92225">
        <ele>605.59997558594</ele>
        <time>2023-08-03T10:58:10.000Z</time>
      </trkpt>
      <trkpt lat="47.37547" lon="6.92237">
        <ele>605.20001220703</ele>
        <time>2023-08-03T10:58:11.000Z</time>
      </trkpt>
      <trkpt lat="47.3755" lon="6.92258">
        <ele>604.40002441406</ele>
        <time>2023-08-03T10:58:13.000Z</time>
      </trkpt>
      <trkpt lat="47.37555" lon="6.92303">
        <ele>603.20001220703</ele>
        <time>2023-08-03T10:58:17.000Z</time>
      </trkpt>
      <trkpt lat="47.37558" lon="6.92322">
        <ele>603.20001220703</ele>
        <time>2023-08-03T10:58:19.000Z</time>
      </trkpt>
      <trkpt lat="47.37564" lon="6.9236">
        <ele>603.20001220703</ele>
        <time>2023-08-03T10:58:24.000Z</time>
      </trkpt>
      <trkpt lat="47.37566" lon="6.9238">
        <ele>604.20001220703</ele>
        <time>2023-08-03T10:58:28.000Z</time>
      </trkpt>
      <trkpt lat="47.37566" lon="6.92384">
        <ele>604.40002441406</ele>
        <time>2023-08-03T10:58:29.000Z</time>
      </trkpt>
      <trkpt lat="47.37567" lon="6.9239">
        <ele>604.40002441406</ele>
        <time>2023-08-03T10:58:31.000Z</time>
      </trkpt>
      <trkpt lat="47.37569" lon="6.92404">
        <ele>604.59997558594</ele>
        <time>2023-08-03T10:58:35.000Z</time>
      </trkpt>
      <trkpt lat="47.37571" lon="6.92429">
        <ele>604.59997558594</ele>
        <time>2023-08-03T10:58:41.000Z</time>
      </trkpt>
      <trkpt lat="47.37573" lon="6.92462">
        <ele>604.40002441406</ele>
        <time>2023-08-03T10:58:47.000Z</time>
      </trkpt>
      <trkpt lat="47.37577" lon="6.92502">
        <ele>603.59997558594</ele>
        <time>2023-08-03T10:58:52.000Z</time>
      </trkpt>
      <trkpt lat="47.37577" lon="6.92509">
        <ele>603.20001220703</ele>
        <time>2023-08-03T10:58:53.000Z</time>
      </trkpt>
      <trkpt lat="47.37578" lon="6.92527">
        <ele>602.59997558594</ele>
        <time>2023-08-03T10:58:55.000Z</time>
      </trkpt>
      <trkpt lat="47.37579" lon="6.92545">
        <ele>602.20001220703</ele>
        <time>2023-08-03T10:58:57.000Z</time>
      </trkpt>
      <trkpt lat="47.3758" lon="6.92562">
        <ele>601.59997558594</ele>
        <time>2023-08-03T10:58:59.000Z</time>
      </trkpt>
      <trkpt lat="47.37578" lon="6.92615">
        <ele>601</ele>
        <time>2023-08-03T10:59:04.000Z</time>
      </trkpt>
      <trkpt lat="47.37578" lon="6.92637">
        <ele>600.79998779297</ele>
        <time>2023-08-03T10:59:06.000Z</time>
      </trkpt>
      <trkpt lat="47.37577" lon="6.92677">
        <ele>600</ele>
        <time>2023-08-03T10:59:10.000Z</time>
      </trkpt>
      <trkpt lat="47.37578" lon="6.92696">
        <ele>600</ele>
        <time>2023-08-03T10:59:12.000Z</time>
      </trkpt>
      <trkpt lat="47.37578" lon="6.92712">
        <ele>599.79998779297</ele>
        <time>2023-08-03T10:59:14.000Z</time>
      </trkpt>
      <trkpt lat="47.37577" lon="6.92741">
        <ele>599.59997558594</ele>
        <time>2023-08-03T10:59:17.000Z</time>
      </trkpt>
      <trkpt lat="47.37572" lon="6.92797">
        <ele>599</ele>
        <time>2023-08-03T10:59:23.000Z</time>
      </trkpt>
      <trkpt lat="47.37569" lon="6.92831">
        <ele>598.40002441406</ele>
        <time>2023-08-03T10:59:27.000Z</time>
      </trkpt>
      <trkpt lat="47.37562" lon="6.92887">
        <ele>598.40002441406</ele>
        <time>2023-08-03T10:59:34.000Z</time>
      </trkpt>
      <trkpt lat="47.37559" lon="6.92908">
        <ele>598.40002441406</ele>
        <time>2023-08-03T10:59:37.000Z</time>
      </trkpt>
      <trkpt lat="47.37558" lon="6.92926">
        <ele>599</ele>
        <time>2023-08-03T10:59:40.000Z</time>
      </trkpt>
      <trkpt lat="47.37556" lon="6.92941">
        <ele>599.40002441406</ele>
        <time>2023-08-03T10:59:42.000Z</time>
      </trkpt>
      <trkpt lat="47.37554" lon="6.92966">
        <ele>600.40002441406</ele>
        <time>2023-08-03T10:59:46.000Z</time>
      </trkpt>
      <trkpt lat="47.37554" lon="6.92975">
        <ele>600.59997558594</ele>
        <time>2023-08-03T10:59:47.000Z</time>
      </trkpt>
      <trkpt lat="47.37549" lon="6.9303">
        <ele>601.40002441406</ele>
        <time>2023-08-03T10:59:55.000Z</time>
      </trkpt>
      <trkpt lat="47.37547" lon="6.9309">
        <ele>601.59997558594</ele>
        <time>2023-08-03T11:00:03.000Z</time>
      </trkpt>
      <trkpt lat="47.3755" lon="6.93154">
        <ele>601.40002441406</ele>
        <time>2023-08-03T11:00:11.000Z</time>
      </trkpt>
      <trkpt lat="47.37554" lon="6.93211">
        <ele>599.59997558594</ele>
        <time>2023-08-03T11:00:16.000Z</time>
      </trkpt>
      <trkpt lat="47.37555" lon="6.93221">
        <ele>599</ele>
        <time>2023-08-03T11:00:17.000Z</time>
      </trkpt>
      <trkpt lat="47.37557" lon="6.93248">
        <ele>598.20001220703</ele>
        <time>2023-08-03T11:00:19.000Z</time>
      </trkpt>
      <trkpt lat="47.37558" lon="6.93273">
        <ele>597</ele>
        <time>2023-08-03T11:00:21.000Z</time>
      </trkpt>
      <trkpt lat="47.37559" lon="6.93286">
        <ele>596.79998779297</ele>
        <time>2023-08-03T11:00:22.000Z</time>
      </trkpt>
      <trkpt lat="47.37562" lon="6.9333">
        <ele>595.79998779297</ele>
        <time>2023-08-03T11:00:25.000Z</time>
      </trkpt>
      <trkpt lat="47.37564" lon="6.93369">
        <ele>594.79998779297</ele>
        <time>2023-08-03T11:00:28.000Z</time>
      </trkpt>
      <trkpt lat="47.37567" lon="6.93414">
        <ele>593.79998779297</ele>
        <time>2023-08-03T11:00:31.000Z</time>
      </trkpt>
      <trkpt lat="47.37569" lon="6.93452">
        <ele>592.59997558594</ele>
        <time>2023-08-03T11:00:34.000Z</time>
      </trkpt>
      <trkpt lat="47.37572" lon="6.93495">
        <ele>591.40002441406</ele>
        <time>2023-08-03T11:00:37.000Z</time>
      </trkpt>
      <trkpt lat="47.37575" lon="6.93553">
        <ele>590.59997558594</ele>
        <time>2023-08-03T11:00:41.000Z</time>
      </trkpt>
      <trkpt lat="47.37577" lon="6.93568">
        <ele>590</ele>
        <time>2023-08-03T11:00:42.000Z</time>
      </trkpt>
      <trkpt lat="47.37579" lon="6.93597">
        <ele>589.40002441406</ele>
        <time>2023-08-03T11:00:44.000Z</time>
      </trkpt>
      <trkpt lat="47.37587" lon="6.93641">
        <ele>588</ele>
        <time>2023-08-03T11:00:47.000Z</time>
      </trkpt>
      <trkpt lat="47.3759" lon="6.93656">
        <ele>588</ele>
        <time>2023-08-03T11:00:48.000Z</time>
      </trkpt>
      <trkpt lat="47.37601" lon="6.93699">
        <ele>587</ele>
        <time>2023-08-03T11:00:51.000Z</time>
      </trkpt>
      <trkpt lat="47.37612" lon="6.93742">
        <ele>585.79998779297</ele>
        <time>2023-08-03T11:00:54.000Z</time>
      </trkpt>
      <trkpt lat="47.37622" lon="6.93783">
        <ele>585.40002441406</ele>
        <time>2023-08-03T11:00:57.000Z</time>
      </trkpt>
      <trkpt lat="47.37635" lon="6.93835">
        <ele>584.79998779297</ele>
        <time>2023-08-03T11:01:01.000Z</time>
      </trkpt>
      <trkpt lat="47.37647" lon="6.93886">
        <ele>584.20001220703</ele>
        <time>2023-08-03T11:01:05.000Z</time>
      </trkpt>
      <trkpt lat="47.37656" lon="6.93923">
        <ele>583.79998779297</ele>
        <time>2023-08-03T11:01:08.000Z</time>
      </trkpt>
      <trkpt lat="47.37674" lon="6.93994">
        <ele>583.40002441406</ele>
        <time>2023-08-03T11:01:14.000Z</time>
      </trkpt>
      <trkpt lat="47.37689" lon="6.94053">
        <ele>582.59997558594</ele>
        <time>2023-08-03T11:01:19.000Z</time>
      </trkpt>
      <trkpt lat="47.37699" lon="6.94089">
        <ele>582</ele>
        <time>2023-08-03T11:01:22.000Z</time>
      </trkpt>
      <trkpt lat="47.37708" lon="6.94125">
        <ele>581.40002441406</ele>
        <time>2023-08-03T11:01:25.000Z</time>
      </trkpt>
      <trkpt lat="47.37728" lon="6.94194">
        <ele>580.40002441406</ele>
        <time>2023-08-03T11:01:31.000Z</time>
      </trkpt>
      <trkpt lat="47.37731" lon="6.94206">
        <ele>580.40002441406</ele>
        <time>2023-08-03T11:01:32.000Z</time>
      </trkpt>
      <trkpt lat="47.37755" lon="6.94288">
        <ele>579.79998779297</ele>
        <time>2023-08-03T11:01:39.000Z</time>
      </trkpt>
      <trkpt lat="47.37781" lon="6.94371">
        <ele>580</ele>
        <time>2023-08-03T11:01:46.000Z</time>
      </trkpt>
      <trkpt lat="47.37784" lon="6.94379">
        <ele>580</ele>
        <time>2023-08-03T11:01:47.000Z</time>
      </trkpt>
      <trkpt lat="47.37811" lon="6.94428">
        <ele>579.59997558594</ele>
        <time>2023-08-03T11:01:52.000Z</time>
      </trkpt>
      <trkpt lat="47.37824" lon="6.94446">
        <ele>579.40002441406</ele>
        <time>2023-08-03T11:01:54.000Z</time>
      </trkpt>
      <trkpt lat="47.37861" lon="6.94499">
        <ele>579.20001220703</ele>
        <time>2023-08-03T11:02:00.000Z</time>
      </trkpt>
      <trkpt lat="47.37891" lon="6.9454">
        <ele>578.40002441406</ele>
        <time>2023-08-03T11:02:05.000Z</time>
      </trkpt>
      <trkpt lat="47.37934" lon="6.94599">
        <ele>578</ele>
        <time>2023-08-03T11:02:12.000Z</time>
      </trkpt>
      <trkpt lat="47.37939" lon="6.94607">
        <ele>577.79998779297</ele>
        <time>2023-08-03T11:02:13.000Z</time>
      </trkpt>
      <trkpt lat="47.3798" lon="6.94664">
        <ele>578.20001220703</ele>
        <time>2023-08-03T11:02:20.000Z</time>
      </trkpt>
      <trkpt lat="47.37985" lon="6.94671">
        <ele>578.40002441406</ele>
        <time>2023-08-03T11:02:21.000Z</time>
      </trkpt>
      <trkpt lat="47.3803" lon="6.94723">
        <ele>577.40002441406</ele>
        <time>2023-08-03T11:02:28.000Z</time>
      </trkpt>
      <trkpt lat="47.38037" lon="6.94729">
        <ele>577.20001220703</ele>
        <time>2023-08-03T11:02:29.000Z</time>
      </trkpt>
      <trkpt lat="47.38071" lon="6.94748">
        <ele>576.40002441406</ele>
        <time>2023-08-03T11:02:33.000Z</time>
      </trkpt>
      <trkpt lat="47.3808" lon="6.94753">
        <ele>576.20001220703</ele>
        <time>2023-08-03T11:02:34.000Z</time>
      </trkpt>
      <trkpt lat="47.38139" lon="6.94782">
        <ele>575</ele>
        <time>2023-08-03T11:02:40.000Z</time>
      </trkpt>
      <trkpt lat="47.38169" lon="6.94803">
        <ele>574</ele>
        <time>2023-08-03T11:02:43.000Z</time>
      </trkpt>
      <trkpt lat="47.38186" lon="6.94818">
        <ele>573.59997558594</ele>
        <time>2023-08-03T11:02:45.000Z</time>
      </trkpt>
      <trkpt lat="47.38213" lon="6.94842">
        <ele>573</ele>
        <time>2023-08-03T11:02:48.000Z</time>
      </trkpt>
      <trkpt lat="47.38257" lon="6.94874">
        <ele>572.20001220703</ele>
        <time>2023-08-03T11:02:53.000Z</time>
      </trkpt>
      <trkpt lat="47.38273" lon="6.94881">
        <ele>571.79998779297</ele>
        <time>2023-08-03T11:02:55.000Z</time>
      </trkpt>
      <trkpt lat="47.38298" lon="6.94887">
        <ele>571.40002441406</ele>
        <time>2023-08-03T11:02:58.000Z</time>
      </trkpt>
      <trkpt lat="47.38323" lon="6.9489">
        <ele>570.59997558594</ele>
        <time>2023-08-03T11:03:01.000Z</time>
      </trkpt>
      <trkpt lat="47.38359" lon="6.9489">
        <ele>570</ele>
        <time>2023-08-03T11:03:05.000Z</time>
      </trkpt>
      <trkpt lat="47.38368" lon="6.9489">
        <ele>569.59997558594</ele>
        <time>2023-08-03T11:03:06.000Z</time>
      </trkpt>
      <trkpt lat="47.38396" lon="6.94891">
        <ele>568.59997558594</ele>
        <time>2023-08-03T11:03:09.000Z</time>
      </trkpt>
      <trkpt lat="47.38424" lon="6.94889">
        <ele>567.59997558594</ele>
        <time>2023-08-03T11:03:12.000Z</time>
      </trkpt>
      <trkpt lat="47.38433" lon="6.94889">
        <ele>567.20001220703</ele>
        <time>2023-08-03T11:03:13.000Z</time>
      </trkpt>
      <trkpt lat="47.38463" lon="6.94887">
        <ele>566.20001220703</ele>
        <time>2023-08-03T11:03:16.000Z</time>
      </trkpt>
      <trkpt lat="47.38496" lon="6.94882">
        <ele>565.40002441406</ele>
        <time>2023-08-03T11:03:19.000Z</time>
      </trkpt>
      <trkpt lat="47.38504" lon="6.9488">
        <ele>565</ele>
        <time>2023-08-03T11:03:20.000Z</time>
      </trkpt>
      <trkpt lat="47.38536" lon="6.94876">
        <ele>563.20001220703</ele>
        <time>2023-08-03T11:03:23.000Z</time>
      </trkpt>
      <trkpt lat="47.38558" lon="6.94877">
        <ele>562.20001220703</ele>
        <time>2023-08-03T11:03:25.000Z</time>
      </trkpt>
      <trkpt lat="47.38568" lon="6.94875">
        <ele>562</ele>
        <time>2023-08-03T11:03:26.000Z</time>
      </trkpt>
      <trkpt lat="47.38586" lon="6.94869">
        <ele>560.59997558594</ele>
        <time>2023-08-03T11:03:28.000Z</time>
      </trkpt>
      <trkpt lat="47.38596" lon="6.94865">
        <ele>560.20001220703</ele>
        <time>2023-08-03T11:03:29.000Z</time>
      </trkpt>
      <trkpt lat="47.38605" lon="6.9486">
        <ele>559</ele>
        <time>2023-08-03T11:03:30.000Z</time>
      </trkpt>
      <trkpt lat="47.38625" lon="6.94851">
        <ele>558</ele>
        <time>2023-08-03T11:03:32.000Z</time>
      </trkpt>
      <trkpt lat="47.38636" lon="6.94846">
        <ele>557.59997558594</ele>
        <time>2023-08-03T11:03:33.000Z</time>
      </trkpt>
      <trkpt lat="47.38646" lon="6.94845">
        <ele>556.59997558594</ele>
        <time>2023-08-03T11:03:34.000Z</time>
      </trkpt>
      <trkpt lat="47.38658" lon="6.94846">
        <ele>556</ele>
        <time>2023-08-03T11:03:35.000Z</time>
      </trkpt>
      <trkpt lat="47.38676" lon="6.94848">
        <ele>555</ele>
        <time>2023-08-03T11:03:37.000Z</time>
      </trkpt>
      <trkpt lat="47.38707" lon="6.94851">
        <ele>553.79998779297</ele>
        <time>2023-08-03T11:03:40.000Z</time>
      </trkpt>
      <trkpt lat="47.38718" lon="6.94854">
        <ele>553.20001220703</ele>
        <time>2023-08-03T11:03:41.000Z</time>
      </trkpt>
      <trkpt lat="47.38729" lon="6.94857">
        <ele>552.20001220703</ele>
        <time>2023-08-03T11:03:42.000Z</time>
      </trkpt>
      <trkpt lat="47.38763" lon="6.94874">
        <ele>550.79998779297</ele>
        <time>2023-08-03T11:03:45.000Z</time>
      </trkpt>
      <trkpt lat="47.38783" lon="6.94885">
        <ele>549.79998779297</ele>
        <time>2023-08-03T11:03:47.000Z</time>
      </trkpt>
      <trkpt lat="47.38795" lon="6.94892">
        <ele>548.79998779297</ele>
        <time>2023-08-03T11:03:48.000Z</time>
      </trkpt>
      <trkpt lat="47.38804" lon="6.94897">
        <ele>547.79998779297</ele>
        <time>2023-08-03T11:03:49.000Z</time>
      </trkpt>
      <trkpt lat="47.38826" lon="6.94906">
        <ele>546.79998779297</ele>
        <time>2023-08-03T11:03:51.000Z</time>
      </trkpt>
      <trkpt lat="47.38847" lon="6.94918">
        <ele>545</ele>
        <time>2023-08-03T11:03:53.000Z</time>
      </trkpt>
      <trkpt lat="47.38868" lon="6.9493">
        <ele>543.79998779297</ele>
        <time>2023-08-03T11:03:55.000Z</time>
      </trkpt>
      <trkpt lat="47.38898" lon="6.94957">
        <ele>542.40002441406</ele>
        <time>2023-08-03T11:03:58.000Z</time>
      </trkpt>
      <trkpt lat="47.38906" lon="6.94968">
        <ele>541.79998779297</ele>
        <time>2023-08-03T11:03:59.000Z</time>
      </trkpt>
      <trkpt lat="47.38915" lon="6.9498">
        <ele>541.20001220703</ele>
        <time>2023-08-03T11:04:00.000Z</time>
      </trkpt>
      <trkpt lat="47.38931" lon="6.95005">
        <ele>540</ele>
        <time>2023-08-03T11:04:02.000Z</time>
      </trkpt>
      <trkpt lat="47.38939" lon="6.95018">
        <ele>539.40002441406</ele>
        <time>2023-08-03T11:04:03.000Z</time>
      </trkpt>
      <trkpt lat="47.38952" lon="6.95048">
        <ele>538.40002441406</ele>
        <time>2023-08-03T11:04:05.000Z</time>
      </trkpt>
      <trkpt lat="47.38961" lon="6.95079">
        <ele>536.79998779297</ele>
        <time>2023-08-03T11:04:07.000Z</time>
      </trkpt>
      <trkpt lat="47.38967" lon="6.95111">
        <ele>536</ele>
        <time>2023-08-03T11:04:09.000Z</time>
      </trkpt>
      <trkpt lat="47.38969" lon="6.95125">
        <ele>535.40002441406</ele>
        <time>2023-08-03T11:04:10.000Z</time>
      </trkpt>
      <trkpt lat="47.38971" lon="6.95138">
        <ele>535</ele>
        <time>2023-08-03T11:04:11.000Z</time>
      </trkpt>
      <trkpt lat="47.38973" lon="6.95151">
        <ele>534</ele>
        <time>2023-08-03T11:04:12.000Z</time>
      </trkpt>
      <trkpt lat="47.38977" lon="6.95173">
        <ele>532.40002441406</ele>
        <time>2023-08-03T11:04:14.000Z</time>
      </trkpt>
      <trkpt lat="47.38979" lon="6.95184">
        <ele>531.79998779297</ele>
        <time>2023-08-03T11:04:15.000Z</time>
      </trkpt>
      <trkpt lat="47.38981" lon="6.95194">
        <ele>531.20001220703</ele>
        <time>2023-08-03T11:04:16.000Z</time>
      </trkpt>
      <trkpt lat="47.38985" lon="6.95224">
        <ele>530</ele>
        <time>2023-08-03T11:04:19.000Z</time>
      </trkpt>
      <trkpt lat="47.3899" lon="6.95251">
        <ele>529.20001220703</ele>
        <time>2023-08-03T11:04:22.000Z</time>
      </trkpt>
      <trkpt lat="47.38993" lon="6.95258">
        <ele>528.79998779297</ele>
        <time>2023-08-03T11:04:23.000Z</time>
      </trkpt>
      <trkpt lat="47.38997" lon="6.95261">
        <ele>528.59997558594</ele>
        <time>2023-08-03T11:04:24.000Z</time>
      </trkpt>
      <trkpt lat="47.39004" lon="6.9526">
        <ele>528.59997558594</ele>
        <time>2023-08-03T11:04:25.000Z</time>
      </trkpt>
      <trkpt lat="47.39007" lon="6.95256">
        <ele>528.59997558594</ele>
        <time>2023-08-03T11:04:26.000Z</time>
      </trkpt>
      <trkpt lat="47.39011" lon="6.9525">
        <ele>528.59997558594</ele>
        <time>2023-08-03T11:04:27.000Z</time>
      </trkpt>
      <trkpt lat="47.39013" lon="6.95242">
        <ele>528.40002441406</ele>
        <time>2023-08-03T11:04:28.000Z</time>
      </trkpt>
      <trkpt lat="47.39022" lon="6.9521">
        <ele>528</ele>
        <time>2023-08-03T11:04:32.000Z</time>
      </trkpt>
      <trkpt lat="47.3903" lon="6.95182">
        <ele>527.79998779297</ele>
        <time>2023-08-03T11:04:36.000Z</time>
      </trkpt>
      <trkpt lat="47.39033" lon="6.95168">
        <ele>527.79998779297</ele>
        <time>2023-08-03T11:04:38.000Z</time>
      </trkpt>
      <trkpt lat="47.39035" lon="6.95162">
        <ele>527.79998779297</ele>
        <time>2023-08-03T11:04:39.000Z</time>
      </trkpt>
      <trkpt lat="47.39047" lon="6.95119">
        <ele>527.59997558594</ele>
        <time>2023-08-03T11:04:46.000Z</time>
      </trkpt>
      <trkpt lat="47.3905" lon="6.95103">
        <ele>527.59997558594</ele>
        <time>2023-08-03T11:04:49.000Z</time>
      </trkpt>
      <trkpt lat="47.39054" lon="6.95088">
        <ele>527.79998779297</ele>
        <time>2023-08-03T11:04:52.000Z</time>
      </trkpt>
      <trkpt lat="47.39064" lon="6.95053">
        <ele>528.79998779297</ele>
        <time>2023-08-03T11:04:59.000Z</time>
      </trkpt>
      <trkpt lat="47.39068" lon="6.95042">
        <ele>529</ele>
        <time>2023-08-03T11:05:01.000Z</time>
      </trkpt>
      <trkpt lat="47.39072" lon="6.95027">
        <ele>529.40002441406</ele>
        <time>2023-08-03T11:05:04.000Z</time>
      </trkpt>
      <trkpt lat="47.39078" lon="6.95009">
        <ele>530</ele>
        <time>2023-08-03T11:05:08.000Z</time>
      </trkpt>
      <trkpt lat="47.3908" lon="6.95004">
        <ele>530.20001220703</ele>
        <time>2023-08-03T11:05:09.000Z</time>
      </trkpt>
      <trkpt lat="47.39092" lon="6.94967">
        <ele>531</ele>
        <time>2023-08-03T11:05:17.000Z</time>
      </trkpt>
      <trkpt lat="47.39093" lon="6.94964">
        <ele>531.20001220703</ele>
        <time>2023-08-03T11:05:18.000Z</time>
      </trkpt>
      <trkpt lat="47.39105" lon="6.94933">
        <ele>532.20001220703</ele>
        <time>2023-08-03T11:05:25.000Z</time>
      </trkpt>
      <trkpt lat="47.3911" lon="6.9492">
        <ele>532.40002441406</ele>
        <time>2023-08-03T11:05:28.000Z</time>
      </trkpt>
      <trkpt lat="47.39122" lon="6.94896">
        <ele>533.20001220703</ele>
        <time>2023-08-03T11:05:34.000Z</time>
      </trkpt>
      <trkpt lat="47.39131" lon="6.94876">
        <ele>533.40002441406</ele>
        <time>2023-08-03T11:05:39.000Z</time>
      </trkpt>
      <trkpt lat="47.39138" lon="6.94864">
        <ele>533.40002441406</ele>
        <time>2023-08-03T11:05:42.000Z</time>
      </trkpt>
      <trkpt lat="47.39152" lon="6.94836">
        <ele>533.40002441406</ele>
        <time>2023-08-03T11:05:49.000Z</time>
      </trkpt>
      <trkpt lat="47.39169" lon="6.948">
        <ele>533.79998779297</ele>
        <time>2023-08-03T11:05:57.000Z</time>
      </trkpt>
      <trkpt lat="47.39178" lon="6.94768">
        <ele>533.40002441406</ele>
        <time>2023-08-03T11:06:03.000Z</time>
      </trkpt>
      <trkpt lat="47.39183" lon="6.94721">
        <ele>532.79998779297</ele>
        <time>2023-08-03T11:06:12.000Z</time>
      </trkpt>
      <trkpt lat="47.39186" lon="6.94666">
        <ele>534.40002441406</ele>
        <time>2023-08-03T11:06:22.000Z</time>
      </trkpt>
      <trkpt lat="47.39186" lon="6.94661">
        <ele>534.79998779297</ele>
        <time>2023-08-03T11:06:23.000Z</time>
      </trkpt>
      <trkpt lat="47.39186" lon="6.94631">
        <ele>535.59997558594</ele>
        <time>2023-08-03T11:06:29.000Z</time>
      </trkpt>
      <trkpt lat="47.39187" lon="6.94622">
        <ele>535.59997558594</ele>
        <time>2023-08-03T11:06:31.000Z</time>
      </trkpt>
      <trkpt lat="47.3919" lon="6.94586">
        <ele>536.59997558594</ele>
        <time>2023-08-03T11:06:39.000Z</time>
      </trkpt>
      <trkpt lat="47.3919" lon="6.94581">
        <ele>537</ele>
        <time>2023-08-03T11:06:40.000Z</time>
      </trkpt>
      <trkpt lat="47.3919" lon="6.94561">
        <ele>537.79998779297</ele>
        <time>2023-08-03T11:06:45.000Z</time>
      </trkpt>
      <trkpt lat="47.39189" lon="6.94552">
        <ele>538.20001220703</ele>
        <time>2023-08-03T11:06:47.000Z</time>
      </trkpt>
      <trkpt lat="47.3919" lon="6.94539">
        <ele>539</ele>
        <time>2023-08-03T11:06:50.000Z</time>
      </trkpt>
      <trkpt lat="47.39191" lon="6.94515">
        <ele>540</ele>
        <time>2023-08-03T11:06:55.000Z</time>
      </trkpt>
      <trkpt lat="47.39191" lon="6.9451">
        <ele>540.20001220703</ele>
        <time>2023-08-03T11:06:56.000Z</time>
      </trkpt>
      <trkpt lat="47.39191" lon="6.94488">
        <ele>541.20001220703</ele>
        <time>2023-08-03T11:07:01.000Z</time>
      </trkpt>
      <trkpt lat="47.3919" lon="6.94471">
        <ele>541.79998779297</ele>
        <time>2023-08-03T11:07:05.000Z</time>
      </trkpt>
      <trkpt lat="47.3919" lon="6.9445">
        <ele>542.20001220703</ele>
        <time>2023-08-03T11:07:10.000Z</time>
      </trkpt>
      <trkpt lat="47.39189" lon="6.94432">
        <ele>542.59997558594</ele>
        <time>2023-08-03T11:07:14.000Z</time>
      </trkpt>
      <trkpt lat="47.39189" lon="6.9441">
        <ele>543.20001220703</ele>
        <time>2023-08-03T11:07:19.000Z</time>
      </trkpt>
      <trkpt lat="47.39187" lon="6.94398">
        <ele>543.40002441406</ele>
        <time>2023-08-03T11:07:22.000Z</time>
      </trkpt>
      <trkpt lat="47.39185" lon="6.94376">
        <ele>544.40002441406</ele>
        <time>2023-08-03T11:07:27.000Z</time>
      </trkpt>
      <trkpt lat="47.39184" lon="6.94366">
        <ele>544.79998779297</ele>
        <time>2023-08-03T11:07:29.000Z</time>
      </trkpt>
      <trkpt lat="47.39183" lon="6.94347">
        <ele>545.40002441406</ele>
        <time>2023-08-03T11:07:33.000Z</time>
      </trkpt>
      <trkpt lat="47.39181" lon="6.94327">
        <ele>546.40002441406</ele>
        <time>2023-08-03T11:07:37.000Z</time>
      </trkpt>
      <trkpt lat="47.3918" lon="6.94322">
        <ele>546.40002441406</ele>
        <time>2023-08-03T11:07:38.000Z</time>
      </trkpt>
      <trkpt lat="47.39175" lon="6.94275">
        <ele>547</ele>
        <time>2023-08-03T11:07:47.000Z</time>
      </trkpt>
      <trkpt lat="47.39173" lon="6.9426">
        <ele>547.59997558594</ele>
        <time>2023-08-03T11:07:50.000Z</time>
      </trkpt>
      <trkpt lat="47.39173" lon="6.94245">
        <ele>547.79998779297</ele>
        <time>2023-08-03T11:07:53.000Z</time>
      </trkpt>
      <trkpt lat="47.39173" lon="6.94211">
        <ele>548.40002441406</ele>
        <time>2023-08-03T11:07:58.000Z</time>
      </trkpt>
      <trkpt lat="47.39166" lon="6.94163">
        <ele>548.20001220703</ele>
        <time>2023-08-03T11:08:04.000Z</time>
      </trkpt>
      <trkpt lat="47.39154" lon="6.9412">
        <ele>546.79998779297</ele>
        <time>2023-08-03T11:08:09.000Z</time>
      </trkpt>
      <trkpt lat="47.3915" lon="6.94112">
        <ele>546.40002441406</ele>
        <time>2023-08-03T11:08:10.000Z</time>
      </trkpt>
      <trkpt lat="47.39146" lon="6.94104">
        <ele>546</ele>
        <time>2023-08-03T11:08:11.000Z</time>
      </trkpt>
      <trkpt lat="47.39136" lon="6.94091">
        <ele>545.40002441406</ele>
        <time>2023-08-03T11:08:13.000Z</time>
      </trkpt>
      <trkpt lat="47.3913" lon="6.94084">
        <ele>544.79998779297</ele>
        <time>2023-08-03T11:08:14.000Z</time>
      </trkpt>
      <trkpt lat="47.39125" lon="6.94076">
        <ele>544.59997558594</ele>
        <time>2023-08-03T11:08:15.000Z</time>
      </trkpt>
      <trkpt lat="47.3912" lon="6.94069">
        <ele>544.20001220703</ele>
        <time>2023-08-03T11:08:16.000Z</time>
      </trkpt>
      <trkpt lat="47.39112" lon="6.94053">
        <ele>543.79998779297</ele>
        <time>2023-08-03T11:08:18.000Z</time>
      </trkpt>
      <trkpt lat="47.39108" lon="6.94046">
        <ele>543.20001220703</ele>
        <time>2023-08-03T11:08:19.000Z</time>
      </trkpt>
      <trkpt lat="47.39104" lon="6.9403">
        <ele>542.59997558594</ele>
        <time>2023-08-03T11:08:21.000Z</time>
      </trkpt>
      <trkpt lat="47.39101" lon="6.94015">
        <ele>542.59997558594</ele>
        <time>2023-08-03T11:08:23.000Z</time>
      </trkpt>
      <trkpt lat="47.39088" lon="6.93951">
        <ele>542.59997558594</ele>
        <time>2023-08-03T11:08:32.000Z</time>
      </trkpt>
      <trkpt lat="47.39076" lon="6.93891">
        <ele>543.20001220703</ele>
        <time>2023-08-03T11:08:41.000Z</time>
      </trkpt>
      <trkpt lat="47.39076" lon="6.93884">
        <ele>543.40002441406</ele>
        <time>2023-08-03T11:08:42.000Z</time>
      </trkpt>
      <trkpt lat="47.39079" lon="6.93873">
        <ele>543.59997558594</ele>
        <time>2023-08-03T11:08:44.000Z</time>
      </trkpt>
      <trkpt lat="47.39087" lon="6.93865">
        <ele>543.79998779297</ele>
        <time>2023-08-03T11:08:46.000Z</time>
      </trkpt>
      <trkpt lat="47.39091" lon="6.93863">
        <ele>544</ele>
        <time>2023-08-03T11:08:47.000Z</time>
      </trkpt>
      <trkpt lat="47.39094" lon="6.93861">
        <ele>544</ele>
        <time>2023-08-03T11:08:48.000Z</time>
      </trkpt>
      <trkpt lat="47.39098" lon="6.93859">
        <ele>544</ele>
        <time>2023-08-03T11:08:49.000Z</time>
      </trkpt>
      <trkpt lat="47.39102" lon="6.93857">
        <ele>544</ele>
        <time>2023-08-03T11:08:50.000Z</time>
      </trkpt>
      <trkpt lat="47.39113" lon="6.93852">
        <ele>544.59997558594</ele>
        <time>2023-08-03T11:08:53.000Z</time>
      </trkpt>
      <trkpt lat="47.39127" lon="6.93847">
        <ele>545.20001220703</ele>
        <time>2023-08-03T11:08:57.000Z</time>
      </trkpt>
      <trkpt lat="47.39134" lon="6.93847">
        <ele>545.79998779297</ele>
        <time>2023-08-03T11:08:59.000Z</time>
      </trkpt>
      <trkpt lat="47.39141" lon="6.93851">
        <ele>546.40002441406</ele>
        <time>2023-08-03T11:09:01.000Z</time>
      </trkpt>
      <trkpt lat="47.39151" lon="6.93858">
        <ele>547.40002441406</ele>
        <time>2023-08-03T11:09:04.000Z</time>
      </trkpt>
      <trkpt lat="47.39154" lon="6.9386">
        <ele>547.59997558594</ele>
        <time>2023-08-03T11:09:05.000Z</time>
      </trkpt>
      <trkpt lat="47.39168" lon="6.9386">
        <ele>548.59997558594</ele>
        <time>2023-08-03T11:09:09.000Z</time>
      </trkpt>
      <trkpt lat="47.39172" lon="6.93859">
        <ele>549</ele>
        <time>2023-08-03T11:09:10.000Z</time>
      </trkpt>
      <trkpt lat="47.39181" lon="6.93854">
        <ele>550</ele>
        <time>2023-08-03T11:09:13.000Z</time>
      </trkpt>
      <trkpt lat="47.39191" lon="6.93847">
        <ele>550.59997558594</ele>
        <time>2023-08-03T11:09:16.000Z</time>
      </trkpt>
      <trkpt lat="47.39199" lon="6.93839">
        <ele>551.20001220703</ele>
        <time>2023-08-03T11:09:19.000Z</time>
      </trkpt>
      <trkpt lat="47.39214" lon="6.93825">
        <ele>551.79998779297</ele>
        <time>2023-08-03T11:09:24.000Z</time>
      </trkpt>
      <trkpt lat="47.39221" lon="6.93818">
        <ele>552.20001220703</ele>
        <time>2023-08-03T11:09:26.000Z</time>
      </trkpt>
      <trkpt lat="47.39236" lon="6.93803">
        <ele>553</ele>
        <time>2023-08-03T11:09:32.000Z</time>
      </trkpt>
      <trkpt lat="47.39238" lon="6.93801">
        <ele>553.40002441406</ele>
        <time>2023-08-03T11:09:33.000Z</time>
      </trkpt>
      <trkpt lat="47.3925" lon="6.93787">
        <ele>554.40002441406</ele>
        <time>2023-08-03T11:09:38.000Z</time>
      </trkpt>
      <trkpt lat="47.39262" lon="6.93774">
        <ele>555.59997558594</ele>
        <time>2023-08-03T11:09:43.000Z</time>
      </trkpt>
      <trkpt lat="47.39273" lon="6.93764">
        <ele>556.40002441406</ele>
        <time>2023-08-03T11:09:47.000Z</time>
      </trkpt>
      <trkpt lat="47.39275" lon="6.93763">
        <ele>556.79998779297</ele>
        <time>2023-08-03T11:09:48.000Z</time>
      </trkpt>
      <trkpt lat="47.39286" lon="6.93753">
        <ele>558</ele>
        <time>2023-08-03T11:09:52.000Z</time>
      </trkpt>
      <trkpt lat="47.39288" lon="6.93751">
        <ele>558.20001220703</ele>
        <time>2023-08-03T11:09:53.000Z</time>
      </trkpt>
      <trkpt lat="47.39293" lon="6.93747">
        <ele>559</ele>
        <time>2023-08-03T11:09:55.000Z</time>
      </trkpt>
      <trkpt lat="47.39308" lon="6.93737">
        <ele>560</ele>
        <time>2023-08-03T11:10:00.000Z</time>
      </trkpt>
      <trkpt lat="47.3931" lon="6.93735">
        <ele>560.40002441406</ele>
        <time>2023-08-03T11:10:01.000Z</time>
      </trkpt>
      <trkpt lat="47.39326" lon="6.93729">
        <ele>561.20001220703</ele>
        <time>2023-08-03T11:10:06.000Z</time>
      </trkpt>
      <trkpt lat="47.39335" lon="6.93727">
        <ele>561.59997558594</ele>
        <time>2023-08-03T11:10:09.000Z</time>
      </trkpt>
      <trkpt lat="47.39342" lon="6.93726">
        <ele>562</ele>
        <time>2023-08-03T11:10:11.000Z</time>
      </trkpt>
      <trkpt lat="47.39348" lon="6.93726">
        <ele>562.59997558594</ele>
        <time>2023-08-03T11:10:13.000Z</time>
      </trkpt>
      <trkpt lat="47.3936" lon="6.93726">
        <ele>563.59997558594</ele>
        <time>2023-08-03T11:10:17.000Z</time>
      </trkpt>
      <trkpt lat="47.39369" lon="6.93724">
        <ele>563.79998779297</ele>
        <time>2023-08-03T11:10:20.000Z</time>
      </trkpt>
      <trkpt lat="47.39385" lon="6.93724">
        <ele>564</ele>
        <time>2023-08-03T11:10:25.000Z</time>
      </trkpt>
      <trkpt lat="47.39413" lon="6.93718">
        <ele>564.40002441406</ele>
        <time>2023-08-03T11:10:32.000Z</time>
      </trkpt>
      <trkpt lat="47.39444" lon="6.93708">
        <ele>564.20001220703</ele>
        <time>2023-08-03T11:10:38.000Z</time>
      </trkpt>
      <trkpt lat="47.39454" lon="6.937">
        <ele>563.40002441406</ele>
        <time>2023-08-03T11:10:40.000Z</time>
      </trkpt>
      <trkpt lat="47.39463" lon="6.9369">
        <ele>562.59997558594</ele>
        <time>2023-08-03T11:10:42.000Z</time>
      </trkpt>
      <trkpt lat="47.39467" lon="6.93685">
        <ele>562.40002441406</ele>
        <time>2023-08-03T11:10:43.000Z</time>
      </trkpt>
      <trkpt lat="47.39479" lon="6.9367">
        <ele>562.20001220703</ele>
        <time>2023-08-03T11:10:46.000Z</time>
      </trkpt>
      <trkpt lat="47.39488" lon="6.93663">
        <ele>562.20001220703</ele>
        <time>2023-08-03T11:10:48.000Z</time>
      </trkpt>
      <trkpt lat="47.39492" lon="6.93659">
        <ele>562.59997558594</ele>
        <time>2023-08-03T11:10:49.000Z</time>
      </trkpt>
      <trkpt lat="47.3952" lon="6.93642">
        <ele>563.79998779297</ele>
        <time>2023-08-03T11:10:56.000Z</time>
      </trkpt>
      <trkpt lat="47.39546" lon="6.93633">
        <ele>564.79998779297</ele>
        <time>2023-08-03T11:11:02.000Z</time>
      </trkpt>
      <trkpt lat="47.3955" lon="6.93631">
        <ele>565</ele>
        <time>2023-08-03T11:11:03.000Z</time>
      </trkpt>
      <trkpt lat="47.39571" lon="6.93622">
        <ele>565.20001220703</ele>
        <time>2023-08-03T11:11:08.000Z</time>
      </trkpt>
      <trkpt lat="47.39579" lon="6.93618">
        <ele>565.40002441406</ele>
        <time>2023-08-03T11:11:10.000Z</time>
      </trkpt>
      <trkpt lat="47.39614" lon="6.93603">
        <ele>566</ele>
        <time>2023-08-03T11:11:18.000Z</time>
      </trkpt>
      <trkpt lat="47.39623" lon="6.93599">
        <ele>566</ele>
        <time>2023-08-03T11:11:20.000Z</time>
      </trkpt>
      <trkpt lat="47.39643" lon="6.93597">
        <ele>566.40002441406</ele>
        <time>2023-08-03T11:11:25.000Z</time>
      </trkpt>
      <trkpt lat="47.39662" lon="6.936">
        <ele>567</ele>
        <time>2023-08-03T11:11:30.000Z</time>
      </trkpt>
      <trkpt lat="47.39666" lon="6.93601">
        <ele>567.20001220703</ele>
        <time>2023-08-03T11:11:31.000Z</time>
      </trkpt>
      <trkpt lat="47.397" lon="6.93608">
        <ele>568.20001220703</ele>
        <time>2023-08-03T11:11:40.000Z</time>
      </trkpt>
      <trkpt lat="47.39703" lon="6.93609">
        <ele>568.40002441406</ele>
        <time>2023-08-03T11:11:41.000Z</time>
      </trkpt>
      <trkpt lat="47.39712" lon="6.93611">
        <ele>568.59997558594</ele>
        <time>2023-08-03T11:11:43.000Z</time>
      </trkpt>
      <trkpt lat="47.39731" lon="6.93615">
        <ele>569.20001220703</ele>
        <time>2023-08-03T11:11:48.000Z</time>
      </trkpt>
      <trkpt lat="47.39741" lon="6.93617">
        <ele>569.40002441406</ele>
        <time>2023-08-03T11:11:51.000Z</time>
      </trkpt>
      <trkpt lat="47.39772" lon="6.93622">
        <ele>570.20001220703</ele>
        <time>2023-08-03T11:11:59.000Z</time>
      </trkpt>
      <trkpt lat="47.39791" lon="6.93626">
        <ele>571.40002441406</ele>
        <time>2023-08-03T11:12:04.000Z</time>
      </trkpt>
      <trkpt lat="47.39809" lon="6.93632">
        <ele>571.79998779297</ele>
        <time>2023-08-03T11:12:09.000Z</time>
      </trkpt>
      <trkpt lat="47.39819" lon="6.93641">
        <ele>572.59997558594</ele>
        <time>2023-08-03T11:12:12.000Z</time>
      </trkpt>
      <trkpt lat="47.39829" lon="6.93654">
        <ele>573</ele>
        <time>2023-08-03T11:12:15.000Z</time>
      </trkpt>
      <trkpt lat="47.39842" lon="6.93681">
        <ele>573.20001220703</ele>
        <time>2023-08-03T11:12:20.000Z</time>
      </trkpt>
      <trkpt lat="47.39845" lon="6.93686">
        <ele>573.20001220703</ele>
        <time>2023-08-03T11:12:21.000Z</time>
      </trkpt>
      <trkpt lat="47.39849" lon="6.93691">
        <ele>573.20001220703</ele>
        <time>2023-08-03T11:12:22.000Z</time>
      </trkpt>
      <trkpt lat="47.39857" lon="6.93694">
        <ele>573.20001220703</ele>
        <time>2023-08-03T11:12:24.000Z</time>
      </trkpt>
      <trkpt lat="47.39869" lon="6.93694">
        <ele>573</ele>
        <time>2023-08-03T11:12:26.000Z</time>
      </trkpt>
      <trkpt lat="47.3988" lon="6.93689">
        <ele>573</ele>
        <time>2023-08-03T11:12:28.000Z</time>
      </trkpt>
      <trkpt lat="47.39893" lon="6.93681">
        <ele>572.79998779297</ele>
        <time>2023-08-03T11:12:30.000Z</time>
      </trkpt>
      <trkpt lat="47.3991" lon="6.93667">
        <ele>571.79998779297</ele>
        <time>2023-08-03T11:12:33.000Z</time>
      </trkpt>
      <trkpt lat="47.39917" lon="6.9366">
        <ele>571.20001220703</ele>
        <time>2023-08-03T11:12:34.000Z</time>
      </trkpt>
      <trkpt lat="47.3994" lon="6.93644">
        <ele>570.40002441406</ele>
        <time>2023-08-03T11:12:38.000Z</time>
      </trkpt>
      <trkpt lat="47.39947" lon="6.9364">
        <ele>570</ele>
        <time>2023-08-03T11:12:39.000Z</time>
      </trkpt>
      <trkpt lat="47.39971" lon="6.93632">
        <ele>569.20001220703</ele>
        <time>2023-08-03T11:12:43.000Z</time>
      </trkpt>
      <trkpt lat="47.39985" lon="6.93632">
        <ele>569</ele>
        <time>2023-08-03T11:12:45.000Z</time>
      </trkpt>
      <trkpt lat="47.39992" lon="6.93635">
        <ele>569</ele>
        <time>2023-08-03T11:12:46.000Z</time>
      </trkpt>
      <trkpt lat="47.39998" lon="6.93641">
        <ele>569</ele>
        <time>2023-08-03T11:12:47.000Z</time>
      </trkpt>
      <trkpt lat="47.40005" lon="6.93649">
        <ele>569</ele>
        <time>2023-08-03T11:12:48.000Z</time>
      </trkpt>
      <trkpt lat="47.4001" lon="6.93659">
        <ele>569</ele>
        <time>2023-08-03T11:12:49.000Z</time>
      </trkpt>
      <trkpt lat="47.40025" lon="6.93712">
        <ele>567.40002441406</ele>
        <time>2023-08-03T11:12:53.000Z</time>
      </trkpt>
      <trkpt lat="47.40032" lon="6.93738">
        <ele>566.20001220703</ele>
        <time>2023-08-03T11:12:55.000Z</time>
      </trkpt>
      <trkpt lat="47.40047" lon="6.93784">
        <ele>564.59997558594</ele>
        <time>2023-08-03T11:12:58.000Z</time>
      </trkpt>
      <trkpt lat="47.4005" lon="6.93796">
        <ele>564.40002441406</ele>
        <time>2023-08-03T11:12:59.000Z</time>
      </trkpt>
      <trkpt lat="47.4006" lon="6.93826">
        <ele>563.40002441406</ele>
        <time>2023-08-03T11:13:01.000Z</time>
      </trkpt>
      <trkpt lat="47.40069" lon="6.93861">
        <ele>562.40002441406</ele>
        <time>2023-08-03T11:13:04.000Z</time>
      </trkpt>
      <trkpt lat="47.40084" lon="6.93915">
        <ele>562.59997558594</ele>
        <time>2023-08-03T11:13:09.000Z</time>
      </trkpt>
      <trkpt lat="47.40088" lon="6.93933">
        <ele>563.59997558594</ele>
        <time>2023-08-03T11:13:11.000Z</time>
      </trkpt>
      <trkpt lat="47.40094" lon="6.93958">
        <ele>564.59997558594</ele>
        <time>2023-08-03T11:13:14.000Z</time>
      </trkpt>
      <trkpt lat="47.40096" lon="6.93964">
        <ele>565</ele>
        <time>2023-08-03T11:13:15.000Z</time>
      </trkpt>
      <trkpt lat="47.401" lon="6.93981">
        <ele>566</ele>
        <time>2023-08-03T11:13:17.000Z</time>
      </trkpt>
      <trkpt lat="47.40106" lon="6.94003">
        <ele>567.20001220703</ele>
        <time>2023-08-03T11:13:20.000Z</time>
      </trkpt>
      <trkpt lat="47.40111" lon="6.9402">
        <ele>567.59997558594</ele>
        <time>2023-08-03T11:13:22.000Z</time>
      </trkpt>
      <trkpt lat="47.40117" lon="6.94034">
        <ele>567.79998779297</ele>
        <time>2023-08-03T11:13:24.000Z</time>
      </trkpt>
      <trkpt lat="47.40128" lon="6.94049">
        <ele>568.20001220703</ele>
        <time>2023-08-03T11:13:27.000Z</time>
      </trkpt>
      <trkpt lat="47.40133" lon="6.94055">
        <ele>568.20001220703</ele>
        <time>2023-08-03T11:13:28.000Z</time>
      </trkpt>
      <trkpt lat="47.40156" lon="6.94079">
        <ele>569.20001220703</ele>
        <time>2023-08-03T11:13:34.000Z</time>
      </trkpt>
      <trkpt lat="47.40166" lon="6.94091">
        <ele>570.59997558594</ele>
        <time>2023-08-03T11:13:37.000Z</time>
      </trkpt>
      <trkpt lat="47.40171" lon="6.94096">
        <ele>570.79998779297</ele>
        <time>2023-08-03T11:13:38.000Z</time>
      </trkpt>
      <trkpt lat="47.40177" lon="6.94105">
        <ele>571.59997558594</ele>
        <time>2023-08-03T11:13:40.000Z</time>
      </trkpt>
      <trkpt lat="47.40194" lon="6.94125">
        <ele>572.79998779297</ele>
        <time>2023-08-03T11:13:45.000Z</time>
      </trkpt>
      <trkpt lat="47.40214" lon="6.94151">
        <ele>573.40002441406</ele>
        <time>2023-08-03T11:13:51.000Z</time>
      </trkpt>
      <trkpt lat="47.40252" lon="6.94193">
        <ele>573.79998779297</ele>
        <time>2023-08-03T11:14:01.000Z</time>
      </trkpt>
      <trkpt lat="47.40279" lon="6.94213">
        <ele>574.79998779297</ele>
        <time>2023-08-03T11:14:07.000Z</time>
      </trkpt>
      <trkpt lat="47.40288" lon="6.94219">
        <ele>575.40002441406</ele>
        <time>2023-08-03T11:14:09.000Z</time>
      </trkpt>
      <trkpt lat="47.403" lon="6.94228">
        <ele>576</ele>
        <time>2023-08-03T11:14:12.000Z</time>
      </trkpt>
      <trkpt lat="47.40334" lon="6.94252">
        <ele>577.20001220703</ele>
        <time>2023-08-03T11:14:20.000Z</time>
      </trkpt>
      <trkpt lat="47.40354" lon="6.94268">
        <ele>577.20001220703</ele>
        <time>2023-08-03T11:14:24.000Z</time>
      </trkpt>
      <trkpt lat="47.40396" lon="6.94307">
        <ele>576.40002441406</ele>
        <time>2023-08-03T11:14:31.000Z</time>
      </trkpt>
      <trkpt lat="47.40417" lon="6.94331">
        <ele>577.20001220703</ele>
        <time>2023-08-03T11:14:36.000Z</time>
      </trkpt>
      <trkpt lat="47.40421" lon="6.94335">
        <ele>577.59997558594</ele>
        <time>2023-08-03T11:14:37.000Z</time>
      </trkpt>
      <trkpt lat="47.40437" lon="6.94353">
        <ele>578.79998779297</ele>
        <time>2023-08-03T11:14:41.000Z</time>
      </trkpt>
      <trkpt lat="47.40452" lon="6.94372">
        <ele>579.40002441406</ele>
        <time>2023-08-03T11:14:45.000Z</time>
      </trkpt>
      <trkpt lat="47.40464" lon="6.94385">
        <ele>579.79998779297</ele>
        <time>2023-08-03T11:14:48.000Z</time>
      </trkpt>
      <trkpt lat="47.40491" lon="6.94412">
        <ele>580.40002441406</ele>
        <time>2023-08-03T11:14:55.000Z</time>
      </trkpt>
      <trkpt lat="47.4052" lon="6.94437">
        <ele>580.79998779297</ele>
        <time>2023-08-03T11:15:01.000Z</time>
      </trkpt>
      <trkpt lat="47.40533" lon="6.94446">
        <ele>580.79998779297</ele>
        <time>2023-08-03T11:15:03.000Z</time>
      </trkpt>
      <trkpt lat="47.40555" lon="6.94461">
        <ele>580.59997558594</ele>
        <time>2023-08-03T11:15:06.000Z</time>
      </trkpt>
      <trkpt lat="47.406" lon="6.94492">
        <ele>580</ele>
        <time>2023-08-03T11:15:13.000Z</time>
      </trkpt>
      <trkpt lat="47.40646" lon="6.94522">
        <ele>580.40002441406</ele>
        <time>2023-08-03T11:15:21.000Z</time>
      </trkpt>
      <trkpt lat="47.4068" lon="6.94545">
        <ele>580.79998779297</ele>
        <time>2023-08-03T11:15:28.000Z</time>
      </trkpt>
      <trkpt lat="47.40689" lon="6.9455">
        <ele>580.79998779297</ele>
        <time>2023-08-03T11:15:30.000Z</time>
      </trkpt>
      <trkpt lat="47.4071" lon="6.94565">
        <ele>581</ele>
        <time>2023-08-03T11:15:35.000Z</time>
      </trkpt>
      <trkpt lat="47.40737" lon="6.94583">
        <ele>582</ele>
        <time>2023-08-03T11:15:42.000Z</time>
      </trkpt>
      <trkpt lat="47.40741" lon="6.94586">
        <ele>582.20001220703</ele>
        <time>2023-08-03T11:15:43.000Z</time>
      </trkpt>
      <trkpt lat="47.40765" lon="6.946">
        <ele>583.20001220703</ele>
        <time>2023-08-03T11:15:49.000Z</time>
      </trkpt>
      <trkpt lat="47.40781" lon="6.94608">
        <ele>583.40002441406</ele>
        <time>2023-08-03T11:15:53.000Z</time>
      </trkpt>
      <trkpt lat="47.4081" lon="6.94617">
        <ele>584</ele>
        <time>2023-08-03T11:16:01.000Z</time>
      </trkpt>
      <trkpt lat="47.40818" lon="6.94619">
        <ele>584.40002441406</ele>
        <time>2023-08-03T11:16:03.000Z</time>
      </trkpt>
      <trkpt lat="47.40831" lon="6.94624">
        <ele>585.40002441406</ele>
        <time>2023-08-03T11:16:07.000Z</time>
      </trkpt>
      <trkpt lat="47.4084" lon="6.94626">
        <ele>586.40002441406</ele>
        <time>2023-08-03T11:16:10.000Z</time>
      </trkpt>
      <trkpt lat="47.40844" lon="6.94628">
        <ele>586.59997558594</ele>
        <time>2023-08-03T11:16:11.000Z</time>
      </trkpt>
      <trkpt lat="47.40853" lon="6.94631">
        <ele>587.79998779297</ele>
        <time>2023-08-03T11:16:14.000Z</time>
      </trkpt>
      <trkpt lat="47.4086" lon="6.94633">
        <ele>588.40002441406</ele>
        <time>2023-08-03T11:16:16.000Z</time>
      </trkpt>
      <trkpt lat="47.40863" lon="6.94635">
        <ele>588.79998779297</ele>
        <time>2023-08-03T11:16:17.000Z</time>
      </trkpt>
      <trkpt lat="47.40878" lon="6.94644">
        <ele>590</ele>
        <time>2023-08-03T11:16:22.000Z</time>
      </trkpt>
      <trkpt lat="47.40891" lon="6.94652">
        <ele>590.59997558594</ele>
        <time>2023-08-03T11:16:26.000Z</time>
      </trkpt>
      <trkpt lat="47.40897" lon="6.94655">
        <ele>591.20001220703</ele>
        <time>2023-08-03T11:16:28.000Z</time>
      </trkpt>
      <trkpt lat="47.40913" lon="6.94665">
        <ele>592.20001220703</ele>
        <time>2023-08-03T11:16:33.000Z</time>
      </trkpt>
      <trkpt lat="47.40923" lon="6.9467">
        <ele>593.20001220703</ele>
        <time>2023-08-03T11:16:36.000Z</time>
      </trkpt>
      <trkpt lat="47.40936" lon="6.94677">
        <ele>594.40002441406</ele>
        <time>2023-08-03T11:16:40.000Z</time>
      </trkpt>
      <trkpt lat="47.4094" lon="6.94679">
        <ele>594.59997558594</ele>
        <time>2023-08-03T11:16:41.000Z</time>
      </trkpt>
      <trkpt lat="47.40969" lon="6.94696">
        <ele>595.59997558594</ele>
        <time>2023-08-03T11:16:49.000Z</time>
      </trkpt>
      <trkpt lat="47.40973" lon="6.94698">
        <ele>595.59997558594</ele>
        <time>2023-08-03T11:16:50.000Z</time>
      </trkpt>
      <trkpt lat="47.4101" lon="6.94722">
        <ele>595.79998779297</ele>
        <time>2023-08-03T11:16:58.000Z</time>
      </trkpt>
      <trkpt lat="47.41041" lon="6.9475">
        <ele>595.20001220703</ele>
        <time>2023-08-03T11:17:03.000Z</time>
      </trkpt>
      <trkpt lat="47.41054" lon="6.94761">
        <ele>594.40002441406</ele>
        <time>2023-08-03T11:17:05.000Z</time>
      </trkpt>
      <trkpt lat="47.41092" lon="6.94794">
        <ele>593.59997558594</ele>
        <time>2023-08-03T11:17:11.000Z</time>
      </trkpt>
      <trkpt lat="47.41104" lon="6.94804">
        <ele>593.40002441406</ele>
        <time>2023-08-03T11:17:13.000Z</time>
      </trkpt>
      <trkpt lat="47.41146" lon="6.94841">
        <ele>593.40002441406</ele>
        <time>2023-08-03T11:17:20.000Z</time>
      </trkpt>
      <trkpt lat="47.41193" lon="6.94883">
        <ele>593.79998779297</ele>
        <time>2023-08-03T11:17:28.000Z</time>
      </trkpt>
      <trkpt lat="47.41211" lon="6.94899">
        <ele>594</ele>
        <time>2023-08-03T11:17:31.000Z</time>
      </trkpt>
      <trkpt lat="47.41243" lon="6.94928">
        <ele>594.59997558594</ele>
        <time>2023-08-03T11:17:37.000Z</time>
      </trkpt>
      <trkpt lat="47.4126" lon="6.94944">
        <ele>595</ele>
        <time>2023-08-03T11:17:40.000Z</time>
      </trkpt>
      <trkpt lat="47.41293" lon="6.94984">
        <ele>595.40002441406</ele>
        <time>2023-08-03T11:17:46.000Z</time>
      </trkpt>
      <trkpt lat="47.41323" lon="6.95033">
        <ele>595</ele>
        <time>2023-08-03T11:17:52.000Z</time>
      </trkpt>
      <trkpt lat="47.41333" lon="6.95048">
        <ele>594.59997558594</ele>
        <time>2023-08-03T11:17:54.000Z</time>
      </trkpt>
      <trkpt lat="47.41347" lon="6.95061">
        <ele>594.20001220703</ele>
        <time>2023-08-03T11:17:56.000Z</time>
      </trkpt>
      <trkpt lat="47.41362" lon="6.95067">
        <ele>593.40002441406</ele>
        <time>2023-08-03T11:17:58.000Z</time>
      </trkpt>
      <trkpt lat="47.41379" lon="6.95072">
        <ele>593.20001220703</ele>
        <time>2023-08-03T11:18:00.000Z</time>
      </trkpt>
      <trkpt lat="47.41414" lon="6.95081">
        <ele>592.20001220703</ele>
        <time>2023-08-03T11:18:04.000Z</time>
      </trkpt>
      <trkpt lat="47.41431" lon="6.95085">
        <ele>591.20001220703</ele>
        <time>2023-08-03T11:18:06.000Z</time>
      </trkpt>
      <trkpt lat="47.41457" lon="6.95092">
        <ele>590.40002441406</ele>
        <time>2023-08-03T11:18:09.000Z</time>
      </trkpt>
      <trkpt lat="47.41475" lon="6.95095">
        <ele>590</ele>
        <time>2023-08-03T11:18:11.000Z</time>
      </trkpt>
      <trkpt lat="47.41536" lon="6.95104">
        <ele>589.20001220703</ele>
        <time>2023-08-03T11:18:18.000Z</time>
      </trkpt>
      <trkpt lat="47.41563" lon="6.95107">
        <ele>589</ele>
        <time>2023-08-03T11:18:21.000Z</time>
      </trkpt>
      <trkpt lat="47.41593" lon="6.95111">
        <ele>588</ele>
        <time>2023-08-03T11:18:25.000Z</time>
      </trkpt>
      <trkpt lat="47.416" lon="6.95111">
        <ele>587.59997558594</ele>
        <time>2023-08-03T11:18:26.000Z</time>
      </trkpt>
      <trkpt lat="47.41612" lon="6.95113">
        <ele>586.40002441406</ele>
        <time>2023-08-03T11:18:28.000Z</time>
      </trkpt>
      <trkpt lat="47.41621" lon="6.95114">
        <ele>585.40002441406</ele>
        <time>2023-08-03T11:18:30.000Z</time>
      </trkpt>
      <trkpt lat="47.41632" lon="6.95115">
        <ele>584.20001220703</ele>
        <time>2023-08-03T11:18:33.000Z</time>
      </trkpt>
      <trkpt lat="47.41638" lon="6.95117">
        <ele>583.59997558594</ele>
        <time>2023-08-03T11:18:35.000Z</time>
      </trkpt>
      <trkpt lat="47.4164" lon="6.95119">
        <ele>582.79998779297</ele>
        <time>2023-08-03T11:18:36.000Z</time>
      </trkpt>
      <trkpt lat="47.41644" lon="6.95123">
        <ele>581.20001220703</ele>
        <time>2023-08-03T11:18:39.000Z</time>
      </trkpt>
      <trkpt lat="47.41645" lon="6.95123">
        <ele>580.40002441406</ele>
        <time>2023-08-03T11:18:41.000Z</time>
      </trkpt>
      <trkpt lat="47.41645" lon="6.95123">
        <ele>580.20001220703</ele>
        <time>2023-08-03T11:18:42.000Z</time>
      </trkpt>
      <trkpt lat="47.41651" lon="6.95127">
        <ele>579.59997558594</ele>
        <time>2023-08-03T11:18:46.000Z</time>
      </trkpt>
      <trkpt lat="47.41652" lon="6.9513">
        <ele>579.59997558594</ele>
        <time>2023-08-03T11:18:47.000Z</time>
      </trkpt>
      <trkpt lat="47.4166" lon="6.9515">
        <ele>579.79998779297</ele>
        <time>2023-08-03T11:18:51.000Z</time>
      </trkpt>
      <trkpt lat="47.41663" lon="6.95155">
        <ele>580</ele>
        <time>2023-08-03T11:18:52.000Z</time>
      </trkpt>
      <trkpt lat="47.41671" lon="6.9517">
        <ele>580</ele>
        <time>2023-08-03T11:18:55.000Z</time>
      </trkpt>
      <trkpt lat="47.41681" lon="6.95183">
        <ele>579.79998779297</ele>
        <time>2023-08-03T11:18:58.000Z</time>
      </trkpt>
      <trkpt lat="47.41684" lon="6.95188">
        <ele>579.20001220703</ele>
        <time>2023-08-03T11:18:59.000Z</time>
      </trkpt>
      <trkpt lat="47.41696" lon="6.952">
        <ele>578.59997558594</ele>
        <time>2023-08-03T11:19:02.000Z</time>
      </trkpt>
      <trkpt lat="47.41704" lon="6.95206">
        <ele>578.59997558594</ele>
        <time>2023-08-03T11:19:04.000Z</time>
      </trkpt>
      <trkpt lat="47.41713" lon="6.95213">
        <ele>578.59997558594</ele>
        <time>2023-08-03T11:19:06.000Z</time>
      </trkpt>
      <trkpt lat="47.4173" lon="6.95228">
        <ele>578.59997558594</ele>
        <time>2023-08-03T11:19:10.000Z</time>
      </trkpt>
      <trkpt lat="47.41737" lon="6.95239">
        <ele>578.59997558594</ele>
        <time>2023-08-03T11:19:12.000Z</time>
      </trkpt>
      <trkpt lat="47.41761" lon="6.95281">
        <ele>579.20001220703</ele>
        <time>2023-08-03T11:19:19.000Z</time>
      </trkpt>
      <trkpt lat="47.41778" lon="6.9533">
        <ele>579</ele>
        <time>2023-08-03T11:19:26.000Z</time>
      </trkpt>
      <trkpt lat="47.41785" lon="6.9535">
        <ele>578.79998779297</ele>
        <time>2023-08-03T11:19:29.000Z</time>
      </trkpt>
      <trkpt lat="47.41792" lon="6.95368">
        <ele>578.40002441406</ele>
        <time>2023-08-03T11:19:32.000Z</time>
      </trkpt>
      <trkpt lat="47.41795" lon="6.95373">
        <ele>578.20001220703</ele>
        <time>2023-08-03T11:19:33.000Z</time>
      </trkpt>
      <trkpt lat="47.4181" lon="6.95403">
        <ele>578</ele>
        <time>2023-08-03T11:19:39.000Z</time>
      </trkpt>
      <trkpt lat="47.41813" lon="6.95408">
        <ele>578</ele>
        <time>2023-08-03T11:19:40.000Z</time>
      </trkpt>
      <trkpt lat="47.41819" lon="6.95435">
        <ele>578.20001220703</ele>
        <time>2023-08-03T11:19:44.000Z</time>
      </trkpt>
      <trkpt lat="47.41826" lon="6.95475">
        <ele>578.20001220703</ele>
        <time>2023-08-03T11:19:49.000Z</time>
      </trkpt>
      <trkpt lat="47.41837" lon="6.95535">
        <ele>577.79998779297</ele>
        <time>2023-08-03T11:19:56.000Z</time>
      </trkpt>
      <trkpt lat="47.41846" lon="6.95579">
        <ele>577.59997558594</ele>
        <time>2023-08-03T11:20:01.000Z</time>
      </trkpt>
      <trkpt lat="47.41851" lon="6.95605">
        <ele>577.40002441406</ele>
        <time>2023-08-03T11:20:04.000Z</time>
      </trkpt>
      <trkpt lat="47.41866" lon="6.95688">
        <ele>576.59997558594</ele>
        <time>2023-08-03T11:20:13.000Z</time>
      </trkpt>
      <trkpt lat="47.41867" lon="6.95698">
        <ele>576.40002441406</ele>
        <time>2023-08-03T11:20:14.000Z</time>
      </trkpt>
      <trkpt lat="47.41874" lon="6.95765">
        <ele>575.79998779297</ele>
        <time>2023-08-03T11:20:21.000Z</time>
      </trkpt>
      <trkpt lat="47.41874" lon="6.95796">
        <ele>575.40002441406</ele>
        <time>2023-08-03T11:20:24.000Z</time>
      </trkpt>
      <trkpt lat="47.41874" lon="6.95828">
        <ele>575.40002441406</ele>
        <time>2023-08-03T11:20:27.000Z</time>
      </trkpt>
      <trkpt lat="47.41873" lon="6.95849">
        <ele>575.20001220703</ele>
        <time>2023-08-03T11:20:29.000Z</time>
      </trkpt>
      <trkpt lat="47.41865" lon="6.95898">
        <ele>575</ele>
        <time>2023-08-03T11:20:34.000Z</time>
      </trkpt>
      <trkpt lat="47.41862" lon="6.95907">
        <ele>575</ele>
        <time>2023-08-03T11:20:35.000Z</time>
      </trkpt>
      <trkpt lat="47.41859" lon="6.95916">
        <ele>575</ele>
        <time>2023-08-03T11:20:36.000Z</time>
      </trkpt>
      <trkpt lat="47.41851" lon="6.95931">
        <ele>574.79998779297</ele>
        <time>2023-08-03T11:20:38.000Z</time>
      </trkpt>
      <trkpt lat="47.41845" lon="6.95938">
        <ele>574.79998779297</ele>
        <time>2023-08-03T11:20:39.000Z</time>
      </trkpt>
      <trkpt lat="47.41841" lon="6.95945">
        <ele>574.59997558594</ele>
        <time>2023-08-03T11:20:40.000Z</time>
      </trkpt>
      <trkpt lat="47.41839" lon="6.95963">
        <ele>574.59997558594</ele>
        <time>2023-08-03T11:20:42.000Z</time>
      </trkpt>
      <trkpt lat="47.41845" lon="6.95976">
        <ele>574.59997558594</ele>
        <time>2023-08-03T11:20:44.000Z</time>
      </trkpt>
      <trkpt lat="47.41855" lon="6.95986">
        <ele>574.59997558594</ele>
        <time>2023-08-03T11:20:46.000Z</time>
      </trkpt>
      <trkpt lat="47.41859" lon="6.95991">
        <ele>574.59997558594</ele>
        <time>2023-08-03T11:20:47.000Z</time>
      </trkpt>
      <trkpt lat="47.41864" lon="6.95997">
        <ele>574.59997558594</ele>
        <time>2023-08-03T11:20:48.000Z</time>
      </trkpt>
      <trkpt lat="47.41867" lon="6.96004">
        <ele>574.59997558594</ele>
        <time>2023-08-03T11:20:49.000Z</time>
      </trkpt>
      <trkpt lat="47.41872" lon="6.9602">
        <ele>574.79998779297</ele>
        <time>2023-08-03T11:20:51.000Z</time>
      </trkpt>
      <trkpt lat="47.41874" lon="6.96029">
        <ele>575</ele>
        <time>2023-08-03T11:20:52.000Z</time>
      </trkpt>
      <trkpt lat="47.41873" lon="6.96085">
        <ele>575.20001220703</ele>
        <time>2023-08-03T11:20:58.000Z</time>
      </trkpt>
      <trkpt lat="47.4187" lon="6.9617">
        <ele>575.20001220703</ele>
        <time>2023-08-03T11:21:07.000Z</time>
      </trkpt>
      <trkpt lat="47.41867" lon="6.96245">
        <ele>574.79998779297</ele>
        <time>2023-08-03T11:21:15.000Z</time>
      </trkpt>
      <trkpt lat="47.41867" lon="6.96273">
        <ele>574.40002441406</ele>
        <time>2023-08-03T11:21:18.000Z</time>
      </trkpt>
      <trkpt lat="47.41864" lon="6.96319">
        <ele>574</ele>
        <time>2023-08-03T11:21:23.000Z</time>
      </trkpt>
      <trkpt lat="47.4187" lon="6.96367">
        <ele>574</ele>
        <time>2023-08-03T11:21:28.000Z</time>
      </trkpt>
      <trkpt lat="47.41889" lon="6.96427">
        <ele>574.20001220703</ele>
        <time>2023-08-03T11:21:35.000Z</time>
      </trkpt>
      <trkpt lat="47.41906" lon="6.96477">
        <ele>574.79998779297</ele>
        <time>2023-08-03T11:21:41.000Z</time>
      </trkpt>
      <trkpt lat="47.41932" lon="6.96552">
        <ele>574.59997558594</ele>
        <time>2023-08-03T11:21:50.000Z</time>
      </trkpt>
      <trkpt lat="47.41953" lon="6.96628">
        <ele>574.59997558594</ele>
        <time>2023-08-03T11:21:59.000Z</time>
      </trkpt>
      <trkpt lat="47.41955" lon="6.96636">
        <ele>574.59997558594</ele>
        <time>2023-08-03T11:22:00.000Z</time>
      </trkpt>
      <trkpt lat="47.41959" lon="6.96653">
        <ele>574.40002441406</ele>
        <time>2023-08-03T11:22:02.000Z</time>
      </trkpt>
      <trkpt lat="47.41975" lon="6.96729">
        <ele>574.40002441406</ele>
        <time>2023-08-03T11:22:11.000Z</time>
      </trkpt>
      <trkpt lat="47.41989" lon="6.96808">
        <ele>574.59997558594</ele>
        <time>2023-08-03T11:22:20.000Z</time>
      </trkpt>
      <trkpt lat="47.41991" lon="6.96817">
        <ele>574.59997558594</ele>
        <time>2023-08-03T11:22:21.000Z</time>
      </trkpt>
      <trkpt lat="47.42004" lon="6.96886">
        <ele>575</ele>
        <time>2023-08-03T11:22:29.000Z</time>
      </trkpt>
      <trkpt lat="47.42009" lon="6.96913">
        <ele>575.40002441406</ele>
        <time>2023-08-03T11:22:32.000Z</time>
      </trkpt>
      <trkpt lat="47.42022" lon="6.9698">
        <ele>575.79998779297</ele>
        <time>2023-08-03T11:22:40.000Z</time>
      </trkpt>
      <trkpt lat="47.42033" lon="6.97044">
        <ele>576.20001220703</ele>
        <time>2023-08-03T11:22:48.000Z</time>
      </trkpt>
      <trkpt lat="47.42035" lon="6.97051">
        <ele>576.40002441406</ele>
        <time>2023-08-03T11:22:49.000Z</time>
      </trkpt>
      <trkpt lat="47.4204" lon="6.97087">
        <ele>577.40002441406</ele>
        <time>2023-08-03T11:22:54.000Z</time>
      </trkpt>
      <trkpt lat="47.42041" lon="6.97101">
        <ele>577.79998779297</ele>
        <time>2023-08-03T11:22:56.000Z</time>
      </trkpt>
      <trkpt lat="47.42042" lon="6.97123">
        <ele>578.59997558594</ele>
        <time>2023-08-03T11:22:59.000Z</time>
      </trkpt>
      <trkpt lat="47.42042" lon="6.97137">
        <ele>579</ele>
        <time>2023-08-03T11:23:01.000Z</time>
      </trkpt>
      <trkpt lat="47.42042" lon="6.97144">
        <ele>579.20001220703</ele>
        <time>2023-08-03T11:23:02.000Z</time>
      </trkpt>
      <trkpt lat="47.42041" lon="6.97166">
        <ele>579.79998779297</ele>
        <time>2023-08-03T11:23:05.000Z</time>
      </trkpt>
      <trkpt lat="47.42039" lon="6.972">
        <ele>581</ele>
        <time>2023-08-03T11:23:10.000Z</time>
      </trkpt>
      <trkpt lat="47.42038" lon="6.97207">
        <ele>581.20001220703</ele>
        <time>2023-08-03T11:23:11.000Z</time>
      </trkpt>
      <trkpt lat="47.42034" lon="6.97228">
        <ele>582</ele>
        <time>2023-08-03T11:23:14.000Z</time>
      </trkpt>
      <trkpt lat="47.42029" lon="6.97255">
        <ele>583</ele>
        <time>2023-08-03T11:23:18.000Z</time>
      </trkpt>
      <trkpt lat="47.42028" lon="6.97262">
        <ele>583.20001220703</ele>
        <time>2023-08-03T11:23:19.000Z</time>
      </trkpt>
      <trkpt lat="47.42027" lon="6.97269">
        <ele>583.40002441406</ele>
        <time>2023-08-03T11:23:20.000Z</time>
      </trkpt>
      <trkpt lat="47.42023" lon="6.97303">
        <ele>584.20001220703</ele>
        <time>2023-08-03T11:23:25.000Z</time>
      </trkpt>
      <trkpt lat="47.4202" lon="6.97338">
        <ele>585.20001220703</ele>
        <time>2023-08-03T11:23:30.000Z</time>
      </trkpt>
      <trkpt lat="47.4202" lon="6.97345">
        <ele>585.40002441406</ele>
        <time>2023-08-03T11:23:31.000Z</time>
      </trkpt>
      <trkpt lat="47.42023" lon="6.97406">
        <ele>586.20001220703</ele>
        <time>2023-08-03T11:23:39.000Z</time>
      </trkpt>
      <trkpt lat="47.42032" lon="6.97467">
        <ele>586.20001220703</ele>
        <time>2023-08-03T11:23:46.000Z</time>
      </trkpt>
      <trkpt lat="47.42044" lon="6.97515">
        <ele>586</ele>
        <time>2023-08-03T11:23:51.000Z</time>
      </trkpt>
      <trkpt lat="47.42047" lon="6.97525">
        <ele>585.79998779297</ele>
        <time>2023-08-03T11:23:52.000Z</time>
      </trkpt>
      <trkpt lat="47.42052" lon="6.97533">
        <ele>585.59997558594</ele>
        <time>2023-08-03T11:23:53.000Z</time>
      </trkpt>
      <trkpt lat="47.42062" lon="6.97552">
        <ele>585.40002441406</ele>
        <time>2023-08-03T11:23:55.000Z</time>
      </trkpt>
      <trkpt lat="47.42102" lon="6.97607">
        <ele>585</ele>
        <time>2023-08-03T11:24:02.000Z</time>
      </trkpt>
      <trkpt lat="47.42113" lon="6.97623">
        <ele>585</ele>
        <time>2023-08-03T11:24:04.000Z</time>
      </trkpt>
      <trkpt lat="47.42148" lon="6.97676">
        <ele>584.59997558594</ele>
        <time>2023-08-03T11:24:10.000Z</time>
      </trkpt>
      <trkpt lat="47.42191" lon="6.97738">
        <ele>584.40002441406</ele>
        <time>2023-08-03T11:24:17.000Z</time>
      </trkpt>
      <trkpt lat="47.4222" lon="6.9778">
        <ele>584.20001220703</ele>
        <time>2023-08-03T11:24:23.000Z</time>
      </trkpt>
      <trkpt lat="47.4225" lon="6.97823">
        <ele>585.20001220703</ele>
        <time>2023-08-03T11:24:30.000Z</time>
      </trkpt>
      <trkpt lat="47.42265" lon="6.97847">
        <ele>586.40002441406</ele>
        <time>2023-08-03T11:24:34.000Z</time>
      </trkpt>
      <trkpt lat="47.42278" lon="6.97865">
        <ele>587</ele>
        <time>2023-08-03T11:24:37.000Z</time>
      </trkpt>
      <trkpt lat="47.42291" lon="6.97884">
        <ele>587.40002441406</ele>
        <time>2023-08-03T11:24:40.000Z</time>
      </trkpt>
      <trkpt lat="47.42314" lon="6.97917">
        <ele>587.79998779297</ele>
        <time>2023-08-03T11:24:45.000Z</time>
      </trkpt>
      <trkpt lat="47.42354" lon="6.9798">
        <ele>587.59997558594</ele>
        <time>2023-08-03T11:24:54.000Z</time>
      </trkpt>
      <trkpt lat="47.42359" lon="6.97988">
        <ele>587.40002441406</ele>
        <time>2023-08-03T11:24:55.000Z</time>
      </trkpt>
      <trkpt lat="47.42389" lon="6.98039">
        <ele>586</ele>
        <time>2023-08-03T11:25:01.000Z</time>
      </trkpt>
      <trkpt lat="47.4242" lon="6.98087">
        <ele>585</ele>
        <time>2023-08-03T11:25:06.000Z</time>
      </trkpt>
      <trkpt lat="47.42427" lon="6.98097">
        <ele>585</ele>
        <time>2023-08-03T11:25:07.000Z</time>
      </trkpt>
      <trkpt lat="47.42455" lon="6.9814">
        <ele>583.59997558594</ele>
        <time>2023-08-03T11:25:11.000Z</time>
      </trkpt>
      <trkpt lat="47.42463" lon="6.98152">
        <ele>583.40002441406</ele>
        <time>2023-08-03T11:25:12.000Z</time>
      </trkpt>
      <trkpt lat="47.42488" lon="6.98189">
        <ele>582.40002441406</ele>
        <time>2023-08-03T11:25:15.000Z</time>
      </trkpt>
      <trkpt lat="47.42504" lon="6.98214">
        <ele>581.20001220703</ele>
        <time>2023-08-03T11:25:17.000Z</time>
      </trkpt>
      <trkpt lat="47.42521" lon="6.98239">
        <ele>580</ele>
        <time>2023-08-03T11:25:19.000Z</time>
      </trkpt>
      <trkpt lat="47.42537" lon="6.98263">
        <ele>578.79998779297</ele>
        <time>2023-08-03T11:25:21.000Z</time>
      </trkpt>
      <trkpt lat="47.42558" lon="6.98301">
        <ele>577.20001220703</ele>
        <time>2023-08-03T11:25:24.000Z</time>
      </trkpt>
      <trkpt lat="47.42563" lon="6.98311">
        <ele>576.59997558594</ele>
        <time>2023-08-03T11:25:25.000Z</time>
      </trkpt>
      <trkpt lat="47.42573" lon="6.98338">
        <ele>576</ele>
        <time>2023-08-03T11:25:27.000Z</time>
      </trkpt>
      <trkpt lat="47.42582" lon="6.98363">
        <ele>575.40002441406</ele>
        <time>2023-08-03T11:25:29.000Z</time>
      </trkpt>
      <trkpt lat="47.42592" lon="6.98389">
        <ele>575</ele>
        <time>2023-08-03T11:25:31.000Z</time>
      </trkpt>
      <trkpt lat="47.42608" lon="6.98429">
        <ele>574.20001220703</ele>
        <time>2023-08-03T11:25:34.000Z</time>
      </trkpt>
      <trkpt lat="47.42624" lon="6.98482">
        <ele>573.59997558594</ele>
        <time>2023-08-03T11:25:38.000Z</time>
      </trkpt>
      <trkpt lat="47.42629" lon="6.98507">
        <ele>573.20001220703</ele>
        <time>2023-08-03T11:25:40.000Z</time>
      </trkpt>
      <trkpt lat="47.42649" lon="6.98578">
        <ele>572.40002441406</ele>
        <time>2023-08-03T11:25:46.000Z</time>
      </trkpt>
      <trkpt lat="47.42661" lon="6.98615">
        <ele>572</ele>
        <time>2023-08-03T11:25:49.000Z</time>
      </trkpt>
      <trkpt lat="47.42668" lon="6.98636">
        <ele>571.79998779297</ele>
        <time>2023-08-03T11:25:51.000Z</time>
      </trkpt>
      <trkpt lat="47.42676" lon="6.9866">
        <ele>571.59997558594</ele>
        <time>2023-08-03T11:25:53.000Z</time>
      </trkpt>
      <trkpt lat="47.42685" lon="6.98683">
        <ele>571.40002441406</ele>
        <time>2023-08-03T11:25:55.000Z</time>
      </trkpt>
      <trkpt lat="47.42696" lon="6.98706">
        <ele>571</ele>
        <time>2023-08-03T11:25:57.000Z</time>
      </trkpt>
      <trkpt lat="47.42712" lon="6.98738">
        <ele>570.20001220703</ele>
        <time>2023-08-03T11:26:00.000Z</time>
      </trkpt>
      <trkpt lat="47.42735" lon="6.98779">
        <ele>569.20001220703</ele>
        <time>2023-08-03T11:26:04.000Z</time>
      </trkpt>
      <trkpt lat="47.42758" lon="6.98815">
        <ele>567.79998779297</ele>
        <time>2023-08-03T11:26:08.000Z</time>
      </trkpt>
      <trkpt lat="47.42781" lon="6.98848">
        <ele>567</ele>
        <time>2023-08-03T11:26:12.000Z</time>
      </trkpt>
      <trkpt lat="47.42792" lon="6.98863">
        <ele>566.79998779297</ele>
        <time>2023-08-03T11:26:14.000Z</time>
      </trkpt>
      <trkpt lat="47.42803" lon="6.98877">
        <ele>566.59997558594</ele>
        <time>2023-08-03T11:26:16.000Z</time>
      </trkpt>
      <trkpt lat="47.4282" lon="6.98897">
        <ele>566.59997558594</ele>
        <time>2023-08-03T11:26:19.000Z</time>
      </trkpt>
      <trkpt lat="47.42853" lon="6.98929">
        <ele>567</ele>
        <time>2023-08-03T11:26:25.000Z</time>
      </trkpt>
      <trkpt lat="47.42891" lon="6.98962">
        <ele>568</ele>
        <time>2023-08-03T11:26:32.000Z</time>
      </trkpt>
      <trkpt lat="47.4291" lon="6.9898">
        <ele>569.20001220703</ele>
        <time>2023-08-03T11:26:36.000Z</time>
      </trkpt>
      <trkpt lat="47.42925" lon="6.98994">
        <ele>570.20001220703</ele>
        <time>2023-08-03T11:26:39.000Z</time>
      </trkpt>
      <trkpt lat="47.4293" lon="6.98999">
        <ele>570.20001220703</ele>
        <time>2023-08-03T11:26:40.000Z</time>
      </trkpt>
      <trkpt lat="47.42954" lon="6.99032">
        <ele>570.59997558594</ele>
        <time>2023-08-03T11:26:46.000Z</time>
      </trkpt>
      <trkpt lat="47.42962" lon="6.99044">
        <ele>570.79998779297</ele>
        <time>2023-08-03T11:26:48.000Z</time>
      </trkpt>
      <trkpt lat="47.42978" lon="6.99069">
        <ele>571.20001220703</ele>
        <time>2023-08-03T11:26:52.000Z</time>
      </trkpt>
      <trkpt lat="47.42982" lon="6.99075">
        <ele>571.20001220703</ele>
        <time>2023-08-03T11:26:53.000Z</time>
      </trkpt>
      <trkpt lat="47.43013" lon="6.99126">
        <ele>571.59997558594</ele>
        <time>2023-08-03T11:27:01.000Z</time>
      </trkpt>
      <trkpt lat="47.43042" lon="6.99175">
        <ele>571.79998779297</ele>
        <time>2023-08-03T11:27:08.000Z</time>
      </trkpt>
      <trkpt lat="47.43061" lon="6.99197">
        <ele>571.40002441406</ele>
        <time>2023-08-03T11:27:12.000Z</time>
      </trkpt>
      <trkpt lat="47.43067" lon="6.992">
        <ele>571.40002441406</ele>
        <time>2023-08-03T11:27:13.000Z</time>
      </trkpt>
      <trkpt lat="47.43079" lon="6.99206">
        <ele>571.20001220703</ele>
        <time>2023-08-03T11:27:15.000Z</time>
      </trkpt>
      <trkpt lat="47.43097" lon="6.99209">
        <ele>571</ele>
        <time>2023-08-03T11:27:18.000Z</time>
      </trkpt>
      <trkpt lat="47.43153" lon="6.99209">
        <ele>570.79998779297</ele>
        <time>2023-08-03T11:27:27.000Z</time>
      </trkpt>
      <trkpt lat="47.43193" lon="6.99213">
        <ele>570.79998779297</ele>
        <time>2023-08-03T11:27:33.000Z</time>
      </trkpt>
      <trkpt lat="47.432" lon="6.99216">
        <ele>570.79998779297</ele>
        <time>2023-08-03T11:27:34.000Z</time>
      </trkpt>
      <trkpt lat="47.43206" lon="6.99219">
        <ele>570.79998779297</ele>
        <time>2023-08-03T11:27:35.000Z</time>
      </trkpt>
      <trkpt lat="47.43217" lon="6.99231">
        <ele>570.59997558594</ele>
        <time>2023-08-03T11:27:37.000Z</time>
      </trkpt>
      <trkpt lat="47.43222" lon="6.99238">
        <ele>570.40002441406</ele>
        <time>2023-08-03T11:27:38.000Z</time>
      </trkpt>
      <trkpt lat="47.43227" lon="6.99246">
        <ele>570.20001220703</ele>
        <time>2023-08-03T11:27:39.000Z</time>
      </trkpt>
      <trkpt lat="47.43242" lon="6.9928">
        <ele>569.79998779297</ele>
        <time>2023-08-03T11:27:43.000Z</time>
      </trkpt>
      <trkpt lat="47.43267" lon="6.99358">
        <ele>569.79998779297</ele>
        <time>2023-08-03T11:27:52.000Z</time>
      </trkpt>
      <trkpt lat="47.4327" lon="6.99367">
        <ele>569.59997558594</ele>
        <time>2023-08-03T11:27:53.000Z</time>
      </trkpt>
      <trkpt lat="47.43284" lon="6.99419">
        <ele>569.40002441406</ele>
        <time>2023-08-03T11:27:59.000Z</time>
      </trkpt>
      <trkpt lat="47.43301" lon="6.99494">
        <ele>570.20001220703</ele>
        <time>2023-08-03T11:28:08.000Z</time>
      </trkpt>
      <trkpt lat="47.4332" lon="6.99578">
        <ele>571</ele>
        <time>2023-08-03T11:28:18.000Z</time>
      </trkpt>
      <trkpt lat="47.43337" lon="6.99649">
        <ele>571.20001220703</ele>
        <time>2023-08-03T11:28:26.000Z</time>
      </trkpt>
      <trkpt lat="47.43358" lon="6.99728">
        <ele>571.40002441406</ele>
        <time>2023-08-03T11:28:35.000Z</time>
      </trkpt>
      <trkpt lat="47.43365" lon="6.99753">
        <ele>571.20001220703</ele>
        <time>2023-08-03T11:28:38.000Z</time>
      </trkpt>
      <trkpt lat="47.43388" lon="6.99824">
        <ele>571.59997558594</ele>
        <time>2023-08-03T11:28:47.000Z</time>
      </trkpt>
      <trkpt lat="47.43391" lon="6.99832">
        <ele>571.59997558594</ele>
        <time>2023-08-03T11:28:48.000Z</time>
      </trkpt>
      <trkpt lat="47.43405" lon="6.99869">
        <ele>572.59997558594</ele>
        <time>2023-08-03T11:28:53.000Z</time>
      </trkpt>
      <trkpt lat="47.43418" lon="6.99905">
        <ele>573.40002441406</ele>
        <time>2023-08-03T11:28:58.000Z</time>
      </trkpt>
      <trkpt lat="47.43431" lon="6.99941">
        <ele>573.79998779297</ele>
        <time>2023-08-03T11:29:03.000Z</time>
      </trkpt>
      <trkpt lat="47.43446" lon="6.99978">
        <ele>575</ele>
        <time>2023-08-03T11:29:08.000Z</time>
      </trkpt>
      <trkpt lat="47.43448" lon="6.99985">
        <ele>575</ele>
        <time>2023-08-03T11:29:09.000Z</time>
      </trkpt>
      <trkpt lat="47.43479" lon="7.00056">
        <ele>575.59997558594</ele>
        <time>2023-08-03T11:29:19.000Z</time>
      </trkpt>
      <trkpt lat="47.43487" lon="7.00069">
        <ele>575.79998779297</ele>
        <time>2023-08-03T11:29:21.000Z</time>
      </trkpt>
      <trkpt lat="47.43515" lon="7.00113">
        <ele>576</ele>
        <time>2023-08-03T11:29:28.000Z</time>
      </trkpt>
      <trkpt lat="47.43535" lon="7.00141">
        <ele>576</ele>
        <time>2023-08-03T11:29:33.000Z</time>
      </trkpt>
      <trkpt lat="47.43557" lon="7.00176">
        <ele>576.40002441406</ele>
        <time>2023-08-03T11:29:39.000Z</time>
      </trkpt>
      <trkpt lat="47.43571" lon="7.00198">
        <ele>577.20001220703</ele>
        <time>2023-08-03T11:29:43.000Z</time>
      </trkpt>
      <trkpt lat="47.43583" lon="7.00219">
        <ele>577.59997558594</ele>
        <time>2023-08-03T11:29:47.000Z</time>
      </trkpt>
      <trkpt lat="47.43595" lon="7.00237">
        <ele>578.20001220703</ele>
        <time>2023-08-03T11:29:51.000Z</time>
      </trkpt>
      <trkpt lat="47.43601" lon="7.00245">
        <ele>579</ele>
        <time>2023-08-03T11:29:53.000Z</time>
      </trkpt>
      <trkpt lat="47.43605" lon="7.00249">
        <ele>579.40002441406</ele>
        <time>2023-08-03T11:29:54.000Z</time>
      </trkpt>
      <trkpt lat="47.43615" lon="7.0026">
        <ele>580.40002441406</ele>
        <time>2023-08-03T11:29:57.000Z</time>
      </trkpt>
      <trkpt lat="47.43625" lon="7.00271">
        <ele>581.59997558594</ele>
        <time>2023-08-03T11:30:00.000Z</time>
      </trkpt>
      <trkpt lat="47.43632" lon="7.00278">
        <ele>582.20001220703</ele>
        <time>2023-08-03T11:30:02.000Z</time>
      </trkpt>
      <trkpt lat="47.43645" lon="7.00288">
        <ele>582.79998779297</ele>
        <time>2023-08-03T11:30:06.000Z</time>
      </trkpt>
      <trkpt lat="47.43651" lon="7.00293">
        <ele>583.40002441406</ele>
        <time>2023-08-03T11:30:08.000Z</time>
      </trkpt>
      <trkpt lat="47.43654" lon="7.00295">
        <ele>584</ele>
        <time>2023-08-03T11:30:09.000Z</time>
      </trkpt>
      <trkpt lat="47.43674" lon="7.00309">
        <ele>585</ele>
        <time>2023-08-03T11:30:15.000Z</time>
      </trkpt>
      <trkpt lat="47.43677" lon="7.00311">
        <ele>585.20001220703</ele>
        <time>2023-08-03T11:30:16.000Z</time>
      </trkpt>
      <trkpt lat="47.43683" lon="7.00315">
        <ele>585.40002441406</ele>
        <time>2023-08-03T11:30:18.000Z</time>
      </trkpt>
      <trkpt lat="47.43693" lon="7.0032">
        <ele>586.20001220703</ele>
        <time>2023-08-03T11:30:21.000Z</time>
      </trkpt>
      <trkpt lat="47.43704" lon="7.00324">
        <ele>587</ele>
        <time>2023-08-03T11:30:24.000Z</time>
      </trkpt>
      <trkpt lat="47.43707" lon="7.00325">
        <ele>587.59997558594</ele>
        <time>2023-08-03T11:30:25.000Z</time>
      </trkpt>
      <trkpt lat="47.43722" lon="7.0033">
        <ele>588.79998779297</ele>
        <time>2023-08-03T11:30:29.000Z</time>
      </trkpt>
      <trkpt lat="47.43733" lon="7.00335">
        <ele>589.79998779297</ele>
        <time>2023-08-03T11:30:32.000Z</time>
      </trkpt>
      <trkpt lat="47.4374" lon="7.00339">
        <ele>590.20001220703</ele>
        <time>2023-08-03T11:30:34.000Z</time>
      </trkpt>
      <trkpt lat="47.43774" lon="7.00367">
        <ele>591</ele>
        <time>2023-08-03T11:30:44.000Z</time>
      </trkpt>
      <trkpt lat="47.43794" lon="7.00388">
        <ele>592.20001220703</ele>
        <time>2023-08-03T11:30:50.000Z</time>
      </trkpt>
      <trkpt lat="47.43802" lon="7.004">
        <ele>592.59997558594</ele>
        <time>2023-08-03T11:30:53.000Z</time>
      </trkpt>
      <trkpt lat="47.43809" lon="7.00409">
        <ele>592.79998779297</ele>
        <time>2023-08-03T11:30:55.000Z</time>
      </trkpt>
      <trkpt lat="47.43823" lon="7.00427">
        <ele>593</ele>
        <time>2023-08-03T11:30:59.000Z</time>
      </trkpt>
      <trkpt lat="47.43851" lon="7.00461">
        <ele>592.59997558594</ele>
        <time>2023-08-03T11:31:06.000Z</time>
      </trkpt>
      <trkpt lat="47.43888" lon="7.00506">
        <ele>592.79998779297</ele>
        <time>2023-08-03T11:31:15.000Z</time>
      </trkpt>
      <trkpt lat="47.43895" lon="7.00516">
        <ele>593.40002441406</ele>
        <time>2023-08-03T11:31:17.000Z</time>
      </trkpt>
      <trkpt lat="47.43898" lon="7.00521">
        <ele>593.59997558594</ele>
        <time>2023-08-03T11:31:18.000Z</time>
      </trkpt>
      <trkpt lat="47.43906" lon="7.0053">
        <ele>593.79998779297</ele>
        <time>2023-08-03T11:31:20.000Z</time>
      </trkpt>
      <trkpt lat="47.43915" lon="7.00535">
        <ele>594.20001220703</ele>
        <time>2023-08-03T11:31:22.000Z</time>
      </trkpt>
      <trkpt lat="47.4392" lon="7.00537">
        <ele>594.20001220703</ele>
        <time>2023-08-03T11:31:23.000Z</time>
      </trkpt>
      <trkpt lat="47.43931" lon="7.00539">
        <ele>594.40002441406</ele>
        <time>2023-08-03T11:31:25.000Z</time>
      </trkpt>
      <trkpt lat="47.43942" lon="7.00539">
        <ele>594.40002441406</ele>
        <time>2023-08-03T11:31:27.000Z</time>
      </trkpt>
      <trkpt lat="47.43983" lon="7.00539">
        <ele>594.20001220703</ele>
        <time>2023-08-03T11:31:33.000Z</time>
      </trkpt>
      <trkpt lat="47.4399" lon="7.00539">
        <ele>594</ele>
        <time>2023-08-03T11:31:34.000Z</time>
      </trkpt>
      <trkpt lat="47.44019" lon="7.00546">
        <ele>593.79998779297</ele>
        <time>2023-08-03T11:31:38.000Z</time>
      </trkpt>
      <trkpt lat="47.44056" lon="7.00564">
        <ele>593.79998779297</ele>
        <time>2023-08-03T11:31:44.000Z</time>
      </trkpt>
      <trkpt lat="47.44094" lon="7.0058">
        <ele>594.40002441406</ele>
        <time>2023-08-03T11:31:51.000Z</time>
      </trkpt>
      <trkpt lat="47.44104" lon="7.00582">
        <ele>594.79998779297</ele>
        <time>2023-08-03T11:31:53.000Z</time>
      </trkpt>
      <trkpt lat="47.44113" lon="7.00585">
        <ele>595.79998779297</ele>
        <time>2023-08-03T11:31:55.000Z</time>
      </trkpt>
      <trkpt lat="47.44117" lon="7.00587">
        <ele>596</ele>
        <time>2023-08-03T11:31:56.000Z</time>
      </trkpt>
      <trkpt lat="47.44136" lon="7.00595">
        <ele>596.79998779297</ele>
        <time>2023-08-03T11:32:00.000Z</time>
      </trkpt>
      <trkpt lat="47.4414" lon="7.00599">
        <ele>596.79998779297</ele>
        <time>2023-08-03T11:32:01.000Z</time>
      </trkpt>
      <trkpt lat="47.44145" lon="7.00603">
        <ele>597.40002441406</ele>
        <time>2023-08-03T11:32:02.000Z</time>
      </trkpt>
      <trkpt lat="47.44149" lon="7.00606">
        <ele>597.59997558594</ele>
        <time>2023-08-03T11:32:03.000Z</time>
      </trkpt>
      <trkpt lat="47.44154" lon="7.0061">
        <ele>598</ele>
        <time>2023-08-03T11:32:04.000Z</time>
      </trkpt>
      <trkpt lat="47.44162" lon="7.00616">
        <ele>598.20001220703</ele>
        <time>2023-08-03T11:32:06.000Z</time>
      </trkpt>
      <trkpt lat="47.4417" lon="7.00624">
        <ele>598.40002441406</ele>
        <time>2023-08-03T11:32:08.000Z</time>
      </trkpt>
      <trkpt lat="47.44185" lon="7.00637">
        <ele>598.59997558594</ele>
        <time>2023-08-03T11:32:12.000Z</time>
      </trkpt>
      <trkpt lat="47.44192" lon="7.00643">
        <ele>599</ele>
        <time>2023-08-03T11:32:14.000Z</time>
      </trkpt>
      <trkpt lat="47.442" lon="7.0065">
        <ele>599.59997558594</ele>
        <time>2023-08-03T11:32:16.000Z</time>
      </trkpt>
      <trkpt lat="47.4422" lon="7.00669">
        <ele>600</ele>
        <time>2023-08-03T11:32:21.000Z</time>
      </trkpt>
      <trkpt lat="47.44245" lon="7.00685">
        <ele>600.59997558594</ele>
        <time>2023-08-03T11:32:26.000Z</time>
      </trkpt>
      <trkpt lat="47.44255" lon="7.00689">
        <ele>600.59997558594</ele>
        <time>2023-08-03T11:32:28.000Z</time>
      </trkpt>
      <trkpt lat="47.44272" lon="7.00691">
        <ele>600.59997558594</ele>
        <time>2023-08-03T11:32:31.000Z</time>
      </trkpt>
      <trkpt lat="47.44303" lon="7.00695">
        <ele>600.20001220703</ele>
        <time>2023-08-03T11:32:36.000Z</time>
      </trkpt>
      <trkpt lat="47.44309" lon="7.00695">
        <ele>600</ele>
        <time>2023-08-03T11:32:37.000Z</time>
      </trkpt>
      <trkpt lat="47.44353" lon="7.00693">
        <ele>598.79998779297</ele>
        <time>2023-08-03T11:32:44.000Z</time>
      </trkpt>
      <trkpt lat="47.44366" lon="7.00693">
        <ele>598.59997558594</ele>
        <time>2023-08-03T11:32:46.000Z</time>
      </trkpt>
      <trkpt lat="47.44372" lon="7.00694">
        <ele>598.59997558594</ele>
        <time>2023-08-03T11:32:47.000Z</time>
      </trkpt>
      <trkpt lat="47.44378" lon="7.00696">
        <ele>598.59997558594</ele>
        <time>2023-08-03T11:32:48.000Z</time>
      </trkpt>
      <trkpt lat="47.44389" lon="7.00704">
        <ele>598.40002441406</ele>
        <time>2023-08-03T11:32:50.000Z</time>
      </trkpt>
      <trkpt lat="47.44397" lon="7.00716">
        <ele>598</ele>
        <time>2023-08-03T11:32:52.000Z</time>
      </trkpt>
      <trkpt lat="47.44401" lon="7.00722">
        <ele>597.79998779297</ele>
        <time>2023-08-03T11:32:53.000Z</time>
      </trkpt>
      <trkpt lat="47.44414" lon="7.00756">
        <ele>597.20001220703</ele>
        <time>2023-08-03T11:32:58.000Z</time>
      </trkpt>
      <trkpt lat="47.44436" lon="7.00797">
        <ele>597.79998779297</ele>
        <time>2023-08-03T11:33:05.000Z</time>
      </trkpt>
      <trkpt lat="47.44448" lon="7.00811">
        <ele>599</ele>
        <time>2023-08-03T11:33:08.000Z</time>
      </trkpt>
      <trkpt lat="47.44456" lon="7.0082">
        <ele>599.59997558594</ele>
        <time>2023-08-03T11:33:10.000Z</time>
      </trkpt>
      <trkpt lat="47.44465" lon="7.00828">
        <ele>600</ele>
        <time>2023-08-03T11:33:12.000Z</time>
      </trkpt>
      <trkpt lat="47.44496" lon="7.00855">
        <ele>600</ele>
        <time>2023-08-03T11:33:19.000Z</time>
      </trkpt>
      <trkpt lat="47.44519" lon="7.00879">
        <ele>599.79998779297</ele>
        <time>2023-08-03T11:33:24.000Z</time>
      </trkpt>
      <trkpt lat="47.44528" lon="7.00889">
        <ele>599.79998779297</ele>
        <time>2023-08-03T11:33:26.000Z</time>
      </trkpt>
      <trkpt lat="47.44542" lon="7.009">
        <ele>599.59997558594</ele>
        <time>2023-08-03T11:33:28.000Z</time>
      </trkpt>
      <trkpt lat="47.44564" lon="7.00917">
        <ele>599</ele>
        <time>2023-08-03T11:33:31.000Z</time>
      </trkpt>
      <trkpt lat="47.44581" lon="7.0093">
        <ele>598.40002441406</ele>
        <time>2023-08-03T11:33:33.000Z</time>
      </trkpt>
      <trkpt lat="47.44595" lon="7.00942">
        <ele>597.59997558594</ele>
        <time>2023-08-03T11:33:35.000Z</time>
      </trkpt>
      <trkpt lat="47.44603" lon="7.0095">
        <ele>597.20001220703</ele>
        <time>2023-08-03T11:33:36.000Z</time>
      </trkpt>
      <trkpt lat="47.44612" lon="7.00962">
        <ele>596.40002441406</ele>
        <time>2023-08-03T11:33:37.000Z</time>
      </trkpt>
      <trkpt lat="47.44618" lon="7.00973">
        <ele>595.79998779297</ele>
        <time>2023-08-03T11:33:38.000Z</time>
      </trkpt>
      <trkpt lat="47.44622" lon="7.00986">
        <ele>595.20001220703</ele>
        <time>2023-08-03T11:33:39.000Z</time>
      </trkpt>
      <trkpt lat="47.44626" lon="7.00997">
        <ele>594</ele>
        <time>2023-08-03T11:33:40.000Z</time>
      </trkpt>
      <trkpt lat="47.44636" lon="7.01026">
        <ele>592</ele>
        <time>2023-08-03T11:33:42.000Z</time>
      </trkpt>
      <trkpt lat="47.44642" lon="7.01038">
        <ele>591.40002441406</ele>
        <time>2023-08-03T11:33:43.000Z</time>
      </trkpt>
      <trkpt lat="47.44649" lon="7.01049">
        <ele>590.59997558594</ele>
        <time>2023-08-03T11:33:44.000Z</time>
      </trkpt>
      <trkpt lat="47.44656" lon="7.01058">
        <ele>589.20001220703</ele>
        <time>2023-08-03T11:33:45.000Z</time>
      </trkpt>
      <trkpt lat="47.44664" lon="7.01066">
        <ele>588.79998779297</ele>
        <time>2023-08-03T11:33:46.000Z</time>
      </trkpt>
      <trkpt lat="47.44674" lon="7.0107">
        <ele>587.40002441406</ele>
        <time>2023-08-03T11:33:47.000Z</time>
      </trkpt>
      <trkpt lat="47.44685" lon="7.01072">
        <ele>587</ele>
        <time>2023-08-03T11:33:48.000Z</time>
      </trkpt>
      <trkpt lat="47.44697" lon="7.01074">
        <ele>586</ele>
        <time>2023-08-03T11:33:49.000Z</time>
      </trkpt>
      <trkpt lat="47.44721" lon="7.01076">
        <ele>584.20001220703</ele>
        <time>2023-08-03T11:33:51.000Z</time>
      </trkpt>
      <trkpt lat="47.44744" lon="7.01079">
        <ele>582.40002441406</ele>
        <time>2023-08-03T11:33:53.000Z</time>
      </trkpt>
      <trkpt lat="47.44756" lon="7.01081">
        <ele>581.40002441406</ele>
        <time>2023-08-03T11:33:54.000Z</time>
      </trkpt>
      <trkpt lat="47.44777" lon="7.01083">
        <ele>580</ele>
        <time>2023-08-03T11:33:56.000Z</time>
      </trkpt>
      <trkpt lat="47.44813" lon="7.01088">
        <ele>579</ele>
        <time>2023-08-03T11:33:59.000Z</time>
      </trkpt>
      <trkpt lat="47.44834" lon="7.01091">
        <ele>577.40002441406</ele>
        <time>2023-08-03T11:34:01.000Z</time>
      </trkpt>
      <trkpt lat="47.44845" lon="7.01092">
        <ele>577</ele>
        <time>2023-08-03T11:34:02.000Z</time>
      </trkpt>
      <trkpt lat="47.44857" lon="7.01093">
        <ele>576</ele>
        <time>2023-08-03T11:34:03.000Z</time>
      </trkpt>
      <trkpt lat="47.44894" lon="7.01089">
        <ele>574.79998779297</ele>
        <time>2023-08-03T11:34:06.000Z</time>
      </trkpt>
      <trkpt lat="47.44905" lon="7.01087">
        <ele>574.20001220703</ele>
        <time>2023-08-03T11:34:07.000Z</time>
      </trkpt>
      <trkpt lat="47.44917" lon="7.01086">
        <ele>573.59997558594</ele>
        <time>2023-08-03T11:34:08.000Z</time>
      </trkpt>
      <trkpt lat="47.44951" lon="7.01081">
        <ele>572.20001220703</ele>
        <time>2023-08-03T11:34:11.000Z</time>
      </trkpt>
      <trkpt lat="47.44973" lon="7.01077">
        <ele>571</ele>
        <time>2023-08-03T11:34:13.000Z</time>
      </trkpt>
      <trkpt lat="47.44982" lon="7.01076">
        <ele>570.20001220703</ele>
        <time>2023-08-03T11:34:14.000Z</time>
      </trkpt>
      <trkpt lat="47.44994" lon="7.01075">
        <ele>569.20001220703</ele>
        <time>2023-08-03T11:34:15.000Z</time>
      </trkpt>
      <trkpt lat="47.45007" lon="7.01073">
        <ele>568.79998779297</ele>
        <time>2023-08-03T11:34:16.000Z</time>
      </trkpt>
      <trkpt lat="47.45018" lon="7.01071">
        <ele>568</ele>
        <time>2023-08-03T11:34:17.000Z</time>
      </trkpt>
      <trkpt lat="47.4505" lon="7.01066">
        <ele>566.40002441406</ele>
        <time>2023-08-03T11:34:20.000Z</time>
      </trkpt>
      <trkpt lat="47.45074" lon="7.01062">
        <ele>565</ele>
        <time>2023-08-03T11:34:22.000Z</time>
      </trkpt>
      <trkpt lat="47.45107" lon="7.01058">
        <ele>563.79998779297</ele>
        <time>2023-08-03T11:34:25.000Z</time>
      </trkpt>
      <trkpt lat="47.45137" lon="7.01057">
        <ele>562.59997558594</ele>
        <time>2023-08-03T11:34:28.000Z</time>
      </trkpt>
      <trkpt lat="47.45155" lon="7.01059">
        <ele>562.20001220703</ele>
        <time>2023-08-03T11:34:30.000Z</time>
      </trkpt>
      <trkpt lat="47.45185" lon="7.01065">
        <ele>561.59997558594</ele>
        <time>2023-08-03T11:34:33.000Z</time>
      </trkpt>
      <trkpt lat="47.45201" lon="7.01069">
        <ele>561.59997558594</ele>
        <time>2023-08-03T11:34:35.000Z</time>
      </trkpt>
      <trkpt lat="47.45229" lon="7.01076">
        <ele>561.40002441406</ele>
        <time>2023-08-03T11:34:38.000Z</time>
      </trkpt>
      <trkpt lat="47.45263" lon="7.01084">
        <ele>561.40002441406</ele>
        <time>2023-08-03T11:34:42.000Z</time>
      </trkpt>
      <trkpt lat="47.4531" lon="7.01096">
        <ele>560.59997558594</ele>
        <time>2023-08-03T11:34:48.000Z</time>
      </trkpt>
      <trkpt lat="47.45315" lon="7.01097">
        <ele>560.20001220703</ele>
        <time>2023-08-03T11:34:49.000Z</time>
      </trkpt>
      <trkpt lat="47.45323" lon="7.01101">
        <ele>559.79998779297</ele>
        <time>2023-08-03T11:34:50.000Z</time>
      </trkpt>
      <trkpt lat="47.45329" lon="7.01105">
        <ele>559.59997558594</ele>
        <time>2023-08-03T11:34:51.000Z</time>
      </trkpt>
      <trkpt lat="47.45334" lon="7.01109">
        <ele>559.20001220703</ele>
        <time>2023-08-03T11:34:52.000Z</time>
      </trkpt>
      <trkpt lat="47.45338" lon="7.01115">
        <ele>559</ele>
        <time>2023-08-03T11:34:53.000Z</time>
      </trkpt>
      <trkpt lat="47.45343" lon="7.01124">
        <ele>558.59997558594</ele>
        <time>2023-08-03T11:34:55.000Z</time>
      </trkpt>
      <trkpt lat="47.4535" lon="7.01128">
        <ele>558.20001220703</ele>
        <time>2023-08-03T11:34:57.000Z</time>
      </trkpt>
      <trkpt lat="47.45364" lon="7.01123">
        <ele>557.79998779297</ele>
        <time>2023-08-03T11:35:00.000Z</time>
      </trkpt>
      <trkpt lat="47.45368" lon="7.01123">
        <ele>557.59997558594</ele>
        <time>2023-08-03T11:35:01.000Z</time>
      </trkpt>
      <trkpt lat="47.45373" lon="7.01124">
        <ele>557.59997558594</ele>
        <time>2023-08-03T11:35:02.000Z</time>
      </trkpt>
      <trkpt lat="47.4539" lon="7.01131">
        <ele>557.40002441406</ele>
        <time>2023-08-03T11:35:05.000Z</time>
      </trkpt>
      <trkpt lat="47.45399" lon="7.01136">
        <ele>557.20001220703</ele>
        <time>2023-08-03T11:35:06.000Z</time>
      </trkpt>
      <trkpt lat="47.45412" lon="7.01145">
        <ele>556.59997558594</ele>
        <time>2023-08-03T11:35:08.000Z</time>
      </trkpt>
      <trkpt lat="47.4542" lon="7.01149">
        <ele>555.79998779297</ele>
        <time>2023-08-03T11:35:09.000Z</time>
      </trkpt>
      <trkpt lat="47.45437" lon="7.01161">
        <ele>554.59997558594</ele>
        <time>2023-08-03T11:35:11.000Z</time>
      </trkpt>
      <trkpt lat="47.45452" lon="7.01173">
        <ele>553.20001220703</ele>
        <time>2023-08-03T11:35:13.000Z</time>
      </trkpt>
      <trkpt lat="47.45461" lon="7.0118">
        <ele>552.59997558594</ele>
        <time>2023-08-03T11:35:14.000Z</time>
      </trkpt>
      <trkpt lat="47.45471" lon="7.01188">
        <ele>551.59997558594</ele>
        <time>2023-08-03T11:35:15.000Z</time>
      </trkpt>
      <trkpt lat="47.45494" lon="7.0121">
        <ele>550.20001220703</ele>
        <time>2023-08-03T11:35:18.000Z</time>
      </trkpt>
      <trkpt lat="47.45502" lon="7.01217">
        <ele>550</ele>
        <time>2023-08-03T11:35:19.000Z</time>
      </trkpt>
      <trkpt lat="47.45531" lon="7.01252">
        <ele>548.79998779297</ele>
        <time>2023-08-03T11:35:23.000Z</time>
      </trkpt>
      <trkpt lat="47.45545" lon="7.01273">
        <ele>548.20001220703</ele>
        <time>2023-08-03T11:35:25.000Z</time>
      </trkpt>
      <trkpt lat="47.45563" lon="7.01304">
        <ele>547.79998779297</ele>
        <time>2023-08-03T11:35:28.000Z</time>
      </trkpt>
      <trkpt lat="47.45579" lon="7.01338">
        <ele>547.40002441406</ele>
        <time>2023-08-03T11:35:31.000Z</time>
      </trkpt>
      <trkpt lat="47.45604" lon="7.01409">
        <ele>546.59997558594</ele>
        <time>2023-08-03T11:35:37.000Z</time>
      </trkpt>
      <trkpt lat="47.45637" lon="7.01466">
        <ele>546</ele>
        <time>2023-08-03T11:35:43.000Z</time>
      </trkpt>
      <trkpt lat="47.45679" lon="7.01523">
        <ele>546</ele>
        <time>2023-08-03T11:35:50.000Z</time>
      </trkpt>
      <trkpt lat="47.45684" lon="7.01531">
        <ele>546.20001220703</ele>
        <time>2023-08-03T11:35:51.000Z</time>
      </trkpt>
      <trkpt lat="47.4569" lon="7.01538">
        <ele>546.20001220703</ele>
        <time>2023-08-03T11:35:52.000Z</time>
      </trkpt>
      <trkpt lat="47.45727" lon="7.01591">
        <ele>546.40002441406</ele>
        <time>2023-08-03T11:35:59.000Z</time>
      </trkpt>
      <trkpt lat="47.45773" lon="7.0165">
        <ele>546.20001220703</ele>
        <time>2023-08-03T11:36:08.000Z</time>
      </trkpt>
      <trkpt lat="47.45816" lon="7.01707">
        <ele>545.59997558594</ele>
        <time>2023-08-03T11:36:16.000Z</time>
      </trkpt>
      <trkpt lat="47.4582" lon="7.01714">
        <ele>545.40002441406</ele>
        <time>2023-08-03T11:36:17.000Z</time>
      </trkpt>
      <trkpt lat="47.4584" lon="7.01748">
        <ele>544.40002441406</ele>
        <time>2023-08-03T11:36:21.000Z</time>
      </trkpt>
      <trkpt lat="47.45847" lon="7.01763">
        <ele>543.79998779297</ele>
        <time>2023-08-03T11:36:23.000Z</time>
      </trkpt>
      <trkpt lat="47.45858" lon="7.01782">
        <ele>543.20001220703</ele>
        <time>2023-08-03T11:36:25.000Z</time>
      </trkpt>
      <trkpt lat="47.45881" lon="7.01816">
        <ele>542</ele>
        <time>2023-08-03T11:36:29.000Z</time>
      </trkpt>
      <trkpt lat="47.45887" lon="7.01825">
        <ele>541.40002441406</ele>
        <time>2023-08-03T11:36:30.000Z</time>
      </trkpt>
      <trkpt lat="47.45893" lon="7.01832">
        <ele>540.79998779297</ele>
        <time>2023-08-03T11:36:31.000Z</time>
      </trkpt>
      <trkpt lat="47.459" lon="7.01837">
        <ele>540.59997558594</ele>
        <time>2023-08-03T11:36:32.000Z</time>
      </trkpt>
      <trkpt lat="47.45915" lon="7.01847">
        <ele>539.79998779297</ele>
        <time>2023-08-03T11:36:34.000Z</time>
      </trkpt>
      <trkpt lat="47.45942" lon="7.0187">
        <ele>539.40002441406</ele>
        <time>2023-08-03T11:36:38.000Z</time>
      </trkpt>
      <trkpt lat="47.45969" lon="7.01891">
        <ele>539.20001220703</ele>
        <time>2023-08-03T11:36:42.000Z</time>
      </trkpt>
      <trkpt lat="47.45992" lon="7.0191">
        <ele>539.20001220703</ele>
        <time>2023-08-03T11:36:45.000Z</time>
      </trkpt>
      <trkpt lat="47.45999" lon="7.01917">
        <ele>539</ele>
        <time>2023-08-03T11:36:46.000Z</time>
      </trkpt>
      <trkpt lat="47.46041" lon="7.01952">
        <ele>537.79998779297</ele>
        <time>2023-08-03T11:36:51.000Z</time>
      </trkpt>
      <trkpt lat="47.46067" lon="7.01973">
        <ele>536.20001220703</ele>
        <time>2023-08-03T11:36:54.000Z</time>
      </trkpt>
      <trkpt lat="47.46077" lon="7.01978">
        <ele>535.79998779297</ele>
        <time>2023-08-03T11:36:55.000Z</time>
      </trkpt>
      <trkpt lat="47.46086" lon="7.01982">
        <ele>535.20001220703</ele>
        <time>2023-08-03T11:36:56.000Z</time>
      </trkpt>
      <trkpt lat="47.46105" lon="7.01986">
        <ele>534.79998779297</ele>
        <time>2023-08-03T11:36:58.000Z</time>
      </trkpt>
      <trkpt lat="47.46122" lon="7.01983">
        <ele>534.59997558594</ele>
        <time>2023-08-03T11:37:00.000Z</time>
      </trkpt>
      <trkpt lat="47.46135" lon="7.01973">
        <ele>534.40002441406</ele>
        <time>2023-08-03T11:37:02.000Z</time>
      </trkpt>
      <trkpt lat="47.4614" lon="7.01967">
        <ele>534.20001220703</ele>
        <time>2023-08-03T11:37:03.000Z</time>
      </trkpt>
      <trkpt lat="47.46147" lon="7.01957">
        <ele>534.20001220703</ele>
        <time>2023-08-03T11:37:05.000Z</time>
      </trkpt>
      <trkpt lat="47.46151" lon="7.01952">
        <ele>534.20001220703</ele>
        <time>2023-08-03T11:37:06.000Z</time>
      </trkpt>
      <trkpt lat="47.46159" lon="7.01944">
        <ele>534.40002441406</ele>
        <time>2023-08-03T11:37:08.000Z</time>
      </trkpt>
      <trkpt lat="47.46173" lon="7.01935">
        <ele>535</ele>
        <time>2023-08-03T11:37:11.000Z</time>
      </trkpt>
      <trkpt lat="47.46178" lon="7.01934">
        <ele>535.20001220703</ele>
        <time>2023-08-03T11:37:12.000Z</time>
      </trkpt>
      <trkpt lat="47.46193" lon="7.01933">
        <ele>536.59997558594</ele>
        <time>2023-08-03T11:37:15.000Z</time>
      </trkpt>
      <trkpt lat="47.46204" lon="7.01933">
        <ele>537</ele>
        <time>2023-08-03T11:37:17.000Z</time>
      </trkpt>
      <trkpt lat="47.46231" lon="7.01934">
        <ele>537.40002441406</ele>
        <time>2023-08-03T11:37:22.000Z</time>
      </trkpt>
      <trkpt lat="47.46274" lon="7.01943">
        <ele>537.20001220703</ele>
        <time>2023-08-03T11:37:29.000Z</time>
      </trkpt>
      <trkpt lat="47.46312" lon="7.01969">
        <ele>536</ele>
        <time>2023-08-03T11:37:36.000Z</time>
      </trkpt>
      <trkpt lat="47.46328" lon="7.01981">
        <ele>535.40002441406</ele>
        <time>2023-08-03T11:37:39.000Z</time>
      </trkpt>
      <trkpt lat="47.46377" lon="7.02018">
        <ele>534.40002441406</ele>
        <time>2023-08-03T11:37:48.000Z</time>
      </trkpt>
      <trkpt lat="47.46405" lon="7.02041">
        <ele>533.40002441406</ele>
        <time>2023-08-03T11:37:53.000Z</time>
      </trkpt>
      <trkpt lat="47.46411" lon="7.02046">
        <ele>533.20001220703</ele>
        <time>2023-08-03T11:37:54.000Z</time>
      </trkpt>
      <trkpt lat="47.46437" lon="7.02066">
        <ele>532.20001220703</ele>
        <time>2023-08-03T11:37:58.000Z</time>
      </trkpt>
      <trkpt lat="47.46457" lon="7.02081">
        <ele>531.59997558594</ele>
        <time>2023-08-03T11:38:01.000Z</time>
      </trkpt>
      <trkpt lat="47.46463" lon="7.02086">
        <ele>531.40002441406</ele>
        <time>2023-08-03T11:38:02.000Z</time>
      </trkpt>
      <trkpt lat="47.4647" lon="7.02091">
        <ele>531.20001220703</ele>
        <time>2023-08-03T11:38:03.000Z</time>
      </trkpt>
      <trkpt lat="47.46489" lon="7.02106">
        <ele>530.20001220703</ele>
        <time>2023-08-03T11:38:06.000Z</time>
      </trkpt>
      <trkpt lat="47.46511" lon="7.02122">
        <ele>529.40002441406</ele>
        <time>2023-08-03T11:38:09.000Z</time>
      </trkpt>
      <trkpt lat="47.46517" lon="7.02126">
        <ele>528.79998779297</ele>
        <time>2023-08-03T11:38:10.000Z</time>
      </trkpt>
      <trkpt lat="47.46552" lon="7.02153">
        <ele>528</ele>
        <time>2023-08-03T11:38:15.000Z</time>
      </trkpt>
      <trkpt lat="47.4656" lon="7.02158">
        <ele>527.59997558594</ele>
        <time>2023-08-03T11:38:16.000Z</time>
      </trkpt>
      <trkpt lat="47.46589" lon="7.02179">
        <ele>526.79998779297</ele>
        <time>2023-08-03T11:38:20.000Z</time>
      </trkpt>
      <trkpt lat="47.46626" lon="7.02203">
        <ele>525.79998779297</ele>
        <time>2023-08-03T11:38:25.000Z</time>
      </trkpt>
      <trkpt lat="47.46675" lon="7.02237">
        <ele>524.79998779297</ele>
        <time>2023-08-03T11:38:31.000Z</time>
      </trkpt>
      <trkpt lat="47.46702" lon="7.02255">
        <ele>523.59997558594</ele>
        <time>2023-08-03T11:38:34.000Z</time>
      </trkpt>
      <trkpt lat="47.46719" lon="7.02267">
        <ele>522.59997558594</ele>
        <time>2023-08-03T11:38:36.000Z</time>
      </trkpt>
      <trkpt lat="47.46731" lon="7.02276">
        <ele>522.20001220703</ele>
        <time>2023-08-03T11:38:37.000Z</time>
      </trkpt>
      <trkpt lat="47.46741" lon="7.02283">
        <ele>521.40002441406</ele>
        <time>2023-08-03T11:38:38.000Z</time>
      </trkpt>
      <trkpt lat="47.46771" lon="7.02304">
        <ele>520</ele>
        <time>2023-08-03T11:38:41.000Z</time>
      </trkpt>
      <trkpt lat="47.46785" lon="7.02313">
        <ele>519</ele>
        <time>2023-08-03T11:38:42.000Z</time>
      </trkpt>
      <trkpt lat="47.46796" lon="7.02321">
        <ele>518</ele>
        <time>2023-08-03T11:38:43.000Z</time>
      </trkpt>
      <trkpt lat="47.46819" lon="7.02336">
        <ele>516</ele>
        <time>2023-08-03T11:38:45.000Z</time>
      </trkpt>
      <trkpt lat="47.46842" lon="7.0235">
        <ele>514</ele>
        <time>2023-08-03T11:38:47.000Z</time>
      </trkpt>
      <trkpt lat="47.46864" lon="7.02362">
        <ele>512.79998779297</ele>
        <time>2023-08-03T11:38:49.000Z</time>
      </trkpt>
      <trkpt lat="47.46883" lon="7.02372">
        <ele>511.60000610352</ele>
        <time>2023-08-03T11:38:51.000Z</time>
      </trkpt>
      <trkpt lat="47.46906" lon="7.02388">
        <ele>510.39999389648</ele>
        <time>2023-08-03T11:38:53.000Z</time>
      </trkpt>
      <trkpt lat="47.46917" lon="7.02396">
        <ele>509.79998779297</ele>
        <time>2023-08-03T11:38:54.000Z</time>
      </trkpt>
      <trkpt lat="47.46933" lon="7.02415">
        <ele>508.60000610352</ele>
        <time>2023-08-03T11:38:56.000Z</time>
      </trkpt>
      <trkpt lat="47.46953" lon="7.02438">
        <ele>507.20001220703</ele>
        <time>2023-08-03T11:38:58.000Z</time>
      </trkpt>
      <trkpt lat="47.46962" lon="7.02448">
        <ele>506.20001220703</ele>
        <time>2023-08-03T11:38:59.000Z</time>
      </trkpt>
      <trkpt lat="47.46979" lon="7.02463">
        <ele>504.79998779297</ele>
        <time>2023-08-03T11:39:01.000Z</time>
      </trkpt>
      <trkpt lat="47.47003" lon="7.02481">
        <ele>503.79998779297</ele>
        <time>2023-08-03T11:39:03.000Z</time>
      </trkpt>
      <trkpt lat="47.47012" lon="7.02487">
        <ele>502.39999389648</ele>
        <time>2023-08-03T11:39:04.000Z</time>
      </trkpt>
      <trkpt lat="47.47034" lon="7.02502">
        <ele>501.20001220703</ele>
        <time>2023-08-03T11:39:06.000Z</time>
      </trkpt>
      <trkpt lat="47.47058" lon="7.02516">
        <ele>499.39999389648</ele>
        <time>2023-08-03T11:39:09.000Z</time>
      </trkpt>
      <trkpt lat="47.47066" lon="7.02519">
        <ele>498.60000610352</ele>
        <time>2023-08-03T11:39:10.000Z</time>
      </trkpt>
      <trkpt lat="47.47074" lon="7.0252">
        <ele>497.79998779297</ele>
        <time>2023-08-03T11:39:11.000Z</time>
      </trkpt>
      <trkpt lat="47.47083" lon="7.02519">
        <ele>497.60000610352</ele>
        <time>2023-08-03T11:39:12.000Z</time>
      </trkpt>
      <trkpt lat="47.47094" lon="7.02505">
        <ele>497.20001220703</ele>
        <time>2023-08-03T11:39:14.000Z</time>
      </trkpt>
      <trkpt lat="47.47098" lon="7.02488">
        <ele>496.79998779297</ele>
        <time>2023-08-03T11:39:16.000Z</time>
      </trkpt>
      <trkpt lat="47.47099" lon="7.02475">
        <ele>496.79998779297</ele>
        <time>2023-08-03T11:39:17.000Z</time>
      </trkpt>
      <trkpt lat="47.471" lon="7.0244">
        <ele>495.60000610352</ele>
        <time>2023-08-03T11:39:20.000Z</time>
      </trkpt>
      <trkpt lat="47.471" lon="7.02411">
        <ele>494.79998779297</ele>
        <time>2023-08-03T11:39:22.000Z</time>
      </trkpt>
      <trkpt lat="47.471" lon="7.02398">
        <ele>494.39999389648</ele>
        <time>2023-08-03T11:39:23.000Z</time>
      </trkpt>
      <trkpt lat="47.47101" lon="7.02355">
        <ele>493</ele>
        <time>2023-08-03T11:39:26.000Z</time>
      </trkpt>
      <trkpt lat="47.47104" lon="7.0233">
        <ele>491.79998779297</ele>
        <time>2023-08-03T11:39:28.000Z</time>
      </trkpt>
      <trkpt lat="47.47107" lon="7.02321">
        <ele>491</ele>
        <time>2023-08-03T11:39:29.000Z</time>
      </trkpt>
      <trkpt lat="47.47111" lon="7.02313">
        <ele>490.39999389648</ele>
        <time>2023-08-03T11:39:30.000Z</time>
      </trkpt>
      <trkpt lat="47.47118" lon="7.02307">
        <ele>490.20001220703</ele>
        <time>2023-08-03T11:39:31.000Z</time>
      </trkpt>
      <trkpt lat="47.47125" lon="7.02304">
        <ele>489.39999389648</ele>
        <time>2023-08-03T11:39:32.000Z</time>
      </trkpt>
      <trkpt lat="47.47139" lon="7.023">
        <ele>488.39999389648</ele>
        <time>2023-08-03T11:39:34.000Z</time>
      </trkpt>
      <trkpt lat="47.47148" lon="7.02299">
        <ele>488</ele>
        <time>2023-08-03T11:39:35.000Z</time>
      </trkpt>
      <trkpt lat="47.47177" lon="7.02295">
        <ele>487</ele>
        <time>2023-08-03T11:39:38.000Z</time>
      </trkpt>
      <trkpt lat="47.47194" lon="7.02293">
        <ele>485.79998779297</ele>
        <time>2023-08-03T11:39:40.000Z</time>
      </trkpt>
      <trkpt lat="47.47217" lon="7.02291">
        <ele>484.20001220703</ele>
        <time>2023-08-03T11:39:42.000Z</time>
      </trkpt>
      <trkpt lat="47.47236" lon="7.02287">
        <ele>482</ele>
        <time>2023-08-03T11:39:44.000Z</time>
      </trkpt>
      <trkpt lat="47.47261" lon="7.02285">
        <ele>479.79998779297</ele>
        <time>2023-08-03T11:39:46.000Z</time>
      </trkpt>
      <trkpt lat="47.47272" lon="7.02286">
        <ele>479</ele>
        <time>2023-08-03T11:39:47.000Z</time>
      </trkpt>
      <trkpt lat="47.47283" lon="7.02289">
        <ele>477.39999389648</ele>
        <time>2023-08-03T11:39:48.000Z</time>
      </trkpt>
      <trkpt lat="47.47295" lon="7.02294">
        <ele>476</ele>
        <time>2023-08-03T11:39:49.000Z</time>
      </trkpt>
      <trkpt lat="47.47303" lon="7.02298">
        <ele>475.20001220703</ele>
        <time>2023-08-03T11:39:50.000Z</time>
      </trkpt>
      <trkpt lat="47.47316" lon="7.02308">
        <ele>474</ele>
        <time>2023-08-03T11:39:51.000Z</time>
      </trkpt>
      <trkpt lat="47.47324" lon="7.02314">
        <ele>472.79998779297</ele>
        <time>2023-08-03T11:39:52.000Z</time>
      </trkpt>
      <trkpt lat="47.47334" lon="7.02323">
        <ele>471.39999389648</ele>
        <time>2023-08-03T11:39:53.000Z</time>
      </trkpt>
      <trkpt lat="47.47344" lon="7.02332">
        <ele>470.39999389648</ele>
        <time>2023-08-03T11:39:54.000Z</time>
      </trkpt>
      <trkpt lat="47.47354" lon="7.02342">
        <ele>468.79998779297</ele>
        <time>2023-08-03T11:39:55.000Z</time>
      </trkpt>
      <trkpt lat="47.47363" lon="7.02352">
        <ele>467.39999389648</ele>
        <time>2023-08-03T11:39:56.000Z</time>
      </trkpt>
      <trkpt lat="47.47383" lon="7.02373">
        <ele>464.60000610352</ele>
        <time>2023-08-03T11:39:58.000Z</time>
      </trkpt>
      <trkpt lat="47.47403" lon="7.02394">
        <ele>461.79998779297</ele>
        <time>2023-08-03T11:40:00.000Z</time>
      </trkpt>
      <trkpt lat="47.47414" lon="7.02403">
        <ele>459.79998779297</ele>
        <time>2023-08-03T11:40:01.000Z</time>
      </trkpt>
      <trkpt lat="47.47424" lon="7.0241">
        <ele>458.79998779297</ele>
        <time>2023-08-03T11:40:02.000Z</time>
      </trkpt>
      <trkpt lat="47.47434" lon="7.02417">
        <ele>456.79998779297</ele>
        <time>2023-08-03T11:40:03.000Z</time>
      </trkpt>
      <trkpt lat="47.47455" lon="7.02429">
        <ele>454.39999389648</ele>
        <time>2023-08-03T11:40:05.000Z</time>
      </trkpt>
      <trkpt lat="47.47467" lon="7.02436">
        <ele>453.39999389648</ele>
        <time>2023-08-03T11:40:06.000Z</time>
      </trkpt>
      <trkpt lat="47.47476" lon="7.02441">
        <ele>451.60000610352</ele>
        <time>2023-08-03T11:40:07.000Z</time>
      </trkpt>
      <trkpt lat="47.47486" lon="7.02446">
        <ele>449.79998779297</ele>
        <time>2023-08-03T11:40:08.000Z</time>
      </trkpt>
      <trkpt lat="47.47506" lon="7.02456">
        <ele>447.20001220703</ele>
        <time>2023-08-03T11:40:10.000Z</time>
      </trkpt>
      <trkpt lat="47.47515" lon="7.0246">
        <ele>446.20001220703</ele>
        <time>2023-08-03T11:40:11.000Z</time>
      </trkpt>
      <trkpt lat="47.47526" lon="7.02464">
        <ele>444</ele>
        <time>2023-08-03T11:40:12.000Z</time>
      </trkpt>
      <trkpt lat="47.47544" lon="7.0247">
        <ele>441.79998779297</ele>
        <time>2023-08-03T11:40:14.000Z</time>
      </trkpt>
      <trkpt lat="47.47554" lon="7.02471">
        <ele>440</ele>
        <time>2023-08-03T11:40:15.000Z</time>
      </trkpt>
      <trkpt lat="47.47567" lon="7.02471">
        <ele>439.20001220703</ele>
        <time>2023-08-03T11:40:16.000Z</time>
      </trkpt>
      <trkpt lat="47.47577" lon="7.0247">
        <ele>437.20001220703</ele>
        <time>2023-08-03T11:40:17.000Z</time>
      </trkpt>
      <trkpt lat="47.47586" lon="7.02468">
        <ele>436</ele>
        <time>2023-08-03T11:40:18.000Z</time>
      </trkpt>
      <trkpt lat="47.47595" lon="7.02468">
        <ele>434.60000610352</ele>
        <time>2023-08-03T11:40:19.000Z</time>
      </trkpt>
      <trkpt lat="47.47613" lon="7.02468">
        <ele>432.79998779297</ele>
        <time>2023-08-03T11:40:21.000Z</time>
      </trkpt>
      <trkpt lat="47.47622" lon="7.02469">
        <ele>431.20001220703</ele>
        <time>2023-08-03T11:40:22.000Z</time>
      </trkpt>
      <trkpt lat="47.4763" lon="7.02469">
        <ele>430.39999389648</ele>
        <time>2023-08-03T11:40:23.000Z</time>
      </trkpt>
      <trkpt lat="47.47639" lon="7.02469">
        <ele>429</ele>
        <time>2023-08-03T11:40:24.000Z</time>
      </trkpt>
      <trkpt lat="47.47653" lon="7.02465">
        <ele>426.79998779297</ele>
        <time>2023-08-03T11:40:26.000Z</time>
      </trkpt>
      <trkpt lat="47.47662" lon="7.02463">
        <ele>425.20001220703</ele>
        <time>2023-08-03T11:40:27.000Z</time>
      </trkpt>
      <trkpt lat="47.47678" lon="7.02462">
        <ele>423.79998779297</ele>
        <time>2023-08-03T11:40:29.000Z</time>
      </trkpt>
      <trkpt lat="47.47695" lon="7.02463">
        <ele>422.39999389648</ele>
        <time>2023-08-03T11:40:31.000Z</time>
      </trkpt>
      <trkpt lat="47.47713" lon="7.0247">
        <ele>421.20001220703</ele>
        <time>2023-08-03T11:40:33.000Z</time>
      </trkpt>
      <trkpt lat="47.47738" lon="7.02484">
        <ele>419.79998779297</ele>
        <time>2023-08-03T11:40:36.000Z</time>
      </trkpt>
      <trkpt lat="47.47762" lon="7.02502">
        <ele>418.79998779297</ele>
        <time>2023-08-03T11:40:39.000Z</time>
      </trkpt>
      <trkpt lat="47.47785" lon="7.02522">
        <ele>417.79998779297</ele>
        <time>2023-08-03T11:40:42.000Z</time>
      </trkpt>
      <trkpt lat="47.47792" lon="7.02529">
        <ele>417.20001220703</ele>
        <time>2023-08-03T11:40:43.000Z</time>
      </trkpt>
      <trkpt lat="47.47816" lon="7.02563">
        <ele>416</ele>
        <time>2023-08-03T11:40:47.000Z</time>
      </trkpt>
      <trkpt lat="47.47827" lon="7.02578">
        <ele>415.39999389648</ele>
        <time>2023-08-03T11:40:49.000Z</time>
      </trkpt>
      <trkpt lat="47.4784" lon="7.02597">
        <ele>414.79998779297</ele>
        <time>2023-08-03T11:40:51.000Z</time>
      </trkpt>
      <trkpt lat="47.4785" lon="7.02616">
        <ele>413.79998779297</ele>
        <time>2023-08-03T11:40:53.000Z</time>
      </trkpt>
      <trkpt lat="47.47854" lon="7.02623">
        <ele>413.60000610352</ele>
        <time>2023-08-03T11:40:54.000Z</time>
      </trkpt>
      <trkpt lat="47.4787" lon="7.02655">
        <ele>412.60000610352</ele>
        <time>2023-08-03T11:40:57.000Z</time>
      </trkpt>
      <trkpt lat="47.47884" lon="7.02683">
        <ele>411.39999389648</ele>
        <time>2023-08-03T11:41:00.000Z</time>
      </trkpt>
      <trkpt lat="47.4789" lon="7.02693">
        <ele>411.39999389648</ele>
        <time>2023-08-03T11:41:01.000Z</time>
      </trkpt>
      <trkpt lat="47.4791" lon="7.02722">
        <ele>410.39999389648</ele>
        <time>2023-08-03T11:41:04.000Z</time>
      </trkpt>
      <trkpt lat="47.47928" lon="7.02747">
        <ele>409.79998779297</ele>
        <time>2023-08-03T11:41:07.000Z</time>
      </trkpt>
      <trkpt lat="47.47945" lon="7.02775">
        <ele>409.39999389648</ele>
        <time>2023-08-03T11:41:11.000Z</time>
      </trkpt>
      <trkpt lat="47.47953" lon="7.02788">
        <ele>409.20001220703</ele>
        <time>2023-08-03T11:41:13.000Z</time>
      </trkpt>
      <trkpt lat="47.47964" lon="7.02806">
        <ele>408.39999389648</ele>
        <time>2023-08-03T11:41:16.000Z</time>
      </trkpt>
      <trkpt lat="47.47967" lon="7.02826">
        <ele>407.60000610352</ele>
        <time>2023-08-03T11:41:18.000Z</time>
      </trkpt>
      <trkpt lat="47.47967" lon="7.02833">
        <ele>406.79998779297</ele>
        <time>2023-08-03T11:41:19.000Z</time>
      </trkpt>
      <trkpt lat="47.47965" lon="7.02843">
        <ele>406.60000610352</ele>
        <time>2023-08-03T11:41:20.000Z</time>
      </trkpt>
      <trkpt lat="47.47964" lon="7.02854">
        <ele>405.60000610352</ele>
        <time>2023-08-03T11:41:21.000Z</time>
      </trkpt>
      <trkpt lat="47.47965" lon="7.02867">
        <ele>405.20001220703</ele>
        <time>2023-08-03T11:41:22.000Z</time>
      </trkpt>
      <trkpt lat="47.47965" lon="7.02878">
        <ele>404.39999389648</ele>
        <time>2023-08-03T11:41:23.000Z</time>
      </trkpt>
      <trkpt lat="47.47966" lon="7.02886">
        <ele>404</ele>
        <time>2023-08-03T11:41:24.000Z</time>
      </trkpt>
      <trkpt lat="47.47972" lon="7.02917">
        <ele>403</ele>
        <time>2023-08-03T11:41:27.000Z</time>
      </trkpt>
      <trkpt lat="47.47974" lon="7.02926">
        <ele>402.39999389648</ele>
        <time>2023-08-03T11:41:28.000Z</time>
      </trkpt>
      <trkpt lat="47.47978" lon="7.02941">
        <ele>401.79998779297</ele>
        <time>2023-08-03T11:41:30.000Z</time>
      </trkpt>
      <trkpt lat="47.47981" lon="7.02964">
        <ele>401.39999389648</ele>
        <time>2023-08-03T11:41:33.000Z</time>
      </trkpt>
      <trkpt lat="47.47981" lon="7.02971">
        <ele>401.39999389648</ele>
        <time>2023-08-03T11:41:34.000Z</time>
      </trkpt>
      <trkpt lat="47.47981" lon="7.02985">
        <ele>401.20001220703</ele>
        <time>2023-08-03T11:41:36.000Z</time>
      </trkpt>
      <trkpt lat="47.47983" lon="7.02999">
        <ele>401.39999389648</ele>
        <time>2023-08-03T11:41:38.000Z</time>
      </trkpt>
      <trkpt lat="47.47984" lon="7.03006">
        <ele>401.39999389648</ele>
        <time>2023-08-03T11:41:39.000Z</time>
      </trkpt>
      <trkpt lat="47.47985" lon="7.03039">
        <ele>401.39999389648</ele>
        <time>2023-08-03T11:41:44.000Z</time>
      </trkpt>
      <trkpt lat="47.47987" lon="7.03052">
        <ele>401.20001220703</ele>
        <time>2023-08-03T11:41:46.000Z</time>
      </trkpt>
      <trkpt lat="47.47994" lon="7.03071">
        <ele>400.60000610352</ele>
        <time>2023-08-03T11:41:49.000Z</time>
      </trkpt>
      <trkpt lat="47.48001" lon="7.03093">
        <ele>400.39999389648</ele>
        <time>2023-08-03T11:41:54.000Z</time>
      </trkpt>
      <trkpt lat="47.48003" lon="7.03103">
        <ele>400.39999389648</ele>
        <time>2023-08-03T11:41:58.000Z</time>
      </trkpt>
      <trkpt lat="47.48005" lon="7.03105">
        <ele>400.39999389648</ele>
        <time>2023-08-03T11:41:59.000Z</time>
      </trkpt>
      <trkpt lat="47.48006" lon="7.03107">
        <ele>400.39999389648</ele>
        <time>2023-08-03T11:42:00.000Z</time>
      </trkpt>
      <trkpt lat="47.48014" lon="7.03102">
        <ele>400.39999389648</ele>
        <time>2023-08-03T11:42:03.000Z</time>
      </trkpt>
      <trkpt lat="47.48038" lon="7.03089">
        <ele>400.20001220703</ele>
        <time>2023-08-03T11:42:09.000Z</time>
      </trkpt>
      <trkpt lat="47.48045" lon="7.03085">
        <ele>400.20001220703</ele>
        <time>2023-08-03T11:42:11.000Z</time>
      </trkpt>
      <trkpt lat="47.48066" lon="7.03075">
        <ele>400.20001220703</ele>
        <time>2023-08-03T11:42:16.000Z</time>
      </trkpt>
      <trkpt lat="47.48084" lon="7.03067">
        <ele>400.39999389648</ele>
        <time>2023-08-03T11:42:20.000Z</time>
      </trkpt>
      <trkpt lat="47.48093" lon="7.03063">
        <ele>400.39999389648</ele>
        <time>2023-08-03T11:42:22.000Z</time>
      </trkpt>
      <trkpt lat="47.4813" lon="7.03047">
        <ele>400.60000610352</ele>
        <time>2023-08-03T11:42:30.000Z</time>
      </trkpt>
      <trkpt lat="47.48159" lon="7.03033">
        <ele>400.39999389648</ele>
        <time>2023-08-03T11:42:36.000Z</time>
      </trkpt>
      <trkpt lat="47.4817" lon="7.03028">
        <ele>400.39999389648</ele>
        <time>2023-08-03T11:42:38.000Z</time>
      </trkpt>
      <trkpt lat="47.48189" lon="7.03016">
        <ele>400.60000610352</ele>
        <time>2023-08-03T11:42:42.000Z</time>
      </trkpt>
      <trkpt lat="47.48199" lon="7.03007">
        <ele>400.79998779297</ele>
        <time>2023-08-03T11:42:44.000Z</time>
      </trkpt>
      <trkpt lat="47.48235" lon="7.02964">
        <ele>401.39999389648</ele>
        <time>2023-08-03T11:42:52.000Z</time>
      </trkpt>
      <trkpt lat="47.48266" lon="7.02928">
        <ele>401.79998779297</ele>
        <time>2023-08-03T11:42:59.000Z</time>
      </trkpt>
      <trkpt lat="47.48275" lon="7.02918">
        <ele>402</ele>
        <time>2023-08-03T11:43:01.000Z</time>
      </trkpt>
      <trkpt lat="47.48298" lon="7.02894">
        <ele>402</ele>
        <time>2023-08-03T11:43:06.000Z</time>
      </trkpt>
      <trkpt lat="47.48308" lon="7.02888">
        <ele>402.20001220703</ele>
        <time>2023-08-03T11:43:08.000Z</time>
      </trkpt>
      <trkpt lat="47.4835" lon="7.02861">
        <ele>402.20001220703</ele>
        <time>2023-08-03T11:43:16.000Z</time>
      </trkpt>
      <trkpt lat="47.48384" lon="7.02844">
        <ele>402.20001220703</ele>
        <time>2023-08-03T11:43:22.000Z</time>
      </trkpt>
      <trkpt lat="47.48415" lon="7.02824">
        <ele>402.20001220703</ele>
        <time>2023-08-03T11:43:28.000Z</time>
      </trkpt>
      <trkpt lat="47.48424" lon="7.02819">
        <ele>402.20001220703</ele>
        <time>2023-08-03T11:43:30.000Z</time>
      </trkpt>
      <trkpt lat="47.48465" lon="7.02795">
        <ele>402.20001220703</ele>
        <time>2023-08-03T11:43:38.000Z</time>
      </trkpt>
      <trkpt lat="47.48518" lon="7.0276">
        <ele>402.60000610352</ele>
        <time>2023-08-03T11:43:49.000Z</time>
      </trkpt>
      <trkpt lat="47.48555" lon="7.02724">
        <ele>402.60000610352</ele>
        <time>2023-08-03T11:43:57.000Z</time>
      </trkpt>
      <trkpt lat="47.48584" lon="7.02678">
        <ele>402.60000610352</ele>
        <time>2023-08-03T11:44:05.000Z</time>
      </trkpt>
      <trkpt lat="47.4861" lon="7.02614">
        <ele>402.60000610352</ele>
        <time>2023-08-03T11:44:14.000Z</time>
      </trkpt>
      <trkpt lat="47.48633" lon="7.02553">
        <ele>402.60000610352</ele>
        <time>2023-08-03T11:44:22.000Z</time>
      </trkpt>
      <trkpt lat="47.48653" lon="7.02503">
        <ele>403</ele>
        <time>2023-08-03T11:44:29.000Z</time>
      </trkpt>
      <trkpt lat="47.48676" lon="7.02472">
        <ele>403.20001220703</ele>
        <time>2023-08-03T11:44:35.000Z</time>
      </trkpt>
      <trkpt lat="47.48702" lon="7.02434">
        <ele>402.20001220703</ele>
        <time>2023-08-03T11:44:42.000Z</time>
      </trkpt>
      <trkpt lat="47.48722" lon="7.02394">
        <ele>402.39999389648</ele>
        <time>2023-08-03T11:44:48.000Z</time>
      </trkpt>
      <trkpt lat="47.4873" lon="7.02345">
        <ele>402.60000610352</ele>
        <time>2023-08-03T11:44:54.000Z</time>
      </trkpt>
      <trkpt lat="47.48726" lon="7.02286">
        <ele>402.60000610352</ele>
        <time>2023-08-03T11:45:01.000Z</time>
      </trkpt>
      <trkpt lat="47.48724" lon="7.02252">
        <ele>402.60000610352</ele>
        <time>2023-08-03T11:45:05.000Z</time>
      </trkpt>
      <trkpt lat="47.48726" lon="7.02227">
        <ele>403</ele>
        <time>2023-08-03T11:45:08.000Z</time>
      </trkpt>
      <trkpt lat="47.48731" lon="7.0217">
        <ele>403</ele>
        <time>2023-08-03T11:45:15.000Z</time>
      </trkpt>
      <trkpt lat="47.48741" lon="7.02102">
        <ele>402.39999389648</ele>
        <time>2023-08-03T11:45:23.000Z</time>
      </trkpt>
      <trkpt lat="47.48748" lon="7.02047">
        <ele>402.60000610352</ele>
        <time>2023-08-03T11:45:30.000Z</time>
      </trkpt>
      <trkpt lat="47.48751" lon="7.01997">
        <ele>402.60000610352</ele>
        <time>2023-08-03T11:45:36.000Z</time>
      </trkpt>
      <trkpt lat="47.4875" lon="7.01913">
        <ele>403</ele>
        <time>2023-08-03T11:45:47.000Z</time>
      </trkpt>
      <trkpt lat="47.4876" lon="7.01865">
        <ele>403.39999389648</ele>
        <time>2023-08-03T11:45:54.000Z</time>
      </trkpt>
      <trkpt lat="47.48765" lon="7.01838">
        <ele>403.79998779297</ele>
        <time>2023-08-03T11:45:58.000Z</time>
      </trkpt>
      <trkpt lat="47.4877" lon="7.0181">
        <ele>404</ele>
        <time>2023-08-03T11:46:02.000Z</time>
      </trkpt>
      <trkpt lat="47.48775" lon="7.01791">
        <ele>404.60000610352</ele>
        <time>2023-08-03T11:46:05.000Z</time>
      </trkpt>
      <trkpt lat="47.48778" lon="7.01785">
        <ele>405</ele>
        <time>2023-08-03T11:46:06.000Z</time>
      </trkpt>
      <trkpt lat="47.48782" lon="7.01778">
        <ele>405.20001220703</ele>
        <time>2023-08-03T11:46:07.000Z</time>
      </trkpt>
      <trkpt lat="47.48789" lon="7.01769">
        <ele>405.60000610352</ele>
        <time>2023-08-03T11:46:09.000Z</time>
      </trkpt>
      <trkpt lat="47.48803" lon="7.01759">
        <ele>405.79998779297</ele>
        <time>2023-08-03T11:46:12.000Z</time>
      </trkpt>
      <trkpt lat="47.48816" lon="7.01752">
        <ele>405.79998779297</ele>
        <time>2023-08-03T11:46:15.000Z</time>
      </trkpt>
      <trkpt lat="47.48826" lon="7.01751">
        <ele>405.60000610352</ele>
        <time>2023-08-03T11:46:17.000Z</time>
      </trkpt>
      <trkpt lat="47.48863" lon="7.01755">
        <ele>405</ele>
        <time>2023-08-03T11:46:24.000Z</time>
      </trkpt>
      <trkpt lat="47.48907" lon="7.0176">
        <ele>404.60000610352</ele>
        <time>2023-08-03T11:46:32.000Z</time>
      </trkpt>
      <trkpt lat="47.48936" lon="7.01762">
        <ele>403.79998779297</ele>
        <time>2023-08-03T11:46:37.000Z</time>
      </trkpt>
      <trkpt lat="47.48953" lon="7.01765">
        <ele>403.60000610352</ele>
        <time>2023-08-03T11:46:40.000Z</time>
      </trkpt>
      <trkpt lat="47.49003" lon="7.0177">
        <ele>403</ele>
        <time>2023-08-03T11:46:49.000Z</time>
      </trkpt>
      <trkpt lat="47.49018" lon="7.01771">
        <ele>402.79998779297</ele>
        <time>2023-08-03T11:46:52.000Z</time>
      </trkpt>
      <trkpt lat="47.49044" lon="7.01775">
        <ele>402.60000610352</ele>
        <time>2023-08-03T11:46:57.000Z</time>
      </trkpt>
      <trkpt lat="47.49093" lon="7.0178">
        <ele>402</ele>
        <time>2023-08-03T11:47:06.000Z</time>
      </trkpt>
      <trkpt lat="47.49098" lon="7.01781">
        <ele>402</ele>
        <time>2023-08-03T11:47:07.000Z</time>
      </trkpt>
      <trkpt lat="47.4912" lon="7.01779">
        <ele>402</ele>
        <time>2023-08-03T11:47:11.000Z</time>
      </trkpt>
      <trkpt lat="47.49127" lon="7.01778">
        <ele>402</ele>
        <time>2023-08-03T11:47:12.000Z</time>
      </trkpt>
      <trkpt lat="47.49132" lon="7.01776">
        <ele>402</ele>
        <time>2023-08-03T11:47:13.000Z</time>
      </trkpt>
      <trkpt lat="47.49168" lon="7.01767">
        <ele>401.20001220703</ele>
        <time>2023-08-03T11:47:19.000Z</time>
      </trkpt>
      <trkpt lat="47.49179" lon="7.01766">
        <ele>401</ele>
        <time>2023-08-03T11:47:21.000Z</time>
      </trkpt>
      <trkpt lat="47.49215" lon="7.01757">
        <ele>400.39999389648</ele>
        <time>2023-08-03T11:47:27.000Z</time>
      </trkpt>
      <trkpt lat="47.49258" lon="7.01745">
        <ele>400.20001220703</ele>
        <time>2023-08-03T11:47:34.000Z</time>
      </trkpt>
      <trkpt lat="47.49269" lon="7.01742">
        <ele>400</ele>
        <time>2023-08-03T11:47:36.000Z</time>
      </trkpt>
      <trkpt lat="47.49281" lon="7.01737">
        <ele>400</ele>
        <time>2023-08-03T11:47:38.000Z</time>
      </trkpt>
      <trkpt lat="47.49303" lon="7.01724">
        <ele>399.60000610352</ele>
        <time>2023-08-03T11:47:42.000Z</time>
      </trkpt>
      <trkpt lat="47.49341" lon="7.01691">
        <ele>398.79998779297</ele>
        <time>2023-08-03T11:47:49.000Z</time>
      </trkpt>
      <trkpt lat="47.49356" lon="7.01678">
        <ele>399</ele>
        <time>2023-08-03T11:47:52.000Z</time>
      </trkpt>
      <trkpt lat="47.49385" lon="7.01657">
        <ele>398.60000610352</ele>
        <time>2023-08-03T11:47:57.000Z</time>
      </trkpt>
      <trkpt lat="47.49392" lon="7.01654">
        <ele>398.60000610352</ele>
        <time>2023-08-03T11:47:58.000Z</time>
      </trkpt>
      <trkpt lat="47.49429" lon="7.01646">
        <ele>398.60000610352</ele>
        <time>2023-08-03T11:48:04.000Z</time>
      </trkpt>
      <trkpt lat="47.49466" lon="7.01643">
        <ele>398.39999389648</ele>
        <time>2023-08-03T11:48:10.000Z</time>
      </trkpt>
      <trkpt lat="47.49486" lon="7.01638">
        <ele>398.20001220703</ele>
        <time>2023-08-03T11:48:13.000Z</time>
      </trkpt>
      <trkpt lat="47.49492" lon="7.01636">
        <ele>398</ele>
        <time>2023-08-03T11:48:14.000Z</time>
      </trkpt>
      <trkpt lat="47.49503" lon="7.01632">
        <ele>397.79998779297</ele>
        <time>2023-08-03T11:48:16.000Z</time>
      </trkpt>
      <trkpt lat="47.49544" lon="7.01613">
        <ele>397</ele>
        <time>2023-08-03T11:48:23.000Z</time>
      </trkpt>
      <trkpt lat="47.49553" lon="7.01608">
        <ele>396.60000610352</ele>
        <time>2023-08-03T11:48:25.000Z</time>
      </trkpt>
      <trkpt lat="47.49572" lon="7.01598">
        <ele>396.20001220703</ele>
        <time>2023-08-03T11:48:28.000Z</time>
      </trkpt>
      <trkpt lat="47.4959" lon="7.01591">
        <ele>395.79998779297</ele>
        <time>2023-08-03T11:48:31.000Z</time>
      </trkpt>
      <trkpt lat="47.49613" lon="7.0158">
        <ele>394.60000610352</ele>
        <time>2023-08-03T11:48:34.000Z</time>
      </trkpt>
      <trkpt lat="47.49627" lon="7.01571">
        <ele>394</ele>
        <time>2023-08-03T11:48:36.000Z</time>
      </trkpt>
      <trkpt lat="47.49635" lon="7.01567">
        <ele>393.39999389648</ele>
        <time>2023-08-03T11:48:37.000Z</time>
      </trkpt>
      <trkpt lat="47.49653" lon="7.01559">
        <ele>392</ele>
        <time>2023-08-03T11:48:39.000Z</time>
      </trkpt>
      <trkpt lat="47.4966" lon="7.01558">
        <ele>391.60000610352</ele>
        <time>2023-08-03T11:48:40.000Z</time>
      </trkpt>
      <trkpt lat="47.49668" lon="7.01557">
        <ele>391.20001220703</ele>
        <time>2023-08-03T11:48:41.000Z</time>
      </trkpt>
      <trkpt lat="47.49677" lon="7.01557">
        <ele>391</ele>
        <time>2023-08-03T11:48:42.000Z</time>
      </trkpt>
      <trkpt lat="47.49694" lon="7.01561">
        <ele>390.60000610352</ele>
        <time>2023-08-03T11:48:44.000Z</time>
      </trkpt>
      <trkpt lat="47.49714" lon="7.01567">
        <ele>390.20001220703</ele>
        <time>2023-08-03T11:48:47.000Z</time>
      </trkpt>
      <trkpt lat="47.49729" lon="7.01572">
        <ele>390.20001220703</ele>
        <time>2023-08-03T11:48:49.000Z</time>
      </trkpt>
      <trkpt lat="47.49774" lon="7.01586">
        <ele>390.20001220703</ele>
        <time>2023-08-03T11:48:56.000Z</time>
      </trkpt>
      <trkpt lat="47.49794" lon="7.01592">
        <ele>390.20001220703</ele>
        <time>2023-08-03T11:48:59.000Z</time>
      </trkpt>
      <trkpt lat="47.49805" lon="7.01599">
        <ele>390.39999389648</ele>
        <time>2023-08-03T11:49:01.000Z</time>
      </trkpt>
      <trkpt lat="47.4984" lon="7.01619">
        <ele>390.60000610352</ele>
        <time>2023-08-03T11:49:07.000Z</time>
      </trkpt>
      <trkpt lat="47.49875" lon="7.01622">
        <ele>391.39999389648</ele>
        <time>2023-08-03T11:49:13.000Z</time>
      </trkpt>
      <trkpt lat="47.49911" lon="7.01621">
        <ele>392</ele>
        <time>2023-08-03T11:49:19.000Z</time>
      </trkpt>
      <trkpt lat="47.49915" lon="7.0162">
        <ele>392</ele>
        <time>2023-08-03T11:49:20.000Z</time>
      </trkpt>
      <trkpt lat="47.49949" lon="7.01614">
        <ele>392</ele>
        <time>2023-08-03T11:49:26.000Z</time>
      </trkpt>
      <trkpt lat="47.49955" lon="7.01612">
        <ele>392</ele>
        <time>2023-08-03T11:49:27.000Z</time>
      </trkpt>
      <trkpt lat="47.50006" lon="7.01594">
        <ele>391.20001220703</ele>
        <time>2023-08-03T11:49:36.000Z</time>
      </trkpt>
      <trkpt lat="47.50051" lon="7.01575">
        <ele>392.39999389648</ele>
        <time>2023-08-03T11:49:44.000Z</time>
      </trkpt>
      <trkpt lat="47.50064" lon="7.01566">
        <ele>392.39999389648</ele>
        <time>2023-08-03T11:49:47.000Z</time>
      </trkpt>
      <trkpt lat="47.50075" lon="7.01555">
        <ele>392.20001220703</ele>
        <time>2023-08-03T11:49:49.000Z</time>
      </trkpt>
      <trkpt lat="47.501" lon="7.01511">
        <ele>391.60000610352</ele>
        <time>2023-08-03T11:49:56.000Z</time>
      </trkpt>
      <trkpt lat="47.50119" lon="7.01477">
        <ele>391</ele>
        <time>2023-08-03T11:50:01.000Z</time>
      </trkpt>
      <trkpt lat="47.50135" lon="7.01451">
        <ele>390</ele>
        <time>2023-08-03T11:50:05.000Z</time>
      </trkpt>
      <trkpt lat="47.50139" lon="7.01444">
        <ele>389.79998779297</ele>
        <time>2023-08-03T11:50:06.000Z</time>
      </trkpt>
      <trkpt lat="47.50159" lon="7.01411">
        <ele>388.79998779297</ele>
        <time>2023-08-03T11:50:11.000Z</time>
      </trkpt>
      <trkpt lat="47.50163" lon="7.01403">
        <ele>388.60000610352</ele>
        <time>2023-08-03T11:50:12.000Z</time>
      </trkpt>
      <trkpt lat="47.50171" lon="7.01387">
        <ele>388.20001220703</ele>
        <time>2023-08-03T11:50:15.000Z</time>
      </trkpt>
      <trkpt lat="47.50174" lon="7.01382">
        <ele>388</ele>
        <time>2023-08-03T11:50:16.000Z</time>
      </trkpt>
      <trkpt lat="47.50185" lon="7.01363">
        <ele>388</ele>
        <time>2023-08-03T11:50:20.000Z</time>
      </trkpt>
      <trkpt lat="47.5019" lon="7.01353">
        <ele>388</ele>
        <time>2023-08-03T11:50:22.000Z</time>
      </trkpt>
      <trkpt lat="47.50196" lon="7.01343">
        <ele>388</ele>
        <time>2023-08-03T11:50:24.000Z</time>
      </trkpt>
      <trkpt lat="47.50206" lon="7.01332">
        <ele>388.60000610352</ele>
        <time>2023-08-03T11:50:27.000Z</time>
      </trkpt>
      <trkpt lat="47.50212" lon="7.01323">
        <ele>389</ele>
        <time>2023-08-03T11:50:29.000Z</time>
      </trkpt>
      <trkpt lat="47.50217" lon="7.01314">
        <ele>389.39999389648</ele>
        <time>2023-08-03T11:50:31.000Z</time>
      </trkpt>
      <trkpt lat="47.5022" lon="7.0131">
        <ele>389.79998779297</ele>
        <time>2023-08-03T11:50:32.000Z</time>
      </trkpt>
      <trkpt lat="47.50233" lon="7.01294">
        <ele>390.79998779297</ele>
        <time>2023-08-03T11:50:36.000Z</time>
      </trkpt>
      <trkpt lat="47.50236" lon="7.0129">
        <ele>391</ele>
        <time>2023-08-03T11:50:37.000Z</time>
      </trkpt>
      <trkpt lat="47.50241" lon="7.01286">
        <ele>391.39999389648</ele>
        <time>2023-08-03T11:50:38.000Z</time>
      </trkpt>
      <trkpt lat="47.50248" lon="7.0128">
        <ele>391.60000610352</ele>
        <time>2023-08-03T11:50:40.000Z</time>
      </trkpt>
      <trkpt lat="47.50259" lon="7.01272">
        <ele>391.60000610352</ele>
        <time>2023-08-03T11:50:43.000Z</time>
      </trkpt>
      <trkpt lat="47.50271" lon="7.01261">
        <ele>391.39999389648</ele>
        <time>2023-08-03T11:50:46.000Z</time>
      </trkpt>
      <trkpt lat="47.5029" lon="7.01243">
        <ele>390.39999389648</ele>
        <time>2023-08-03T11:50:50.000Z</time>
      </trkpt>
      <trkpt lat="47.50293" lon="7.01239">
        <ele>390</ele>
        <time>2023-08-03T11:50:51.000Z</time>
      </trkpt>
      <trkpt lat="47.50321" lon="7.01212">
        <ele>388.79998779297</ele>
        <time>2023-08-03T11:50:57.000Z</time>
      </trkpt>
      <trkpt lat="47.50329" lon="7.01205">
        <ele>388.20001220703</ele>
        <time>2023-08-03T11:50:59.000Z</time>
      </trkpt>
      <trkpt lat="47.50334" lon="7.01202">
        <ele>388</ele>
        <time>2023-08-03T11:51:01.000Z</time>
      </trkpt>
      <trkpt lat="47.5034" lon="7.01196">
        <ele>388.20001220703</ele>
        <time>2023-08-03T11:51:06.000Z</time>
      </trkpt>
      <trkpt lat="47.5034" lon="7.01197">
        <ele>388.20001220703</ele>
        <time>2023-08-03T11:51:07.000Z</time>
      </trkpt>
      <trkpt lat="47.50341" lon="7.01196">
        <ele>388.20001220703</ele>
        <time>2023-08-03T11:51:12.000Z</time>
      </trkpt>
      <trkpt lat="47.50343" lon="7.01195">
        <ele>387.60000610352</ele>
        <time>2023-08-03T11:52:06.000Z</time>
      </trkpt>
      <trkpt lat="47.50355" lon="7.01182">
        <ele>387.79998779297</ele>
        <time>2023-08-03T11:52:11.000Z</time>
      </trkpt>
      <trkpt lat="47.50373" lon="7.01163">
        <ele>387.60000610352</ele>
        <time>2023-08-03T11:52:16.000Z</time>
      </trkpt>
      <trkpt lat="47.50378" lon="7.01159">
        <ele>387.60000610352</ele>
        <time>2023-08-03T11:52:17.000Z</time>
      </trkpt>
      <trkpt lat="47.50383" lon="7.01154">
        <ele>387.60000610352</ele>
        <time>2023-08-03T11:52:18.000Z</time>
      </trkpt>
      <trkpt lat="47.50397" lon="7.01138">
        <ele>387.60000610352</ele>
        <time>2023-08-03T11:52:21.000Z</time>
      </trkpt>
      <trkpt lat="47.50443" lon="7.01089">
        <ele>387.79998779297</ele>
        <time>2023-08-03T11:52:30.000Z</time>
      </trkpt>
      <trkpt lat="47.50487" lon="7.01038">
        <ele>387.60000610352</ele>
        <time>2023-08-03T11:52:39.000Z</time>
      </trkpt>
      <trkpt lat="47.50529" lon="7.00986">
        <ele>387</ele>
        <time>2023-08-03T11:52:48.000Z</time>
      </trkpt>
      <trkpt lat="47.50561" lon="7.00948">
        <ele>386.79998779297</ele>
        <time>2023-08-03T11:52:55.000Z</time>
      </trkpt>
      <trkpt lat="47.50567" lon="7.0094">
        <ele>386.79998779297</ele>
        <time>2023-08-03T11:52:57.000Z</time>
      </trkpt>
      <trkpt lat="47.50571" lon="7.00937">
        <ele>386.60000610352</ele>
        <time>2023-08-03T11:52:58.000Z</time>
      </trkpt>
      <trkpt lat="47.50575" lon="7.00933">
        <ele>386.60000610352</ele>
        <time>2023-08-03T11:52:59.000Z</time>
      </trkpt>
      <trkpt lat="47.50578" lon="7.0093">
        <ele>386.60000610352</ele>
        <time>2023-08-03T11:53:00.000Z</time>
      </trkpt>
      <trkpt lat="47.50594" lon="7.00916">
        <ele>386.39999389648</ele>
        <time>2023-08-03T11:53:06.000Z</time>
      </trkpt>
      <trkpt lat="47.50601" lon="7.00913">
        <ele>386.39999389648</ele>
        <time>2023-08-03T11:53:08.000Z</time>
      </trkpt>
      <trkpt lat="47.50604" lon="7.00914">
        <ele>386.20001220703</ele>
        <time>2023-08-03T11:53:09.000Z</time>
      </trkpt>
      <trkpt lat="47.50607" lon="7.00918">
        <ele>386.20001220703</ele>
        <time>2023-08-03T11:53:10.000Z</time>
      </trkpt>
      <trkpt lat="47.50611" lon="7.00929">
        <ele>386.39999389648</ele>
        <time>2023-08-03T11:53:13.000Z</time>
      </trkpt>
      <trkpt lat="47.50613" lon="7.00942">
        <ele>386.60000610352</ele>
        <time>2023-08-03T11:53:17.000Z</time>
      </trkpt>
      <trkpt lat="47.50611" lon="7.00945">
        <ele>387</ele>
        <time>2023-08-03T11:53:18.000Z</time>
      </trkpt>
      <trkpt lat="47.50596" lon="7.0095">
        <ele>387.20001220703</ele>
        <time>2023-08-03T11:53:23.000Z</time>
      </trkpt>
      <trkpt lat="47.50592" lon="7.00949">
        <ele>387.39999389648</ele>
        <time>2023-08-03T11:53:24.000Z</time>
      </trkpt>
      <trkpt lat="47.5058" lon="7.00952">
        <ele>388</ele>
        <time>2023-08-03T11:53:28.000Z</time>
      </trkpt>
      <trkpt lat="47.50571" lon="7.00964">
        <ele>388.20001220703</ele>
        <time>2023-08-03T11:53:33.000Z</time>
      </trkpt>
      <trkpt lat="47.50572" lon="7.00965">
        <ele>388.20001220703</ele>
        <time>2023-08-03T11:53:36.000Z</time>
      </trkpt>
      <trkpt lat="47.50583" lon="7.00953">
        <ele>387.20001220703</ele>
        <time>2023-08-03T12:39:25.000Z</time>
      </trkpt>
      <trkpt lat="47.50596" lon="7.00957">
        <ele>387.60000610352</ele>
        <time>2023-08-03T12:39:29.000Z</time>
      </trkpt>
      <trkpt lat="47.50609" lon="7.00951">
        <ele>387.60000610352</ele>
        <time>2023-08-03T12:39:33.000Z</time>
      </trkpt>
      <trkpt lat="47.50612" lon="7.00948">
        <ele>387.60000610352</ele>
        <time>2023-08-03T12:39:34.000Z</time>
      </trkpt>
      <trkpt lat="47.50612" lon="7.0094">
        <ele>387.60000610352</ele>
        <time>2023-08-03T12:39:36.000Z</time>
      </trkpt>
      <trkpt lat="47.50604" lon="7.00912">
        <ele>387.20001220703</ele>
        <time>2023-08-03T12:39:43.000Z</time>
      </trkpt>
      <trkpt lat="47.50604" lon="7.00909">
        <ele>387.20001220703</ele>
        <time>2023-08-03T12:39:44.000Z</time>
      </trkpt>
      <trkpt lat="47.50604" lon="7.00901">
        <ele>387</ele>
        <time>2023-08-03T12:39:46.000Z</time>
      </trkpt>
      <trkpt lat="47.50614" lon="7.00882">
        <ele>386.39999389648</ele>
        <time>2023-08-03T12:39:50.000Z</time>
      </trkpt>
      <trkpt lat="47.50616" lon="7.0087">
        <ele>386.20001220703</ele>
        <time>2023-08-03T12:39:52.000Z</time>
      </trkpt>
      <trkpt lat="47.50616" lon="7.00863">
        <ele>386.20001220703</ele>
        <time>2023-08-03T12:39:53.000Z</time>
      </trkpt>
      <trkpt lat="47.50614" lon="7.00857">
        <ele>386.20001220703</ele>
        <time>2023-08-03T12:39:54.000Z</time>
      </trkpt>
      <trkpt lat="47.50605" lon="7.00839">
        <ele>385.79998779297</ele>
        <time>2023-08-03T12:39:57.000Z</time>
      </trkpt>
      <trkpt lat="47.50581" lon="7.00789">
        <ele>385.20001220703</ele>
        <time>2023-08-03T12:40:05.000Z</time>
      </trkpt>
      <trkpt lat="47.50563" lon="7.00754">
        <ele>384.79998779297</ele>
        <time>2023-08-03T12:40:11.000Z</time>
      </trkpt>
      <trkpt lat="47.50558" lon="7.00741">
        <ele>384.60000610352</ele>
        <time>2023-08-03T12:40:13.000Z</time>
      </trkpt>
      <trkpt lat="47.50556" lon="7.00728">
        <ele>384.79998779297</ele>
        <time>2023-08-03T12:40:15.000Z</time>
      </trkpt>
      <trkpt lat="47.50556" lon="7.00707">
        <ele>385</ele>
        <time>2023-08-03T12:40:18.000Z</time>
      </trkpt>
      <trkpt lat="47.50559" lon="7.00692">
        <ele>385</ele>
        <time>2023-08-03T12:40:20.000Z</time>
      </trkpt>
      <trkpt lat="47.50564" lon="7.00679">
        <ele>385.20001220703</ele>
        <time>2023-08-03T12:40:22.000Z</time>
      </trkpt>
      <trkpt lat="47.5059" lon="7.00613">
        <ele>384.60000610352</ele>
        <time>2023-08-03T12:40:32.000Z</time>
      </trkpt>
      <trkpt lat="47.50611" lon="7.00557">
        <ele>384.39999389648</ele>
        <time>2023-08-03T12:40:40.000Z</time>
      </trkpt>
      <trkpt lat="47.50621" lon="7.00531">
        <ele>384.39999389648</ele>
        <time>2023-08-03T12:40:44.000Z</time>
      </trkpt>
      <trkpt lat="47.50628" lon="7.00518">
        <ele>384.60000610352</ele>
        <time>2023-08-03T12:40:46.000Z</time>
      </trkpt>
      <trkpt lat="47.50655" lon="7.00472">
        <ele>384.79998779297</ele>
        <time>2023-08-03T12:40:54.000Z</time>
      </trkpt>
      <trkpt lat="47.50672" lon="7.00448">
        <ele>384.20001220703</ele>
        <time>2023-08-03T12:40:58.000Z</time>
      </trkpt>
      <trkpt lat="47.50685" lon="7.0043">
        <ele>383.79998779297</ele>
        <time>2023-08-03T12:41:01.000Z</time>
      </trkpt>
      <trkpt lat="47.50689" lon="7.00425">
        <ele>383.79998779297</ele>
        <time>2023-08-03T12:41:02.000Z</time>
      </trkpt>
      <trkpt lat="47.50714" lon="7.00395">
        <ele>383.60000610352</ele>
        <time>2023-08-03T12:41:08.000Z</time>
      </trkpt>
      <trkpt lat="47.50719" lon="7.00392">
        <ele>383.60000610352</ele>
        <time>2023-08-03T12:41:09.000Z</time>
      </trkpt>
      <trkpt lat="47.50733" lon="7.00387">
        <ele>383.39999389648</ele>
        <time>2023-08-03T12:41:12.000Z</time>
      </trkpt>
      <trkpt lat="47.5074" lon="7.00379">
        <ele>383.39999389648</ele>
        <time>2023-08-03T12:41:14.000Z</time>
      </trkpt>
      <trkpt lat="47.50752" lon="7.00361">
        <ele>383.39999389648</ele>
        <time>2023-08-03T12:41:17.000Z</time>
      </trkpt>
      <trkpt lat="47.5076" lon="7.00352">
        <ele>383.39999389648</ele>
        <time>2023-08-03T12:41:19.000Z</time>
      </trkpt>
      <trkpt lat="47.50789" lon="7.00329">
        <ele>383</ele>
        <time>2023-08-03T12:41:25.000Z</time>
      </trkpt>
      <trkpt lat="47.50793" lon="7.00325">
        <ele>383</ele>
        <time>2023-08-03T12:41:26.000Z</time>
      </trkpt>
      <trkpt lat="47.50816" lon="7.00306">
        <ele>382.60000610352</ele>
        <time>2023-08-03T12:41:31.000Z</time>
      </trkpt>
      <trkpt lat="47.50825" lon="7.003">
        <ele>382.39999389648</ele>
        <time>2023-08-03T12:41:33.000Z</time>
      </trkpt>
      <trkpt lat="47.50829" lon="7.00299">
        <ele>382.39999389648</ele>
        <time>2023-08-03T12:41:34.000Z</time>
      </trkpt>
      <trkpt lat="47.5084" lon="7.00294">
        <ele>382.39999389648</ele>
        <time>2023-08-03T12:41:36.000Z</time>
      </trkpt>
      <trkpt lat="47.50845" lon="7.0029">
        <ele>382.20001220703</ele>
        <time>2023-08-03T12:41:37.000Z</time>
      </trkpt>
      <trkpt lat="47.50858" lon="7.00277">
        <ele>382.20001220703</ele>
        <time>2023-08-03T12:41:40.000Z</time>
      </trkpt>
      <trkpt lat="47.50867" lon="7.00268">
        <ele>382.60000610352</ele>
        <time>2023-08-03T12:41:42.000Z</time>
      </trkpt>
      <trkpt lat="47.50876" lon="7.00261">
        <ele>382.79998779297</ele>
        <time>2023-08-03T12:41:44.000Z</time>
      </trkpt>
      <trkpt lat="47.50923" lon="7.00231">
        <ele>382.79998779297</ele>
        <time>2023-08-03T12:41:53.000Z</time>
      </trkpt>
      <trkpt lat="47.50966" lon="7.00205">
        <ele>383</ele>
        <time>2023-08-03T12:42:01.000Z</time>
      </trkpt>
      <trkpt lat="47.51012" lon="7.00177">
        <ele>383.20001220703</ele>
        <time>2023-08-03T12:42:10.000Z</time>
      </trkpt>
      <trkpt lat="47.51027" lon="7.00165">
        <ele>383.20001220703</ele>
        <time>2023-08-03T12:42:13.000Z</time>
      </trkpt>
      <trkpt lat="47.51037" lon="7.0016">
        <ele>383.39999389648</ele>
        <time>2023-08-03T12:42:15.000Z</time>
      </trkpt>
      <trkpt lat="47.51091" lon="7.0014">
        <ele>383.79998779297</ele>
        <time>2023-08-03T12:42:25.000Z</time>
      </trkpt>
      <trkpt lat="47.51136" lon="7.00129">
        <ele>384</ele>
        <time>2023-08-03T12:42:33.000Z</time>
      </trkpt>
      <trkpt lat="47.51188" lon="7.00114">
        <ele>382.79998779297</ele>
        <time>2023-08-03T12:42:42.000Z</time>
      </trkpt>
      <trkpt lat="47.51215" lon="7.00106">
        <ele>382.60000610352</ele>
        <time>2023-08-03T12:42:46.000Z</time>
      </trkpt>
      <trkpt lat="47.51239" lon="7.00099">
        <ele>382.20001220703</ele>
        <time>2023-08-03T12:42:50.000Z</time>
      </trkpt>
      <trkpt lat="47.51245" lon="7.00097">
        <ele>382</ele>
        <time>2023-08-03T12:42:51.000Z</time>
      </trkpt>
      <trkpt lat="47.51251" lon="7.00096">
        <ele>382</ele>
        <time>2023-08-03T12:42:52.000Z</time>
      </trkpt>
      <trkpt lat="47.5127" lon="7.00096">
        <ele>381.79998779297</ele>
        <time>2023-08-03T12:42:55.000Z</time>
      </trkpt>
      <trkpt lat="47.5132" lon="7.00096">
        <ele>381.20001220703</ele>
        <time>2023-08-03T12:43:03.000Z</time>
      </trkpt>
      <trkpt lat="47.51348" lon="7.00098">
        <ele>381</ele>
        <time>2023-08-03T12:43:07.000Z</time>
      </trkpt>
      <trkpt lat="47.51376" lon="7.00099">
        <ele>380.60000610352</ele>
        <time>2023-08-03T12:43:11.000Z</time>
      </trkpt>
      <trkpt lat="47.51433" lon="7.00103">
        <ele>380.39999389648</ele>
        <time>2023-08-03T12:43:19.000Z</time>
      </trkpt>
      <trkpt lat="47.51488" lon="7.00106">
        <ele>380.20001220703</ele>
        <time>2023-08-03T12:43:27.000Z</time>
      </trkpt>
      <trkpt lat="47.51495" lon="7.00107">
        <ele>380.20001220703</ele>
        <time>2023-08-03T12:43:28.000Z</time>
      </trkpt>
      <trkpt lat="47.51545" lon="7.00111">
        <ele>380.60000610352</ele>
        <time>2023-08-03T12:43:35.000Z</time>
      </trkpt>
      <trkpt lat="47.51567" lon="7.00111">
        <ele>380.39999389648</ele>
        <time>2023-08-03T12:43:38.000Z</time>
      </trkpt>
      <trkpt lat="47.51609" lon="7.00112">
        <ele>380.39999389648</ele>
        <time>2023-08-03T12:43:44.000Z</time>
      </trkpt>
      <trkpt lat="47.51667" lon="7.00113">
        <ele>380.39999389648</ele>
        <time>2023-08-03T12:43:53.000Z</time>
      </trkpt>
      <trkpt lat="47.51692" lon="7.00116">
        <ele>380.20001220703</ele>
        <time>2023-08-03T12:43:57.000Z</time>
      </trkpt>
      <trkpt lat="47.51724" lon="7.00118">
        <ele>379.79998779297</ele>
        <time>2023-08-03T12:44:02.000Z</time>
      </trkpt>
      <trkpt lat="47.51781" lon="7.00123">
        <ele>380.20001220703</ele>
        <time>2023-08-03T12:44:11.000Z</time>
      </trkpt>
      <trkpt lat="47.51788" lon="7.00123">
        <ele>380.39999389648</ele>
        <time>2023-08-03T12:44:12.000Z</time>
      </trkpt>
      <trkpt lat="47.51846" lon="7.00124">
        <ele>379.79998779297</ele>
        <time>2023-08-03T12:44:21.000Z</time>
      </trkpt>
      <trkpt lat="47.51892" lon="7.00127">
        <ele>379.20001220703</ele>
        <time>2023-08-03T12:44:28.000Z</time>
      </trkpt>
      <trkpt lat="47.51897" lon="7.00126">
        <ele>379.20001220703</ele>
        <time>2023-08-03T12:44:29.000Z</time>
      </trkpt>
      <trkpt lat="47.51917" lon="7.00126">
        <ele>379</ele>
        <time>2023-08-03T12:44:32.000Z</time>
      </trkpt>
      <trkpt lat="47.51928" lon="7.00127">
        <ele>379</ele>
        <time>2023-08-03T12:44:34.000Z</time>
      </trkpt>
      <trkpt lat="47.51938" lon="7.00131">
        <ele>378.79998779297</ele>
        <time>2023-08-03T12:44:36.000Z</time>
      </trkpt>
      <trkpt lat="47.51945" lon="7.00134">
        <ele>378.79998779297</ele>
        <time>2023-08-03T12:44:37.000Z</time>
      </trkpt>
      <trkpt lat="47.51956" lon="7.00134">
        <ele>378.79998779297</ele>
        <time>2023-08-03T12:44:39.000Z</time>
      </trkpt>
      <trkpt lat="47.51987" lon="7.00134">
        <ele>378.79998779297</ele>
        <time>2023-08-03T12:44:44.000Z</time>
      </trkpt>
      <trkpt lat="47.52036" lon="7.00139">
        <ele>378</ele>
        <time>2023-08-03T12:44:52.000Z</time>
      </trkpt>
      <trkpt lat="47.52087" lon="7.00149">
        <ele>377.79998779297</ele>
        <time>2023-08-03T12:45:01.000Z</time>
      </trkpt>
      <trkpt lat="47.5212" lon="7.00158">
        <ele>379.20001220703</ele>
        <time>2023-08-03T12:45:07.000Z</time>
      </trkpt>
      <trkpt lat="47.52126" lon="7.0016">
        <ele>379.39999389648</ele>
        <time>2023-08-03T12:45:08.000Z</time>
      </trkpt>
      <trkpt lat="47.52131" lon="7.00161">
        <ele>379.60000610352</ele>
        <time>2023-08-03T12:45:09.000Z</time>
      </trkpt>
      <trkpt lat="47.52143" lon="7.00163">
        <ele>380.20001220703</ele>
        <time>2023-08-03T12:45:11.000Z</time>
      </trkpt>
      <trkpt lat="47.52166" lon="7.00166">
        <ele>380.79998779297</ele>
        <time>2023-08-03T12:45:15.000Z</time>
      </trkpt>
      <trkpt lat="47.52179" lon="7.00166">
        <ele>380.79998779297</ele>
        <time>2023-08-03T12:45:17.000Z</time>
      </trkpt>
      <trkpt lat="47.52231" lon="7.00163">
        <ele>380.60000610352</ele>
        <time>2023-08-03T12:45:25.000Z</time>
      </trkpt>
      <trkpt lat="47.5226" lon="7.00163">
        <ele>380</ele>
        <time>2023-08-03T12:45:29.000Z</time>
      </trkpt>
      <trkpt lat="47.52275" lon="7.00164">
        <ele>379.60000610352</ele>
        <time>2023-08-03T12:45:31.000Z</time>
      </trkpt>
      <trkpt lat="47.52297" lon="7.0017">
        <ele>379</ele>
        <time>2023-08-03T12:45:34.000Z</time>
      </trkpt>
      <trkpt lat="47.52323" lon="7.0018">
        <ele>378.60000610352</ele>
        <time>2023-08-03T12:45:38.000Z</time>
      </trkpt>
      <trkpt lat="47.52329" lon="7.00184">
        <ele>378.60000610352</ele>
        <time>2023-08-03T12:45:39.000Z</time>
      </trkpt>
      <trkpt lat="47.52338" lon="7.00194">
        <ele>378.39999389648</ele>
        <time>2023-08-03T12:45:41.000Z</time>
      </trkpt>
      <trkpt lat="47.5235" lon="7.0021">
        <ele>378.39999389648</ele>
        <time>2023-08-03T12:45:44.000Z</time>
      </trkpt>
      <trkpt lat="47.52354" lon="7.00214">
        <ele>378.20001220703</ele>
        <time>2023-08-03T12:45:45.000Z</time>
      </trkpt>
      <trkpt lat="47.5236" lon="7.00216">
        <ele>378.20001220703</ele>
        <time>2023-08-03T12:45:46.000Z</time>
      </trkpt>
      <trkpt lat="47.52371" lon="7.00213">
        <ele>378.20001220703</ele>
        <time>2023-08-03T12:45:48.000Z</time>
      </trkpt>
      <trkpt lat="47.52416" lon="7.00197">
        <ele>378</ele>
        <time>2023-08-03T12:45:55.000Z</time>
      </trkpt>
      <trkpt lat="47.52472" lon="7.00175">
        <ele>378.39999389648</ele>
        <time>2023-08-03T12:46:04.000Z</time>
      </trkpt>
      <trkpt lat="47.52478" lon="7.00173">
        <ele>378.39999389648</ele>
        <time>2023-08-03T12:46:05.000Z</time>
      </trkpt>
      <trkpt lat="47.5249" lon="7.00171">
        <ele>378.39999389648</ele>
        <time>2023-08-03T12:46:07.000Z</time>
      </trkpt>
      <trkpt lat="47.52507" lon="7.0017">
        <ele>378.20001220703</ele>
        <time>2023-08-03T12:46:10.000Z</time>
      </trkpt>
      <trkpt lat="47.52515" lon="7.00163">
        <ele>378</ele>
        <time>2023-08-03T12:46:12.000Z</time>
      </trkpt>
      <trkpt lat="47.52519" lon="7.00159">
        <ele>378.20001220703</ele>
        <time>2023-08-03T12:46:13.000Z</time>
      </trkpt>
      <trkpt lat="47.52531" lon="7.00152">
        <ele>378</ele>
        <time>2023-08-03T12:46:15.000Z</time>
      </trkpt>
      <trkpt lat="47.52542" lon="7.00148">
        <ele>378</ele>
        <time>2023-08-03T12:46:17.000Z</time>
      </trkpt>
      <trkpt lat="47.52571" lon="7.00131">
        <ele>378</ele>
        <time>2023-08-03T12:46:22.000Z</time>
      </trkpt>
      <trkpt lat="47.52576" lon="7.00127">
        <ele>377.79998779297</ele>
        <time>2023-08-03T12:46:23.000Z</time>
      </trkpt>
      <trkpt lat="47.52607" lon="7.00085">
        <ele>377.39999389648</ele>
        <time>2023-08-03T12:46:30.000Z</time>
      </trkpt>
      <trkpt lat="47.52624" lon="7.00059">
        <ele>377</ele>
        <time>2023-08-03T12:46:34.000Z</time>
      </trkpt>
      <trkpt lat="47.52648" lon="7.00029">
        <ele>376.79998779297</ele>
        <time>2023-08-03T12:46:39.000Z</time>
      </trkpt>
      <trkpt lat="47.52691" lon="6.9998">
        <ele>376</ele>
        <time>2023-08-03T12:46:48.000Z</time>
      </trkpt>
      <trkpt lat="47.52715" lon="6.99952">
        <ele>375.39999389648</ele>
        <time>2023-08-03T12:46:53.000Z</time>
      </trkpt>
      <trkpt lat="47.52727" lon="6.99934">
        <ele>375.20001220703</ele>
        <time>2023-08-03T12:46:56.000Z</time>
      </trkpt>
      <trkpt lat="47.52752" lon="6.99892">
        <ele>375.20001220703</ele>
        <time>2023-08-03T12:47:02.000Z</time>
      </trkpt>
      <trkpt lat="47.52757" lon="6.99885">
        <ele>375.20001220703</ele>
        <time>2023-08-03T12:47:03.000Z</time>
      </trkpt>
      <trkpt lat="47.52767" lon="6.99874">
        <ele>375</ele>
        <time>2023-08-03T12:47:05.000Z</time>
      </trkpt>
      <trkpt lat="47.52777" lon="6.99863">
        <ele>375</ele>
        <time>2023-08-03T12:47:07.000Z</time>
      </trkpt>
      <trkpt lat="47.52783" lon="6.99859">
        <ele>375</ele>
        <time>2023-08-03T12:47:08.000Z</time>
      </trkpt>
      <trkpt lat="47.52787" lon="6.99854">
        <ele>375</ele>
        <time>2023-08-03T12:47:09.000Z</time>
      </trkpt>
      <trkpt lat="47.52807" lon="6.99832">
        <ele>375</ele>
        <time>2023-08-03T12:47:13.000Z</time>
      </trkpt>
      <trkpt lat="47.52843" lon="6.99795">
        <ele>375.20001220703</ele>
        <time>2023-08-03T12:47:20.000Z</time>
      </trkpt>
      <trkpt lat="47.52877" lon="6.99755">
        <ele>375.39999389648</ele>
        <time>2023-08-03T12:47:27.000Z</time>
      </trkpt>
      <trkpt lat="47.52894" lon="6.99726">
        <ele>375.39999389648</ele>
        <time>2023-08-03T12:47:31.000Z</time>
      </trkpt>
      <trkpt lat="47.52907" lon="6.99707">
        <ele>375.20001220703</ele>
        <time>2023-08-03T12:47:34.000Z</time>
      </trkpt>
      <trkpt lat="47.52918" lon="6.99699">
        <ele>375</ele>
        <time>2023-08-03T12:47:36.000Z</time>
      </trkpt>
      <trkpt lat="47.52929" lon="6.99694">
        <ele>374.79998779297</ele>
        <time>2023-08-03T12:47:38.000Z</time>
      </trkpt>
      <trkpt lat="47.52957" lon="6.99694">
        <ele>374.60000610352</ele>
        <time>2023-08-03T12:47:43.000Z</time>
      </trkpt>
      <trkpt lat="47.52985" lon="6.99699">
        <ele>375</ele>
        <time>2023-08-03T12:47:48.000Z</time>
      </trkpt>
      <trkpt lat="47.52995" lon="6.99705">
        <ele>375.20001220703</ele>
        <time>2023-08-03T12:47:50.000Z</time>
      </trkpt>
      <trkpt lat="47.5302" lon="6.99732">
        <ele>376</ele>
        <time>2023-08-03T12:47:56.000Z</time>
      </trkpt>
      <trkpt lat="47.53024" lon="6.99736">
        <ele>376.39999389648</ele>
        <time>2023-08-03T12:47:57.000Z</time>
      </trkpt>
      <trkpt lat="47.53029" lon="6.99739">
        <ele>376.60000610352</ele>
        <time>2023-08-03T12:47:58.000Z</time>
      </trkpt>
      <trkpt lat="47.53038" lon="6.99744">
        <ele>377.20001220703</ele>
        <time>2023-08-03T12:48:00.000Z</time>
      </trkpt>
      <trkpt lat="47.53043" lon="6.99746">
        <ele>377.60000610352</ele>
        <time>2023-08-03T12:48:01.000Z</time>
      </trkpt>
      <trkpt lat="47.53048" lon="6.99747">
        <ele>377.79998779297</ele>
        <time>2023-08-03T12:48:02.000Z</time>
      </trkpt>
      <trkpt lat="47.53053" lon="6.99747">
        <ele>377.79998779297</ele>
        <time>2023-08-03T12:48:03.000Z</time>
      </trkpt>
      <trkpt lat="47.53063" lon="6.99745">
        <ele>378.39999389648</ele>
        <time>2023-08-03T12:48:05.000Z</time>
      </trkpt>
      <trkpt lat="47.53071" lon="6.99739">
        <ele>379</ele>
        <time>2023-08-03T12:48:07.000Z</time>
      </trkpt>
      <trkpt lat="47.53096" lon="6.99718">
        <ele>379.39999389648</ele>
        <time>2023-08-03T12:48:13.000Z</time>
      </trkpt>
      <trkpt lat="47.53122" lon="6.99696">
        <ele>379.39999389648</ele>
        <time>2023-08-03T12:48:19.000Z</time>
      </trkpt>
      <trkpt lat="47.53166" lon="6.99661">
        <ele>379.20001220703</ele>
        <time>2023-08-03T12:48:28.000Z</time>
      </trkpt>
      <trkpt lat="47.53211" lon="6.99625">
        <ele>379</ele>
        <time>2023-08-03T12:48:37.000Z</time>
      </trkpt>
      <trkpt lat="47.53258" lon="6.9958">
        <ele>379</ele>
        <time>2023-08-03T12:48:47.000Z</time>
      </trkpt>
      <trkpt lat="47.53263" lon="6.99574">
        <ele>379</ele>
        <time>2023-08-03T12:48:48.000Z</time>
      </trkpt>
      <trkpt lat="47.5327" lon="6.9956">
        <ele>379</ele>
        <time>2023-08-03T12:48:50.000Z</time>
      </trkpt>
      <trkpt lat="47.5328" lon="6.99534">
        <ele>379</ele>
        <time>2023-08-03T12:48:53.000Z</time>
      </trkpt>
      <trkpt lat="47.53296" lon="6.99476">
        <ele>378.79998779297</ele>
        <time>2023-08-03T12:48:59.000Z</time>
      </trkpt>
      <trkpt lat="47.5331" lon="6.99425">
        <ele>378.39999389648</ele>
        <time>2023-08-03T12:49:04.000Z</time>
      </trkpt>
      <trkpt lat="47.5332" lon="6.99383">
        <ele>377.79998779297</ele>
        <time>2023-08-03T12:49:08.000Z</time>
      </trkpt>
      <trkpt lat="47.53327" lon="6.99355">
        <ele>377.39999389648</ele>
        <time>2023-08-03T12:49:11.000Z</time>
      </trkpt>
      <trkpt lat="47.53338" lon="6.99318">
        <ele>377.20001220703</ele>
        <time>2023-08-03T12:49:15.000Z</time>
      </trkpt>
      <trkpt lat="47.5336" lon="6.99238">
        <ele>377.20001220703</ele>
        <time>2023-08-03T12:49:24.000Z</time>
      </trkpt>
      <trkpt lat="47.53362" lon="6.9923">
        <ele>377.20001220703</ele>
        <time>2023-08-03T12:49:25.000Z</time>
      </trkpt>
      <trkpt lat="47.53377" lon="6.99169">
        <ele>377</ele>
        <time>2023-08-03T12:49:32.000Z</time>
      </trkpt>
      <trkpt lat="47.53396" lon="6.99096">
        <ele>376.79998779297</ele>
        <time>2023-08-03T12:49:40.000Z</time>
      </trkpt>
      <trkpt lat="47.53406" lon="6.99058">
        <ele>376.60000610352</ele>
        <time>2023-08-03T12:49:44.000Z</time>
      </trkpt>
      <trkpt lat="47.5342" lon="6.99009">
        <ele>376.39999389648</ele>
        <time>2023-08-03T12:49:49.000Z</time>
      </trkpt>
      <trkpt lat="47.53439" lon="6.98932">
        <ele>375.60000610352</ele>
        <time>2023-08-03T12:49:57.000Z</time>
      </trkpt>
      <trkpt lat="47.53447" lon="6.98903">
        <ele>375.60000610352</ele>
        <time>2023-08-03T12:50:00.000Z</time>
      </trkpt>
      <trkpt lat="47.53467" lon="6.9883">
        <ele>375.79998779297</ele>
        <time>2023-08-03T12:50:08.000Z</time>
      </trkpt>
      <trkpt lat="47.53472" lon="6.98803">
        <ele>375.39999389648</ele>
        <time>2023-08-03T12:50:11.000Z</time>
      </trkpt>
      <trkpt lat="47.53483" lon="6.98758">
        <ele>375</ele>
        <time>2023-08-03T12:50:16.000Z</time>
      </trkpt>
      <trkpt lat="47.53504" lon="6.98675">
        <ele>375</ele>
        <time>2023-08-03T12:50:25.000Z</time>
      </trkpt>
      <trkpt lat="47.53523" lon="6.98603">
        <ele>374.79998779297</ele>
        <time>2023-08-03T12:50:33.000Z</time>
      </trkpt>
      <trkpt lat="47.53541" lon="6.98536">
        <ele>375</ele>
        <time>2023-08-03T12:50:41.000Z</time>
      </trkpt>
      <trkpt lat="47.53547" lon="6.98513">
        <ele>375.20001220703</ele>
        <time>2023-08-03T12:50:44.000Z</time>
      </trkpt>
      <trkpt lat="47.53555" lon="6.98483">
        <ele>376</ele>
        <time>2023-08-03T12:50:48.000Z</time>
      </trkpt>
      <trkpt lat="47.53565" lon="6.98446">
        <ele>376.60000610352</ele>
        <time>2023-08-03T12:50:53.000Z</time>
      </trkpt>
      <trkpt lat="47.53572" lon="6.98418">
        <ele>377.20001220703</ele>
        <time>2023-08-03T12:50:57.000Z</time>
      </trkpt>
      <trkpt lat="47.53582" lon="6.98382">
        <ele>377.60000610352</ele>
        <time>2023-08-03T12:51:02.000Z</time>
      </trkpt>
      <trkpt lat="47.53587" lon="6.9836">
        <ele>378</ele>
        <time>2023-08-03T12:51:05.000Z</time>
      </trkpt>
      <trkpt lat="47.53595" lon="6.98331">
        <ele>378.79998779297</ele>
        <time>2023-08-03T12:51:09.000Z</time>
      </trkpt>
      <trkpt lat="47.53608" lon="6.98278">
        <ele>379.20001220703</ele>
        <time>2023-08-03T12:51:16.000Z</time>
      </trkpt>
      <trkpt lat="47.53616" lon="6.98248">
        <ele>379</ele>
        <time>2023-08-03T12:51:20.000Z</time>
      </trkpt>
      <trkpt lat="47.53628" lon="6.98186">
        <ele>378.79998779297</ele>
        <time>2023-08-03T12:51:28.000Z</time>
      </trkpt>
      <trkpt lat="47.53629" lon="6.98178">
        <ele>378.79998779297</ele>
        <time>2023-08-03T12:51:29.000Z</time>
      </trkpt>
      <trkpt lat="47.53638" lon="6.98145">
        <ele>377.79998779297</ele>
        <time>2023-08-03T12:51:33.000Z</time>
      </trkpt>
      <trkpt lat="47.5364" lon="6.98137">
        <ele>377.39999389648</ele>
        <time>2023-08-03T12:51:34.000Z</time>
      </trkpt>
      <trkpt lat="47.53652" lon="6.98091">
        <ele>376.39999389648</ele>
        <time>2023-08-03T12:51:39.000Z</time>
      </trkpt>
      <trkpt lat="47.53659" lon="6.98053">
        <ele>376.20001220703</ele>
        <time>2023-08-03T12:51:43.000Z</time>
      </trkpt>
      <trkpt lat="47.53661" lon="6.98034">
        <ele>375.79998779297</ele>
        <time>2023-08-03T12:51:45.000Z</time>
      </trkpt>
      <trkpt lat="47.53662" lon="6.98014">
        <ele>375.20001220703</ele>
        <time>2023-08-03T12:51:47.000Z</time>
      </trkpt>
      <trkpt lat="47.5367" lon="6.97952">
        <ele>374.39999389648</ele>
        <time>2023-08-03T12:51:54.000Z</time>
      </trkpt>
      <trkpt lat="47.53689" lon="6.97876">
        <ele>374.79998779297</ele>
        <time>2023-08-03T12:52:03.000Z</time>
      </trkpt>
      <trkpt lat="47.53695" lon="6.97852">
        <ele>375</ele>
        <time>2023-08-03T12:52:06.000Z</time>
      </trkpt>
      <trkpt lat="47.537" lon="6.97827">
        <ele>375.39999389648</ele>
        <time>2023-08-03T12:52:09.000Z</time>
      </trkpt>
      <trkpt lat="47.53711" lon="6.97764">
        <ele>376</ele>
        <time>2023-08-03T12:52:17.000Z</time>
      </trkpt>
      <trkpt lat="47.53717" lon="6.9774">
        <ele>376.20001220703</ele>
        <time>2023-08-03T12:52:20.000Z</time>
      </trkpt>
      <trkpt lat="47.53723" lon="6.97715">
        <ele>376.39999389648</ele>
        <time>2023-08-03T12:52:23.000Z</time>
      </trkpt>
      <trkpt lat="47.53743" lon="6.97648">
        <ele>376.20001220703</ele>
        <time>2023-08-03T12:52:31.000Z</time>
      </trkpt>
      <trkpt lat="47.53758" lon="6.97597">
        <ele>375.20001220703</ele>
        <time>2023-08-03T12:52:37.000Z</time>
      </trkpt>
      <trkpt lat="47.53766" lon="6.9757">
        <ele>374.79998779297</ele>
        <time>2023-08-03T12:52:40.000Z</time>
      </trkpt>
      <trkpt lat="47.53786" lon="6.97494">
        <ele>374.39999389648</ele>
        <time>2023-08-03T12:52:48.000Z</time>
      </trkpt>
      <trkpt lat="47.53788" lon="6.97484">
        <ele>374.20001220703</ele>
        <time>2023-08-03T12:52:49.000Z</time>
      </trkpt>
      <trkpt lat="47.53802" lon="6.97422">
        <ele>373.20001220703</ele>
        <time>2023-08-03T12:52:55.000Z</time>
      </trkpt>
      <trkpt lat="47.53805" lon="6.97412">
        <ele>373</ele>
        <time>2023-08-03T12:52:56.000Z</time>
      </trkpt>
      <trkpt lat="47.53819" lon="6.97341">
        <ele>372</ele>
        <time>2023-08-03T12:53:03.000Z</time>
      </trkpt>
      <trkpt lat="47.53823" lon="6.97322">
        <ele>371.79998779297</ele>
        <time>2023-08-03T12:53:05.000Z</time>
      </trkpt>
      <trkpt lat="47.53837" lon="6.97258">
        <ele>371.20001220703</ele>
        <time>2023-08-03T12:53:12.000Z</time>
      </trkpt>
      <trkpt lat="47.53847" lon="6.97212">
        <ele>371</ele>
        <time>2023-08-03T12:53:17.000Z</time>
      </trkpt>
      <trkpt lat="47.53862" lon="6.9714">
        <ele>370.79998779297</ele>
        <time>2023-08-03T12:53:25.000Z</time>
      </trkpt>
      <trkpt lat="47.5388" lon="6.9706">
        <ele>370.39999389648</ele>
        <time>2023-08-03T12:53:34.000Z</time>
      </trkpt>
      <trkpt lat="47.53896" lon="6.9698">
        <ele>370</ele>
        <time>2023-08-03T12:53:43.000Z</time>
      </trkpt>
      <trkpt lat="47.53904" lon="6.96944">
        <ele>370</ele>
        <time>2023-08-03T12:53:47.000Z</time>
      </trkpt>
      <trkpt lat="47.53912" lon="6.96908">
        <ele>370</ele>
        <time>2023-08-03T12:53:51.000Z</time>
      </trkpt>
      <trkpt lat="47.53928" lon="6.96826">
        <ele>369.79998779297</ele>
        <time>2023-08-03T12:54:00.000Z</time>
      </trkpt>
      <trkpt lat="47.5393" lon="6.96817">
        <ele>369.79998779297</ele>
        <time>2023-08-03T12:54:01.000Z</time>
      </trkpt>
      <trkpt lat="47.53943" lon="6.96753">
        <ele>369</ele>
        <time>2023-08-03T12:54:08.000Z</time>
      </trkpt>
      <trkpt lat="47.53947" lon="6.96735">
        <ele>368.79998779297</ele>
        <time>2023-08-03T12:54:10.000Z</time>
      </trkpt>
      <trkpt lat="47.53964" lon="6.96652">
        <ele>368.20001220703</ele>
        <time>2023-08-03T12:54:19.000Z</time>
      </trkpt>
      <trkpt lat="47.5398" lon="6.96584">
        <ele>368</ele>
        <time>2023-08-03T12:54:27.000Z</time>
      </trkpt>
      <trkpt lat="47.53982" lon="6.96579">
        <ele>368</ele>
        <time>2023-08-03T12:54:28.000Z</time>
      </trkpt>
      <trkpt lat="47.53984" lon="6.96573">
        <ele>367.79998779297</ele>
        <time>2023-08-03T12:54:29.000Z</time>
      </trkpt>
      <trkpt lat="47.53986" lon="6.96568">
        <ele>367.79998779297</ele>
        <time>2023-08-03T12:54:30.000Z</time>
      </trkpt>
      <trkpt lat="47.53988" lon="6.96562">
        <ele>367.79998779297</ele>
        <time>2023-08-03T12:54:31.000Z</time>
      </trkpt>
      <trkpt lat="47.53989" lon="6.96555">
        <ele>367.79998779297</ele>
        <time>2023-08-03T12:54:32.000Z</time>
      </trkpt>
      <trkpt lat="47.53991" lon="6.9654">
        <ele>367.60000610352</ele>
        <time>2023-08-03T12:54:34.000Z</time>
      </trkpt>
      <trkpt lat="47.53995" lon="6.96525">
        <ele>367.60000610352</ele>
        <time>2023-08-03T12:54:36.000Z</time>
      </trkpt>
      <trkpt lat="47.5401" lon="6.96477">
        <ele>367.39999389648</ele>
        <time>2023-08-03T12:54:42.000Z</time>
      </trkpt>
      <trkpt lat="47.54035" lon="6.96404">
        <ele>367</ele>
        <time>2023-08-03T12:54:51.000Z</time>
      </trkpt>
      <trkpt lat="47.5406" lon="6.96329">
        <ele>366.79998779297</ele>
        <time>2023-08-03T12:55:00.000Z</time>
      </trkpt>
      <trkpt lat="47.54084" lon="6.96258">
        <ele>366.79998779297</ele>
        <time>2023-08-03T12:55:09.000Z</time>
      </trkpt>
      <trkpt lat="47.5409" lon="6.96242">
        <ele>366.79998779297</ele>
        <time>2023-08-03T12:55:11.000Z</time>
      </trkpt>
      <trkpt lat="47.54115" lon="6.96173">
        <ele>366.79998779297</ele>
        <time>2023-08-03T12:55:20.000Z</time>
      </trkpt>
      <trkpt lat="47.54141" lon="6.96104">
        <ele>366.39999389648</ele>
        <time>2023-08-03T12:55:29.000Z</time>
      </trkpt>
      <trkpt lat="47.54168" lon="6.96035">
        <ele>366.20001220703</ele>
        <time>2023-08-03T12:55:38.000Z</time>
      </trkpt>
      <trkpt lat="47.54177" lon="6.96012">
        <ele>366</ele>
        <time>2023-08-03T12:55:41.000Z</time>
      </trkpt>
      <trkpt lat="47.54183" lon="6.95997">
        <ele>366</ele>
        <time>2023-08-03T12:55:43.000Z</time>
      </trkpt>
      <trkpt lat="47.54211" lon="6.95921">
        <ele>366.20001220703</ele>
        <time>2023-08-03T12:55:53.000Z</time>
      </trkpt>
      <trkpt lat="47.54214" lon="6.95913">
        <ele>366.20001220703</ele>
        <time>2023-08-03T12:55:54.000Z</time>
      </trkpt>
      <trkpt lat="47.5424" lon="6.9585">
        <ele>366</ele>
        <time>2023-08-03T12:56:03.000Z</time>
      </trkpt>
      <trkpt lat="47.54244" lon="6.95844">
        <ele>366</ele>
        <time>2023-08-03T12:56:04.000Z</time>
      </trkpt>
      <trkpt lat="47.54256" lon="6.95828">
        <ele>366</ele>
        <time>2023-08-03T12:56:07.000Z</time>
      </trkpt>
      <trkpt lat="47.54262" lon="6.95813">
        <ele>366.20001220703</ele>
        <time>2023-08-03T12:56:09.000Z</time>
      </trkpt>
      <trkpt lat="47.54264" lon="6.95804">
        <ele>366.20001220703</ele>
        <time>2023-08-03T12:56:10.000Z</time>
      </trkpt>
      <trkpt lat="47.54265" lon="6.95786">
        <ele>366.20001220703</ele>
        <time>2023-08-03T12:56:12.000Z</time>
      </trkpt>
      <trkpt lat="47.5427" lon="6.9577">
        <ele>366.20001220703</ele>
        <time>2023-08-03T12:56:14.000Z</time>
      </trkpt>
      <trkpt lat="47.54294" lon="6.95706">
        <ele>365.60000610352</ele>
        <time>2023-08-03T12:56:22.000Z</time>
      </trkpt>
      <trkpt lat="47.54323" lon="6.95634">
        <ele>365.60000610352</ele>
        <time>2023-08-03T12:56:31.000Z</time>
      </trkpt>
      <trkpt lat="47.5435" lon="6.95561">
        <ele>365.20001220703</ele>
        <time>2023-08-03T12:56:40.000Z</time>
      </trkpt>
      <trkpt lat="47.54353" lon="6.95553">
        <ele>365</ele>
        <time>2023-08-03T12:56:41.000Z</time>
      </trkpt>
      <trkpt lat="47.54375" lon="6.95494">
        <ele>364.79998779297</ele>
        <time>2023-08-03T12:56:49.000Z</time>
      </trkpt>
      <trkpt lat="47.54399" lon="6.95433">
        <ele>364.39999389648</ele>
        <time>2023-08-03T12:56:57.000Z</time>
      </trkpt>
      <trkpt lat="47.54424" lon="6.95368">
        <ele>364.79998779297</ele>
        <time>2023-08-03T12:57:05.000Z</time>
      </trkpt>
      <trkpt lat="47.54453" lon="6.95292">
        <ele>364.60000610352</ele>
        <time>2023-08-03T12:57:14.000Z</time>
      </trkpt>
      <trkpt lat="47.54463" lon="6.95267">
        <ele>364.60000610352</ele>
        <time>2023-08-03T12:57:17.000Z</time>
      </trkpt>
      <trkpt lat="47.54491" lon="6.95193">
        <ele>365</ele>
        <time>2023-08-03T12:57:26.000Z</time>
      </trkpt>
      <trkpt lat="47.54494" lon="6.95185">
        <ele>365</ele>
        <time>2023-08-03T12:57:27.000Z</time>
      </trkpt>
      <trkpt lat="47.54522" lon="6.95116">
        <ele>365</ele>
        <time>2023-08-03T12:57:36.000Z</time>
      </trkpt>
      <trkpt lat="47.54528" lon="6.95101">
        <ele>365</ele>
        <time>2023-08-03T12:57:38.000Z</time>
      </trkpt>
      <trkpt lat="47.54556" lon="6.95027">
        <ele>364.79998779297</ele>
        <time>2023-08-03T12:57:47.000Z</time>
      </trkpt>
      <trkpt lat="47.54562" lon="6.95012">
        <ele>364.60000610352</ele>
        <time>2023-08-03T12:57:49.000Z</time>
      </trkpt>
      <trkpt lat="47.54575" lon="6.94978">
        <ele>364.20001220703</ele>
        <time>2023-08-03T12:57:53.000Z</time>
      </trkpt>
      <trkpt lat="47.54591" lon="6.94935">
        <ele>363.60000610352</ele>
        <time>2023-08-03T12:57:58.000Z</time>
      </trkpt>
      <trkpt lat="47.54604" lon="6.94902">
        <ele>363.20001220703</ele>
        <time>2023-08-03T12:58:02.000Z</time>
      </trkpt>
      <trkpt lat="47.54633" lon="6.94829">
        <ele>362.60000610352</ele>
        <time>2023-08-03T12:58:11.000Z</time>
      </trkpt>
      <trkpt lat="47.54639" lon="6.94813">
        <ele>362.60000610352</ele>
        <time>2023-08-03T12:58:13.000Z</time>
      </trkpt>
      <trkpt lat="47.54658" lon="6.94758">
        <ele>363</ele>
        <time>2023-08-03T12:58:20.000Z</time>
      </trkpt>
      <trkpt lat="47.54666" lon="6.94728">
        <ele>363.20001220703</ele>
        <time>2023-08-03T12:58:24.000Z</time>
      </trkpt>
      <trkpt lat="47.54668" lon="6.94722">
        <ele>363.39999389648</ele>
        <time>2023-08-03T12:58:25.000Z</time>
      </trkpt>
      <trkpt lat="47.54672" lon="6.94709">
        <ele>363.39999389648</ele>
        <time>2023-08-03T12:58:27.000Z</time>
      </trkpt>
      <trkpt lat="47.54678" lon="6.94677">
        <ele>363.60000610352</ele>
        <time>2023-08-03T12:58:31.000Z</time>
      </trkpt>
      <trkpt lat="47.5468" lon="6.9467">
        <ele>363.60000610352</ele>
        <time>2023-08-03T12:58:32.000Z</time>
      </trkpt>
      <trkpt lat="47.54686" lon="6.94658">
        <ele>363.39999389648</ele>
        <time>2023-08-03T12:58:34.000Z</time>
      </trkpt>
      <trkpt lat="47.5469" lon="6.94654">
        <ele>363.39999389648</ele>
        <time>2023-08-03T12:58:35.000Z</time>
      </trkpt>
      <trkpt lat="47.54698" lon="6.94645">
        <ele>363.20001220703</ele>
        <time>2023-08-03T12:58:37.000Z</time>
      </trkpt>
      <trkpt lat="47.54703" lon="6.94632">
        <ele>362.79998779297</ele>
        <time>2023-08-03T12:58:39.000Z</time>
      </trkpt>
      <trkpt lat="47.54703" lon="6.94615">
        <ele>362.60000610352</ele>
        <time>2023-08-03T12:58:41.000Z</time>
      </trkpt>
      <trkpt lat="47.54701" lon="6.94606">
        <ele>362.39999389648</ele>
        <time>2023-08-03T12:58:42.000Z</time>
      </trkpt>
      <trkpt lat="47.54698" lon="6.94589">
        <ele>362.39999389648</ele>
        <time>2023-08-03T12:58:44.000Z</time>
      </trkpt>
      <trkpt lat="47.547" lon="6.94571">
        <ele>362.39999389648</ele>
        <time>2023-08-03T12:58:46.000Z</time>
      </trkpt>
      <trkpt lat="47.54709" lon="6.94553">
        <ele>362.60000610352</ele>
        <time>2023-08-03T12:58:50.000Z</time>
      </trkpt>
      <trkpt lat="47.54709" lon="6.94553">
        <ele>362.60000610352</ele>
        <time>2023-08-03T12:58:51.000Z</time>
      </trkpt>
      <trkpt lat="47.5471" lon="6.94552">
        <ele>362.39999389648</ele>
        <time>2023-08-03T12:58:53.000Z</time>
      </trkpt>
      <trkpt lat="47.54711" lon="6.94552">
        <ele>362.39999389648</ele>
        <time>2023-08-03T12:58:54.000Z</time>
      </trkpt>
      <trkpt lat="47.54713" lon="6.94552">
        <ele>362</ele>
        <time>2023-08-03T12:58:55.000Z</time>
      </trkpt>
      <trkpt lat="47.54717" lon="6.94553">
        <ele>361.79998779297</ele>
        <time>2023-08-03T12:58:58.000Z</time>
      </trkpt>
      <trkpt lat="47.54723" lon="6.94552">
        <ele>363.60000610352</ele>
        <time>2023-08-03T12:59:03.000Z</time>
      </trkpt>
      <trkpt lat="47.54723" lon="6.94551">
        <ele>364.79998779297</ele>
        <time>2023-08-03T12:59:05.000Z</time>
      </trkpt>
      <trkpt lat="47.54723" lon="6.94551">
        <ele>365</ele>
        <time>2023-08-03T12:59:07.000Z</time>
      </trkpt>
      <trkpt lat="47.54724" lon="6.94545">
        <ele>365.20001220703</ele>
        <time>2023-08-03T12:59:11.000Z</time>
      </trkpt>
      <trkpt lat="47.54725" lon="6.94541">
        <ele>365.20001220703</ele>
        <time>2023-08-03T12:59:12.000Z</time>
      </trkpt>
      <trkpt lat="47.54733" lon="6.94517">
        <ele>365.20001220703</ele>
        <time>2023-08-03T12:59:16.000Z</time>
      </trkpt>
      <trkpt lat="47.54745" lon="6.94473">
        <ele>364.20001220703</ele>
        <time>2023-08-03T12:59:21.000Z</time>
      </trkpt>
      <trkpt lat="47.5475" lon="6.94455">
        <ele>363.39999389648</ele>
        <time>2023-08-03T12:59:23.000Z</time>
      </trkpt>
      <trkpt lat="47.54762" lon="6.94412">
        <ele>362.39999389648</ele>
        <time>2023-08-03T12:59:28.000Z</time>
      </trkpt>
      <trkpt lat="47.54772" lon="6.94377">
        <ele>361.79998779297</ele>
        <time>2023-08-03T12:59:32.000Z</time>
      </trkpt>
      <trkpt lat="47.54785" lon="6.94335">
        <ele>361.39999389648</ele>
        <time>2023-08-03T12:59:37.000Z</time>
      </trkpt>
      <trkpt lat="47.54796" lon="6.94294">
        <ele>361.39999389648</ele>
        <time>2023-08-03T12:59:42.000Z</time>
      </trkpt>
      <trkpt lat="47.54815" lon="6.94221">
        <ele>361.20001220703</ele>
        <time>2023-08-03T12:59:51.000Z</time>
      </trkpt>
      <trkpt lat="47.54828" lon="6.94144">
        <ele>361.39999389648</ele>
        <time>2023-08-03T13:00:00.000Z</time>
      </trkpt>
      <trkpt lat="47.54831" lon="6.94128">
        <ele>361.60000610352</ele>
        <time>2023-08-03T13:00:02.000Z</time>
      </trkpt>
      <trkpt lat="47.54844" lon="6.94068">
        <ele>360.79998779297</ele>
        <time>2023-08-03T13:00:09.000Z</time>
      </trkpt>
      <trkpt lat="47.54856" lon="6.94019">
        <ele>360.60000610352</ele>
        <time>2023-08-03T13:00:15.000Z</time>
      </trkpt>
      <trkpt lat="47.54858" lon="6.94005">
        <ele>360.39999389648</ele>
        <time>2023-08-03T13:00:17.000Z</time>
      </trkpt>
      <trkpt lat="47.54862" lon="6.93987">
        <ele>360.20001220703</ele>
        <time>2023-08-03T13:00:21.000Z</time>
      </trkpt>
      <trkpt lat="47.54865" lon="6.93965">
        <ele>360</ele>
        <time>2023-08-03T13:00:28.000Z</time>
      </trkpt>
      <trkpt lat="47.54864" lon="6.93968">
        <ele>360</ele>
        <time>2023-08-03T13:00:31.000Z</time>
      </trkpt>
      <trkpt lat="47.54862" lon="6.93986">
        <ele>359.79998779297</ele>
        <time>2023-08-03T13:00:37.000Z</time>
      </trkpt>
      <trkpt lat="47.54855" lon="6.94019">
        <ele>359.39999389648</ele>
        <time>2023-08-03T13:00:43.000Z</time>
      </trkpt>
      <trkpt lat="47.54849" lon="6.9405">
        <ele>359.20001220703</ele>
        <time>2023-08-03T13:00:47.000Z</time>
      </trkpt>
      <trkpt lat="47.54843" lon="6.94074">
        <ele>359.20001220703</ele>
        <time>2023-08-03T13:00:50.000Z</time>
      </trkpt>
      <trkpt lat="47.54828" lon="6.94148">
        <ele>359.60000610352</ele>
        <time>2023-08-03T13:00:59.000Z</time>
      </trkpt>
      <trkpt lat="47.54819" lon="6.94208">
        <ele>359.79998779297</ele>
        <time>2023-08-03T13:01:07.000Z</time>
      </trkpt>
      <trkpt lat="47.54815" lon="6.94228">
        <ele>360</ele>
        <time>2023-08-03T13:01:10.000Z</time>
      </trkpt>
      <trkpt lat="47.54816" lon="6.94236">
        <ele>360</ele>
        <time>2023-08-03T13:01:12.000Z</time>
      </trkpt>
      <trkpt lat="47.54823" lon="6.9424">
        <ele>360</ele>
        <time>2023-08-03T13:01:16.000Z</time>
      </trkpt>
      <trkpt lat="47.54823" lon="6.9424">
        <ele>360.20001220703</ele>
        <time>2023-08-03T13:01:18.000Z</time>
      </trkpt>
      <trkpt lat="47.54836" lon="6.94246">
        <ele>360.60000610352</ele>
        <time>2023-08-03T13:01:45.000Z</time>
      </trkpt>
      <trkpt lat="47.54839" lon="6.94246">
        <ele>360.60000610352</ele>
        <time>2023-08-03T13:01:46.000Z</time>
      </trkpt>
      <trkpt lat="47.54844" lon="6.94236">
        <ele>360.60000610352</ele>
        <time>2023-08-03T13:01:49.000Z</time>
      </trkpt>
      <trkpt lat="47.54847" lon="6.94207">
        <ele>360.60000610352</ele>
        <time>2023-08-03T13:01:54.000Z</time>
      </trkpt>
      <trkpt lat="47.54856" lon="6.94161">
        <ele>361</ele>
        <time>2023-08-03T13:02:01.000Z</time>
      </trkpt>
      <trkpt lat="47.54869" lon="6.94114">
        <ele>361.60000610352</ele>
        <time>2023-08-03T13:02:09.000Z</time>
      </trkpt>
      <trkpt lat="47.54874" lon="6.94102">
        <ele>361.79998779297</ele>
        <time>2023-08-03T13:02:11.000Z</time>
      </trkpt>
      <trkpt lat="47.54882" lon="6.94084">
        <ele>362.20001220703</ele>
        <time>2023-08-03T13:02:15.000Z</time>
      </trkpt>
      <trkpt lat="47.5489" lon="6.94066">
        <ele>362.79998779297</ele>
        <time>2023-08-03T13:02:19.000Z</time>
      </trkpt>
      <trkpt lat="47.54896" lon="6.94049">
        <ele>363.60000610352</ele>
        <time>2023-08-03T13:02:23.000Z</time>
      </trkpt>
      <trkpt lat="47.54899" lon="6.94042">
        <ele>364</ele>
        <time>2023-08-03T13:02:25.000Z</time>
      </trkpt>
      <trkpt lat="47.54905" lon="6.94026">
        <ele>365</ele>
        <time>2023-08-03T13:02:29.000Z</time>
      </trkpt>
      <trkpt lat="47.54909" lon="6.94019">
        <ele>365.39999389648</ele>
        <time>2023-08-03T13:02:31.000Z</time>
      </trkpt>
      <trkpt lat="47.54917" lon="6.94004">
        <ele>366.20001220703</ele>
        <time>2023-08-03T13:02:35.000Z</time>
      </trkpt>
      <trkpt lat="47.54929" lon="6.93982">
        <ele>367.20001220703</ele>
        <time>2023-08-03T13:02:41.000Z</time>
      </trkpt>
      <trkpt lat="47.5494" lon="6.9396">
        <ele>368.60000610352</ele>
        <time>2023-08-03T13:02:47.000Z</time>
      </trkpt>
      <trkpt lat="47.54952" lon="6.93936">
        <ele>369.20001220703</ele>
        <time>2023-08-03T13:02:53.000Z</time>
      </trkpt>
      <trkpt lat="47.54957" lon="6.93928">
        <ele>369.60000610352</ele>
        <time>2023-08-03T13:02:55.000Z</time>
      </trkpt>
      <trkpt lat="47.54971" lon="6.93905">
        <ele>370.79998779297</ele>
        <time>2023-08-03T13:03:01.000Z</time>
      </trkpt>
      <trkpt lat="47.54974" lon="6.93901">
        <ele>370.79998779297</ele>
        <time>2023-08-03T13:03:02.000Z</time>
      </trkpt>
      <trkpt lat="47.54992" lon="6.93875">
        <ele>371</ele>
        <time>2023-08-03T13:03:08.000Z</time>
      </trkpt>
      <trkpt lat="47.55021" lon="6.93832">
        <ele>371</ele>
        <time>2023-08-03T13:03:18.000Z</time>
      </trkpt>
      <trkpt lat="47.55023" lon="6.93828">
        <ele>371</ele>
        <time>2023-08-03T13:03:19.000Z</time>
      </trkpt>
      <trkpt lat="47.55047" lon="6.93791">
        <ele>371.79998779297</ele>
        <time>2023-08-03T13:03:28.000Z</time>
      </trkpt>
      <trkpt lat="47.55054" lon="6.93778">
        <ele>372</ele>
        <time>2023-08-03T13:03:31.000Z</time>
      </trkpt>
      <trkpt lat="47.55063" lon="6.93767">
        <ele>372.79998779297</ele>
        <time>2023-08-03T13:03:34.000Z</time>
      </trkpt>
      <trkpt lat="47.55076" lon="6.93748">
        <ele>373.20001220703</ele>
        <time>2023-08-03T13:03:39.000Z</time>
      </trkpt>
      <trkpt lat="47.55079" lon="6.93744">
        <ele>373.20001220703</ele>
        <time>2023-08-03T13:03:40.000Z</time>
      </trkpt>
      <trkpt lat="47.55101" lon="6.93712">
        <ele>374.20001220703</ele>
        <time>2023-08-03T13:03:48.000Z</time>
      </trkpt>
      <trkpt lat="47.55112" lon="6.93693">
        <ele>375.20001220703</ele>
        <time>2023-08-03T13:03:53.000Z</time>
      </trkpt>
      <trkpt lat="47.55127" lon="6.93671">
        <ele>375.79998779297</ele>
        <time>2023-08-03T13:03:59.000Z</time>
      </trkpt>
      <trkpt lat="47.55147" lon="6.93644">
        <ele>376.20001220703</ele>
        <time>2023-08-03T13:04:06.000Z</time>
      </trkpt>
      <trkpt lat="47.55153" lon="6.9364">
        <ele>376.39999389648</ele>
        <time>2023-08-03T13:04:08.000Z</time>
      </trkpt>
      <trkpt lat="47.55167" lon="6.93643">
        <ele>377</ele>
        <time>2023-08-03T13:04:12.000Z</time>
      </trkpt>
      <trkpt lat="47.55171" lon="6.93645">
        <ele>377.39999389648</ele>
        <time>2023-08-03T13:04:13.000Z</time>
      </trkpt>
      <trkpt lat="47.55192" lon="6.93656">
        <ele>378.39999389648</ele>
        <time>2023-08-03T13:04:19.000Z</time>
      </trkpt>
      <trkpt lat="47.55199" lon="6.9366">
        <ele>378.60000610352</ele>
        <time>2023-08-03T13:04:21.000Z</time>
      </trkpt>
      <trkpt lat="47.5522" lon="6.9367">
        <ele>379.20001220703</ele>
        <time>2023-08-03T13:04:27.000Z</time>
      </trkpt>
      <trkpt lat="47.55226" lon="6.93673">
        <ele>379.60000610352</ele>
        <time>2023-08-03T13:04:29.000Z</time>
      </trkpt>
      <trkpt lat="47.55244" lon="6.93682">
        <ele>380.79998779297</ele>
        <time>2023-08-03T13:04:34.000Z</time>
      </trkpt>
      <trkpt lat="47.55252" lon="6.93685">
        <ele>381</ele>
        <time>2023-08-03T13:04:36.000Z</time>
      </trkpt>
      <trkpt lat="47.55277" lon="6.93695">
        <ele>381.79998779297</ele>
        <time>2023-08-03T13:04:43.000Z</time>
      </trkpt>
      <trkpt lat="47.55288" lon="6.93699">
        <ele>382</ele>
        <time>2023-08-03T13:04:46.000Z</time>
      </trkpt>
      <trkpt lat="47.55322" lon="6.93714">
        <ele>382.20001220703</ele>
        <time>2023-08-03T13:04:53.000Z</time>
      </trkpt>
      <trkpt lat="47.55352" lon="6.93729">
        <ele>381.39999389648</ele>
        <time>2023-08-03T13:04:58.000Z</time>
      </trkpt>
      <trkpt lat="47.55359" lon="6.93735">
        <ele>381.39999389648</ele>
        <time>2023-08-03T13:04:59.000Z</time>
      </trkpt>
      <trkpt lat="47.55379" lon="6.93756">
        <ele>381</ele>
        <time>2023-08-03T13:05:02.000Z</time>
      </trkpt>
      <trkpt lat="47.55388" lon="6.93771">
        <ele>380.20001220703</ele>
        <time>2023-08-03T13:05:04.000Z</time>
      </trkpt>
      <trkpt lat="47.55405" lon="6.93798">
        <ele>379.20001220703</ele>
        <time>2023-08-03T13:05:07.000Z</time>
      </trkpt>
      <trkpt lat="47.55422" lon="6.93825">
        <ele>378</ele>
        <time>2023-08-03T13:05:10.000Z</time>
      </trkpt>
      <trkpt lat="47.55434" lon="6.93834">
        <ele>377</ele>
        <time>2023-08-03T13:05:12.000Z</time>
      </trkpt>
      <trkpt lat="47.5544" lon="6.93836">
        <ele>376.79998779297</ele>
        <time>2023-08-03T13:05:13.000Z</time>
      </trkpt>
      <trkpt lat="47.55453" lon="6.93839">
        <ele>376.20001220703</ele>
        <time>2023-08-03T13:05:15.000Z</time>
      </trkpt>
      <trkpt lat="47.55465" lon="6.93845">
        <ele>375.60000610352</ele>
        <time>2023-08-03T13:05:17.000Z</time>
      </trkpt>
      <trkpt lat="47.55501" lon="6.93876">
        <ele>375</ele>
        <time>2023-08-03T13:05:23.000Z</time>
      </trkpt>
      <trkpt lat="47.55539" lon="6.93905">
        <ele>374.79998779297</ele>
        <time>2023-08-03T13:05:29.000Z</time>
      </trkpt>
      <trkpt lat="47.5556" lon="6.93915">
        <ele>374.60000610352</ele>
        <time>2023-08-03T13:05:32.000Z</time>
      </trkpt>
      <trkpt lat="47.55583" lon="6.93927">
        <ele>374</ele>
        <time>2023-08-03T13:05:35.000Z</time>
      </trkpt>
      <trkpt lat="47.55598" lon="6.93934">
        <ele>373.39999389648</ele>
        <time>2023-08-03T13:05:37.000Z</time>
      </trkpt>
      <trkpt lat="47.55629" lon="6.93946">
        <ele>372.39999389648</ele>
        <time>2023-08-03T13:05:41.000Z</time>
      </trkpt>
      <trkpt lat="47.55644" lon="6.93952">
        <ele>371.79998779297</ele>
        <time>2023-08-03T13:05:43.000Z</time>
      </trkpt>
      <trkpt lat="47.55668" lon="6.93962">
        <ele>371.20001220703</ele>
        <time>2023-08-03T13:05:46.000Z</time>
      </trkpt>
      <trkpt lat="47.55705" lon="6.93976">
        <ele>370.39999389648</ele>
        <time>2023-08-03T13:05:51.000Z</time>
      </trkpt>
      <trkpt lat="47.55713" lon="6.9398">
        <ele>370.20001220703</ele>
        <time>2023-08-03T13:05:52.000Z</time>
      </trkpt>
      <trkpt lat="47.55742" lon="6.93995">
        <ele>369</ele>
        <time>2023-08-03T13:05:56.000Z</time>
      </trkpt>
      <trkpt lat="47.55758" lon="6.94008">
        <ele>368.79998779297</ele>
        <time>2023-08-03T13:05:58.000Z</time>
      </trkpt>
      <trkpt lat="47.55777" lon="6.94032">
        <ele>367.79998779297</ele>
        <time>2023-08-03T13:06:01.000Z</time>
      </trkpt>
      <trkpt lat="47.55796" lon="6.94054">
        <ele>366.79998779297</ele>
        <time>2023-08-03T13:06:04.000Z</time>
      </trkpt>
      <trkpt lat="47.55802" lon="6.94062">
        <ele>366.60000610352</ele>
        <time>2023-08-03T13:06:05.000Z</time>
      </trkpt>
      <trkpt lat="47.55825" lon="6.94091">
        <ele>366.20001220703</ele>
        <time>2023-08-03T13:06:09.000Z</time>
      </trkpt>
      <trkpt lat="47.55842" lon="6.94109">
        <ele>365.79998779297</ele>
        <time>2023-08-03T13:06:12.000Z</time>
      </trkpt>
      <trkpt lat="47.55855" lon="6.94115">
        <ele>365.79998779297</ele>
        <time>2023-08-03T13:06:14.000Z</time>
      </trkpt>
      <trkpt lat="47.55862" lon="6.94116">
        <ele>365.79998779297</ele>
        <time>2023-08-03T13:06:15.000Z</time>
      </trkpt>
      <trkpt lat="47.55905" lon="6.94118">
        <ele>366.79998779297</ele>
        <time>2023-08-03T13:06:22.000Z</time>
      </trkpt>
      <trkpt lat="47.55925" lon="6.94119">
        <ele>367.79998779297</ele>
        <time>2023-08-03T13:06:26.000Z</time>
      </trkpt>
      <trkpt lat="47.5593" lon="6.94119">
        <ele>368.20001220703</ele>
        <time>2023-08-03T13:06:27.000Z</time>
      </trkpt>
      <trkpt lat="47.55935" lon="6.94119">
        <ele>368.60000610352</ele>
        <time>2023-08-03T13:06:28.000Z</time>
      </trkpt>
      <trkpt lat="47.55964" lon="6.94117">
        <ele>369.39999389648</ele>
        <time>2023-08-03T13:06:34.000Z</time>
      </trkpt>
      <trkpt lat="47.55968" lon="6.94117">
        <ele>369.60000610352</ele>
        <time>2023-08-03T13:06:35.000Z</time>
      </trkpt>
      <trkpt lat="47.55973" lon="6.94117">
        <ele>369.79998779297</ele>
        <time>2023-08-03T13:06:36.000Z</time>
      </trkpt>
      <trkpt lat="47.55985" lon="6.94119">
        <ele>370.60000610352</ele>
        <time>2023-08-03T13:06:39.000Z</time>
      </trkpt>
      <trkpt lat="47.55989" lon="6.94119">
        <ele>370.79998779297</ele>
        <time>2023-08-03T13:06:40.000Z</time>
      </trkpt>
      <trkpt lat="47.56002" lon="6.94119">
        <ele>371.20001220703</ele>
        <time>2023-08-03T13:06:43.000Z</time>
      </trkpt>
      <trkpt lat="47.56013" lon="6.94119">
        <ele>371.60000610352</ele>
        <time>2023-08-03T13:06:46.000Z</time>
      </trkpt>
      <trkpt lat="47.56035" lon="6.9412">
        <ele>372</ele>
        <time>2023-08-03T13:06:51.000Z</time>
      </trkpt>
      <trkpt lat="47.56073" lon="6.94121">
        <ele>373</ele>
        <time>2023-08-03T13:07:00.000Z</time>
      </trkpt>
      <trkpt lat="47.56078" lon="6.94122">
        <ele>373.39999389648</ele>
        <time>2023-08-03T13:07:01.000Z</time>
      </trkpt>
      <trkpt lat="47.56082" lon="6.94122">
        <ele>374</ele>
        <time>2023-08-03T13:07:02.000Z</time>
      </trkpt>
      <trkpt lat="47.56117" lon="6.94128">
        <ele>374.60000610352</ele>
        <time>2023-08-03T13:07:09.000Z</time>
      </trkpt>
      <trkpt lat="47.5614" lon="6.94138">
        <ele>374</ele>
        <time>2023-08-03T13:07:13.000Z</time>
      </trkpt>
      <trkpt lat="47.56152" lon="6.94146">
        <ele>373.60000610352</ele>
        <time>2023-08-03T13:07:15.000Z</time>
      </trkpt>
      <trkpt lat="47.56186" lon="6.9417">
        <ele>372.60000610352</ele>
        <time>2023-08-03T13:07:20.000Z</time>
      </trkpt>
      <trkpt lat="47.56193" lon="6.94175">
        <ele>372.20001220703</ele>
        <time>2023-08-03T13:07:21.000Z</time>
      </trkpt>
      <trkpt lat="47.56208" lon="6.94186">
        <ele>371.20001220703</ele>
        <time>2023-08-03T13:07:23.000Z</time>
      </trkpt>
      <trkpt lat="47.56239" lon="6.94204">
        <ele>370.20001220703</ele>
        <time>2023-08-03T13:07:27.000Z</time>
      </trkpt>
      <trkpt lat="47.56247" lon="6.94208">
        <ele>370</ele>
        <time>2023-08-03T13:07:28.000Z</time>
      </trkpt>
      <trkpt lat="47.5628" lon="6.94224">
        <ele>368.79998779297</ele>
        <time>2023-08-03T13:07:32.000Z</time>
      </trkpt>
      <trkpt lat="47.56287" lon="6.94226">
        <ele>368.79998779297</ele>
        <time>2023-08-03T13:07:33.000Z</time>
      </trkpt>
      <trkpt lat="47.56325" lon="6.94236">
        <ele>368.20001220703</ele>
        <time>2023-08-03T13:07:38.000Z</time>
      </trkpt>
      <trkpt lat="47.56348" lon="6.94242">
        <ele>367.79998779297</ele>
        <time>2023-08-03T13:07:41.000Z</time>
      </trkpt>
      <trkpt lat="47.56371" lon="6.94254">
        <ele>366.79998779297</ele>
        <time>2023-08-03T13:07:44.000Z</time>
      </trkpt>
      <trkpt lat="47.56408" lon="6.94288">
        <ele>366</ele>
        <time>2023-08-03T13:07:49.000Z</time>
      </trkpt>
      <trkpt lat="47.56422" lon="6.94306">
        <ele>365.39999389648</ele>
        <time>2023-08-03T13:07:51.000Z</time>
      </trkpt>
      <trkpt lat="47.56442" lon="6.94339">
        <ele>365</ele>
        <time>2023-08-03T13:07:54.000Z</time>
      </trkpt>
      <trkpt lat="47.56449" lon="6.9435">
        <ele>364</ele>
        <time>2023-08-03T13:07:55.000Z</time>
      </trkpt>
      <trkpt lat="47.56466" lon="6.9438">
        <ele>362.39999389648</ele>
        <time>2023-08-03T13:07:58.000Z</time>
      </trkpt>
      <trkpt lat="47.56473" lon="6.94388">
        <ele>362</ele>
        <time>2023-08-03T13:07:59.000Z</time>
      </trkpt>
      <trkpt lat="47.5648" lon="6.94394">
        <ele>361.20001220703</ele>
        <time>2023-08-03T13:08:00.000Z</time>
      </trkpt>
      <trkpt lat="47.56497" lon="6.94403">
        <ele>359.79998779297</ele>
        <time>2023-08-03T13:08:02.000Z</time>
      </trkpt>
      <trkpt lat="47.56513" lon="6.94409">
        <ele>358.79998779297</ele>
        <time>2023-08-03T13:08:04.000Z</time>
      </trkpt>
      <trkpt lat="47.56535" lon="6.94416">
        <ele>357.60000610352</ele>
        <time>2023-08-03T13:08:07.000Z</time>
      </trkpt>
      <trkpt lat="47.56547" lon="6.94419">
        <ele>357</ele>
        <time>2023-08-03T13:08:09.000Z</time>
      </trkpt>
      <trkpt lat="47.56551" lon="6.94422">
        <ele>356.60000610352</ele>
        <time>2023-08-03T13:08:10.000Z</time>
      </trkpt>
      <trkpt lat="47.56556" lon="6.94428">
        <ele>356.39999389648</ele>
        <time>2023-08-03T13:08:11.000Z</time>
      </trkpt>
      <trkpt lat="47.56561" lon="6.94438">
        <ele>356.20001220703</ele>
        <time>2023-08-03T13:08:13.000Z</time>
      </trkpt>
      <trkpt lat="47.56565" lon="6.94443">
        <ele>356</ele>
        <time>2023-08-03T13:08:14.000Z</time>
      </trkpt>
      <trkpt lat="47.56569" lon="6.94445">
        <ele>356</ele>
        <time>2023-08-03T13:08:15.000Z</time>
      </trkpt>
      <trkpt lat="47.56577" lon="6.94439">
        <ele>355.79998779297</ele>
        <time>2023-08-03T13:08:17.000Z</time>
      </trkpt>
      <trkpt lat="47.56596" lon="6.9441">
        <ele>355.79998779297</ele>
        <time>2023-08-03T13:08:23.000Z</time>
      </trkpt>
      <trkpt lat="47.56599" lon="6.94405">
        <ele>355.79998779297</ele>
        <time>2023-08-03T13:08:24.000Z</time>
      </trkpt>
      <trkpt lat="47.56609" lon="6.94389">
        <ele>356.79998779297</ele>
        <time>2023-08-03T13:08:28.000Z</time>
      </trkpt>
      <trkpt lat="47.56622" lon="6.9437">
        <ele>357.60000610352</ele>
        <time>2023-08-03T13:08:33.000Z</time>
      </trkpt>
      <trkpt lat="47.56642" lon="6.94344">
        <ele>357.79998779297</ele>
        <time>2023-08-03T13:08:39.000Z</time>
      </trkpt>
      <trkpt lat="47.56646" lon="6.9434">
        <ele>357.79998779297</ele>
        <time>2023-08-03T13:08:40.000Z</time>
      </trkpt>
      <trkpt lat="47.56655" lon="6.94333">
        <ele>357.60000610352</ele>
        <time>2023-08-03T13:08:42.000Z</time>
      </trkpt>
      <trkpt lat="47.5666" lon="6.94332">
        <ele>357.60000610352</ele>
        <time>2023-08-03T13:08:43.000Z</time>
      </trkpt>
      <trkpt lat="47.56666" lon="6.94331">
        <ele>357.60000610352</ele>
        <time>2023-08-03T13:08:44.000Z</time>
      </trkpt>
      <trkpt lat="47.56685" lon="6.94333">
        <ele>357.20001220703</ele>
        <time>2023-08-03T13:08:47.000Z</time>
      </trkpt>
      <trkpt lat="47.56711" lon="6.94333">
        <ele>356.60000610352</ele>
        <time>2023-08-03T13:08:51.000Z</time>
      </trkpt>
      <trkpt lat="47.56717" lon="6.94333">
        <ele>356.39999389648</ele>
        <time>2023-08-03T13:08:52.000Z</time>
      </trkpt>
      <trkpt lat="47.5675" lon="6.94328">
        <ele>355.79998779297</ele>
        <time>2023-08-03T13:08:57.000Z</time>
      </trkpt>
      <trkpt lat="47.56762" lon="6.94324">
        <ele>355.39999389648</ele>
        <time>2023-08-03T13:08:59.000Z</time>
      </trkpt>
      <trkpt lat="47.56775" lon="6.9432">
        <ele>355.39999389648</ele>
        <time>2023-08-03T13:09:01.000Z</time>
      </trkpt>
      <trkpt lat="47.5681" lon="6.943">
        <ele>355.39999389648</ele>
        <time>2023-08-03T13:09:07.000Z</time>
      </trkpt>
      <trkpt lat="47.56852" lon="6.94263">
        <ele>355.20001220703</ele>
        <time>2023-08-03T13:09:15.000Z</time>
      </trkpt>
      <trkpt lat="47.56887" lon="6.94233">
        <ele>355</ele>
        <time>2023-08-03T13:09:22.000Z</time>
      </trkpt>
      <trkpt lat="47.56909" lon="6.94214">
        <ele>354.60000610352</ele>
        <time>2023-08-03T13:09:26.000Z</time>
      </trkpt>
      <trkpt lat="47.5695" lon="6.9418">
        <ele>354.39999389648</ele>
        <time>2023-08-03T13:09:34.000Z</time>
      </trkpt>
      <trkpt lat="47.57002" lon="6.94142">
        <ele>354.39999389648</ele>
        <time>2023-08-03T13:09:44.000Z</time>
      </trkpt>
      <trkpt lat="47.57028" lon="6.94128">
        <ele>354.39999389648</ele>
        <time>2023-08-03T13:09:49.000Z</time>
      </trkpt>
      <trkpt lat="47.57038" lon="6.94124">
        <ele>354.60000610352</ele>
        <time>2023-08-03T13:09:51.000Z</time>
      </trkpt>
      <trkpt lat="47.57088" lon="6.94106">
        <ele>355.79998779297</ele>
        <time>2023-08-03T13:10:00.000Z</time>
      </trkpt>
      <trkpt lat="47.571" lon="6.94102">
        <ele>356</ele>
        <time>2023-08-03T13:10:02.000Z</time>
      </trkpt>
      <trkpt lat="47.57147" lon="6.94086">
        <ele>355.39999389648</ele>
        <time>2023-08-03T13:10:10.000Z</time>
      </trkpt>
      <trkpt lat="47.57164" lon="6.94079">
        <ele>355.20001220703</ele>
        <time>2023-08-03T13:10:13.000Z</time>
      </trkpt>
      <trkpt lat="47.57174" lon="6.94069">
        <ele>355.20001220703</ele>
        <time>2023-08-03T13:10:15.000Z</time>
      </trkpt>
      <trkpt lat="47.57181" lon="6.94056">
        <ele>355.20001220703</ele>
        <time>2023-08-03T13:10:17.000Z</time>
      </trkpt>
      <trkpt lat="47.57185" lon="6.94042">
        <ele>355.20001220703</ele>
        <time>2023-08-03T13:10:19.000Z</time>
      </trkpt>
      <trkpt lat="47.57202" lon="6.93988">
        <ele>355.79998779297</ele>
        <time>2023-08-03T13:10:26.000Z</time>
      </trkpt>
      <trkpt lat="47.57231" lon="6.93925">
        <ele>355.60000610352</ele>
        <time>2023-08-03T13:10:35.000Z</time>
      </trkpt>
      <trkpt lat="47.57258" lon="6.93897">
        <ele>355.39999389648</ele>
        <time>2023-08-03T13:10:41.000Z</time>
      </trkpt>
      <trkpt lat="47.57268" lon="6.93894">
        <ele>355.20001220703</ele>
        <time>2023-08-03T13:10:43.000Z</time>
      </trkpt>
      <trkpt lat="47.57278" lon="6.93893">
        <ele>355.20001220703</ele>
        <time>2023-08-03T13:10:45.000Z</time>
      </trkpt>
      <trkpt lat="47.57298" lon="6.93892">
        <ele>355.20001220703</ele>
        <time>2023-08-03T13:10:49.000Z</time>
      </trkpt>
      <trkpt lat="47.57308" lon="6.93889">
        <ele>355.39999389648</ele>
        <time>2023-08-03T13:10:51.000Z</time>
      </trkpt>
      <trkpt lat="47.57342" lon="6.93877">
        <ele>356.79998779297</ele>
        <time>2023-08-03T13:10:58.000Z</time>
      </trkpt>
      <trkpt lat="47.57351" lon="6.93874">
        <ele>357.20001220703</ele>
        <time>2023-08-03T13:11:00.000Z</time>
      </trkpt>
      <trkpt lat="47.5737" lon="6.93867">
        <ele>358</ele>
        <time>2023-08-03T13:11:04.000Z</time>
      </trkpt>
      <trkpt lat="47.57399" lon="6.93855">
        <ele>359</ele>
        <time>2023-08-03T13:11:10.000Z</time>
      </trkpt>
      <trkpt lat="47.57409" lon="6.93851">
        <ele>359.20001220703</ele>
        <time>2023-08-03T13:11:12.000Z</time>
      </trkpt>
      <trkpt lat="47.57445" lon="6.93833">
        <ele>359.20001220703</ele>
        <time>2023-08-03T13:11:19.000Z</time>
      </trkpt>
      <trkpt lat="47.57495" lon="6.93807">
        <ele>359.79998779297</ele>
        <time>2023-08-03T13:11:29.000Z</time>
      </trkpt>
      <trkpt lat="47.57503" lon="6.93803">
        <ele>360</ele>
        <time>2023-08-03T13:11:31.000Z</time>
      </trkpt>
      <trkpt lat="47.57514" lon="6.938">
        <ele>360.39999389648</ele>
        <time>2023-08-03T13:11:34.000Z</time>
      </trkpt>
      <trkpt lat="47.57537" lon="6.93789">
        <ele>361.60000610352</ele>
        <time>2023-08-03T13:11:41.000Z</time>
      </trkpt>
      <trkpt lat="47.57542" lon="6.93786">
        <ele>361.60000610352</ele>
        <time>2023-08-03T13:11:42.000Z</time>
      </trkpt>
      <trkpt lat="47.57554" lon="6.93776">
        <ele>362.39999389648</ele>
        <time>2023-08-03T13:11:45.000Z</time>
      </trkpt>
      <trkpt lat="47.57559" lon="6.93771">
        <ele>362.60000610352</ele>
        <time>2023-08-03T13:11:46.000Z</time>
      </trkpt>
      <trkpt lat="47.57588" lon="6.93739">
        <ele>363.20001220703</ele>
        <time>2023-08-03T13:11:53.000Z</time>
      </trkpt>
      <trkpt lat="47.57605" lon="6.93719">
        <ele>363.39999389648</ele>
        <time>2023-08-03T13:11:57.000Z</time>
      </trkpt>
      <trkpt lat="47.57626" lon="6.93698">
        <ele>363.60000610352</ele>
        <time>2023-08-03T13:12:02.000Z</time>
      </trkpt>
      <trkpt lat="47.57653" lon="6.93679">
        <ele>364</ele>
        <time>2023-08-03T13:12:08.000Z</time>
      </trkpt>
      <trkpt lat="47.57657" lon="6.93678">
        <ele>364.20001220703</ele>
        <time>2023-08-03T13:12:09.000Z</time>
      </trkpt>
      <trkpt lat="47.57672" lon="6.93674">
        <ele>364.60000610352</ele>
        <time>2023-08-03T13:12:12.000Z</time>
      </trkpt>
      <trkpt lat="47.57697" lon="6.93672">
        <ele>365.60000610352</ele>
        <time>2023-08-03T13:12:17.000Z</time>
      </trkpt>
      <trkpt lat="47.57702" lon="6.93672">
        <ele>365.79998779297</ele>
        <time>2023-08-03T13:12:18.000Z</time>
      </trkpt>
      <trkpt lat="47.57742" lon="6.93675">
        <ele>366.39999389648</ele>
        <time>2023-08-03T13:12:26.000Z</time>
      </trkpt>
      <trkpt lat="47.57747" lon="6.93676">
        <ele>366.60000610352</ele>
        <time>2023-08-03T13:12:27.000Z</time>
      </trkpt>
      <trkpt lat="47.57777" lon="6.93682">
        <ele>367.79998779297</ele>
        <time>2023-08-03T13:12:33.000Z</time>
      </trkpt>
      <trkpt lat="47.57788" lon="6.93688">
        <ele>368</ele>
        <time>2023-08-03T13:12:35.000Z</time>
      </trkpt>
      <trkpt lat="47.57821" lon="6.93713">
        <ele>368.20001220703</ele>
        <time>2023-08-03T13:12:42.000Z</time>
      </trkpt>
      <trkpt lat="47.5784" lon="6.93728">
        <ele>368.39999389648</ele>
        <time>2023-08-03T13:12:46.000Z</time>
      </trkpt>
      <trkpt lat="47.5785" lon="6.9373">
        <ele>368.60000610352</ele>
        <time>2023-08-03T13:12:48.000Z</time>
      </trkpt>
      <trkpt lat="47.57856" lon="6.93729">
        <ele>368.79998779297</ele>
        <time>2023-08-03T13:12:49.000Z</time>
      </trkpt>
      <trkpt lat="47.57861" lon="6.93726">
        <ele>369</ele>
        <time>2023-08-03T13:12:50.000Z</time>
      </trkpt>
      <trkpt lat="47.57866" lon="6.93722">
        <ele>369.20001220703</ele>
        <time>2023-08-03T13:12:51.000Z</time>
      </trkpt>
      <trkpt lat="47.57892" lon="6.93687">
        <ele>369.60000610352</ele>
        <time>2023-08-03T13:12:57.000Z</time>
      </trkpt>
      <trkpt lat="47.57906" lon="6.93667">
        <ele>369.79998779297</ele>
        <time>2023-08-03T13:13:00.000Z</time>
      </trkpt>
      <trkpt lat="47.57928" lon="6.93635">
        <ele>370.39999389648</ele>
        <time>2023-08-03T13:13:05.000Z</time>
      </trkpt>
      <trkpt lat="47.57938" lon="6.93624">
        <ele>370.39999389648</ele>
        <time>2023-08-03T13:13:07.000Z</time>
      </trkpt>
      <trkpt lat="47.57965" lon="6.93602">
        <ele>370.60000610352</ele>
        <time>2023-08-03T13:13:12.000Z</time>
      </trkpt>
      <trkpt lat="47.58015" lon="6.93565">
        <ele>369.79998779297</ele>
        <time>2023-08-03T13:13:20.000Z</time>
      </trkpt>
      <trkpt lat="47.58051" lon="6.93539">
        <ele>369.20001220703</ele>
        <time>2023-08-03T13:13:25.000Z</time>
      </trkpt>
      <trkpt lat="47.58066" lon="6.93528">
        <ele>368.79998779297</ele>
        <time>2023-08-03T13:13:27.000Z</time>
      </trkpt>
      <trkpt lat="47.58097" lon="6.93505">
        <ele>367.60000610352</ele>
        <time>2023-08-03T13:13:31.000Z</time>
      </trkpt>
      <trkpt lat="47.58128" lon="6.93479">
        <ele>366</ele>
        <time>2023-08-03T13:13:35.000Z</time>
      </trkpt>
      <trkpt lat="47.58143" lon="6.93462">
        <ele>365.20001220703</ele>
        <time>2023-08-03T13:13:37.000Z</time>
      </trkpt>
      <trkpt lat="47.58149" lon="6.93455">
        <ele>365</ele>
        <time>2023-08-03T13:13:38.000Z</time>
      </trkpt>
      <trkpt lat="47.58172" lon="6.93427">
        <ele>364.79998779297</ele>
        <time>2023-08-03T13:13:42.000Z</time>
      </trkpt>
      <trkpt lat="47.58208" lon="6.93383">
        <ele>366.20001220703</ele>
        <time>2023-08-03T13:13:49.000Z</time>
      </trkpt>
      <trkpt lat="47.58213" lon="6.93378">
        <ele>366.39999389648</ele>
        <time>2023-08-03T13:13:50.000Z</time>
      </trkpt>
      <trkpt lat="47.58241" lon="6.93343">
        <ele>367.39999389648</ele>
        <time>2023-08-03T13:13:56.000Z</time>
      </trkpt>
      <trkpt lat="47.58245" lon="6.93338">
        <ele>367.39999389648</ele>
        <time>2023-08-03T13:13:57.000Z</time>
      </trkpt>
      <trkpt lat="47.58289" lon="6.93283">
        <ele>367.20001220703</ele>
        <time>2023-08-03T13:14:06.000Z</time>
      </trkpt>
      <trkpt lat="47.58294" lon="6.93277">
        <ele>367.20001220703</ele>
        <time>2023-08-03T13:14:07.000Z</time>
      </trkpt>
      <trkpt lat="47.58315" lon="6.93233">
        <ele>366.39999389648</ele>
        <time>2023-08-03T13:14:12.000Z</time>
      </trkpt>
      <trkpt lat="47.58319" lon="6.93222">
        <ele>366.20001220703</ele>
        <time>2023-08-03T13:14:13.000Z</time>
      </trkpt>
      <trkpt lat="47.58342" lon="6.93159">
        <ele>365.20001220703</ele>
        <time>2023-08-03T13:14:19.000Z</time>
      </trkpt>
      <trkpt lat="47.58353" lon="6.93132">
        <ele>365.20001220703</ele>
        <time>2023-08-03T13:14:22.000Z</time>
      </trkpt>
      <trkpt lat="47.5836" lon="6.93116">
        <ele>365.20001220703</ele>
        <time>2023-08-03T13:14:24.000Z</time>
      </trkpt>
      <trkpt lat="47.58369" lon="6.93095">
        <ele>365.79998779297</ele>
        <time>2023-08-03T13:14:27.000Z</time>
      </trkpt>
      <trkpt lat="47.58371" lon="6.93089">
        <ele>366</ele>
        <time>2023-08-03T13:14:28.000Z</time>
      </trkpt>
      <trkpt lat="47.58373" lon="6.93083">
        <ele>366.60000610352</ele>
        <time>2023-08-03T13:14:29.000Z</time>
      </trkpt>
      <trkpt lat="47.58378" lon="6.93071">
        <ele>367</ele>
        <time>2023-08-03T13:14:31.000Z</time>
      </trkpt>
      <trkpt lat="47.58383" lon="6.93057">
        <ele>367.39999389648</ele>
        <time>2023-08-03T13:14:33.000Z</time>
      </trkpt>
      <trkpt lat="47.58389" lon="6.93037">
        <ele>368</ele>
        <time>2023-08-03T13:14:36.000Z</time>
      </trkpt>
      <trkpt lat="47.58395" lon="6.93022">
        <ele>368.39999389648</ele>
        <time>2023-08-03T13:14:38.000Z</time>
      </trkpt>
      <trkpt lat="47.58398" lon="6.93015">
        <ele>368.60000610352</ele>
        <time>2023-08-03T13:14:39.000Z</time>
      </trkpt>
      <trkpt lat="47.58408" lon="6.92982">
        <ele>369.79998779297</ele>
        <time>2023-08-03T13:14:43.000Z</time>
      </trkpt>
      <trkpt lat="47.58418" lon="6.92951">
        <ele>370.20001220703</ele>
        <time>2023-08-03T13:14:47.000Z</time>
      </trkpt>
      <trkpt lat="47.58424" lon="6.92936">
        <ele>370.39999389648</ele>
        <time>2023-08-03T13:14:49.000Z</time>
      </trkpt>
      <trkpt lat="47.58432" lon="6.92913">
        <ele>370.60000610352</ele>
        <time>2023-08-03T13:14:52.000Z</time>
      </trkpt>
      <trkpt lat="47.58453" lon="6.92858">
        <ele>370.20001220703</ele>
        <time>2023-08-03T13:14:59.000Z</time>
      </trkpt>
      <trkpt lat="47.58477" lon="6.92814">
        <ele>369.39999389648</ele>
        <time>2023-08-03T13:15:05.000Z</time>
      </trkpt>
      <trkpt lat="47.58482" lon="6.92807">
        <ele>369.39999389648</ele>
        <time>2023-08-03T13:15:06.000Z</time>
      </trkpt>
      <trkpt lat="47.58498" lon="6.92787">
        <ele>369.20001220703</ele>
        <time>2023-08-03T13:15:09.000Z</time>
      </trkpt>
      <trkpt lat="47.58527" lon="6.92757">
        <ele>368.79998779297</ele>
        <time>2023-08-03T13:15:14.000Z</time>
      </trkpt>
      <trkpt lat="47.58538" lon="6.92746">
        <ele>368.60000610352</ele>
        <time>2023-08-03T13:15:16.000Z</time>
      </trkpt>
      <trkpt lat="47.58579" lon="6.92708">
        <ele>367.79998779297</ele>
        <time>2023-08-03T13:15:22.000Z</time>
      </trkpt>
      <trkpt lat="47.58609" lon="6.92674">
        <ele>367.39999389648</ele>
        <time>2023-08-03T13:15:27.000Z</time>
      </trkpt>
      <trkpt lat="47.58614" lon="6.92667">
        <ele>367</ele>
        <time>2023-08-03T13:15:28.000Z</time>
      </trkpt>
      <trkpt lat="47.58627" lon="6.92643">
        <ele>366.39999389648</ele>
        <time>2023-08-03T13:15:31.000Z</time>
      </trkpt>
      <trkpt lat="47.58643" lon="6.92611">
        <ele>365.20001220703</ele>
        <time>2023-08-03T13:15:35.000Z</time>
      </trkpt>
      <trkpt lat="47.58649" lon="6.92593">
        <ele>364.79998779297</ele>
        <time>2023-08-03T13:15:37.000Z</time>
      </trkpt>
      <trkpt lat="47.58653" lon="6.92574">
        <ele>364.60000610352</ele>
        <time>2023-08-03T13:15:39.000Z</time>
      </trkpt>
      <trkpt lat="47.58654" lon="6.92564">
        <ele>364.60000610352</ele>
        <time>2023-08-03T13:15:40.000Z</time>
      </trkpt>
      <trkpt lat="47.58663" lon="6.92487">
        <ele>365.20001220703</ele>
        <time>2023-08-03T13:15:48.000Z</time>
      </trkpt>
      <trkpt lat="47.58664" lon="6.92407">
        <ele>366</ele>
        <time>2023-08-03T13:15:56.000Z</time>
      </trkpt>
      <trkpt lat="47.58665" lon="6.92397">
        <ele>366</ele>
        <time>2023-08-03T13:15:57.000Z</time>
      </trkpt>
      <trkpt lat="47.58666" lon="6.92336">
        <ele>366.20001220703</ele>
        <time>2023-08-03T13:16:03.000Z</time>
      </trkpt>
      <trkpt lat="47.58666" lon="6.92307">
        <ele>366.20001220703</ele>
        <time>2023-08-03T13:16:06.000Z</time>
      </trkpt>
      <trkpt lat="47.58666" lon="6.92288">
        <ele>366.39999389648</ele>
        <time>2023-08-03T13:16:08.000Z</time>
      </trkpt>
      <trkpt lat="47.58668" lon="6.92224">
        <ele>366.60000610352</ele>
        <time>2023-08-03T13:16:15.000Z</time>
      </trkpt>
      <trkpt lat="47.58669" lon="6.92191">
        <ele>366.79998779297</ele>
        <time>2023-08-03T13:16:19.000Z</time>
      </trkpt>
      <trkpt lat="47.58671" lon="6.92174">
        <ele>367</ele>
        <time>2023-08-03T13:16:21.000Z</time>
      </trkpt>
      <trkpt lat="47.58671" lon="6.92165">
        <ele>367.20001220703</ele>
        <time>2023-08-03T13:16:22.000Z</time>
      </trkpt>
      <trkpt lat="47.58673" lon="6.92111">
        <ele>368.20001220703</ele>
        <time>2023-08-03T13:16:28.000Z</time>
      </trkpt>
      <trkpt lat="47.58676" lon="6.92085">
        <ele>368</ele>
        <time>2023-08-03T13:16:31.000Z</time>
      </trkpt>
      <trkpt lat="47.58677" lon="6.92076">
        <ele>368</ele>
        <time>2023-08-03T13:16:32.000Z</time>
      </trkpt>
      <trkpt lat="47.58677" lon="6.92058">
        <ele>368</ele>
        <time>2023-08-03T13:16:34.000Z</time>
      </trkpt>
      <trkpt lat="47.58678" lon="6.92049">
        <ele>368</ele>
        <time>2023-08-03T13:16:35.000Z</time>
      </trkpt>
      <trkpt lat="47.58681" lon="6.92012">
        <ele>367.79998779297</ele>
        <time>2023-08-03T13:16:39.000Z</time>
      </trkpt>
      <trkpt lat="47.58682" lon="6.91983">
        <ele>367.39999389648</ele>
        <time>2023-08-03T13:16:42.000Z</time>
      </trkpt>
      <trkpt lat="47.58684" lon="6.91966">
        <ele>367.39999389648</ele>
        <time>2023-08-03T13:16:44.000Z</time>
      </trkpt>
      <trkpt lat="47.58686" lon="6.91957">
        <ele>367.20001220703</ele>
        <time>2023-08-03T13:16:45.000Z</time>
      </trkpt>
      <trkpt lat="47.58696" lon="6.91925">
        <ele>367.20001220703</ele>
        <time>2023-08-03T13:16:49.000Z</time>
      </trkpt>
      <trkpt lat="47.58703" lon="6.91911">
        <ele>367.20001220703</ele>
        <time>2023-08-03T13:16:51.000Z</time>
      </trkpt>
      <trkpt lat="47.58711" lon="6.91899">
        <ele>367.39999389648</ele>
        <time>2023-08-03T13:16:53.000Z</time>
      </trkpt>
      <trkpt lat="47.58715" lon="6.91894">
        <ele>367.39999389648</ele>
        <time>2023-08-03T13:16:54.000Z</time>
      </trkpt>
      <trkpt lat="47.58728" lon="6.9188">
        <ele>367.39999389648</ele>
        <time>2023-08-03T13:16:57.000Z</time>
      </trkpt>
      <trkpt lat="47.58742" lon="6.91869">
        <ele>367.39999389648</ele>
        <time>2023-08-03T13:17:00.000Z</time>
      </trkpt>
      <trkpt lat="47.58762" lon="6.91854">
        <ele>368</ele>
        <time>2023-08-03T13:17:04.000Z</time>
      </trkpt>
      <trkpt lat="47.58777" lon="6.91841">
        <ele>368.60000610352</ele>
        <time>2023-08-03T13:17:07.000Z</time>
      </trkpt>
      <trkpt lat="47.58786" lon="6.91833">
        <ele>369</ele>
        <time>2023-08-03T13:17:09.000Z</time>
      </trkpt>
      <trkpt lat="47.58808" lon="6.91811">
        <ele>369.60000610352</ele>
        <time>2023-08-03T13:17:14.000Z</time>
      </trkpt>
      <trkpt lat="47.58829" lon="6.91792">
        <ele>369.79998779297</ele>
        <time>2023-08-03T13:17:18.000Z</time>
      </trkpt>
      <trkpt lat="47.58839" lon="6.91782">
        <ele>369.60000610352</ele>
        <time>2023-08-03T13:17:20.000Z</time>
      </trkpt>
      <trkpt lat="47.58871" lon="6.91753">
        <ele>368.39999389648</ele>
        <time>2023-08-03T13:17:26.000Z</time>
      </trkpt>
      <trkpt lat="47.58883" lon="6.91743">
        <ele>367.79998779297</ele>
        <time>2023-08-03T13:17:28.000Z</time>
      </trkpt>
      <trkpt lat="47.58912" lon="6.91719">
        <ele>367.20001220703</ele>
        <time>2023-08-03T13:17:33.000Z</time>
      </trkpt>
      <trkpt lat="47.58954" lon="6.91685">
        <ele>367.39999389648</ele>
        <time>2023-08-03T13:17:40.000Z</time>
      </trkpt>
      <trkpt lat="47.58975" lon="6.91661">
        <ele>367.60000610352</ele>
        <time>2023-08-03T13:17:44.000Z</time>
      </trkpt>
      <trkpt lat="47.5899" lon="6.91637">
        <ele>367.60000610352</ele>
        <time>2023-08-03T13:17:47.000Z</time>
      </trkpt>
      <trkpt lat="47.59023" lon="6.91589">
        <ele>367.79998779297</ele>
        <time>2023-08-03T13:17:54.000Z</time>
      </trkpt>
      <trkpt lat="47.59027" lon="6.91583">
        <ele>367.79998779297</ele>
        <time>2023-08-03T13:17:55.000Z</time>
      </trkpt>
      <trkpt lat="47.59061" lon="6.91533">
        <ele>368.39999389648</ele>
        <time>2023-08-03T13:18:03.000Z</time>
      </trkpt>
      <trkpt lat="47.59076" lon="6.91507">
        <ele>368.79998779297</ele>
        <time>2023-08-03T13:18:07.000Z</time>
      </trkpt>
      <trkpt lat="47.59089" lon="6.9149">
        <ele>369.39999389648</ele>
        <time>2023-08-03T13:18:10.000Z</time>
      </trkpt>
      <trkpt lat="47.59105" lon="6.91466">
        <ele>370</ele>
        <time>2023-08-03T13:18:14.000Z</time>
      </trkpt>
      <trkpt lat="47.59129" lon="6.91431">
        <ele>370.39999389648</ele>
        <time>2023-08-03T13:18:20.000Z</time>
      </trkpt>
      <trkpt lat="47.59143" lon="6.91407">
        <ele>371.20001220703</ele>
        <time>2023-08-03T13:18:24.000Z</time>
      </trkpt>
      <trkpt lat="47.5915" lon="6.91394">
        <ele>371.39999389648</ele>
        <time>2023-08-03T13:18:26.000Z</time>
      </trkpt>
      <trkpt lat="47.5916" lon="6.91356">
        <ele>372.20001220703</ele>
        <time>2023-08-03T13:18:31.000Z</time>
      </trkpt>
      <trkpt lat="47.59162" lon="6.91348">
        <ele>372.20001220703</ele>
        <time>2023-08-03T13:18:32.000Z</time>
      </trkpt>
      <trkpt lat="47.59174" lon="6.91279">
        <ele>372.60000610352</ele>
        <time>2023-08-03T13:18:40.000Z</time>
      </trkpt>
      <trkpt lat="47.59178" lon="6.91262">
        <ele>372.60000610352</ele>
        <time>2023-08-03T13:18:42.000Z</time>
      </trkpt>
      <trkpt lat="47.59186" lon="6.91247">
        <ele>372.60000610352</ele>
        <time>2023-08-03T13:18:44.000Z</time>
      </trkpt>
      <trkpt lat="47.59196" lon="6.91235">
        <ele>372.39999389648</ele>
        <time>2023-08-03T13:18:46.000Z</time>
      </trkpt>
      <trkpt lat="47.59208" lon="6.91228">
        <ele>372</ele>
        <time>2023-08-03T13:18:48.000Z</time>
      </trkpt>
      <trkpt lat="47.59237" lon="6.91211">
        <ele>371.39999389648</ele>
        <time>2023-08-03T13:18:53.000Z</time>
      </trkpt>
      <trkpt lat="47.59242" lon="6.91206">
        <ele>371.39999389648</ele>
        <time>2023-08-03T13:18:54.000Z</time>
      </trkpt>
      <trkpt lat="47.59246" lon="6.912">
        <ele>371.39999389648</ele>
        <time>2023-08-03T13:18:55.000Z</time>
      </trkpt>
      <trkpt lat="47.59256" lon="6.91177">
        <ele>371.39999389648</ele>
        <time>2023-08-03T13:18:58.000Z</time>
      </trkpt>
      <trkpt lat="47.59283" lon="6.91099">
        <ele>371.79998779297</ele>
        <time>2023-08-03T13:19:08.000Z</time>
      </trkpt>
      <trkpt lat="47.59303" lon="6.91047">
        <ele>371.79998779297</ele>
        <time>2023-08-03T13:19:15.000Z</time>
      </trkpt>
      <trkpt lat="47.59316" lon="6.91008">
        <ele>371.60000610352</ele>
        <time>2023-08-03T13:19:20.000Z</time>
      </trkpt>
      <trkpt lat="47.5933" lon="6.90968">
        <ele>372</ele>
        <time>2023-08-03T13:19:25.000Z</time>
      </trkpt>
      <trkpt lat="47.59339" lon="6.90926">
        <ele>372.60000610352</ele>
        <time>2023-08-03T13:19:30.000Z</time>
      </trkpt>
      <trkpt lat="47.59339" lon="6.90917">
        <ele>372.60000610352</ele>
        <time>2023-08-03T13:19:31.000Z</time>
      </trkpt>
      <trkpt lat="47.59339" lon="6.90909">
        <ele>372.60000610352</ele>
        <time>2023-08-03T13:19:32.000Z</time>
      </trkpt>
      <trkpt lat="47.59334" lon="6.90883">
        <ele>372.79998779297</ele>
        <time>2023-08-03T13:19:35.000Z</time>
      </trkpt>
      <trkpt lat="47.59323" lon="6.90845">
        <ele>373</ele>
        <time>2023-08-03T13:19:40.000Z</time>
      </trkpt>
      <trkpt lat="47.59322" lon="6.90837">
        <ele>373.20001220703</ele>
        <time>2023-08-03T13:19:41.000Z</time>
      </trkpt>
      <trkpt lat="47.59322" lon="6.90829">
        <ele>373.39999389648</ele>
        <time>2023-08-03T13:19:42.000Z</time>
      </trkpt>
      <trkpt lat="47.59323" lon="6.90814">
        <ele>373.39999389648</ele>
        <time>2023-08-03T13:19:44.000Z</time>
      </trkpt>
      <trkpt lat="47.59325" lon="6.90806">
        <ele>373.39999389648</ele>
        <time>2023-08-03T13:19:45.000Z</time>
      </trkpt>
      <trkpt lat="47.59337" lon="6.90761">
        <ele>374.60000610352</ele>
        <time>2023-08-03T13:19:51.000Z</time>
      </trkpt>
      <trkpt lat="47.59342" lon="6.90741">
        <ele>374.79998779297</ele>
        <time>2023-08-03T13:19:54.000Z</time>
      </trkpt>
      <trkpt lat="47.59348" lon="6.90721">
        <ele>375.39999389648</ele>
        <time>2023-08-03T13:19:57.000Z</time>
      </trkpt>
      <trkpt lat="47.5935" lon="6.90715">
        <ele>375.79998779297</ele>
        <time>2023-08-03T13:19:58.000Z</time>
      </trkpt>
      <trkpt lat="47.59352" lon="6.90701">
        <ele>376.39999389648</ele>
        <time>2023-08-03T13:20:00.000Z</time>
      </trkpt>
      <trkpt lat="47.59357" lon="6.90679">
        <ele>376.79998779297</ele>
        <time>2023-08-03T13:20:03.000Z</time>
      </trkpt>
      <trkpt lat="47.59363" lon="6.90638">
        <ele>377.79998779297</ele>
        <time>2023-08-03T13:20:09.000Z</time>
      </trkpt>
      <trkpt lat="47.59364" lon="6.90624">
        <ele>378</ele>
        <time>2023-08-03T13:20:11.000Z</time>
      </trkpt>
      <trkpt lat="47.59368" lon="6.90589">
        <ele>379.20001220703</ele>
        <time>2023-08-03T13:20:16.000Z</time>
      </trkpt>
      <trkpt lat="47.59372" lon="6.90557">
        <ele>379.79998779297</ele>
        <time>2023-08-03T13:20:20.000Z</time>
      </trkpt>
      <trkpt lat="47.59376" lon="6.90513">
        <ele>380.39999389648</ele>
        <time>2023-08-03T13:20:26.000Z</time>
      </trkpt>
      <trkpt lat="47.59378" lon="6.90484">
        <ele>381.39999389648</ele>
        <time>2023-08-03T13:20:30.000Z</time>
      </trkpt>
      <trkpt lat="47.59379" lon="6.90477">
        <ele>381.60000610352</ele>
        <time>2023-08-03T13:20:31.000Z</time>
      </trkpt>
      <trkpt lat="47.59383" lon="6.90441">
        <ele>382.39999389648</ele>
        <time>2023-08-03T13:20:36.000Z</time>
      </trkpt>
      <trkpt lat="47.59387" lon="6.90407">
        <ele>382.79998779297</ele>
        <time>2023-08-03T13:20:41.000Z</time>
      </trkpt>
      <trkpt lat="47.59392" lon="6.90373">
        <ele>383.60000610352</ele>
        <time>2023-08-03T13:20:46.000Z</time>
      </trkpt>
      <trkpt lat="47.59394" lon="6.90366">
        <ele>383.79998779297</ele>
        <time>2023-08-03T13:20:47.000Z</time>
      </trkpt>
      <trkpt lat="47.59396" lon="6.90359">
        <ele>384</ele>
        <time>2023-08-03T13:20:48.000Z</time>
      </trkpt>
      <trkpt lat="47.59408" lon="6.90321">
        <ele>384</ele>
        <time>2023-08-03T13:20:53.000Z</time>
      </trkpt>
      <trkpt lat="47.59425" lon="6.90251">
        <ele>383.39999389648</ele>
        <time>2023-08-03T13:21:01.000Z</time>
      </trkpt>
      <trkpt lat="47.59446" lon="6.90171">
        <ele>382.60000610352</ele>
        <time>2023-08-03T13:21:10.000Z</time>
      </trkpt>
      <trkpt lat="47.59469" lon="6.90096">
        <ele>382</ele>
        <time>2023-08-03T13:21:19.000Z</time>
      </trkpt>
      <trkpt lat="47.59471" lon="6.90087">
        <ele>381.79998779297</ele>
        <time>2023-08-03T13:21:20.000Z</time>
      </trkpt>
      <trkpt lat="47.59489" lon="6.90018">
        <ele>381.60000610352</ele>
        <time>2023-08-03T13:21:28.000Z</time>
      </trkpt>
      <trkpt lat="47.59491" lon="6.90009">
        <ele>381.60000610352</ele>
        <time>2023-08-03T13:21:29.000Z</time>
      </trkpt>
      <trkpt lat="47.5951" lon="6.89937">
        <ele>381</ele>
        <time>2023-08-03T13:21:37.000Z</time>
      </trkpt>
      <trkpt lat="47.59518" lon="6.89903">
        <ele>380.79998779297</ele>
        <time>2023-08-03T13:21:41.000Z</time>
      </trkpt>
      <trkpt lat="47.59519" lon="6.89895">
        <ele>380.79998779297</ele>
        <time>2023-08-03T13:21:42.000Z</time>
      </trkpt>
      <trkpt lat="47.59519" lon="6.89886">
        <ele>380.79998779297</ele>
        <time>2023-08-03T13:21:43.000Z</time>
      </trkpt>
      <trkpt lat="47.59518" lon="6.89869">
        <ele>380.79998779297</ele>
        <time>2023-08-03T13:21:45.000Z</time>
      </trkpt>
      <trkpt lat="47.59516" lon="6.89861">
        <ele>380.79998779297</ele>
        <time>2023-08-03T13:21:46.000Z</time>
      </trkpt>
      <trkpt lat="47.59514" lon="6.89846">
        <ele>381</ele>
        <time>2023-08-03T13:21:48.000Z</time>
      </trkpt>
      <trkpt lat="47.59515" lon="6.89823">
        <ele>381.20001220703</ele>
        <time>2023-08-03T13:21:51.000Z</time>
      </trkpt>
      <trkpt lat="47.59524" lon="6.898">
        <ele>381.60000610352</ele>
        <time>2023-08-03T13:21:55.000Z</time>
      </trkpt>
      <trkpt lat="47.59544" lon="6.89767">
        <ele>382</ele>
        <time>2023-08-03T13:22:02.000Z</time>
      </trkpt>
      <trkpt lat="47.59565" lon="6.89733">
        <ele>382.79998779297</ele>
        <time>2023-08-03T13:22:10.000Z</time>
      </trkpt>
      <trkpt lat="47.59573" lon="6.89721">
        <ele>384</ele>
        <time>2023-08-03T13:22:13.000Z</time>
      </trkpt>
      <trkpt lat="47.59581" lon="6.89703">
        <ele>384.39999389648</ele>
        <time>2023-08-03T13:22:17.000Z</time>
      </trkpt>
      <trkpt lat="47.59592" lon="6.89673">
        <ele>385</ele>
        <time>2023-08-03T13:22:23.000Z</time>
      </trkpt>
      <trkpt lat="47.596" lon="6.89653">
        <ele>385.60000610352</ele>
        <time>2023-08-03T13:22:27.000Z</time>
      </trkpt>
      <trkpt lat="47.59609" lon="6.89636">
        <ele>386.20001220703</ele>
        <time>2023-08-03T13:22:31.000Z</time>
      </trkpt>
      <trkpt lat="47.59617" lon="6.89618">
        <ele>387</ele>
        <time>2023-08-03T13:22:35.000Z</time>
      </trkpt>
      <trkpt lat="47.59621" lon="6.89608">
        <ele>387.39999389648</ele>
        <time>2023-08-03T13:22:37.000Z</time>
      </trkpt>
      <trkpt lat="47.5963" lon="6.89587">
        <ele>388.20001220703</ele>
        <time>2023-08-03T13:22:40.000Z</time>
      </trkpt>
      <trkpt lat="47.59636" lon="6.89572">
        <ele>388.39999389648</ele>
        <time>2023-08-03T13:22:42.000Z</time>
      </trkpt>
      <trkpt lat="47.59638" lon="6.89563">
        <ele>388.39999389648</ele>
        <time>2023-08-03T13:22:43.000Z</time>
      </trkpt>
      <trkpt lat="47.59644" lon="6.89546">
        <ele>388.39999389648</ele>
        <time>2023-08-03T13:22:45.000Z</time>
      </trkpt>
      <trkpt lat="47.59656" lon="6.89482">
        <ele>386.79998779297</ele>
        <time>2023-08-03T13:22:52.000Z</time>
      </trkpt>
      <trkpt lat="47.59661" lon="6.89464">
        <ele>386.60000610352</ele>
        <time>2023-08-03T13:22:54.000Z</time>
      </trkpt>
      <trkpt lat="47.59669" lon="6.89449">
        <ele>386.20001220703</ele>
        <time>2023-08-03T13:22:56.000Z</time>
      </trkpt>
      <trkpt lat="47.59673" lon="6.89443">
        <ele>386</ele>
        <time>2023-08-03T13:22:57.000Z</time>
      </trkpt>
      <trkpt lat="47.59683" lon="6.89432">
        <ele>385.79998779297</ele>
        <time>2023-08-03T13:22:59.000Z</time>
      </trkpt>
      <trkpt lat="47.59699" lon="6.89419">
        <ele>385.60000610352</ele>
        <time>2023-08-03T13:23:02.000Z</time>
      </trkpt>
      <trkpt lat="47.59748" lon="6.89386">
        <ele>386</ele>
        <time>2023-08-03T13:23:11.000Z</time>
      </trkpt>
      <trkpt lat="47.59777" lon="6.89365">
        <ele>386.39999389648</ele>
        <time>2023-08-03T13:23:17.000Z</time>
      </trkpt>
      <trkpt lat="47.598" lon="6.89347">
        <ele>387.60000610352</ele>
        <time>2023-08-03T13:23:22.000Z</time>
      </trkpt>
      <trkpt lat="47.59813" lon="6.89336">
        <ele>388.20001220703</ele>
        <time>2023-08-03T13:23:25.000Z</time>
      </trkpt>
      <trkpt lat="47.59826" lon="6.89326">
        <ele>388.79998779297</ele>
        <time>2023-08-03T13:23:28.000Z</time>
      </trkpt>
      <trkpt lat="47.59853" lon="6.89308">
        <ele>389.39999389648</ele>
        <time>2023-08-03T13:23:34.000Z</time>
      </trkpt>
      <trkpt lat="47.59866" lon="6.89299">
        <ele>389.79998779297</ele>
        <time>2023-08-03T13:23:37.000Z</time>
      </trkpt>
      <trkpt lat="47.5989" lon="6.89284">
        <ele>391.20001220703</ele>
        <time>2023-08-03T13:23:42.000Z</time>
      </trkpt>
      <trkpt lat="47.59899" lon="6.89278">
        <ele>391.60000610352</ele>
        <time>2023-08-03T13:23:44.000Z</time>
      </trkpt>
      <trkpt lat="47.59913" lon="6.89267">
        <ele>392</ele>
        <time>2023-08-03T13:23:47.000Z</time>
      </trkpt>
      <trkpt lat="47.59928" lon="6.89251">
        <ele>392.20001220703</ele>
        <time>2023-08-03T13:23:50.000Z</time>
      </trkpt>
      <trkpt lat="47.59955" lon="6.89208">
        <ele>392</ele>
        <time>2023-08-03T13:23:56.000Z</time>
      </trkpt>
      <trkpt lat="47.59989" lon="6.89148">
        <ele>390.60000610352</ele>
        <time>2023-08-03T13:24:04.000Z</time>
      </trkpt>
      <trkpt lat="47.60008" lon="6.89116">
        <ele>390</ele>
        <time>2023-08-03T13:24:08.000Z</time>
      </trkpt>
      <trkpt lat="47.60036" lon="6.89068">
        <ele>389.20001220703</ele>
        <time>2023-08-03T13:24:15.000Z</time>
      </trkpt>
      <trkpt lat="47.60058" lon="6.89033">
        <ele>389</ele>
        <time>2023-08-03T13:24:20.000Z</time>
      </trkpt>
      <trkpt lat="47.6007" lon="6.89012">
        <ele>388.79998779297</ele>
        <time>2023-08-03T13:24:23.000Z</time>
      </trkpt>
      <trkpt lat="47.60101" lon="6.88961">
        <ele>388</ele>
        <time>2023-08-03T13:24:30.000Z</time>
      </trkpt>
      <trkpt lat="47.60107" lon="6.88951">
        <ele>387.79998779297</ele>
        <time>2023-08-03T13:24:31.000Z</time>
      </trkpt>
      <trkpt lat="47.6012" lon="6.88928">
        <ele>386.79998779297</ele>
        <time>2023-08-03T13:24:34.000Z</time>
      </trkpt>
      <trkpt lat="47.60145" lon="6.88886">
        <ele>385.60000610352</ele>
        <time>2023-08-03T13:24:39.000Z</time>
      </trkpt>
      <trkpt lat="47.6015" lon="6.88875">
        <ele>385.39999389648</ele>
        <time>2023-08-03T13:24:40.000Z</time>
      </trkpt>
      <trkpt lat="47.60168" lon="6.88842">
        <ele>384.60000610352</ele>
        <time>2023-08-03T13:24:44.000Z</time>
      </trkpt>
      <trkpt lat="47.60185" lon="6.88813">
        <ele>383.79998779297</ele>
        <time>2023-08-03T13:24:47.000Z</time>
      </trkpt>
      <trkpt lat="47.60189" lon="6.88804">
        <ele>383.20001220703</ele>
        <time>2023-08-03T13:24:48.000Z</time>
      </trkpt>
      <trkpt lat="47.60207" lon="6.88767">
        <ele>382.20001220703</ele>
        <time>2023-08-03T13:24:52.000Z</time>
      </trkpt>
      <trkpt lat="47.60224" lon="6.88733">
        <ele>381.79998779297</ele>
        <time>2023-08-03T13:24:56.000Z</time>
      </trkpt>
      <trkpt lat="47.60248" lon="6.88689">
        <ele>381.39999389648</ele>
        <time>2023-08-03T13:25:02.000Z</time>
      </trkpt>
      <trkpt lat="47.60251" lon="6.88684">
        <ele>381.39999389648</ele>
        <time>2023-08-03T13:25:03.000Z</time>
      </trkpt>
      <trkpt lat="47.6027" lon="6.88662">
        <ele>381.39999389648</ele>
        <time>2023-08-03T13:25:07.000Z</time>
      </trkpt>
      <trkpt lat="47.60304" lon="6.88625">
        <ele>381.60000610352</ele>
        <time>2023-08-03T13:25:15.000Z</time>
      </trkpt>
      <trkpt lat="47.60331" lon="6.88596">
        <ele>382.20001220703</ele>
        <time>2023-08-03T13:25:22.000Z</time>
      </trkpt>
      <trkpt lat="47.60358" lon="6.88566">
        <ele>383.20001220703</ele>
        <time>2023-08-03T13:25:29.000Z</time>
      </trkpt>
      <trkpt lat="47.60362" lon="6.88562">
        <ele>383.39999389648</ele>
        <time>2023-08-03T13:25:30.000Z</time>
      </trkpt>
      <trkpt lat="47.60377" lon="6.88546">
        <ele>383.79998779297</ele>
        <time>2023-08-03T13:25:34.000Z</time>
      </trkpt>
      <trkpt lat="47.60384" lon="6.88537">
        <ele>384.20001220703</ele>
        <time>2023-08-03T13:25:36.000Z</time>
      </trkpt>
      <trkpt lat="47.60402" lon="6.88519">
        <ele>385.39999389648</ele>
        <time>2023-08-03T13:25:41.000Z</time>
      </trkpt>
      <trkpt lat="47.60412" lon="6.88508">
        <ele>386.39999389648</ele>
        <time>2023-08-03T13:25:44.000Z</time>
      </trkpt>
      <trkpt lat="47.60416" lon="6.88504">
        <ele>386.60000610352</ele>
        <time>2023-08-03T13:25:45.000Z</time>
      </trkpt>
      <trkpt lat="47.60435" lon="6.88479">
        <ele>387.60000610352</ele>
        <time>2023-08-03T13:25:51.000Z</time>
      </trkpt>
      <trkpt lat="47.60448" lon="6.88461">
        <ele>388</ele>
        <time>2023-08-03T13:25:55.000Z</time>
      </trkpt>
      <trkpt lat="47.60474" lon="6.88422">
        <ele>388.60000610352</ele>
        <time>2023-08-03T13:26:03.000Z</time>
      </trkpt>
      <trkpt lat="47.60477" lon="6.88417">
        <ele>388.79998779297</ele>
        <time>2023-08-03T13:26:04.000Z</time>
      </trkpt>
      <trkpt lat="47.60482" lon="6.88409">
        <ele>389</ele>
        <time>2023-08-03T13:26:06.000Z</time>
      </trkpt>
      <trkpt lat="47.60495" lon="6.88389">
        <ele>389.39999389648</ele>
        <time>2023-08-03T13:26:10.000Z</time>
      </trkpt>
      <trkpt lat="47.60507" lon="6.88371">
        <ele>389.60000610352</ele>
        <time>2023-08-03T13:26:14.000Z</time>
      </trkpt>
      <trkpt lat="47.60523" lon="6.88349">
        <ele>390.39999389648</ele>
        <time>2023-08-03T13:26:19.000Z</time>
      </trkpt>
      <trkpt lat="47.60533" lon="6.88337">
        <ele>391</ele>
        <time>2023-08-03T13:26:22.000Z</time>
      </trkpt>
      <trkpt lat="47.60556" lon="6.88306">
        <ele>391.79998779297</ele>
        <time>2023-08-03T13:26:30.000Z</time>
      </trkpt>
      <trkpt lat="47.60559" lon="6.88302">
        <ele>392</ele>
        <time>2023-08-03T13:26:31.000Z</time>
      </trkpt>
      <trkpt lat="47.60571" lon="6.88287">
        <ele>393.20001220703</ele>
        <time>2023-08-03T13:26:35.000Z</time>
      </trkpt>
      <trkpt lat="47.60586" lon="6.88268">
        <ele>394.20001220703</ele>
        <time>2023-08-03T13:26:40.000Z</time>
      </trkpt>
      <trkpt lat="47.60608" lon="6.88239">
        <ele>395.39999389648</ele>
        <time>2023-08-03T13:26:47.000Z</time>
      </trkpt>
      <trkpt lat="47.60611" lon="6.88235">
        <ele>395.39999389648</ele>
        <time>2023-08-03T13:26:48.000Z</time>
      </trkpt>
      <trkpt lat="47.60637" lon="6.88198">
        <ele>396.20001220703</ele>
        <time>2023-08-03T13:26:57.000Z</time>
      </trkpt>
      <trkpt lat="47.6064" lon="6.88194">
        <ele>396.20001220703</ele>
        <time>2023-08-03T13:26:58.000Z</time>
      </trkpt>
      <trkpt lat="47.60649" lon="6.88182">
        <ele>396.39999389648</ele>
        <time>2023-08-03T13:27:01.000Z</time>
      </trkpt>
      <trkpt lat="47.60659" lon="6.88165">
        <ele>396.79998779297</ele>
        <time>2023-08-03T13:27:05.000Z</time>
      </trkpt>
      <trkpt lat="47.60681" lon="6.88131">
        <ele>397.79998779297</ele>
        <time>2023-08-03T13:27:13.000Z</time>
      </trkpt>
      <trkpt lat="47.60683" lon="6.88128">
        <ele>397.79998779297</ele>
        <time>2023-08-03T13:27:14.000Z</time>
      </trkpt>
      <trkpt lat="47.60701" lon="6.881">
        <ele>398.79998779297</ele>
        <time>2023-08-03T13:27:20.000Z</time>
      </trkpt>
      <trkpt lat="47.60704" lon="6.88096">
        <ele>398.79998779297</ele>
        <time>2023-08-03T13:27:21.000Z</time>
      </trkpt>
      <trkpt lat="47.60725" lon="6.88063">
        <ele>399.79998779297</ele>
        <time>2023-08-03T13:27:29.000Z</time>
      </trkpt>
      <trkpt lat="47.60734" lon="6.88052">
        <ele>400.79998779297</ele>
        <time>2023-08-03T13:27:32.000Z</time>
      </trkpt>
      <trkpt lat="47.60744" lon="6.88039">
        <ele>401.60000610352</ele>
        <time>2023-08-03T13:27:35.000Z</time>
      </trkpt>
      <trkpt lat="47.60749" lon="6.88029">
        <ele>402</ele>
        <time>2023-08-03T13:27:37.000Z</time>
      </trkpt>
      <trkpt lat="47.60763" lon="6.88008">
        <ele>402.79998779297</ele>
        <time>2023-08-03T13:27:42.000Z</time>
      </trkpt>
      <trkpt lat="47.6077" lon="6.87998">
        <ele>403.20001220703</ele>
        <time>2023-08-03T13:27:44.000Z</time>
      </trkpt>
      <trkpt lat="47.60781" lon="6.87981">
        <ele>404</ele>
        <time>2023-08-03T13:27:48.000Z</time>
      </trkpt>
      <trkpt lat="47.60787" lon="6.87971">
        <ele>404.39999389648</ele>
        <time>2023-08-03T13:27:50.000Z</time>
      </trkpt>
      <trkpt lat="47.60799" lon="6.87937">
        <ele>405.39999389648</ele>
        <time>2023-08-03T13:27:56.000Z</time>
      </trkpt>
      <trkpt lat="47.60803" lon="6.87905">
        <ele>406.20001220703</ele>
        <time>2023-08-03T13:28:02.000Z</time>
      </trkpt>
      <trkpt lat="47.60804" lon="6.87895">
        <ele>406.60000610352</ele>
        <time>2023-08-03T13:28:04.000Z</time>
      </trkpt>
      <trkpt lat="47.60806" lon="6.87865">
        <ele>407.60000610352</ele>
        <time>2023-08-03T13:28:10.000Z</time>
      </trkpt>
      <trkpt lat="47.60807" lon="6.87861">
        <ele>407.60000610352</ele>
        <time>2023-08-03T13:28:11.000Z</time>
      </trkpt>
      <trkpt lat="47.60809" lon="6.8784">
        <ele>408.60000610352</ele>
        <time>2023-08-03T13:28:15.000Z</time>
      </trkpt>
      <trkpt lat="47.60809" lon="6.8783">
        <ele>409.20001220703</ele>
        <time>2023-08-03T13:28:17.000Z</time>
      </trkpt>
      <trkpt lat="47.60811" lon="6.87807">
        <ele>409.79998779297</ele>
        <time>2023-08-03T13:28:21.000Z</time>
      </trkpt>
      <trkpt lat="47.60813" lon="6.87792">
        <ele>410</ele>
        <time>2023-08-03T13:28:24.000Z</time>
      </trkpt>
      <trkpt lat="47.60815" lon="6.87782">
        <ele>410.79998779297</ele>
        <time>2023-08-03T13:28:26.000Z</time>
      </trkpt>
      <trkpt lat="47.6082" lon="6.87769">
        <ele>411.39999389648</ele>
        <time>2023-08-03T13:28:29.000Z</time>
      </trkpt>
      <trkpt lat="47.60829" lon="6.8776">
        <ele>412</ele>
        <time>2023-08-03T13:28:32.000Z</time>
      </trkpt>
      <trkpt lat="47.60837" lon="6.87753">
        <ele>412.79998779297</ele>
        <time>2023-08-03T13:28:35.000Z</time>
      </trkpt>
      <trkpt lat="47.60845" lon="6.87751">
        <ele>413.39999389648</ele>
        <time>2023-08-03T13:28:37.000Z</time>
      </trkpt>
      <trkpt lat="47.60854" lon="6.87752">
        <ele>414</ele>
        <time>2023-08-03T13:28:40.000Z</time>
      </trkpt>
      <trkpt lat="47.6086" lon="6.87754">
        <ele>414.39999389648</ele>
        <time>2023-08-03T13:28:42.000Z</time>
      </trkpt>
      <trkpt lat="47.60872" lon="6.8776">
        <ele>415.39999389648</ele>
        <time>2023-08-03T13:28:46.000Z</time>
      </trkpt>
      <trkpt lat="47.60882" lon="6.87765">
        <ele>416.60000610352</ele>
        <time>2023-08-03T13:28:49.000Z</time>
      </trkpt>
      <trkpt lat="47.60896" lon="6.87773">
        <ele>417.60000610352</ele>
        <time>2023-08-03T13:28:53.000Z</time>
      </trkpt>
      <trkpt lat="47.60899" lon="6.87775">
        <ele>417.79998779297</ele>
        <time>2023-08-03T13:28:54.000Z</time>
      </trkpt>
      <trkpt lat="47.60922" lon="6.87784">
        <ele>418.79998779297</ele>
        <time>2023-08-03T13:29:01.000Z</time>
      </trkpt>
      <trkpt lat="47.60925" lon="6.87785">
        <ele>419</ele>
        <time>2023-08-03T13:29:02.000Z</time>
      </trkpt>
      <trkpt lat="47.6095" lon="6.87778">
        <ele>419.60000610352</ele>
        <time>2023-08-03T13:29:09.000Z</time>
      </trkpt>
      <trkpt lat="47.6096" lon="6.87771">
        <ele>420</ele>
        <time>2023-08-03T13:29:12.000Z</time>
      </trkpt>
      <trkpt lat="47.60974" lon="6.87761">
        <ele>420.39999389648</ele>
        <time>2023-08-03T13:29:16.000Z</time>
      </trkpt>
      <trkpt lat="47.60997" lon="6.87745">
        <ele>421</ele>
        <time>2023-08-03T13:29:23.000Z</time>
      </trkpt>
      <trkpt lat="47.61005" lon="6.87739">
        <ele>421.20001220703</ele>
        <time>2023-08-03T13:29:25.000Z</time>
      </trkpt>
      <trkpt lat="47.61031" lon="6.87723">
        <ele>421</ele>
        <time>2023-08-03T13:29:30.000Z</time>
      </trkpt>
      <trkpt lat="47.61067" lon="6.87689">
        <ele>420.60000610352</ele>
        <time>2023-08-03T13:29:36.000Z</time>
      </trkpt>
      <trkpt lat="47.61071" lon="6.87682">
        <ele>420.39999389648</ele>
        <time>2023-08-03T13:29:37.000Z</time>
      </trkpt>
      <trkpt lat="47.6108" lon="6.87659">
        <ele>420</ele>
        <time>2023-08-03T13:29:39.000Z</time>
      </trkpt>
      <trkpt lat="47.61083" lon="6.87647">
        <ele>419.79998779297</ele>
        <time>2023-08-03T13:29:40.000Z</time>
      </trkpt>
      <trkpt lat="47.61089" lon="6.87611">
        <ele>418.60000610352</ele>
        <time>2023-08-03T13:29:43.000Z</time>
      </trkpt>
      <trkpt lat="47.61093" lon="6.87553">
        <ele>417.60000610352</ele>
        <time>2023-08-03T13:29:47.000Z</time>
      </trkpt>
      <trkpt lat="47.61093" lon="6.87538">
        <ele>417.20001220703</ele>
        <time>2023-08-03T13:29:48.000Z</time>
      </trkpt>
      <trkpt lat="47.61096" lon="6.87508">
        <ele>416.60000610352</ele>
        <time>2023-08-03T13:29:50.000Z</time>
      </trkpt>
      <trkpt lat="47.61099" lon="6.87498">
        <ele>416.39999389648</ele>
        <time>2023-08-03T13:29:51.000Z</time>
      </trkpt>
      <trkpt lat="47.61104" lon="6.87488">
        <ele>415.60000610352</ele>
        <time>2023-08-03T13:29:52.000Z</time>
      </trkpt>
      <trkpt lat="47.61112" lon="6.87481">
        <ele>415.20001220703</ele>
        <time>2023-08-03T13:29:53.000Z</time>
      </trkpt>
      <trkpt lat="47.6112" lon="6.87482">
        <ele>414.60000610352</ele>
        <time>2023-08-03T13:29:54.000Z</time>
      </trkpt>
      <trkpt lat="47.61126" lon="6.87487">
        <ele>413.60000610352</ele>
        <time>2023-08-03T13:29:55.000Z</time>
      </trkpt>
      <trkpt lat="47.61132" lon="6.87494">
        <ele>413.20001220703</ele>
        <time>2023-08-03T13:29:56.000Z</time>
      </trkpt>
      <trkpt lat="47.61135" lon="6.87503">
        <ele>412.60000610352</ele>
        <time>2023-08-03T13:29:57.000Z</time>
      </trkpt>
      <trkpt lat="47.6114" lon="6.87517">
        <ele>412.20001220703</ele>
        <time>2023-08-03T13:29:58.000Z</time>
      </trkpt>
      <trkpt lat="47.61143" lon="6.87531">
        <ele>411.20001220703</ele>
        <time>2023-08-03T13:29:59.000Z</time>
      </trkpt>
      <trkpt lat="47.61148" lon="6.87558">
        <ele>410.39999389648</ele>
        <time>2023-08-03T13:30:01.000Z</time>
      </trkpt>
      <trkpt lat="47.61151" lon="6.87568">
        <ele>409.79998779297</ele>
        <time>2023-08-03T13:30:02.000Z</time>
      </trkpt>
      <trkpt lat="47.61158" lon="6.87579">
        <ele>409.39999389648</ele>
        <time>2023-08-03T13:30:03.000Z</time>
      </trkpt>
      <trkpt lat="47.61174" lon="6.87588">
        <ele>409</ele>
        <time>2023-08-03T13:30:05.000Z</time>
      </trkpt>
      <trkpt lat="47.61185" lon="6.87588">
        <ele>408.39999389648</ele>
        <time>2023-08-03T13:30:06.000Z</time>
      </trkpt>
      <trkpt lat="47.61192" lon="6.87585">
        <ele>408.20001220703</ele>
        <time>2023-08-03T13:30:07.000Z</time>
      </trkpt>
      <trkpt lat="47.61209" lon="6.87569">
        <ele>407</ele>
        <time>2023-08-03T13:30:09.000Z</time>
      </trkpt>
      <trkpt lat="47.61226" lon="6.87551">
        <ele>405.60000610352</ele>
        <time>2023-08-03T13:30:11.000Z</time>
      </trkpt>
      <trkpt lat="47.61243" lon="6.87534">
        <ele>404.20001220703</ele>
        <time>2023-08-03T13:30:13.000Z</time>
      </trkpt>
      <trkpt lat="47.6126" lon="6.87516">
        <ele>403.20001220703</ele>
        <time>2023-08-03T13:30:15.000Z</time>
      </trkpt>
      <trkpt lat="47.61268" lon="6.87507">
        <ele>402.39999389648</ele>
        <time>2023-08-03T13:30:16.000Z</time>
      </trkpt>
      <trkpt lat="47.61277" lon="6.87499">
        <ele>401.60000610352</ele>
        <time>2023-08-03T13:30:17.000Z</time>
      </trkpt>
      <trkpt lat="47.61284" lon="6.87489">
        <ele>400.79998779297</ele>
        <time>2023-08-03T13:30:18.000Z</time>
      </trkpt>
      <trkpt lat="47.61292" lon="6.87478">
        <ele>400.20001220703</ele>
        <time>2023-08-03T13:30:19.000Z</time>
      </trkpt>
      <trkpt lat="47.61298" lon="6.87468">
        <ele>399.60000610352</ele>
        <time>2023-08-03T13:30:20.000Z</time>
      </trkpt>
      <trkpt lat="47.61304" lon="6.87458">
        <ele>399.20001220703</ele>
        <time>2023-08-03T13:30:21.000Z</time>
      </trkpt>
      <trkpt lat="47.61315" lon="6.87439">
        <ele>398</ele>
        <time>2023-08-03T13:30:23.000Z</time>
      </trkpt>
      <trkpt lat="47.6133" lon="6.87413">
        <ele>397.39999389648</ele>
        <time>2023-08-03T13:30:26.000Z</time>
      </trkpt>
      <trkpt lat="47.61355" lon="6.87368">
        <ele>397.39999389648</ele>
        <time>2023-08-03T13:30:32.000Z</time>
      </trkpt>
      <trkpt lat="47.6138" lon="6.87327">
        <ele>398.20001220703</ele>
        <time>2023-08-03T13:30:38.000Z</time>
      </trkpt>
      <trkpt lat="47.61414" lon="6.87285">
        <ele>398.39999389648</ele>
        <time>2023-08-03T13:30:45.000Z</time>
      </trkpt>
      <trkpt lat="47.61439" lon="6.87252">
        <ele>398</ele>
        <time>2023-08-03T13:30:50.000Z</time>
      </trkpt>
      <trkpt lat="47.61472" lon="6.87209">
        <ele>397.79998779297</ele>
        <time>2023-08-03T13:30:57.000Z</time>
      </trkpt>
      <trkpt lat="47.61489" lon="6.87185">
        <ele>397.79998779297</ele>
        <time>2023-08-03T13:31:01.000Z</time>
      </trkpt>
      <trkpt lat="47.61496" lon="6.87172">
        <ele>398</ele>
        <time>2023-08-03T13:31:03.000Z</time>
      </trkpt>
      <trkpt lat="47.61516" lon="6.87112">
        <ele>397.79998779297</ele>
        <time>2023-08-03T13:31:10.000Z</time>
      </trkpt>
      <trkpt lat="47.61525" lon="6.87098">
        <ele>397.20001220703</ele>
        <time>2023-08-03T13:31:12.000Z</time>
      </trkpt>
      <trkpt lat="47.6153" lon="6.87096">
        <ele>397</ele>
        <time>2023-08-03T13:31:13.000Z</time>
      </trkpt>
      <trkpt lat="47.61537" lon="6.87097">
        <ele>396.60000610352</ele>
        <time>2023-08-03T13:31:14.000Z</time>
      </trkpt>
      <trkpt lat="47.61552" lon="6.87102">
        <ele>395.60000610352</ele>
        <time>2023-08-03T13:31:16.000Z</time>
      </trkpt>
      <trkpt lat="47.6156" lon="6.87105">
        <ele>395</ele>
        <time>2023-08-03T13:31:17.000Z</time>
      </trkpt>
      <trkpt lat="47.61578" lon="6.8711">
        <ele>394</ele>
        <time>2023-08-03T13:31:19.000Z</time>
      </trkpt>
      <trkpt lat="47.61592" lon="6.87108">
        <ele>393.20001220703</ele>
        <time>2023-08-03T13:31:21.000Z</time>
      </trkpt>
      <trkpt lat="47.61605" lon="6.87093">
        <ele>392.60000610352</ele>
        <time>2023-08-03T13:31:23.000Z</time>
      </trkpt>
      <trkpt lat="47.61615" lon="6.87058">
        <ele>391.39999389648</ele>
        <time>2023-08-03T13:31:26.000Z</time>
      </trkpt>
      <trkpt lat="47.61627" lon="6.87035">
        <ele>390.39999389648</ele>
        <time>2023-08-03T13:31:28.000Z</time>
      </trkpt>
      <trkpt lat="47.61634" lon="6.87026">
        <ele>390</ele>
        <time>2023-08-03T13:31:29.000Z</time>
      </trkpt>
      <trkpt lat="47.61643" lon="6.87019">
        <ele>389</ele>
        <time>2023-08-03T13:31:30.000Z</time>
      </trkpt>
      <trkpt lat="47.6165" lon="6.87014">
        <ele>388.60000610352</ele>
        <time>2023-08-03T13:31:31.000Z</time>
      </trkpt>
      <trkpt lat="47.61657" lon="6.8701">
        <ele>387.79998779297</ele>
        <time>2023-08-03T13:31:32.000Z</time>
      </trkpt>
      <trkpt lat="47.61662" lon="6.87006">
        <ele>386.79998779297</ele>
        <time>2023-08-03T13:31:33.000Z</time>
      </trkpt>
      <trkpt lat="47.61673" lon="6.87001">
        <ele>385</ele>
        <time>2023-08-03T13:31:35.000Z</time>
      </trkpt>
      <trkpt lat="47.61679" lon="6.86998">
        <ele>384.20001220703</ele>
        <time>2023-08-03T13:31:36.000Z</time>
      </trkpt>
      <trkpt lat="47.61685" lon="6.86994">
        <ele>383.39999389648</ele>
        <time>2023-08-03T13:31:37.000Z</time>
      </trkpt>
      <trkpt lat="47.61701" lon="6.86979">
        <ele>382.39999389648</ele>
        <time>2023-08-03T13:31:40.000Z</time>
      </trkpt>
      <trkpt lat="47.61707" lon="6.86974">
        <ele>382.20001220703</ele>
        <time>2023-08-03T13:31:41.000Z</time>
      </trkpt>
      <trkpt lat="47.61712" lon="6.86967">
        <ele>381.79998779297</ele>
        <time>2023-08-03T13:31:42.000Z</time>
      </trkpt>
      <trkpt lat="47.61722" lon="6.86953">
        <ele>381</ele>
        <time>2023-08-03T13:31:44.000Z</time>
      </trkpt>
      <trkpt lat="47.61728" lon="6.86945">
        <ele>380.39999389648</ele>
        <time>2023-08-03T13:31:45.000Z</time>
      </trkpt>
      <trkpt lat="47.61733" lon="6.86939">
        <ele>380.20001220703</ele>
        <time>2023-08-03T13:31:46.000Z</time>
      </trkpt>
      <trkpt lat="47.61738" lon="6.86932">
        <ele>380</ele>
        <time>2023-08-03T13:31:47.000Z</time>
      </trkpt>
      <trkpt lat="47.61747" lon="6.86917">
        <ele>379.60000610352</ele>
        <time>2023-08-03T13:31:49.000Z</time>
      </trkpt>
      <trkpt lat="47.61766" lon="6.86886">
        <ele>378.79998779297</ele>
        <time>2023-08-03T13:31:53.000Z</time>
      </trkpt>
      <trkpt lat="47.61772" lon="6.86874">
        <ele>378.79998779297</ele>
        <time>2023-08-03T13:31:54.000Z</time>
      </trkpt>
      <trkpt lat="47.61776" lon="6.86863">
        <ele>378.60000610352</ele>
        <time>2023-08-03T13:31:55.000Z</time>
      </trkpt>
      <trkpt lat="47.61779" lon="6.86852">
        <ele>378.20001220703</ele>
        <time>2023-08-03T13:31:56.000Z</time>
      </trkpt>
      <trkpt lat="47.61783" lon="6.86833">
        <ele>377.60000610352</ele>
        <time>2023-08-03T13:31:58.000Z</time>
      </trkpt>
      <trkpt lat="47.61788" lon="6.8681">
        <ele>376.79998779297</ele>
        <time>2023-08-03T13:32:00.000Z</time>
      </trkpt>
      <trkpt lat="47.6179" lon="6.86801">
        <ele>376.20001220703</ele>
        <time>2023-08-03T13:32:01.000Z</time>
      </trkpt>
      <trkpt lat="47.61803" lon="6.86762">
        <ele>375.60000610352</ele>
        <time>2023-08-03T13:32:05.000Z</time>
      </trkpt>
      <trkpt lat="47.61806" lon="6.86756">
        <ele>375.60000610352</ele>
        <time>2023-08-03T13:32:06.000Z</time>
      </trkpt>
      <trkpt lat="47.61816" lon="6.86742">
        <ele>375.39999389648</ele>
        <time>2023-08-03T13:32:08.000Z</time>
      </trkpt>
      <trkpt lat="47.61826" lon="6.86733">
        <ele>375.39999389648</ele>
        <time>2023-08-03T13:32:10.000Z</time>
      </trkpt>
      <trkpt lat="47.61833" lon="6.86731">
        <ele>375</ele>
        <time>2023-08-03T13:32:12.000Z</time>
      </trkpt>
      <trkpt lat="47.61837" lon="6.8673">
        <ele>374.60000610352</ele>
        <time>2023-08-03T13:32:13.000Z</time>
      </trkpt>
      <trkpt lat="47.61841" lon="6.86731">
        <ele>374.39999389648</ele>
        <time>2023-08-03T13:32:14.000Z</time>
      </trkpt>
      <trkpt lat="47.61852" lon="6.86735">
        <ele>373.60000610352</ele>
        <time>2023-08-03T13:32:17.000Z</time>
      </trkpt>
      <trkpt lat="47.61863" lon="6.86733">
        <ele>373.39999389648</ele>
        <time>2023-08-03T13:32:19.000Z</time>
      </trkpt>
      <trkpt lat="47.61877" lon="6.86728">
        <ele>373.39999389648</ele>
        <time>2023-08-03T13:32:22.000Z</time>
      </trkpt>
      <trkpt lat="47.61889" lon="6.86721">
        <ele>373.60000610352</ele>
        <time>2023-08-03T13:32:24.000Z</time>
      </trkpt>
      <trkpt lat="47.61929" lon="6.86699">
        <ele>373.79998779297</ele>
        <time>2023-08-03T13:32:32.000Z</time>
      </trkpt>
      <trkpt lat="47.61985" lon="6.86675">
        <ele>372.79998779297</ele>
        <time>2023-08-03T13:32:42.000Z</time>
      </trkpt>
      <trkpt lat="47.62033" lon="6.86648">
        <ele>372.79998779297</ele>
        <time>2023-08-03T13:32:51.000Z</time>
      </trkpt>
      <trkpt lat="47.62067" lon="6.86616">
        <ele>373.20001220703</ele>
        <time>2023-08-03T13:32:58.000Z</time>
      </trkpt>
      <trkpt lat="47.62071" lon="6.86611">
        <ele>373.39999389648</ele>
        <time>2023-08-03T13:32:59.000Z</time>
      </trkpt>
      <trkpt lat="47.62079" lon="6.86589">
        <ele>373.39999389648</ele>
        <time>2023-08-03T13:33:02.000Z</time>
      </trkpt>
      <trkpt lat="47.62102" lon="6.8652">
        <ele>372.79998779297</ele>
        <time>2023-08-03T13:33:11.000Z</time>
      </trkpt>
      <trkpt lat="47.62118" lon="6.86474">
        <ele>372.60000610352</ele>
        <time>2023-08-03T13:33:17.000Z</time>
      </trkpt>
      <trkpt lat="47.62121" lon="6.86467">
        <ele>372.60000610352</ele>
        <time>2023-08-03T13:33:18.000Z</time>
      </trkpt>
      <trkpt lat="47.62142" lon="6.86406">
        <ele>372.20001220703</ele>
        <time>2023-08-03T13:33:26.000Z</time>
      </trkpt>
      <trkpt lat="47.62168" lon="6.86337">
        <ele>372.79998779297</ele>
        <time>2023-08-03T13:33:35.000Z</time>
      </trkpt>
      <trkpt lat="47.62186" lon="6.86296">
        <ele>373.39999389648</ele>
        <time>2023-08-03T13:33:41.000Z</time>
      </trkpt>
      <trkpt lat="47.62197" lon="6.86271">
        <ele>373.39999389648</ele>
        <time>2023-08-03T13:33:45.000Z</time>
      </trkpt>
      <trkpt lat="47.62206" lon="6.86263">
        <ele>373.39999389648</ele>
        <time>2023-08-03T13:33:47.000Z</time>
      </trkpt>
      <trkpt lat="47.62215" lon="6.86264">
        <ele>373.39999389648</ele>
        <time>2023-08-03T13:33:49.000Z</time>
      </trkpt>
      <trkpt lat="47.62221" lon="6.86265">
        <ele>373.39999389648</ele>
        <time>2023-08-03T13:33:50.000Z</time>
      </trkpt>
      <trkpt lat="47.62226" lon="6.86266">
        <ele>373.39999389648</ele>
        <time>2023-08-03T13:33:51.000Z</time>
      </trkpt>
      <trkpt lat="47.62252" lon="6.86277">
        <ele>373.39999389648</ele>
        <time>2023-08-03T13:33:56.000Z</time>
      </trkpt>
      <trkpt lat="47.62261" lon="6.86281">
        <ele>373.60000610352</ele>
        <time>2023-08-03T13:33:58.000Z</time>
      </trkpt>
      <trkpt lat="47.62267" lon="6.86284">
        <ele>373.60000610352</ele>
        <time>2023-08-03T13:33:59.000Z</time>
      </trkpt>
      <trkpt lat="47.62281" lon="6.86291">
        <ele>373.79998779297</ele>
        <time>2023-08-03T13:34:03.000Z</time>
      </trkpt>
      <trkpt lat="47.62289" lon="6.86295">
        <ele>374.20001220703</ele>
        <time>2023-08-03T13:34:06.000Z</time>
      </trkpt>
      <trkpt lat="47.62292" lon="6.86294">
        <ele>374.20001220703</ele>
        <time>2023-08-03T13:34:07.000Z</time>
      </trkpt>
      <trkpt lat="47.62303" lon="6.86292">
        <ele>374.39999389648</ele>
        <time>2023-08-03T13:34:10.000Z</time>
      </trkpt>
      <trkpt lat="47.62307" lon="6.86295">
        <ele>374.39999389648</ele>
        <time>2023-08-03T13:34:11.000Z</time>
      </trkpt>
      <trkpt lat="47.62316" lon="6.86302">
        <ele>374.39999389648</ele>
        <time>2023-08-03T13:34:13.000Z</time>
      </trkpt>
      <trkpt lat="47.62336" lon="6.86316">
        <ele>374.39999389648</ele>
        <time>2023-08-03T13:34:17.000Z</time>
      </trkpt>
      <trkpt lat="47.62353" lon="6.86326">
        <ele>374.60000610352</ele>
        <time>2023-08-03T13:34:20.000Z</time>
      </trkpt>
      <trkpt lat="47.6237" lon="6.86333">
        <ele>374.79998779297</ele>
        <time>2023-08-03T13:34:23.000Z</time>
      </trkpt>
      <trkpt lat="47.62376" lon="6.86334">
        <ele>374.79998779297</ele>
        <time>2023-08-03T13:34:24.000Z</time>
      </trkpt>
      <trkpt lat="47.62406" lon="6.86342">
        <ele>374.79998779297</ele>
        <time>2023-08-03T13:34:29.000Z</time>
      </trkpt>
      <trkpt lat="47.62416" lon="6.86342">
        <ele>374.60000610352</ele>
        <time>2023-08-03T13:34:31.000Z</time>
      </trkpt>
      <trkpt lat="47.62451" lon="6.86338">
        <ele>375</ele>
        <time>2023-08-03T13:34:37.000Z</time>
      </trkpt>
      <trkpt lat="47.62458" lon="6.86335">
        <ele>375</ele>
        <time>2023-08-03T13:34:38.000Z</time>
      </trkpt>
      <trkpt lat="47.62497" lon="6.86319">
        <ele>375.60000610352</ele>
        <time>2023-08-03T13:34:45.000Z</time>
      </trkpt>
      <trkpt lat="47.62503" lon="6.86317">
        <ele>375.79998779297</ele>
        <time>2023-08-03T13:34:46.000Z</time>
      </trkpt>
      <trkpt lat="47.62509" lon="6.86314">
        <ele>375.79998779297</ele>
        <time>2023-08-03T13:34:47.000Z</time>
      </trkpt>
      <trkpt lat="47.62518" lon="6.86311">
        <ele>376</ele>
        <time>2023-08-03T13:34:49.000Z</time>
      </trkpt>
      <trkpt lat="47.62528" lon="6.86308">
        <ele>376</ele>
        <time>2023-08-03T13:34:51.000Z</time>
      </trkpt>
      <trkpt lat="47.62547" lon="6.86301">
        <ele>376.20001220703</ele>
        <time>2023-08-03T13:34:54.000Z</time>
      </trkpt>
      <trkpt lat="47.62564" lon="6.86297">
        <ele>376.39999389648</ele>
        <time>2023-08-03T13:34:57.000Z</time>
      </trkpt>
      <trkpt lat="47.62575" lon="6.86298">
        <ele>376.39999389648</ele>
        <time>2023-08-03T13:34:59.000Z</time>
      </trkpt>
      <trkpt lat="47.62585" lon="6.863">
        <ele>376.60000610352</ele>
        <time>2023-08-03T13:35:01.000Z</time>
      </trkpt>
      <trkpt lat="47.62597" lon="6.86303">
        <ele>376.79998779297</ele>
        <time>2023-08-03T13:35:03.000Z</time>
      </trkpt>
      <trkpt lat="47.6262" lon="6.86314">
        <ele>377</ele>
        <time>2023-08-03T13:35:07.000Z</time>
      </trkpt>
      <trkpt lat="47.6265" lon="6.86338">
        <ele>377.20001220703</ele>
        <time>2023-08-03T13:35:13.000Z</time>
      </trkpt>
      <trkpt lat="47.62654" lon="6.86344">
        <ele>377.20001220703</ele>
        <time>2023-08-03T13:35:14.000Z</time>
      </trkpt>
      <trkpt lat="47.62689" lon="6.8639">
        <ele>377.79998779297</ele>
        <time>2023-08-03T13:35:22.000Z</time>
      </trkpt>
      <trkpt lat="47.62698" lon="6.86402">
        <ele>377.79998779297</ele>
        <time>2023-08-03T13:35:24.000Z</time>
      </trkpt>
      <trkpt lat="47.62707" lon="6.86412">
        <ele>378</ele>
        <time>2023-08-03T13:35:26.000Z</time>
      </trkpt>
      <trkpt lat="47.62717" lon="6.86421">
        <ele>378</ele>
        <time>2023-08-03T13:35:28.000Z</time>
      </trkpt>
      <trkpt lat="47.62753" lon="6.86448">
        <ele>377.79998779297</ele>
        <time>2023-08-03T13:35:35.000Z</time>
      </trkpt>
      <trkpt lat="47.62798" lon="6.86471">
        <ele>376.79998779297</ele>
        <time>2023-08-03T13:35:43.000Z</time>
      </trkpt>
      <trkpt lat="47.62814" lon="6.86473">
        <ele>376.60000610352</ele>
        <time>2023-08-03T13:35:46.000Z</time>
      </trkpt>
      <trkpt lat="47.62823" lon="6.86471">
        <ele>376.60000610352</ele>
        <time>2023-08-03T13:35:48.000Z</time>
      </trkpt>
      <trkpt lat="47.6284" lon="6.86464">
        <ele>376.60000610352</ele>
        <time>2023-08-03T13:35:53.000Z</time>
      </trkpt>
      <trkpt lat="47.62849" lon="6.86444">
        <ele>376.79998779297</ele>
        <time>2023-08-03T13:35:58.000Z</time>
      </trkpt>
      <trkpt lat="47.62855" lon="6.86437">
        <ele>376.60000610352</ele>
        <time>2023-08-03T13:36:01.000Z</time>
      </trkpt>
      <trkpt lat="47.62858" lon="6.86437">
        <ele>376.60000610352</ele>
        <time>2023-08-03T13:36:02.000Z</time>
      </trkpt>
      <trkpt lat="47.62861" lon="6.8644">
        <ele>376.39999389648</ele>
        <time>2023-08-03T13:36:03.000Z</time>
      </trkpt>
      <trkpt lat="47.62866" lon="6.86447">
        <ele>376.39999389648</ele>
        <time>2023-08-03T13:36:05.000Z</time>
      </trkpt>
      <trkpt lat="47.6287" lon="6.86452">
        <ele>376.20001220703</ele>
        <time>2023-08-03T13:36:06.000Z</time>
      </trkpt>
      <trkpt lat="47.62881" lon="6.86455">
        <ele>376</ele>
        <time>2023-08-03T13:36:09.000Z</time>
      </trkpt>
      <trkpt lat="47.62891" lon="6.86452">
        <ele>375.79998779297</ele>
        <time>2023-08-03T13:36:11.000Z</time>
      </trkpt>
      <trkpt lat="47.62905" lon="6.86445">
        <ele>375.60000610352</ele>
        <time>2023-08-03T13:36:14.000Z</time>
      </trkpt>
      <trkpt lat="47.62941" lon="6.86434">
        <ele>375.39999389648</ele>
        <time>2023-08-03T13:36:21.000Z</time>
      </trkpt>
      <trkpt lat="47.62971" lon="6.86439">
        <ele>376.20001220703</ele>
        <time>2023-08-03T13:36:27.000Z</time>
      </trkpt>
      <trkpt lat="47.62991" lon="6.86443">
        <ele>376.60000610352</ele>
        <time>2023-08-03T13:36:31.000Z</time>
      </trkpt>
      <trkpt lat="47.62996" lon="6.86443">
        <ele>376.79998779297</ele>
        <time>2023-08-03T13:36:32.000Z</time>
      </trkpt>
      <trkpt lat="47.63" lon="6.86442">
        <ele>376.79998779297</ele>
        <time>2023-08-03T13:36:33.000Z</time>
      </trkpt>
      <trkpt lat="47.63004" lon="6.8644">
        <ele>377</ele>
        <time>2023-08-03T13:36:34.000Z</time>
      </trkpt>
      <trkpt lat="47.63009" lon="6.86437">
        <ele>377</ele>
        <time>2023-08-03T13:36:35.000Z</time>
      </trkpt>
      <trkpt lat="47.63018" lon="6.8643">
        <ele>377.20001220703</ele>
        <time>2023-08-03T13:36:37.000Z</time>
      </trkpt>
      <trkpt lat="47.63025" lon="6.86421">
        <ele>377</ele>
        <time>2023-08-03T13:36:39.000Z</time>
      </trkpt>
      <trkpt lat="47.63053" lon="6.86375">
        <ele>377.20001220703</ele>
        <time>2023-08-03T13:36:47.000Z</time>
      </trkpt>
      <trkpt lat="47.6306" lon="6.86352">
        <ele>377.39999389648</ele>
        <time>2023-08-03T13:36:51.000Z</time>
      </trkpt>
      <trkpt lat="47.63066" lon="6.86337">
        <ele>377.39999389648</ele>
        <time>2023-08-03T13:36:55.000Z</time>
      </trkpt>
      <trkpt lat="47.63068" lon="6.86331">
        <ele>377.39999389648</ele>
        <time>2023-08-03T13:36:56.000Z</time>
      </trkpt>
      <trkpt lat="47.63073" lon="6.86321">
        <ele>377.60000610352</ele>
        <time>2023-08-03T13:36:58.000Z</time>
      </trkpt>
      <trkpt lat="47.63076" lon="6.86307">
        <ele>377.60000610352</ele>
        <time>2023-08-03T13:37:00.000Z</time>
      </trkpt>
      <trkpt lat="47.63079" lon="6.86298">
        <ele>377.39999389648</ele>
        <time>2023-08-03T13:37:02.000Z</time>
      </trkpt>
      <trkpt lat="47.63085" lon="6.8629">
        <ele>377.39999389648</ele>
        <time>2023-08-03T13:37:04.000Z</time>
      </trkpt>
      <trkpt lat="47.631" lon="6.86282">
        <ele>377.79998779297</ele>
        <time>2023-08-03T13:37:09.000Z</time>
      </trkpt>
      <trkpt lat="47.63101" lon="6.86282">
        <ele>377.79998779297</ele>
        <time>2023-08-03T13:37:11.000Z</time>
      </trkpt>
      <trkpt lat="47.63101" lon="6.86282">
        <ele>377.79998779297</ele>
        <time>2023-08-03T13:37:12.000Z</time>
      </trkpt>
      <trkpt lat="47.63106" lon="6.86276">
        <ele>378.39999389648</ele>
        <time>2023-08-03T13:37:59.000Z</time>
      </trkpt>
      <trkpt lat="47.63122" lon="6.86266">
        <ele>378.20001220703</ele>
        <time>2023-08-03T13:38:05.000Z</time>
      </trkpt>
      <trkpt lat="47.6313" lon="6.86256">
        <ele>378.20001220703</ele>
        <time>2023-08-03T13:38:09.000Z</time>
      </trkpt>
      <trkpt lat="47.6313" lon="6.86251">
        <ele>378.20001220703</ele>
        <time>2023-08-03T13:38:10.000Z</time>
      </trkpt>
      <trkpt lat="47.63124" lon="6.86227">
        <ele>378</ele>
        <time>2023-08-03T13:38:16.000Z</time>
      </trkpt>
      <trkpt lat="47.63119" lon="6.86211">
        <ele>377.79998779297</ele>
        <time>2023-08-03T13:38:21.000Z</time>
      </trkpt>
      <trkpt lat="47.63114" lon="6.86197">
        <ele>377.60000610352</ele>
        <time>2023-08-03T13:38:24.000Z</time>
      </trkpt>
      <trkpt lat="47.63112" lon="6.86184">
        <ele>377.79998779297</ele>
        <time>2023-08-03T13:38:26.000Z</time>
      </trkpt>
      <trkpt lat="47.63098" lon="6.86157">
        <ele>378</ele>
        <time>2023-08-03T13:38:32.000Z</time>
      </trkpt>
      <trkpt lat="47.6309" lon="6.86147">
        <ele>378.20001220703</ele>
        <time>2023-08-03T13:38:36.000Z</time>
      </trkpt>
      <trkpt lat="47.63088" lon="6.86142">
        <ele>377.79998779297</ele>
        <time>2023-08-03T13:38:41.000Z</time>
      </trkpt>
      <trkpt lat="47.63088" lon="6.86133">
        <ele>377.39999389648</ele>
        <time>2023-08-03T13:38:46.000Z</time>
      </trkpt>
      <trkpt lat="47.63088" lon="6.86126">
        <ele>377.39999389648</ele>
        <time>2023-08-03T13:38:49.000Z</time>
      </trkpt>
      <trkpt lat="47.63088" lon="6.86125">
        <ele>377.39999389648</ele>
        <time>2023-08-03T13:38:50.000Z</time>
      </trkpt>
      <trkpt lat="47.63088" lon="6.86124">
        <ele>377.39999389648</ele>
        <time>2023-08-03T13:38:53.000Z</time>
      </trkpt>
      <trkpt lat="47.63078" lon="6.86146">
        <ele>377</ele>
        <time>2023-08-03T13:47:31.000Z</time>
      </trkpt>
      <trkpt lat="47.63091" lon="6.86148">
        <ele>377</ele>
        <time>2023-08-03T13:47:36.000Z</time>
      </trkpt>
      <trkpt lat="47.63108" lon="6.86169">
        <ele>377</ele>
        <time>2023-08-03T13:47:42.000Z</time>
      </trkpt>
      <trkpt lat="47.63123" lon="6.86196">
        <ele>377</ele>
        <time>2023-08-03T13:47:49.000Z</time>
      </trkpt>
      <trkpt lat="47.63129" lon="6.8621">
        <ele>376.79998779297</ele>
        <time>2023-08-03T13:47:53.000Z</time>
      </trkpt>
      <trkpt lat="47.63132" lon="6.86211">
        <ele>376.79998779297</ele>
        <time>2023-08-03T13:47:54.000Z</time>
      </trkpt>
      <trkpt lat="47.63147" lon="6.86205">
        <ele>376.79998779297</ele>
        <time>2023-08-03T13:47:58.000Z</time>
      </trkpt>
      <trkpt lat="47.63176" lon="6.86189">
        <ele>377.20001220703</ele>
        <time>2023-08-03T13:48:05.000Z</time>
      </trkpt>
      <trkpt lat="47.6321" lon="6.8617">
        <ele>377</ele>
        <time>2023-08-03T13:48:13.000Z</time>
      </trkpt>
      <trkpt lat="47.63229" lon="6.86161">
        <ele>377</ele>
        <time>2023-08-03T13:48:19.000Z</time>
      </trkpt>
      <trkpt lat="47.63241" lon="6.86159">
        <ele>377.20001220703</ele>
        <time>2023-08-03T13:48:24.000Z</time>
      </trkpt>
      <trkpt lat="47.63254" lon="6.86148">
        <ele>377.39999389648</ele>
        <time>2023-08-03T13:48:28.000Z</time>
      </trkpt>
      <trkpt lat="47.63278" lon="6.86132">
        <ele>377.79998779297</ele>
        <time>2023-08-03T13:48:35.000Z</time>
      </trkpt>
      <trkpt lat="47.6328" lon="6.86131">
        <ele>377.79998779297</ele>
        <time>2023-08-03T13:48:37.000Z</time>
      </trkpt>
      <trkpt lat="47.63282" lon="6.86132">
        <ele>377.79998779297</ele>
        <time>2023-08-03T13:48:38.000Z</time>
      </trkpt>
      <trkpt lat="47.63283" lon="6.86133">
        <ele>377.79998779297</ele>
        <time>2023-08-03T13:48:39.000Z</time>
      </trkpt>
      <trkpt lat="47.63286" lon="6.86143">
        <ele>378</ele>
        <time>2023-08-03T13:48:42.000Z</time>
      </trkpt>
      <trkpt lat="47.6329" lon="6.86159">
        <ele>378.39999389648</ele>
        <time>2023-08-03T13:48:47.000Z</time>
      </trkpt>
      <trkpt lat="47.63295" lon="6.86154">
        <ele>378.60000610352</ele>
        <time>2023-08-03T13:48:50.000Z</time>
      </trkpt>
      <trkpt lat="47.63308" lon="6.86146">
        <ele>378.60000610352</ele>
        <time>2023-08-03T13:48:54.000Z</time>
      </trkpt>
      <trkpt lat="47.63332" lon="6.86135">
        <ele>378.39999389648</ele>
        <time>2023-08-03T13:49:00.000Z</time>
      </trkpt>
      <trkpt lat="47.63355" lon="6.86124">
        <ele>378.60000610352</ele>
        <time>2023-08-03T13:49:06.000Z</time>
      </trkpt>
      <trkpt lat="47.63364" lon="6.86118">
        <ele>378.79998779297</ele>
        <time>2023-08-03T13:49:08.000Z</time>
      </trkpt>
      <trkpt lat="47.63383" lon="6.86108">
        <ele>379</ele>
        <time>2023-08-03T13:49:12.000Z</time>
      </trkpt>
      <trkpt lat="47.63386" lon="6.86106">
        <ele>379</ele>
        <time>2023-08-03T13:49:13.000Z</time>
      </trkpt>
      <trkpt lat="47.63407" lon="6.86097">
        <ele>379.20001220703</ele>
        <time>2023-08-03T13:49:19.000Z</time>
      </trkpt>
      <trkpt lat="47.6342" lon="6.86096">
        <ele>379.39999389648</ele>
        <time>2023-08-03T13:49:24.000Z</time>
      </trkpt>
      <trkpt lat="47.63438" lon="6.8609">
        <ele>379.39999389648</ele>
        <time>2023-08-03T13:49:28.000Z</time>
      </trkpt>
      <trkpt lat="47.63453" lon="6.86084">
        <ele>379.39999389648</ele>
        <time>2023-08-03T13:49:31.000Z</time>
      </trkpt>
      <trkpt lat="47.63462" lon="6.8608">
        <ele>379.20001220703</ele>
        <time>2023-08-03T13:49:33.000Z</time>
      </trkpt>
      <trkpt lat="47.63481" lon="6.86072">
        <ele>378.79998779297</ele>
        <time>2023-08-03T13:49:37.000Z</time>
      </trkpt>
      <trkpt lat="47.63489" lon="6.86067">
        <ele>378.39999389648</ele>
        <time>2023-08-03T13:49:39.000Z</time>
      </trkpt>
      <trkpt lat="47.63528" lon="6.86045">
        <ele>378</ele>
        <time>2023-08-03T13:49:48.000Z</time>
      </trkpt>
      <trkpt lat="47.63544" lon="6.86033">
        <ele>378.39999389648</ele>
        <time>2023-08-03T13:49:53.000Z</time>
      </trkpt>
      <trkpt lat="47.63558" lon="6.86021">
        <ele>378.79998779297</ele>
        <time>2023-08-03T13:49:58.000Z</time>
      </trkpt>
      <trkpt lat="47.63572" lon="6.86008">
        <ele>379.20001220703</ele>
        <time>2023-08-03T13:50:03.000Z</time>
      </trkpt>
      <trkpt lat="47.63603" lon="6.85979">
        <ele>379</ele>
        <time>2023-08-03T13:50:11.000Z</time>
      </trkpt>
      <trkpt lat="47.63625" lon="6.85955">
        <ele>378.79998779297</ele>
        <time>2023-08-03T13:50:16.000Z</time>
      </trkpt>
      <trkpt lat="47.6364" lon="6.85936">
        <ele>378.79998779297</ele>
        <time>2023-08-03T13:50:21.000Z</time>
      </trkpt>
      <trkpt lat="47.6365" lon="6.85927">
        <ele>379.20001220703</ele>
        <time>2023-08-03T13:50:26.000Z</time>
      </trkpt>
      <trkpt lat="47.6365" lon="6.85925">
        <ele>379.20001220703</ele>
        <time>2023-08-03T13:50:27.000Z</time>
      </trkpt>
      <trkpt lat="47.6365" lon="6.85925">
        <ele>379.20001220703</ele>
        <time>2023-08-03T13:50:29.000Z</time>
      </trkpt>
      <trkpt lat="47.63648" lon="6.85918">
        <ele>379</ele>
        <time>2023-08-03T13:50:33.000Z</time>
      </trkpt>
      <trkpt lat="47.63643" lon="6.85909">
        <ele>379</ele>
        <time>2023-08-03T13:50:36.000Z</time>
      </trkpt>
      <trkpt lat="47.63632" lon="6.85893">
        <ele>378.39999389648</ele>
        <time>2023-08-03T13:50:41.000Z</time>
      </trkpt>
      <trkpt lat="47.63631" lon="6.8589">
        <ele>378.20001220703</ele>
        <time>2023-08-03T13:50:42.000Z</time>
      </trkpt>
      <trkpt lat="47.6363" lon="6.85884">
        <ele>378.20001220703</ele>
        <time>2023-08-03T13:50:44.000Z</time>
      </trkpt>
      <trkpt lat="47.63638" lon="6.85875">
        <ele>378</ele>
        <time>2023-08-03T13:50:48.000Z</time>
      </trkpt>
      <trkpt lat="47.6364" lon="6.85873">
        <ele>378</ele>
        <time>2023-08-03T13:50:49.000Z</time>
      </trkpt>
      <trkpt lat="47.63651" lon="6.85864">
        <ele>377.79998779297</ele>
        <time>2023-08-03T13:50:54.000Z</time>
      </trkpt>
      <trkpt lat="47.63653" lon="6.85862">
        <ele>377.79998779297</ele>
        <time>2023-08-03T13:50:55.000Z</time>
      </trkpt>
      <trkpt lat="47.63676" lon="6.85844">
        <ele>377.60000610352</ele>
        <time>2023-08-03T13:51:04.000Z</time>
      </trkpt>
      <trkpt lat="47.63692" lon="6.85835">
        <ele>377.79998779297</ele>
        <time>2023-08-03T13:51:10.000Z</time>
      </trkpt>
      <trkpt lat="47.63719" lon="6.85829">
        <ele>378.60000610352</ele>
        <time>2023-08-03T13:51:17.000Z</time>
      </trkpt>
      <trkpt lat="47.63733" lon="6.85823">
        <ele>378.79998779297</ele>
        <time>2023-08-03T13:51:21.000Z</time>
      </trkpt>
      <trkpt lat="47.63741" lon="6.85819">
        <ele>378.79998779297</ele>
        <time>2023-08-03T13:51:24.000Z</time>
      </trkpt>
      <trkpt lat="47.63743" lon="6.85817">
        <ele>378.79998779297</ele>
        <time>2023-08-03T13:51:25.000Z</time>
      </trkpt>
      <trkpt lat="47.63745" lon="6.85811">
        <ele>378.79998779297</ele>
        <time>2023-08-03T13:51:27.000Z</time>
      </trkpt>
      <trkpt lat="47.63746" lon="6.85804">
        <ele>378.79998779297</ele>
        <time>2023-08-03T13:51:29.000Z</time>
      </trkpt>
      <trkpt lat="47.63749" lon="6.85802">
        <ele>378.79998779297</ele>
        <time>2023-08-03T13:51:31.000Z</time>
      </trkpt>
      <trkpt lat="47.6375" lon="6.85801">
        <ele>378.79998779297</ele>
        <time>2023-08-03T13:51:32.000Z</time>
      </trkpt>
      <trkpt lat="47.63758" lon="6.85798">
        <ele>378.60000610352</ele>
        <time>2023-08-03T13:51:36.000Z</time>
      </trkpt>
      <trkpt lat="47.63761" lon="6.85797">
        <ele>378.60000610352</ele>
        <time>2023-08-03T13:51:37.000Z</time>
      </trkpt>
      <trkpt lat="47.63776" lon="6.85793">
        <ele>378.60000610352</ele>
        <time>2023-08-03T13:51:42.000Z</time>
      </trkpt>
      <trkpt lat="47.63791" lon="6.85783">
        <ele>378.79998779297</ele>
        <time>2023-08-03T13:51:49.000Z</time>
      </trkpt>
      <trkpt lat="47.63793" lon="6.85781">
        <ele>378.79998779297</ele>
        <time>2023-08-03T13:51:50.000Z</time>
      </trkpt>
      <trkpt lat="47.63796" lon="6.85779">
        <ele>378.79998779297</ele>
        <time>2023-08-03T13:51:52.000Z</time>
      </trkpt>
      <trkpt lat="47.63797" lon="6.85778">
        <ele>378.79998779297</ele>
        <time>2023-08-03T13:51:53.000Z</time>
      </trkpt>
      <trkpt lat="47.63799" lon="6.85777">
        <ele>378.79998779297</ele>
        <time>2023-08-03T13:51:57.000Z</time>
      </trkpt>
      <trkpt lat="47.63801" lon="6.85776">
        <ele>378.60000610352</ele>
        <time>2023-08-03T13:52:33.000Z</time>
      </trkpt>
      <trkpt lat="47.63807" lon="6.85773">
        <ele>378.79998779297</ele>
        <time>2023-08-03T13:52:35.000Z</time>
      </trkpt>
      <trkpt lat="47.63824" lon="6.85766">
        <ele>379</ele>
        <time>2023-08-03T13:52:39.000Z</time>
      </trkpt>
      <trkpt lat="47.63857" lon="6.85759">
        <ele>379.20001220703</ele>
        <time>2023-08-03T13:52:45.000Z</time>
      </trkpt>
      <trkpt lat="47.6387" lon="6.85756">
        <ele>379</ele>
        <time>2023-08-03T13:52:47.000Z</time>
      </trkpt>
      <trkpt lat="47.63889" lon="6.85751">
        <ele>379.39999389648</ele>
        <time>2023-08-03T13:52:51.000Z</time>
      </trkpt>
      <trkpt lat="47.63893" lon="6.8575">
        <ele>379.39999389648</ele>
        <time>2023-08-03T13:52:52.000Z</time>
      </trkpt>
      <trkpt lat="47.63913" lon="6.85742">
        <ele>379.39999389648</ele>
        <time>2023-08-03T13:52:56.000Z</time>
      </trkpt>
      <trkpt lat="47.63923" lon="6.85741">
        <ele>379.60000610352</ele>
        <time>2023-08-03T13:52:58.000Z</time>
      </trkpt>
      <trkpt lat="47.63932" lon="6.85742">
        <ele>379.79998779297</ele>
        <time>2023-08-03T13:53:00.000Z</time>
      </trkpt>
      <trkpt lat="47.63943" lon="6.85741">
        <ele>380</ele>
        <time>2023-08-03T13:53:02.000Z</time>
      </trkpt>
      <trkpt lat="47.63958" lon="6.85736">
        <ele>380</ele>
        <time>2023-08-03T13:53:05.000Z</time>
      </trkpt>
      <trkpt lat="47.63972" lon="6.85733">
        <ele>380</ele>
        <time>2023-08-03T13:53:08.000Z</time>
      </trkpt>
      <trkpt lat="47.64018" lon="6.85729">
        <ele>380.20001220703</ele>
        <time>2023-08-03T13:53:17.000Z</time>
      </trkpt>
      <trkpt lat="47.64069" lon="6.85719">
        <ele>380.60000610352</ele>
        <time>2023-08-03T13:53:27.000Z</time>
      </trkpt>
      <trkpt lat="47.6408" lon="6.85717">
        <ele>380.60000610352</ele>
        <time>2023-08-03T13:53:29.000Z</time>
      </trkpt>
      <trkpt lat="47.64084" lon="6.85717">
        <ele>380.79998779297</ele>
        <time>2023-08-03T13:53:30.000Z</time>
      </trkpt>
      <trkpt lat="47.64099" lon="6.85717">
        <ele>381.20001220703</ele>
        <time>2023-08-03T13:53:33.000Z</time>
      </trkpt>
      <trkpt lat="47.64121" lon="6.85717">
        <ele>381.39999389648</ele>
        <time>2023-08-03T13:53:38.000Z</time>
      </trkpt>
      <trkpt lat="47.64127" lon="6.85717">
        <ele>381.39999389648</ele>
        <time>2023-08-03T13:53:40.000Z</time>
      </trkpt>
      <trkpt lat="47.64131" lon="6.85716">
        <ele>381.39999389648</ele>
        <time>2023-08-03T13:53:44.000Z</time>
      </trkpt>
      <trkpt lat="47.64131" lon="6.85716">
        <ele>381.39999389648</ele>
        <time>2023-08-03T13:53:45.000Z</time>
      </trkpt>
      <trkpt lat="47.64133" lon="6.85716">
        <ele>382.39999389648</ele>
        <time>2023-08-03T13:54:46.000Z</time>
      </trkpt>
      <trkpt lat="47.64139" lon="6.8572">
        <ele>382.39999389648</ele>
        <time>2023-08-03T13:54:48.000Z</time>
      </trkpt>
      <trkpt lat="47.64156" lon="6.8572">
        <ele>382.39999389648</ele>
        <time>2023-08-03T13:54:52.000Z</time>
      </trkpt>
      <trkpt lat="47.64185" lon="6.85719">
        <ele>382.39999389648</ele>
        <time>2023-08-03T13:54:58.000Z</time>
      </trkpt>
      <trkpt lat="47.64207" lon="6.85718">
        <ele>382.39999389648</ele>
        <time>2023-08-03T13:55:02.000Z</time>
      </trkpt>
      <trkpt lat="47.64219" lon="6.85715">
        <ele>382.20001220703</ele>
        <time>2023-08-03T13:55:04.000Z</time>
      </trkpt>
      <trkpt lat="47.64224" lon="6.85713">
        <ele>382.20001220703</ele>
        <time>2023-08-03T13:55:05.000Z</time>
      </trkpt>
      <trkpt lat="47.64244" lon="6.85702">
        <ele>382</ele>
        <time>2023-08-03T13:55:10.000Z</time>
      </trkpt>
      <trkpt lat="47.64279" lon="6.85685">
        <ele>381.60000610352</ele>
        <time>2023-08-03T13:55:17.000Z</time>
      </trkpt>
      <trkpt lat="47.64309" lon="6.8567">
        <ele>381.79998779297</ele>
        <time>2023-08-03T13:55:23.000Z</time>
      </trkpt>
      <trkpt lat="47.64316" lon="6.85667">
        <ele>382</ele>
        <time>2023-08-03T13:55:25.000Z</time>
      </trkpt>
      <trkpt lat="47.64338" lon="6.85655">
        <ele>382.20001220703</ele>
        <time>2023-08-03T13:55:31.000Z</time>
      </trkpt>
      <trkpt lat="47.64366" lon="6.85641">
        <ele>382.60000610352</ele>
        <time>2023-08-03T13:55:36.000Z</time>
      </trkpt>
      <trkpt lat="47.64393" lon="6.85634">
        <ele>382.60000610352</ele>
        <time>2023-08-03T13:55:40.000Z</time>
      </trkpt>
      <trkpt lat="47.64406" lon="6.85629">
        <ele>382.39999389648</ele>
        <time>2023-08-03T13:55:42.000Z</time>
      </trkpt>
      <trkpt lat="47.64443" lon="6.85609">
        <ele>382</ele>
        <time>2023-08-03T13:55:48.000Z</time>
      </trkpt>
      <trkpt lat="47.64488" lon="6.85585">
        <ele>383.20001220703</ele>
        <time>2023-08-03T13:55:56.000Z</time>
      </trkpt>
      <trkpt lat="47.645" lon="6.85579">
        <ele>383.39999389648</ele>
        <time>2023-08-03T13:55:58.000Z</time>
      </trkpt>
      <trkpt lat="47.6452" lon="6.85568">
        <ele>383.39999389648</ele>
        <time>2023-08-03T13:56:02.000Z</time>
      </trkpt>
      <trkpt lat="47.64557" lon="6.8555">
        <ele>383.39999389648</ele>
        <time>2023-08-03T13:56:09.000Z</time>
      </trkpt>
      <trkpt lat="47.64566" lon="6.85545">
        <ele>383.60000610352</ele>
        <time>2023-08-03T13:56:11.000Z</time>
      </trkpt>
      <trkpt lat="47.64593" lon="6.85531">
        <ele>384.20001220703</ele>
        <time>2023-08-03T13:56:17.000Z</time>
      </trkpt>
      <trkpt lat="47.64609" lon="6.85524">
        <ele>384.39999389648</ele>
        <time>2023-08-03T13:56:21.000Z</time>
      </trkpt>
      <trkpt lat="47.64617" lon="6.85519">
        <ele>384.60000610352</ele>
        <time>2023-08-03T13:56:23.000Z</time>
      </trkpt>
      <trkpt lat="47.64625" lon="6.85515">
        <ele>384.60000610352</ele>
        <time>2023-08-03T13:56:25.000Z</time>
      </trkpt>
      <trkpt lat="47.64629" lon="6.85513">
        <ele>384.60000610352</ele>
        <time>2023-08-03T13:56:26.000Z</time>
      </trkpt>
      <trkpt lat="47.64644" lon="6.85505">
        <ele>384.79998779297</ele>
        <time>2023-08-03T13:56:29.000Z</time>
      </trkpt>
      <trkpt lat="47.64673" lon="6.8549">
        <ele>384.60000610352</ele>
        <time>2023-08-03T13:56:35.000Z</time>
      </trkpt>
      <trkpt lat="47.64708" lon="6.85471">
        <ele>384.39999389648</ele>
        <time>2023-08-03T13:56:42.000Z</time>
      </trkpt>
      <trkpt lat="47.64718" lon="6.85466">
        <ele>384.39999389648</ele>
        <time>2023-08-03T13:56:44.000Z</time>
      </trkpt>
      <trkpt lat="47.64732" lon="6.8546">
        <ele>384.39999389648</ele>
        <time>2023-08-03T13:56:47.000Z</time>
      </trkpt>
      <trkpt lat="47.64743" lon="6.85454">
        <ele>384.39999389648</ele>
        <time>2023-08-03T13:56:51.000Z</time>
      </trkpt>
      <trkpt lat="47.6476" lon="6.85447">
        <ele>384.39999389648</ele>
        <time>2023-08-03T13:56:57.000Z</time>
      </trkpt>
      <trkpt lat="47.64767" lon="6.85443">
        <ele>384.39999389648</ele>
        <time>2023-08-03T13:56:59.000Z</time>
      </trkpt>
      <trkpt lat="47.6478" lon="6.85435">
        <ele>384.39999389648</ele>
        <time>2023-08-03T13:57:02.000Z</time>
      </trkpt>
      <trkpt lat="47.6479" lon="6.85429">
        <ele>384.39999389648</ele>
        <time>2023-08-03T13:57:04.000Z</time>
      </trkpt>
      <trkpt lat="47.64803" lon="6.85416">
        <ele>385</ele>
        <time>2023-08-03T13:57:07.000Z</time>
      </trkpt>
      <trkpt lat="47.64823" lon="6.85401">
        <ele>385.39999389648</ele>
        <time>2023-08-03T13:57:11.000Z</time>
      </trkpt>
      <trkpt lat="47.64833" lon="6.85393">
        <ele>385.79998779297</ele>
        <time>2023-08-03T13:57:13.000Z</time>
      </trkpt>
      <trkpt lat="47.64867" lon="6.85365">
        <ele>386.39999389648</ele>
        <time>2023-08-03T13:57:20.000Z</time>
      </trkpt>
      <trkpt lat="47.64872" lon="6.8536">
        <ele>386.39999389648</ele>
        <time>2023-08-03T13:57:21.000Z</time>
      </trkpt>
      <trkpt lat="47.64908" lon="6.85331">
        <ele>386.39999389648</ele>
        <time>2023-08-03T13:57:28.000Z</time>
      </trkpt>
      <trkpt lat="47.64922" lon="6.8532">
        <ele>386.20001220703</ele>
        <time>2023-08-03T13:57:32.000Z</time>
      </trkpt>
      <trkpt lat="47.64937" lon="6.85308">
        <ele>386</ele>
        <time>2023-08-03T13:57:37.000Z</time>
      </trkpt>
      <trkpt lat="47.64965" lon="6.85283">
        <ele>386</ele>
        <time>2023-08-03T13:57:43.000Z</time>
      </trkpt>
      <trkpt lat="47.64985" lon="6.85266">
        <ele>386.20001220703</ele>
        <time>2023-08-03T13:57:47.000Z</time>
      </trkpt>
      <trkpt lat="47.64996" lon="6.85258">
        <ele>386.20001220703</ele>
        <time>2023-08-03T13:57:49.000Z</time>
      </trkpt>
      <trkpt lat="47.65038" lon="6.85225">
        <ele>386.20001220703</ele>
        <time>2023-08-03T13:57:57.000Z</time>
      </trkpt>
      <trkpt lat="47.65043" lon="6.8522">
        <ele>386.20001220703</ele>
        <time>2023-08-03T13:57:58.000Z</time>
      </trkpt>
      <trkpt lat="47.65058" lon="6.85206">
        <ele>386.20001220703</ele>
        <time>2023-08-03T13:58:01.000Z</time>
      </trkpt>
      <trkpt lat="47.65098" lon="6.85166">
        <ele>386.79998779297</ele>
        <time>2023-08-03T13:58:09.000Z</time>
      </trkpt>
      <trkpt lat="47.6514" lon="6.85129">
        <ele>387.20001220703</ele>
        <time>2023-08-03T13:58:17.000Z</time>
      </trkpt>
      <trkpt lat="47.65175" lon="6.85098">
        <ele>387.60000610352</ele>
        <time>2023-08-03T13:58:24.000Z</time>
      </trkpt>
      <trkpt lat="47.6518" lon="6.85094">
        <ele>387.60000610352</ele>
        <time>2023-08-03T13:58:25.000Z</time>
      </trkpt>
      <trkpt lat="47.65186" lon="6.85091">
        <ele>387.79998779297</ele>
        <time>2023-08-03T13:58:26.000Z</time>
      </trkpt>
      <trkpt lat="47.65199" lon="6.85081">
        <ele>387.79998779297</ele>
        <time>2023-08-03T13:58:30.000Z</time>
      </trkpt>
      <trkpt lat="47.652" lon="6.8508">
        <ele>387.60000610352</ele>
        <time>2023-08-03T13:58:31.000Z</time>
      </trkpt>
      <trkpt lat="47.65201" lon="6.85079">
        <ele>387.60000610352</ele>
        <time>2023-08-03T13:58:33.000Z</time>
      </trkpt>
      <trkpt lat="47.65209" lon="6.85072">
        <ele>387.60000610352</ele>
        <time>2023-08-03T13:58:37.000Z</time>
      </trkpt>
      <trkpt lat="47.65221" lon="6.85061">
        <ele>387.79998779297</ele>
        <time>2023-08-03T13:58:43.000Z</time>
      </trkpt>
      <trkpt lat="47.6524" lon="6.85042">
        <ele>388</ele>
        <time>2023-08-03T13:58:48.000Z</time>
      </trkpt>
      <trkpt lat="47.65264" lon="6.85018">
        <ele>388.20001220703</ele>
        <time>2023-08-03T13:58:53.000Z</time>
      </trkpt>
      <trkpt lat="47.65269" lon="6.85015">
        <ele>388.20001220703</ele>
        <time>2023-08-03T13:58:54.000Z</time>
      </trkpt>
      <trkpt lat="47.65304" lon="6.8498">
        <ele>388.60000610352</ele>
        <time>2023-08-03T13:59:01.000Z</time>
      </trkpt>
      <trkpt lat="47.65309" lon="6.84975">
        <ele>388.60000610352</ele>
        <time>2023-08-03T13:59:02.000Z</time>
      </trkpt>
      <trkpt lat="47.65354" lon="6.84932">
        <ele>389.20001220703</ele>
        <time>2023-08-03T13:59:11.000Z</time>
      </trkpt>
      <trkpt lat="47.65359" lon="6.84928">
        <ele>389.39999389648</ele>
        <time>2023-08-03T13:59:12.000Z</time>
      </trkpt>
      <trkpt lat="47.65369" lon="6.8492">
        <ele>389.60000610352</ele>
        <time>2023-08-03T13:59:14.000Z</time>
      </trkpt>
      <trkpt lat="47.65397" lon="6.84894">
        <ele>390.20001220703</ele>
        <time>2023-08-03T13:59:20.000Z</time>
      </trkpt>
      <trkpt lat="47.65404" lon="6.84887">
        <ele>390.20001220703</ele>
        <time>2023-08-03T13:59:22.000Z</time>
      </trkpt>
      <trkpt lat="47.65411" lon="6.84878">
        <ele>390.20001220703</ele>
        <time>2023-08-03T13:59:25.000Z</time>
      </trkpt>
      <trkpt lat="47.65414" lon="6.84873">
        <ele>389.60000610352</ele>
        <time>2023-08-03T13:59:30.000Z</time>
      </trkpt>
      <trkpt lat="47.65414" lon="6.84873">
        <ele>389.60000610352</ele>
        <time>2023-08-03T13:59:31.000Z</time>
      </trkpt>
      <trkpt lat="47.65417" lon="6.8487">
        <ele>389</ele>
        <time>2023-08-03T13:59:40.000Z</time>
      </trkpt>
      <trkpt lat="47.65422" lon="6.84864">
        <ele>389</ele>
        <time>2023-08-03T13:59:42.000Z</time>
      </trkpt>
      <trkpt lat="47.65439" lon="6.84841">
        <ele>389.20001220703</ele>
        <time>2023-08-03T13:59:47.000Z</time>
      </trkpt>
      <trkpt lat="47.65455" lon="6.84821">
        <ele>389.20001220703</ele>
        <time>2023-08-03T13:59:51.000Z</time>
      </trkpt>
      <trkpt lat="47.65463" lon="6.8481">
        <ele>389.20001220703</ele>
        <time>2023-08-03T13:59:53.000Z</time>
      </trkpt>
      <trkpt lat="47.65488" lon="6.84773">
        <ele>389.79998779297</ele>
        <time>2023-08-03T13:59:59.000Z</time>
      </trkpt>
      <trkpt lat="47.65505" lon="6.84751">
        <ele>390.20001220703</ele>
        <time>2023-08-03T14:00:03.000Z</time>
      </trkpt>
      <trkpt lat="47.65517" lon="6.84736">
        <ele>390.20001220703</ele>
        <time>2023-08-03T14:00:06.000Z</time>
      </trkpt>
      <trkpt lat="47.65522" lon="6.84729">
        <ele>390.20001220703</ele>
        <time>2023-08-03T14:00:07.000Z</time>
      </trkpt>
      <trkpt lat="47.65542" lon="6.84705">
        <ele>390</ele>
        <time>2023-08-03T14:00:12.000Z</time>
      </trkpt>
      <trkpt lat="47.65583" lon="6.84656">
        <ele>390.20001220703</ele>
        <time>2023-08-03T14:00:21.000Z</time>
      </trkpt>
      <trkpt lat="47.6561" lon="6.84627">
        <ele>390.39999389648</ele>
        <time>2023-08-03T14:00:27.000Z</time>
      </trkpt>
      <trkpt lat="47.6562" lon="6.84618">
        <ele>390.60000610352</ele>
        <time>2023-08-03T14:00:29.000Z</time>
      </trkpt>
      <trkpt lat="47.65629" lon="6.84611">
        <ele>390.60000610352</ele>
        <time>2023-08-03T14:00:31.000Z</time>
      </trkpt>
      <trkpt lat="47.65641" lon="6.84603">
        <ele>390.60000610352</ele>
        <time>2023-08-03T14:00:33.000Z</time>
      </trkpt>
      <trkpt lat="47.65651" lon="6.84595">
        <ele>390.79998779297</ele>
        <time>2023-08-03T14:00:35.000Z</time>
      </trkpt>
      <trkpt lat="47.65702" lon="6.84558">
        <ele>390.79998779297</ele>
        <time>2023-08-03T14:00:45.000Z</time>
      </trkpt>
      <trkpt lat="47.6574" lon="6.84528">
        <ele>391.39999389648</ele>
        <time>2023-08-03T14:00:53.000Z</time>
      </trkpt>
      <trkpt lat="47.65785" lon="6.84496">
        <ele>391.39999389648</ele>
        <time>2023-08-03T14:01:02.000Z</time>
      </trkpt>
      <trkpt lat="47.65795" lon="6.8449">
        <ele>391.39999389648</ele>
        <time>2023-08-03T14:01:04.000Z</time>
      </trkpt>
      <trkpt lat="47.658" lon="6.84487">
        <ele>391.39999389648</ele>
        <time>2023-08-03T14:01:05.000Z</time>
      </trkpt>
      <trkpt lat="47.65826" lon="6.84475">
        <ele>391.39999389648</ele>
        <time>2023-08-03T14:01:10.000Z</time>
      </trkpt>
      <trkpt lat="47.65868" lon="6.84456">
        <ele>391.79998779297</ele>
        <time>2023-08-03T14:01:18.000Z</time>
      </trkpt>
      <trkpt lat="47.65922" lon="6.84436">
        <ele>392.79998779297</ele>
        <time>2023-08-03T14:01:28.000Z</time>
      </trkpt>
      <trkpt lat="47.65972" lon="6.84418">
        <ele>392.79998779297</ele>
        <time>2023-08-03T14:01:37.000Z</time>
      </trkpt>
      <trkpt lat="47.66005" lon="6.84404">
        <ele>393</ele>
        <time>2023-08-03T14:01:43.000Z</time>
      </trkpt>
      <trkpt lat="47.66028" lon="6.84395">
        <ele>393</ele>
        <time>2023-08-03T14:01:47.000Z</time>
      </trkpt>
      <trkpt lat="47.66079" lon="6.84376">
        <ele>393</ele>
        <time>2023-08-03T14:01:56.000Z</time>
      </trkpt>
      <trkpt lat="47.66131" lon="6.84356">
        <ele>393.39999389648</ele>
        <time>2023-08-03T14:02:05.000Z</time>
      </trkpt>
      <trkpt lat="47.66177" lon="6.8434">
        <ele>393.39999389648</ele>
        <time>2023-08-03T14:02:13.000Z</time>
      </trkpt>
      <trkpt lat="47.66216" lon="6.84323">
        <ele>393.60000610352</ele>
        <time>2023-08-03T14:02:20.000Z</time>
      </trkpt>
      <trkpt lat="47.66254" lon="6.843">
        <ele>393.39999389648</ele>
        <time>2023-08-03T14:02:27.000Z</time>
      </trkpt>
      <trkpt lat="47.66297" lon="6.84268">
        <ele>393.60000610352</ele>
        <time>2023-08-03T14:02:35.000Z</time>
      </trkpt>
      <trkpt lat="47.66341" lon="6.84248">
        <ele>393.60000610352</ele>
        <time>2023-08-03T14:02:43.000Z</time>
      </trkpt>
      <trkpt lat="47.66379" lon="6.84231">
        <ele>393.79998779297</ele>
        <time>2023-08-03T14:02:50.000Z</time>
      </trkpt>
      <trkpt lat="47.66421" lon="6.84219">
        <ele>394</ele>
        <time>2023-08-03T14:02:58.000Z</time>
      </trkpt>
      <trkpt lat="47.66425" lon="6.84217">
        <ele>394</ele>
        <time>2023-08-03T14:02:59.000Z</time>
      </trkpt>
      <trkpt lat="47.66436" lon="6.84212">
        <ele>394</ele>
        <time>2023-08-03T14:03:03.000Z</time>
      </trkpt>
      <trkpt lat="47.66442" lon="6.8421">
        <ele>394.39999389648</ele>
        <time>2023-08-03T14:03:08.000Z</time>
      </trkpt>
      <trkpt lat="47.66444" lon="6.8421">
        <ele>394.39999389648</ele>
        <time>2023-08-03T14:03:22.000Z</time>
      </trkpt>
      <trkpt lat="47.6645" lon="6.8421">
        <ele>394.39999389648</ele>
        <time>2023-08-03T14:03:25.000Z</time>
      </trkpt>
      <trkpt lat="47.66452" lon="6.84213">
        <ele>394.39999389648</ele>
        <time>2023-08-03T14:03:26.000Z</time>
      </trkpt>
      <trkpt lat="47.66456" lon="6.84228">
        <ele>394.20001220703</ele>
        <time>2023-08-03T14:03:29.000Z</time>
      </trkpt>
      <trkpt lat="47.66461" lon="6.84259">
        <ele>394.20001220703</ele>
        <time>2023-08-03T14:03:33.000Z</time>
      </trkpt>
      <trkpt lat="47.66473" lon="6.8431">
        <ele>394</ele>
        <time>2023-08-03T14:03:39.000Z</time>
      </trkpt>
      <trkpt lat="47.66481" lon="6.84353">
        <ele>394</ele>
        <time>2023-08-03T14:03:44.000Z</time>
      </trkpt>
      <trkpt lat="47.66482" lon="6.8436">
        <ele>393.79998779297</ele>
        <time>2023-08-03T14:03:45.000Z</time>
      </trkpt>
      <trkpt lat="47.66484" lon="6.84375">
        <ele>393.79998779297</ele>
        <time>2023-08-03T14:03:47.000Z</time>
      </trkpt>
      <trkpt lat="47.66486" lon="6.84384">
        <ele>393.79998779297</ele>
        <time>2023-08-03T14:03:49.000Z</time>
      </trkpt>
      <trkpt lat="47.6649" lon="6.84393">
        <ele>393.60000610352</ele>
        <time>2023-08-03T14:03:54.000Z</time>
      </trkpt>
      <trkpt lat="47.6649" lon="6.84393">
        <ele>393.60000610352</ele>
        <time>2023-08-03T14:03:55.000Z</time>
      </trkpt>
      <trkpt lat="47.66495" lon="6.84401">
        <ele>393.39999389648</ele>
        <time>2023-08-03T14:04:03.000Z</time>
      </trkpt>
      <trkpt lat="47.66497" lon="6.84404">
        <ele>393.39999389648</ele>
        <time>2023-08-03T14:04:04.000Z</time>
      </trkpt>
      <trkpt lat="47.66507" lon="6.84413">
        <ele>393.20001220703</ele>
        <time>2023-08-03T14:04:07.000Z</time>
      </trkpt>
      <trkpt lat="47.66511" lon="6.84411">
        <ele>393.20001220703</ele>
        <time>2023-08-03T14:04:08.000Z</time>
      </trkpt>
      <trkpt lat="47.66516" lon="6.84408">
        <ele>393.20001220703</ele>
        <time>2023-08-03T14:04:09.000Z</time>
      </trkpt>
      <trkpt lat="47.66529" lon="6.84392">
        <ele>393.20001220703</ele>
        <time>2023-08-03T14:04:12.000Z</time>
      </trkpt>
      <trkpt lat="47.66563" lon="6.84347">
        <ele>393.60000610352</ele>
        <time>2023-08-03T14:04:20.000Z</time>
      </trkpt>
      <trkpt lat="47.66577" lon="6.84333">
        <ele>393.79998779297</ele>
        <time>2023-08-03T14:04:23.000Z</time>
      </trkpt>
      <trkpt lat="47.66592" lon="6.84324">
        <ele>394.20001220703</ele>
        <time>2023-08-03T14:04:26.000Z</time>
      </trkpt>
      <trkpt lat="47.66597" lon="6.8432">
        <ele>394.20001220703</ele>
        <time>2023-08-03T14:04:27.000Z</time>
      </trkpt>
      <trkpt lat="47.66628" lon="6.84301">
        <ele>395</ele>
        <time>2023-08-03T14:04:33.000Z</time>
      </trkpt>
      <trkpt lat="47.66644" lon="6.8429">
        <ele>395.20001220703</ele>
        <time>2023-08-03T14:04:36.000Z</time>
      </trkpt>
      <trkpt lat="47.66649" lon="6.84287">
        <ele>395.20001220703</ele>
        <time>2023-08-03T14:04:37.000Z</time>
      </trkpt>
      <trkpt lat="47.66693" lon="6.84259">
        <ele>395.39999389648</ele>
        <time>2023-08-03T14:04:45.000Z</time>
      </trkpt>
      <trkpt lat="47.66724" lon="6.84235">
        <ele>396</ele>
        <time>2023-08-03T14:04:51.000Z</time>
      </trkpt>
      <trkpt lat="47.66735" lon="6.84227">
        <ele>396.39999389648</ele>
        <time>2023-08-03T14:04:53.000Z</time>
      </trkpt>
      <trkpt lat="47.66773" lon="6.84207">
        <ele>396.60000610352</ele>
        <time>2023-08-03T14:05:00.000Z</time>
      </trkpt>
      <trkpt lat="47.66783" lon="6.84204">
        <ele>396.39999389648</ele>
        <time>2023-08-03T14:05:02.000Z</time>
      </trkpt>
      <trkpt lat="47.66805" lon="6.84199">
        <ele>396.20001220703</ele>
        <time>2023-08-03T14:05:06.000Z</time>
      </trkpt>
      <trkpt lat="47.66837" lon="6.84196">
        <ele>396.20001220703</ele>
        <time>2023-08-03T14:05:12.000Z</time>
      </trkpt>
      <trkpt lat="47.66888" lon="6.84187">
        <ele>396.79998779297</ele>
        <time>2023-08-03T14:05:21.000Z</time>
      </trkpt>
      <trkpt lat="47.66911" lon="6.84182">
        <ele>397</ele>
        <time>2023-08-03T14:05:25.000Z</time>
      </trkpt>
      <trkpt lat="47.66929" lon="6.84183">
        <ele>397</ele>
        <time>2023-08-03T14:05:28.000Z</time>
      </trkpt>
      <trkpt lat="47.66935" lon="6.84184">
        <ele>397.20001220703</ele>
        <time>2023-08-03T14:05:29.000Z</time>
      </trkpt>
      <trkpt lat="47.66981" lon="6.84196">
        <ele>397.39999389648</ele>
        <time>2023-08-03T14:05:37.000Z</time>
      </trkpt>
      <trkpt lat="47.6702" lon="6.84199">
        <ele>397.60000610352</ele>
        <time>2023-08-03T14:05:44.000Z</time>
      </trkpt>
      <trkpt lat="47.67036" lon="6.84198">
        <ele>397.79998779297</ele>
        <time>2023-08-03T14:05:47.000Z</time>
      </trkpt>
      <trkpt lat="47.67053" lon="6.84199">
        <ele>398.39999389648</ele>
        <time>2023-08-03T14:05:50.000Z</time>
      </trkpt>
      <trkpt lat="47.67063" lon="6.84205">
        <ele>398.39999389648</ele>
        <time>2023-08-03T14:05:52.000Z</time>
      </trkpt>
      <trkpt lat="47.67072" lon="6.84215">
        <ele>398.79998779297</ele>
        <time>2023-08-03T14:05:54.000Z</time>
      </trkpt>
      <trkpt lat="47.67095" lon="6.84252">
        <ele>399.39999389648</ele>
        <time>2023-08-03T14:06:00.000Z</time>
      </trkpt>
      <trkpt lat="47.67106" lon="6.84268">
        <ele>399.60000610352</ele>
        <time>2023-08-03T14:06:03.000Z</time>
      </trkpt>
      <trkpt lat="47.67117" lon="6.84279">
        <ele>399.60000610352</ele>
        <time>2023-08-03T14:06:05.000Z</time>
      </trkpt>
      <trkpt lat="47.67131" lon="6.8429">
        <ele>399.60000610352</ele>
        <time>2023-08-03T14:06:08.000Z</time>
      </trkpt>
      <trkpt lat="47.67137" lon="6.84295">
        <ele>399.60000610352</ele>
        <time>2023-08-03T14:06:09.000Z</time>
      </trkpt>
      <trkpt lat="47.67177" lon="6.84325">
        <ele>399.79998779297</ele>
        <time>2023-08-03T14:06:17.000Z</time>
      </trkpt>
      <trkpt lat="47.67212" lon="6.84355">
        <ele>400</ele>
        <time>2023-08-03T14:06:24.000Z</time>
      </trkpt>
      <trkpt lat="47.67249" lon="6.84385">
        <ele>400.20001220703</ele>
        <time>2023-08-03T14:06:31.000Z</time>
      </trkpt>
      <trkpt lat="47.67282" lon="6.84393">
        <ele>400.39999389648</ele>
        <time>2023-08-03T14:06:37.000Z</time>
      </trkpt>
      <trkpt lat="47.67295" lon="6.84392">
        <ele>400.60000610352</ele>
        <time>2023-08-03T14:06:39.000Z</time>
      </trkpt>
      <trkpt lat="47.67312" lon="6.84388">
        <ele>400.79998779297</ele>
        <time>2023-08-03T14:06:42.000Z</time>
      </trkpt>
      <trkpt lat="47.67324" lon="6.84385">
        <ele>401</ele>
        <time>2023-08-03T14:06:44.000Z</time>
      </trkpt>
      <trkpt lat="47.67334" lon="6.84379">
        <ele>401.20001220703</ele>
        <time>2023-08-03T14:06:46.000Z</time>
      </trkpt>
      <trkpt lat="47.6735" lon="6.84366">
        <ele>401.20001220703</ele>
        <time>2023-08-03T14:06:49.000Z</time>
      </trkpt>
      <trkpt lat="47.67359" lon="6.84358">
        <ele>401.39999389648</ele>
        <time>2023-08-03T14:06:51.000Z</time>
      </trkpt>
      <trkpt lat="47.67369" lon="6.84351">
        <ele>401.39999389648</ele>
        <time>2023-08-03T14:06:53.000Z</time>
      </trkpt>
      <trkpt lat="47.67385" lon="6.8434">
        <ele>401.60000610352</ele>
        <time>2023-08-03T14:06:56.000Z</time>
      </trkpt>
      <trkpt lat="47.67399" lon="6.8433">
        <ele>401.79998779297</ele>
        <time>2023-08-03T14:06:59.000Z</time>
      </trkpt>
      <trkpt lat="47.67424" lon="6.84313">
        <ele>402.60000610352</ele>
        <time>2023-08-03T14:07:05.000Z</time>
      </trkpt>
      <trkpt lat="47.67431" lon="6.84307">
        <ele>402.79998779297</ele>
        <time>2023-08-03T14:07:07.000Z</time>
      </trkpt>
      <trkpt lat="47.67448" lon="6.84291">
        <ele>404</ele>
        <time>2023-08-03T14:07:12.000Z</time>
      </trkpt>
      <trkpt lat="47.67455" lon="6.84282">
        <ele>404.20001220703</ele>
        <time>2023-08-03T14:07:14.000Z</time>
      </trkpt>
      <trkpt lat="47.6746" lon="6.84267">
        <ele>405.60000610352</ele>
        <time>2023-08-03T14:07:17.000Z</time>
      </trkpt>
      <trkpt lat="47.67467" lon="6.84245">
        <ele>406.60000610352</ele>
        <time>2023-08-03T14:07:21.000Z</time>
      </trkpt>
      <trkpt lat="47.67473" lon="6.84218">
        <ele>406.79998779297</ele>
        <time>2023-08-03T14:07:26.000Z</time>
      </trkpt>
      <trkpt lat="47.67483" lon="6.84188">
        <ele>407.20001220703</ele>
        <time>2023-08-03T14:07:32.000Z</time>
      </trkpt>
      <trkpt lat="47.67487" lon="6.84177">
        <ele>407.60000610352</ele>
        <time>2023-08-03T14:07:34.000Z</time>
      </trkpt>
      <trkpt lat="47.67499" lon="6.84163">
        <ele>408.79998779297</ele>
        <time>2023-08-03T14:07:38.000Z</time>
      </trkpt>
      <trkpt lat="47.67523" lon="6.84147">
        <ele>409.60000610352</ele>
        <time>2023-08-03T14:07:45.000Z</time>
      </trkpt>
      <trkpt lat="47.67535" lon="6.84139">
        <ele>410</ele>
        <time>2023-08-03T14:07:48.000Z</time>
      </trkpt>
      <trkpt lat="47.67564" lon="6.8412">
        <ele>410.60000610352</ele>
        <time>2023-08-03T14:07:56.000Z</time>
      </trkpt>
      <trkpt lat="47.67576" lon="6.84114">
        <ele>411</ele>
        <time>2023-08-03T14:07:59.000Z</time>
      </trkpt>
      <trkpt lat="47.6759" lon="6.84106">
        <ele>412.20001220703</ele>
        <time>2023-08-03T14:08:03.000Z</time>
      </trkpt>
      <trkpt lat="47.67605" lon="6.84097">
        <ele>413.20001220703</ele>
        <time>2023-08-03T14:08:07.000Z</time>
      </trkpt>
      <trkpt lat="47.67608" lon="6.84094">
        <ele>413.39999389648</ele>
        <time>2023-08-03T14:08:08.000Z</time>
      </trkpt>
      <trkpt lat="47.67628" lon="6.84083">
        <ele>414.20001220703</ele>
        <time>2023-08-03T14:08:13.000Z</time>
      </trkpt>
      <trkpt lat="47.67641" lon="6.84076">
        <ele>414.79998779297</ele>
        <time>2023-08-03T14:08:16.000Z</time>
      </trkpt>
      <trkpt lat="47.67659" lon="6.84069">
        <ele>414.79998779297</ele>
        <time>2023-08-03T14:08:20.000Z</time>
      </trkpt>
      <trkpt lat="47.67668" lon="6.84066">
        <ele>415.20001220703</ele>
        <time>2023-08-03T14:08:23.000Z</time>
      </trkpt>
      <trkpt lat="47.67686" lon="6.84064">
        <ele>415.39999389648</ele>
        <time>2023-08-03T14:08:26.000Z</time>
      </trkpt>
      <trkpt lat="47.6771" lon="6.84064">
        <ele>415.79998779297</ele>
        <time>2023-08-03T14:08:31.000Z</time>
      </trkpt>
      <trkpt lat="47.67754" lon="6.84071">
        <ele>416.39999389648</ele>
        <time>2023-08-03T14:08:39.000Z</time>
      </trkpt>
      <trkpt lat="47.67794" lon="6.84074">
        <ele>416.60000610352</ele>
        <time>2023-08-03T14:08:46.000Z</time>
      </trkpt>
      <trkpt lat="47.67851" lon="6.84067">
        <ele>416.20001220703</ele>
        <time>2023-08-03T14:08:56.000Z</time>
      </trkpt>
      <trkpt lat="47.67857" lon="6.84066">
        <ele>416.20001220703</ele>
        <time>2023-08-03T14:08:57.000Z</time>
      </trkpt>
      <trkpt lat="47.67907" lon="6.84057">
        <ele>415.39999389648</ele>
        <time>2023-08-03T14:09:05.000Z</time>
      </trkpt>
      <trkpt lat="47.6792" lon="6.84054">
        <ele>415.39999389648</ele>
        <time>2023-08-03T14:09:07.000Z</time>
      </trkpt>
      <trkpt lat="47.67975" lon="6.84045">
        <ele>414.79998779297</ele>
        <time>2023-08-03T14:09:16.000Z</time>
      </trkpt>
      <trkpt lat="47.67981" lon="6.84044">
        <ele>414.79998779297</ele>
        <time>2023-08-03T14:09:17.000Z</time>
      </trkpt>
      <trkpt lat="47.68033" lon="6.84035">
        <ele>415.20001220703</ele>
        <time>2023-08-03T14:09:26.000Z</time>
      </trkpt>
      <trkpt lat="47.68039" lon="6.84034">
        <ele>415.20001220703</ele>
        <time>2023-08-03T14:09:27.000Z</time>
      </trkpt>
      <trkpt lat="47.68097" lon="6.84023">
        <ele>416</ele>
        <time>2023-08-03T14:09:37.000Z</time>
      </trkpt>
      <trkpt lat="47.68107" lon="6.84021">
        <ele>416.20001220703</ele>
        <time>2023-08-03T14:09:39.000Z</time>
      </trkpt>
      <trkpt lat="47.6812" lon="6.84019">
        <ele>416.39999389648</ele>
        <time>2023-08-03T14:09:41.000Z</time>
      </trkpt>
      <trkpt lat="47.68169" lon="6.84008">
        <ele>416.39999389648</ele>
        <time>2023-08-03T14:09:49.000Z</time>
      </trkpt>
      <trkpt lat="47.68225" lon="6.83993">
        <ele>415.79998779297</ele>
        <time>2023-08-03T14:09:58.000Z</time>
      </trkpt>
      <trkpt lat="47.68232" lon="6.83991">
        <ele>415.79998779297</ele>
        <time>2023-08-03T14:09:59.000Z</time>
      </trkpt>
      <trkpt lat="47.68278" lon="6.83977">
        <ele>415.79998779297</ele>
        <time>2023-08-03T14:10:07.000Z</time>
      </trkpt>
      <trkpt lat="47.68336" lon="6.8396">
        <ele>416.20001220703</ele>
        <time>2023-08-03T14:10:17.000Z</time>
      </trkpt>
      <trkpt lat="47.68342" lon="6.83958">
        <ele>416.20001220703</ele>
        <time>2023-08-03T14:10:18.000Z</time>
      </trkpt>
      <trkpt lat="47.68399" lon="6.83941">
        <ele>416.79998779297</ele>
        <time>2023-08-03T14:10:28.000Z</time>
      </trkpt>
      <trkpt lat="47.68427" lon="6.83934">
        <ele>417.20001220703</ele>
        <time>2023-08-03T14:10:33.000Z</time>
      </trkpt>
      <trkpt lat="47.68432" lon="6.83932">
        <ele>417.39999389648</ele>
        <time>2023-08-03T14:10:34.000Z</time>
      </trkpt>
      <trkpt lat="47.68447" lon="6.83929">
        <ele>417.79998779297</ele>
        <time>2023-08-03T14:10:37.000Z</time>
      </trkpt>
      <trkpt lat="47.68474" lon="6.83922">
        <ele>418.60000610352</ele>
        <time>2023-08-03T14:10:42.000Z</time>
      </trkpt>
      <trkpt lat="47.68512" lon="6.83913">
        <ele>419.39999389648</ele>
        <time>2023-08-03T14:10:49.000Z</time>
      </trkpt>
      <trkpt lat="47.68523" lon="6.83911">
        <ele>419.79998779297</ele>
        <time>2023-08-03T14:10:51.000Z</time>
      </trkpt>
      <trkpt lat="47.68567" lon="6.83908">
        <ele>420.39999389648</ele>
        <time>2023-08-03T14:10:59.000Z</time>
      </trkpt>
      <trkpt lat="47.6861" lon="6.83902">
        <ele>420.20001220703</ele>
        <time>2023-08-03T14:11:06.000Z</time>
      </trkpt>
      <trkpt lat="47.68658" lon="6.83879">
        <ele>419.39999389648</ele>
        <time>2023-08-03T14:11:14.000Z</time>
      </trkpt>
      <trkpt lat="47.6867" lon="6.83872">
        <ele>419.39999389648</ele>
        <time>2023-08-03T14:11:16.000Z</time>
      </trkpt>
      <trkpt lat="47.68686" lon="6.83858">
        <ele>418.79998779297</ele>
        <time>2023-08-03T14:11:19.000Z</time>
      </trkpt>
      <trkpt lat="47.68695" lon="6.83852">
        <ele>418.60000610352</ele>
        <time>2023-08-03T14:11:21.000Z</time>
      </trkpt>
      <trkpt lat="47.68704" lon="6.83848">
        <ele>418.20001220703</ele>
        <time>2023-08-03T14:11:23.000Z</time>
      </trkpt>
      <trkpt lat="47.68714" lon="6.83849">
        <ele>417.79998779297</ele>
        <time>2023-08-03T14:11:25.000Z</time>
      </trkpt>
      <trkpt lat="47.68719" lon="6.83851">
        <ele>417.60000610352</ele>
        <time>2023-08-03T14:11:26.000Z</time>
      </trkpt>
      <trkpt lat="47.68725" lon="6.83853">
        <ele>417.60000610352</ele>
        <time>2023-08-03T14:11:27.000Z</time>
      </trkpt>
      <trkpt lat="47.68736" lon="6.8385">
        <ele>417.39999389648</ele>
        <time>2023-08-03T14:11:29.000Z</time>
      </trkpt>
      <trkpt lat="47.68743" lon="6.83837">
        <ele>417.20001220703</ele>
        <time>2023-08-03T14:11:31.000Z</time>
      </trkpt>
      <trkpt lat="47.68743" lon="6.83828">
        <ele>417.20001220703</ele>
        <time>2023-08-03T14:11:32.000Z</time>
      </trkpt>
      <trkpt lat="47.68742" lon="6.83809">
        <ele>417.20001220703</ele>
        <time>2023-08-03T14:11:34.000Z</time>
      </trkpt>
      <trkpt lat="47.68745" lon="6.83791">
        <ele>417</ele>
        <time>2023-08-03T14:11:36.000Z</time>
      </trkpt>
      <trkpt lat="47.68762" lon="6.83749">
        <ele>417.20001220703</ele>
        <time>2023-08-03T14:11:41.000Z</time>
      </trkpt>
      <trkpt lat="47.68787" lon="6.837">
        <ele>417.39999389648</ele>
        <time>2023-08-03T14:11:48.000Z</time>
      </trkpt>
      <trkpt lat="47.68824" lon="6.83637">
        <ele>418</ele>
        <time>2023-08-03T14:11:58.000Z</time>
      </trkpt>
      <trkpt lat="47.68855" lon="6.83598">
        <ele>418.39999389648</ele>
        <time>2023-08-03T14:12:05.000Z</time>
      </trkpt>
      <trkpt lat="47.68865" lon="6.8359">
        <ele>418.39999389648</ele>
        <time>2023-08-03T14:12:07.000Z</time>
      </trkpt>
      <trkpt lat="47.68882" lon="6.83582">
        <ele>418.20001220703</ele>
        <time>2023-08-03T14:12:10.000Z</time>
      </trkpt>
      <trkpt lat="47.68894" lon="6.83578">
        <ele>417.79998779297</ele>
        <time>2023-08-03T14:12:12.000Z</time>
      </trkpt>
      <trkpt lat="47.68905" lon="6.83578">
        <ele>417.60000610352</ele>
        <time>2023-08-03T14:12:14.000Z</time>
      </trkpt>
      <trkpt lat="47.6894" lon="6.83576">
        <ele>416.79998779297</ele>
        <time>2023-08-03T14:12:20.000Z</time>
      </trkpt>
      <trkpt lat="47.68951" lon="6.83576">
        <ele>416.79998779297</ele>
        <time>2023-08-03T14:12:22.000Z</time>
      </trkpt>
      <trkpt lat="47.68977" lon="6.8358">
        <ele>416.60000610352</ele>
        <time>2023-08-03T14:12:27.000Z</time>
      </trkpt>
      <trkpt lat="47.68994" lon="6.83582">
        <ele>416.60000610352</ele>
        <time>2023-08-03T14:12:32.000Z</time>
      </trkpt>
      <trkpt lat="47.68995" lon="6.83583">
        <ele>416.60000610352</ele>
        <time>2023-08-03T14:12:35.000Z</time>
      </trkpt>
      <trkpt lat="47.68995" lon="6.83583">
        <ele>416.79998779297</ele>
        <time>2023-08-03T14:12:36.000Z</time>
      </trkpt>
      <trkpt lat="47.68997" lon="6.83583">
        <ele>417.20001220703</ele>
        <time>2023-08-03T14:16:19.000Z</time>
      </trkpt>
      <trkpt lat="47.69002" lon="6.83582">
        <ele>417.20001220703</ele>
        <time>2023-08-03T14:16:21.000Z</time>
      </trkpt>
      <trkpt lat="47.69024" lon="6.83583">
        <ele>417</ele>
        <time>2023-08-03T14:16:27.000Z</time>
      </trkpt>
      <trkpt lat="47.69051" lon="6.83588">
        <ele>416.79998779297</ele>
        <time>2023-08-03T14:16:33.000Z</time>
      </trkpt>
      <trkpt lat="47.69088" lon="6.83597">
        <ele>417</ele>
        <time>2023-08-03T14:16:40.000Z</time>
      </trkpt>
      <trkpt lat="47.69126" lon="6.83608">
        <ele>417.79998779297</ele>
        <time>2023-08-03T14:16:48.000Z</time>
      </trkpt>
      <trkpt lat="47.69145" lon="6.83612">
        <ele>418.39999389648</ele>
        <time>2023-08-03T14:16:53.000Z</time>
      </trkpt>
      <trkpt lat="47.6915" lon="6.83613">
        <ele>418.39999389648</ele>
        <time>2023-08-03T14:16:54.000Z</time>
      </trkpt>
      <trkpt lat="47.69159" lon="6.83614">
        <ele>418.39999389648</ele>
        <time>2023-08-03T14:16:56.000Z</time>
      </trkpt>
      <trkpt lat="47.69169" lon="6.83612">
        <ele>418.39999389648</ele>
        <time>2023-08-03T14:16:58.000Z</time>
      </trkpt>
      <trkpt lat="47.69195" lon="6.83602">
        <ele>418.79998779297</ele>
        <time>2023-08-03T14:17:04.000Z</time>
      </trkpt>
      <trkpt lat="47.69199" lon="6.83599">
        <ele>418.79998779297</ele>
        <time>2023-08-03T14:17:05.000Z</time>
      </trkpt>
      <trkpt lat="47.69233" lon="6.83576">
        <ele>419.39999389648</ele>
        <time>2023-08-03T14:17:13.000Z</time>
      </trkpt>
      <trkpt lat="47.69249" lon="6.83568">
        <ele>419.79998779297</ele>
        <time>2023-08-03T14:17:17.000Z</time>
      </trkpt>
      <trkpt lat="47.69256" lon="6.83564">
        <ele>419.79998779297</ele>
        <time>2023-08-03T14:17:19.000Z</time>
      </trkpt>
      <trkpt lat="47.69272" lon="6.83555">
        <ele>419.79998779297</ele>
        <time>2023-08-03T14:17:23.000Z</time>
      </trkpt>
      <trkpt lat="47.69277" lon="6.83553">
        <ele>419.79998779297</ele>
        <time>2023-08-03T14:17:24.000Z</time>
      </trkpt>
      <trkpt lat="47.69301" lon="6.8354">
        <ele>419.79998779297</ele>
        <time>2023-08-03T14:17:29.000Z</time>
      </trkpt>
      <trkpt lat="47.69335" lon="6.83522">
        <ele>420</ele>
        <time>2023-08-03T14:17:36.000Z</time>
      </trkpt>
      <trkpt lat="47.6936" lon="6.83512">
        <ele>420.39999389648</ele>
        <time>2023-08-03T14:17:41.000Z</time>
      </trkpt>
      <trkpt lat="47.69374" lon="6.8351">
        <ele>420.60000610352</ele>
        <time>2023-08-03T14:17:44.000Z</time>
      </trkpt>
      <trkpt lat="47.69383" lon="6.83507">
        <ele>420.60000610352</ele>
        <time>2023-08-03T14:17:46.000Z</time>
      </trkpt>
      <trkpt lat="47.69392" lon="6.83504">
        <ele>420.60000610352</ele>
        <time>2023-08-03T14:17:48.000Z</time>
      </trkpt>
      <trkpt lat="47.69397" lon="6.83503">
        <ele>420.60000610352</ele>
        <time>2023-08-03T14:17:49.000Z</time>
      </trkpt>
      <trkpt lat="47.69401" lon="6.83502">
        <ele>420.79998779297</ele>
        <time>2023-08-03T14:17:50.000Z</time>
      </trkpt>
      <trkpt lat="47.69421" lon="6.83501">
        <ele>421</ele>
        <time>2023-08-03T14:17:54.000Z</time>
      </trkpt>
      <trkpt lat="47.69449" lon="6.835">
        <ele>421</ele>
        <time>2023-08-03T14:17:59.000Z</time>
      </trkpt>
      <trkpt lat="47.69492" lon="6.83507">
        <ele>421.60000610352</ele>
        <time>2023-08-03T14:18:07.000Z</time>
      </trkpt>
      <trkpt lat="47.69497" lon="6.83508">
        <ele>421.60000610352</ele>
        <time>2023-08-03T14:18:08.000Z</time>
      </trkpt>
      <trkpt lat="47.69543" lon="6.83519">
        <ele>422.20001220703</ele>
        <time>2023-08-03T14:18:17.000Z</time>
      </trkpt>
      <trkpt lat="47.69553" lon="6.83521">
        <ele>422.60000610352</ele>
        <time>2023-08-03T14:18:19.000Z</time>
      </trkpt>
      <trkpt lat="47.6959" lon="6.83523">
        <ele>423.20001220703</ele>
        <time>2023-08-03T14:18:26.000Z</time>
      </trkpt>
      <trkpt lat="47.69617" lon="6.83522">
        <ele>423.79998779297</ele>
        <time>2023-08-03T14:18:31.000Z</time>
      </trkpt>
      <trkpt lat="47.69633" lon="6.83521">
        <ele>424</ele>
        <time>2023-08-03T14:18:34.000Z</time>
      </trkpt>
      <trkpt lat="47.69685" lon="6.83515">
        <ele>424.79998779297</ele>
        <time>2023-08-03T14:18:44.000Z</time>
      </trkpt>
      <trkpt lat="47.69696" lon="6.83515">
        <ele>424.79998779297</ele>
        <time>2023-08-03T14:18:46.000Z</time>
      </trkpt>
      <trkpt lat="47.69734" lon="6.83512">
        <ele>425.20001220703</ele>
        <time>2023-08-03T14:18:53.000Z</time>
      </trkpt>
      <trkpt lat="47.6976" lon="6.83509">
        <ele>426</ele>
        <time>2023-08-03T14:18:58.000Z</time>
      </trkpt>
      <trkpt lat="47.69796" lon="6.83506">
        <ele>426.39999389648</ele>
        <time>2023-08-03T14:19:05.000Z</time>
      </trkpt>
      <trkpt lat="47.69838" lon="6.83501">
        <ele>427</ele>
        <time>2023-08-03T14:19:13.000Z</time>
      </trkpt>
      <trkpt lat="47.69857" lon="6.83499">
        <ele>427.20001220703</ele>
        <time>2023-08-03T14:19:17.000Z</time>
      </trkpt>
      <trkpt lat="47.69894" lon="6.83496">
        <ele>428</ele>
        <time>2023-08-03T14:19:24.000Z</time>
      </trkpt>
      <trkpt lat="47.69909" lon="6.83495">
        <ele>428.20001220703</ele>
        <time>2023-08-03T14:19:27.000Z</time>
      </trkpt>
      <trkpt lat="47.6995" lon="6.835">
        <ele>428.39999389648</ele>
        <time>2023-08-03T14:19:35.000Z</time>
      </trkpt>
      <trkpt lat="47.70005" lon="6.83511">
        <ele>428.39999389648</ele>
        <time>2023-08-03T14:19:46.000Z</time>
      </trkpt>
      <trkpt lat="47.70059" lon="6.83522">
        <ele>428.79998779297</ele>
        <time>2023-08-03T14:19:56.000Z</time>
      </trkpt>
      <trkpt lat="47.70074" lon="6.83525">
        <ele>429</ele>
        <time>2023-08-03T14:19:59.000Z</time>
      </trkpt>
      <trkpt lat="47.70116" lon="6.83533">
        <ele>429.20001220703</ele>
        <time>2023-08-03T14:20:07.000Z</time>
      </trkpt>
      <trkpt lat="47.70169" lon="6.8355">
        <ele>430</ele>
        <time>2023-08-03T14:20:17.000Z</time>
      </trkpt>
      <trkpt lat="47.70173" lon="6.83552">
        <ele>430</ele>
        <time>2023-08-03T14:20:18.000Z</time>
      </trkpt>
      <trkpt lat="47.70225" lon="6.83576">
        <ele>431</ele>
        <time>2023-08-03T14:20:28.000Z</time>
      </trkpt>
      <trkpt lat="47.7023" lon="6.83578">
        <ele>431.39999389648</ele>
        <time>2023-08-03T14:20:29.000Z</time>
      </trkpt>
      <trkpt lat="47.70284" lon="6.83602">
        <ele>432.20001220703</ele>
        <time>2023-08-03T14:20:39.000Z</time>
      </trkpt>
      <trkpt lat="47.7029" lon="6.83603">
        <ele>432.20001220703</ele>
        <time>2023-08-03T14:20:40.000Z</time>
      </trkpt>
      <trkpt lat="47.70295" lon="6.83605">
        <ele>432.20001220703</ele>
        <time>2023-08-03T14:20:41.000Z</time>
      </trkpt>
      <trkpt lat="47.70317" lon="6.83618">
        <ele>432.39999389648</ele>
        <time>2023-08-03T14:20:45.000Z</time>
      </trkpt>
      <trkpt lat="47.70322" lon="6.8362">
        <ele>432.39999389648</ele>
        <time>2023-08-03T14:20:46.000Z</time>
      </trkpt>
      <trkpt lat="47.70326" lon="6.83622">
        <ele>432.39999389648</ele>
        <time>2023-08-03T14:20:47.000Z</time>
      </trkpt>
      <trkpt lat="47.70344" lon="6.83628">
        <ele>432.39999389648</ele>
        <time>2023-08-03T14:20:50.000Z</time>
      </trkpt>
      <trkpt lat="47.70349" lon="6.83631">
        <ele>432.39999389648</ele>
        <time>2023-08-03T14:20:51.000Z</time>
      </trkpt>
      <trkpt lat="47.7037" lon="6.83644">
        <ele>432.60000610352</ele>
        <time>2023-08-03T14:20:55.000Z</time>
      </trkpt>
      <trkpt lat="47.70419" lon="6.83666">
        <ele>433.60000610352</ele>
        <time>2023-08-03T14:21:04.000Z</time>
      </trkpt>
      <trkpt lat="47.70424" lon="6.83669">
        <ele>433.79998779297</ele>
        <time>2023-08-03T14:21:05.000Z</time>
      </trkpt>
      <trkpt lat="47.70473" lon="6.83692">
        <ele>434.39999389648</ele>
        <time>2023-08-03T14:21:14.000Z</time>
      </trkpt>
      <trkpt lat="47.70483" lon="6.83697">
        <ele>434.39999389648</ele>
        <time>2023-08-03T14:21:16.000Z</time>
      </trkpt>
      <trkpt lat="47.70492" lon="6.83702">
        <ele>434.79998779297</ele>
        <time>2023-08-03T14:21:18.000Z</time>
      </trkpt>
      <trkpt lat="47.70504" lon="6.83707">
        <ele>435</ele>
        <time>2023-08-03T14:21:20.000Z</time>
      </trkpt>
      <trkpt lat="47.70541" lon="6.83714">
        <ele>435.20001220703</ele>
        <time>2023-08-03T14:21:27.000Z</time>
      </trkpt>
      <trkpt lat="47.70579" lon="6.83709">
        <ele>435.79998779297</ele>
        <time>2023-08-03T14:21:34.000Z</time>
      </trkpt>
      <trkpt lat="47.70584" lon="6.83708">
        <ele>435.79998779297</ele>
        <time>2023-08-03T14:21:35.000Z</time>
      </trkpt>
      <trkpt lat="47.70588" lon="6.83707">
        <ele>436</ele>
        <time>2023-08-03T14:21:36.000Z</time>
      </trkpt>
      <trkpt lat="47.70599" lon="6.83702">
        <ele>436</ele>
        <time>2023-08-03T14:21:38.000Z</time>
      </trkpt>
      <trkpt lat="47.70625" lon="6.83691">
        <ele>436.39999389648</ele>
        <time>2023-08-03T14:21:43.000Z</time>
      </trkpt>
      <trkpt lat="47.70636" lon="6.8369">
        <ele>436.60000610352</ele>
        <time>2023-08-03T14:21:45.000Z</time>
      </trkpt>
      <trkpt lat="47.70691" lon="6.83688">
        <ele>436.79998779297</ele>
        <time>2023-08-03T14:21:55.000Z</time>
      </trkpt>
      <trkpt lat="47.70697" lon="6.83688">
        <ele>436.79998779297</ele>
        <time>2023-08-03T14:21:56.000Z</time>
      </trkpt>
      <trkpt lat="47.70709" lon="6.83688">
        <ele>436.79998779297</ele>
        <time>2023-08-03T14:21:58.000Z</time>
      </trkpt>
      <trkpt lat="47.70744" lon="6.8368">
        <ele>437.39999389648</ele>
        <time>2023-08-03T14:22:05.000Z</time>
      </trkpt>
      <trkpt lat="47.70774" lon="6.83665">
        <ele>437.79998779297</ele>
        <time>2023-08-03T14:22:11.000Z</time>
      </trkpt>
      <trkpt lat="47.7078" lon="6.83662">
        <ele>438</ele>
        <time>2023-08-03T14:22:12.000Z</time>
      </trkpt>
      <trkpt lat="47.70825" lon="6.83637">
        <ele>438.79998779297</ele>
        <time>2023-08-03T14:22:21.000Z</time>
      </trkpt>
      <trkpt lat="47.7083" lon="6.83634">
        <ele>439</ele>
        <time>2023-08-03T14:22:22.000Z</time>
      </trkpt>
      <trkpt lat="47.70869" lon="6.83609">
        <ele>439.20001220703</ele>
        <time>2023-08-03T14:22:30.000Z</time>
      </trkpt>
      <trkpt lat="47.70913" lon="6.83583">
        <ele>439.79998779297</ele>
        <time>2023-08-03T14:22:39.000Z</time>
      </trkpt>
      <trkpt lat="47.70924" lon="6.8358">
        <ele>440</ele>
        <time>2023-08-03T14:22:41.000Z</time>
      </trkpt>
      <trkpt lat="47.70934" lon="6.83578">
        <ele>440.20001220703</ele>
        <time>2023-08-03T14:22:43.000Z</time>
      </trkpt>
      <trkpt lat="47.70945" lon="6.83578">
        <ele>440.60000610352</ele>
        <time>2023-08-03T14:22:45.000Z</time>
      </trkpt>
      <trkpt lat="47.70955" lon="6.83579">
        <ele>440.60000610352</ele>
        <time>2023-08-03T14:22:47.000Z</time>
      </trkpt>
      <trkpt lat="47.70982" lon="6.83583">
        <ele>440.79998779297</ele>
        <time>2023-08-03T14:22:52.000Z</time>
      </trkpt>
      <trkpt lat="47.71003" lon="6.83585">
        <ele>441</ele>
        <time>2023-08-03T14:22:56.000Z</time>
      </trkpt>
      <trkpt lat="47.71039" lon="6.83586">
        <ele>441.39999389648</ele>
        <time>2023-08-03T14:23:03.000Z</time>
      </trkpt>
      <trkpt lat="47.71074" lon="6.83577">
        <ele>441.79998779297</ele>
        <time>2023-08-03T14:23:10.000Z</time>
      </trkpt>
      <trkpt lat="47.71089" lon="6.83573">
        <ele>442.20001220703</ele>
        <time>2023-08-03T14:23:13.000Z</time>
      </trkpt>
      <trkpt lat="47.71114" lon="6.83571">
        <ele>442.39999389648</ele>
        <time>2023-08-03T14:23:18.000Z</time>
      </trkpt>
      <trkpt lat="47.71145" lon="6.83585">
        <ele>442.60000610352</ele>
        <time>2023-08-03T14:23:24.000Z</time>
      </trkpt>
      <trkpt lat="47.71159" lon="6.83591">
        <ele>442.79998779297</ele>
        <time>2023-08-03T14:23:27.000Z</time>
      </trkpt>
      <trkpt lat="47.71176" lon="6.83595">
        <ele>443</ele>
        <time>2023-08-03T14:23:30.000Z</time>
      </trkpt>
      <trkpt lat="47.71197" lon="6.836">
        <ele>443.20001220703</ele>
        <time>2023-08-03T14:23:34.000Z</time>
      </trkpt>
      <trkpt lat="47.71228" lon="6.83608">
        <ele>443.39999389648</ele>
        <time>2023-08-03T14:23:40.000Z</time>
      </trkpt>
      <trkpt lat="47.71248" lon="6.83615">
        <ele>443.60000610352</ele>
        <time>2023-08-03T14:23:45.000Z</time>
      </trkpt>
      <trkpt lat="47.71257" lon="6.83618">
        <ele>443.60000610352</ele>
        <time>2023-08-03T14:23:50.000Z</time>
      </trkpt>
      <trkpt lat="47.71263" lon="6.8362">
        <ele>443.60000610352</ele>
        <time>2023-08-03T14:23:55.000Z</time>
      </trkpt>
      <trkpt lat="47.71277" lon="6.83622">
        <ele>443.79998779297</ele>
        <time>2023-08-03T14:23:59.000Z</time>
      </trkpt>
      <trkpt lat="47.71285" lon="6.8362">
        <ele>443.60000610352</ele>
        <time>2023-08-03T14:24:01.000Z</time>
      </trkpt>
      <trkpt lat="47.71299" lon="6.83615">
        <ele>444</ele>
        <time>2023-08-03T14:24:04.000Z</time>
      </trkpt>
      <trkpt lat="47.71313" lon="6.8361">
        <ele>444.39999389648</ele>
        <time>2023-08-03T14:24:07.000Z</time>
      </trkpt>
      <trkpt lat="47.71326" lon="6.83607">
        <ele>444.79998779297</ele>
        <time>2023-08-03T14:24:10.000Z</time>
      </trkpt>
      <trkpt lat="47.71336" lon="6.83603">
        <ele>445</ele>
        <time>2023-08-03T14:24:12.000Z</time>
      </trkpt>
      <trkpt lat="47.71341" lon="6.83599">
        <ele>445</ele>
        <time>2023-08-03T14:24:13.000Z</time>
      </trkpt>
      <trkpt lat="47.71344" lon="6.83597">
        <ele>445.20001220703</ele>
        <time>2023-08-03T14:24:14.000Z</time>
      </trkpt>
      <trkpt lat="47.71359" lon="6.83592">
        <ele>445.20001220703</ele>
        <time>2023-08-03T14:24:17.000Z</time>
      </trkpt>
      <trkpt lat="47.71363" lon="6.83588">
        <ele>445.20001220703</ele>
        <time>2023-08-03T14:24:18.000Z</time>
      </trkpt>
      <trkpt lat="47.71412" lon="6.83553">
        <ele>445.39999389648</ele>
        <time>2023-08-03T14:24:28.000Z</time>
      </trkpt>
      <trkpt lat="47.71416" lon="6.83551">
        <ele>445.39999389648</ele>
        <time>2023-08-03T14:24:29.000Z</time>
      </trkpt>
      <trkpt lat="47.7145" lon="6.83538">
        <ele>446</ele>
        <time>2023-08-03T14:24:36.000Z</time>
      </trkpt>
      <trkpt lat="47.71486" lon="6.83534">
        <ele>447</ele>
        <time>2023-08-03T14:24:43.000Z</time>
      </trkpt>
      <trkpt lat="47.71491" lon="6.83534">
        <ele>447.20001220703</ele>
        <time>2023-08-03T14:24:44.000Z</time>
      </trkpt>
      <trkpt lat="47.71517" lon="6.83533">
        <ele>447.39999389648</ele>
        <time>2023-08-03T14:24:49.000Z</time>
      </trkpt>
      <trkpt lat="47.71527" lon="6.83531">
        <ele>447.60000610352</ele>
        <time>2023-08-03T14:24:51.000Z</time>
      </trkpt>
      <trkpt lat="47.71532" lon="6.83529">
        <ele>447.79998779297</ele>
        <time>2023-08-03T14:24:52.000Z</time>
      </trkpt>
      <trkpt lat="47.71541" lon="6.83523">
        <ele>448.20001220703</ele>
        <time>2023-08-03T14:24:54.000Z</time>
      </trkpt>
      <trkpt lat="47.7155" lon="6.83517">
        <ele>448.60000610352</ele>
        <time>2023-08-03T14:24:56.000Z</time>
      </trkpt>
      <trkpt lat="47.71554" lon="6.83514">
        <ele>448.79998779297</ele>
        <time>2023-08-03T14:24:57.000Z</time>
      </trkpt>
      <trkpt lat="47.71559" lon="6.8351">
        <ele>448.79998779297</ele>
        <time>2023-08-03T14:24:58.000Z</time>
      </trkpt>
      <trkpt lat="47.71567" lon="6.83503">
        <ele>449.20001220703</ele>
        <time>2023-08-03T14:25:00.000Z</time>
      </trkpt>
      <trkpt lat="47.71572" lon="6.835">
        <ele>449.39999389648</ele>
        <time>2023-08-03T14:25:01.000Z</time>
      </trkpt>
      <trkpt lat="47.71576" lon="6.83497">
        <ele>449.39999389648</ele>
        <time>2023-08-03T14:25:02.000Z</time>
      </trkpt>
      <trkpt lat="47.7161" lon="6.83461">
        <ele>450</ele>
        <time>2023-08-03T14:25:10.000Z</time>
      </trkpt>
      <trkpt lat="47.71626" lon="6.83443">
        <ele>450.20001220703</ele>
        <time>2023-08-03T14:25:14.000Z</time>
      </trkpt>
      <trkpt lat="47.71633" lon="6.83436">
        <ele>450.39999389648</ele>
        <time>2023-08-03T14:25:16.000Z</time>
      </trkpt>
      <trkpt lat="47.71637" lon="6.83433">
        <ele>450.39999389648</ele>
        <time>2023-08-03T14:25:17.000Z</time>
      </trkpt>
      <trkpt lat="47.71644" lon="6.83427">
        <ele>450.60000610352</ele>
        <time>2023-08-03T14:25:19.000Z</time>
      </trkpt>
      <trkpt lat="47.7165" lon="6.83422">
        <ele>450.60000610352</ele>
        <time>2023-08-03T14:25:21.000Z</time>
      </trkpt>
      <trkpt lat="47.71663" lon="6.83409">
        <ele>451</ele>
        <time>2023-08-03T14:25:27.000Z</time>
      </trkpt>
      <trkpt lat="47.71664" lon="6.83408">
        <ele>451</ele>
        <time>2023-08-03T14:25:30.000Z</time>
      </trkpt>
      <trkpt lat="47.71668" lon="6.83402">
        <ele>450.60000610352</ele>
        <time>2023-08-03T14:25:50.000Z</time>
      </trkpt>
      <trkpt lat="47.7168" lon="6.83389">
        <ele>450.79998779297</ele>
        <time>2023-08-03T14:25:55.000Z</time>
      </trkpt>
      <trkpt lat="47.71702" lon="6.83367">
        <ele>451.20001220703</ele>
        <time>2023-08-03T14:26:01.000Z</time>
      </trkpt>
      <trkpt lat="47.71714" lon="6.83355">
        <ele>451.60000610352</ele>
        <time>2023-08-03T14:26:04.000Z</time>
      </trkpt>
      <trkpt lat="47.71734" lon="6.83335">
        <ele>452.39999389648</ele>
        <time>2023-08-03T14:26:09.000Z</time>
      </trkpt>
      <trkpt lat="47.71746" lon="6.83323">
        <ele>452.60000610352</ele>
        <time>2023-08-03T14:26:12.000Z</time>
      </trkpt>
      <trkpt lat="47.71774" lon="6.83296">
        <ele>453.20001220703</ele>
        <time>2023-08-03T14:26:19.000Z</time>
      </trkpt>
      <trkpt lat="47.71797" lon="6.83284">
        <ele>453.60000610352</ele>
        <time>2023-08-03T14:26:24.000Z</time>
      </trkpt>
      <trkpt lat="47.71807" lon="6.83279">
        <ele>453.79998779297</ele>
        <time>2023-08-03T14:26:26.000Z</time>
      </trkpt>
      <trkpt lat="47.71842" lon="6.83271">
        <ele>454.39999389648</ele>
        <time>2023-08-03T14:26:33.000Z</time>
      </trkpt>
      <trkpt lat="47.71857" lon="6.83269">
        <ele>454.60000610352</ele>
        <time>2023-08-03T14:26:36.000Z</time>
      </trkpt>
      <trkpt lat="47.71892" lon="6.83267">
        <ele>455.39999389648</ele>
        <time>2023-08-03T14:26:43.000Z</time>
      </trkpt>
      <trkpt lat="47.71918" lon="6.83267">
        <ele>455.79998779297</ele>
        <time>2023-08-03T14:26:48.000Z</time>
      </trkpt>
      <trkpt lat="47.71947" lon="6.83267">
        <ele>456.20001220703</ele>
        <time>2023-08-03T14:26:54.000Z</time>
      </trkpt>
      <trkpt lat="47.71967" lon="6.83267">
        <ele>456.79998779297</ele>
        <time>2023-08-03T14:26:58.000Z</time>
      </trkpt>
      <trkpt lat="47.71992" lon="6.83267">
        <ele>457.20001220703</ele>
        <time>2023-08-03T14:27:03.000Z</time>
      </trkpt>
      <trkpt lat="47.72032" lon="6.83266">
        <ele>457.79998779297</ele>
        <time>2023-08-03T14:27:11.000Z</time>
      </trkpt>
      <trkpt lat="47.72053" lon="6.83263">
        <ele>458.39999389648</ele>
        <time>2023-08-03T14:27:15.000Z</time>
      </trkpt>
      <trkpt lat="47.72084" lon="6.83254">
        <ele>458.79998779297</ele>
        <time>2023-08-03T14:27:21.000Z</time>
      </trkpt>
      <trkpt lat="47.721" lon="6.83251">
        <ele>459.20001220703</ele>
        <time>2023-08-03T14:27:24.000Z</time>
      </trkpt>
      <trkpt lat="47.72138" lon="6.83241">
        <ele>459.60000610352</ele>
        <time>2023-08-03T14:27:31.000Z</time>
      </trkpt>
      <trkpt lat="47.72174" lon="6.83234">
        <ele>459.79998779297</ele>
        <time>2023-08-03T14:27:38.000Z</time>
      </trkpt>
      <trkpt lat="47.7219" lon="6.83231">
        <ele>459.79998779297</ele>
        <time>2023-08-03T14:27:41.000Z</time>
      </trkpt>
      <trkpt lat="47.72211" lon="6.83228">
        <ele>460.39999389648</ele>
        <time>2023-08-03T14:27:45.000Z</time>
      </trkpt>
      <trkpt lat="47.72221" lon="6.83226">
        <ele>460.39999389648</ele>
        <time>2023-08-03T14:27:47.000Z</time>
      </trkpt>
      <trkpt lat="47.72258" lon="6.83219">
        <ele>460.60000610352</ele>
        <time>2023-08-03T14:27:54.000Z</time>
      </trkpt>
      <trkpt lat="47.72279" lon="6.83215">
        <ele>461</ele>
        <time>2023-08-03T14:27:58.000Z</time>
      </trkpt>
      <trkpt lat="47.72301" lon="6.83212">
        <ele>461.39999389648</ele>
        <time>2023-08-03T14:28:02.000Z</time>
      </trkpt>
      <trkpt lat="47.72346" lon="6.83206">
        <ele>461.79998779297</ele>
        <time>2023-08-03T14:28:11.000Z</time>
      </trkpt>
      <trkpt lat="47.72351" lon="6.83205">
        <ele>462</ele>
        <time>2023-08-03T14:28:12.000Z</time>
      </trkpt>
      <trkpt lat="47.72391" lon="6.83201">
        <ele>463</ele>
        <time>2023-08-03T14:28:20.000Z</time>
      </trkpt>
      <trkpt lat="47.72396" lon="6.83201">
        <ele>463</ele>
        <time>2023-08-03T14:28:21.000Z</time>
      </trkpt>
      <trkpt lat="47.72446" lon="6.83195">
        <ele>464</ele>
        <time>2023-08-03T14:28:31.000Z</time>
      </trkpt>
      <trkpt lat="47.72451" lon="6.83194">
        <ele>464</ele>
        <time>2023-08-03T14:28:32.000Z</time>
      </trkpt>
      <trkpt lat="47.72495" lon="6.83189">
        <ele>464.60000610352</ele>
        <time>2023-08-03T14:28:41.000Z</time>
      </trkpt>
      <trkpt lat="47.72535" lon="6.83182">
        <ele>465</ele>
        <time>2023-08-03T14:28:49.000Z</time>
      </trkpt>
      <trkpt lat="47.72551" lon="6.83178">
        <ele>465.39999389648</ele>
        <time>2023-08-03T14:28:52.000Z</time>
      </trkpt>
      <trkpt lat="47.72596" lon="6.8317">
        <ele>466</ele>
        <time>2023-08-03T14:29:01.000Z</time>
      </trkpt>
      <trkpt lat="47.72611" lon="6.83167">
        <ele>466.20001220703</ele>
        <time>2023-08-03T14:29:04.000Z</time>
      </trkpt>
      <trkpt lat="47.72636" lon="6.83163">
        <ele>466.60000610352</ele>
        <time>2023-08-03T14:29:09.000Z</time>
      </trkpt>
      <trkpt lat="47.72685" lon="6.83151">
        <ele>467.20001220703</ele>
        <time>2023-08-03T14:29:19.000Z</time>
      </trkpt>
      <trkpt lat="47.7269" lon="6.8315">
        <ele>467.39999389648</ele>
        <time>2023-08-03T14:29:20.000Z</time>
      </trkpt>
      <trkpt lat="47.72737" lon="6.8314">
        <ele>468</ele>
        <time>2023-08-03T14:29:29.000Z</time>
      </trkpt>
      <trkpt lat="47.72756" lon="6.83135">
        <ele>468.39999389648</ele>
        <time>2023-08-03T14:29:33.000Z</time>
      </trkpt>
      <trkpt lat="47.72789" lon="6.83127">
        <ele>468.60000610352</ele>
        <time>2023-08-03T14:29:39.000Z</time>
      </trkpt>
      <trkpt lat="47.72824" lon="6.83118">
        <ele>469.39999389648</ele>
        <time>2023-08-03T14:29:46.000Z</time>
      </trkpt>
      <trkpt lat="47.7286" lon="6.83107">
        <ele>469.79998779297</ele>
        <time>2023-08-03T14:29:53.000Z</time>
      </trkpt>
      <trkpt lat="47.7291" lon="6.83092">
        <ele>470.39999389648</ele>
        <time>2023-08-03T14:30:03.000Z</time>
      </trkpt>
      <trkpt lat="47.7292" lon="6.83089">
        <ele>470.60000610352</ele>
        <time>2023-08-03T14:30:05.000Z</time>
      </trkpt>
      <trkpt lat="47.7296" lon="6.83079">
        <ele>471.39999389648</ele>
        <time>2023-08-03T14:30:13.000Z</time>
      </trkpt>
      <trkpt lat="47.72979" lon="6.83078">
        <ele>471.39999389648</ele>
        <time>2023-08-03T14:30:17.000Z</time>
      </trkpt>
      <trkpt lat="47.73009" lon="6.83077">
        <ele>472.20001220703</ele>
        <time>2023-08-03T14:30:23.000Z</time>
      </trkpt>
      <trkpt lat="47.73029" lon="6.83076">
        <ele>472.60000610352</ele>
        <time>2023-08-03T14:30:27.000Z</time>
      </trkpt>
      <trkpt lat="47.73044" lon="6.83076">
        <ele>473</ele>
        <time>2023-08-03T14:30:30.000Z</time>
      </trkpt>
      <trkpt lat="47.73091" lon="6.83074">
        <ele>473.39999389648</ele>
        <time>2023-08-03T14:30:40.000Z</time>
      </trkpt>
      <trkpt lat="47.73095" lon="6.83074">
        <ele>473.39999389648</ele>
        <time>2023-08-03T14:30:41.000Z</time>
      </trkpt>
      <trkpt lat="47.731" lon="6.83072">
        <ele>473.60000610352</ele>
        <time>2023-08-03T14:30:42.000Z</time>
      </trkpt>
      <trkpt lat="47.73116" lon="6.83066">
        <ele>474</ele>
        <time>2023-08-03T14:30:46.000Z</time>
      </trkpt>
      <trkpt lat="47.73125" lon="6.83063">
        <ele>474.20001220703</ele>
        <time>2023-08-03T14:30:48.000Z</time>
      </trkpt>
      <trkpt lat="47.73128" lon="6.83066">
        <ele>474.39999389648</ele>
        <time>2023-08-03T14:30:49.000Z</time>
      </trkpt>
      <trkpt lat="47.73133" lon="6.83072">
        <ele>474.79998779297</ele>
        <time>2023-08-03T14:30:51.000Z</time>
      </trkpt>
      <trkpt lat="47.73136" lon="6.83072">
        <ele>474.79998779297</ele>
        <time>2023-08-03T14:30:52.000Z</time>
      </trkpt>
      <trkpt lat="47.7314" lon="6.83069">
        <ele>475</ele>
        <time>2023-08-03T14:30:53.000Z</time>
      </trkpt>
      <trkpt lat="47.73145" lon="6.83061">
        <ele>475</ele>
        <time>2023-08-03T14:30:55.000Z</time>
      </trkpt>
      <trkpt lat="47.73156" lon="6.83035">
        <ele>475.20001220703</ele>
        <time>2023-08-03T14:31:00.000Z</time>
      </trkpt>
      <trkpt lat="47.73174" lon="6.83025">
        <ele>475.39999389648</ele>
        <time>2023-08-03T14:31:05.000Z</time>
      </trkpt>
      <trkpt lat="47.73181" lon="6.83021">
        <ele>475.79998779297</ele>
        <time>2023-08-03T14:31:07.000Z</time>
      </trkpt>
      <trkpt lat="47.73202" lon="6.83014">
        <ele>476.20001220703</ele>
        <time>2023-08-03T14:31:12.000Z</time>
      </trkpt>
      <trkpt lat="47.7322" lon="6.83013">
        <ele>476.60000610352</ele>
        <time>2023-08-03T14:31:16.000Z</time>
      </trkpt>
      <trkpt lat="47.7324" lon="6.83013">
        <ele>477.20001220703</ele>
        <time>2023-08-03T14:31:20.000Z</time>
      </trkpt>
      <trkpt lat="47.73277" lon="6.83013">
        <ele>477.60000610352</ele>
        <time>2023-08-03T14:31:27.000Z</time>
      </trkpt>
      <trkpt lat="47.73282" lon="6.83012">
        <ele>477.79998779297</ele>
        <time>2023-08-03T14:31:28.000Z</time>
      </trkpt>
      <trkpt lat="47.73321" lon="6.83009">
        <ele>478</ele>
        <time>2023-08-03T14:31:35.000Z</time>
      </trkpt>
      <trkpt lat="47.73352" lon="6.83004">
        <ele>478.20001220703</ele>
        <time>2023-08-03T14:31:41.000Z</time>
      </trkpt>
      <trkpt lat="47.73357" lon="6.83004">
        <ele>478.39999389648</ele>
        <time>2023-08-03T14:31:42.000Z</time>
      </trkpt>
      <trkpt lat="47.73412" lon="6.82995">
        <ele>478.60000610352</ele>
        <time>2023-08-03T14:31:52.000Z</time>
      </trkpt>
      <trkpt lat="47.73418" lon="6.82994">
        <ele>478.60000610352</ele>
        <time>2023-08-03T14:31:53.000Z</time>
      </trkpt>
      <trkpt lat="47.73428" lon="6.82992">
        <ele>478.79998779297</ele>
        <time>2023-08-03T14:31:55.000Z</time>
      </trkpt>
      <trkpt lat="47.73471" lon="6.8298">
        <ele>479.20001220703</ele>
        <time>2023-08-03T14:32:03.000Z</time>
      </trkpt>
      <trkpt lat="47.7351" lon="6.82968">
        <ele>479.60000610352</ele>
        <time>2023-08-03T14:32:11.000Z</time>
      </trkpt>
      <trkpt lat="47.73527" lon="6.82966">
        <ele>479.79998779297</ele>
        <time>2023-08-03T14:32:16.000Z</time>
      </trkpt>
      <trkpt lat="47.73542" lon="6.82967">
        <ele>479.60000610352</ele>
        <time>2023-08-03T14:32:21.000Z</time>
      </trkpt>
      <trkpt lat="47.73544" lon="6.82964">
        <ele>479.60000610352</ele>
        <time>2023-08-03T14:32:22.000Z</time>
      </trkpt>
      <trkpt lat="47.73557" lon="6.82955">
        <ele>479.39999389648</ele>
        <time>2023-08-03T14:32:27.000Z</time>
      </trkpt>
      <trkpt lat="47.73584" lon="6.82947">
        <ele>479.60000610352</ele>
        <time>2023-08-03T14:32:33.000Z</time>
      </trkpt>
      <trkpt lat="47.73589" lon="6.82946">
        <ele>479.79998779297</ele>
        <time>2023-08-03T14:32:34.000Z</time>
      </trkpt>
      <trkpt lat="47.73617" lon="6.82939">
        <ele>480.79998779297</ele>
        <time>2023-08-03T14:32:40.000Z</time>
      </trkpt>
      <trkpt lat="47.73622" lon="6.82938">
        <ele>481</ele>
        <time>2023-08-03T14:32:41.000Z</time>
      </trkpt>
      <trkpt lat="47.73665" lon="6.82927">
        <ele>481.79998779297</ele>
        <time>2023-08-03T14:32:50.000Z</time>
      </trkpt>
      <trkpt lat="47.73696" lon="6.8292">
        <ele>482</ele>
        <time>2023-08-03T14:32:56.000Z</time>
      </trkpt>
      <trkpt lat="47.73712" lon="6.82915">
        <ele>482.20001220703</ele>
        <time>2023-08-03T14:32:59.000Z</time>
      </trkpt>
      <trkpt lat="47.73745" lon="6.82899">
        <ele>482.60000610352</ele>
        <time>2023-08-03T14:33:06.000Z</time>
      </trkpt>
      <trkpt lat="47.7376" lon="6.8289">
        <ele>483</ele>
        <time>2023-08-03T14:33:09.000Z</time>
      </trkpt>
      <trkpt lat="47.73794" lon="6.8287">
        <ele>483.79998779297</ele>
        <time>2023-08-03T14:33:16.000Z</time>
      </trkpt>
      <trkpt lat="47.73814" lon="6.82856">
        <ele>483.79998779297</ele>
        <time>2023-08-03T14:33:20.000Z</time>
      </trkpt>
      <trkpt lat="47.73833" lon="6.82842">
        <ele>484.20001220703</ele>
        <time>2023-08-03T14:33:24.000Z</time>
      </trkpt>
      <trkpt lat="47.73838" lon="6.82838">
        <ele>484</ele>
        <time>2023-08-03T14:33:25.000Z</time>
      </trkpt>
      <trkpt lat="47.73864" lon="6.82817">
        <ele>484.20001220703</ele>
        <time>2023-08-03T14:33:31.000Z</time>
      </trkpt>
      <trkpt lat="47.73905" lon="6.82788">
        <ele>484.60000610352</ele>
        <time>2023-08-03T14:33:40.000Z</time>
      </trkpt>
      <trkpt lat="47.73937" lon="6.82771">
        <ele>484.79998779297</ele>
        <time>2023-08-03T14:33:47.000Z</time>
      </trkpt>
      <trkpt lat="47.73942" lon="6.8277">
        <ele>485</ele>
        <time>2023-08-03T14:33:48.000Z</time>
      </trkpt>
      <trkpt lat="47.73956" lon="6.82766">
        <ele>485.20001220703</ele>
        <time>2023-08-03T14:33:52.000Z</time>
      </trkpt>
      <trkpt lat="47.73973" lon="6.82764">
        <ele>485.20001220703</ele>
        <time>2023-08-03T14:33:58.000Z</time>
      </trkpt>
      <trkpt lat="47.74005" lon="6.82752">
        <ele>485.60000610352</ele>
        <time>2023-08-03T14:34:06.000Z</time>
      </trkpt>
      <trkpt lat="47.74034" lon="6.82737">
        <ele>485.39999389648</ele>
        <time>2023-08-03T14:34:12.000Z</time>
      </trkpt>
      <trkpt lat="47.74082" lon="6.82714">
        <ele>485</ele>
        <time>2023-08-03T14:34:21.000Z</time>
      </trkpt>
      <trkpt lat="47.74119" lon="6.82695">
        <ele>485.39999389648</ele>
        <time>2023-08-03T14:34:29.000Z</time>
      </trkpt>
      <trkpt lat="47.74134" lon="6.82689">
        <ele>485.60000610352</ele>
        <time>2023-08-03T14:34:34.000Z</time>
      </trkpt>
      <trkpt lat="47.74145" lon="6.82677">
        <ele>485.79998779297</ele>
        <time>2023-08-03T14:34:38.000Z</time>
      </trkpt>
      <trkpt lat="47.74152" lon="6.82665">
        <ele>486</ele>
        <time>2023-08-03T14:34:43.000Z</time>
      </trkpt>
      <trkpt lat="47.74152" lon="6.82665">
        <ele>486.20001220703</ele>
        <time>2023-08-03T14:34:45.000Z</time>
      </trkpt>
      <trkpt lat="47.74153" lon="6.82665">
        <ele>486</ele>
        <time>2023-08-03T14:35:00.000Z</time>
      </trkpt>
      <trkpt lat="47.74153" lon="6.82665">
        <ele>485.79998779297</ele>
        <time>2023-08-03T14:35:02.000Z</time>
      </trkpt>
      <trkpt lat="47.74154" lon="6.82644">
        <ele>481.20001220703</ele>
        <time>2023-08-03T14:49:15.000Z</time>
      </trkpt>
      <trkpt lat="47.74162" lon="6.82631">
        <ele>481.39999389648</ele>
        <time>2023-08-03T14:49:21.000Z</time>
      </trkpt>
      <trkpt lat="47.74174" lon="6.82613">
        <ele>482.39999389648</ele>
        <time>2023-08-03T14:49:28.000Z</time>
      </trkpt>
      <trkpt lat="47.74178" lon="6.82605">
        <ele>482.60000610352</ele>
        <time>2023-08-03T14:49:30.000Z</time>
      </trkpt>
      <trkpt lat="47.74184" lon="6.82586">
        <ele>483</ele>
        <time>2023-08-03T14:49:34.000Z</time>
      </trkpt>
      <trkpt lat="47.74187" lon="6.82572">
        <ele>483.60000610352</ele>
        <time>2023-08-03T14:49:37.000Z</time>
      </trkpt>
      <trkpt lat="47.74194" lon="6.82548">
        <ele>484.39999389648</ele>
        <time>2023-08-03T14:49:42.000Z</time>
      </trkpt>
      <trkpt lat="47.74198" lon="6.8254">
        <ele>484.60000610352</ele>
        <time>2023-08-03T14:49:44.000Z</time>
      </trkpt>
      <trkpt lat="47.74207" lon="6.8253">
        <ele>485.20001220703</ele>
        <time>2023-08-03T14:49:47.000Z</time>
      </trkpt>
      <trkpt lat="47.74227" lon="6.82519">
        <ele>485.60000610352</ele>
        <time>2023-08-03T14:49:53.000Z</time>
      </trkpt>
      <trkpt lat="47.7423" lon="6.82518">
        <ele>485.79998779297</ele>
        <time>2023-08-03T14:49:54.000Z</time>
      </trkpt>
      <trkpt lat="47.74251" lon="6.82513">
        <ele>486</ele>
        <time>2023-08-03T14:50:00.000Z</time>
      </trkpt>
      <trkpt lat="47.74266" lon="6.82511">
        <ele>486</ele>
        <time>2023-08-03T14:50:05.000Z</time>
      </trkpt>
      <trkpt lat="47.74279" lon="6.82509">
        <ele>486.60000610352</ele>
        <time>2023-08-03T14:50:09.000Z</time>
      </trkpt>
      <trkpt lat="47.7429" lon="6.82506">
        <ele>486.79998779297</ele>
        <time>2023-08-03T14:50:12.000Z</time>
      </trkpt>
      <trkpt lat="47.74313" lon="6.82502">
        <ele>487</ele>
        <time>2023-08-03T14:50:18.000Z</time>
      </trkpt>
      <trkpt lat="47.74336" lon="6.82497">
        <ele>487.39999389648</ele>
        <time>2023-08-03T14:50:24.000Z</time>
      </trkpt>
      <trkpt lat="47.74357" lon="6.82495">
        <ele>487.60000610352</ele>
        <time>2023-08-03T14:50:30.000Z</time>
      </trkpt>
      <trkpt lat="47.74365" lon="6.82494">
        <ele>487.60000610352</ele>
        <time>2023-08-03T14:50:32.000Z</time>
      </trkpt>
      <trkpt lat="47.74386" lon="6.82493">
        <ele>488.20001220703</ele>
        <time>2023-08-03T14:50:37.000Z</time>
      </trkpt>
      <trkpt lat="47.74401" lon="6.82489">
        <ele>488.60000610352</ele>
        <time>2023-08-03T14:50:41.000Z</time>
      </trkpt>
      <trkpt lat="47.74411" lon="6.82485">
        <ele>489.39999389648</ele>
        <time>2023-08-03T14:50:44.000Z</time>
      </trkpt>
      <trkpt lat="47.74414" lon="6.82484">
        <ele>489.60000610352</ele>
        <time>2023-08-03T14:50:45.000Z</time>
      </trkpt>
      <trkpt lat="47.74423" lon="6.8248">
        <ele>490.79998779297</ele>
        <time>2023-08-03T14:50:48.000Z</time>
      </trkpt>
      <trkpt lat="47.74434" lon="6.8248">
        <ele>491.39999389648</ele>
        <time>2023-08-03T14:50:51.000Z</time>
      </trkpt>
      <trkpt lat="47.74441" lon="6.82479">
        <ele>491.79998779297</ele>
        <time>2023-08-03T14:50:53.000Z</time>
      </trkpt>
      <trkpt lat="47.74456" lon="6.82476">
        <ele>492.60000610352</ele>
        <time>2023-08-03T14:50:57.000Z</time>
      </trkpt>
      <trkpt lat="47.74464" lon="6.82472">
        <ele>493</ele>
        <time>2023-08-03T14:50:59.000Z</time>
      </trkpt>
      <trkpt lat="47.74487" lon="6.82464">
        <ele>493.79998779297</ele>
        <time>2023-08-03T14:51:05.000Z</time>
      </trkpt>
      <trkpt lat="47.74507" lon="6.82456">
        <ele>494</ele>
        <time>2023-08-03T14:51:10.000Z</time>
      </trkpt>
      <trkpt lat="47.74511" lon="6.82454">
        <ele>494</ele>
        <time>2023-08-03T14:51:11.000Z</time>
      </trkpt>
      <trkpt lat="47.7454" lon="6.82439">
        <ele>495.20001220703</ele>
        <time>2023-08-03T14:51:19.000Z</time>
      </trkpt>
      <trkpt lat="47.74547" lon="6.82435">
        <ele>495.39999389648</ele>
        <time>2023-08-03T14:51:21.000Z</time>
      </trkpt>
      <trkpt lat="47.74571" lon="6.82423">
        <ele>496.39999389648</ele>
        <time>2023-08-03T14:51:28.000Z</time>
      </trkpt>
      <trkpt lat="47.74575" lon="6.82422">
        <ele>496.60000610352</ele>
        <time>2023-08-03T14:51:29.000Z</time>
      </trkpt>
      <trkpt lat="47.74588" lon="6.82413">
        <ele>497.60000610352</ele>
        <time>2023-08-03T14:51:33.000Z</time>
      </trkpt>
      <trkpt lat="47.74597" lon="6.82405">
        <ele>498</ele>
        <time>2023-08-03T14:51:36.000Z</time>
      </trkpt>
      <trkpt lat="47.7461" lon="6.82395">
        <ele>498.79998779297</ele>
        <time>2023-08-03T14:51:40.000Z</time>
      </trkpt>
      <trkpt lat="47.74625" lon="6.8238">
        <ele>499.79998779297</ele>
        <time>2023-08-03T14:51:45.000Z</time>
      </trkpt>
      <trkpt lat="47.74628" lon="6.82377">
        <ele>500</ele>
        <time>2023-08-03T14:51:46.000Z</time>
      </trkpt>
      <trkpt lat="47.74642" lon="6.82359">
        <ele>501</ele>
        <time>2023-08-03T14:51:51.000Z</time>
      </trkpt>
      <trkpt lat="47.74648" lon="6.82351">
        <ele>501.39999389648</ele>
        <time>2023-08-03T14:51:53.000Z</time>
      </trkpt>
      <trkpt lat="47.74668" lon="6.8232">
        <ele>502</ele>
        <time>2023-08-03T14:52:00.000Z</time>
      </trkpt>
      <trkpt lat="47.74674" lon="6.8231">
        <ele>502</ele>
        <time>2023-08-03T14:52:02.000Z</time>
      </trkpt>
      <trkpt lat="47.747" lon="6.82279">
        <ele>502.20001220703</ele>
        <time>2023-08-03T14:52:09.000Z</time>
      </trkpt>
      <trkpt lat="47.7473" lon="6.82247">
        <ele>502.20001220703</ele>
        <time>2023-08-03T14:52:16.000Z</time>
      </trkpt>
      <trkpt lat="47.74756" lon="6.82214">
        <ele>502.39999389648</ele>
        <time>2023-08-03T14:52:23.000Z</time>
      </trkpt>
      <trkpt lat="47.74789" lon="6.82172">
        <ele>502.60000610352</ele>
        <time>2023-08-03T14:52:31.000Z</time>
      </trkpt>
      <trkpt lat="47.7481" lon="6.82147">
        <ele>502.79998779297</ele>
        <time>2023-08-03T14:52:36.000Z</time>
      </trkpt>
      <trkpt lat="47.74824" lon="6.82129">
        <ele>503.20001220703</ele>
        <time>2023-08-03T14:52:40.000Z</time>
      </trkpt>
      <trkpt lat="47.74844" lon="6.82106">
        <ele>504</ele>
        <time>2023-08-03T14:52:45.000Z</time>
      </trkpt>
      <trkpt lat="47.74853" lon="6.82097">
        <ele>504.20001220703</ele>
        <time>2023-08-03T14:52:47.000Z</time>
      </trkpt>
      <trkpt lat="47.74882" lon="6.82067">
        <ele>505</ele>
        <time>2023-08-03T14:52:54.000Z</time>
      </trkpt>
      <trkpt lat="47.74887" lon="6.82062">
        <ele>505</ele>
        <time>2023-08-03T14:52:55.000Z</time>
      </trkpt>
      <trkpt lat="47.7491" lon="6.82044">
        <ele>505.20001220703</ele>
        <time>2023-08-03T14:53:00.000Z</time>
      </trkpt>
      <trkpt lat="47.74926" lon="6.82031">
        <ele>505.20001220703</ele>
        <time>2023-08-03T14:53:05.000Z</time>
      </trkpt>
      <trkpt lat="47.74954" lon="6.82007">
        <ele>505.60000610352</ele>
        <time>2023-08-03T14:53:12.000Z</time>
      </trkpt>
      <trkpt lat="47.74972" lon="6.81991">
        <ele>505.60000610352</ele>
        <time>2023-08-03T14:53:17.000Z</time>
      </trkpt>
      <trkpt lat="47.74994" lon="6.81976">
        <ele>505.20001220703</ele>
        <time>2023-08-03T14:53:22.000Z</time>
      </trkpt>
      <trkpt lat="47.75036" lon="6.81951">
        <ele>503.79998779297</ele>
        <time>2023-08-03T14:53:29.000Z</time>
      </trkpt>
      <trkpt lat="47.75071" lon="6.81947">
        <ele>503.20001220703</ele>
        <time>2023-08-03T14:53:35.000Z</time>
      </trkpt>
      <trkpt lat="47.75095" lon="6.81951">
        <ele>502.79998779297</ele>
        <time>2023-08-03T14:53:39.000Z</time>
      </trkpt>
      <trkpt lat="47.75106" lon="6.81955">
        <ele>502.60000610352</ele>
        <time>2023-08-03T14:53:41.000Z</time>
      </trkpt>
      <trkpt lat="47.75145" lon="6.81973">
        <ele>502.60000610352</ele>
        <time>2023-08-03T14:53:48.000Z</time>
      </trkpt>
      <trkpt lat="47.75157" lon="6.81976">
        <ele>502.79998779297</ele>
        <time>2023-08-03T14:53:50.000Z</time>
      </trkpt>
      <trkpt lat="47.75169" lon="6.81976">
        <ele>502.79998779297</ele>
        <time>2023-08-03T14:53:52.000Z</time>
      </trkpt>
      <trkpt lat="47.7518" lon="6.81973">
        <ele>502.79998779297</ele>
        <time>2023-08-03T14:53:54.000Z</time>
      </trkpt>
      <trkpt lat="47.75186" lon="6.81971">
        <ele>502.79998779297</ele>
        <time>2023-08-03T14:53:55.000Z</time>
      </trkpt>
      <trkpt lat="47.7523" lon="6.81948">
        <ele>503</ele>
        <time>2023-08-03T14:54:03.000Z</time>
      </trkpt>
      <trkpt lat="47.75241" lon="6.81941">
        <ele>503</ele>
        <time>2023-08-03T14:54:05.000Z</time>
      </trkpt>
      <trkpt lat="47.75263" lon="6.81929">
        <ele>503.20001220703</ele>
        <time>2023-08-03T14:54:09.000Z</time>
      </trkpt>
      <trkpt lat="47.75296" lon="6.8191">
        <ele>503.79998779297</ele>
        <time>2023-08-03T14:54:15.000Z</time>
      </trkpt>
      <trkpt lat="47.75307" lon="6.81903">
        <ele>504</ele>
        <time>2023-08-03T14:54:17.000Z</time>
      </trkpt>
      <trkpt lat="47.75345" lon="6.8189">
        <ele>504.60000610352</ele>
        <time>2023-08-03T14:54:24.000Z</time>
      </trkpt>
      <trkpt lat="47.75362" lon="6.81889">
        <ele>504.79998779297</ele>
        <time>2023-08-03T14:54:27.000Z</time>
      </trkpt>
      <trkpt lat="47.75397" lon="6.81888">
        <ele>505.20001220703</ele>
        <time>2023-08-03T14:54:33.000Z</time>
      </trkpt>
      <trkpt lat="47.75414" lon="6.81893">
        <ele>505.20001220703</ele>
        <time>2023-08-03T14:54:36.000Z</time>
      </trkpt>
      <trkpt lat="47.75425" lon="6.819">
        <ele>505.20001220703</ele>
        <time>2023-08-03T14:54:38.000Z</time>
      </trkpt>
      <trkpt lat="47.7543" lon="6.81904">
        <ele>505.39999389648</ele>
        <time>2023-08-03T14:54:39.000Z</time>
      </trkpt>
      <trkpt lat="47.7547" lon="6.81937">
        <ele>506</ele>
        <time>2023-08-03T14:54:47.000Z</time>
      </trkpt>
      <trkpt lat="47.75475" lon="6.8194">
        <ele>506.20001220703</ele>
        <time>2023-08-03T14:54:48.000Z</time>
      </trkpt>
      <trkpt lat="47.75486" lon="6.81943">
        <ele>506.20001220703</ele>
        <time>2023-08-03T14:54:50.000Z</time>
      </trkpt>
      <trkpt lat="47.75497" lon="6.81944">
        <ele>506.39999389648</ele>
        <time>2023-08-03T14:54:52.000Z</time>
      </trkpt>
      <trkpt lat="47.75503" lon="6.81943">
        <ele>506.39999389648</ele>
        <time>2023-08-03T14:54:53.000Z</time>
      </trkpt>
      <trkpt lat="47.75509" lon="6.81942">
        <ele>506.60000610352</ele>
        <time>2023-08-03T14:54:54.000Z</time>
      </trkpt>
      <trkpt lat="47.75525" lon="6.81937">
        <ele>506.79998779297</ele>
        <time>2023-08-03T14:54:57.000Z</time>
      </trkpt>
      <trkpt lat="47.75537" lon="6.81933">
        <ele>507</ele>
        <time>2023-08-03T14:54:59.000Z</time>
      </trkpt>
      <trkpt lat="47.75583" lon="6.81918">
        <ele>507.20001220703</ele>
        <time>2023-08-03T14:55:07.000Z</time>
      </trkpt>
      <trkpt lat="47.75624" lon="6.81906">
        <ele>507.39999389648</ele>
        <time>2023-08-03T14:55:14.000Z</time>
      </trkpt>
      <trkpt lat="47.75682" lon="6.81901">
        <ele>507.79998779297</ele>
        <time>2023-08-03T14:55:24.000Z</time>
      </trkpt>
      <trkpt lat="47.75725" lon="6.81906">
        <ele>508.39999389648</ele>
        <time>2023-08-03T14:55:32.000Z</time>
      </trkpt>
      <trkpt lat="47.75754" lon="6.81915">
        <ele>508.20001220703</ele>
        <time>2023-08-03T14:55:37.000Z</time>
      </trkpt>
      <trkpt lat="47.75772" lon="6.81921">
        <ele>508.20001220703</ele>
        <time>2023-08-03T14:55:40.000Z</time>
      </trkpt>
      <trkpt lat="47.7582" lon="6.81936">
        <ele>508</ele>
        <time>2023-08-03T14:55:49.000Z</time>
      </trkpt>
      <trkpt lat="47.7584" lon="6.81942">
        <ele>508.39999389648</ele>
        <time>2023-08-03T14:55:53.000Z</time>
      </trkpt>
      <trkpt lat="47.75844" lon="6.81945">
        <ele>508.60000610352</ele>
        <time>2023-08-03T14:55:54.000Z</time>
      </trkpt>
      <trkpt lat="47.75854" lon="6.81952">
        <ele>508.79998779297</ele>
        <time>2023-08-03T14:55:56.000Z</time>
      </trkpt>
      <trkpt lat="47.75874" lon="6.81971">
        <ele>509.39999389648</ele>
        <time>2023-08-03T14:56:01.000Z</time>
      </trkpt>
      <trkpt lat="47.75909" lon="6.81998">
        <ele>509.79998779297</ele>
        <time>2023-08-03T14:56:08.000Z</time>
      </trkpt>
      <trkpt lat="47.75947" lon="6.82013">
        <ele>509.79998779297</ele>
        <time>2023-08-03T14:56:15.000Z</time>
      </trkpt>
      <trkpt lat="47.75995" lon="6.82034">
        <ele>510.39999389648</ele>
        <time>2023-08-03T14:56:24.000Z</time>
      </trkpt>
      <trkpt lat="47.76021" lon="6.8205">
        <ele>510.79998779297</ele>
        <time>2023-08-03T14:56:29.000Z</time>
      </trkpt>
      <trkpt lat="47.76036" lon="6.8206">
        <ele>511</ele>
        <time>2023-08-03T14:56:32.000Z</time>
      </trkpt>
      <trkpt lat="47.76076" lon="6.82086">
        <ele>511.60000610352</ele>
        <time>2023-08-03T14:56:40.000Z</time>
      </trkpt>
      <trkpt lat="47.76085" lon="6.82092">
        <ele>512</ele>
        <time>2023-08-03T14:56:42.000Z</time>
      </trkpt>
      <trkpt lat="47.76127" lon="6.82117">
        <ele>512.79998779297</ele>
        <time>2023-08-03T14:56:50.000Z</time>
      </trkpt>
      <trkpt lat="47.76137" lon="6.82123">
        <ele>512.79998779297</ele>
        <time>2023-08-03T14:56:52.000Z</time>
      </trkpt>
      <trkpt lat="47.76172" lon="6.82145">
        <ele>513</ele>
        <time>2023-08-03T14:56:59.000Z</time>
      </trkpt>
      <trkpt lat="47.76175" lon="6.82149">
        <ele>513</ele>
        <time>2023-08-03T14:57:00.000Z</time>
      </trkpt>
      <trkpt lat="47.76201" lon="6.8217">
        <ele>513.20001220703</ele>
        <time>2023-08-03T14:57:07.000Z</time>
      </trkpt>
      <trkpt lat="47.76235" lon="6.82198">
        <ele>513.79998779297</ele>
        <time>2023-08-03T14:57:15.000Z</time>
      </trkpt>
      <trkpt lat="47.76267" lon="6.82215">
        <ele>514.20001220703</ele>
        <time>2023-08-03T14:57:22.000Z</time>
      </trkpt>
      <trkpt lat="47.76304" lon="6.82226">
        <ele>514.59997558594</ele>
        <time>2023-08-03T14:57:30.000Z</time>
      </trkpt>
      <trkpt lat="47.76309" lon="6.82227">
        <ele>514.59997558594</ele>
        <time>2023-08-03T14:57:31.000Z</time>
      </trkpt>
      <trkpt lat="47.76346" lon="6.8224">
        <ele>515.59997558594</ele>
        <time>2023-08-03T14:57:39.000Z</time>
      </trkpt>
      <trkpt lat="47.76351" lon="6.82242">
        <ele>515.79998779297</ele>
        <time>2023-08-03T14:57:40.000Z</time>
      </trkpt>
      <trkpt lat="47.76362" lon="6.82248">
        <ele>516</ele>
        <time>2023-08-03T14:57:43.000Z</time>
      </trkpt>
      <trkpt lat="47.76374" lon="6.82256">
        <ele>516.20001220703</ele>
        <time>2023-08-03T14:57:46.000Z</time>
      </trkpt>
      <trkpt lat="47.76395" lon="6.82269">
        <ele>516.79998779297</ele>
        <time>2023-08-03T14:57:52.000Z</time>
      </trkpt>
      <trkpt lat="47.76408" lon="6.82282">
        <ele>517.20001220703</ele>
        <time>2023-08-03T14:57:59.000Z</time>
      </trkpt>
      <trkpt lat="47.76409" lon="6.82283">
        <ele>517.20001220703</ele>
        <time>2023-08-03T14:58:04.000Z</time>
      </trkpt>
      <trkpt lat="47.76413" lon="6.82282">
        <ele>517</ele>
        <time>2023-08-03T14:59:21.000Z</time>
      </trkpt>
      <trkpt lat="47.76418" lon="6.82285">
        <ele>517</ele>
        <time>2023-08-03T14:59:24.000Z</time>
      </trkpt>
      <trkpt lat="47.76432" lon="6.82295">
        <ele>517</ele>
        <time>2023-08-03T14:59:29.000Z</time>
      </trkpt>
      <trkpt lat="47.76449" lon="6.82312">
        <ele>517.40002441406</ele>
        <time>2023-08-03T14:59:34.000Z</time>
      </trkpt>
      <trkpt lat="47.76452" lon="6.82317">
        <ele>517.40002441406</ele>
        <time>2023-08-03T14:59:35.000Z</time>
      </trkpt>
      <trkpt lat="47.76462" lon="6.82336">
        <ele>517.59997558594</ele>
        <time>2023-08-03T14:59:39.000Z</time>
      </trkpt>
      <trkpt lat="47.76465" lon="6.82342">
        <ele>517.79998779297</ele>
        <time>2023-08-03T14:59:40.000Z</time>
      </trkpt>
      <trkpt lat="47.76467" lon="6.82347">
        <ele>517.79998779297</ele>
        <time>2023-08-03T14:59:41.000Z</time>
      </trkpt>
      <trkpt lat="47.7647" lon="6.82357">
        <ele>518.20001220703</ele>
        <time>2023-08-03T14:59:43.000Z</time>
      </trkpt>
      <trkpt lat="47.76472" lon="6.82362">
        <ele>518.59997558594</ele>
        <time>2023-08-03T14:59:44.000Z</time>
      </trkpt>
      <trkpt lat="47.76475" lon="6.82372">
        <ele>518.79998779297</ele>
        <time>2023-08-03T14:59:46.000Z</time>
      </trkpt>
      <trkpt lat="47.76479" lon="6.82384">
        <ele>519.79998779297</ele>
        <time>2023-08-03T14:59:49.000Z</time>
      </trkpt>
      <trkpt lat="47.76485" lon="6.82396">
        <ele>520.40002441406</ele>
        <time>2023-08-03T14:59:52.000Z</time>
      </trkpt>
      <trkpt lat="47.76488" lon="6.82405">
        <ele>521.20001220703</ele>
        <time>2023-08-03T14:59:54.000Z</time>
      </trkpt>
      <trkpt lat="47.765" lon="6.8243">
        <ele>522.40002441406</ele>
        <time>2023-08-03T15:00:00.000Z</time>
      </trkpt>
      <trkpt lat="47.76516" lon="6.82455">
        <ele>523.40002441406</ele>
        <time>2023-08-03T15:00:06.000Z</time>
      </trkpt>
      <trkpt lat="47.76525" lon="6.82463">
        <ele>523.79998779297</ele>
        <time>2023-08-03T15:00:09.000Z</time>
      </trkpt>
      <trkpt lat="47.76551" lon="6.82481">
        <ele>524</ele>
        <time>2023-08-03T15:00:16.000Z</time>
      </trkpt>
      <trkpt lat="47.76588" lon="6.82498">
        <ele>524.40002441406</ele>
        <time>2023-08-03T15:00:25.000Z</time>
      </trkpt>
      <trkpt lat="47.7662" lon="6.82511">
        <ele>525.20001220703</ele>
        <time>2023-08-03T15:00:34.000Z</time>
      </trkpt>
      <trkpt lat="47.76625" lon="6.82513">
        <ele>525.40002441406</ele>
        <time>2023-08-03T15:00:35.000Z</time>
      </trkpt>
      <trkpt lat="47.76653" lon="6.82525">
        <ele>526.59997558594</ele>
        <time>2023-08-03T15:00:43.000Z</time>
      </trkpt>
      <trkpt lat="47.76661" lon="6.8253">
        <ele>526.79998779297</ele>
        <time>2023-08-03T15:00:45.000Z</time>
      </trkpt>
      <trkpt lat="47.76671" lon="6.82542">
        <ele>527.40002441406</ele>
        <time>2023-08-03T15:00:49.000Z</time>
      </trkpt>
      <trkpt lat="47.76681" lon="6.82555">
        <ele>528</ele>
        <time>2023-08-03T15:00:53.000Z</time>
      </trkpt>
      <trkpt lat="47.76686" lon="6.82564">
        <ele>528.59997558594</ele>
        <time>2023-08-03T15:00:55.000Z</time>
      </trkpt>
      <trkpt lat="47.76692" lon="6.82574">
        <ele>529.59997558594</ele>
        <time>2023-08-03T15:00:58.000Z</time>
      </trkpt>
      <trkpt lat="47.76698" lon="6.82585">
        <ele>530.59997558594</ele>
        <time>2023-08-03T15:01:01.000Z</time>
      </trkpt>
      <trkpt lat="47.767" lon="6.82588">
        <ele>530.59997558594</ele>
        <time>2023-08-03T15:01:02.000Z</time>
      </trkpt>
      <trkpt lat="47.7671" lon="6.82598">
        <ele>531.79998779297</ele>
        <time>2023-08-03T15:01:06.000Z</time>
      </trkpt>
      <trkpt lat="47.76721" lon="6.82605">
        <ele>533</ele>
        <time>2023-08-03T15:01:10.000Z</time>
      </trkpt>
      <trkpt lat="47.76734" lon="6.82612">
        <ele>533.79998779297</ele>
        <time>2023-08-03T15:01:14.000Z</time>
      </trkpt>
      <trkpt lat="47.76763" lon="6.82632">
        <ele>534.20001220703</ele>
        <time>2023-08-03T15:01:22.000Z</time>
      </trkpt>
      <trkpt lat="47.76798" lon="6.82659">
        <ele>533.59997558594</ele>
        <time>2023-08-03T15:01:29.000Z</time>
      </trkpt>
      <trkpt lat="47.76839" lon="6.82697">
        <ele>533</ele>
        <time>2023-08-03T15:01:37.000Z</time>
      </trkpt>
      <trkpt lat="47.76854" lon="6.82714">
        <ele>532.79998779297</ele>
        <time>2023-08-03T15:01:40.000Z</time>
      </trkpt>
      <trkpt lat="47.76877" lon="6.82743">
        <ele>532.40002441406</ele>
        <time>2023-08-03T15:01:45.000Z</time>
      </trkpt>
      <trkpt lat="47.76909" lon="6.82778">
        <ele>532.59997558594</ele>
        <time>2023-08-03T15:01:52.000Z</time>
      </trkpt>
      <trkpt lat="47.76913" lon="6.82783">
        <ele>532.59997558594</ele>
        <time>2023-08-03T15:01:53.000Z</time>
      </trkpt>
      <trkpt lat="47.76949" lon="6.82806">
        <ele>533</ele>
        <time>2023-08-03T15:02:00.000Z</time>
      </trkpt>
      <trkpt lat="47.76995" lon="6.8282">
        <ele>533.79998779297</ele>
        <time>2023-08-03T15:02:09.000Z</time>
      </trkpt>
      <trkpt lat="47.7703" lon="6.82831">
        <ele>534.79998779297</ele>
        <time>2023-08-03T15:02:16.000Z</time>
      </trkpt>
      <trkpt lat="47.77044" lon="6.82836">
        <ele>535</ele>
        <time>2023-08-03T15:02:19.000Z</time>
      </trkpt>
      <trkpt lat="47.77077" lon="6.82847">
        <ele>535.79998779297</ele>
        <time>2023-08-03T15:02:26.000Z</time>
      </trkpt>
      <trkpt lat="47.77086" lon="6.8285">
        <ele>536</ele>
        <time>2023-08-03T15:02:28.000Z</time>
      </trkpt>
      <trkpt lat="47.77107" lon="6.82857">
        <ele>537</ele>
        <time>2023-08-03T15:02:33.000Z</time>
      </trkpt>
      <trkpt lat="47.77115" lon="6.8286">
        <ele>537.40002441406</ele>
        <time>2023-08-03T15:02:35.000Z</time>
      </trkpt>
      <trkpt lat="47.77119" lon="6.82862">
        <ele>537.59997558594</ele>
        <time>2023-08-03T15:02:36.000Z</time>
      </trkpt>
      <trkpt lat="47.77127" lon="6.82867">
        <ele>538.20001220703</ele>
        <time>2023-08-03T15:02:38.000Z</time>
      </trkpt>
      <trkpt lat="47.77153" lon="6.82883">
        <ele>538.59997558594</ele>
        <time>2023-08-03T15:02:44.000Z</time>
      </trkpt>
      <trkpt lat="47.77168" lon="6.82892">
        <ele>539</ele>
        <time>2023-08-03T15:02:47.000Z</time>
      </trkpt>
      <trkpt lat="47.77193" lon="6.82905">
        <ele>539.20001220703</ele>
        <time>2023-08-03T15:02:52.000Z</time>
      </trkpt>
      <trkpt lat="47.77228" lon="6.8291">
        <ele>539.59997558594</ele>
        <time>2023-08-03T15:02:59.000Z</time>
      </trkpt>
      <trkpt lat="47.77261" lon="6.82909">
        <ele>540</ele>
        <time>2023-08-03T15:03:05.000Z</time>
      </trkpt>
      <trkpt lat="47.77272" lon="6.82909">
        <ele>540.20001220703</ele>
        <time>2023-08-03T15:03:07.000Z</time>
      </trkpt>
      <trkpt lat="47.77315" lon="6.82917">
        <ele>540.59997558594</ele>
        <time>2023-08-03T15:03:15.000Z</time>
      </trkpt>
      <trkpt lat="47.77356" lon="6.82943">
        <ele>540.40002441406</ele>
        <time>2023-08-03T15:03:23.000Z</time>
      </trkpt>
      <trkpt lat="47.77382" lon="6.82973">
        <ele>540.59997558594</ele>
        <time>2023-08-03T15:03:29.000Z</time>
      </trkpt>
      <trkpt lat="47.77392" lon="6.82991">
        <ele>540.79998779297</ele>
        <time>2023-08-03T15:03:32.000Z</time>
      </trkpt>
      <trkpt lat="47.77411" lon="6.83026">
        <ele>541.59997558594</ele>
        <time>2023-08-03T15:03:38.000Z</time>
      </trkpt>
      <trkpt lat="47.77413" lon="6.83032">
        <ele>542</ele>
        <time>2023-08-03T15:03:39.000Z</time>
      </trkpt>
      <trkpt lat="47.77417" lon="6.83038">
        <ele>542</ele>
        <time>2023-08-03T15:03:40.000Z</time>
      </trkpt>
      <trkpt lat="47.77428" lon="6.8306">
        <ele>542.59997558594</ele>
        <time>2023-08-03T15:03:44.000Z</time>
      </trkpt>
      <trkpt lat="47.77433" lon="6.83071">
        <ele>543</ele>
        <time>2023-08-03T15:03:46.000Z</time>
      </trkpt>
      <trkpt lat="47.77451" lon="6.83109">
        <ele>544</ele>
        <time>2023-08-03T15:03:53.000Z</time>
      </trkpt>
      <trkpt lat="47.77477" lon="6.83175">
        <ele>545</ele>
        <time>2023-08-03T15:04:04.000Z</time>
      </trkpt>
      <trkpt lat="47.77479" lon="6.83181">
        <ele>545.20001220703</ele>
        <time>2023-08-03T15:04:05.000Z</time>
      </trkpt>
      <trkpt lat="47.77497" lon="6.83227">
        <ele>545.59997558594</ele>
        <time>2023-08-03T15:04:13.000Z</time>
      </trkpt>
      <trkpt lat="47.77502" lon="6.83238">
        <ele>546.20001220703</ele>
        <time>2023-08-03T15:04:15.000Z</time>
      </trkpt>
      <trkpt lat="47.77508" lon="6.83249">
        <ele>546.40002441406</ele>
        <time>2023-08-03T15:04:17.000Z</time>
      </trkpt>
      <trkpt lat="47.77513" lon="6.83261">
        <ele>546.79998779297</ele>
        <time>2023-08-03T15:04:19.000Z</time>
      </trkpt>
      <trkpt lat="47.77519" lon="6.83271">
        <ele>547.20001220703</ele>
        <time>2023-08-03T15:04:21.000Z</time>
      </trkpt>
      <trkpt lat="47.77522" lon="6.83276">
        <ele>547.20001220703</ele>
        <time>2023-08-03T15:04:22.000Z</time>
      </trkpt>
      <trkpt lat="47.77529" lon="6.8329">
        <ele>547.59997558594</ele>
        <time>2023-08-03T15:04:25.000Z</time>
      </trkpt>
      <trkpt lat="47.77532" lon="6.83295">
        <ele>547.59997558594</ele>
        <time>2023-08-03T15:04:26.000Z</time>
      </trkpt>
      <trkpt lat="47.77541" lon="6.83307">
        <ele>548.20001220703</ele>
        <time>2023-08-03T15:04:29.000Z</time>
      </trkpt>
      <trkpt lat="47.77559" lon="6.83332">
        <ele>549</ele>
        <time>2023-08-03T15:04:35.000Z</time>
      </trkpt>
      <trkpt lat="47.77564" lon="6.8334">
        <ele>549.40002441406</ele>
        <time>2023-08-03T15:04:37.000Z</time>
      </trkpt>
      <trkpt lat="47.77582" lon="6.83363">
        <ele>550</ele>
        <time>2023-08-03T15:04:43.000Z</time>
      </trkpt>
      <trkpt lat="47.77597" lon="6.83379">
        <ele>550.59997558594</ele>
        <time>2023-08-03T15:04:48.000Z</time>
      </trkpt>
      <trkpt lat="47.77604" lon="6.83387">
        <ele>550.59997558594</ele>
        <time>2023-08-03T15:04:50.000Z</time>
      </trkpt>
      <trkpt lat="47.7762" lon="6.83408">
        <ele>551.40002441406</ele>
        <time>2023-08-03T15:04:56.000Z</time>
      </trkpt>
      <trkpt lat="47.77623" lon="6.83412">
        <ele>551.59997558594</ele>
        <time>2023-08-03T15:04:57.000Z</time>
      </trkpt>
      <trkpt lat="47.7764" lon="6.83431">
        <ele>552.79998779297</ele>
        <time>2023-08-03T15:05:03.000Z</time>
      </trkpt>
      <trkpt lat="47.77647" lon="6.83441">
        <ele>553.59997558594</ele>
        <time>2023-08-03T15:05:06.000Z</time>
      </trkpt>
      <trkpt lat="47.77652" lon="6.83447">
        <ele>554</ele>
        <time>2023-08-03T15:05:08.000Z</time>
      </trkpt>
      <trkpt lat="47.77663" lon="6.83464">
        <ele>555.20001220703</ele>
        <time>2023-08-03T15:05:13.000Z</time>
      </trkpt>
      <trkpt lat="47.77665" lon="6.83467">
        <ele>555.40002441406</ele>
        <time>2023-08-03T15:05:14.000Z</time>
      </trkpt>
      <trkpt lat="47.77674" lon="6.8348">
        <ele>556.40002441406</ele>
        <time>2023-08-03T15:05:18.000Z</time>
      </trkpt>
      <trkpt lat="47.77685" lon="6.83496">
        <ele>557.20001220703</ele>
        <time>2023-08-03T15:05:23.000Z</time>
      </trkpt>
      <trkpt lat="47.77687" lon="6.83499">
        <ele>557.40002441406</ele>
        <time>2023-08-03T15:05:24.000Z</time>
      </trkpt>
      <trkpt lat="47.77704" lon="6.83522">
        <ele>558.40002441406</ele>
        <time>2023-08-03T15:05:31.000Z</time>
      </trkpt>
      <trkpt lat="47.77707" lon="6.83525">
        <ele>558.59997558594</ele>
        <time>2023-08-03T15:05:32.000Z</time>
      </trkpt>
      <trkpt lat="47.77718" lon="6.83538">
        <ele>559.40002441406</ele>
        <time>2023-08-03T15:05:37.000Z</time>
      </trkpt>
      <trkpt lat="47.77726" lon="6.83545">
        <ele>560.20001220703</ele>
        <time>2023-08-03T15:05:40.000Z</time>
      </trkpt>
      <trkpt lat="47.77731" lon="6.83549">
        <ele>560.59997558594</ele>
        <time>2023-08-03T15:05:42.000Z</time>
      </trkpt>
      <trkpt lat="47.77742" lon="6.83555">
        <ele>561.20001220703</ele>
        <time>2023-08-03T15:05:46.000Z</time>
      </trkpt>
      <trkpt lat="47.77749" lon="6.83559">
        <ele>561.59997558594</ele>
        <time>2023-08-03T15:05:48.000Z</time>
      </trkpt>
      <trkpt lat="47.77756" lon="6.83563">
        <ele>562.79998779297</ele>
        <time>2023-08-03T15:05:52.000Z</time>
      </trkpt>
      <trkpt lat="47.77759" lon="6.83563">
        <ele>563</ele>
        <time>2023-08-03T15:05:53.000Z</time>
      </trkpt>
      <trkpt lat="47.77766" lon="6.83567">
        <ele>563.79998779297</ele>
        <time>2023-08-03T15:05:56.000Z</time>
      </trkpt>
      <trkpt lat="47.77767" lon="6.83568">
        <ele>564</ele>
        <time>2023-08-03T15:05:57.000Z</time>
      </trkpt>
      <trkpt lat="47.77771" lon="6.8357">
        <ele>564.59997558594</ele>
        <time>2023-08-03T15:05:59.000Z</time>
      </trkpt>
      <trkpt lat="47.77776" lon="6.83572">
        <ele>564.79998779297</ele>
        <time>2023-08-03T15:06:00.000Z</time>
      </trkpt>
      <trkpt lat="47.77776" lon="6.83572">
        <ele>565</ele>
        <time>2023-08-03T15:06:01.000Z</time>
      </trkpt>
      <trkpt lat="47.77789" lon="6.83576">
        <ele>566.20001220703</ele>
        <time>2023-08-03T15:06:06.000Z</time>
      </trkpt>
      <trkpt lat="47.77793" lon="6.83578">
        <ele>566.20001220703</ele>
        <time>2023-08-03T15:06:07.000Z</time>
      </trkpt>
      <trkpt lat="47.77801" lon="6.83579">
        <ele>567.20001220703</ele>
        <time>2023-08-03T15:06:11.000Z</time>
      </trkpt>
      <trkpt lat="47.7781" lon="6.83577">
        <ele>567.79998779297</ele>
        <time>2023-08-03T15:06:13.000Z</time>
      </trkpt>
      <trkpt lat="47.77813" lon="6.83576">
        <ele>568.20001220703</ele>
        <time>2023-08-03T15:06:15.000Z</time>
      </trkpt>
      <trkpt lat="47.77827" lon="6.83566">
        <ele>568.59997558594</ele>
        <time>2023-08-03T15:06:18.000Z</time>
      </trkpt>
      <trkpt lat="47.77833" lon="6.83547">
        <ele>569.40002441406</ele>
        <time>2023-08-03T15:06:23.000Z</time>
      </trkpt>
      <trkpt lat="47.77833" lon="6.83547">
        <ele>569.40002441406</ele>
        <time>2023-08-03T15:06:24.000Z</time>
      </trkpt>
      <trkpt lat="47.77833" lon="6.83535">
        <ele>569.20001220703</ele>
        <time>2023-08-03T15:06:25.000Z</time>
      </trkpt>
      <trkpt lat="47.77834" lon="6.83529">
        <ele>569.40002441406</ele>
        <time>2023-08-03T15:06:27.000Z</time>
      </trkpt>
      <trkpt lat="47.77835" lon="6.83516">
        <ele>569.40002441406</ele>
        <time>2023-08-03T15:06:28.000Z</time>
      </trkpt>
      <trkpt lat="47.77841" lon="6.83491">
        <ele>569.59997558594</ele>
        <time>2023-08-03T15:06:33.000Z</time>
      </trkpt>
      <trkpt lat="47.77846" lon="6.83472">
        <ele>569.79998779297</ele>
        <time>2023-08-03T15:06:35.000Z</time>
      </trkpt>
      <trkpt lat="47.7785" lon="6.8346">
        <ele>570</ele>
        <time>2023-08-03T15:06:38.000Z</time>
      </trkpt>
      <trkpt lat="47.77856" lon="6.83448">
        <ele>570</ele>
        <time>2023-08-03T15:06:39.000Z</time>
      </trkpt>
      <trkpt lat="47.77869" lon="6.83429">
        <ele>570.20001220703</ele>
        <time>2023-08-03T15:06:43.000Z</time>
      </trkpt>
      <trkpt lat="47.77875" lon="6.83422">
        <ele>570.20001220703</ele>
        <time>2023-08-03T15:06:45.000Z</time>
      </trkpt>
      <trkpt lat="47.77885" lon="6.83415">
        <ele>570.40002441406</ele>
        <time>2023-08-03T15:06:48.000Z</time>
      </trkpt>
      <trkpt lat="47.77902" lon="6.83409">
        <ele>570.59997558594</ele>
        <time>2023-08-03T15:06:51.000Z</time>
      </trkpt>
      <trkpt lat="47.77913" lon="6.83404">
        <ele>571</ele>
        <time>2023-08-03T15:06:54.000Z</time>
      </trkpt>
      <trkpt lat="47.77917" lon="6.83401">
        <ele>571.20001220703</ele>
        <time>2023-08-03T15:06:55.000Z</time>
      </trkpt>
      <trkpt lat="47.77947" lon="6.83388">
        <ele>571.59997558594</ele>
        <time>2023-08-03T15:07:00.000Z</time>
      </trkpt>
      <trkpt lat="47.77976" lon="6.83386">
        <ele>572.20001220703</ele>
        <time>2023-08-03T15:07:06.000Z</time>
      </trkpt>
      <trkpt lat="47.77984" lon="6.83385">
        <ele>572.59997558594</ele>
        <time>2023-08-03T15:07:08.000Z</time>
      </trkpt>
      <trkpt lat="47.77997" lon="6.83386">
        <ele>573.20001220703</ele>
        <time>2023-08-03T15:07:11.000Z</time>
      </trkpt>
      <trkpt lat="47.78012" lon="6.83387">
        <ele>574</ele>
        <time>2023-08-03T15:07:15.000Z</time>
      </trkpt>
      <trkpt lat="47.78016" lon="6.83387">
        <ele>574.40002441406</ele>
        <time>2023-08-03T15:07:16.000Z</time>
      </trkpt>
      <trkpt lat="47.78029" lon="6.83386">
        <ele>575.59997558594</ele>
        <time>2023-08-03T15:07:21.000Z</time>
      </trkpt>
      <trkpt lat="47.7804" lon="6.83382">
        <ele>576</ele>
        <time>2023-08-03T15:07:23.000Z</time>
      </trkpt>
      <trkpt lat="47.78063" lon="6.83373">
        <ele>576.59997558594</ele>
        <time>2023-08-03T15:07:30.000Z</time>
      </trkpt>
      <trkpt lat="47.7807" lon="6.83374">
        <ele>577.20001220703</ele>
        <time>2023-08-03T15:07:33.000Z</time>
      </trkpt>
      <trkpt lat="47.78078" lon="6.83373">
        <ele>577.59997558594</ele>
        <time>2023-08-03T15:07:36.000Z</time>
      </trkpt>
      <trkpt lat="47.78087" lon="6.83369">
        <ele>578.40002441406</ele>
        <time>2023-08-03T15:07:40.000Z</time>
      </trkpt>
      <trkpt lat="47.78096" lon="6.83364">
        <ele>578.59997558594</ele>
        <time>2023-08-03T15:07:42.000Z</time>
      </trkpt>
      <trkpt lat="47.78106" lon="6.83356">
        <ele>579.40002441406</ele>
        <time>2023-08-03T15:07:46.000Z</time>
      </trkpt>
      <trkpt lat="47.78111" lon="6.83353">
        <ele>579.59997558594</ele>
        <time>2023-08-03T15:07:47.000Z</time>
      </trkpt>
      <trkpt lat="47.78122" lon="6.83343">
        <ele>580.79998779297</ele>
        <time>2023-08-03T15:07:52.000Z</time>
      </trkpt>
      <trkpt lat="47.78134" lon="6.83336">
        <ele>581.79998779297</ele>
        <time>2023-08-03T15:07:57.000Z</time>
      </trkpt>
      <trkpt lat="47.78134" lon="6.83336">
        <ele>581.79998779297</ele>
        <time>2023-08-03T15:07:58.000Z</time>
      </trkpt>
      <trkpt lat="47.78151" lon="6.83327">
        <ele>582.79998779297</ele>
        <time>2023-08-03T15:08:04.000Z</time>
      </trkpt>
      <trkpt lat="47.78154" lon="6.83327">
        <ele>583</ele>
        <time>2023-08-03T15:08:05.000Z</time>
      </trkpt>
      <trkpt lat="47.7817" lon="6.83327">
        <ele>584</ele>
        <time>2023-08-03T15:08:11.000Z</time>
      </trkpt>
      <trkpt lat="47.78188" lon="6.83336">
        <ele>585</ele>
        <time>2023-08-03T15:08:17.000Z</time>
      </trkpt>
      <trkpt lat="47.78201" lon="6.83351">
        <ele>586.20001220703</ele>
        <time>2023-08-03T15:08:24.000Z</time>
      </trkpt>
      <trkpt lat="47.78211" lon="6.83358">
        <ele>586.79998779297</ele>
        <time>2023-08-03T15:08:27.000Z</time>
      </trkpt>
      <trkpt lat="47.78213" lon="6.83359">
        <ele>587.40002441406</ele>
        <time>2023-08-03T15:08:29.000Z</time>
      </trkpt>
      <trkpt lat="47.78215" lon="6.83363">
        <ele>587.59997558594</ele>
        <time>2023-08-03T15:08:30.000Z</time>
      </trkpt>
      <trkpt lat="47.78216" lon="6.83363">
        <ele>587.79998779297</ele>
        <time>2023-08-03T15:08:31.000Z</time>
      </trkpt>
      <trkpt lat="47.78216" lon="6.83363">
        <ele>588</ele>
        <time>2023-08-03T15:08:32.000Z</time>
      </trkpt>
      <trkpt lat="47.78224" lon="6.83366">
        <ele>589</ele>
        <time>2023-08-03T15:09:16.000Z</time>
      </trkpt>
      <trkpt lat="47.78228" lon="6.83368">
        <ele>589</ele>
        <time>2023-08-03T15:09:18.000Z</time>
      </trkpt>
      <trkpt lat="47.78238" lon="6.83375">
        <ele>589.40002441406</ele>
        <time>2023-08-03T15:09:23.000Z</time>
      </trkpt>
      <trkpt lat="47.7825" lon="6.83382">
        <ele>590.20001220703</ele>
        <time>2023-08-03T15:09:27.000Z</time>
      </trkpt>
      <trkpt lat="47.78258" lon="6.83386">
        <ele>590.59997558594</ele>
        <time>2023-08-03T15:09:30.000Z</time>
      </trkpt>
      <trkpt lat="47.78267" lon="6.83391">
        <ele>591.20001220703</ele>
        <time>2023-08-03T15:09:33.000Z</time>
      </trkpt>
      <trkpt lat="47.78282" lon="6.83401">
        <ele>592.20001220703</ele>
        <time>2023-08-03T15:09:38.000Z</time>
      </trkpt>
      <trkpt lat="47.78285" lon="6.83403">
        <ele>592.40002441406</ele>
        <time>2023-08-03T15:09:39.000Z</time>
      </trkpt>
      <trkpt lat="47.78304" lon="6.83416">
        <ele>593.20001220703</ele>
        <time>2023-08-03T15:09:45.000Z</time>
      </trkpt>
      <trkpt lat="47.78307" lon="6.83418">
        <ele>593.40002441406</ele>
        <time>2023-08-03T15:09:46.000Z</time>
      </trkpt>
      <trkpt lat="47.78331" lon="6.83423">
        <ele>594</ele>
        <time>2023-08-03T15:09:53.000Z</time>
      </trkpt>
      <trkpt lat="47.78346" lon="6.83422">
        <ele>594.40002441406</ele>
        <time>2023-08-03T15:09:57.000Z</time>
      </trkpt>
      <trkpt lat="47.78367" lon="6.83419">
        <ele>595.40002441406</ele>
        <time>2023-08-03T15:10:03.000Z</time>
      </trkpt>
      <trkpt lat="47.78371" lon="6.83419">
        <ele>595.40002441406</ele>
        <time>2023-08-03T15:10:05.000Z</time>
      </trkpt>
      <trkpt lat="47.78401" lon="6.83415">
        <ele>596.59997558594</ele>
        <time>2023-08-03T15:10:13.000Z</time>
      </trkpt>
      <trkpt lat="47.78404" lon="6.83415">
        <ele>596.59997558594</ele>
        <time>2023-08-03T15:10:15.000Z</time>
      </trkpt>
      <trkpt lat="47.78425" lon="6.83413">
        <ele>597.59997558594</ele>
        <time>2023-08-03T15:10:20.000Z</time>
      </trkpt>
      <trkpt lat="47.78431" lon="6.83412">
        <ele>597.59997558594</ele>
        <time>2023-08-03T15:10:22.000Z</time>
      </trkpt>
      <trkpt lat="47.7844" lon="6.83411">
        <ele>598.59997558594</ele>
        <time>2023-08-03T15:10:25.000Z</time>
      </trkpt>
      <trkpt lat="47.78452" lon="6.8341">
        <ele>599.59997558594</ele>
        <time>2023-08-03T15:10:29.000Z</time>
      </trkpt>
      <trkpt lat="47.7846" lon="6.8341">
        <ele>600.40002441406</ele>
        <time>2023-08-03T15:10:32.000Z</time>
      </trkpt>
      <trkpt lat="47.78463" lon="6.8341">
        <ele>600.59997558594</ele>
        <time>2023-08-03T15:10:34.000Z</time>
      </trkpt>
      <trkpt lat="47.78479" lon="6.8341">
        <ele>601.59997558594</ele>
        <time>2023-08-03T15:10:39.000Z</time>
      </trkpt>
      <trkpt lat="47.78482" lon="6.83408">
        <ele>601.79998779297</ele>
        <time>2023-08-03T15:10:40.000Z</time>
      </trkpt>
      <trkpt lat="47.78494" lon="6.83403">
        <ele>603</ele>
        <time>2023-08-03T15:10:45.000Z</time>
      </trkpt>
      <trkpt lat="47.78501" lon="6.83398">
        <ele>604.20001220703</ele>
        <time>2023-08-03T15:10:49.000Z</time>
      </trkpt>
      <trkpt lat="47.78505" lon="6.83393">
        <ele>604.40002441406</ele>
        <time>2023-08-03T15:10:50.000Z</time>
      </trkpt>
      <trkpt lat="47.78513" lon="6.83381">
        <ele>605.40002441406</ele>
        <time>2023-08-03T15:10:54.000Z</time>
      </trkpt>
      <trkpt lat="47.78519" lon="6.83375">
        <ele>606.20001220703</ele>
        <time>2023-08-03T15:10:57.000Z</time>
      </trkpt>
      <trkpt lat="47.7852" lon="6.83372">
        <ele>606.59997558594</ele>
        <time>2023-08-03T15:10:58.000Z</time>
      </trkpt>
      <trkpt lat="47.78531" lon="6.83355">
        <ele>607.59997558594</ele>
        <time>2023-08-03T15:11:03.000Z</time>
      </trkpt>
      <trkpt lat="47.78533" lon="6.83351">
        <ele>607.79998779297</ele>
        <time>2023-08-03T15:11:04.000Z</time>
      </trkpt>
      <trkpt lat="47.78542" lon="6.83335">
        <ele>608.79998779297</ele>
        <time>2023-08-03T15:11:09.000Z</time>
      </trkpt>
      <trkpt lat="47.78544" lon="6.83331">
        <ele>609.20001220703</ele>
        <time>2023-08-03T15:11:11.000Z</time>
      </trkpt>
      <trkpt lat="47.78559" lon="6.83308">
        <ele>610</ele>
        <time>2023-08-03T15:11:16.000Z</time>
      </trkpt>
      <trkpt lat="47.7857" lon="6.8329">
        <ele>611</ele>
        <time>2023-08-03T15:11:20.000Z</time>
      </trkpt>
      <trkpt lat="47.7857" lon="6.8329">
        <ele>611.20001220703</ele>
        <time>2023-08-03T15:11:21.000Z</time>
      </trkpt>
      <trkpt lat="47.78583" lon="6.83269">
        <ele>612.20001220703</ele>
        <time>2023-08-03T15:11:27.000Z</time>
      </trkpt>
      <trkpt lat="47.7859" lon="6.83257">
        <ele>613</ele>
        <time>2023-08-03T15:11:32.000Z</time>
      </trkpt>
      <trkpt lat="47.78594" lon="6.83251">
        <ele>613.20001220703</ele>
        <time>2023-08-03T15:11:33.000Z</time>
      </trkpt>
      <trkpt lat="47.78609" lon="6.83232">
        <ele>614.40002441406</ele>
        <time>2023-08-03T15:11:40.000Z</time>
      </trkpt>
      <trkpt lat="47.78611" lon="6.8323">
        <ele>614.40002441406</ele>
        <time>2023-08-03T15:11:41.000Z</time>
      </trkpt>
      <trkpt lat="47.78626" lon="6.83214">
        <ele>615.59997558594</ele>
        <time>2023-08-03T15:11:47.000Z</time>
      </trkpt>
      <trkpt lat="47.78638" lon="6.832">
        <ele>616.40002441406</ele>
        <time>2023-08-03T15:11:52.000Z</time>
      </trkpt>
      <trkpt lat="47.78651" lon="6.83188">
        <ele>617.40002441406</ele>
        <time>2023-08-03T15:11:57.000Z</time>
      </trkpt>
      <trkpt lat="47.78654" lon="6.83185">
        <ele>617.59997558594</ele>
        <time>2023-08-03T15:11:58.000Z</time>
      </trkpt>
      <trkpt lat="47.78668" lon="6.8317">
        <ele>618.79998779297</ele>
        <time>2023-08-03T15:12:04.000Z</time>
      </trkpt>
      <trkpt lat="47.78686" lon="6.83152">
        <ele>619.59997558594</ele>
        <time>2023-08-03T15:12:11.000Z</time>
      </trkpt>
      <trkpt lat="47.78694" lon="6.83145">
        <ele>620.20001220703</ele>
        <time>2023-08-03T15:12:14.000Z</time>
      </trkpt>
      <trkpt lat="47.78704" lon="6.83135">
        <ele>620.79998779297</ele>
        <time>2023-08-03T15:12:18.000Z</time>
      </trkpt>
      <trkpt lat="47.78719" lon="6.83119">
        <ele>621.59997558594</ele>
        <time>2023-08-03T15:12:24.000Z</time>
      </trkpt>
      <trkpt lat="47.78722" lon="6.83117">
        <ele>621.79998779297</ele>
        <time>2023-08-03T15:12:25.000Z</time>
      </trkpt>
      <trkpt lat="47.78732" lon="6.83107">
        <ele>622.79998779297</ele>
        <time>2023-08-03T15:12:30.000Z</time>
      </trkpt>
      <trkpt lat="47.78742" lon="6.83096">
        <ele>623</ele>
        <time>2023-08-03T15:12:33.000Z</time>
      </trkpt>
      <trkpt lat="47.7875" lon="6.83091">
        <ele>624</ele>
        <time>2023-08-03T15:12:36.000Z</time>
      </trkpt>
      <trkpt lat="47.7876" lon="6.83082">
        <ele>624.79998779297</ele>
        <time>2023-08-03T15:12:40.000Z</time>
      </trkpt>
      <trkpt lat="47.78765" lon="6.83078">
        <ele>625</ele>
        <time>2023-08-03T15:12:42.000Z</time>
      </trkpt>
      <trkpt lat="47.78778" lon="6.83066">
        <ele>625.79998779297</ele>
        <time>2023-08-03T15:12:47.000Z</time>
      </trkpt>
      <trkpt lat="47.7878" lon="6.83064">
        <ele>626</ele>
        <time>2023-08-03T15:12:48.000Z</time>
      </trkpt>
      <trkpt lat="47.78795" lon="6.83053">
        <ele>627</ele>
        <time>2023-08-03T15:12:54.000Z</time>
      </trkpt>
      <trkpt lat="47.78806" lon="6.83047">
        <ele>627.59997558594</ele>
        <time>2023-08-03T15:12:58.000Z</time>
      </trkpt>
      <trkpt lat="47.78811" lon="6.83044">
        <ele>628.20001220703</ele>
        <time>2023-08-03T15:13:00.000Z</time>
      </trkpt>
      <trkpt lat="47.78821" lon="6.83035">
        <ele>629.20001220703</ele>
        <time>2023-08-03T15:13:04.000Z</time>
      </trkpt>
      <trkpt lat="47.7883" lon="6.83031">
        <ele>629.79998779297</ele>
        <time>2023-08-03T15:13:07.000Z</time>
      </trkpt>
      <trkpt lat="47.78838" lon="6.83026">
        <ele>630.40002441406</ele>
        <time>2023-08-03T15:13:10.000Z</time>
      </trkpt>
      <trkpt lat="47.78851" lon="6.83017">
        <ele>631.59997558594</ele>
        <time>2023-08-03T15:13:16.000Z</time>
      </trkpt>
      <trkpt lat="47.78866" lon="6.83007">
        <ele>632.59997558594</ele>
        <time>2023-08-03T15:13:21.000Z</time>
      </trkpt>
      <trkpt lat="47.78876" lon="6.82998">
        <ele>633.40002441406</ele>
        <time>2023-08-03T15:13:25.000Z</time>
      </trkpt>
      <trkpt lat="47.78876" lon="6.82998">
        <ele>633.59997558594</ele>
        <time>2023-08-03T15:13:26.000Z</time>
      </trkpt>
      <trkpt lat="47.78881" lon="6.82994">
        <ele>633.79998779297</ele>
        <time>2023-08-03T15:13:27.000Z</time>
      </trkpt>
      <trkpt lat="47.78888" lon="6.82989">
        <ele>634.40002441406</ele>
        <time>2023-08-03T15:13:30.000Z</time>
      </trkpt>
      <trkpt lat="47.78891" lon="6.82987">
        <ele>634.59997558594</ele>
        <time>2023-08-03T15:13:31.000Z</time>
      </trkpt>
      <trkpt lat="47.78905" lon="6.8298">
        <ele>635.59997558594</ele>
        <time>2023-08-03T15:13:36.000Z</time>
      </trkpt>
      <trkpt lat="47.78921" lon="6.82976">
        <ele>636.59997558594</ele>
        <time>2023-08-03T15:13:42.000Z</time>
      </trkpt>
      <trkpt lat="47.78932" lon="6.82974">
        <ele>637.59997558594</ele>
        <time>2023-08-03T15:13:46.000Z</time>
      </trkpt>
      <trkpt lat="47.78941" lon="6.8297">
        <ele>638.20001220703</ele>
        <time>2023-08-03T15:13:49.000Z</time>
      </trkpt>
      <trkpt lat="47.78954" lon="6.82966">
        <ele>638.79998779297</ele>
        <time>2023-08-03T15:13:53.000Z</time>
      </trkpt>
      <trkpt lat="47.7897" lon="6.82959">
        <ele>639.79998779297</ele>
        <time>2023-08-03T15:13:58.000Z</time>
      </trkpt>
      <trkpt lat="47.78973" lon="6.82958">
        <ele>639.79998779297</ele>
        <time>2023-08-03T15:13:59.000Z</time>
      </trkpt>
      <trkpt lat="47.78994" lon="6.82952">
        <ele>640.59997558594</ele>
        <time>2023-08-03T15:14:05.000Z</time>
      </trkpt>
      <trkpt lat="47.79" lon="6.82951">
        <ele>641.20001220703</ele>
        <time>2023-08-03T15:14:07.000Z</time>
      </trkpt>
      <trkpt lat="47.79009" lon="6.82951">
        <ele>641.79998779297</ele>
        <time>2023-08-03T15:14:10.000Z</time>
      </trkpt>
      <trkpt lat="47.79025" lon="6.82953">
        <ele>642.59997558594</ele>
        <time>2023-08-03T15:14:15.000Z</time>
      </trkpt>
      <trkpt lat="47.79031" lon="6.82955">
        <ele>642.79998779297</ele>
        <time>2023-08-03T15:14:17.000Z</time>
      </trkpt>
      <trkpt lat="47.79047" lon="6.82962">
        <ele>643.79998779297</ele>
        <time>2023-08-03T15:14:22.000Z</time>
      </trkpt>
      <trkpt lat="47.7905" lon="6.82964">
        <ele>644</ele>
        <time>2023-08-03T15:14:23.000Z</time>
      </trkpt>
      <trkpt lat="47.79064" lon="6.82972">
        <ele>645</ele>
        <time>2023-08-03T15:14:28.000Z</time>
      </trkpt>
      <trkpt lat="47.79068" lon="6.82973">
        <ele>645.20001220703</ele>
        <time>2023-08-03T15:14:29.000Z</time>
      </trkpt>
      <trkpt lat="47.79088" lon="6.8297">
        <ele>645.79998779297</ele>
        <time>2023-08-03T15:14:35.000Z</time>
      </trkpt>
      <trkpt lat="47.79091" lon="6.82968">
        <ele>646</ele>
        <time>2023-08-03T15:14:36.000Z</time>
      </trkpt>
      <trkpt lat="47.79113" lon="6.82954">
        <ele>647</ele>
        <time>2023-08-03T15:14:43.000Z</time>
      </trkpt>
      <trkpt lat="47.79119" lon="6.8295">
        <ele>647.20001220703</ele>
        <time>2023-08-03T15:14:45.000Z</time>
      </trkpt>
      <trkpt lat="47.7913" lon="6.82942">
        <ele>648</ele>
        <time>2023-08-03T15:14:49.000Z</time>
      </trkpt>
      <trkpt lat="47.79141" lon="6.82935">
        <ele>649</ele>
        <time>2023-08-03T15:14:53.000Z</time>
      </trkpt>
      <trkpt lat="47.79144" lon="6.82933">
        <ele>649.20001220703</ele>
        <time>2023-08-03T15:14:54.000Z</time>
      </trkpt>
      <trkpt lat="47.79155" lon="6.82926">
        <ele>650.20001220703</ele>
        <time>2023-08-03T15:14:58.000Z</time>
      </trkpt>
      <trkpt lat="47.79163" lon="6.82919">
        <ele>650.79998779297</ele>
        <time>2023-08-03T15:15:01.000Z</time>
      </trkpt>
      <trkpt lat="47.79169" lon="6.82914">
        <ele>651</ele>
        <time>2023-08-03T15:15:03.000Z</time>
      </trkpt>
      <trkpt lat="47.79182" lon="6.82901">
        <ele>652</ele>
        <time>2023-08-03T15:15:08.000Z</time>
      </trkpt>
      <trkpt lat="47.79193" lon="6.82894">
        <ele>652.79998779297</ele>
        <time>2023-08-03T15:15:12.000Z</time>
      </trkpt>
      <trkpt lat="47.79201" lon="6.82894">
        <ele>653.20001220703</ele>
        <time>2023-08-03T15:15:14.000Z</time>
      </trkpt>
      <trkpt lat="47.79207" lon="6.82897">
        <ele>653.59997558594</ele>
        <time>2023-08-03T15:15:17.000Z</time>
      </trkpt>
      <trkpt lat="47.79219" lon="6.82916">
        <ele>653.79998779297</ele>
        <time>2023-08-03T15:15:21.000Z</time>
      </trkpt>
      <trkpt lat="47.79228" lon="6.8293">
        <ele>654</ele>
        <time>2023-08-03T15:15:25.000Z</time>
      </trkpt>
      <trkpt lat="47.79235" lon="6.8294">
        <ele>654.40002441406</ele>
        <time>2023-08-03T15:15:28.000Z</time>
      </trkpt>
      <trkpt lat="47.79244" lon="6.82956">
        <ele>655</ele>
        <time>2023-08-03T15:15:32.000Z</time>
      </trkpt>
      <trkpt lat="47.79254" lon="6.82969">
        <ele>655.40002441406</ele>
        <time>2023-08-03T15:15:36.000Z</time>
      </trkpt>
      <trkpt lat="47.79267" lon="6.82989">
        <ele>656.20001220703</ele>
        <time>2023-08-03T15:15:42.000Z</time>
      </trkpt>
      <trkpt lat="47.79273" lon="6.82999">
        <ele>656.40002441406</ele>
        <time>2023-08-03T15:15:45.000Z</time>
      </trkpt>
      <trkpt lat="47.79282" lon="6.83012">
        <ele>657.20001220703</ele>
        <time>2023-08-03T15:15:49.000Z</time>
      </trkpt>
      <trkpt lat="47.79288" lon="6.83022">
        <ele>658</ele>
        <time>2023-08-03T15:15:52.000Z</time>
      </trkpt>
      <trkpt lat="47.79291" lon="6.83027">
        <ele>658.40002441406</ele>
        <time>2023-08-03T15:15:54.000Z</time>
      </trkpt>
      <trkpt lat="47.79301" lon="6.83043">
        <ele>659.40002441406</ele>
        <time>2023-08-03T15:15:59.000Z</time>
      </trkpt>
      <trkpt lat="47.79303" lon="6.83046">
        <ele>659.59997558594</ele>
        <time>2023-08-03T15:16:00.000Z</time>
      </trkpt>
      <trkpt lat="47.79304" lon="6.83048">
        <ele>659.59997558594</ele>
        <time>2023-08-03T15:16:01.000Z</time>
      </trkpt>
      <trkpt lat="47.79308" lon="6.83053">
        <ele>660.20001220703</ele>
        <time>2023-08-03T15:16:03.000Z</time>
      </trkpt>
      <trkpt lat="47.79312" lon="6.83057">
        <ele>660.59997558594</ele>
        <time>2023-08-03T15:16:05.000Z</time>
      </trkpt>
      <trkpt lat="47.79317" lon="6.83065">
        <ele>661.40002441406</ele>
        <time>2023-08-03T15:16:08.000Z</time>
      </trkpt>
      <trkpt lat="47.79319" lon="6.83068">
        <ele>661.40002441406</ele>
        <time>2023-08-03T15:16:09.000Z</time>
      </trkpt>
      <trkpt lat="47.79321" lon="6.83068">
        <ele>661.79998779297</ele>
        <time>2023-08-03T15:16:10.000Z</time>
      </trkpt>
      <trkpt lat="47.79324" lon="6.83066">
        <ele>662</ele>
        <time>2023-08-03T15:16:11.000Z</time>
      </trkpt>
      <trkpt lat="47.79327" lon="6.83066">
        <ele>662.20001220703</ele>
        <time>2023-08-03T15:16:12.000Z</time>
      </trkpt>
      <trkpt lat="47.79338" lon="6.83069">
        <ele>662.59997558594</ele>
        <time>2023-08-03T15:16:15.000Z</time>
      </trkpt>
      <trkpt lat="47.79341" lon="6.8307">
        <ele>662.79998779297</ele>
        <time>2023-08-03T15:16:16.000Z</time>
      </trkpt>
      <trkpt lat="47.79362" lon="6.83074">
        <ele>663.79998779297</ele>
        <time>2023-08-03T15:16:22.000Z</time>
      </trkpt>
      <trkpt lat="47.79364" lon="6.83074">
        <ele>664.20001220703</ele>
        <time>2023-08-03T15:16:23.000Z</time>
      </trkpt>
      <trkpt lat="47.79373" lon="6.83079">
        <ele>664.79998779297</ele>
        <time>2023-08-03T15:16:27.000Z</time>
      </trkpt>
      <trkpt lat="47.79379" lon="6.8308">
        <ele>665.20001220703</ele>
        <time>2023-08-03T15:16:29.000Z</time>
      </trkpt>
      <trkpt lat="47.79389" lon="6.83081">
        <ele>665.59997558594</ele>
        <time>2023-08-03T15:16:32.000Z</time>
      </trkpt>
      <trkpt lat="47.79399" lon="6.83085">
        <ele>666.20001220703</ele>
        <time>2023-08-03T15:16:35.000Z</time>
      </trkpt>
      <trkpt lat="47.79409" lon="6.83092">
        <ele>666.79998779297</ele>
        <time>2023-08-03T15:16:39.000Z</time>
      </trkpt>
      <trkpt lat="47.79415" lon="6.83098">
        <ele>667.40002441406</ele>
        <time>2023-08-03T15:16:42.000Z</time>
      </trkpt>
      <trkpt lat="47.79426" lon="6.83107">
        <ele>668.20001220703</ele>
        <time>2023-08-03T15:16:46.000Z</time>
      </trkpt>
      <trkpt lat="47.7943" lon="6.83113">
        <ele>668.59997558594</ele>
        <time>2023-08-03T15:16:47.000Z</time>
      </trkpt>
      <trkpt lat="47.79438" lon="6.83122">
        <ele>669.20001220703</ele>
        <time>2023-08-03T15:16:51.000Z</time>
      </trkpt>
      <trkpt lat="47.79441" lon="6.83124">
        <ele>669.59997558594</ele>
        <time>2023-08-03T15:16:52.000Z</time>
      </trkpt>
      <trkpt lat="47.79449" lon="6.8313">
        <ele>670.20001220703</ele>
        <time>2023-08-03T15:16:55.000Z</time>
      </trkpt>
      <trkpt lat="47.79457" lon="6.83132">
        <ele>670.79998779297</ele>
        <time>2023-08-03T15:16:57.000Z</time>
      </trkpt>
      <trkpt lat="47.79471" lon="6.83133">
        <ele>671.59997558594</ele>
        <time>2023-08-03T15:17:01.000Z</time>
      </trkpt>
      <trkpt lat="47.79475" lon="6.83131">
        <ele>671.79998779297</ele>
        <time>2023-08-03T15:17:02.000Z</time>
      </trkpt>
      <trkpt lat="47.79486" lon="6.83126">
        <ele>672</ele>
        <time>2023-08-03T15:17:05.000Z</time>
      </trkpt>
      <trkpt lat="47.79492" lon="6.83125">
        <ele>672.79998779297</ele>
        <time>2023-08-03T15:17:08.000Z</time>
      </trkpt>
      <trkpt lat="47.79506" lon="6.83129">
        <ele>673.20001220703</ele>
        <time>2023-08-03T15:17:12.000Z</time>
      </trkpt>
      <trkpt lat="47.79509" lon="6.8313">
        <ele>673.79998779297</ele>
        <time>2023-08-03T15:17:14.000Z</time>
      </trkpt>
      <trkpt lat="47.79512" lon="6.83131">
        <ele>673.79998779297</ele>
        <time>2023-08-03T15:17:15.000Z</time>
      </trkpt>
      <trkpt lat="47.79515" lon="6.8313">
        <ele>674</ele>
        <time>2023-08-03T15:17:16.000Z</time>
      </trkpt>
      <trkpt lat="47.79528" lon="6.83128">
        <ele>675</ele>
        <time>2023-08-03T15:17:21.000Z</time>
      </trkpt>
      <trkpt lat="47.79534" lon="6.83124">
        <ele>675.40002441406</ele>
        <time>2023-08-03T15:17:23.000Z</time>
      </trkpt>
      <trkpt lat="47.79536" lon="6.83123">
        <ele>675.59997558594</ele>
        <time>2023-08-03T15:17:24.000Z</time>
      </trkpt>
      <trkpt lat="47.79542" lon="6.83123">
        <ele>675.79998779297</ele>
        <time>2023-08-03T15:17:26.000Z</time>
      </trkpt>
      <trkpt lat="47.79542" lon="6.83123">
        <ele>676</ele>
        <time>2023-08-03T15:17:27.000Z</time>
      </trkpt>
      <trkpt lat="47.79559" lon="6.8312">
        <ele>676.59997558594</ele>
        <time>2023-08-03T15:17:31.000Z</time>
      </trkpt>
      <trkpt lat="47.79565" lon="6.83123">
        <ele>676.79998779297</ele>
        <time>2023-08-03T15:17:33.000Z</time>
      </trkpt>
      <trkpt lat="47.79567" lon="6.83124">
        <ele>677</ele>
        <time>2023-08-03T15:17:34.000Z</time>
      </trkpt>
      <trkpt lat="47.7957" lon="6.83126">
        <ele>677.59997558594</ele>
        <time>2023-08-03T15:17:36.000Z</time>
      </trkpt>
      <trkpt lat="47.79572" lon="6.83128">
        <ele>677.59997558594</ele>
        <time>2023-08-03T15:17:37.000Z</time>
      </trkpt>
      <trkpt lat="47.79575" lon="6.8313">
        <ele>678</ele>
        <time>2023-08-03T15:17:39.000Z</time>
      </trkpt>
      <trkpt lat="47.7958" lon="6.83132">
        <ele>678.40002441406</ele>
        <time>2023-08-03T15:17:41.000Z</time>
      </trkpt>
      <trkpt lat="47.79588" lon="6.83135">
        <ele>679</ele>
        <time>2023-08-03T15:17:43.000Z</time>
      </trkpt>
      <trkpt lat="47.79599" lon="6.83144">
        <ele>679.59997558594</ele>
        <time>2023-08-03T15:17:46.000Z</time>
      </trkpt>
      <trkpt lat="47.79609" lon="6.83151">
        <ele>680</ele>
        <time>2023-08-03T15:17:49.000Z</time>
      </trkpt>
      <trkpt lat="47.79614" lon="6.83158">
        <ele>680.40002441406</ele>
        <time>2023-08-03T15:17:51.000Z</time>
      </trkpt>
      <trkpt lat="47.79622" lon="6.83164">
        <ele>681.20001220703</ele>
        <time>2023-08-03T15:17:54.000Z</time>
      </trkpt>
      <trkpt lat="47.79625" lon="6.83166">
        <ele>681.40002441406</ele>
        <time>2023-08-03T15:17:55.000Z</time>
      </trkpt>
      <trkpt lat="47.79634" lon="6.83175">
        <ele>681.79998779297</ele>
        <time>2023-08-03T15:17:59.000Z</time>
      </trkpt>
      <trkpt lat="47.79635" lon="6.83178">
        <ele>682.20001220703</ele>
        <time>2023-08-03T15:18:00.000Z</time>
      </trkpt>
      <trkpt lat="47.79642" lon="6.83187">
        <ele>682.79998779297</ele>
        <time>2023-08-03T15:18:04.000Z</time>
      </trkpt>
      <trkpt lat="47.79644" lon="6.83188">
        <ele>683</ele>
        <time>2023-08-03T15:18:05.000Z</time>
      </trkpt>
      <trkpt lat="47.79646" lon="6.8319">
        <ele>683.20001220703</ele>
        <time>2023-08-03T15:18:06.000Z</time>
      </trkpt>
      <trkpt lat="47.79661" lon="6.83197">
        <ele>684.20001220703</ele>
        <time>2023-08-03T15:18:11.000Z</time>
      </trkpt>
      <trkpt lat="47.79664" lon="6.83199">
        <ele>684.40002441406</ele>
        <time>2023-08-03T15:18:12.000Z</time>
      </trkpt>
      <trkpt lat="47.79673" lon="6.83201">
        <ele>685</ele>
        <time>2023-08-03T15:18:15.000Z</time>
      </trkpt>
      <trkpt lat="47.79679" lon="6.83204">
        <ele>685.40002441406</ele>
        <time>2023-08-03T15:18:17.000Z</time>
      </trkpt>
      <trkpt lat="47.7969" lon="6.83206">
        <ele>686.40002441406</ele>
        <time>2023-08-03T15:18:21.000Z</time>
      </trkpt>
      <trkpt lat="47.79693" lon="6.83207">
        <ele>686.59997558594</ele>
        <time>2023-08-03T15:18:22.000Z</time>
      </trkpt>
      <trkpt lat="47.79714" lon="6.83201">
        <ele>687.59997558594</ele>
        <time>2023-08-03T15:18:28.000Z</time>
      </trkpt>
      <trkpt lat="47.79718" lon="6.83201">
        <ele>687.59997558594</ele>
        <time>2023-08-03T15:18:29.000Z</time>
      </trkpt>
      <trkpt lat="47.79734" lon="6.83204">
        <ele>688.59997558594</ele>
        <time>2023-08-03T15:18:35.000Z</time>
      </trkpt>
      <trkpt lat="47.79758" lon="6.83211">
        <ele>689.79998779297</ele>
        <time>2023-08-03T15:18:41.000Z</time>
      </trkpt>
      <trkpt lat="47.79761" lon="6.83213">
        <ele>690.20001220703</ele>
        <time>2023-08-03T15:18:43.000Z</time>
      </trkpt>
      <trkpt lat="47.79777" lon="6.8322">
        <ele>691</ele>
        <time>2023-08-03T15:18:47.000Z</time>
      </trkpt>
      <trkpt lat="47.79793" lon="6.83223">
        <ele>692</ele>
        <time>2023-08-03T15:18:52.000Z</time>
      </trkpt>
      <trkpt lat="47.79805" lon="6.83227">
        <ele>693</ele>
        <time>2023-08-03T15:18:57.000Z</time>
      </trkpt>
      <trkpt lat="47.79808" lon="6.83227">
        <ele>693</ele>
        <time>2023-08-03T15:18:58.000Z</time>
      </trkpt>
      <trkpt lat="47.79822" lon="6.83231">
        <ele>694.20001220703</ele>
        <time>2023-08-03T15:19:03.000Z</time>
      </trkpt>
      <trkpt lat="47.7984" lon="6.83235">
        <ele>695.40002441406</ele>
        <time>2023-08-03T15:19:09.000Z</time>
      </trkpt>
      <trkpt lat="47.79842" lon="6.83235">
        <ele>695.59997558594</ele>
        <time>2023-08-03T15:19:10.000Z</time>
      </trkpt>
      <trkpt lat="47.79851" lon="6.83238">
        <ele>696.40002441406</ele>
        <time>2023-08-03T15:19:14.000Z</time>
      </trkpt>
      <trkpt lat="47.79855" lon="6.83241">
        <ele>696.79998779297</ele>
        <time>2023-08-03T15:19:16.000Z</time>
      </trkpt>
      <trkpt lat="47.7986" lon="6.83244">
        <ele>697.40002441406</ele>
        <time>2023-08-03T15:19:19.000Z</time>
      </trkpt>
      <trkpt lat="47.79866" lon="6.83244">
        <ele>697.79998779297</ele>
        <time>2023-08-03T15:19:21.000Z</time>
      </trkpt>
      <trkpt lat="47.79871" lon="6.83242">
        <ele>698.20001220703</ele>
        <time>2023-08-03T15:19:23.000Z</time>
      </trkpt>
      <trkpt lat="47.79874" lon="6.83238">
        <ele>698.59997558594</ele>
        <time>2023-08-03T15:19:24.000Z</time>
      </trkpt>
      <trkpt lat="47.7988" lon="6.83231">
        <ele>699</ele>
        <time>2023-08-03T15:19:26.000Z</time>
      </trkpt>
      <trkpt lat="47.79889" lon="6.8322">
        <ele>699.59997558594</ele>
        <time>2023-08-03T15:19:29.000Z</time>
      </trkpt>
      <trkpt lat="47.79895" lon="6.83208">
        <ele>700</ele>
        <time>2023-08-03T15:19:32.000Z</time>
      </trkpt>
      <trkpt lat="47.79905" lon="6.83193">
        <ele>700.59997558594</ele>
        <time>2023-08-03T15:19:36.000Z</time>
      </trkpt>
      <trkpt lat="47.79908" lon="6.83189">
        <ele>700.79998779297</ele>
        <time>2023-08-03T15:19:37.000Z</time>
      </trkpt>
      <trkpt lat="47.79923" lon="6.83176">
        <ele>701.59997558594</ele>
        <time>2023-08-03T15:19:43.000Z</time>
      </trkpt>
      <trkpt lat="47.79927" lon="6.83175">
        <ele>702</ele>
        <time>2023-08-03T15:19:44.000Z</time>
      </trkpt>
      <trkpt lat="47.79949" lon="6.83177">
        <ele>702.79998779297</ele>
        <time>2023-08-03T15:19:51.000Z</time>
      </trkpt>
      <trkpt lat="47.79952" lon="6.83179">
        <ele>702.79998779297</ele>
        <time>2023-08-03T15:19:52.000Z</time>
      </trkpt>
      <trkpt lat="47.7997" lon="6.83191">
        <ele>703.59997558594</ele>
        <time>2023-08-03T15:19:58.000Z</time>
      </trkpt>
      <trkpt lat="47.79973" lon="6.83194">
        <ele>703.79998779297</ele>
        <time>2023-08-03T15:19:59.000Z</time>
      </trkpt>
      <trkpt lat="47.79989" lon="6.83211">
        <ele>704.40002441406</ele>
        <time>2023-08-03T15:20:05.000Z</time>
      </trkpt>
      <trkpt lat="47.79994" lon="6.83225">
        <ele>704.79998779297</ele>
        <time>2023-08-03T15:20:08.000Z</time>
      </trkpt>
      <trkpt lat="47.80002" lon="6.8324">
        <ele>705</ele>
        <time>2023-08-03T15:20:12.000Z</time>
      </trkpt>
      <trkpt lat="47.80012" lon="6.83263">
        <ele>705.59997558594</ele>
        <time>2023-08-03T15:20:18.000Z</time>
      </trkpt>
      <trkpt lat="47.80012" lon="6.83268">
        <ele>705.59997558594</ele>
        <time>2023-08-03T15:20:19.000Z</time>
      </trkpt>
      <trkpt lat="47.80011" lon="6.83279">
        <ele>706</ele>
        <time>2023-08-03T15:20:22.000Z</time>
      </trkpt>
      <trkpt lat="47.80008" lon="6.83291">
        <ele>706.59997558594</ele>
        <time>2023-08-03T15:20:25.000Z</time>
      </trkpt>
      <trkpt lat="47.80004" lon="6.833">
        <ele>707.40002441406</ele>
        <time>2023-08-03T15:20:28.000Z</time>
      </trkpt>
      <trkpt lat="47.80002" lon="6.83302">
        <ele>707.59997558594</ele>
        <time>2023-08-03T15:20:29.000Z</time>
      </trkpt>
      <trkpt lat="47.79999" lon="6.83304">
        <ele>707.79998779297</ele>
        <time>2023-08-03T15:20:30.000Z</time>
      </trkpt>
      <trkpt lat="47.79995" lon="6.83307">
        <ele>708.40002441406</ele>
        <time>2023-08-03T15:20:32.000Z</time>
      </trkpt>
      <trkpt lat="47.79987" lon="6.83314">
        <ele>709</ele>
        <time>2023-08-03T15:20:35.000Z</time>
      </trkpt>
      <trkpt lat="47.79979" lon="6.83325">
        <ele>709.59997558594</ele>
        <time>2023-08-03T15:20:38.000Z</time>
      </trkpt>
      <trkpt lat="47.79973" lon="6.83331">
        <ele>709.79998779297</ele>
        <time>2023-08-03T15:20:40.000Z</time>
      </trkpt>
      <trkpt lat="47.79972" lon="6.83332">
        <ele>710</ele>
        <time>2023-08-03T15:20:41.000Z</time>
      </trkpt>
      <trkpt lat="47.7997" lon="6.83334">
        <ele>710.59997558594</ele>
        <time>2023-08-03T15:20:43.000Z</time>
      </trkpt>
      <trkpt lat="47.79967" lon="6.83336">
        <ele>711</ele>
        <time>2023-08-03T15:20:45.000Z</time>
      </trkpt>
      <trkpt lat="47.79956" lon="6.83345">
        <ele>711.40002441406</ele>
        <time>2023-08-03T15:20:48.000Z</time>
      </trkpt>
      <trkpt lat="47.79949" lon="6.83359">
        <ele>712.20001220703</ele>
        <time>2023-08-03T15:20:51.000Z</time>
      </trkpt>
      <trkpt lat="47.7994" lon="6.83372">
        <ele>712.59997558594</ele>
        <time>2023-08-03T15:20:54.000Z</time>
      </trkpt>
      <trkpt lat="47.79928" lon="6.83396">
        <ele>713.40002441406</ele>
        <time>2023-08-03T15:20:59.000Z</time>
      </trkpt>
      <trkpt lat="47.79921" lon="6.83413">
        <ele>714.40002441406</ele>
        <time>2023-08-03T15:21:03.000Z</time>
      </trkpt>
      <trkpt lat="47.79918" lon="6.83417">
        <ele>714.59997558594</ele>
        <time>2023-08-03T15:21:04.000Z</time>
      </trkpt>
      <trkpt lat="47.79913" lon="6.83433">
        <ele>715.40002441406</ele>
        <time>2023-08-03T15:21:08.000Z</time>
      </trkpt>
      <trkpt lat="47.79908" lon="6.83447">
        <ele>716</ele>
        <time>2023-08-03T15:21:12.000Z</time>
      </trkpt>
      <trkpt lat="47.79905" lon="6.83461">
        <ele>716.59997558594</ele>
        <time>2023-08-03T15:21:16.000Z</time>
      </trkpt>
      <trkpt lat="47.79901" lon="6.8348">
        <ele>717.79998779297</ele>
        <time>2023-08-03T15:21:21.000Z</time>
      </trkpt>
      <trkpt lat="47.79897" lon="6.83504">
        <ele>719</ele>
        <time>2023-08-03T15:21:27.000Z</time>
      </trkpt>
      <trkpt lat="47.79896" lon="6.83535">
        <ele>720</ele>
        <time>2023-08-03T15:21:34.000Z</time>
      </trkpt>
      <trkpt lat="47.79896" lon="6.83543">
        <ele>720.20001220703</ele>
        <time>2023-08-03T15:21:36.000Z</time>
      </trkpt>
      <trkpt lat="47.79895" lon="6.8356">
        <ele>721</ele>
        <time>2023-08-03T15:21:40.000Z</time>
      </trkpt>
      <trkpt lat="47.79892" lon="6.83572">
        <ele>721.20001220703</ele>
        <time>2023-08-03T15:21:43.000Z</time>
      </trkpt>
      <trkpt lat="47.79879" lon="6.8359">
        <ele>722</ele>
        <time>2023-08-03T15:21:49.000Z</time>
      </trkpt>
      <trkpt lat="47.79877" lon="6.83592">
        <ele>722</ele>
        <time>2023-08-03T15:21:50.000Z</time>
      </trkpt>
      <trkpt lat="47.79864" lon="6.83598">
        <ele>723</ele>
        <time>2023-08-03T15:21:55.000Z</time>
      </trkpt>
      <trkpt lat="47.79858" lon="6.836">
        <ele>723.20001220703</ele>
        <time>2023-08-03T15:21:57.000Z</time>
      </trkpt>
      <trkpt lat="47.79854" lon="6.83602">
        <ele>723.20001220703</ele>
        <time>2023-08-03T15:21:59.000Z</time>
      </trkpt>
      <trkpt lat="47.79842" lon="6.83606">
        <ele>724.20001220703</ele>
        <time>2023-08-03T15:22:04.000Z</time>
      </trkpt>
      <trkpt lat="47.7983" lon="6.8361">
        <ele>725</ele>
        <time>2023-08-03T15:22:08.000Z</time>
      </trkpt>
      <trkpt lat="47.79827" lon="6.83611">
        <ele>725.40002441406</ele>
        <time>2023-08-03T15:22:09.000Z</time>
      </trkpt>
      <trkpt lat="47.79824" lon="6.83611">
        <ele>725.59997558594</ele>
        <time>2023-08-03T15:22:10.000Z</time>
      </trkpt>
      <trkpt lat="47.79812" lon="6.83614">
        <ele>726.40002441406</ele>
        <time>2023-08-03T15:22:14.000Z</time>
      </trkpt>
      <trkpt lat="47.79804" lon="6.83618">
        <ele>726.79998779297</ele>
        <time>2023-08-03T15:22:17.000Z</time>
      </trkpt>
      <trkpt lat="47.79793" lon="6.83623">
        <ele>727.40002441406</ele>
        <time>2023-08-03T15:22:20.000Z</time>
      </trkpt>
      <trkpt lat="47.7979" lon="6.83625">
        <ele>727.79998779297</ele>
        <time>2023-08-03T15:22:21.000Z</time>
      </trkpt>
      <trkpt lat="47.79785" lon="6.83627">
        <ele>727.79998779297</ele>
        <time>2023-08-03T15:22:22.000Z</time>
      </trkpt>
      <trkpt lat="47.79773" lon="6.83637">
        <ele>729</ele>
        <time>2023-08-03T15:22:26.000Z</time>
      </trkpt>
      <trkpt lat="47.79767" lon="6.83643">
        <ele>729.40002441406</ele>
        <time>2023-08-03T15:22:28.000Z</time>
      </trkpt>
      <trkpt lat="47.79756" lon="6.83649">
        <ele>730</ele>
        <time>2023-08-03T15:22:32.000Z</time>
      </trkpt>
      <trkpt lat="47.79754" lon="6.83649">
        <ele>730.40002441406</ele>
        <time>2023-08-03T15:22:33.000Z</time>
      </trkpt>
      <trkpt lat="47.79751" lon="6.83652">
        <ele>730.40002441406</ele>
        <time>2023-08-03T15:22:34.000Z</time>
      </trkpt>
      <trkpt lat="47.79748" lon="6.83653">
        <ele>730.59997558594</ele>
        <time>2023-08-03T15:22:35.000Z</time>
      </trkpt>
      <trkpt lat="47.79742" lon="6.83653">
        <ele>731</ele>
        <time>2023-08-03T15:22:37.000Z</time>
      </trkpt>
      <trkpt lat="47.79735" lon="6.83653">
        <ele>731.20001220703</ele>
        <time>2023-08-03T15:22:39.000Z</time>
      </trkpt>
      <trkpt lat="47.79728" lon="6.83654">
        <ele>732</ele>
        <time>2023-08-03T15:22:41.000Z</time>
      </trkpt>
      <trkpt lat="47.79725" lon="6.83657">
        <ele>732.40002441406</ele>
        <time>2023-08-03T15:22:43.000Z</time>
      </trkpt>
      <trkpt lat="47.79723" lon="6.83668">
        <ele>733.20001220703</ele>
        <time>2023-08-03T15:22:46.000Z</time>
      </trkpt>
      <trkpt lat="47.79724" lon="6.83672">
        <ele>733.20001220703</ele>
        <time>2023-08-03T15:22:47.000Z</time>
      </trkpt>
      <trkpt lat="47.79732" lon="6.83685">
        <ele>734</ele>
        <time>2023-08-03T15:22:51.000Z</time>
      </trkpt>
      <trkpt lat="47.79735" lon="6.83686">
        <ele>734.20001220703</ele>
        <time>2023-08-03T15:22:52.000Z</time>
      </trkpt>
      <trkpt lat="47.7975" lon="6.83686">
        <ele>734.79998779297</ele>
        <time>2023-08-03T15:22:57.000Z</time>
      </trkpt>
      <trkpt lat="47.79757" lon="6.83684">
        <ele>735.20001220703</ele>
        <time>2023-08-03T15:22:59.000Z</time>
      </trkpt>
      <trkpt lat="47.79769" lon="6.83683">
        <ele>736.20001220703</ele>
        <time>2023-08-03T15:23:03.000Z</time>
      </trkpt>
      <trkpt lat="47.79775" lon="6.83682">
        <ele>736.59997558594</ele>
        <time>2023-08-03T15:23:05.000Z</time>
      </trkpt>
      <trkpt lat="47.79783" lon="6.83681">
        <ele>737</ele>
        <time>2023-08-03T15:23:08.000Z</time>
      </trkpt>
      <trkpt lat="47.79788" lon="6.83677">
        <ele>737.59997558594</ele>
        <time>2023-08-03T15:23:10.000Z</time>
      </trkpt>
      <trkpt lat="47.79797" lon="6.83676">
        <ele>737.79998779297</ele>
        <time>2023-08-03T15:23:13.000Z</time>
      </trkpt>
      <trkpt lat="47.79798" lon="6.83676">
        <ele>738.20001220703</ele>
        <time>2023-08-03T15:23:14.000Z</time>
      </trkpt>
      <trkpt lat="47.79803" lon="6.83676">
        <ele>738.59997558594</ele>
        <time>2023-08-03T15:23:16.000Z</time>
      </trkpt>
      <trkpt lat="47.79813" lon="6.83677">
        <ele>740</ele>
        <time>2023-08-03T15:23:20.000Z</time>
      </trkpt>
      <trkpt lat="47.79817" lon="6.83678">
        <ele>740.20001220703</ele>
        <time>2023-08-03T15:23:22.000Z</time>
      </trkpt>
      <trkpt lat="47.79827" lon="6.83679">
        <ele>741</ele>
        <time>2023-08-03T15:23:26.000Z</time>
      </trkpt>
      <trkpt lat="47.7983" lon="6.83678">
        <ele>741.20001220703</ele>
        <time>2023-08-03T15:23:27.000Z</time>
      </trkpt>
      <trkpt lat="47.79833" lon="6.83678">
        <ele>741.40002441406</ele>
        <time>2023-08-03T15:23:28.000Z</time>
      </trkpt>
      <trkpt lat="47.79842" lon="6.83675">
        <ele>742</ele>
        <time>2023-08-03T15:23:31.000Z</time>
      </trkpt>
      <trkpt lat="47.79846" lon="6.83675">
        <ele>742.20001220703</ele>
        <time>2023-08-03T15:23:32.000Z</time>
      </trkpt>
      <trkpt lat="47.79857" lon="6.83679">
        <ele>743</ele>
        <time>2023-08-03T15:23:37.000Z</time>
      </trkpt>
      <trkpt lat="47.79865" lon="6.83687">
        <ele>743.59997558594</ele>
        <time>2023-08-03T15:23:40.000Z</time>
      </trkpt>
      <trkpt lat="47.79872" lon="6.83694">
        <ele>743.79998779297</ele>
        <time>2023-08-03T15:23:42.000Z</time>
      </trkpt>
      <trkpt lat="47.79874" lon="6.83697">
        <ele>744</ele>
        <time>2023-08-03T15:23:43.000Z</time>
      </trkpt>
      <trkpt lat="47.79877" lon="6.83696">
        <ele>744.40002441406</ele>
        <time>2023-08-03T15:23:44.000Z</time>
      </trkpt>
      <trkpt lat="47.79884" lon="6.83702">
        <ele>745.20001220703</ele>
        <time>2023-08-03T15:23:47.000Z</time>
      </trkpt>
      <trkpt lat="47.79899" lon="6.83708">
        <ele>746.20001220703</ele>
        <time>2023-08-03T15:23:53.000Z</time>
      </trkpt>
      <trkpt lat="47.79914" lon="6.83712">
        <ele>747.40002441406</ele>
        <time>2023-08-03T15:23:59.000Z</time>
      </trkpt>
      <trkpt lat="47.7992" lon="6.83712">
        <ele>748</ele>
        <time>2023-08-03T15:24:02.000Z</time>
      </trkpt>
      <trkpt lat="47.79923" lon="6.83713">
        <ele>748.59997558594</ele>
        <time>2023-08-03T15:24:03.000Z</time>
      </trkpt>
      <trkpt lat="47.79929" lon="6.83713">
        <ele>749.20001220703</ele>
        <time>2023-08-03T15:24:06.000Z</time>
      </trkpt>
      <trkpt lat="47.79937" lon="6.83713">
        <ele>749.59997558594</ele>
        <time>2023-08-03T15:24:09.000Z</time>
      </trkpt>
      <trkpt lat="47.79948" lon="6.83712">
        <ele>750.20001220703</ele>
        <time>2023-08-03T15:24:13.000Z</time>
      </trkpt>
      <trkpt lat="47.79953" lon="6.83712">
        <ele>750.79998779297</ele>
        <time>2023-08-03T15:24:15.000Z</time>
      </trkpt>
      <trkpt lat="47.79972" lon="6.8371">
        <ele>751.79998779297</ele>
        <time>2023-08-03T15:24:23.000Z</time>
      </trkpt>
      <trkpt lat="47.79983" lon="6.83704">
        <ele>752.79998779297</ele>
        <time>2023-08-03T15:24:28.000Z</time>
      </trkpt>
      <trkpt lat="47.79987" lon="6.83699">
        <ele>753.59997558594</ele>
        <time>2023-08-03T15:24:30.000Z</time>
      </trkpt>
      <trkpt lat="47.79995" lon="6.83689">
        <ele>753.79998779297</ele>
        <time>2023-08-03T15:24:34.000Z</time>
      </trkpt>
      <trkpt lat="47.80004" lon="6.83683">
        <ele>754.20001220703</ele>
        <time>2023-08-03T15:24:38.000Z</time>
      </trkpt>
      <trkpt lat="47.80008" lon="6.83682">
        <ele>754.59997558594</ele>
        <time>2023-08-03T15:24:40.000Z</time>
      </trkpt>
      <trkpt lat="47.80019" lon="6.83683">
        <ele>755.59997558594</ele>
        <time>2023-08-03T15:24:44.000Z</time>
      </trkpt>
      <trkpt lat="47.8003" lon="6.8368">
        <ele>756.79998779297</ele>
        <time>2023-08-03T15:24:48.000Z</time>
      </trkpt>
      <trkpt lat="47.80037" lon="6.83675">
        <ele>757.59997558594</ele>
        <time>2023-08-03T15:24:51.000Z</time>
      </trkpt>
      <trkpt lat="47.80039" lon="6.83674">
        <ele>758</ele>
        <time>2023-08-03T15:24:52.000Z</time>
      </trkpt>
      <trkpt lat="47.8005" lon="6.83657">
        <ele>758.79998779297</ele>
        <time>2023-08-03T15:24:58.000Z</time>
      </trkpt>
      <trkpt lat="47.80051" lon="6.83655">
        <ele>759</ele>
        <time>2023-08-03T15:24:59.000Z</time>
      </trkpt>
      <trkpt lat="47.80054" lon="6.8364">
        <ele>760</ele>
        <time>2023-08-03T15:25:04.000Z</time>
      </trkpt>
      <trkpt lat="47.80055" lon="6.83636">
        <ele>760.20001220703</ele>
        <time>2023-08-03T15:25:05.000Z</time>
      </trkpt>
      <trkpt lat="47.80057" lon="6.83623">
        <ele>761.20001220703</ele>
        <time>2023-08-03T15:25:09.000Z</time>
      </trkpt>
      <trkpt lat="47.80056" lon="6.8362">
        <ele>761.20001220703</ele>
        <time>2023-08-03T15:25:10.000Z</time>
      </trkpt>
      <trkpt lat="47.80056" lon="6.83617">
        <ele>761.40002441406</ele>
        <time>2023-08-03T15:25:11.000Z</time>
      </trkpt>
      <trkpt lat="47.80053" lon="6.83601">
        <ele>762.20001220703</ele>
        <time>2023-08-03T15:25:15.000Z</time>
      </trkpt>
      <trkpt lat="47.80052" lon="6.83593">
        <ele>762.79998779297</ele>
        <time>2023-08-03T15:25:17.000Z</time>
      </trkpt>
      <trkpt lat="47.8005" lon="6.83581">
        <ele>763.40002441406</ele>
        <time>2023-08-03T15:25:20.000Z</time>
      </trkpt>
      <trkpt lat="47.80049" lon="6.83564">
        <ele>763.79998779297</ele>
        <time>2023-08-03T15:25:23.000Z</time>
      </trkpt>
      <trkpt lat="47.80048" lon="6.83548">
        <ele>764.79998779297</ele>
        <time>2023-08-03T15:25:27.000Z</time>
      </trkpt>
      <trkpt lat="47.80048" lon="6.83544">
        <ele>765</ele>
        <time>2023-08-03T15:25:28.000Z</time>
      </trkpt>
      <trkpt lat="47.80048" lon="6.8353">
        <ele>765.59997558594</ele>
        <time>2023-08-03T15:25:32.000Z</time>
      </trkpt>
      <trkpt lat="47.80048" lon="6.83522">
        <ele>766</ele>
        <time>2023-08-03T15:25:34.000Z</time>
      </trkpt>
      <trkpt lat="47.80049" lon="6.83507">
        <ele>766.79998779297</ele>
        <time>2023-08-03T15:25:38.000Z</time>
      </trkpt>
      <trkpt lat="47.80052" lon="6.83496">
        <ele>767.40002441406</ele>
        <time>2023-08-03T15:25:41.000Z</time>
      </trkpt>
      <trkpt lat="47.80055" lon="6.83488">
        <ele>767.59997558594</ele>
        <time>2023-08-03T15:25:43.000Z</time>
      </trkpt>
      <trkpt lat="47.80057" lon="6.83484">
        <ele>767.79998779297</ele>
        <time>2023-08-03T15:25:44.000Z</time>
      </trkpt>
      <trkpt lat="47.80069" lon="6.83469">
        <ele>768.40002441406</ele>
        <time>2023-08-03T15:25:49.000Z</time>
      </trkpt>
      <trkpt lat="47.8008" lon="6.83457">
        <ele>768.79998779297</ele>
        <time>2023-08-03T15:25:54.000Z</time>
      </trkpt>
      <trkpt lat="47.80093" lon="6.83445">
        <ele>770</ele>
        <time>2023-08-03T15:26:00.000Z</time>
      </trkpt>
      <trkpt lat="47.80096" lon="6.83443">
        <ele>770.40002441406</ele>
        <time>2023-08-03T15:26:01.000Z</time>
      </trkpt>
      <trkpt lat="47.80104" lon="6.83436">
        <ele>771</ele>
        <time>2023-08-03T15:26:04.000Z</time>
      </trkpt>
      <trkpt lat="47.80112" lon="6.83425">
        <ele>772</ele>
        <time>2023-08-03T15:26:08.000Z</time>
      </trkpt>
      <trkpt lat="47.80114" lon="6.83422">
        <ele>772.40002441406</ele>
        <time>2023-08-03T15:26:09.000Z</time>
      </trkpt>
      <trkpt lat="47.80123" lon="6.83407">
        <ele>773.79998779297</ele>
        <time>2023-08-03T15:26:14.000Z</time>
      </trkpt>
      <trkpt lat="47.80129" lon="6.834">
        <ele>774.40002441406</ele>
        <time>2023-08-03T15:26:17.000Z</time>
      </trkpt>
      <trkpt lat="47.80132" lon="6.83399">
        <ele>774.59997558594</ele>
        <time>2023-08-03T15:26:18.000Z</time>
      </trkpt>
      <trkpt lat="47.80135" lon="6.834">
        <ele>774.79998779297</ele>
        <time>2023-08-03T15:26:19.000Z</time>
      </trkpt>
      <trkpt lat="47.80138" lon="6.83403">
        <ele>775.20001220703</ele>
        <time>2023-08-03T15:26:21.000Z</time>
      </trkpt>
      <trkpt lat="47.80139" lon="6.8341">
        <ele>775.79998779297</ele>
        <time>2023-08-03T15:26:23.000Z</time>
      </trkpt>
      <trkpt lat="47.80138" lon="6.83413">
        <ele>776</ele>
        <time>2023-08-03T15:26:24.000Z</time>
      </trkpt>
      <trkpt lat="47.80136" lon="6.83416">
        <ele>776.20001220703</ele>
        <time>2023-08-03T15:26:25.000Z</time>
      </trkpt>
      <trkpt lat="47.8013" lon="6.83431">
        <ele>777</ele>
        <time>2023-08-03T15:26:29.000Z</time>
      </trkpt>
      <trkpt lat="47.80129" lon="6.83434">
        <ele>777.20001220703</ele>
        <time>2023-08-03T15:26:30.000Z</time>
      </trkpt>
      <trkpt lat="47.80124" lon="6.83451">
        <ele>777.79998779297</ele>
        <time>2023-08-03T15:26:35.000Z</time>
      </trkpt>
      <trkpt lat="47.80123" lon="6.83454">
        <ele>777.79998779297</ele>
        <time>2023-08-03T15:26:36.000Z</time>
      </trkpt>
      <trkpt lat="47.80119" lon="6.83471">
        <ele>779</ele>
        <time>2023-08-03T15:26:41.000Z</time>
      </trkpt>
      <trkpt lat="47.80119" lon="6.83481">
        <ele>779.59997558594</ele>
        <time>2023-08-03T15:26:44.000Z</time>
      </trkpt>
      <trkpt lat="47.80119" lon="6.83485">
        <ele>780</ele>
        <time>2023-08-03T15:26:45.000Z</time>
      </trkpt>
      <trkpt lat="47.80119" lon="6.83498">
        <ele>780.79998779297</ele>
        <time>2023-08-03T15:26:49.000Z</time>
      </trkpt>
      <trkpt lat="47.80119" lon="6.83502">
        <ele>781</ele>
        <time>2023-08-03T15:26:50.000Z</time>
      </trkpt>
      <trkpt lat="47.80121" lon="6.83516">
        <ele>782</ele>
        <time>2023-08-03T15:26:54.000Z</time>
      </trkpt>
      <trkpt lat="47.80122" lon="6.83521">
        <ele>782.20001220703</ele>
        <time>2023-08-03T15:26:55.000Z</time>
      </trkpt>
      <trkpt lat="47.80125" lon="6.83539">
        <ele>783.20001220703</ele>
        <time>2023-08-03T15:27:00.000Z</time>
      </trkpt>
      <trkpt lat="47.80131" lon="6.83557">
        <ele>784</ele>
        <time>2023-08-03T15:27:05.000Z</time>
      </trkpt>
      <trkpt lat="47.80132" lon="6.83564">
        <ele>784.40002441406</ele>
        <time>2023-08-03T15:27:07.000Z</time>
      </trkpt>
      <trkpt lat="47.80136" lon="6.83583">
        <ele>785.40002441406</ele>
        <time>2023-08-03T15:27:12.000Z</time>
      </trkpt>
      <trkpt lat="47.80138" lon="6.83594">
        <ele>785.79998779297</ele>
        <time>2023-08-03T15:27:15.000Z</time>
      </trkpt>
      <trkpt lat="47.80141" lon="6.83605">
        <ele>786.40002441406</ele>
        <time>2023-08-03T15:27:18.000Z</time>
      </trkpt>
      <trkpt lat="47.80142" lon="6.83616">
        <ele>787.20001220703</ele>
        <time>2023-08-03T15:27:21.000Z</time>
      </trkpt>
      <trkpt lat="47.80144" lon="6.83622">
        <ele>787.59997558594</ele>
        <time>2023-08-03T15:27:23.000Z</time>
      </trkpt>
      <trkpt lat="47.80146" lon="6.83642">
        <ele>788.59997558594</ele>
        <time>2023-08-03T15:27:28.000Z</time>
      </trkpt>
      <trkpt lat="47.80147" lon="6.83649">
        <ele>789.20001220703</ele>
        <time>2023-08-03T15:27:30.000Z</time>
      </trkpt>
      <trkpt lat="47.8015" lon="6.83657">
        <ele>789.79998779297</ele>
        <time>2023-08-03T15:27:32.000Z</time>
      </trkpt>
      <trkpt lat="47.80152" lon="6.83671">
        <ele>790.59997558594</ele>
        <time>2023-08-03T15:27:36.000Z</time>
      </trkpt>
      <trkpt lat="47.80154" lon="6.83676">
        <ele>790.79998779297</ele>
        <time>2023-08-03T15:27:38.000Z</time>
      </trkpt>
      <trkpt lat="47.80156" lon="6.83695">
        <ele>791.79998779297</ele>
        <time>2023-08-03T15:27:44.000Z</time>
      </trkpt>
      <trkpt lat="47.80155" lon="6.83702">
        <ele>792.20001220703</ele>
        <time>2023-08-03T15:27:46.000Z</time>
      </trkpt>
      <trkpt lat="47.80157" lon="6.83708">
        <ele>792.59997558594</ele>
        <time>2023-08-03T15:27:48.000Z</time>
      </trkpt>
      <trkpt lat="47.80159" lon="6.83713">
        <ele>793.20001220703</ele>
        <time>2023-08-03T15:27:50.000Z</time>
      </trkpt>
      <trkpt lat="47.80169" lon="6.83735">
        <ele>794.40002441406</ele>
        <time>2023-08-03T15:27:57.000Z</time>
      </trkpt>
      <trkpt lat="47.80173" lon="6.83746">
        <ele>795</ele>
        <time>2023-08-03T15:28:00.000Z</time>
      </trkpt>
      <trkpt lat="47.80176" lon="6.8376">
        <ele>795.40002441406</ele>
        <time>2023-08-03T15:28:04.000Z</time>
      </trkpt>
      <trkpt lat="47.80174" lon="6.83776">
        <ele>796.40002441406</ele>
        <time>2023-08-03T15:28:09.000Z</time>
      </trkpt>
      <trkpt lat="47.80173" lon="6.83788">
        <ele>796.59997558594</ele>
        <time>2023-08-03T15:28:11.000Z</time>
      </trkpt>
      <trkpt lat="47.8017" lon="6.83823">
        <ele>797.20001220703</ele>
        <time>2023-08-03T15:28:17.000Z</time>
      </trkpt>
      <trkpt lat="47.80159" lon="6.83835">
        <ele>797.59997558594</ele>
        <time>2023-08-03T15:28:21.000Z</time>
      </trkpt>
      <trkpt lat="47.80154" lon="6.83837">
        <ele>797.59997558594</ele>
        <time>2023-08-03T15:28:23.000Z</time>
      </trkpt>
      <trkpt lat="47.80139" lon="6.83841">
        <ele>798.40002441406</ele>
        <time>2023-08-03T15:28:29.000Z</time>
      </trkpt>
      <trkpt lat="47.80127" lon="6.83844">
        <ele>799.59997558594</ele>
        <time>2023-08-03T15:28:34.000Z</time>
      </trkpt>
      <trkpt lat="47.80117" lon="6.83846">
        <ele>800.40002441406</ele>
        <time>2023-08-03T15:28:39.000Z</time>
      </trkpt>
      <trkpt lat="47.80113" lon="6.83846">
        <ele>800.79998779297</ele>
        <time>2023-08-03T15:28:41.000Z</time>
      </trkpt>
      <trkpt lat="47.80105" lon="6.83847">
        <ele>802</ele>
        <time>2023-08-03T15:28:46.000Z</time>
      </trkpt>
      <trkpt lat="47.80104" lon="6.83847">
        <ele>802</ele>
        <time>2023-08-03T15:28:47.000Z</time>
      </trkpt>
      <trkpt lat="47.80094" lon="6.83847">
        <ele>802.59997558594</ele>
        <time>2023-08-03T15:28:52.000Z</time>
      </trkpt>
      <trkpt lat="47.80089" lon="6.83847">
        <ele>803</ele>
        <time>2023-08-03T15:28:54.000Z</time>
      </trkpt>
      <trkpt lat="47.80084" lon="6.83848">
        <ele>803.20001220703</ele>
        <time>2023-08-03T15:28:56.000Z</time>
      </trkpt>
      <trkpt lat="47.80082" lon="6.83849">
        <ele>803.40002441406</ele>
        <time>2023-08-03T15:28:57.000Z</time>
      </trkpt>
      <trkpt lat="47.80075" lon="6.83851">
        <ele>803.79998779297</ele>
        <time>2023-08-03T15:29:00.000Z</time>
      </trkpt>
      <trkpt lat="47.80073" lon="6.83852">
        <ele>804</ele>
        <time>2023-08-03T15:29:01.000Z</time>
      </trkpt>
      <trkpt lat="47.80068" lon="6.83853">
        <ele>804.20001220703</ele>
        <time>2023-08-03T15:29:03.000Z</time>
      </trkpt>
      <trkpt lat="47.8006" lon="6.83856">
        <ele>804.79998779297</ele>
        <time>2023-08-03T15:29:05.000Z</time>
      </trkpt>
      <trkpt lat="47.80057" lon="6.83857">
        <ele>804.79998779297</ele>
        <time>2023-08-03T15:29:06.000Z</time>
      </trkpt>
      <trkpt lat="47.8005" lon="6.83864">
        <ele>805</ele>
        <time>2023-08-03T15:29:08.000Z</time>
      </trkpt>
      <trkpt lat="47.80034" lon="6.83871">
        <ele>805.59997558594</ele>
        <time>2023-08-03T15:29:12.000Z</time>
      </trkpt>
      <trkpt lat="47.80026" lon="6.83873">
        <ele>805.79998779297</ele>
        <time>2023-08-03T15:29:14.000Z</time>
      </trkpt>
      <trkpt lat="47.80023" lon="6.83875">
        <ele>806</ele>
        <time>2023-08-03T15:29:15.000Z</time>
      </trkpt>
      <trkpt lat="47.80014" lon="6.83876">
        <ele>807</ele>
        <time>2023-08-03T15:29:20.000Z</time>
      </trkpt>
      <trkpt lat="47.80012" lon="6.83878">
        <ele>807.40002441406</ele>
        <time>2023-08-03T15:29:22.000Z</time>
      </trkpt>
      <trkpt lat="47.80005" lon="6.83882">
        <ele>808</ele>
        <time>2023-08-03T15:29:26.000Z</time>
      </trkpt>
      <trkpt lat="47.80003" lon="6.83884">
        <ele>808.20001220703</ele>
        <time>2023-08-03T15:29:27.000Z</time>
      </trkpt>
      <trkpt lat="47.80002" lon="6.83885">
        <ele>808.40002441406</ele>
        <time>2023-08-03T15:29:28.000Z</time>
      </trkpt>
      <trkpt lat="47.79994" lon="6.83892">
        <ele>809</ele>
        <time>2023-08-03T15:29:31.000Z</time>
      </trkpt>
      <trkpt lat="47.79984" lon="6.839">
        <ele>809.40002441406</ele>
        <time>2023-08-03T15:29:34.000Z</time>
      </trkpt>
      <trkpt lat="47.79974" lon="6.83909">
        <ele>810.20001220703</ele>
        <time>2023-08-03T15:29:38.000Z</time>
      </trkpt>
      <trkpt lat="47.79972" lon="6.8391">
        <ele>810.40002441406</ele>
        <time>2023-08-03T15:29:39.000Z</time>
      </trkpt>
      <trkpt lat="47.79963" lon="6.83919">
        <ele>811.20001220703</ele>
        <time>2023-08-03T15:29:44.000Z</time>
      </trkpt>
      <trkpt lat="47.79947" lon="6.83932">
        <ele>811.79998779297</ele>
        <time>2023-08-03T15:29:49.000Z</time>
      </trkpt>
      <trkpt lat="47.79942" lon="6.8394">
        <ele>812</ele>
        <time>2023-08-03T15:29:51.000Z</time>
      </trkpt>
      <trkpt lat="47.79935" lon="6.83947">
        <ele>812.59997558594</ele>
        <time>2023-08-03T15:29:54.000Z</time>
      </trkpt>
      <trkpt lat="47.79929" lon="6.83953">
        <ele>813.20001220703</ele>
        <time>2023-08-03T15:29:57.000Z</time>
      </trkpt>
      <trkpt lat="47.79922" lon="6.83959">
        <ele>813.79998779297</ele>
        <time>2023-08-03T15:30:00.000Z</time>
      </trkpt>
      <trkpt lat="47.79917" lon="6.83957">
        <ele>814.20001220703</ele>
        <time>2023-08-03T15:30:02.000Z</time>
      </trkpt>
      <trkpt lat="47.79909" lon="6.8395">
        <ele>814.79998779297</ele>
        <time>2023-08-03T15:30:06.000Z</time>
      </trkpt>
      <trkpt lat="47.79904" lon="6.83946">
        <ele>815.20001220703</ele>
        <time>2023-08-03T15:30:08.000Z</time>
      </trkpt>
      <trkpt lat="47.79894" lon="6.8394">
        <ele>816.20001220703</ele>
        <time>2023-08-03T15:30:13.000Z</time>
      </trkpt>
      <trkpt lat="47.79891" lon="6.83939">
        <ele>816.20001220703</ele>
        <time>2023-08-03T15:30:14.000Z</time>
      </trkpt>
      <trkpt lat="47.7988" lon="6.83937">
        <ele>817.20001220703</ele>
        <time>2023-08-03T15:30:19.000Z</time>
      </trkpt>
      <trkpt lat="47.79875" lon="6.83936">
        <ele>817.79998779297</ele>
        <time>2023-08-03T15:30:21.000Z</time>
      </trkpt>
      <trkpt lat="47.79866" lon="6.83936">
        <ele>818.40002441406</ele>
        <time>2023-08-03T15:30:25.000Z</time>
      </trkpt>
      <trkpt lat="47.79862" lon="6.83937">
        <ele>818.59997558594</ele>
        <time>2023-08-03T15:30:27.000Z</time>
      </trkpt>
      <trkpt lat="47.79852" lon="6.8394">
        <ele>819.59997558594</ele>
        <time>2023-08-03T15:30:32.000Z</time>
      </trkpt>
      <trkpt lat="47.79839" lon="6.83942">
        <ele>820.20001220703</ele>
        <time>2023-08-03T15:30:36.000Z</time>
      </trkpt>
      <trkpt lat="47.79834" lon="6.8394">
        <ele>820.40002441406</ele>
        <time>2023-08-03T15:30:38.000Z</time>
      </trkpt>
      <trkpt lat="47.79826" lon="6.83934">
        <ele>821</ele>
        <time>2023-08-03T15:30:41.000Z</time>
      </trkpt>
      <trkpt lat="47.79821" lon="6.83926">
        <ele>821.59997558594</ele>
        <time>2023-08-03T15:30:44.000Z</time>
      </trkpt>
      <trkpt lat="47.79815" lon="6.83922">
        <ele>822.20001220703</ele>
        <time>2023-08-03T15:30:47.000Z</time>
      </trkpt>
      <trkpt lat="47.7981" lon="6.8392">
        <ele>822.79998779297</ele>
        <time>2023-08-03T15:30:49.000Z</time>
      </trkpt>
      <trkpt lat="47.79803" lon="6.83915">
        <ele>823.40002441406</ele>
        <time>2023-08-03T15:30:52.000Z</time>
      </trkpt>
      <trkpt lat="47.79798" lon="6.83913">
        <ele>824</ele>
        <time>2023-08-03T15:30:54.000Z</time>
      </trkpt>
      <trkpt lat="47.79781" lon="6.83911">
        <ele>825</ele>
        <time>2023-08-03T15:31:00.000Z</time>
      </trkpt>
      <trkpt lat="47.79779" lon="6.8391">
        <ele>825</ele>
        <time>2023-08-03T15:31:01.000Z</time>
      </trkpt>
      <trkpt lat="47.79763" lon="6.83907">
        <ele>825.79998779297</ele>
        <time>2023-08-03T15:31:07.000Z</time>
      </trkpt>
      <trkpt lat="47.79758" lon="6.83906">
        <ele>826</ele>
        <time>2023-08-03T15:31:09.000Z</time>
      </trkpt>
      <trkpt lat="47.79739" lon="6.83899">
        <ele>827</ele>
        <time>2023-08-03T15:31:17.000Z</time>
      </trkpt>
      <trkpt lat="47.79724" lon="6.83897">
        <ele>828</ele>
        <time>2023-08-03T15:31:23.000Z</time>
      </trkpt>
      <trkpt lat="47.79722" lon="6.83898">
        <ele>828.40002441406</ele>
        <time>2023-08-03T15:31:24.000Z</time>
      </trkpt>
      <trkpt lat="47.79712" lon="6.83912">
        <ele>829.20001220703</ele>
        <time>2023-08-03T15:31:29.000Z</time>
      </trkpt>
      <trkpt lat="47.79711" lon="6.83919">
        <ele>829.59997558594</ele>
        <time>2023-08-03T15:31:31.000Z</time>
      </trkpt>
      <trkpt lat="47.79714" lon="6.83926">
        <ele>829.79998779297</ele>
        <time>2023-08-03T15:31:33.000Z</time>
      </trkpt>
      <trkpt lat="47.79724" lon="6.83934">
        <ele>830</ele>
        <time>2023-08-03T15:31:37.000Z</time>
      </trkpt>
      <trkpt lat="47.7973" lon="6.83935">
        <ele>830.20001220703</ele>
        <time>2023-08-03T15:31:39.000Z</time>
      </trkpt>
      <trkpt lat="47.79744" lon="6.83931">
        <ele>830.20001220703</ele>
        <time>2023-08-03T15:31:44.000Z</time>
      </trkpt>
      <trkpt lat="47.79763" lon="6.83928">
        <ele>831.20001220703</ele>
        <time>2023-08-03T15:31:51.000Z</time>
      </trkpt>
      <trkpt lat="47.79766" lon="6.83929">
        <ele>831.40002441406</ele>
        <time>2023-08-03T15:31:52.000Z</time>
      </trkpt>
      <trkpt lat="47.79781" lon="6.83937">
        <ele>832.59997558594</ele>
        <time>2023-08-03T15:31:58.000Z</time>
      </trkpt>
      <trkpt lat="47.79784" lon="6.83939">
        <ele>832.79998779297</ele>
        <time>2023-08-03T15:31:59.000Z</time>
      </trkpt>
      <trkpt lat="47.79794" lon="6.83948">
        <ele>833.59997558594</ele>
        <time>2023-08-03T15:32:04.000Z</time>
      </trkpt>
      <trkpt lat="47.79797" lon="6.83954">
        <ele>834</ele>
        <time>2023-08-03T15:32:06.000Z</time>
      </trkpt>
      <trkpt lat="47.79803" lon="6.83966">
        <ele>834.59997558594</ele>
        <time>2023-08-03T15:32:10.000Z</time>
      </trkpt>
      <trkpt lat="47.79806" lon="6.83976">
        <ele>835.40002441406</ele>
        <time>2023-08-03T15:32:13.000Z</time>
      </trkpt>
      <trkpt lat="47.79808" lon="6.83982">
        <ele>836</ele>
        <time>2023-08-03T15:32:15.000Z</time>
      </trkpt>
      <trkpt lat="47.79812" lon="6.83991">
        <ele>837.20001220703</ele>
        <time>2023-08-03T15:32:18.000Z</time>
      </trkpt>
      <trkpt lat="47.79821" lon="6.84001">
        <ele>838.40002441406</ele>
        <time>2023-08-03T15:32:23.000Z</time>
      </trkpt>
      <trkpt lat="47.79835" lon="6.84005">
        <ele>839.20001220703</ele>
        <time>2023-08-03T15:32:28.000Z</time>
      </trkpt>
      <trkpt lat="47.7984" lon="6.84006">
        <ele>839.79998779297</ele>
        <time>2023-08-03T15:32:30.000Z</time>
      </trkpt>
      <trkpt lat="47.79857" lon="6.84007">
        <ele>840.40002441406</ele>
        <time>2023-08-03T15:32:36.000Z</time>
      </trkpt>
      <trkpt lat="47.79862" lon="6.84008">
        <ele>840.59997558594</ele>
        <time>2023-08-03T15:32:39.000Z</time>
      </trkpt>
      <trkpt lat="47.79885" lon="6.84017">
        <ele>841.20001220703</ele>
        <time>2023-08-03T15:32:47.000Z</time>
      </trkpt>
      <trkpt lat="47.79897" lon="6.84026">
        <ele>842.20001220703</ele>
        <time>2023-08-03T15:32:52.000Z</time>
      </trkpt>
      <trkpt lat="47.79906" lon="6.84035">
        <ele>843</ele>
        <time>2023-08-03T15:32:56.000Z</time>
      </trkpt>
      <trkpt lat="47.79908" lon="6.84037">
        <ele>843.20001220703</ele>
        <time>2023-08-03T15:32:57.000Z</time>
      </trkpt>
      <trkpt lat="47.79918" lon="6.84052">
        <ele>844.20001220703</ele>
        <time>2023-08-03T15:33:03.000Z</time>
      </trkpt>
      <trkpt lat="47.79925" lon="6.84065">
        <ele>845.20001220703</ele>
        <time>2023-08-03T15:33:08.000Z</time>
      </trkpt>
      <trkpt lat="47.79926" lon="6.84068">
        <ele>845.59997558594</ele>
        <time>2023-08-03T15:33:09.000Z</time>
      </trkpt>
      <trkpt lat="47.79932" lon="6.84084">
        <ele>846.59997558594</ele>
        <time>2023-08-03T15:33:15.000Z</time>
      </trkpt>
      <trkpt lat="47.79938" lon="6.84098">
        <ele>847.59997558594</ele>
        <time>2023-08-03T15:33:20.000Z</time>
      </trkpt>
      <trkpt lat="47.79939" lon="6.84101">
        <ele>848</ele>
        <time>2023-08-03T15:33:21.000Z</time>
      </trkpt>
      <trkpt lat="47.79946" lon="6.84111">
        <ele>848.79998779297</ele>
        <time>2023-08-03T15:33:24.000Z</time>
      </trkpt>
      <trkpt lat="47.79948" lon="6.84114">
        <ele>849</ele>
        <time>2023-08-03T15:33:25.000Z</time>
      </trkpt>
      <trkpt lat="47.79952" lon="6.84118">
        <ele>849.40002441406</ele>
        <time>2023-08-03T15:33:27.000Z</time>
      </trkpt>
      <trkpt lat="47.79954" lon="6.84119">
        <ele>849.79998779297</ele>
        <time>2023-08-03T15:33:28.000Z</time>
      </trkpt>
      <trkpt lat="47.79954" lon="6.8412">
        <ele>849.79998779297</ele>
        <time>2023-08-03T15:33:29.000Z</time>
      </trkpt>
      <trkpt lat="47.79954" lon="6.8412">
        <ele>850.20001220703</ele>
        <time>2023-08-03T15:33:31.000Z</time>
      </trkpt>
      <trkpt lat="47.79954" lon="6.8412">
        <ele>850.40002441406</ele>
        <time>2023-08-03T15:33:32.000Z</time>
      </trkpt>
      <trkpt lat="47.79956" lon="6.84119">
        <ele>852.40002441406</ele>
        <time>2023-08-03T15:34:50.000Z</time>
      </trkpt>
      <trkpt lat="47.79959" lon="6.84119">
        <ele>852.40002441406</ele>
        <time>2023-08-03T15:34:52.000Z</time>
      </trkpt>
      <trkpt lat="47.79962" lon="6.84118">
        <ele>852.40002441406</ele>
        <time>2023-08-03T15:34:53.000Z</time>
      </trkpt>
      <trkpt lat="47.79969" lon="6.84108">
        <ele>852.20001220703</ele>
        <time>2023-08-03T15:34:56.000Z</time>
      </trkpt>
      <trkpt lat="47.7998" lon="6.84071">
        <ele>852.59997558594</ele>
        <time>2023-08-03T15:35:04.000Z</time>
      </trkpt>
      <trkpt lat="47.79987" lon="6.84056">
        <ele>853</ele>
        <time>2023-08-03T15:35:09.000Z</time>
      </trkpt>
      <trkpt lat="47.79988" lon="6.84054">
        <ele>853</ele>
        <time>2023-08-03T15:35:10.000Z</time>
      </trkpt>
      <trkpt lat="47.79996" lon="6.84051">
        <ele>853.20001220703</ele>
        <time>2023-08-03T15:35:13.000Z</time>
      </trkpt>
      <trkpt lat="47.80002" lon="6.84051">
        <ele>854.20001220703</ele>
        <time>2023-08-03T15:35:15.000Z</time>
      </trkpt>
      <trkpt lat="47.80011" lon="6.84053">
        <ele>854.79998779297</ele>
        <time>2023-08-03T15:35:18.000Z</time>
      </trkpt>
      <trkpt lat="47.80015" lon="6.84054">
        <ele>855.40002441406</ele>
        <time>2023-08-03T15:35:20.000Z</time>
      </trkpt>
      <trkpt lat="47.80024" lon="6.8405">
        <ele>855.79998779297</ele>
        <time>2023-08-03T15:35:23.000Z</time>
      </trkpt>
      <trkpt lat="47.80033" lon="6.84041">
        <ele>856.59997558594</ele>
        <time>2023-08-03T15:35:26.000Z</time>
      </trkpt>
      <trkpt lat="47.80042" lon="6.8403">
        <ele>857</ele>
        <time>2023-08-03T15:35:29.000Z</time>
      </trkpt>
      <trkpt lat="47.80051" lon="6.84018">
        <ele>857.59997558594</ele>
        <time>2023-08-03T15:35:33.000Z</time>
      </trkpt>
      <trkpt lat="47.80053" lon="6.84016">
        <ele>857.59997558594</ele>
        <time>2023-08-03T15:35:34.000Z</time>
      </trkpt>
      <trkpt lat="47.80055" lon="6.84014">
        <ele>857.59997558594</ele>
        <time>2023-08-03T15:35:35.000Z</time>
      </trkpt>
      <trkpt lat="47.80067" lon="6.8401">
        <ele>858.59997558594</ele>
        <time>2023-08-03T15:35:39.000Z</time>
      </trkpt>
      <trkpt lat="47.80069" lon="6.84011">
        <ele>858.59997558594</ele>
        <time>2023-08-03T15:35:40.000Z</time>
      </trkpt>
      <trkpt lat="47.80072" lon="6.84011">
        <ele>859</ele>
        <time>2023-08-03T15:35:41.000Z</time>
      </trkpt>
      <trkpt lat="47.8008" lon="6.84007">
        <ele>859.59997558594</ele>
        <time>2023-08-03T15:35:44.000Z</time>
      </trkpt>
      <trkpt lat="47.80083" lon="6.84007">
        <ele>859.79998779297</ele>
        <time>2023-08-03T15:35:45.000Z</time>
      </trkpt>
      <trkpt lat="47.80093" lon="6.84009">
        <ele>860.59997558594</ele>
        <time>2023-08-03T15:35:49.000Z</time>
      </trkpt>
      <trkpt lat="47.801" lon="6.8401">
        <ele>861</ele>
        <time>2023-08-03T15:35:52.000Z</time>
      </trkpt>
      <trkpt lat="47.8011" lon="6.84008">
        <ele>861.79998779297</ele>
        <time>2023-08-03T15:35:56.000Z</time>
      </trkpt>
      <trkpt lat="47.80114" lon="6.84006">
        <ele>861.79998779297</ele>
        <time>2023-08-03T15:35:57.000Z</time>
      </trkpt>
      <trkpt lat="47.80122" lon="6.8401">
        <ele>862.59997558594</ele>
        <time>2023-08-03T15:36:01.000Z</time>
      </trkpt>
      <trkpt lat="47.80129" lon="6.84006">
        <ele>863</ele>
        <time>2023-08-03T15:36:03.000Z</time>
      </trkpt>
      <trkpt lat="47.80138" lon="6.84006">
        <ele>863.79998779297</ele>
        <time>2023-08-03T15:36:07.000Z</time>
      </trkpt>
      <trkpt lat="47.80144" lon="6.84006">
        <ele>864.20001220703</ele>
        <time>2023-08-03T15:36:09.000Z</time>
      </trkpt>
      <trkpt lat="47.80158" lon="6.84009">
        <ele>865.40002441406</ele>
        <time>2023-08-03T15:36:14.000Z</time>
      </trkpt>
      <trkpt lat="47.80161" lon="6.84008">
        <ele>865.79998779297</ele>
        <time>2023-08-03T15:36:15.000Z</time>
      </trkpt>
      <trkpt lat="47.80171" lon="6.84013">
        <ele>866.40002441406</ele>
        <time>2023-08-03T15:36:19.000Z</time>
      </trkpt>
      <trkpt lat="47.80174" lon="6.84013">
        <ele>866.59997558594</ele>
        <time>2023-08-03T15:36:20.000Z</time>
      </trkpt>
      <trkpt lat="47.80187" lon="6.84017">
        <ele>867.59997558594</ele>
        <time>2023-08-03T15:36:25.000Z</time>
      </trkpt>
      <trkpt lat="47.80194" lon="6.84022">
        <ele>868.20001220703</ele>
        <time>2023-08-03T15:36:28.000Z</time>
      </trkpt>
      <trkpt lat="47.802" lon="6.84027">
        <ele>868.79998779297</ele>
        <time>2023-08-03T15:36:31.000Z</time>
      </trkpt>
      <trkpt lat="47.80207" lon="6.84024">
        <ele>869.59997558594</ele>
        <time>2023-08-03T15:36:34.000Z</time>
      </trkpt>
      <trkpt lat="47.80212" lon="6.84023">
        <ele>869.79998779297</ele>
        <time>2023-08-03T15:36:36.000Z</time>
      </trkpt>
      <trkpt lat="47.80215" lon="6.84024">
        <ele>870.20001220703</ele>
        <time>2023-08-03T15:36:37.000Z</time>
      </trkpt>
      <trkpt lat="47.80223" lon="6.84028">
        <ele>870.59997558594</ele>
        <time>2023-08-03T15:36:40.000Z</time>
      </trkpt>
      <trkpt lat="47.8023" lon="6.8403">
        <ele>871</ele>
        <time>2023-08-03T15:36:42.000Z</time>
      </trkpt>
      <trkpt lat="47.80242" lon="6.84046">
        <ele>872.20001220703</ele>
        <time>2023-08-03T15:36:48.000Z</time>
      </trkpt>
      <trkpt lat="47.80255" lon="6.84057">
        <ele>873.20001220703</ele>
        <time>2023-08-03T15:36:54.000Z</time>
      </trkpt>
      <trkpt lat="47.80264" lon="6.84063">
        <ele>874.40002441406</ele>
        <time>2023-08-03T15:36:59.000Z</time>
      </trkpt>
      <trkpt lat="47.80275" lon="6.84074">
        <ele>875.40002441406</ele>
        <time>2023-08-03T15:37:05.000Z</time>
      </trkpt>
      <trkpt lat="47.80278" lon="6.84076">
        <ele>875.79998779297</ele>
        <time>2023-08-03T15:37:06.000Z</time>
      </trkpt>
      <trkpt lat="47.80286" lon="6.8408">
        <ele>876.40002441406</ele>
        <time>2023-08-03T15:37:09.000Z</time>
      </trkpt>
      <trkpt lat="47.80293" lon="6.84084">
        <ele>877</ele>
        <time>2023-08-03T15:37:12.000Z</time>
      </trkpt>
      <trkpt lat="47.80299" lon="6.84083">
        <ele>877.59997558594</ele>
        <time>2023-08-03T15:37:14.000Z</time>
      </trkpt>
      <trkpt lat="47.80311" lon="6.84089">
        <ele>878</ele>
        <time>2023-08-03T15:37:19.000Z</time>
      </trkpt>
      <trkpt lat="47.80319" lon="6.84089">
        <ele>878.40002441406</ele>
        <time>2023-08-03T15:37:21.000Z</time>
      </trkpt>
      <trkpt lat="47.80331" lon="6.84094">
        <ele>879.20001220703</ele>
        <time>2023-08-03T15:37:25.000Z</time>
      </trkpt>
      <trkpt lat="47.8034" lon="6.84097">
        <ele>879.59997558594</ele>
        <time>2023-08-03T15:37:28.000Z</time>
      </trkpt>
      <trkpt lat="47.8035" lon="6.84102">
        <ele>879.79998779297</ele>
        <time>2023-08-03T15:37:32.000Z</time>
      </trkpt>
      <trkpt lat="47.80364" lon="6.84112">
        <ele>880.59997558594</ele>
        <time>2023-08-03T15:37:38.000Z</time>
      </trkpt>
      <trkpt lat="47.80376" lon="6.84117">
        <ele>881.59997558594</ele>
        <time>2023-08-03T15:37:43.000Z</time>
      </trkpt>
      <trkpt lat="47.80382" lon="6.84118">
        <ele>882.20001220703</ele>
        <time>2023-08-03T15:37:45.000Z</time>
      </trkpt>
      <trkpt lat="47.80387" lon="6.84118">
        <ele>882.79998779297</ele>
        <time>2023-08-03T15:37:47.000Z</time>
      </trkpt>
      <trkpt lat="47.80406" lon="6.84121">
        <ele>883.79998779297</ele>
        <time>2023-08-03T15:37:54.000Z</time>
      </trkpt>
      <trkpt lat="47.80422" lon="6.84127">
        <ele>884.59997558594</ele>
        <time>2023-08-03T15:38:00.000Z</time>
      </trkpt>
      <trkpt lat="47.80424" lon="6.84128">
        <ele>884.79998779297</ele>
        <time>2023-08-03T15:38:01.000Z</time>
      </trkpt>
      <trkpt lat="47.8044" lon="6.84131">
        <ele>885.59997558594</ele>
        <time>2023-08-03T15:38:07.000Z</time>
      </trkpt>
      <trkpt lat="47.80443" lon="6.84132">
        <ele>886</ele>
        <time>2023-08-03T15:38:08.000Z</time>
      </trkpt>
      <trkpt lat="47.80453" lon="6.84135">
        <ele>886.79998779297</ele>
        <time>2023-08-03T15:38:12.000Z</time>
      </trkpt>
      <trkpt lat="47.80455" lon="6.84135">
        <ele>887.20001220703</ele>
        <time>2023-08-03T15:38:13.000Z</time>
      </trkpt>
      <trkpt lat="47.80471" lon="6.84141">
        <ele>888</ele>
        <time>2023-08-03T15:38:19.000Z</time>
      </trkpt>
      <trkpt lat="47.80473" lon="6.84143">
        <ele>888.20001220703</ele>
        <time>2023-08-03T15:38:20.000Z</time>
      </trkpt>
      <trkpt lat="47.80484" lon="6.84149">
        <ele>889.40002441406</ele>
        <time>2023-08-03T15:38:25.000Z</time>
      </trkpt>
      <trkpt lat="47.80487" lon="6.84151">
        <ele>889.59997558594</ele>
        <time>2023-08-03T15:38:26.000Z</time>
      </trkpt>
      <trkpt lat="47.805" lon="6.84156">
        <ele>890.59997558594</ele>
        <time>2023-08-03T15:38:31.000Z</time>
      </trkpt>
      <trkpt lat="47.80508" lon="6.84159">
        <ele>891.40002441406</ele>
        <time>2023-08-03T15:38:34.000Z</time>
      </trkpt>
      <trkpt lat="47.80511" lon="6.8416">
        <ele>891.79998779297</ele>
        <time>2023-08-03T15:38:35.000Z</time>
      </trkpt>
      <trkpt lat="47.80525" lon="6.84165">
        <ele>893</ele>
        <time>2023-08-03T15:38:40.000Z</time>
      </trkpt>
      <trkpt lat="47.80531" lon="6.84167">
        <ele>893.40002441406</ele>
        <time>2023-08-03T15:38:42.000Z</time>
      </trkpt>
      <trkpt lat="47.8054" lon="6.84176">
        <ele>893.79998779297</ele>
        <time>2023-08-03T15:38:46.000Z</time>
      </trkpt>
      <trkpt lat="47.8054" lon="6.84185">
        <ele>894</ele>
        <time>2023-08-03T15:38:48.000Z</time>
      </trkpt>
      <trkpt lat="47.80538" lon="6.84189">
        <ele>894.20001220703</ele>
        <time>2023-08-03T15:38:49.000Z</time>
      </trkpt>
      <trkpt lat="47.80526" lon="6.84189">
        <ele>894.59997558594</ele>
        <time>2023-08-03T15:38:53.000Z</time>
      </trkpt>
      <trkpt lat="47.80518" lon="6.84184">
        <ele>894.79998779297</ele>
        <time>2023-08-03T15:38:56.000Z</time>
      </trkpt>
      <trkpt lat="47.80504" lon="6.84175">
        <ele>896</ele>
        <time>2023-08-03T15:39:02.000Z</time>
      </trkpt>
      <trkpt lat="47.80493" lon="6.84171">
        <ele>897</ele>
        <time>2023-08-03T15:39:06.000Z</time>
      </trkpt>
      <trkpt lat="47.80491" lon="6.8417">
        <ele>897.20001220703</ele>
        <time>2023-08-03T15:39:07.000Z</time>
      </trkpt>
      <trkpt lat="47.8048" lon="6.84167">
        <ele>898</ele>
        <time>2023-08-03T15:39:11.000Z</time>
      </trkpt>
      <trkpt lat="47.80473" lon="6.84166">
        <ele>898.40002441406</ele>
        <time>2023-08-03T15:39:14.000Z</time>
      </trkpt>
      <trkpt lat="47.80462" lon="6.84164">
        <ele>899.20001220703</ele>
        <time>2023-08-03T15:39:18.000Z</time>
      </trkpt>
      <trkpt lat="47.80453" lon="6.84165">
        <ele>900</ele>
        <time>2023-08-03T15:39:22.000Z</time>
      </trkpt>
      <trkpt lat="47.80451" lon="6.84164">
        <ele>900.40002441406</ele>
        <time>2023-08-03T15:39:23.000Z</time>
      </trkpt>
      <trkpt lat="47.80434" lon="6.84161">
        <ele>901.20001220703</ele>
        <time>2023-08-03T15:39:29.000Z</time>
      </trkpt>
      <trkpt lat="47.80431" lon="6.8416">
        <ele>901.59997558594</ele>
        <time>2023-08-03T15:39:30.000Z</time>
      </trkpt>
      <trkpt lat="47.80418" lon="6.84156">
        <ele>902.79998779297</ele>
        <time>2023-08-03T15:39:35.000Z</time>
      </trkpt>
      <trkpt lat="47.8041" lon="6.84154">
        <ele>903.40002441406</ele>
        <time>2023-08-03T15:39:38.000Z</time>
      </trkpt>
      <trkpt lat="47.80399" lon="6.84153">
        <ele>904</ele>
        <time>2023-08-03T15:39:42.000Z</time>
      </trkpt>
      <trkpt lat="47.80389" lon="6.84153">
        <ele>904.59997558594</ele>
        <time>2023-08-03T15:39:46.000Z</time>
      </trkpt>
      <trkpt lat="47.80384" lon="6.84153">
        <ele>905.20001220703</ele>
        <time>2023-08-03T15:39:48.000Z</time>
      </trkpt>
      <trkpt lat="47.80369" lon="6.84153">
        <ele>906</ele>
        <time>2023-08-03T15:39:54.000Z</time>
      </trkpt>
      <trkpt lat="47.80364" lon="6.84153">
        <ele>906.40002441406</ele>
        <time>2023-08-03T15:39:56.000Z</time>
      </trkpt>
      <trkpt lat="47.80354" lon="6.84154">
        <ele>907</ele>
        <time>2023-08-03T15:40:00.000Z</time>
      </trkpt>
      <trkpt lat="47.80344" lon="6.84155">
        <ele>907.40002441406</ele>
        <time>2023-08-03T15:40:04.000Z</time>
      </trkpt>
      <trkpt lat="47.80339" lon="6.84156">
        <ele>907.79998779297</ele>
        <time>2023-08-03T15:40:06.000Z</time>
      </trkpt>
      <trkpt lat="47.80324" lon="6.84156">
        <ele>908.40002441406</ele>
        <time>2023-08-03T15:40:11.000Z</time>
      </trkpt>
      <trkpt lat="47.80319" lon="6.84156">
        <ele>908.79998779297</ele>
        <time>2023-08-03T15:40:13.000Z</time>
      </trkpt>
      <trkpt lat="47.80311" lon="6.84157">
        <ele>909.59997558594</ele>
        <time>2023-08-03T15:40:16.000Z</time>
      </trkpt>
      <trkpt lat="47.80301" lon="6.84157">
        <ele>910.20001220703</ele>
        <time>2023-08-03T15:40:20.000Z</time>
      </trkpt>
      <trkpt lat="47.80298" lon="6.84157">
        <ele>910.59997558594</ele>
        <time>2023-08-03T15:40:21.000Z</time>
      </trkpt>
      <trkpt lat="47.80283" lon="6.84153">
        <ele>911.20001220703</ele>
        <time>2023-08-03T15:40:27.000Z</time>
      </trkpt>
      <trkpt lat="47.80278" lon="6.84152">
        <ele>911.59997558594</ele>
        <time>2023-08-03T15:40:29.000Z</time>
      </trkpt>
      <trkpt lat="47.80266" lon="6.84147">
        <ele>912.40002441406</ele>
        <time>2023-08-03T15:40:34.000Z</time>
      </trkpt>
      <trkpt lat="47.80263" lon="6.84146">
        <ele>912.79998779297</ele>
        <time>2023-08-03T15:40:35.000Z</time>
      </trkpt>
      <trkpt lat="47.80251" lon="6.8414">
        <ele>913.79998779297</ele>
        <time>2023-08-03T15:40:40.000Z</time>
      </trkpt>
      <trkpt lat="47.80249" lon="6.84139">
        <ele>913.79998779297</ele>
        <time>2023-08-03T15:40:41.000Z</time>
      </trkpt>
      <trkpt lat="47.80238" lon="6.84137">
        <ele>914.79998779297</ele>
        <time>2023-08-03T15:40:46.000Z</time>
      </trkpt>
      <trkpt lat="47.80235" lon="6.84137">
        <ele>915</ele>
        <time>2023-08-03T15:40:47.000Z</time>
      </trkpt>
      <trkpt lat="47.80222" lon="6.84135">
        <ele>916</ele>
        <time>2023-08-03T15:40:52.000Z</time>
      </trkpt>
      <trkpt lat="47.80212" lon="6.84132">
        <ele>916.59997558594</ele>
        <time>2023-08-03T15:40:56.000Z</time>
      </trkpt>
      <trkpt lat="47.80204" lon="6.84133">
        <ele>917.20001220703</ele>
        <time>2023-08-03T15:40:59.000Z</time>
      </trkpt>
      <trkpt lat="47.8019" lon="6.84133">
        <ele>917.40002441406</ele>
        <time>2023-08-03T15:41:04.000Z</time>
      </trkpt>
      <trkpt lat="47.80182" lon="6.84135">
        <ele>918.20001220703</ele>
        <time>2023-08-03T15:41:07.000Z</time>
      </trkpt>
      <trkpt lat="47.80177" lon="6.84136">
        <ele>918.40002441406</ele>
        <time>2023-08-03T15:41:09.000Z</time>
      </trkpt>
      <trkpt lat="47.80162" lon="6.84137">
        <ele>919.40002441406</ele>
        <time>2023-08-03T15:41:14.000Z</time>
      </trkpt>
      <trkpt lat="47.80155" lon="6.84138">
        <ele>919.79998779297</ele>
        <time>2023-08-03T15:41:17.000Z</time>
      </trkpt>
      <trkpt lat="47.80147" lon="6.84139">
        <ele>920.59997558594</ele>
        <time>2023-08-03T15:41:21.000Z</time>
      </trkpt>
      <trkpt lat="47.80145" lon="6.84141">
        <ele>920.59997558594</ele>
        <time>2023-08-03T15:41:22.000Z</time>
      </trkpt>
      <trkpt lat="47.80134" lon="6.84145">
        <ele>921.20001220703</ele>
        <time>2023-08-03T15:41:27.000Z</time>
      </trkpt>
      <trkpt lat="47.80124" lon="6.84153">
        <ele>921.59997558594</ele>
        <time>2023-08-03T15:41:32.000Z</time>
      </trkpt>
      <trkpt lat="47.8012" lon="6.84157">
        <ele>921.79998779297</ele>
        <time>2023-08-03T15:41:34.000Z</time>
      </trkpt>
      <trkpt lat="47.80116" lon="6.8416">
        <ele>921.79998779297</ele>
        <time>2023-08-03T15:41:36.000Z</time>
      </trkpt>
      <trkpt lat="47.80109" lon="6.84163">
        <ele>922</ele>
        <time>2023-08-03T15:41:39.000Z</time>
      </trkpt>
      <trkpt lat="47.80102" lon="6.84169">
        <ele>922.59997558594</ele>
        <time>2023-08-03T15:41:43.000Z</time>
      </trkpt>
      <trkpt lat="47.80099" lon="6.8417">
        <ele>922.79998779297</ele>
        <time>2023-08-03T15:41:44.000Z</time>
      </trkpt>
      <trkpt lat="47.80092" lon="6.84177">
        <ele>923.20001220703</ele>
        <time>2023-08-03T15:41:47.000Z</time>
      </trkpt>
      <trkpt lat="47.80083" lon="6.84192">
        <ele>923.79998779297</ele>
        <time>2023-08-03T15:41:51.000Z</time>
      </trkpt>
      <trkpt lat="47.80072" lon="6.84215">
        <ele>924.79998779297</ele>
        <time>2023-08-03T15:41:57.000Z</time>
      </trkpt>
      <trkpt lat="47.80064" lon="6.8424">
        <ele>925.59997558594</ele>
        <time>2023-08-03T15:42:03.000Z</time>
      </trkpt>
      <trkpt lat="47.80063" lon="6.84244">
        <ele>925.79998779297</ele>
        <time>2023-08-03T15:42:04.000Z</time>
      </trkpt>
      <trkpt lat="47.80061" lon="6.84249">
        <ele>926</ele>
        <time>2023-08-03T15:42:05.000Z</time>
      </trkpt>
      <trkpt lat="47.80057" lon="6.84268">
        <ele>927</ele>
        <time>2023-08-03T15:42:10.000Z</time>
      </trkpt>
      <trkpt lat="47.80056" lon="6.84272">
        <ele>927</ele>
        <time>2023-08-03T15:42:11.000Z</time>
      </trkpt>
      <trkpt lat="47.8005" lon="6.84306">
        <ele>927.79998779297</ele>
        <time>2023-08-03T15:42:18.000Z</time>
      </trkpt>
      <trkpt lat="47.80049" lon="6.84309">
        <ele>928.20001220703</ele>
        <time>2023-08-03T15:42:19.000Z</time>
      </trkpt>
      <trkpt lat="47.80048" lon="6.84326">
        <ele>928.79998779297</ele>
        <time>2023-08-03T15:42:23.000Z</time>
      </trkpt>
      <trkpt lat="47.8004" lon="6.84343">
        <ele>929.20001220703</ele>
        <time>2023-08-03T15:42:26.000Z</time>
      </trkpt>
      <trkpt lat="47.80041" lon="6.84353">
        <ele>929.79998779297</ele>
        <time>2023-08-03T15:42:29.000Z</time>
      </trkpt>
      <trkpt lat="47.80038" lon="6.84366">
        <ele>930.20001220703</ele>
        <time>2023-08-03T15:42:33.000Z</time>
      </trkpt>
      <trkpt lat="47.80037" lon="6.84376">
        <ele>930.79998779297</ele>
        <time>2023-08-03T15:42:36.000Z</time>
      </trkpt>
      <trkpt lat="47.80036" lon="6.84383">
        <ele>931.40002441406</ele>
        <time>2023-08-03T15:42:38.000Z</time>
      </trkpt>
      <trkpt lat="47.80029" lon="6.84398">
        <ele>932.20001220703</ele>
        <time>2023-08-03T15:42:43.000Z</time>
      </trkpt>
      <trkpt lat="47.80028" lon="6.844">
        <ele>932.40002441406</ele>
        <time>2023-08-03T15:42:44.000Z</time>
      </trkpt>
      <trkpt lat="47.80019" lon="6.84405">
        <ele>932.59997558594</ele>
        <time>2023-08-03T15:42:47.000Z</time>
      </trkpt>
      <trkpt lat="47.80003" lon="6.8441">
        <ele>933.20001220703</ele>
        <time>2023-08-03T15:42:52.000Z</time>
      </trkpt>
      <trkpt lat="47.79995" lon="6.84412">
        <ele>933.40002441406</ele>
        <time>2023-08-03T15:42:54.000Z</time>
      </trkpt>
      <trkpt lat="47.79972" lon="6.8442">
        <ele>933.79998779297</ele>
        <time>2023-08-03T15:43:00.000Z</time>
      </trkpt>
      <trkpt lat="47.79954" lon="6.84417">
        <ele>934.40002441406</ele>
        <time>2023-08-03T15:43:07.000Z</time>
      </trkpt>
      <trkpt lat="47.79942" lon="6.84411">
        <ele>935</ele>
        <time>2023-08-03T15:43:12.000Z</time>
      </trkpt>
      <trkpt lat="47.7994" lon="6.84409">
        <ele>935.20001220703</ele>
        <time>2023-08-03T15:43:13.000Z</time>
      </trkpt>
      <trkpt lat="47.79934" lon="6.84406">
        <ele>935.20001220703</ele>
        <time>2023-08-03T15:43:15.000Z</time>
      </trkpt>
      <trkpt lat="47.79926" lon="6.84399">
        <ele>935.40002441406</ele>
        <time>2023-08-03T15:43:18.000Z</time>
      </trkpt>
      <trkpt lat="47.7992" lon="6.84392">
        <ele>936.20001220703</ele>
        <time>2023-08-03T15:43:21.000Z</time>
      </trkpt>
      <trkpt lat="47.79917" lon="6.84389">
        <ele>936.59997558594</ele>
        <time>2023-08-03T15:43:23.000Z</time>
      </trkpt>
      <trkpt lat="47.79917" lon="6.84389">
        <ele>936.79998779297</ele>
        <time>2023-08-03T15:43:24.000Z</time>
      </trkpt>
      <trkpt lat="47.79917" lon="6.84389">
        <ele>937</ele>
        <time>2023-08-03T15:43:25.000Z</time>
      </trkpt>
      <trkpt lat="47.79914" lon="6.84386">
        <ele>936.79998779297</ele>
        <time>2023-08-03T15:44:23.000Z</time>
      </trkpt>
      <trkpt lat="47.79909" lon="6.84381">
        <ele>936.79998779297</ele>
        <time>2023-08-03T15:44:26.000Z</time>
      </trkpt>
      <trkpt lat="47.799" lon="6.84373">
        <ele>937</ele>
        <time>2023-08-03T15:44:30.000Z</time>
      </trkpt>
      <trkpt lat="47.79892" lon="6.84368">
        <ele>937.20001220703</ele>
        <time>2023-08-03T15:44:33.000Z</time>
      </trkpt>
      <trkpt lat="47.79878" lon="6.84355">
        <ele>938.20001220703</ele>
        <time>2023-08-03T15:44:39.000Z</time>
      </trkpt>
      <trkpt lat="47.79866" lon="6.84347">
        <ele>939.40002441406</ele>
        <time>2023-08-03T15:44:44.000Z</time>
      </trkpt>
      <trkpt lat="47.79857" lon="6.84341">
        <ele>940.40002441406</ele>
        <time>2023-08-03T15:44:47.000Z</time>
      </trkpt>
      <trkpt lat="47.79854" lon="6.84338">
        <ele>940.59997558594</ele>
        <time>2023-08-03T15:44:48.000Z</time>
      </trkpt>
      <trkpt lat="47.79834" lon="6.84328">
        <ele>941.79998779297</ele>
        <time>2023-08-03T15:44:55.000Z</time>
      </trkpt>
      <trkpt lat="47.79816" lon="6.84322">
        <ele>942.79998779297</ele>
        <time>2023-08-03T15:45:01.000Z</time>
      </trkpt>
      <trkpt lat="47.79809" lon="6.84321">
        <ele>943.20001220703</ele>
        <time>2023-08-03T15:45:03.000Z</time>
      </trkpt>
      <trkpt lat="47.79801" lon="6.8432">
        <ele>944</ele>
        <time>2023-08-03T15:45:06.000Z</time>
      </trkpt>
      <trkpt lat="47.79789" lon="6.84319">
        <ele>944.59997558594</ele>
        <time>2023-08-03T15:45:10.000Z</time>
      </trkpt>
      <trkpt lat="47.7978" lon="6.84317">
        <ele>945</ele>
        <time>2023-08-03T15:45:13.000Z</time>
      </trkpt>
      <trkpt lat="47.79764" lon="6.84312">
        <ele>945.79998779297</ele>
        <time>2023-08-03T15:45:18.000Z</time>
      </trkpt>
      <trkpt lat="47.79755" lon="6.84307">
        <ele>946</ele>
        <time>2023-08-03T15:45:21.000Z</time>
      </trkpt>
      <trkpt lat="47.7974" lon="6.84298">
        <ele>946.59997558594</ele>
        <time>2023-08-03T15:45:26.000Z</time>
      </trkpt>
      <trkpt lat="47.79731" lon="6.84294">
        <ele>947.20001220703</ele>
        <time>2023-08-03T15:45:29.000Z</time>
      </trkpt>
      <trkpt lat="47.79725" lon="6.84291">
        <ele>947.40002441406</ele>
        <time>2023-08-03T15:45:31.000Z</time>
      </trkpt>
      <trkpt lat="47.79708" lon="6.84284">
        <ele>948.20001220703</ele>
        <time>2023-08-03T15:45:36.000Z</time>
      </trkpt>
      <trkpt lat="47.79698" lon="6.84278">
        <ele>948.59997558594</ele>
        <time>2023-08-03T15:45:39.000Z</time>
      </trkpt>
      <trkpt lat="47.79683" lon="6.84263">
        <ele>949.40002441406</ele>
        <time>2023-08-03T15:45:44.000Z</time>
      </trkpt>
      <trkpt lat="47.79681" lon="6.84259">
        <ele>949.59997558594</ele>
        <time>2023-08-03T15:45:45.000Z</time>
      </trkpt>
      <trkpt lat="47.79672" lon="6.84241">
        <ele>950.40002441406</ele>
        <time>2023-08-03T15:45:50.000Z</time>
      </trkpt>
      <trkpt lat="47.79657" lon="6.84226">
        <ele>951.59997558594</ele>
        <time>2023-08-03T15:45:56.000Z</time>
      </trkpt>
      <trkpt lat="47.79648" lon="6.8423">
        <ele>952.20001220703</ele>
        <time>2023-08-03T15:45:59.000Z</time>
      </trkpt>
      <trkpt lat="47.79644" lon="6.84239">
        <ele>952.40002441406</ele>
        <time>2023-08-03T15:46:01.000Z</time>
      </trkpt>
      <trkpt lat="47.79644" lon="6.84244">
        <ele>952.59997558594</ele>
        <time>2023-08-03T15:46:02.000Z</time>
      </trkpt>
      <trkpt lat="47.79648" lon="6.84253">
        <ele>952.59997558594</ele>
        <time>2023-08-03T15:46:04.000Z</time>
      </trkpt>
      <trkpt lat="47.79665" lon="6.84272">
        <ele>953</ele>
        <time>2023-08-03T15:46:10.000Z</time>
      </trkpt>
      <trkpt lat="47.79677" lon="6.84285">
        <ele>953.40002441406</ele>
        <time>2023-08-03T15:46:15.000Z</time>
      </trkpt>
      <trkpt lat="47.79682" lon="6.84291">
        <ele>953.59997558594</ele>
        <time>2023-08-03T15:46:17.000Z</time>
      </trkpt>
      <trkpt lat="47.79691" lon="6.84299">
        <ele>954.40002441406</ele>
        <time>2023-08-03T15:46:21.000Z</time>
      </trkpt>
      <trkpt lat="47.79695" lon="6.84303">
        <ele>955</ele>
        <time>2023-08-03T15:46:23.000Z</time>
      </trkpt>
      <trkpt lat="47.79707" lon="6.84312">
        <ele>956.20001220703</ele>
        <time>2023-08-03T15:46:28.000Z</time>
      </trkpt>
      <trkpt lat="47.79723" lon="6.84326">
        <ele>956.59997558594</ele>
        <time>2023-08-03T15:46:35.000Z</time>
      </trkpt>
      <trkpt lat="47.7973" lon="6.84333">
        <ele>957</ele>
        <time>2023-08-03T15:46:38.000Z</time>
      </trkpt>
      <trkpt lat="47.79739" lon="6.84341">
        <ele>957.59997558594</ele>
        <time>2023-08-03T15:46:42.000Z</time>
      </trkpt>
      <trkpt lat="47.79742" lon="6.84345">
        <ele>958</ele>
        <time>2023-08-03T15:46:44.000Z</time>
      </trkpt>
      <trkpt lat="47.79753" lon="6.84355">
        <ele>959.20001220703</ele>
        <time>2023-08-03T15:46:49.000Z</time>
      </trkpt>
      <trkpt lat="47.79755" lon="6.84357">
        <ele>959.40002441406</ele>
        <time>2023-08-03T15:46:50.000Z</time>
      </trkpt>
      <trkpt lat="47.79762" lon="6.84363">
        <ele>959.79998779297</ele>
        <time>2023-08-03T15:46:53.000Z</time>
      </trkpt>
      <trkpt lat="47.79768" lon="6.84366">
        <ele>960.20001220703</ele>
        <time>2023-08-03T15:46:55.000Z</time>
      </trkpt>
      <trkpt lat="47.79784" lon="6.84376">
        <ele>961.20001220703</ele>
        <time>2023-08-03T15:47:00.000Z</time>
      </trkpt>
      <trkpt lat="47.79787" lon="6.84377">
        <ele>961.40002441406</ele>
        <time>2023-08-03T15:47:01.000Z</time>
      </trkpt>
      <trkpt lat="47.798" lon="6.84385">
        <ele>962.20001220703</ele>
        <time>2023-08-03T15:47:05.000Z</time>
      </trkpt>
      <trkpt lat="47.79805" lon="6.8439">
        <ele>962.59997558594</ele>
        <time>2023-08-03T15:47:07.000Z</time>
      </trkpt>
      <trkpt lat="47.79816" lon="6.84401">
        <ele>963.40002441406</ele>
        <time>2023-08-03T15:47:11.000Z</time>
      </trkpt>
      <trkpt lat="47.79821" lon="6.84407">
        <ele>963.79998779297</ele>
        <time>2023-08-03T15:47:13.000Z</time>
      </trkpt>
      <trkpt lat="47.79827" lon="6.84416">
        <ele>964.59997558594</ele>
        <time>2023-08-03T15:47:16.000Z</time>
      </trkpt>
      <trkpt lat="47.79839" lon="6.84431">
        <ele>965.40002441406</ele>
        <time>2023-08-03T15:47:21.000Z</time>
      </trkpt>
      <trkpt lat="47.79851" lon="6.84447">
        <ele>966.59997558594</ele>
        <time>2023-08-03T15:47:26.000Z</time>
      </trkpt>
      <trkpt lat="47.79857" lon="6.84455">
        <ele>967</ele>
        <time>2023-08-03T15:47:29.000Z</time>
      </trkpt>
      <trkpt lat="47.79864" lon="6.84465">
        <ele>967.59997558594</ele>
        <time>2023-08-03T15:47:32.000Z</time>
      </trkpt>
      <trkpt lat="47.79873" lon="6.84475">
        <ele>968.59997558594</ele>
        <time>2023-08-03T15:47:36.000Z</time>
      </trkpt>
      <trkpt lat="47.79889" lon="6.84497">
        <ele>969.79998779297</ele>
        <time>2023-08-03T15:47:44.000Z</time>
      </trkpt>
      <trkpt lat="47.79898" lon="6.84507">
        <ele>970.79998779297</ele>
        <time>2023-08-03T15:47:48.000Z</time>
      </trkpt>
      <trkpt lat="47.799" lon="6.8451">
        <ele>971</ele>
        <time>2023-08-03T15:47:49.000Z</time>
      </trkpt>
      <trkpt lat="47.79908" lon="6.84518">
        <ele>971.59997558594</ele>
        <time>2023-08-03T15:47:53.000Z</time>
      </trkpt>
      <trkpt lat="47.79913" lon="6.84522">
        <ele>971.79998779297</ele>
        <time>2023-08-03T15:47:55.000Z</time>
      </trkpt>
      <trkpt lat="47.79921" lon="6.84532">
        <ele>972.59997558594</ele>
        <time>2023-08-03T15:47:59.000Z</time>
      </trkpt>
      <trkpt lat="47.79923" lon="6.84535">
        <ele>972.79998779297</ele>
        <time>2023-08-03T15:48:00.000Z</time>
      </trkpt>
      <trkpt lat="47.79935" lon="6.84551">
        <ele>973.79998779297</ele>
        <time>2023-08-03T15:48:05.000Z</time>
      </trkpt>
      <trkpt lat="47.79942" lon="6.84554">
        <ele>974.40002441406</ele>
        <time>2023-08-03T15:48:07.000Z</time>
      </trkpt>
      <trkpt lat="47.79952" lon="6.84557">
        <ele>975</ele>
        <time>2023-08-03T15:48:11.000Z</time>
      </trkpt>
      <trkpt lat="47.79954" lon="6.84558">
        <ele>975.20001220703</ele>
        <time>2023-08-03T15:48:12.000Z</time>
      </trkpt>
      <trkpt lat="47.79957" lon="6.84558">
        <ele>975.40002441406</ele>
        <time>2023-08-03T15:48:13.000Z</time>
      </trkpt>
      <trkpt lat="47.79964" lon="6.84559">
        <ele>975.79998779297</ele>
        <time>2023-08-03T15:48:15.000Z</time>
      </trkpt>
      <trkpt lat="47.79971" lon="6.84558">
        <ele>976</ele>
        <time>2023-08-03T15:48:17.000Z</time>
      </trkpt>
      <trkpt lat="47.79974" lon="6.84559">
        <ele>976</ele>
        <time>2023-08-03T15:48:18.000Z</time>
      </trkpt>
      <trkpt lat="47.79985" lon="6.8456">
        <ele>977</ele>
        <time>2023-08-03T15:48:22.000Z</time>
      </trkpt>
      <trkpt lat="47.79989" lon="6.84558">
        <ele>977.20001220703</ele>
        <time>2023-08-03T15:48:23.000Z</time>
      </trkpt>
      <trkpt lat="47.80001" lon="6.84551">
        <ele>977.79998779297</ele>
        <time>2023-08-03T15:48:27.000Z</time>
      </trkpt>
      <trkpt lat="47.80007" lon="6.84552">
        <ele>978.20001220703</ele>
        <time>2023-08-03T15:48:29.000Z</time>
      </trkpt>
      <trkpt lat="47.80027" lon="6.8455">
        <ele>979.20001220703</ele>
        <time>2023-08-03T15:48:35.000Z</time>
      </trkpt>
      <trkpt lat="47.8003" lon="6.8455">
        <ele>979.40002441406</ele>
        <time>2023-08-03T15:48:36.000Z</time>
      </trkpt>
      <trkpt lat="47.80043" lon="6.84549">
        <ele>980.20001220703</ele>
        <time>2023-08-03T15:48:41.000Z</time>
      </trkpt>
      <trkpt lat="47.80048" lon="6.84548">
        <ele>980.79998779297</ele>
        <time>2023-08-03T15:48:43.000Z</time>
      </trkpt>
      <trkpt lat="47.80057" lon="6.84545">
        <ele>981.40002441406</ele>
        <time>2023-08-03T15:48:46.000Z</time>
      </trkpt>
      <trkpt lat="47.80068" lon="6.84541">
        <ele>982.20001220703</ele>
        <time>2023-08-03T15:48:50.000Z</time>
      </trkpt>
      <trkpt lat="47.80073" lon="6.84535">
        <ele>982.40002441406</ele>
        <time>2023-08-03T15:48:52.000Z</time>
      </trkpt>
      <trkpt lat="47.80084" lon="6.84524">
        <ele>983.20001220703</ele>
        <time>2023-08-03T15:48:56.000Z</time>
      </trkpt>
      <trkpt lat="47.80091" lon="6.84513">
        <ele>983.40002441406</ele>
        <time>2023-08-03T15:48:59.000Z</time>
      </trkpt>
      <trkpt lat="47.80102" lon="6.84499">
        <ele>984</ele>
        <time>2023-08-03T15:49:03.000Z</time>
      </trkpt>
      <trkpt lat="47.80113" lon="6.84475">
        <ele>984.59997558594</ele>
        <time>2023-08-03T15:49:09.000Z</time>
      </trkpt>
      <trkpt lat="47.80114" lon="6.84471">
        <ele>984.59997558594</ele>
        <time>2023-08-03T15:49:10.000Z</time>
      </trkpt>
      <trkpt lat="47.80124" lon="6.84445">
        <ele>985.40002441406</ele>
        <time>2023-08-03T15:49:17.000Z</time>
      </trkpt>
      <trkpt lat="47.80126" lon="6.84441">
        <ele>985.59997558594</ele>
        <time>2023-08-03T15:49:18.000Z</time>
      </trkpt>
      <trkpt lat="47.80133" lon="6.8442">
        <ele>986.20001220703</ele>
        <time>2023-08-03T15:49:23.000Z</time>
      </trkpt>
      <trkpt lat="47.80138" lon="6.84408">
        <ele>986.59997558594</ele>
        <time>2023-08-03T15:49:26.000Z</time>
      </trkpt>
      <trkpt lat="47.8015" lon="6.84378">
        <ele>987.40002441406</ele>
        <time>2023-08-03T15:49:33.000Z</time>
      </trkpt>
      <trkpt lat="47.80151" lon="6.84375">
        <ele>987.59997558594</ele>
        <time>2023-08-03T15:49:34.000Z</time>
      </trkpt>
      <trkpt lat="47.80159" lon="6.84365">
        <ele>988.20001220703</ele>
        <time>2023-08-03T15:49:38.000Z</time>
      </trkpt>
      <trkpt lat="47.80168" lon="6.84357">
        <ele>988.79998779297</ele>
        <time>2023-08-03T15:49:41.000Z</time>
      </trkpt>
      <trkpt lat="47.80173" lon="6.84354">
        <ele>989.20001220703</ele>
        <time>2023-08-03T15:49:43.000Z</time>
      </trkpt>
      <trkpt lat="47.80177" lon="6.84353">
        <ele>989.40002441406</ele>
        <time>2023-08-03T15:49:44.000Z</time>
      </trkpt>
      <trkpt lat="47.8018" lon="6.84353">
        <ele>989.59997558594</ele>
        <time>2023-08-03T15:49:45.000Z</time>
      </trkpt>
      <trkpt lat="47.80185" lon="6.84352">
        <ele>989.79998779297</ele>
        <time>2023-08-03T15:49:47.000Z</time>
      </trkpt>
      <trkpt lat="47.80199" lon="6.84356">
        <ele>991</ele>
        <time>2023-08-03T15:49:52.000Z</time>
      </trkpt>
      <trkpt lat="47.80202" lon="6.84356">
        <ele>991</ele>
        <time>2023-08-03T15:49:53.000Z</time>
      </trkpt>
      <trkpt lat="47.80215" lon="6.84363">
        <ele>992.20001220703</ele>
        <time>2023-08-03T15:49:58.000Z</time>
      </trkpt>
      <trkpt lat="47.80229" lon="6.84374">
        <ele>993.20001220703</ele>
        <time>2023-08-03T15:50:04.000Z</time>
      </trkpt>
      <trkpt lat="47.80232" lon="6.84376">
        <ele>993.20001220703</ele>
        <time>2023-08-03T15:50:05.000Z</time>
      </trkpt>
      <trkpt lat="47.80251" lon="6.84382">
        <ele>994.20001220703</ele>
        <time>2023-08-03T15:50:11.000Z</time>
      </trkpt>
      <trkpt lat="47.80254" lon="6.84384">
        <ele>994.20001220703</ele>
        <time>2023-08-03T15:50:12.000Z</time>
      </trkpt>
      <trkpt lat="47.80266" lon="6.84388">
        <ele>994.79998779297</ele>
        <time>2023-08-03T15:50:16.000Z</time>
      </trkpt>
      <trkpt lat="47.80279" lon="6.84393">
        <ele>995.40002441406</ele>
        <time>2023-08-03T15:50:20.000Z</time>
      </trkpt>
      <trkpt lat="47.80285" lon="6.84394">
        <ele>995.59997558594</ele>
        <time>2023-08-03T15:50:22.000Z</time>
      </trkpt>
      <trkpt lat="47.80301" lon="6.84397">
        <ele>996.40002441406</ele>
        <time>2023-08-03T15:50:27.000Z</time>
      </trkpt>
      <trkpt lat="47.80304" lon="6.84399">
        <ele>996.59997558594</ele>
        <time>2023-08-03T15:50:28.000Z</time>
      </trkpt>
      <trkpt lat="47.8032" lon="6.84405">
        <ele>997.40002441406</ele>
        <time>2023-08-03T15:50:34.000Z</time>
      </trkpt>
      <trkpt lat="47.80322" lon="6.84404">
        <ele>997.40002441406</ele>
        <time>2023-08-03T15:50:35.000Z</time>
      </trkpt>
      <trkpt lat="47.8034" lon="6.84405">
        <ele>998</ele>
        <time>2023-08-03T15:50:41.000Z</time>
      </trkpt>
      <trkpt lat="47.80343" lon="6.84404">
        <ele>998.40002441406</ele>
        <time>2023-08-03T15:50:42.000Z</time>
      </trkpt>
      <trkpt lat="47.80354" lon="6.84405">
        <ele>999</ele>
        <time>2023-08-03T15:50:46.000Z</time>
      </trkpt>
      <trkpt lat="47.80362" lon="6.84404">
        <ele>999.59997558594</ele>
        <time>2023-08-03T15:50:49.000Z</time>
      </trkpt>
      <trkpt lat="47.80366" lon="6.84404">
        <ele>1000</ele>
        <time>2023-08-03T15:50:51.000Z</time>
      </trkpt>
      <trkpt lat="47.80377" lon="6.84402">
        <ele>1000.5999755859</ele>
        <time>2023-08-03T15:50:54.000Z</time>
      </trkpt>
      <trkpt lat="47.8038" lon="6.84403">
        <ele>1001</ele>
        <time>2023-08-03T15:50:55.000Z</time>
      </trkpt>
      <trkpt lat="47.80395" lon="6.8441">
        <ele>1001.799987793</ele>
        <time>2023-08-03T15:51:00.000Z</time>
      </trkpt>
      <trkpt lat="47.804" lon="6.84413">
        <ele>1002.4000244141</ele>
        <time>2023-08-03T15:51:02.000Z</time>
      </trkpt>
      <trkpt lat="47.80407" lon="6.84415">
        <ele>1002.799987793</ele>
        <time>2023-08-03T15:51:04.000Z</time>
      </trkpt>
      <trkpt lat="47.80423" lon="6.84419">
        <ele>1003.799987793</ele>
        <time>2023-08-03T15:51:09.000Z</time>
      </trkpt>
      <trkpt lat="47.80425" lon="6.84419">
        <ele>1003.799987793</ele>
        <time>2023-08-03T15:51:10.000Z</time>
      </trkpt>
      <trkpt lat="47.80442" lon="6.84429">
        <ele>1004.799987793</ele>
        <time>2023-08-03T15:51:16.000Z</time>
      </trkpt>
      <trkpt lat="47.80445" lon="6.84431">
        <ele>1004.799987793</ele>
        <time>2023-08-03T15:51:17.000Z</time>
      </trkpt>
      <trkpt lat="47.80463" lon="6.84439">
        <ele>1005.799987793</ele>
        <time>2023-08-03T15:51:23.000Z</time>
      </trkpt>
      <trkpt lat="47.80466" lon="6.84441">
        <ele>1006</ele>
        <time>2023-08-03T15:51:24.000Z</time>
      </trkpt>
      <trkpt lat="47.80476" lon="6.84451">
        <ele>1006.799987793</ele>
        <time>2023-08-03T15:51:28.000Z</time>
      </trkpt>
      <trkpt lat="47.80478" lon="6.84453">
        <ele>1007</ele>
        <time>2023-08-03T15:51:29.000Z</time>
      </trkpt>
      <trkpt lat="47.80492" lon="6.84463">
        <ele>1007.799987793</ele>
        <time>2023-08-03T15:51:34.000Z</time>
      </trkpt>
      <trkpt lat="47.80497" lon="6.84467">
        <ele>1008.200012207</ele>
        <time>2023-08-03T15:51:36.000Z</time>
      </trkpt>
      <trkpt lat="47.80508" lon="6.84476">
        <ele>1009.200012207</ele>
        <time>2023-08-03T15:51:40.000Z</time>
      </trkpt>
      <trkpt lat="47.80511" lon="6.84478">
        <ele>1009.4000244141</ele>
        <time>2023-08-03T15:51:41.000Z</time>
      </trkpt>
      <trkpt lat="47.8052" lon="6.84486">
        <ele>1010.200012207</ele>
        <time>2023-08-03T15:51:45.000Z</time>
      </trkpt>
      <trkpt lat="47.80523" lon="6.84488">
        <ele>1010.5999755859</ele>
        <time>2023-08-03T15:51:46.000Z</time>
      </trkpt>
      <trkpt lat="47.80539" lon="6.84505">
        <ele>1011.4000244141</ele>
        <time>2023-08-03T15:51:53.000Z</time>
      </trkpt>
      <trkpt lat="47.80541" lon="6.84506">
        <ele>1011.5999755859</ele>
        <time>2023-08-03T15:51:54.000Z</time>
      </trkpt>
      <trkpt lat="47.80544" lon="6.84507">
        <ele>1011.799987793</ele>
        <time>2023-08-03T15:51:56.000Z</time>
      </trkpt>
      <trkpt lat="47.80549" lon="6.8451">
        <ele>1012.5999755859</ele>
        <time>2023-08-03T15:51:58.000Z</time>
      </trkpt>
      <trkpt lat="47.80551" lon="6.84511">
        <ele>1012.799987793</ele>
        <time>2023-08-03T15:51:59.000Z</time>
      </trkpt>
      <trkpt lat="47.80564" lon="6.84522">
        <ele>1013.799987793</ele>
        <time>2023-08-03T15:52:04.000Z</time>
      </trkpt>
      <trkpt lat="47.80577" lon="6.84533">
        <ele>1015</ele>
        <time>2023-08-03T15:52:09.000Z</time>
      </trkpt>
      <trkpt lat="47.80592" lon="6.84541">
        <ele>1016</ele>
        <time>2023-08-03T15:52:15.000Z</time>
      </trkpt>
      <trkpt lat="47.80596" lon="6.84541">
        <ele>1016.200012207</ele>
        <time>2023-08-03T15:52:16.000Z</time>
      </trkpt>
      <trkpt lat="47.80614" lon="6.84551">
        <ele>1017</ele>
        <time>2023-08-03T15:52:22.000Z</time>
      </trkpt>
      <trkpt lat="47.80618" lon="6.84552">
        <ele>1017</ele>
        <time>2023-08-03T15:52:23.000Z</time>
      </trkpt>
      <trkpt lat="47.80637" lon="6.84559">
        <ele>1017.799987793</ele>
        <time>2023-08-03T15:52:29.000Z</time>
      </trkpt>
      <trkpt lat="47.80642" lon="6.84563">
        <ele>1018.200012207</ele>
        <time>2023-08-03T15:52:31.000Z</time>
      </trkpt>
      <trkpt lat="47.80651" lon="6.84565">
        <ele>1018.799987793</ele>
        <time>2023-08-03T15:52:34.000Z</time>
      </trkpt>
      <trkpt lat="47.80657" lon="6.84566">
        <ele>1019.4000244141</ele>
        <time>2023-08-03T15:52:36.000Z</time>
      </trkpt>
      <trkpt lat="47.8067" lon="6.84572">
        <ele>1020</ele>
        <time>2023-08-03T15:52:41.000Z</time>
      </trkpt>
      <trkpt lat="47.80678" lon="6.84574">
        <ele>1020.4000244141</ele>
        <time>2023-08-03T15:52:44.000Z</time>
      </trkpt>
      <trkpt lat="47.80689" lon="6.84579">
        <ele>1021.200012207</ele>
        <time>2023-08-03T15:52:48.000Z</time>
      </trkpt>
      <trkpt lat="47.80691" lon="6.8458">
        <ele>1021.4000244141</ele>
        <time>2023-08-03T15:52:49.000Z</time>
      </trkpt>
      <trkpt lat="47.80703" lon="6.84585">
        <ele>1022</ele>
        <time>2023-08-03T15:52:53.000Z</time>
      </trkpt>
      <trkpt lat="47.80714" lon="6.84589">
        <ele>1022.4000244141</ele>
        <time>2023-08-03T15:52:57.000Z</time>
      </trkpt>
      <trkpt lat="47.80725" lon="6.84593">
        <ele>1023</ele>
        <time>2023-08-03T15:53:01.000Z</time>
      </trkpt>
      <trkpt lat="47.80733" lon="6.84595">
        <ele>1023.5999755859</ele>
        <time>2023-08-03T15:53:04.000Z</time>
      </trkpt>
      <trkpt lat="47.80738" lon="6.84597">
        <ele>1023.799987793</ele>
        <time>2023-08-03T15:53:06.000Z</time>
      </trkpt>
      <trkpt lat="47.80751" lon="6.846">
        <ele>1024.4000244141</ele>
        <time>2023-08-03T15:53:12.000Z</time>
      </trkpt>
      <trkpt lat="47.80765" lon="6.84595">
        <ele>1025.5999755859</ele>
        <time>2023-08-03T15:53:18.000Z</time>
      </trkpt>
      <trkpt lat="47.80778" lon="6.84584">
        <ele>1026.4000244141</ele>
        <time>2023-08-03T15:53:23.000Z</time>
      </trkpt>
      <trkpt lat="47.80782" lon="6.84578">
        <ele>1026.8000488281</ele>
        <time>2023-08-03T15:53:25.000Z</time>
      </trkpt>
      <trkpt lat="47.8079" lon="6.84571">
        <ele>1027</ele>
        <time>2023-08-03T15:53:28.000Z</time>
      </trkpt>
      <trkpt lat="47.80807" lon="6.84555">
        <ele>1028</ele>
        <time>2023-08-03T15:53:34.000Z</time>
      </trkpt>
      <trkpt lat="47.8081" lon="6.84553">
        <ele>1028.4000244141</ele>
        <time>2023-08-03T15:53:35.000Z</time>
      </trkpt>
      <trkpt lat="47.8082" lon="6.84546">
        <ele>1029</ele>
        <time>2023-08-03T15:53:39.000Z</time>
      </trkpt>
      <trkpt lat="47.80823" lon="6.84544">
        <ele>1029.1999511719</ele>
        <time>2023-08-03T15:53:40.000Z</time>
      </trkpt>
      <trkpt lat="47.80838" lon="6.84533">
        <ele>1030.1999511719</ele>
        <time>2023-08-03T15:53:46.000Z</time>
      </trkpt>
      <trkpt lat="47.80841" lon="6.84531">
        <ele>1030.1999511719</ele>
        <time>2023-08-03T15:53:47.000Z</time>
      </trkpt>
      <trkpt lat="47.80859" lon="6.84515">
        <ele>1031.1999511719</ele>
        <time>2023-08-03T15:53:54.000Z</time>
      </trkpt>
      <trkpt lat="47.80873" lon="6.84489">
        <ele>1032.1999511719</ele>
        <time>2023-08-03T15:54:02.000Z</time>
      </trkpt>
      <trkpt lat="47.80875" lon="6.84485">
        <ele>1032.4000244141</ele>
        <time>2023-08-03T15:54:03.000Z</time>
      </trkpt>
      <trkpt lat="47.80885" lon="6.84466">
        <ele>1033.5999755859</ele>
        <time>2023-08-03T15:54:09.000Z</time>
      </trkpt>
      <trkpt lat="47.80887" lon="6.84464">
        <ele>1033.8000488281</ele>
        <time>2023-08-03T15:54:10.000Z</time>
      </trkpt>
      <trkpt lat="47.80897" lon="6.84463">
        <ele>1034.1999511719</ele>
        <time>2023-08-03T15:54:14.000Z</time>
      </trkpt>
      <trkpt lat="47.80898" lon="6.84467">
        <ele>1034.4000244141</ele>
        <time>2023-08-03T15:54:15.000Z</time>
      </trkpt>
      <trkpt lat="47.80898" lon="6.84476">
        <ele>1034.5999755859</ele>
        <time>2023-08-03T15:54:17.000Z</time>
      </trkpt>
      <trkpt lat="47.80896" lon="6.84481">
        <ele>1034.5999755859</ele>
        <time>2023-08-03T15:54:18.000Z</time>
      </trkpt>
      <trkpt lat="47.80885" lon="6.84497">
        <ele>1035.1999511719</ele>
        <time>2023-08-03T15:54:23.000Z</time>
      </trkpt>
      <trkpt lat="47.8088" lon="6.84506">
        <ele>1035.8000488281</ele>
        <time>2023-08-03T15:54:26.000Z</time>
      </trkpt>
      <trkpt lat="47.80868" lon="6.84522">
        <ele>1036.5999755859</ele>
        <time>2023-08-03T15:54:32.000Z</time>
      </trkpt>
      <trkpt lat="47.80862" lon="6.8453">
        <ele>1037.5999755859</ele>
        <time>2023-08-03T15:54:36.000Z</time>
      </trkpt>
      <trkpt lat="47.8086" lon="6.84534">
        <ele>1038.1999511719</ele>
        <time>2023-08-03T15:54:38.000Z</time>
      </trkpt>
      <trkpt lat="47.80859" lon="6.84536">
        <ele>1038.4000244141</ele>
        <time>2023-08-03T15:54:39.000Z</time>
      </trkpt>
      <trkpt lat="47.80857" lon="6.84538">
        <ele>1038.8000488281</ele>
        <time>2023-08-03T15:54:41.000Z</time>
      </trkpt>
      <trkpt lat="47.80854" lon="6.8454">
        <ele>1039</ele>
        <time>2023-08-03T15:54:42.000Z</time>
      </trkpt>
      <trkpt lat="47.80839" lon="6.84557">
        <ele>1039.5999755859</ele>
        <time>2023-08-03T15:54:48.000Z</time>
      </trkpt>
      <trkpt lat="47.80832" lon="6.84563">
        <ele>1040.1999511719</ele>
        <time>2023-08-03T15:54:50.000Z</time>
      </trkpt>
      <trkpt lat="47.80829" lon="6.84566">
        <ele>1040.1999511719</ele>
        <time>2023-08-03T15:54:51.000Z</time>
      </trkpt>
      <trkpt lat="47.80823" lon="6.84573">
        <ele>1040.5999755859</ele>
        <time>2023-08-03T15:54:53.000Z</time>
      </trkpt>
      <trkpt lat="47.8082" lon="6.84578">
        <ele>1040.8000488281</ele>
        <time>2023-08-03T15:54:54.000Z</time>
      </trkpt>
      <trkpt lat="47.8081" lon="6.84593">
        <ele>1041.4000244141</ele>
        <time>2023-08-03T15:54:57.000Z</time>
      </trkpt>
      <trkpt lat="47.8081" lon="6.84595">
        <ele>1041.4000244141</ele>
        <time>2023-08-03T15:54:58.000Z</time>
      </trkpt>
      <trkpt lat="47.80805" lon="6.84603">
        <ele>1042.4000244141</ele>
        <time>2023-08-03T15:55:02.000Z</time>
      </trkpt>
      <trkpt lat="47.80804" lon="6.84604">
        <ele>1042.4000244141</ele>
        <time>2023-08-03T15:55:03.000Z</time>
      </trkpt>
      <trkpt lat="47.80803" lon="6.84605">
        <ele>1042.5999755859</ele>
        <time>2023-08-03T15:55:04.000Z</time>
      </trkpt>
      <trkpt lat="47.80798" lon="6.84614">
        <ele>1043.4000244141</ele>
        <time>2023-08-03T15:55:08.000Z</time>
      </trkpt>
      <trkpt lat="47.80796" lon="6.84617">
        <ele>1043.5999755859</ele>
        <time>2023-08-03T15:55:09.000Z</time>
      </trkpt>
      <trkpt lat="47.80784" lon="6.84631">
        <ele>1044.4000244141</ele>
        <time>2023-08-03T15:55:14.000Z</time>
      </trkpt>
      <trkpt lat="47.80778" lon="6.84636">
        <ele>1044.8000488281</ele>
        <time>2023-08-03T15:55:16.000Z</time>
      </trkpt>
      <trkpt lat="47.80759" lon="6.84647">
        <ele>1045.5999755859</ele>
        <time>2023-08-03T15:55:22.000Z</time>
      </trkpt>
      <trkpt lat="47.8074" lon="6.84654">
        <ele>1046.5999755859</ele>
        <time>2023-08-03T15:55:28.000Z</time>
      </trkpt>
      <trkpt lat="47.80736" lon="6.84655">
        <ele>1046.8000488281</ele>
        <time>2023-08-03T15:55:29.000Z</time>
      </trkpt>
      <trkpt lat="47.80721" lon="6.84664">
        <ele>1047.8000488281</ele>
        <time>2023-08-03T15:55:34.000Z</time>
      </trkpt>
      <trkpt lat="47.80718" lon="6.84664">
        <ele>1048</ele>
        <time>2023-08-03T15:55:35.000Z</time>
      </trkpt>
      <trkpt lat="47.80698" lon="6.84666">
        <ele>1048.8000488281</ele>
        <time>2023-08-03T15:55:42.000Z</time>
      </trkpt>
      <trkpt lat="47.80692" lon="6.84666">
        <ele>1049</ele>
        <time>2023-08-03T15:55:44.000Z</time>
      </trkpt>
      <trkpt lat="47.80681" lon="6.84667">
        <ele>1050</ele>
        <time>2023-08-03T15:55:48.000Z</time>
      </trkpt>
      <trkpt lat="47.80672" lon="6.84669">
        <ele>1050.5999755859</ele>
        <time>2023-08-03T15:55:51.000Z</time>
      </trkpt>
      <trkpt lat="47.8066" lon="6.84668">
        <ele>1051.1999511719</ele>
        <time>2023-08-03T15:55:55.000Z</time>
      </trkpt>
      <trkpt lat="47.80653" lon="6.84669">
        <ele>1051.8000488281</ele>
        <time>2023-08-03T15:55:58.000Z</time>
      </trkpt>
      <trkpt lat="47.80645" lon="6.84668">
        <ele>1052.1999511719</ele>
        <time>2023-08-03T15:56:01.000Z</time>
      </trkpt>
      <trkpt lat="47.80631" lon="6.84667">
        <ele>1053</ele>
        <time>2023-08-03T15:56:06.000Z</time>
      </trkpt>
      <trkpt lat="47.80628" lon="6.84666">
        <ele>1053.1999511719</ele>
        <time>2023-08-03T15:56:07.000Z</time>
      </trkpt>
      <trkpt lat="47.80608" lon="6.84661">
        <ele>1054.1999511719</ele>
        <time>2023-08-03T15:56:14.000Z</time>
      </trkpt>
      <trkpt lat="47.80605" lon="6.84661">
        <ele>1054.1999511719</ele>
        <time>2023-08-03T15:56:15.000Z</time>
      </trkpt>
      <trkpt lat="47.80585" lon="6.84656">
        <ele>1055.4000244141</ele>
        <time>2023-08-03T15:56:22.000Z</time>
      </trkpt>
      <trkpt lat="47.80566" lon="6.84649">
        <ele>1056.4000244141</ele>
        <time>2023-08-03T15:56:29.000Z</time>
      </trkpt>
      <trkpt lat="47.80563" lon="6.84647">
        <ele>1056.5999755859</ele>
        <time>2023-08-03T15:56:30.000Z</time>
      </trkpt>
      <trkpt lat="47.80546" lon="6.84639">
        <ele>1057.1999511719</ele>
        <time>2023-08-03T15:56:36.000Z</time>
      </trkpt>
      <trkpt lat="47.80543" lon="6.84638">
        <ele>1057.5999755859</ele>
        <time>2023-08-03T15:56:37.000Z</time>
      </trkpt>
      <trkpt lat="47.80528" lon="6.84639">
        <ele>1058.4000244141</ele>
        <time>2023-08-03T15:56:42.000Z</time>
      </trkpt>
      <trkpt lat="47.80525" lon="6.84642">
        <ele>1058.4000244141</ele>
        <time>2023-08-03T15:56:43.000Z</time>
      </trkpt>
      <trkpt lat="47.80523" lon="6.84646">
        <ele>1058.5999755859</ele>
        <time>2023-08-03T15:56:44.000Z</time>
      </trkpt>
      <trkpt lat="47.80522" lon="6.84651">
        <ele>1058.8000488281</ele>
        <time>2023-08-03T15:56:45.000Z</time>
      </trkpt>
      <trkpt lat="47.8053" lon="6.84667">
        <ele>1059.1999511719</ele>
        <time>2023-08-03T15:56:49.000Z</time>
      </trkpt>
      <trkpt lat="47.80547" lon="6.84676">
        <ele>1059.8000488281</ele>
        <time>2023-08-03T15:56:54.000Z</time>
      </trkpt>
      <trkpt lat="47.80553" lon="6.84679">
        <ele>1060</ele>
        <time>2023-08-03T15:56:56.000Z</time>
      </trkpt>
      <trkpt lat="47.80571" lon="6.84686">
        <ele>1060.1999511719</ele>
        <time>2023-08-03T15:57:02.000Z</time>
      </trkpt>
      <trkpt lat="47.80589" lon="6.84691">
        <ele>1060.4000244141</ele>
        <time>2023-08-03T15:57:08.000Z</time>
      </trkpt>
      <trkpt lat="47.80599" lon="6.84694">
        <ele>1060.8000488281</ele>
        <time>2023-08-03T15:57:11.000Z</time>
      </trkpt>
      <trkpt lat="47.80604" lon="6.84696">
        <ele>1061.4000244141</ele>
        <time>2023-08-03T15:57:13.000Z</time>
      </trkpt>
      <trkpt lat="47.80613" lon="6.847">
        <ele>1061.8000488281</ele>
        <time>2023-08-03T15:57:16.000Z</time>
      </trkpt>
      <trkpt lat="47.80621" lon="6.84705">
        <ele>1062.4000244141</ele>
        <time>2023-08-03T15:57:19.000Z</time>
      </trkpt>
      <trkpt lat="47.80626" lon="6.84707">
        <ele>1063</ele>
        <time>2023-08-03T15:57:21.000Z</time>
      </trkpt>
      <trkpt lat="47.80632" lon="6.84712">
        <ele>1063.1999511719</ele>
        <time>2023-08-03T15:57:24.000Z</time>
      </trkpt>
      <trkpt lat="47.8064" lon="6.84717">
        <ele>1064</ele>
        <time>2023-08-03T15:57:28.000Z</time>
      </trkpt>
      <trkpt lat="47.80643" lon="6.84718">
        <ele>1064.4000244141</ele>
        <time>2023-08-03T15:57:30.000Z</time>
      </trkpt>
      <trkpt lat="47.80652" lon="6.84725">
        <ele>1065.4000244141</ele>
        <time>2023-08-03T15:57:35.000Z</time>
      </trkpt>
      <trkpt lat="47.80654" lon="6.84726">
        <ele>1065.4000244141</ele>
        <time>2023-08-03T15:57:36.000Z</time>
      </trkpt>
      <trkpt lat="47.80663" lon="6.84732">
        <ele>1066.4000244141</ele>
        <time>2023-08-03T15:57:40.000Z</time>
      </trkpt>
      <trkpt lat="47.80674" lon="6.84736">
        <ele>1067</ele>
        <time>2023-08-03T15:57:43.000Z</time>
      </trkpt>
      <trkpt lat="47.80684" lon="6.8474">
        <ele>1067.8000488281</ele>
        <time>2023-08-03T15:57:47.000Z</time>
      </trkpt>
      <trkpt lat="47.80691" lon="6.84742">
        <ele>1068.1999511719</ele>
        <time>2023-08-03T15:57:49.000Z</time>
      </trkpt>
      <trkpt lat="47.80699" lon="6.84746">
        <ele>1069</ele>
        <time>2023-08-03T15:57:52.000Z</time>
      </trkpt>
      <trkpt lat="47.80714" lon="6.8475">
        <ele>1069.5999755859</ele>
        <time>2023-08-03T15:57:57.000Z</time>
      </trkpt>
      <trkpt lat="47.80724" lon="6.84751">
        <ele>1070</ele>
        <time>2023-08-03T15:58:00.000Z</time>
      </trkpt>
      <trkpt lat="47.80733" lon="6.84753">
        <ele>1070.4000244141</ele>
        <time>2023-08-03T15:58:03.000Z</time>
      </trkpt>
      <trkpt lat="47.80741" lon="6.84752">
        <ele>1071</ele>
        <time>2023-08-03T15:58:06.000Z</time>
      </trkpt>
      <trkpt lat="47.80747" lon="6.84753">
        <ele>1071.1999511719</ele>
        <time>2023-08-03T15:58:08.000Z</time>
      </trkpt>
      <trkpt lat="47.80752" lon="6.84754">
        <ele>1071.4000244141</ele>
        <time>2023-08-03T15:58:10.000Z</time>
      </trkpt>
      <trkpt lat="47.80756" lon="6.84757">
        <ele>1072</ele>
        <time>2023-08-03T15:58:12.000Z</time>
      </trkpt>
      <trkpt lat="47.8076" lon="6.84758">
        <ele>1072</ele>
        <time>2023-08-03T15:58:13.000Z</time>
      </trkpt>
      <trkpt lat="47.80777" lon="6.84757">
        <ele>1072.8000488281</ele>
        <time>2023-08-03T15:58:19.000Z</time>
      </trkpt>
      <trkpt lat="47.80779" lon="6.84757">
        <ele>1073</ele>
        <time>2023-08-03T15:58:20.000Z</time>
      </trkpt>
      <trkpt lat="47.80799" lon="6.84755">
        <ele>1074</ele>
        <time>2023-08-03T15:58:27.000Z</time>
      </trkpt>
      <trkpt lat="47.80802" lon="6.84756">
        <ele>1074.1999511719</ele>
        <time>2023-08-03T15:58:28.000Z</time>
      </trkpt>
      <trkpt lat="47.80828" lon="6.84746">
        <ele>1075</ele>
        <time>2023-08-03T15:58:35.000Z</time>
      </trkpt>
      <trkpt lat="47.8083" lon="6.84745">
        <ele>1075.1999511719</ele>
        <time>2023-08-03T15:58:36.000Z</time>
      </trkpt>
      <trkpt lat="47.80848" lon="6.84737">
        <ele>1076.1999511719</ele>
        <time>2023-08-03T15:58:42.000Z</time>
      </trkpt>
      <trkpt lat="47.80855" lon="6.84732">
        <ele>1076.5999755859</ele>
        <time>2023-08-03T15:58:44.000Z</time>
      </trkpt>
      <trkpt lat="47.80862" lon="6.84727">
        <ele>1077.4000244141</ele>
        <time>2023-08-03T15:58:47.000Z</time>
      </trkpt>
      <trkpt lat="47.80873" lon="6.84721">
        <ele>1078.1999511719</ele>
        <time>2023-08-03T15:58:52.000Z</time>
      </trkpt>
      <trkpt lat="47.80875" lon="6.84721">
        <ele>1078.4000244141</ele>
        <time>2023-08-03T15:58:53.000Z</time>
      </trkpt>
      <trkpt lat="47.80889" lon="6.84711">
        <ele>1079.4000244141</ele>
        <time>2023-08-03T15:58:59.000Z</time>
      </trkpt>
      <trkpt lat="47.80899" lon="6.84706">
        <ele>1080</ele>
        <time>2023-08-03T15:59:04.000Z</time>
      </trkpt>
      <trkpt lat="47.80905" lon="6.84704">
        <ele>1080.5999755859</ele>
        <time>2023-08-03T15:59:07.000Z</time>
      </trkpt>
      <trkpt lat="47.80909" lon="6.84703">
        <ele>1081</ele>
        <time>2023-08-03T15:59:09.000Z</time>
      </trkpt>
      <trkpt lat="47.80915" lon="6.84702">
        <ele>1081.4000244141</ele>
        <time>2023-08-03T15:59:12.000Z</time>
      </trkpt>
      <trkpt lat="47.80918" lon="6.84701">
        <ele>1081.8000488281</ele>
        <time>2023-08-03T15:59:13.000Z</time>
      </trkpt>
      <trkpt lat="47.8092" lon="6.84701">
        <ele>1081.8000488281</ele>
        <time>2023-08-03T15:59:14.000Z</time>
      </trkpt>
      <trkpt lat="47.80935" lon="6.847">
        <ele>1083</ele>
        <time>2023-08-03T15:59:19.000Z</time>
      </trkpt>
      <trkpt lat="47.80958" lon="6.84692">
        <ele>1084</ele>
        <time>2023-08-03T15:59:26.000Z</time>
      </trkpt>
      <trkpt lat="47.80976" lon="6.84684">
        <ele>1085</ele>
        <time>2023-08-03T15:59:31.000Z</time>
      </trkpt>
      <trkpt lat="47.80987" lon="6.84678">
        <ele>1085.4000244141</ele>
        <time>2023-08-03T15:59:33.000Z</time>
      </trkpt>
      <trkpt lat="47.80999" lon="6.84668">
        <ele>1086.1999511719</ele>
        <time>2023-08-03T15:59:36.000Z</time>
      </trkpt>
      <trkpt lat="47.81006" lon="6.8466">
        <ele>1087</ele>
        <time>2023-08-03T15:59:39.000Z</time>
      </trkpt>
      <trkpt lat="47.8101" lon="6.84655">
        <ele>1087.4000244141</ele>
        <time>2023-08-03T15:59:42.000Z</time>
      </trkpt>
      <trkpt lat="47.81018" lon="6.84637">
        <ele>1088.1999511719</ele>
        <time>2023-08-03T15:59:47.000Z</time>
      </trkpt>
      <trkpt lat="47.81021" lon="6.84631">
        <ele>1088.4000244141</ele>
        <time>2023-08-03T15:59:49.000Z</time>
      </trkpt>
      <trkpt lat="47.81027" lon="6.8461">
        <ele>1089.4000244141</ele>
        <time>2023-08-03T15:59:55.000Z</time>
      </trkpt>
      <trkpt lat="47.81028" lon="6.84605">
        <ele>1089.5999755859</ele>
        <time>2023-08-03T15:59:56.000Z</time>
      </trkpt>
      <trkpt lat="47.81028" lon="6.84564">
        <ele>1090.5999755859</ele>
        <time>2023-08-03T16:00:05.000Z</time>
      </trkpt>
      <trkpt lat="47.81028" lon="6.8456">
        <ele>1090.8000488281</ele>
        <time>2023-08-03T16:00:06.000Z</time>
      </trkpt>
      <trkpt lat="47.81029" lon="6.84534">
        <ele>1091.5999755859</ele>
        <time>2023-08-03T16:00:12.000Z</time>
      </trkpt>
      <trkpt lat="47.8103" lon="6.84526">
        <ele>1092.1999511719</ele>
        <time>2023-08-03T16:00:14.000Z</time>
      </trkpt>
      <trkpt lat="47.81031" lon="6.84518">
        <ele>1092.5999755859</ele>
        <time>2023-08-03T16:00:16.000Z</time>
      </trkpt>
      <trkpt lat="47.81033" lon="6.84502">
        <ele>1094</ele>
        <time>2023-08-03T16:00:20.000Z</time>
      </trkpt>
      <trkpt lat="47.81034" lon="6.84495">
        <ele>1094.4000244141</ele>
        <time>2023-08-03T16:00:22.000Z</time>
      </trkpt>
      <trkpt lat="47.81035" lon="6.84478">
        <ele>1095</ele>
        <time>2023-08-03T16:00:27.000Z</time>
      </trkpt>
      <trkpt lat="47.81035" lon="6.84467">
        <ele>1095.1999511719</ele>
        <time>2023-08-03T16:00:30.000Z</time>
      </trkpt>
      <trkpt lat="47.81036" lon="6.84449">
        <ele>1095.8000488281</ele>
        <time>2023-08-03T16:00:36.000Z</time>
      </trkpt>
      <trkpt lat="47.81036" lon="6.84442">
        <ele>1096.1999511719</ele>
        <time>2023-08-03T16:00:38.000Z</time>
      </trkpt>
      <trkpt lat="47.81034" lon="6.84428">
        <ele>1096.5999755859</ele>
        <time>2023-08-03T16:00:42.000Z</time>
      </trkpt>
      <trkpt lat="47.81035" lon="6.84419">
        <ele>1097</ele>
        <time>2023-08-03T16:00:44.000Z</time>
      </trkpt>
      <trkpt lat="47.81035" lon="6.84414">
        <ele>1097.1999511719</ele>
        <time>2023-08-03T16:00:45.000Z</time>
      </trkpt>
      <trkpt lat="47.81033" lon="6.84404">
        <ele>1097.5999755859</ele>
        <time>2023-08-03T16:00:47.000Z</time>
      </trkpt>
      <trkpt lat="47.81032" lon="6.84399">
        <ele>1097.8000488281</ele>
        <time>2023-08-03T16:00:48.000Z</time>
      </trkpt>
      <trkpt lat="47.81031" lon="6.84383">
        <ele>1098.1999511719</ele>
        <time>2023-08-03T16:00:52.000Z</time>
      </trkpt>
      <trkpt lat="47.81031" lon="6.84379">
        <ele>1098.4000244141</ele>
        <time>2023-08-03T16:00:53.000Z</time>
      </trkpt>
      <trkpt lat="47.8103" lon="6.84365">
        <ele>1098.5999755859</ele>
        <time>2023-08-03T16:00:56.000Z</time>
      </trkpt>
      <trkpt lat="47.81026" lon="6.84354">
        <ele>1098.8000488281</ele>
        <time>2023-08-03T16:00:58.000Z</time>
      </trkpt>
      <trkpt lat="47.81023" lon="6.84322">
        <ele>1099.4000244141</ele>
        <time>2023-08-03T16:01:04.000Z</time>
      </trkpt>
      <trkpt lat="47.81022" lon="6.84316">
        <ele>1099.5999755859</ele>
        <time>2023-08-03T16:01:05.000Z</time>
      </trkpt>
      <trkpt lat="47.81021" lon="6.84311">
        <ele>1099.5999755859</ele>
        <time>2023-08-03T16:01:06.000Z</time>
      </trkpt>
      <trkpt lat="47.81024" lon="6.84298">
        <ele>1100</ele>
        <time>2023-08-03T16:01:09.000Z</time>
      </trkpt>
      <trkpt lat="47.81026" lon="6.84289">
        <ele>1100.5999755859</ele>
        <time>2023-08-03T16:01:12.000Z</time>
      </trkpt>
      <trkpt lat="47.81025" lon="6.84282">
        <ele>1101</ele>
        <time>2023-08-03T16:01:14.000Z</time>
      </trkpt>
      <trkpt lat="47.81024" lon="6.84266">
        <ele>1101.5999755859</ele>
        <time>2023-08-03T16:01:18.000Z</time>
      </trkpt>
      <trkpt lat="47.81024" lon="6.84261">
        <ele>1101.8000488281</ele>
        <time>2023-08-03T16:01:19.000Z</time>
      </trkpt>
      <trkpt lat="47.81025" lon="6.84236">
        <ele>1102.5999755859</ele>
        <time>2023-08-03T16:01:25.000Z</time>
      </trkpt>
      <trkpt lat="47.81024" lon="6.84206">
        <ele>1103.8000488281</ele>
        <time>2023-08-03T16:01:32.000Z</time>
      </trkpt>
      <trkpt lat="47.81013" lon="6.8419">
        <ele>1104.5999755859</ele>
        <time>2023-08-03T16:01:38.000Z</time>
      </trkpt>
      <trkpt lat="47.81011" lon="6.84188">
        <ele>1105</ele>
        <time>2023-08-03T16:01:39.000Z</time>
      </trkpt>
      <trkpt lat="47.80998" lon="6.84182">
        <ele>1106</ele>
        <time>2023-08-03T16:01:44.000Z</time>
      </trkpt>
      <trkpt lat="47.80993" lon="6.84179">
        <ele>1106.4000244141</ele>
        <time>2023-08-03T16:01:46.000Z</time>
      </trkpt>
      <trkpt lat="47.80975" lon="6.84166">
        <ele>1107.1999511719</ele>
        <time>2023-08-03T16:01:53.000Z</time>
      </trkpt>
      <trkpt lat="47.80973" lon="6.84163">
        <ele>1107.1999511719</ele>
        <time>2023-08-03T16:01:54.000Z</time>
      </trkpt>
      <trkpt lat="47.80971" lon="6.8416">
        <ele>1107.4000244141</ele>
        <time>2023-08-03T16:01:55.000Z</time>
      </trkpt>
      <trkpt lat="47.80966" lon="6.84151">
        <ele>1107.8000488281</ele>
        <time>2023-08-03T16:01:58.000Z</time>
      </trkpt>
      <trkpt lat="47.80961" lon="6.84142">
        <ele>1108.4000244141</ele>
        <time>2023-08-03T16:02:01.000Z</time>
      </trkpt>
      <trkpt lat="47.80957" lon="6.84131">
        <ele>1108.8000488281</ele>
        <time>2023-08-03T16:02:04.000Z</time>
      </trkpt>
      <trkpt lat="47.80953" lon="6.84114">
        <ele>1109.5999755859</ele>
        <time>2023-08-03T16:02:08.000Z</time>
      </trkpt>
      <trkpt lat="47.80952" lon="6.84096">
        <ele>1110.1999511719</ele>
        <time>2023-08-03T16:02:12.000Z</time>
      </trkpt>
      <trkpt lat="47.8095" lon="6.84083">
        <ele>1110.5999755859</ele>
        <time>2023-08-03T16:02:15.000Z</time>
      </trkpt>
      <trkpt lat="47.80949" lon="6.84061">
        <ele>1111.4000244141</ele>
        <time>2023-08-03T16:02:20.000Z</time>
      </trkpt>
      <trkpt lat="47.8095" lon="6.84051">
        <ele>1111.8000488281</ele>
        <time>2023-08-03T16:02:22.000Z</time>
      </trkpt>
      <trkpt lat="47.80952" lon="6.84031">
        <ele>1113</ele>
        <time>2023-08-03T16:02:27.000Z</time>
      </trkpt>
      <trkpt lat="47.80953" lon="6.84023">
        <ele>1113.4000244141</ele>
        <time>2023-08-03T16:02:29.000Z</time>
      </trkpt>
      <trkpt lat="47.80956" lon="6.84009">
        <ele>1114</ele>
        <time>2023-08-03T16:02:33.000Z</time>
      </trkpt>
      <trkpt lat="47.80961" lon="6.83991">
        <ele>1114.8000488281</ele>
        <time>2023-08-03T16:02:38.000Z</time>
      </trkpt>
      <trkpt lat="47.80965" lon="6.83985">
        <ele>1115.1999511719</ele>
        <time>2023-08-03T16:02:40.000Z</time>
      </trkpt>
      <trkpt lat="47.8098" lon="6.83973">
        <ele>1116.4000244141</ele>
        <time>2023-08-03T16:02:46.000Z</time>
      </trkpt>
      <trkpt lat="47.80991" lon="6.83967">
        <ele>1117.4000244141</ele>
        <time>2023-08-03T16:02:51.000Z</time>
      </trkpt>
      <trkpt lat="47.81009" lon="6.83958">
        <ele>1118.1999511719</ele>
        <time>2023-08-03T16:02:57.000Z</time>
      </trkpt>
      <trkpt lat="47.81014" lon="6.83955">
        <ele>1118.5999755859</ele>
        <time>2023-08-03T16:02:59.000Z</time>
      </trkpt>
      <trkpt lat="47.81032" lon="6.83945">
        <ele>1119.5999755859</ele>
        <time>2023-08-03T16:03:06.000Z</time>
      </trkpt>
      <trkpt lat="47.81038" lon="6.83943">
        <ele>1119.8000488281</ele>
        <time>2023-08-03T16:03:08.000Z</time>
      </trkpt>
      <trkpt lat="47.8105" lon="6.83939">
        <ele>1120.8000488281</ele>
        <time>2023-08-03T16:03:13.000Z</time>
      </trkpt>
      <trkpt lat="47.81055" lon="6.83937">
        <ele>1121.1999511719</ele>
        <time>2023-08-03T16:03:16.000Z</time>
      </trkpt>
      <trkpt lat="47.81066" lon="6.83936">
        <ele>1121.8000488281</ele>
        <time>2023-08-03T16:03:20.000Z</time>
      </trkpt>
      <trkpt lat="47.8109" lon="6.83938">
        <ele>1123</ele>
        <time>2023-08-03T16:03:28.000Z</time>
      </trkpt>
      <trkpt lat="47.81093" lon="6.83938">
        <ele>1123.4000244141</ele>
        <time>2023-08-03T16:03:29.000Z</time>
      </trkpt>
      <trkpt lat="47.81106" lon="6.8394">
        <ele>1124.1999511719</ele>
        <time>2023-08-03T16:03:35.000Z</time>
      </trkpt>
      <trkpt lat="47.81122" lon="6.83944">
        <ele>1125.4000244141</ele>
        <time>2023-08-03T16:03:41.000Z</time>
      </trkpt>
      <trkpt lat="47.8113" lon="6.83947">
        <ele>1125.8000488281</ele>
        <time>2023-08-03T16:03:43.000Z</time>
      </trkpt>
      <trkpt lat="47.81141" lon="6.83952">
        <ele>1126.4000244141</ele>
        <time>2023-08-03T16:03:48.000Z</time>
      </trkpt>
      <trkpt lat="47.81158" lon="6.83962">
        <ele>1127.5999755859</ele>
        <time>2023-08-03T16:03:54.000Z</time>
      </trkpt>
      <trkpt lat="47.81161" lon="6.83964">
        <ele>1128</ele>
        <time>2023-08-03T16:03:56.000Z</time>
      </trkpt>
      <trkpt lat="47.81177" lon="6.83974">
        <ele>1128.5999755859</ele>
        <time>2023-08-03T16:04:01.000Z</time>
      </trkpt>
      <trkpt lat="47.81187" lon="6.83981">
        <ele>1129.4000244141</ele>
        <time>2023-08-03T16:04:05.000Z</time>
      </trkpt>
      <trkpt lat="47.8119" lon="6.83983">
        <ele>1129.8000488281</ele>
        <time>2023-08-03T16:04:07.000Z</time>
      </trkpt>
      <trkpt lat="47.81202" lon="6.83992">
        <ele>1130.8000488281</ele>
        <time>2023-08-03T16:04:12.000Z</time>
      </trkpt>
      <trkpt lat="47.81205" lon="6.83994">
        <ele>1130.8000488281</ele>
        <time>2023-08-03T16:04:13.000Z</time>
      </trkpt>
      <trkpt lat="47.81212" lon="6.83999">
        <ele>1131.1999511719</ele>
        <time>2023-08-03T16:04:15.000Z</time>
      </trkpt>
      <trkpt lat="47.81217" lon="6.84005">
        <ele>1131.8000488281</ele>
        <time>2023-08-03T16:04:17.000Z</time>
      </trkpt>
      <trkpt lat="47.81217" lon="6.84005">
        <ele>1132</ele>
        <time>2023-08-03T16:04:18.000Z</time>
      </trkpt>
      <trkpt lat="47.81229" lon="6.84017">
        <ele>1133</ele>
        <time>2023-08-03T16:04:23.000Z</time>
      </trkpt>
      <trkpt lat="47.81245" lon="6.84035">
        <ele>1134</ele>
        <time>2023-08-03T16:04:29.000Z</time>
      </trkpt>
      <trkpt lat="47.81262" lon="6.84051">
        <ele>1135.1999511719</ele>
        <time>2023-08-03T16:04:36.000Z</time>
      </trkpt>
      <trkpt lat="47.81272" lon="6.84061">
        <ele>1135.8000488281</ele>
        <time>2023-08-03T16:04:41.000Z</time>
      </trkpt>
      <trkpt lat="47.81283" lon="6.84072">
        <ele>1136.4000244141</ele>
        <time>2023-08-03T16:04:44.000Z</time>
      </trkpt>
      <trkpt lat="47.81299" lon="6.84087">
        <ele>1137.4000244141</ele>
        <time>2023-08-03T16:04:51.000Z</time>
      </trkpt>
      <trkpt lat="47.81327" lon="6.84113">
        <ele>1138.4000244141</ele>
        <time>2023-08-03T16:05:00.000Z</time>
      </trkpt>
      <trkpt lat="47.81327" lon="6.84113">
        <ele>1138.4000244141</ele>
        <time>2023-08-03T16:05:01.000Z</time>
      </trkpt>
      <trkpt lat="47.81357" lon="6.84141">
        <ele>1139.4000244141</ele>
        <time>2023-08-03T16:05:11.000Z</time>
      </trkpt>
      <trkpt lat="47.81373" lon="6.84156">
        <ele>1139.4000244141</ele>
        <time>2023-08-03T16:05:15.000Z</time>
      </trkpt>
      <trkpt lat="47.81384" lon="6.84169">
        <ele>1139.5999755859</ele>
        <time>2023-08-03T16:05:19.000Z</time>
      </trkpt>
      <trkpt lat="47.81414" lon="6.84199">
        <ele>1140.1999511719</ele>
        <time>2023-08-03T16:05:29.000Z</time>
      </trkpt>
      <trkpt lat="47.81447" lon="6.84231">
        <ele>1140.1999511719</ele>
        <time>2023-08-03T16:05:39.000Z</time>
      </trkpt>
      <trkpt lat="47.81478" lon="6.84244">
        <ele>1140.4000244141</ele>
        <time>2023-08-03T16:05:47.000Z</time>
      </trkpt>
      <trkpt lat="47.81482" lon="6.84244">
        <ele>1140.5999755859</ele>
        <time>2023-08-03T16:05:48.000Z</time>
      </trkpt>
      <trkpt lat="47.81512" lon="6.84244">
        <ele>1141.4000244141</ele>
        <time>2023-08-03T16:05:56.000Z</time>
      </trkpt>
      <trkpt lat="47.81545" lon="6.84241">
        <ele>1141.8000488281</ele>
        <time>2023-08-03T16:06:05.000Z</time>
      </trkpt>
      <trkpt lat="47.81552" lon="6.84241">
        <ele>1142.1999511719</ele>
        <time>2023-08-03T16:06:07.000Z</time>
      </trkpt>
      <trkpt lat="47.81569" lon="6.84239">
        <ele>1143</ele>
        <time>2023-08-03T16:06:12.000Z</time>
      </trkpt>
      <trkpt lat="47.81598" lon="6.84237">
        <ele>1144.1999511719</ele>
        <time>2023-08-03T16:06:21.000Z</time>
      </trkpt>
      <trkpt lat="47.81626" lon="6.84235">
        <ele>1145.1999511719</ele>
        <time>2023-08-03T16:06:30.000Z</time>
      </trkpt>
      <trkpt lat="47.8163" lon="6.84235">
        <ele>1145.4000244141</ele>
        <time>2023-08-03T16:06:31.000Z</time>
      </trkpt>
      <trkpt lat="47.8166" lon="6.84232">
        <ele>1146.4000244141</ele>
        <time>2023-08-03T16:06:41.000Z</time>
      </trkpt>
      <trkpt lat="47.81664" lon="6.84231">
        <ele>1146.5999755859</ele>
        <time>2023-08-03T16:06:42.000Z</time>
      </trkpt>
      <trkpt lat="47.81681" lon="6.84227">
        <ele>1147.5999755859</ele>
        <time>2023-08-03T16:06:48.000Z</time>
      </trkpt>
      <trkpt lat="47.81689" lon="6.84225">
        <ele>1148.1999511719</ele>
        <time>2023-08-03T16:06:51.000Z</time>
      </trkpt>
      <trkpt lat="47.81696" lon="6.84223">
        <ele>1148.5999755859</ele>
        <time>2023-08-03T16:06:54.000Z</time>
      </trkpt>
      <trkpt lat="47.81708" lon="6.8422">
        <ele>1149.8000488281</ele>
        <time>2023-08-03T16:06:59.000Z</time>
      </trkpt>
      <trkpt lat="47.81713" lon="6.84218">
        <ele>1150.1999511719</ele>
        <time>2023-08-03T16:07:01.000Z</time>
      </trkpt>
      <trkpt lat="47.81725" lon="6.84214">
        <ele>1151</ele>
        <time>2023-08-03T16:07:06.000Z</time>
      </trkpt>
      <trkpt lat="47.81736" lon="6.84209">
        <ele>1152</ele>
        <time>2023-08-03T16:07:11.000Z</time>
      </trkpt>
      <trkpt lat="47.81738" lon="6.84208">
        <ele>1152.1999511719</ele>
        <time>2023-08-03T16:07:12.000Z</time>
      </trkpt>
      <trkpt lat="47.81745" lon="6.84206">
        <ele>1153.1999511719</ele>
        <time>2023-08-03T16:07:15.000Z</time>
      </trkpt>
      <trkpt lat="47.81755" lon="6.84201">
        <ele>1154.1999511719</ele>
        <time>2023-08-03T16:07:19.000Z</time>
      </trkpt>
      <trkpt lat="47.81756" lon="6.842">
        <ele>1154.1999511719</ele>
        <time>2023-08-03T16:07:20.000Z</time>
      </trkpt>
      <trkpt lat="47.81768" lon="6.84194">
        <ele>1155.1999511719</ele>
        <time>2023-08-03T16:07:25.000Z</time>
      </trkpt>
      <trkpt lat="47.81778" lon="6.8419">
        <ele>1156</ele>
        <time>2023-08-03T16:07:29.000Z</time>
      </trkpt>
      <trkpt lat="47.8178" lon="6.84189">
        <ele>1156.1999511719</ele>
        <time>2023-08-03T16:07:30.000Z</time>
      </trkpt>
      <trkpt lat="47.81791" lon="6.84183">
        <ele>1157.5999755859</ele>
        <time>2023-08-03T16:07:35.000Z</time>
      </trkpt>
      <trkpt lat="47.81794" lon="6.8418">
        <ele>1157.8000488281</ele>
        <time>2023-08-03T16:07:37.000Z</time>
      </trkpt>
      <trkpt lat="47.81811" lon="6.84171">
        <ele>1158.5999755859</ele>
        <time>2023-08-03T16:07:44.000Z</time>
      </trkpt>
      <trkpt lat="47.81819" lon="6.84165">
        <ele>1159.1999511719</ele>
        <time>2023-08-03T16:07:48.000Z</time>
      </trkpt>
      <trkpt lat="47.81826" lon="6.84161">
        <ele>1159.5999755859</ele>
        <time>2023-08-03T16:07:51.000Z</time>
      </trkpt>
      <trkpt lat="47.81839" lon="6.84153">
        <ele>1161</ele>
        <time>2023-08-03T16:07:57.000Z</time>
      </trkpt>
      <trkpt lat="47.81843" lon="6.8415">
        <ele>1161.4000244141</ele>
        <time>2023-08-03T16:07:59.000Z</time>
      </trkpt>
      <trkpt lat="47.81854" lon="6.84144">
        <ele>1162.1999511719</ele>
        <time>2023-08-03T16:08:04.000Z</time>
      </trkpt>
      <trkpt lat="47.81861" lon="6.84141">
        <ele>1163</ele>
        <time>2023-08-03T16:08:07.000Z</time>
      </trkpt>
      <trkpt lat="47.81864" lon="6.84138">
        <ele>1163.1999511719</ele>
        <time>2023-08-03T16:08:09.000Z</time>
      </trkpt>
      <trkpt lat="47.81872" lon="6.84132">
        <ele>1163.8000488281</ele>
        <time>2023-08-03T16:08:13.000Z</time>
      </trkpt>
      <trkpt lat="47.81881" lon="6.84126">
        <ele>1164.4000244141</ele>
        <time>2023-08-03T16:08:17.000Z</time>
      </trkpt>
      <trkpt lat="47.81884" lon="6.84123">
        <ele>1164.5999755859</ele>
        <time>2023-08-03T16:08:19.000Z</time>
      </trkpt>
      <trkpt lat="47.81892" lon="6.84117">
        <ele>1165.5999755859</ele>
        <time>2023-08-03T16:08:23.000Z</time>
      </trkpt>
      <trkpt lat="47.81894" lon="6.84116">
        <ele>1165.8000488281</ele>
        <time>2023-08-03T16:08:24.000Z</time>
      </trkpt>
      <trkpt lat="47.81902" lon="6.84108">
        <ele>1167.1999511719</ele>
        <time>2023-08-03T16:08:28.000Z</time>
      </trkpt>
      <trkpt lat="47.81908" lon="6.84103">
        <ele>1168.1999511719</ele>
        <time>2023-08-03T16:08:31.000Z</time>
      </trkpt>
      <trkpt lat="47.81921" lon="6.84092">
        <ele>1169.1999511719</ele>
        <time>2023-08-03T16:08:37.000Z</time>
      </trkpt>
      <trkpt lat="47.81925" lon="6.84089">
        <ele>1169.8000488281</ele>
        <time>2023-08-03T16:08:39.000Z</time>
      </trkpt>
      <trkpt lat="47.81936" lon="6.8408">
        <ele>1170.1999511719</ele>
        <time>2023-08-03T16:08:44.000Z</time>
      </trkpt>
      <trkpt lat="47.81942" lon="6.84074">
        <ele>1170.1999511719</ele>
        <time>2023-08-03T16:08:47.000Z</time>
      </trkpt>
      <trkpt lat="47.81967" lon="6.84054">
        <ele>1170.4000244141</ele>
        <time>2023-08-03T16:08:57.000Z</time>
      </trkpt>
      <trkpt lat="47.81988" lon="6.84036">
        <ele>1171</ele>
        <time>2023-08-03T16:09:05.000Z</time>
      </trkpt>
      <trkpt lat="47.81998" lon="6.84028">
        <ele>1171.4000244141</ele>
        <time>2023-08-03T16:09:09.000Z</time>
      </trkpt>
      <trkpt lat="47.8201" lon="6.84015">
        <ele>1172.1999511719</ele>
        <time>2023-08-03T16:09:14.000Z</time>
      </trkpt>
      <trkpt lat="47.82012" lon="6.84013">
        <ele>1172.5999755859</ele>
        <time>2023-08-03T16:09:15.000Z</time>
      </trkpt>
      <trkpt lat="47.82029" lon="6.83988">
        <ele>1172.8000488281</ele>
        <time>2023-08-03T16:09:23.000Z</time>
      </trkpt>
      <trkpt lat="47.82047" lon="6.83954">
        <ele>1173.1999511719</ele>
        <time>2023-08-03T16:09:31.000Z</time>
      </trkpt>
      <trkpt lat="47.82065" lon="6.83911">
        <ele>1173.1999511719</ele>
        <time>2023-08-03T16:09:40.000Z</time>
      </trkpt>
      <trkpt lat="47.82075" lon="6.83866">
        <ele>1173.5999755859</ele>
        <time>2023-08-03T16:09:48.000Z</time>
      </trkpt>
      <trkpt lat="47.82082" lon="6.83819">
        <ele>1174.1999511719</ele>
        <time>2023-08-03T16:09:57.000Z</time>
      </trkpt>
      <trkpt lat="47.82086" lon="6.83782">
        <ele>1174.5999755859</ele>
        <time>2023-08-03T16:10:04.000Z</time>
      </trkpt>
      <trkpt lat="47.82088" lon="6.83749">
        <ele>1174.8000488281</ele>
        <time>2023-08-03T16:10:10.000Z</time>
      </trkpt>
      <trkpt lat="47.82091" lon="6.83696">
        <ele>1175</ele>
        <time>2023-08-03T16:10:20.000Z</time>
      </trkpt>
      <trkpt lat="47.82083" lon="6.83651">
        <ele>1174.4000244141</ele>
        <time>2023-08-03T16:10:28.000Z</time>
      </trkpt>
      <trkpt lat="47.82076" lon="6.83622">
        <ele>1174.1999511719</ele>
        <time>2023-08-03T16:10:33.000Z</time>
      </trkpt>
      <trkpt lat="47.82071" lon="6.83603">
        <ele>1174.1999511719</ele>
        <time>2023-08-03T16:10:36.000Z</time>
      </trkpt>
      <trkpt lat="47.82057" lon="6.8356">
        <ele>1174.1999511719</ele>
        <time>2023-08-03T16:10:44.000Z</time>
      </trkpt>
      <trkpt lat="47.82055" lon="6.83556">
        <ele>1174.1999511719</ele>
        <time>2023-08-03T16:10:45.000Z</time>
      </trkpt>
      <trkpt lat="47.82043" lon="6.83519">
        <ele>1174.8000488281</ele>
        <time>2023-08-03T16:10:53.000Z</time>
      </trkpt>
      <trkpt lat="47.82038" lon="6.83497">
        <ele>1174.8000488281</ele>
        <time>2023-08-03T16:10:59.000Z</time>
      </trkpt>
      <trkpt lat="47.8204" lon="6.83491">
        <ele>1174.8000488281</ele>
        <time>2023-08-03T16:11:00.000Z</time>
      </trkpt>
      <trkpt lat="47.82042" lon="6.83489">
        <ele>1175</ele>
        <time>2023-08-03T16:11:02.000Z</time>
      </trkpt>
      <trkpt lat="47.82042" lon="6.83489">
        <ele>1175.1999511719</ele>
        <time>2023-08-03T16:11:04.000Z</time>
      </trkpt>
      <trkpt lat="47.82043" lon="6.83533">
        <ele>1176.1999511719</ele>
        <time>2023-08-03T16:15:18.000Z</time>
      </trkpt>
      <trkpt lat="47.82048" lon="6.83554">
        <ele>1176</ele>
        <time>2023-08-03T16:15:24.000Z</time>
      </trkpt>
      <trkpt lat="47.82055" lon="6.83574">
        <ele>1175.8000488281</ele>
        <time>2023-08-03T16:15:29.000Z</time>
      </trkpt>
      <trkpt lat="47.82067" lon="6.83611">
        <ele>1175.1999511719</ele>
        <time>2023-08-03T16:15:38.000Z</time>
      </trkpt>
      <trkpt lat="47.82068" lon="6.83617">
        <ele>1175.1999511719</ele>
        <time>2023-08-03T16:15:40.000Z</time>
      </trkpt>
      <trkpt lat="47.82067" lon="6.83623">
        <ele>1175</ele>
        <time>2023-08-03T16:15:42.000Z</time>
      </trkpt>
      <trkpt lat="47.82066" lon="6.83626">
        <ele>1174.8000488281</ele>
        <time>2023-08-03T16:15:44.000Z</time>
      </trkpt>
      <trkpt lat="47.82066" lon="6.83627">
        <ele>1174.8000488281</ele>
        <time>2023-08-03T16:15:47.000Z</time>
      </trkpt>
      <trkpt lat="47.82066" lon="6.83627">
        <ele>1174.8000488281</ele>
        <time>2023-08-03T16:15:48.000Z</time>
      </trkpt>
      <trkpt lat="47.82064" lon="6.83626">
        <ele>1174.5999755859</ele>
        <time>2023-08-03T16:15:52.000Z</time>
      </trkpt>
      <trkpt lat="47.82067" lon="6.83624">
        <ele>1175.5999755859</ele>
        <time>2023-08-03T16:23:58.000Z</time>
      </trkpt>
      <trkpt lat="47.8207" lon="6.83604">
        <ele>1175.5999755859</ele>
        <time>2023-08-03T16:24:03.000Z</time>
      </trkpt>
      <trkpt lat="47.82064" lon="6.83579">
        <ele>1176</ele>
        <time>2023-08-03T16:24:08.000Z</time>
      </trkpt>
      <trkpt lat="47.82058" lon="6.83562">
        <ele>1176.1999511719</ele>
        <time>2023-08-03T16:24:11.000Z</time>
      </trkpt>
      <trkpt lat="47.82051" lon="6.83545">
        <ele>1176.4000244141</ele>
        <time>2023-08-03T16:24:14.000Z</time>
      </trkpt>
      <trkpt lat="47.82039" lon="6.83505">
        <ele>1177.1999511719</ele>
        <time>2023-08-03T16:24:21.000Z</time>
      </trkpt>
      <trkpt lat="47.82039" lon="6.835">
        <ele>1177.4000244141</ele>
        <time>2023-08-03T16:24:22.000Z</time>
      </trkpt>
      <trkpt lat="47.82039" lon="6.83493">
        <ele>1177.4000244141</ele>
        <time>2023-08-03T16:24:23.000Z</time>
      </trkpt>
      <trkpt lat="47.82044" lon="6.83482">
        <ele>1177.5999755859</ele>
        <time>2023-08-03T16:24:26.000Z</time>
      </trkpt>
      <trkpt lat="47.82058" lon="6.83471">
        <ele>1177.5999755859</ele>
        <time>2023-08-03T16:24:30.000Z</time>
      </trkpt>
      <trkpt lat="47.82065" lon="6.83467">
        <ele>1177.8000488281</ele>
        <time>2023-08-03T16:24:32.000Z</time>
      </trkpt>
      <trkpt lat="47.82102" lon="6.83445">
        <ele>1177.8000488281</ele>
        <time>2023-08-03T16:24:41.000Z</time>
      </trkpt>
      <trkpt lat="47.82106" lon="6.83442">
        <ele>1177.8000488281</ele>
        <time>2023-08-03T16:24:42.000Z</time>
      </trkpt>
      <trkpt lat="47.82123" lon="6.83432">
        <ele>1177.8000488281</ele>
        <time>2023-08-03T16:24:45.000Z</time>
      </trkpt>
      <trkpt lat="47.82134" lon="6.83429">
        <ele>1177.5999755859</ele>
        <time>2023-08-03T16:24:47.000Z</time>
      </trkpt>
      <trkpt lat="47.8215" lon="6.83431">
        <ele>1177</ele>
        <time>2023-08-03T16:24:49.000Z</time>
      </trkpt>
      <trkpt lat="47.82157" lon="6.83433">
        <ele>1176.4000244141</ele>
        <time>2023-08-03T16:24:50.000Z</time>
      </trkpt>
      <trkpt lat="47.82165" lon="6.83436">
        <ele>1176.1999511719</ele>
        <time>2023-08-03T16:24:51.000Z</time>
      </trkpt>
      <trkpt lat="47.82179" lon="6.83442">
        <ele>1175.1999511719</ele>
        <time>2023-08-03T16:24:53.000Z</time>
      </trkpt>
      <trkpt lat="47.82189" lon="6.83445">
        <ele>1174.4000244141</ele>
        <time>2023-08-03T16:24:54.000Z</time>
      </trkpt>
      <trkpt lat="47.82198" lon="6.83447">
        <ele>1174</ele>
        <time>2023-08-03T16:24:55.000Z</time>
      </trkpt>
      <trkpt lat="47.82206" lon="6.83448">
        <ele>1173.4000244141</ele>
        <time>2023-08-03T16:24:56.000Z</time>
      </trkpt>
      <trkpt lat="47.82215" lon="6.83449">
        <ele>1172.5999755859</ele>
        <time>2023-08-03T16:24:57.000Z</time>
      </trkpt>
      <trkpt lat="47.82245" lon="6.83452">
        <ele>1171.4000244141</ele>
        <time>2023-08-03T16:25:00.000Z</time>
      </trkpt>
      <trkpt lat="47.82253" lon="6.83454">
        <ele>1170.8000488281</ele>
        <time>2023-08-03T16:25:01.000Z</time>
      </trkpt>
      <trkpt lat="47.82262" lon="6.83455">
        <ele>1170.1999511719</ele>
        <time>2023-08-03T16:25:02.000Z</time>
      </trkpt>
      <trkpt lat="47.82283" lon="6.83461">
        <ele>1168.4000244141</ele>
        <time>2023-08-03T16:25:04.000Z</time>
      </trkpt>
      <trkpt lat="47.82303" lon="6.83467">
        <ele>1166.5999755859</ele>
        <time>2023-08-03T16:25:06.000Z</time>
      </trkpt>
      <trkpt lat="47.82315" lon="6.8347">
        <ele>1165.5999755859</ele>
        <time>2023-08-03T16:25:07.000Z</time>
      </trkpt>
      <trkpt lat="47.82341" lon="6.83476">
        <ele>1164</ele>
        <time>2023-08-03T16:25:09.000Z</time>
      </trkpt>
      <trkpt lat="47.82363" lon="6.83482">
        <ele>1162.4000244141</ele>
        <time>2023-08-03T16:25:11.000Z</time>
      </trkpt>
      <trkpt lat="47.82388" lon="6.83486">
        <ele>1161</ele>
        <time>2023-08-03T16:25:13.000Z</time>
      </trkpt>
      <trkpt lat="47.82412" lon="6.83488">
        <ele>1159.4000244141</ele>
        <time>2023-08-03T16:25:15.000Z</time>
      </trkpt>
      <trkpt lat="47.82425" lon="6.83489">
        <ele>1158.1999511719</ele>
        <time>2023-08-03T16:25:16.000Z</time>
      </trkpt>
      <trkpt lat="47.8245" lon="6.8349">
        <ele>1156</ele>
        <time>2023-08-03T16:25:18.000Z</time>
      </trkpt>
      <trkpt lat="47.82462" lon="6.83491">
        <ele>1154.8000488281</ele>
        <time>2023-08-03T16:25:19.000Z</time>
      </trkpt>
      <trkpt lat="47.82475" lon="6.83491">
        <ele>1154.4000244141</ele>
        <time>2023-08-03T16:25:20.000Z</time>
      </trkpt>
      <trkpt lat="47.82488" lon="6.83492">
        <ele>1153.4000244141</ele>
        <time>2023-08-03T16:25:21.000Z</time>
      </trkpt>
      <trkpt lat="47.82514" lon="6.83495">
        <ele>1151.4000244141</ele>
        <time>2023-08-03T16:25:23.000Z</time>
      </trkpt>
      <trkpt lat="47.82535" lon="6.835">
        <ele>1149.5999755859</ele>
        <time>2023-08-03T16:25:25.000Z</time>
      </trkpt>
      <trkpt lat="47.82549" lon="6.83506">
        <ele>1148.4000244141</ele>
        <time>2023-08-03T16:25:26.000Z</time>
      </trkpt>
      <trkpt lat="47.82572" lon="6.83517">
        <ele>1147.4000244141</ele>
        <time>2023-08-03T16:25:28.000Z</time>
      </trkpt>
      <trkpt lat="47.82583" lon="6.83524">
        <ele>1146.5999755859</ele>
        <time>2023-08-03T16:25:29.000Z</time>
      </trkpt>
      <trkpt lat="47.82592" lon="6.83529">
        <ele>1145.5999755859</ele>
        <time>2023-08-03T16:25:30.000Z</time>
      </trkpt>
      <trkpt lat="47.82603" lon="6.83537">
        <ele>1144.5999755859</ele>
        <time>2023-08-03T16:25:31.000Z</time>
      </trkpt>
      <trkpt lat="47.82626" lon="6.83557">
        <ele>1143</ele>
        <time>2023-08-03T16:25:33.000Z</time>
      </trkpt>
      <trkpt lat="47.82638" lon="6.83566">
        <ele>1142.4000244141</ele>
        <time>2023-08-03T16:25:34.000Z</time>
      </trkpt>
      <trkpt lat="47.82647" lon="6.83573">
        <ele>1141</ele>
        <time>2023-08-03T16:25:35.000Z</time>
      </trkpt>
      <trkpt lat="47.82658" lon="6.83583">
        <ele>1140</ele>
        <time>2023-08-03T16:25:36.000Z</time>
      </trkpt>
      <trkpt lat="47.82681" lon="6.83604">
        <ele>1138.1999511719</ele>
        <time>2023-08-03T16:25:38.000Z</time>
      </trkpt>
      <trkpt lat="47.82701" lon="6.83622">
        <ele>1136.8000488281</ele>
        <time>2023-08-03T16:25:40.000Z</time>
      </trkpt>
      <trkpt lat="47.82711" lon="6.83633">
        <ele>1135.8000488281</ele>
        <time>2023-08-03T16:25:41.000Z</time>
      </trkpt>
      <trkpt lat="47.82724" lon="6.83646">
        <ele>1134.4000244141</ele>
        <time>2023-08-03T16:25:42.000Z</time>
      </trkpt>
      <trkpt lat="47.82734" lon="6.83656">
        <ele>1133.4000244141</ele>
        <time>2023-08-03T16:25:43.000Z</time>
      </trkpt>
      <trkpt lat="47.82752" lon="6.83673">
        <ele>1131.1999511719</ele>
        <time>2023-08-03T16:25:45.000Z</time>
      </trkpt>
      <trkpt lat="47.82774" lon="6.83693">
        <ele>1129.1999511719</ele>
        <time>2023-08-03T16:25:47.000Z</time>
      </trkpt>
      <trkpt lat="47.82784" lon="6.83702">
        <ele>1128</ele>
        <time>2023-08-03T16:25:48.000Z</time>
      </trkpt>
      <trkpt lat="47.82803" lon="6.83716">
        <ele>1126.1999511719</ele>
        <time>2023-08-03T16:25:50.000Z</time>
      </trkpt>
      <trkpt lat="47.82817" lon="6.83725">
        <ele>1125.5999755859</ele>
        <time>2023-08-03T16:25:51.000Z</time>
      </trkpt>
      <trkpt lat="47.82828" lon="6.83731">
        <ele>1124.4000244141</ele>
        <time>2023-08-03T16:25:52.000Z</time>
      </trkpt>
      <trkpt lat="47.8284" lon="6.83737">
        <ele>1123.4000244141</ele>
        <time>2023-08-03T16:25:53.000Z</time>
      </trkpt>
      <trkpt lat="47.8286" lon="6.83748">
        <ele>1121.1999511719</ele>
        <time>2023-08-03T16:25:55.000Z</time>
      </trkpt>
      <trkpt lat="47.82885" lon="6.83765">
        <ele>1119.1999511719</ele>
        <time>2023-08-03T16:25:57.000Z</time>
      </trkpt>
      <trkpt lat="47.82905" lon="6.8378">
        <ele>1117.8000488281</ele>
        <time>2023-08-03T16:25:59.000Z</time>
      </trkpt>
      <trkpt lat="47.82916" lon="6.83789">
        <ele>1116.5999755859</ele>
        <time>2023-08-03T16:26:00.000Z</time>
      </trkpt>
      <trkpt lat="47.82937" lon="6.83808">
        <ele>1115</ele>
        <time>2023-08-03T16:26:02.000Z</time>
      </trkpt>
      <trkpt lat="47.82958" lon="6.83829">
        <ele>1113.4000244141</ele>
        <time>2023-08-03T16:26:04.000Z</time>
      </trkpt>
      <trkpt lat="47.82968" lon="6.83839">
        <ele>1112.4000244141</ele>
        <time>2023-08-03T16:26:05.000Z</time>
      </trkpt>
      <trkpt lat="47.82978" lon="6.8385">
        <ele>1111.5999755859</ele>
        <time>2023-08-03T16:26:06.000Z</time>
      </trkpt>
      <trkpt lat="47.82989" lon="6.83863">
        <ele>1110.5999755859</ele>
        <time>2023-08-03T16:26:07.000Z</time>
      </trkpt>
      <trkpt lat="47.83006" lon="6.83883">
        <ele>1108.8000488281</ele>
        <time>2023-08-03T16:26:09.000Z</time>
      </trkpt>
      <trkpt lat="47.83018" lon="6.83895">
        <ele>1108.1999511719</ele>
        <time>2023-08-03T16:26:10.000Z</time>
      </trkpt>
      <trkpt lat="47.83028" lon="6.83905">
        <ele>1107</ele>
        <time>2023-08-03T16:26:11.000Z</time>
      </trkpt>
      <trkpt lat="47.83038" lon="6.83914">
        <ele>1106</ele>
        <time>2023-08-03T16:26:12.000Z</time>
      </trkpt>
      <trkpt lat="47.83059" lon="6.83928">
        <ele>1104.1999511719</ele>
        <time>2023-08-03T16:26:14.000Z</time>
      </trkpt>
      <trkpt lat="47.8307" lon="6.83934">
        <ele>1103.4000244141</ele>
        <time>2023-08-03T16:26:15.000Z</time>
      </trkpt>
      <trkpt lat="47.83081" lon="6.8394">
        <ele>1102.1999511719</ele>
        <time>2023-08-03T16:26:16.000Z</time>
      </trkpt>
      <trkpt lat="47.83096" lon="6.83946">
        <ele>1100.8000488281</ele>
        <time>2023-08-03T16:26:17.000Z</time>
      </trkpt>
      <trkpt lat="47.83117" lon="6.83954">
        <ele>1099</ele>
        <time>2023-08-03T16:26:19.000Z</time>
      </trkpt>
      <trkpt lat="47.83131" lon="6.8396">
        <ele>1098.5999755859</ele>
        <time>2023-08-03T16:26:20.000Z</time>
      </trkpt>
      <trkpt lat="47.83143" lon="6.83965">
        <ele>1097</ele>
        <time>2023-08-03T16:26:21.000Z</time>
      </trkpt>
      <trkpt lat="47.83154" lon="6.8397">
        <ele>1095.8000488281</ele>
        <time>2023-08-03T16:26:22.000Z</time>
      </trkpt>
      <trkpt lat="47.83175" lon="6.8398">
        <ele>1094</ele>
        <time>2023-08-03T16:26:24.000Z</time>
      </trkpt>
      <trkpt lat="47.83198" lon="6.83993">
        <ele>1092.1999511719</ele>
        <time>2023-08-03T16:26:26.000Z</time>
      </trkpt>
      <trkpt lat="47.83216" lon="6.84005">
        <ele>1090.4000244141</ele>
        <time>2023-08-03T16:26:28.000Z</time>
      </trkpt>
      <trkpt lat="47.83238" lon="6.84018">
        <ele>1089</ele>
        <time>2023-08-03T16:26:30.000Z</time>
      </trkpt>
      <trkpt lat="47.83248" lon="6.84022">
        <ele>1087.8000488281</ele>
        <time>2023-08-03T16:26:31.000Z</time>
      </trkpt>
      <trkpt lat="47.83256" lon="6.84025">
        <ele>1087.1999511719</ele>
        <time>2023-08-03T16:26:32.000Z</time>
      </trkpt>
      <trkpt lat="47.83266" lon="6.84029">
        <ele>1086.1999511719</ele>
        <time>2023-08-03T16:26:33.000Z</time>
      </trkpt>
      <trkpt lat="47.83279" lon="6.8403">
        <ele>1084.8000488281</ele>
        <time>2023-08-03T16:26:34.000Z</time>
      </trkpt>
      <trkpt lat="47.83288" lon="6.84031">
        <ele>1084.4000244141</ele>
        <time>2023-08-03T16:26:35.000Z</time>
      </trkpt>
      <trkpt lat="47.83298" lon="6.8403">
        <ele>1083.5999755859</ele>
        <time>2023-08-03T16:26:36.000Z</time>
      </trkpt>
      <trkpt lat="47.83314" lon="6.84022">
        <ele>1082.1999511719</ele>
        <time>2023-08-03T16:26:38.000Z</time>
      </trkpt>
      <trkpt lat="47.83331" lon="6.84003">
        <ele>1080.8000488281</ele>
        <time>2023-08-03T16:26:40.000Z</time>
      </trkpt>
      <trkpt lat="47.83336" lon="6.83992">
        <ele>1080.1999511719</ele>
        <time>2023-08-03T16:26:41.000Z</time>
      </trkpt>
      <trkpt lat="47.83339" lon="6.83982">
        <ele>1080</ele>
        <time>2023-08-03T16:26:42.000Z</time>
      </trkpt>
      <trkpt lat="47.83341" lon="6.8397">
        <ele>1079.5999755859</ele>
        <time>2023-08-03T16:26:43.000Z</time>
      </trkpt>
      <trkpt lat="47.83342" lon="6.83955">
        <ele>1079.5999755859</ele>
        <time>2023-08-03T16:26:44.000Z</time>
      </trkpt>
      <trkpt lat="47.83344" lon="6.83919">
        <ele>1078.4000244141</ele>
        <time>2023-08-03T16:26:47.000Z</time>
      </trkpt>
      <trkpt lat="47.83345" lon="6.83904">
        <ele>1077.4000244141</ele>
        <time>2023-08-03T16:26:48.000Z</time>
      </trkpt>
      <trkpt lat="47.83347" lon="6.83892">
        <ele>1077.1999511719</ele>
        <time>2023-08-03T16:26:49.000Z</time>
      </trkpt>
      <trkpt lat="47.8335" lon="6.83881">
        <ele>1076.4000244141</ele>
        <time>2023-08-03T16:26:50.000Z</time>
      </trkpt>
      <trkpt lat="47.83354" lon="6.83875">
        <ele>1075.5999755859</ele>
        <time>2023-08-03T16:26:51.000Z</time>
      </trkpt>
      <trkpt lat="47.83368" lon="6.83866">
        <ele>1074.4000244141</ele>
        <time>2023-08-03T16:26:53.000Z</time>
      </trkpt>
      <trkpt lat="47.83383" lon="6.83873">
        <ele>1073.1999511719</ele>
        <time>2023-08-03T16:26:55.000Z</time>
      </trkpt>
      <trkpt lat="47.83395" lon="6.8389">
        <ele>1072</ele>
        <time>2023-08-03T16:26:57.000Z</time>
      </trkpt>
      <trkpt lat="47.83402" lon="6.83904">
        <ele>1071</ele>
        <time>2023-08-03T16:26:58.000Z</time>
      </trkpt>
      <trkpt lat="47.83414" lon="6.83929">
        <ele>1068.5999755859</ele>
        <time>2023-08-03T16:27:00.000Z</time>
      </trkpt>
      <trkpt lat="47.83423" lon="6.83953">
        <ele>1067</ele>
        <time>2023-08-03T16:27:02.000Z</time>
      </trkpt>
      <trkpt lat="47.83433" lon="6.83982">
        <ele>1065.8000488281</ele>
        <time>2023-08-03T16:27:04.000Z</time>
      </trkpt>
      <trkpt lat="47.83436" lon="6.83993">
        <ele>1064.8000488281</ele>
        <time>2023-08-03T16:27:05.000Z</time>
      </trkpt>
      <trkpt lat="47.83442" lon="6.84018">
        <ele>1063.1999511719</ele>
        <time>2023-08-03T16:27:07.000Z</time>
      </trkpt>
      <trkpt lat="47.83446" lon="6.84033">
        <ele>1062.1999511719</ele>
        <time>2023-08-03T16:27:08.000Z</time>
      </trkpt>
      <trkpt lat="47.83447" lon="6.84044">
        <ele>1061.5999755859</ele>
        <time>2023-08-03T16:27:09.000Z</time>
      </trkpt>
      <trkpt lat="47.83448" lon="6.84052">
        <ele>1060.4000244141</ele>
        <time>2023-08-03T16:27:10.000Z</time>
      </trkpt>
      <trkpt lat="47.8345" lon="6.84062">
        <ele>1059.8000488281</ele>
        <time>2023-08-03T16:27:11.000Z</time>
      </trkpt>
      <trkpt lat="47.83454" lon="6.8407">
        <ele>1059</ele>
        <time>2023-08-03T16:27:12.000Z</time>
      </trkpt>
      <trkpt lat="47.83459" lon="6.84075">
        <ele>1058.5999755859</ele>
        <time>2023-08-03T16:27:13.000Z</time>
      </trkpt>
      <trkpt lat="47.83469" lon="6.84074">
        <ele>1057.8000488281</ele>
        <time>2023-08-03T16:27:15.000Z</time>
      </trkpt>
      <trkpt lat="47.83476" lon="6.84057">
        <ele>1057</ele>
        <time>2023-08-03T16:27:17.000Z</time>
      </trkpt>
      <trkpt lat="47.83474" lon="6.84036">
        <ele>1056.5999755859</ele>
        <time>2023-08-03T16:27:19.000Z</time>
      </trkpt>
      <trkpt lat="47.83471" lon="6.84014">
        <ele>1055.5999755859</ele>
        <time>2023-08-03T16:27:21.000Z</time>
      </trkpt>
      <trkpt lat="47.83471" lon="6.84">
        <ele>1055.1999511719</ele>
        <time>2023-08-03T16:27:22.000Z</time>
      </trkpt>
      <trkpt lat="47.83468" lon="6.83963">
        <ele>1054</ele>
        <time>2023-08-03T16:27:25.000Z</time>
      </trkpt>
      <trkpt lat="47.83467" lon="6.83949">
        <ele>1053.5999755859</ele>
        <time>2023-08-03T16:27:26.000Z</time>
      </trkpt>
      <trkpt lat="47.83465" lon="6.83919">
        <ele>1053</ele>
        <time>2023-08-03T16:27:28.000Z</time>
      </trkpt>
      <trkpt lat="47.83462" lon="6.83893">
        <ele>1051.5999755859</ele>
        <time>2023-08-03T16:27:30.000Z</time>
      </trkpt>
      <trkpt lat="47.8346" lon="6.83878">
        <ele>1050.8000488281</ele>
        <time>2023-08-03T16:27:31.000Z</time>
      </trkpt>
      <trkpt lat="47.83459" lon="6.8386">
        <ele>1050.4000244141</ele>
        <time>2023-08-03T16:27:32.000Z</time>
      </trkpt>
      <trkpt lat="47.83459" lon="6.83817">
        <ele>1048.8000488281</ele>
        <time>2023-08-03T16:27:35.000Z</time>
      </trkpt>
      <trkpt lat="47.8346" lon="6.83802">
        <ele>1047.8000488281</ele>
        <time>2023-08-03T16:27:36.000Z</time>
      </trkpt>
      <trkpt lat="47.83459" lon="6.83782">
        <ele>1046.8000488281</ele>
        <time>2023-08-03T16:27:37.000Z</time>
      </trkpt>
      <trkpt lat="47.83456" lon="6.83748">
        <ele>1045.1999511719</ele>
        <time>2023-08-03T16:27:39.000Z</time>
      </trkpt>
      <trkpt lat="47.83455" lon="6.83717">
        <ele>1044</ele>
        <time>2023-08-03T16:27:41.000Z</time>
      </trkpt>
      <trkpt lat="47.83452" lon="6.8368">
        <ele>1042.8000488281</ele>
        <time>2023-08-03T16:27:43.000Z</time>
      </trkpt>
      <trkpt lat="47.83452" lon="6.8365">
        <ele>1041.4000244141</ele>
        <time>2023-08-03T16:27:45.000Z</time>
      </trkpt>
      <trkpt lat="47.83449" lon="6.83611">
        <ele>1040</ele>
        <time>2023-08-03T16:27:47.000Z</time>
      </trkpt>
      <trkpt lat="47.83448" lon="6.83596">
        <ele>1038.8000488281</ele>
        <time>2023-08-03T16:27:48.000Z</time>
      </trkpt>
      <trkpt lat="47.83447" lon="6.83583">
        <ele>1037.5999755859</ele>
        <time>2023-08-03T16:27:49.000Z</time>
      </trkpt>
      <trkpt lat="47.83443" lon="6.8355">
        <ele>1035.8000488281</ele>
        <time>2023-08-03T16:27:51.000Z</time>
      </trkpt>
      <trkpt lat="47.83439" lon="6.83521">
        <ele>1034</ele>
        <time>2023-08-03T16:27:53.000Z</time>
      </trkpt>
      <trkpt lat="47.83433" lon="6.83495">
        <ele>1032.5999755859</ele>
        <time>2023-08-03T16:27:55.000Z</time>
      </trkpt>
      <trkpt lat="47.83429" lon="6.83478">
        <ele>1031.4000244141</ele>
        <time>2023-08-03T16:27:56.000Z</time>
      </trkpt>
      <trkpt lat="47.83419" lon="6.83452">
        <ele>1030</ele>
        <time>2023-08-03T16:27:58.000Z</time>
      </trkpt>
      <trkpt lat="47.83414" lon="6.83443">
        <ele>1029.1999511719</ele>
        <time>2023-08-03T16:27:59.000Z</time>
      </trkpt>
      <trkpt lat="47.83407" lon="6.83432">
        <ele>1028.5999755859</ele>
        <time>2023-08-03T16:28:00.000Z</time>
      </trkpt>
      <trkpt lat="47.834" lon="6.83423">
        <ele>1027.5999755859</ele>
        <time>2023-08-03T16:28:01.000Z</time>
      </trkpt>
      <trkpt lat="47.83392" lon="6.83414">
        <ele>1027.1999511719</ele>
        <time>2023-08-03T16:28:02.000Z</time>
      </trkpt>
      <trkpt lat="47.83384" lon="6.83405">
        <ele>1026</ele>
        <time>2023-08-03T16:28:03.000Z</time>
      </trkpt>
      <trkpt lat="47.83365" lon="6.83388">
        <ele>1025</ele>
        <time>2023-08-03T16:28:05.000Z</time>
      </trkpt>
      <trkpt lat="47.83356" lon="6.8338">
        <ele>1023.799987793</ele>
        <time>2023-08-03T16:28:06.000Z</time>
      </trkpt>
      <trkpt lat="47.83346" lon="6.83372">
        <ele>1023.200012207</ele>
        <time>2023-08-03T16:28:07.000Z</time>
      </trkpt>
      <trkpt lat="47.83336" lon="6.83365">
        <ele>1021.5999755859</ele>
        <time>2023-08-03T16:28:08.000Z</time>
      </trkpt>
      <trkpt lat="47.83317" lon="6.83351">
        <ele>1020</ele>
        <time>2023-08-03T16:28:10.000Z</time>
      </trkpt>
      <trkpt lat="47.83307" lon="6.83345">
        <ele>1018.4000244141</ele>
        <time>2023-08-03T16:28:11.000Z</time>
      </trkpt>
      <trkpt lat="47.83287" lon="6.83332">
        <ele>1017.200012207</ele>
        <time>2023-08-03T16:28:13.000Z</time>
      </trkpt>
      <trkpt lat="47.83268" lon="6.83321">
        <ele>1015.4000244141</ele>
        <time>2023-08-03T16:28:15.000Z</time>
      </trkpt>
      <trkpt lat="47.8326" lon="6.83317">
        <ele>1014.4000244141</ele>
        <time>2023-08-03T16:28:16.000Z</time>
      </trkpt>
      <trkpt lat="47.83243" lon="6.83309">
        <ele>1012</ele>
        <time>2023-08-03T16:28:18.000Z</time>
      </trkpt>
      <trkpt lat="47.83235" lon="6.83306">
        <ele>1011.5999755859</ele>
        <time>2023-08-03T16:28:19.000Z</time>
      </trkpt>
      <trkpt lat="47.83227" lon="6.83303">
        <ele>1010.5999755859</ele>
        <time>2023-08-03T16:28:20.000Z</time>
      </trkpt>
      <trkpt lat="47.8321" lon="6.83297">
        <ele>1009</ele>
        <time>2023-08-03T16:28:22.000Z</time>
      </trkpt>
      <trkpt lat="47.83202" lon="6.83295">
        <ele>1007.799987793</ele>
        <time>2023-08-03T16:28:23.000Z</time>
      </trkpt>
      <trkpt lat="47.83194" lon="6.83294">
        <ele>1007.200012207</ele>
        <time>2023-08-03T16:28:24.000Z</time>
      </trkpt>
      <trkpt lat="47.83187" lon="6.83294">
        <ele>1006.4000244141</ele>
        <time>2023-08-03T16:28:25.000Z</time>
      </trkpt>
      <trkpt lat="47.83172" lon="6.83295">
        <ele>1004.5999755859</ele>
        <time>2023-08-03T16:28:27.000Z</time>
      </trkpt>
      <trkpt lat="47.83165" lon="6.83296">
        <ele>1003.200012207</ele>
        <time>2023-08-03T16:28:28.000Z</time>
      </trkpt>
      <trkpt lat="47.83158" lon="6.83296">
        <ele>1002.799987793</ele>
        <time>2023-08-03T16:28:29.000Z</time>
      </trkpt>
      <trkpt lat="47.83153" lon="6.83293">
        <ele>1002.200012207</ele>
        <time>2023-08-03T16:28:30.000Z</time>
      </trkpt>
      <trkpt lat="47.83149" lon="6.83287">
        <ele>1001.799987793</ele>
        <time>2023-08-03T16:28:31.000Z</time>
      </trkpt>
      <trkpt lat="47.83148" lon="6.83279">
        <ele>1000.799987793</ele>
        <time>2023-08-03T16:28:32.000Z</time>
      </trkpt>
      <trkpt lat="47.83151" lon="6.83271">
        <ele>1000.200012207</ele>
        <time>2023-08-03T16:28:33.000Z</time>
      </trkpt>
      <trkpt lat="47.83162" lon="6.83261">
        <ele>999</ele>
        <time>2023-08-03T16:28:35.000Z</time>
      </trkpt>
      <trkpt lat="47.83168" lon="6.83257">
        <ele>998.59997558594</ele>
        <time>2023-08-03T16:28:36.000Z</time>
      </trkpt>
      <trkpt lat="47.83176" lon="6.83254">
        <ele>997.79998779297</ele>
        <time>2023-08-03T16:28:37.000Z</time>
      </trkpt>
      <trkpt lat="47.83192" lon="6.8325">
        <ele>996.40002441406</ele>
        <time>2023-08-03T16:28:39.000Z</time>
      </trkpt>
      <trkpt lat="47.83201" lon="6.83248">
        <ele>995.40002441406</ele>
        <time>2023-08-03T16:28:40.000Z</time>
      </trkpt>
      <trkpt lat="47.8322" lon="6.83242">
        <ele>994.40002441406</ele>
        <time>2023-08-03T16:28:42.000Z</time>
      </trkpt>
      <trkpt lat="47.8323" lon="6.83238">
        <ele>993.79998779297</ele>
        <time>2023-08-03T16:28:43.000Z</time>
      </trkpt>
      <trkpt lat="47.8324" lon="6.83233">
        <ele>992.59997558594</ele>
        <time>2023-08-03T16:28:44.000Z</time>
      </trkpt>
      <trkpt lat="47.83259" lon="6.83222">
        <ele>991</ele>
        <time>2023-08-03T16:28:46.000Z</time>
      </trkpt>
      <trkpt lat="47.83268" lon="6.83217">
        <ele>990.20001220703</ele>
        <time>2023-08-03T16:28:47.000Z</time>
      </trkpt>
      <trkpt lat="47.83277" lon="6.83213">
        <ele>990</ele>
        <time>2023-08-03T16:28:48.000Z</time>
      </trkpt>
      <trkpt lat="47.83287" lon="6.83211">
        <ele>988.79998779297</ele>
        <time>2023-08-03T16:28:49.000Z</time>
      </trkpt>
      <trkpt lat="47.83287" lon="6.83211">
        <ele>987.79998779297</ele>
        <time>2023-08-03T16:28:50.000Z</time>
      </trkpt>
      <trkpt lat="47.83306" lon="6.83212">
        <ele>987.40002441406</ele>
        <time>2023-08-03T16:28:51.000Z</time>
      </trkpt>
      <trkpt lat="47.83327" lon="6.83219">
        <ele>986</ele>
        <time>2023-08-03T16:28:53.000Z</time>
      </trkpt>
      <trkpt lat="47.83336" lon="6.83224">
        <ele>985</ele>
        <time>2023-08-03T16:28:54.000Z</time>
      </trkpt>
      <trkpt lat="47.83354" lon="6.83235">
        <ele>983.40002441406</ele>
        <time>2023-08-03T16:28:56.000Z</time>
      </trkpt>
      <trkpt lat="47.83363" lon="6.83242">
        <ele>982.20001220703</ele>
        <time>2023-08-03T16:28:57.000Z</time>
      </trkpt>
      <trkpt lat="47.83381" lon="6.83255">
        <ele>980.40002441406</ele>
        <time>2023-08-03T16:28:59.000Z</time>
      </trkpt>
      <trkpt lat="47.83401" lon="6.83269">
        <ele>978.79998779297</ele>
        <time>2023-08-03T16:29:01.000Z</time>
      </trkpt>
      <trkpt lat="47.83423" lon="6.83276">
        <ele>977.79998779297</ele>
        <time>2023-08-03T16:29:03.000Z</time>
      </trkpt>
      <trkpt lat="47.83434" lon="6.83278">
        <ele>976.59997558594</ele>
        <time>2023-08-03T16:29:04.000Z</time>
      </trkpt>
      <trkpt lat="47.83444" lon="6.8328">
        <ele>976.20001220703</ele>
        <time>2023-08-03T16:29:05.000Z</time>
      </trkpt>
      <trkpt lat="47.83454" lon="6.83281">
        <ele>975.20001220703</ele>
        <time>2023-08-03T16:29:06.000Z</time>
      </trkpt>
      <trkpt lat="47.83474" lon="6.83284">
        <ele>973.79998779297</ele>
        <time>2023-08-03T16:29:08.000Z</time>
      </trkpt>
      <trkpt lat="47.83484" lon="6.83286">
        <ele>972.59997558594</ele>
        <time>2023-08-03T16:29:09.000Z</time>
      </trkpt>
      <trkpt lat="47.83504" lon="6.83294">
        <ele>971</ele>
        <time>2023-08-03T16:29:11.000Z</time>
      </trkpt>
      <trkpt lat="47.83513" lon="6.83297">
        <ele>970.40002441406</ele>
        <time>2023-08-03T16:29:12.000Z</time>
      </trkpt>
      <trkpt lat="47.83522" lon="6.83299">
        <ele>969.40002441406</ele>
        <time>2023-08-03T16:29:13.000Z</time>
      </trkpt>
      <trkpt lat="47.83532" lon="6.83303">
        <ele>968.20001220703</ele>
        <time>2023-08-03T16:29:14.000Z</time>
      </trkpt>
      <trkpt lat="47.83551" lon="6.83309">
        <ele>966.79998779297</ele>
        <time>2023-08-03T16:29:16.000Z</time>
      </trkpt>
      <trkpt lat="47.8356" lon="6.83312">
        <ele>966.40002441406</ele>
        <time>2023-08-03T16:29:17.000Z</time>
      </trkpt>
      <trkpt lat="47.83567" lon="6.83314">
        <ele>965.40002441406</ele>
        <time>2023-08-03T16:29:18.000Z</time>
      </trkpt>
      <trkpt lat="47.83581" lon="6.83319">
        <ele>964.20001220703</ele>
        <time>2023-08-03T16:29:20.000Z</time>
      </trkpt>
      <trkpt lat="47.83588" lon="6.83323">
        <ele>963.40002441406</ele>
        <time>2023-08-03T16:29:21.000Z</time>
      </trkpt>
      <trkpt lat="47.83594" lon="6.83328">
        <ele>962.79998779297</ele>
        <time>2023-08-03T16:29:22.000Z</time>
      </trkpt>
      <trkpt lat="47.83607" lon="6.83346">
        <ele>960.79998779297</ele>
        <time>2023-08-03T16:29:24.000Z</time>
      </trkpt>
      <trkpt lat="47.83616" lon="6.8337">
        <ele>959.40002441406</ele>
        <time>2023-08-03T16:29:26.000Z</time>
      </trkpt>
      <trkpt lat="47.83618" lon="6.83383">
        <ele>959</ele>
        <time>2023-08-03T16:29:27.000Z</time>
      </trkpt>
      <trkpt lat="47.83622" lon="6.83397">
        <ele>958.20001220703</ele>
        <time>2023-08-03T16:29:28.000Z</time>
      </trkpt>
      <trkpt lat="47.83627" lon="6.83425">
        <ele>957.20001220703</ele>
        <time>2023-08-03T16:29:30.000Z</time>
      </trkpt>
      <trkpt lat="47.83633" lon="6.83448">
        <ele>955.79998779297</ele>
        <time>2023-08-03T16:29:32.000Z</time>
      </trkpt>
      <trkpt lat="47.8364" lon="6.83454">
        <ele>955.20001220703</ele>
        <time>2023-08-03T16:29:33.000Z</time>
      </trkpt>
      <trkpt lat="47.83647" lon="6.83457">
        <ele>954.79998779297</ele>
        <time>2023-08-03T16:29:34.000Z</time>
      </trkpt>
      <trkpt lat="47.83653" lon="6.83455">
        <ele>953.59997558594</ele>
        <time>2023-08-03T16:29:35.000Z</time>
      </trkpt>
      <trkpt lat="47.83661" lon="6.83438">
        <ele>952.40002441406</ele>
        <time>2023-08-03T16:29:37.000Z</time>
      </trkpt>
      <trkpt lat="47.83663" lon="6.83429">
        <ele>951.79998779297</ele>
        <time>2023-08-03T16:29:38.000Z</time>
      </trkpt>
      <trkpt lat="47.83663" lon="6.83407">
        <ele>951</ele>
        <time>2023-08-03T16:29:40.000Z</time>
      </trkpt>
      <trkpt lat="47.83662" lon="6.83383">
        <ele>950.20001220703</ele>
        <time>2023-08-03T16:29:42.000Z</time>
      </trkpt>
      <trkpt lat="47.8366" lon="6.8337">
        <ele>949.40002441406</ele>
        <time>2023-08-03T16:29:43.000Z</time>
      </trkpt>
      <trkpt lat="47.83656" lon="6.8334">
        <ele>948.20001220703</ele>
        <time>2023-08-03T16:29:45.000Z</time>
      </trkpt>
      <trkpt lat="47.83656" lon="6.83323">
        <ele>947</ele>
        <time>2023-08-03T16:29:46.000Z</time>
      </trkpt>
      <trkpt lat="47.83659" lon="6.8329">
        <ele>945.59997558594</ele>
        <time>2023-08-03T16:29:48.000Z</time>
      </trkpt>
      <trkpt lat="47.83658" lon="6.83274">
        <ele>945.20001220703</ele>
        <time>2023-08-03T16:29:49.000Z</time>
      </trkpt>
      <trkpt lat="47.83658" lon="6.83257">
        <ele>944.20001220703</ele>
        <time>2023-08-03T16:29:50.000Z</time>
      </trkpt>
      <trkpt lat="47.83657" lon="6.83242">
        <ele>944</ele>
        <time>2023-08-03T16:29:51.000Z</time>
      </trkpt>
      <trkpt lat="47.83655" lon="6.83231">
        <ele>943</ele>
        <time>2023-08-03T16:29:52.000Z</time>
      </trkpt>
      <trkpt lat="47.83647" lon="6.83207">
        <ele>941.79998779297</ele>
        <time>2023-08-03T16:29:54.000Z</time>
      </trkpt>
      <trkpt lat="47.83641" lon="6.83197">
        <ele>940.79998779297</ele>
        <time>2023-08-03T16:29:55.000Z</time>
      </trkpt>
      <trkpt lat="47.83635" lon="6.83191">
        <ele>940.20001220703</ele>
        <time>2023-08-03T16:29:56.000Z</time>
      </trkpt>
      <trkpt lat="47.83626" lon="6.83186">
        <ele>939.20001220703</ele>
        <time>2023-08-03T16:29:57.000Z</time>
      </trkpt>
      <trkpt lat="47.83618" lon="6.83183">
        <ele>938.40002441406</ele>
        <time>2023-08-03T16:29:58.000Z</time>
      </trkpt>
      <trkpt lat="47.8361" lon="6.83183">
        <ele>937.79998779297</ele>
        <time>2023-08-03T16:29:59.000Z</time>
      </trkpt>
      <trkpt lat="47.83603" lon="6.83184">
        <ele>937.20001220703</ele>
        <time>2023-08-03T16:30:00.000Z</time>
      </trkpt>
      <trkpt lat="47.83597" lon="6.83181">
        <ele>936.79998779297</ele>
        <time>2023-08-03T16:30:01.000Z</time>
      </trkpt>
      <trkpt lat="47.83591" lon="6.83167">
        <ele>935</ele>
        <time>2023-08-03T16:30:03.000Z</time>
      </trkpt>
      <trkpt lat="47.83594" lon="6.83158">
        <ele>933.59997558594</ele>
        <time>2023-08-03T16:30:05.000Z</time>
      </trkpt>
      <trkpt lat="47.83604" lon="6.83144">
        <ele>933</ele>
        <time>2023-08-03T16:30:06.000Z</time>
      </trkpt>
      <trkpt lat="47.83612" lon="6.83138">
        <ele>932</ele>
        <time>2023-08-03T16:30:07.000Z</time>
      </trkpt>
      <trkpt lat="47.83629" lon="6.83128">
        <ele>930.40002441406</ele>
        <time>2023-08-03T16:30:09.000Z</time>
      </trkpt>
      <trkpt lat="47.83639" lon="6.83124">
        <ele>929.40002441406</ele>
        <time>2023-08-03T16:30:10.000Z</time>
      </trkpt>
      <trkpt lat="47.83648" lon="6.8312">
        <ele>929</ele>
        <time>2023-08-03T16:30:11.000Z</time>
      </trkpt>
      <trkpt lat="47.83658" lon="6.83119">
        <ele>928</ele>
        <time>2023-08-03T16:30:12.000Z</time>
      </trkpt>
      <trkpt lat="47.83668" lon="6.8312">
        <ele>927.59997558594</ele>
        <time>2023-08-03T16:30:13.000Z</time>
      </trkpt>
      <trkpt lat="47.83688" lon="6.8313">
        <ele>926</ele>
        <time>2023-08-03T16:30:15.000Z</time>
      </trkpt>
      <trkpt lat="47.83696" lon="6.83139">
        <ele>925.40002441406</ele>
        <time>2023-08-03T16:30:16.000Z</time>
      </trkpt>
      <trkpt lat="47.83703" lon="6.83149">
        <ele>924.59997558594</ele>
        <time>2023-08-03T16:30:17.000Z</time>
      </trkpt>
      <trkpt lat="47.83714" lon="6.83177">
        <ele>923.40002441406</ele>
        <time>2023-08-03T16:30:19.000Z</time>
      </trkpt>
      <trkpt lat="47.83719" lon="6.83192">
        <ele>922</ele>
        <time>2023-08-03T16:30:20.000Z</time>
      </trkpt>
      <trkpt lat="47.83726" lon="6.83226">
        <ele>920.59997558594</ele>
        <time>2023-08-03T16:30:22.000Z</time>
      </trkpt>
      <trkpt lat="47.83728" lon="6.83243">
        <ele>920</ele>
        <time>2023-08-03T16:30:23.000Z</time>
      </trkpt>
      <trkpt lat="47.83731" lon="6.83259">
        <ele>919</ele>
        <time>2023-08-03T16:30:24.000Z</time>
      </trkpt>
      <trkpt lat="47.83735" lon="6.83275">
        <ele>917.79998779297</ele>
        <time>2023-08-03T16:30:25.000Z</time>
      </trkpt>
      <trkpt lat="47.83739" lon="6.8329">
        <ele>917.40002441406</ele>
        <time>2023-08-03T16:30:26.000Z</time>
      </trkpt>
      <trkpt lat="47.83745" lon="6.83304">
        <ele>916.20001220703</ele>
        <time>2023-08-03T16:30:27.000Z</time>
      </trkpt>
      <trkpt lat="47.83759" lon="6.83328">
        <ele>914.59997558594</ele>
        <time>2023-08-03T16:30:29.000Z</time>
      </trkpt>
      <trkpt lat="47.83767" lon="6.83339">
        <ele>914.20001220703</ele>
        <time>2023-08-03T16:30:30.000Z</time>
      </trkpt>
      <trkpt lat="47.83776" lon="6.8335">
        <ele>913.20001220703</ele>
        <time>2023-08-03T16:30:31.000Z</time>
      </trkpt>
      <trkpt lat="47.83792" lon="6.83376">
        <ele>911.79998779297</ele>
        <time>2023-08-03T16:30:33.000Z</time>
      </trkpt>
      <trkpt lat="47.83798" lon="6.83392">
        <ele>910.59997558594</ele>
        <time>2023-08-03T16:30:34.000Z</time>
      </trkpt>
      <trkpt lat="47.83808" lon="6.83425">
        <ele>909</ele>
        <time>2023-08-03T16:30:36.000Z</time>
      </trkpt>
      <trkpt lat="47.83814" lon="6.8344">
        <ele>907.59997558594</ele>
        <time>2023-08-03T16:30:37.000Z</time>
      </trkpt>
      <trkpt lat="47.83822" lon="6.83467">
        <ele>905.79998779297</ele>
        <time>2023-08-03T16:30:39.000Z</time>
      </trkpt>
      <trkpt lat="47.83829" lon="6.8349">
        <ele>903.79998779297</ele>
        <time>2023-08-03T16:30:41.000Z</time>
      </trkpt>
      <trkpt lat="47.83833" lon="6.83499">
        <ele>902.59997558594</ele>
        <time>2023-08-03T16:30:42.000Z</time>
      </trkpt>
      <trkpt lat="47.83838" lon="6.83505">
        <ele>902</ele>
        <time>2023-08-03T16:30:43.000Z</time>
      </trkpt>
      <trkpt lat="47.83844" lon="6.83508">
        <ele>900.79998779297</ele>
        <time>2023-08-03T16:30:44.000Z</time>
      </trkpt>
      <trkpt lat="47.83851" lon="6.83507">
        <ele>900.20001220703</ele>
        <time>2023-08-03T16:30:45.000Z</time>
      </trkpt>
      <trkpt lat="47.83855" lon="6.835">
        <ele>899.20001220703</ele>
        <time>2023-08-03T16:30:46.000Z</time>
      </trkpt>
      <trkpt lat="47.83859" lon="6.83492">
        <ele>899</ele>
        <time>2023-08-03T16:30:47.000Z</time>
      </trkpt>
      <trkpt lat="47.8386" lon="6.83482">
        <ele>898.20001220703</ele>
        <time>2023-08-03T16:30:48.000Z</time>
      </trkpt>
      <trkpt lat="47.83859" lon="6.83471">
        <ele>897.59997558594</ele>
        <time>2023-08-03T16:30:49.000Z</time>
      </trkpt>
      <trkpt lat="47.83856" lon="6.83448">
        <ele>897</ele>
        <time>2023-08-03T16:30:51.000Z</time>
      </trkpt>
      <trkpt lat="47.83853" lon="6.83421">
        <ele>895.79998779297</ele>
        <time>2023-08-03T16:30:53.000Z</time>
      </trkpt>
      <trkpt lat="47.83852" lon="6.83406">
        <ele>895.20001220703</ele>
        <time>2023-08-03T16:30:54.000Z</time>
      </trkpt>
      <trkpt lat="47.83851" lon="6.83391">
        <ele>894.59997558594</ele>
        <time>2023-08-03T16:30:55.000Z</time>
      </trkpt>
      <trkpt lat="47.8385" lon="6.83359">
        <ele>893.40002441406</ele>
        <time>2023-08-03T16:30:57.000Z</time>
      </trkpt>
      <trkpt lat="47.83847" lon="6.83325">
        <ele>891.79998779297</ele>
        <time>2023-08-03T16:30:59.000Z</time>
      </trkpt>
      <trkpt lat="47.83841" lon="6.83291">
        <ele>890.20001220703</ele>
        <time>2023-08-03T16:31:01.000Z</time>
      </trkpt>
      <trkpt lat="47.83837" lon="6.83258">
        <ele>889</ele>
        <time>2023-08-03T16:31:03.000Z</time>
      </trkpt>
      <trkpt lat="47.83835" lon="6.8324">
        <ele>888.20001220703</ele>
        <time>2023-08-03T16:31:04.000Z</time>
      </trkpt>
      <trkpt lat="47.83832" lon="6.83222">
        <ele>887.59997558594</ele>
        <time>2023-08-03T16:31:05.000Z</time>
      </trkpt>
      <trkpt lat="47.8383" lon="6.83204">
        <ele>886.59997558594</ele>
        <time>2023-08-03T16:31:06.000Z</time>
      </trkpt>
      <trkpt lat="47.83824" lon="6.83167">
        <ele>885</ele>
        <time>2023-08-03T16:31:08.000Z</time>
      </trkpt>
      <trkpt lat="47.83818" lon="6.8313">
        <ele>883.59997558594</ele>
        <time>2023-08-03T16:31:10.000Z</time>
      </trkpt>
      <trkpt lat="47.83812" lon="6.83093">
        <ele>882.20001220703</ele>
        <time>2023-08-03T16:31:12.000Z</time>
      </trkpt>
      <trkpt lat="47.83809" lon="6.83075">
        <ele>880.59997558594</ele>
        <time>2023-08-03T16:31:13.000Z</time>
      </trkpt>
      <trkpt lat="47.83803" lon="6.83039">
        <ele>878.59997558594</ele>
        <time>2023-08-03T16:31:15.000Z</time>
      </trkpt>
      <trkpt lat="47.838" lon="6.83022">
        <ele>877.20001220703</ele>
        <time>2023-08-03T16:31:16.000Z</time>
      </trkpt>
      <trkpt lat="47.83793" lon="6.82987">
        <ele>875.79998779297</ele>
        <time>2023-08-03T16:31:18.000Z</time>
      </trkpt>
      <trkpt lat="47.83785" lon="6.82955">
        <ele>874</ele>
        <time>2023-08-03T16:31:20.000Z</time>
      </trkpt>
      <trkpt lat="47.83781" lon="6.82939">
        <ele>872.59997558594</ele>
        <time>2023-08-03T16:31:21.000Z</time>
      </trkpt>
      <trkpt lat="47.83777" lon="6.82923">
        <ele>872.20001220703</ele>
        <time>2023-08-03T16:31:22.000Z</time>
      </trkpt>
      <trkpt lat="47.83772" lon="6.82908">
        <ele>870.79998779297</ele>
        <time>2023-08-03T16:31:23.000Z</time>
      </trkpt>
      <trkpt lat="47.83764" lon="6.82881">
        <ele>869.20001220703</ele>
        <time>2023-08-03T16:31:25.000Z</time>
      </trkpt>
      <trkpt lat="47.8376" lon="6.82869">
        <ele>868</ele>
        <time>2023-08-03T16:31:26.000Z</time>
      </trkpt>
      <trkpt lat="47.83751" lon="6.82844">
        <ele>866.20001220703</ele>
        <time>2023-08-03T16:31:28.000Z</time>
      </trkpt>
      <trkpt lat="47.83743" lon="6.82819">
        <ele>864.79998779297</ele>
        <time>2023-08-03T16:31:30.000Z</time>
      </trkpt>
      <trkpt lat="47.83734" lon="6.82795">
        <ele>863.40002441406</ele>
        <time>2023-08-03T16:31:32.000Z</time>
      </trkpt>
      <trkpt lat="47.83726" lon="6.82772">
        <ele>862</ele>
        <time>2023-08-03T16:31:34.000Z</time>
      </trkpt>
      <trkpt lat="47.83721" lon="6.82761">
        <ele>860.79998779297</ele>
        <time>2023-08-03T16:31:35.000Z</time>
      </trkpt>
      <trkpt lat="47.83712" lon="6.82739">
        <ele>859.40002441406</ele>
        <time>2023-08-03T16:31:37.000Z</time>
      </trkpt>
      <trkpt lat="47.83702" lon="6.82717">
        <ele>858.20001220703</ele>
        <time>2023-08-03T16:31:39.000Z</time>
      </trkpt>
      <trkpt lat="47.83696" lon="6.82707">
        <ele>857</ele>
        <time>2023-08-03T16:31:40.000Z</time>
      </trkpt>
      <trkpt lat="47.83685" lon="6.82689">
        <ele>855.59997558594</ele>
        <time>2023-08-03T16:31:42.000Z</time>
      </trkpt>
      <trkpt lat="47.83673" lon="6.82672">
        <ele>854.59997558594</ele>
        <time>2023-08-03T16:31:44.000Z</time>
      </trkpt>
      <trkpt lat="47.83666" lon="6.82666">
        <ele>853.40002441406</ele>
        <time>2023-08-03T16:31:45.000Z</time>
      </trkpt>
      <trkpt lat="47.83651" lon="6.82658">
        <ele>852.20001220703</ele>
        <time>2023-08-03T16:31:47.000Z</time>
      </trkpt>
      <trkpt lat="47.83644" lon="6.82657">
        <ele>851.79998779297</ele>
        <time>2023-08-03T16:31:48.000Z</time>
      </trkpt>
      <trkpt lat="47.83637" lon="6.82658">
        <ele>850.79998779297</ele>
        <time>2023-08-03T16:31:49.000Z</time>
      </trkpt>
      <trkpt lat="47.83623" lon="6.82667">
        <ele>849.79998779297</ele>
        <time>2023-08-03T16:31:51.000Z</time>
      </trkpt>
      <trkpt lat="47.83612" lon="6.82676">
        <ele>848.79998779297</ele>
        <time>2023-08-03T16:31:53.000Z</time>
      </trkpt>
      <trkpt lat="47.83607" lon="6.82679">
        <ele>848.20001220703</ele>
        <time>2023-08-03T16:31:54.000Z</time>
      </trkpt>
      <trkpt lat="47.83602" lon="6.82678">
        <ele>847.79998779297</ele>
        <time>2023-08-03T16:31:55.000Z</time>
      </trkpt>
      <trkpt lat="47.83599" lon="6.82673">
        <ele>847.59997558594</ele>
        <time>2023-08-03T16:31:56.000Z</time>
      </trkpt>
      <trkpt lat="47.83603" lon="6.82657">
        <ele>846.79998779297</ele>
        <time>2023-08-03T16:31:58.000Z</time>
      </trkpt>
      <trkpt lat="47.83607" lon="6.82653">
        <ele>846.20001220703</ele>
        <time>2023-08-03T16:31:59.000Z</time>
      </trkpt>
      <trkpt lat="47.83613" lon="6.8265">
        <ele>845.59997558594</ele>
        <time>2023-08-03T16:32:00.000Z</time>
      </trkpt>
      <trkpt lat="47.83619" lon="6.82647">
        <ele>845.20001220703</ele>
        <time>2023-08-03T16:32:01.000Z</time>
      </trkpt>
      <trkpt lat="47.83632" lon="6.82641">
        <ele>844.79998779297</ele>
        <time>2023-08-03T16:32:03.000Z</time>
      </trkpt>
      <trkpt lat="47.83647" lon="6.82636">
        <ele>844.20001220703</ele>
        <time>2023-08-03T16:32:05.000Z</time>
      </trkpt>
      <trkpt lat="47.83663" lon="6.82632">
        <ele>843.59997558594</ele>
        <time>2023-08-03T16:32:07.000Z</time>
      </trkpt>
      <trkpt lat="47.83672" lon="6.82632">
        <ele>843.40002441406</ele>
        <time>2023-08-03T16:32:08.000Z</time>
      </trkpt>
      <trkpt lat="47.83681" lon="6.82632">
        <ele>842.79998779297</ele>
        <time>2023-08-03T16:32:09.000Z</time>
      </trkpt>
      <trkpt lat="47.83699" lon="6.82636">
        <ele>842</ele>
        <time>2023-08-03T16:32:11.000Z</time>
      </trkpt>
      <trkpt lat="47.83709" lon="6.82638">
        <ele>841.20001220703</ele>
        <time>2023-08-03T16:32:12.000Z</time>
      </trkpt>
      <trkpt lat="47.83718" lon="6.82642">
        <ele>841</ele>
        <time>2023-08-03T16:32:13.000Z</time>
      </trkpt>
      <trkpt lat="47.83726" lon="6.82647">
        <ele>840.20001220703</ele>
        <time>2023-08-03T16:32:14.000Z</time>
      </trkpt>
      <trkpt lat="47.83732" lon="6.82652">
        <ele>840</ele>
        <time>2023-08-03T16:32:15.000Z</time>
      </trkpt>
      <trkpt lat="47.83739" lon="6.82659">
        <ele>839.20001220703</ele>
        <time>2023-08-03T16:32:16.000Z</time>
      </trkpt>
      <trkpt lat="47.83745" lon="6.82666">
        <ele>838.40002441406</ele>
        <time>2023-08-03T16:32:17.000Z</time>
      </trkpt>
      <trkpt lat="47.83751" lon="6.82676">
        <ele>838</ele>
        <time>2023-08-03T16:32:18.000Z</time>
      </trkpt>
      <trkpt lat="47.83767" lon="6.82697">
        <ele>837</ele>
        <time>2023-08-03T16:32:20.000Z</time>
      </trkpt>
      <trkpt lat="47.83775" lon="6.82708">
        <ele>836.40002441406</ele>
        <time>2023-08-03T16:32:21.000Z</time>
      </trkpt>
      <trkpt lat="47.83783" lon="6.82719">
        <ele>835.59997558594</ele>
        <time>2023-08-03T16:32:22.000Z</time>
      </trkpt>
      <trkpt lat="47.83791" lon="6.82731">
        <ele>835</ele>
        <time>2023-08-03T16:32:23.000Z</time>
      </trkpt>
      <trkpt lat="47.83805" lon="6.82755">
        <ele>833.79998779297</ele>
        <time>2023-08-03T16:32:25.000Z</time>
      </trkpt>
      <trkpt lat="47.83821" lon="6.82777">
        <ele>831.59997558594</ele>
        <time>2023-08-03T16:32:27.000Z</time>
      </trkpt>
      <trkpt lat="47.83833" lon="6.82799">
        <ele>830.20001220703</ele>
        <time>2023-08-03T16:32:29.000Z</time>
      </trkpt>
      <trkpt lat="47.83847" lon="6.82822">
        <ele>828.79998779297</ele>
        <time>2023-08-03T16:32:31.000Z</time>
      </trkpt>
      <trkpt lat="47.8386" lon="6.82843">
        <ele>827.40002441406</ele>
        <time>2023-08-03T16:32:33.000Z</time>
      </trkpt>
      <trkpt lat="47.83873" lon="6.82866">
        <ele>826</ele>
        <time>2023-08-03T16:32:35.000Z</time>
      </trkpt>
      <trkpt lat="47.8388" lon="6.82877">
        <ele>825</ele>
        <time>2023-08-03T16:32:36.000Z</time>
      </trkpt>
      <trkpt lat="47.83887" lon="6.82888">
        <ele>824.59997558594</ele>
        <time>2023-08-03T16:32:37.000Z</time>
      </trkpt>
      <trkpt lat="47.83899" lon="6.82912">
        <ele>822.79998779297</ele>
        <time>2023-08-03T16:32:39.000Z</time>
      </trkpt>
      <trkpt lat="47.83912" lon="6.82937">
        <ele>821.20001220703</ele>
        <time>2023-08-03T16:32:41.000Z</time>
      </trkpt>
      <trkpt lat="47.83922" lon="6.82963">
        <ele>819.79998779297</ele>
        <time>2023-08-03T16:32:43.000Z</time>
      </trkpt>
      <trkpt lat="47.83933" lon="6.82989">
        <ele>818.40002441406</ele>
        <time>2023-08-03T16:32:45.000Z</time>
      </trkpt>
      <trkpt lat="47.83945" lon="6.83018">
        <ele>816.79998779297</ele>
        <time>2023-08-03T16:32:47.000Z</time>
      </trkpt>
      <trkpt lat="47.8395" lon="6.83031">
        <ele>815.79998779297</ele>
        <time>2023-08-03T16:32:48.000Z</time>
      </trkpt>
      <trkpt lat="47.83961" lon="6.83057">
        <ele>814.40002441406</ele>
        <time>2023-08-03T16:32:50.000Z</time>
      </trkpt>
      <trkpt lat="47.83967" lon="6.83071">
        <ele>813.40002441406</ele>
        <time>2023-08-03T16:32:51.000Z</time>
      </trkpt>
      <trkpt lat="47.83973" lon="6.83082">
        <ele>813</ele>
        <time>2023-08-03T16:32:52.000Z</time>
      </trkpt>
      <trkpt lat="47.83981" lon="6.83094">
        <ele>812</ele>
        <time>2023-08-03T16:32:53.000Z</time>
      </trkpt>
      <trkpt lat="47.83997" lon="6.83118">
        <ele>810.59997558594</ele>
        <time>2023-08-03T16:32:55.000Z</time>
      </trkpt>
      <trkpt lat="47.84005" lon="6.83129">
        <ele>809.40002441406</ele>
        <time>2023-08-03T16:32:56.000Z</time>
      </trkpt>
      <trkpt lat="47.84021" lon="6.83153">
        <ele>807.79998779297</ele>
        <time>2023-08-03T16:32:58.000Z</time>
      </trkpt>
      <trkpt lat="47.84037" lon="6.83175">
        <ele>806.40002441406</ele>
        <time>2023-08-03T16:33:00.000Z</time>
      </trkpt>
      <trkpt lat="47.84046" lon="6.83186">
        <ele>805.20001220703</ele>
        <time>2023-08-03T16:33:01.000Z</time>
      </trkpt>
      <trkpt lat="47.84066" lon="6.83203">
        <ele>803.79998779297</ele>
        <time>2023-08-03T16:33:03.000Z</time>
      </trkpt>
      <trkpt lat="47.84084" lon="6.8322">
        <ele>802.40002441406</ele>
        <time>2023-08-03T16:33:05.000Z</time>
      </trkpt>
      <trkpt lat="47.84093" lon="6.8323">
        <ele>801.20001220703</ele>
        <time>2023-08-03T16:33:06.000Z</time>
      </trkpt>
      <trkpt lat="47.84112" lon="6.8325">
        <ele>799.79998779297</ele>
        <time>2023-08-03T16:33:08.000Z</time>
      </trkpt>
      <trkpt lat="47.84131" lon="6.83266">
        <ele>798.20001220703</ele>
        <time>2023-08-03T16:33:10.000Z</time>
      </trkpt>
      <trkpt lat="47.8414" lon="6.83272">
        <ele>797.79998779297</ele>
        <time>2023-08-03T16:33:11.000Z</time>
      </trkpt>
      <trkpt lat="47.84149" lon="6.83277">
        <ele>797</ele>
        <time>2023-08-03T16:33:12.000Z</time>
      </trkpt>
      <trkpt lat="47.84156" lon="6.83282">
        <ele>795.79998779297</ele>
        <time>2023-08-03T16:33:13.000Z</time>
      </trkpt>
      <trkpt lat="47.84171" lon="6.83295">
        <ele>794</ele>
        <time>2023-08-03T16:33:15.000Z</time>
      </trkpt>
      <trkpt lat="47.84183" lon="6.83315">
        <ele>792.79998779297</ele>
        <time>2023-08-03T16:33:17.000Z</time>
      </trkpt>
      <trkpt lat="47.84186" lon="6.83327">
        <ele>792</ele>
        <time>2023-08-03T16:33:18.000Z</time>
      </trkpt>
      <trkpt lat="47.84188" lon="6.8334">
        <ele>791.59997558594</ele>
        <time>2023-08-03T16:33:19.000Z</time>
      </trkpt>
      <trkpt lat="47.84187" lon="6.83353">
        <ele>790.40002441406</ele>
        <time>2023-08-03T16:33:20.000Z</time>
      </trkpt>
      <trkpt lat="47.84186" lon="6.83367">
        <ele>790</ele>
        <time>2023-08-03T16:33:21.000Z</time>
      </trkpt>
      <trkpt lat="47.84186" lon="6.83381">
        <ele>788.79998779297</ele>
        <time>2023-08-03T16:33:22.000Z</time>
      </trkpt>
      <trkpt lat="47.84184" lon="6.83395">
        <ele>788.20001220703</ele>
        <time>2023-08-03T16:33:23.000Z</time>
      </trkpt>
      <trkpt lat="47.84182" lon="6.8341">
        <ele>787.59997558594</ele>
        <time>2023-08-03T16:33:24.000Z</time>
      </trkpt>
      <trkpt lat="47.84176" lon="6.83438">
        <ele>786.40002441406</ele>
        <time>2023-08-03T16:33:26.000Z</time>
      </trkpt>
      <trkpt lat="47.8417" lon="6.83468">
        <ele>785.40002441406</ele>
        <time>2023-08-03T16:33:28.000Z</time>
      </trkpt>
      <trkpt lat="47.84168" lon="6.83483">
        <ele>784.20001220703</ele>
        <time>2023-08-03T16:33:29.000Z</time>
      </trkpt>
      <trkpt lat="47.84166" lon="6.83498">
        <ele>783.20001220703</ele>
        <time>2023-08-03T16:33:30.000Z</time>
      </trkpt>
      <trkpt lat="47.84161" lon="6.83528">
        <ele>782.20001220703</ele>
        <time>2023-08-03T16:33:32.000Z</time>
      </trkpt>
      <trkpt lat="47.84157" lon="6.83556">
        <ele>780.59997558594</ele>
        <time>2023-08-03T16:33:34.000Z</time>
      </trkpt>
      <trkpt lat="47.84155" lon="6.83569">
        <ele>779.40002441406</ele>
        <time>2023-08-03T16:33:35.000Z</time>
      </trkpt>
      <trkpt lat="47.84155" lon="6.83582">
        <ele>778.79998779297</ele>
        <time>2023-08-03T16:33:36.000Z</time>
      </trkpt>
      <trkpt lat="47.84156" lon="6.83593">
        <ele>777.79998779297</ele>
        <time>2023-08-03T16:33:37.000Z</time>
      </trkpt>
      <trkpt lat="47.84158" lon="6.83602">
        <ele>777.59997558594</ele>
        <time>2023-08-03T16:33:38.000Z</time>
      </trkpt>
      <trkpt lat="47.84162" lon="6.8361">
        <ele>776.40002441406</ele>
        <time>2023-08-03T16:33:39.000Z</time>
      </trkpt>
      <trkpt lat="47.84168" lon="6.83616">
        <ele>775.79998779297</ele>
        <time>2023-08-03T16:33:40.000Z</time>
      </trkpt>
      <trkpt lat="47.84175" lon="6.83617">
        <ele>775.40002441406</ele>
        <time>2023-08-03T16:33:41.000Z</time>
      </trkpt>
      <trkpt lat="47.84182" lon="6.83614">
        <ele>774.79998779297</ele>
        <time>2023-08-03T16:33:42.000Z</time>
      </trkpt>
      <trkpt lat="47.84198" lon="6.83602">
        <ele>774</ele>
        <time>2023-08-03T16:33:44.000Z</time>
      </trkpt>
      <trkpt lat="47.84216" lon="6.83587">
        <ele>773.20001220703</ele>
        <time>2023-08-03T16:33:46.000Z</time>
      </trkpt>
      <trkpt lat="47.84224" lon="6.83578">
        <ele>772.40002441406</ele>
        <time>2023-08-03T16:33:47.000Z</time>
      </trkpt>
      <trkpt lat="47.84233" lon="6.83569">
        <ele>772</ele>
        <time>2023-08-03T16:33:48.000Z</time>
      </trkpt>
      <trkpt lat="47.84241" lon="6.83558">
        <ele>771.20001220703</ele>
        <time>2023-08-03T16:33:49.000Z</time>
      </trkpt>
      <trkpt lat="47.84256" lon="6.83533">
        <ele>770</ele>
        <time>2023-08-03T16:33:51.000Z</time>
      </trkpt>
      <trkpt lat="47.84263" lon="6.83521">
        <ele>769</ele>
        <time>2023-08-03T16:33:52.000Z</time>
      </trkpt>
      <trkpt lat="47.84271" lon="6.8351">
        <ele>768.40002441406</ele>
        <time>2023-08-03T16:33:53.000Z</time>
      </trkpt>
      <trkpt lat="47.84279" lon="6.83499">
        <ele>767.40002441406</ele>
        <time>2023-08-03T16:33:54.000Z</time>
      </trkpt>
      <trkpt lat="47.84295" lon="6.83482">
        <ele>766</ele>
        <time>2023-08-03T16:33:56.000Z</time>
      </trkpt>
      <trkpt lat="47.84304" lon="6.83473">
        <ele>765.20001220703</ele>
        <time>2023-08-03T16:33:57.000Z</time>
      </trkpt>
      <trkpt lat="47.84312" lon="6.83464">
        <ele>764.59997558594</ele>
        <time>2023-08-03T16:33:58.000Z</time>
      </trkpt>
      <trkpt lat="47.84319" lon="6.83454">
        <ele>763.59997558594</ele>
        <time>2023-08-03T16:33:59.000Z</time>
      </trkpt>
      <trkpt lat="47.84336" lon="6.83437">
        <ele>762</ele>
        <time>2023-08-03T16:34:01.000Z</time>
      </trkpt>
      <trkpt lat="47.84346" lon="6.83432">
        <ele>760.59997558594</ele>
        <time>2023-08-03T16:34:02.000Z</time>
      </trkpt>
      <trkpt lat="47.84365" lon="6.83424">
        <ele>759.20001220703</ele>
        <time>2023-08-03T16:34:04.000Z</time>
      </trkpt>
      <trkpt lat="47.84387" lon="6.83416">
        <ele>757.59997558594</ele>
        <time>2023-08-03T16:34:06.000Z</time>
      </trkpt>
      <trkpt lat="47.84395" lon="6.83413">
        <ele>756.79998779297</ele>
        <time>2023-08-03T16:34:07.000Z</time>
      </trkpt>
      <trkpt lat="47.84408" lon="6.83408">
        <ele>756.40002441406</ele>
        <time>2023-08-03T16:34:08.000Z</time>
      </trkpt>
      <trkpt lat="47.84418" lon="6.83402">
        <ele>755.40002441406</ele>
        <time>2023-08-03T16:34:09.000Z</time>
      </trkpt>
      <trkpt lat="47.84429" lon="6.83394">
        <ele>754.59997558594</ele>
        <time>2023-08-03T16:34:10.000Z</time>
      </trkpt>
      <trkpt lat="47.84439" lon="6.83386">
        <ele>753.79998779297</ele>
        <time>2023-08-03T16:34:11.000Z</time>
      </trkpt>
      <trkpt lat="47.84448" lon="6.83379">
        <ele>753.40002441406</ele>
        <time>2023-08-03T16:34:12.000Z</time>
      </trkpt>
      <trkpt lat="47.84467" lon="6.83363">
        <ele>751.40002441406</ele>
        <time>2023-08-03T16:34:14.000Z</time>
      </trkpt>
      <trkpt lat="47.84475" lon="6.83354">
        <ele>751</ele>
        <time>2023-08-03T16:34:15.000Z</time>
      </trkpt>
      <trkpt lat="47.84483" lon="6.83345">
        <ele>749.79998779297</ele>
        <time>2023-08-03T16:34:16.000Z</time>
      </trkpt>
      <trkpt lat="47.845" lon="6.83329">
        <ele>748.59997558594</ele>
        <time>2023-08-03T16:34:18.000Z</time>
      </trkpt>
      <trkpt lat="47.8451" lon="6.83321">
        <ele>747.59997558594</ele>
        <time>2023-08-03T16:34:19.000Z</time>
      </trkpt>
      <trkpt lat="47.8452" lon="6.83316">
        <ele>747.20001220703</ele>
        <time>2023-08-03T16:34:20.000Z</time>
      </trkpt>
      <trkpt lat="47.84529" lon="6.8331">
        <ele>746</ele>
        <time>2023-08-03T16:34:21.000Z</time>
      </trkpt>
      <trkpt lat="47.84548" lon="6.83299">
        <ele>744</ele>
        <time>2023-08-03T16:34:23.000Z</time>
      </trkpt>
      <trkpt lat="47.84557" lon="6.83293">
        <ele>743.20001220703</ele>
        <time>2023-08-03T16:34:24.000Z</time>
      </trkpt>
      <trkpt lat="47.84566" lon="6.83285">
        <ele>742.40002441406</ele>
        <time>2023-08-03T16:34:25.000Z</time>
      </trkpt>
      <trkpt lat="47.84575" lon="6.83278">
        <ele>741.59997558594</ele>
        <time>2023-08-03T16:34:26.000Z</time>
      </trkpt>
      <trkpt lat="47.84585" lon="6.83272">
        <ele>741</ele>
        <time>2023-08-03T16:34:27.000Z</time>
      </trkpt>
      <trkpt lat="47.84594" lon="6.83266">
        <ele>740</ele>
        <time>2023-08-03T16:34:28.000Z</time>
      </trkpt>
      <trkpt lat="47.84604" lon="6.83262">
        <ele>739.40002441406</ele>
        <time>2023-08-03T16:34:29.000Z</time>
      </trkpt>
      <trkpt lat="47.84614" lon="6.8326">
        <ele>738.40002441406</ele>
        <time>2023-08-03T16:34:30.000Z</time>
      </trkpt>
      <trkpt lat="47.84625" lon="6.83257">
        <ele>737.40002441406</ele>
        <time>2023-08-03T16:34:31.000Z</time>
      </trkpt>
      <trkpt lat="47.84647" lon="6.83251">
        <ele>735.79998779297</ele>
        <time>2023-08-03T16:34:33.000Z</time>
      </trkpt>
      <trkpt lat="47.84669" lon="6.83248">
        <ele>734</ele>
        <time>2023-08-03T16:34:35.000Z</time>
      </trkpt>
      <trkpt lat="47.8469" lon="6.83243">
        <ele>732.40002441406</ele>
        <time>2023-08-03T16:34:37.000Z</time>
      </trkpt>
      <trkpt lat="47.84701" lon="6.83241">
        <ele>731.40002441406</ele>
        <time>2023-08-03T16:34:38.000Z</time>
      </trkpt>
      <trkpt lat="47.84723" lon="6.83239">
        <ele>729.59997558594</ele>
        <time>2023-08-03T16:34:40.000Z</time>
      </trkpt>
      <trkpt lat="47.84734" lon="6.83237">
        <ele>728.40002441406</ele>
        <time>2023-08-03T16:34:41.000Z</time>
      </trkpt>
      <trkpt lat="47.84743" lon="6.83235">
        <ele>728</ele>
        <time>2023-08-03T16:34:42.000Z</time>
      </trkpt>
      <trkpt lat="47.84754" lon="6.83233">
        <ele>727</ele>
        <time>2023-08-03T16:34:43.000Z</time>
      </trkpt>
      <trkpt lat="47.84774" lon="6.83226">
        <ele>725.59997558594</ele>
        <time>2023-08-03T16:34:45.000Z</time>
      </trkpt>
      <trkpt lat="47.84794" lon="6.83218">
        <ele>724.20001220703</ele>
        <time>2023-08-03T16:34:47.000Z</time>
      </trkpt>
      <trkpt lat="47.84804" lon="6.83213">
        <ele>722.79998779297</ele>
        <time>2023-08-03T16:34:48.000Z</time>
      </trkpt>
      <trkpt lat="47.84825" lon="6.83202">
        <ele>721.40002441406</ele>
        <time>2023-08-03T16:34:50.000Z</time>
      </trkpt>
      <trkpt lat="47.84845" lon="6.8319">
        <ele>720.20001220703</ele>
        <time>2023-08-03T16:34:52.000Z</time>
      </trkpt>
      <trkpt lat="47.84854" lon="6.83184">
        <ele>719.40002441406</ele>
        <time>2023-08-03T16:34:53.000Z</time>
      </trkpt>
      <trkpt lat="47.84863" lon="6.83177">
        <ele>718.79998779297</ele>
        <time>2023-08-03T16:34:54.000Z</time>
      </trkpt>
      <trkpt lat="47.84873" lon="6.83167">
        <ele>717.59997558594</ele>
        <time>2023-08-03T16:34:55.000Z</time>
      </trkpt>
      <trkpt lat="47.84886" lon="6.83146">
        <ele>715.79998779297</ele>
        <time>2023-08-03T16:34:57.000Z</time>
      </trkpt>
      <trkpt lat="47.84893" lon="6.83134">
        <ele>714.59997558594</ele>
        <time>2023-08-03T16:34:58.000Z</time>
      </trkpt>
      <trkpt lat="47.84908" lon="6.8311">
        <ele>713.20001220703</ele>
        <time>2023-08-03T16:35:00.000Z</time>
      </trkpt>
      <trkpt lat="47.84923" lon="6.83087">
        <ele>711.59997558594</ele>
        <time>2023-08-03T16:35:02.000Z</time>
      </trkpt>
      <trkpt lat="47.84936" lon="6.83063">
        <ele>710</ele>
        <time>2023-08-03T16:35:04.000Z</time>
      </trkpt>
      <trkpt lat="47.84942" lon="6.8305">
        <ele>709</ele>
        <time>2023-08-03T16:35:05.000Z</time>
      </trkpt>
      <trkpt lat="47.84953" lon="6.83024">
        <ele>707.20001220703</ele>
        <time>2023-08-03T16:35:07.000Z</time>
      </trkpt>
      <trkpt lat="47.84958" lon="6.8301">
        <ele>706.20001220703</ele>
        <time>2023-08-03T16:35:08.000Z</time>
      </trkpt>
      <trkpt lat="47.84964" lon="6.82997">
        <ele>705.59997558594</ele>
        <time>2023-08-03T16:35:09.000Z</time>
      </trkpt>
      <trkpt lat="47.84964" lon="6.82997">
        <ele>704.40002441406</ele>
        <time>2023-08-03T16:35:10.000Z</time>
      </trkpt>
      <trkpt lat="47.84981" lon="6.82956">
        <ele>703</ele>
        <time>2023-08-03T16:35:12.000Z</time>
      </trkpt>
      <trkpt lat="47.8499" lon="6.8293">
        <ele>701.40002441406</ele>
        <time>2023-08-03T16:35:14.000Z</time>
      </trkpt>
      <trkpt lat="47.84999" lon="6.82903">
        <ele>700</ele>
        <time>2023-08-03T16:35:16.000Z</time>
      </trkpt>
      <trkpt lat="47.85004" lon="6.8289">
        <ele>699</ele>
        <time>2023-08-03T16:35:17.000Z</time>
      </trkpt>
      <trkpt lat="47.85009" lon="6.82879">
        <ele>698.59997558594</ele>
        <time>2023-08-03T16:35:18.000Z</time>
      </trkpt>
      <trkpt lat="47.85014" lon="6.82869">
        <ele>697.59997558594</ele>
        <time>2023-08-03T16:35:19.000Z</time>
      </trkpt>
      <trkpt lat="47.85021" lon="6.82862">
        <ele>696.79998779297</ele>
        <time>2023-08-03T16:35:20.000Z</time>
      </trkpt>
      <trkpt lat="47.85028" lon="6.82856">
        <ele>696.40002441406</ele>
        <time>2023-08-03T16:35:21.000Z</time>
      </trkpt>
      <trkpt lat="47.85037" lon="6.82853">
        <ele>695</ele>
        <time>2023-08-03T16:35:22.000Z</time>
      </trkpt>
      <trkpt lat="47.85046" lon="6.82852">
        <ele>694.79998779297</ele>
        <time>2023-08-03T16:35:23.000Z</time>
      </trkpt>
      <trkpt lat="47.85055" lon="6.82849">
        <ele>693.79998779297</ele>
        <time>2023-08-03T16:35:24.000Z</time>
      </trkpt>
      <trkpt lat="47.85064" lon="6.82846">
        <ele>692.40002441406</ele>
        <time>2023-08-03T16:35:25.000Z</time>
      </trkpt>
      <trkpt lat="47.85073" lon="6.8284">
        <ele>692</ele>
        <time>2023-08-03T16:35:26.000Z</time>
      </trkpt>
      <trkpt lat="47.85082" lon="6.82833">
        <ele>691</ele>
        <time>2023-08-03T16:35:27.000Z</time>
      </trkpt>
      <trkpt lat="47.851" lon="6.82818">
        <ele>689.79998779297</ele>
        <time>2023-08-03T16:35:29.000Z</time>
      </trkpt>
      <trkpt lat="47.8511" lon="6.82812">
        <ele>689.40002441406</ele>
        <time>2023-08-03T16:35:30.000Z</time>
      </trkpt>
      <trkpt lat="47.8512" lon="6.82806">
        <ele>688.59997558594</ele>
        <time>2023-08-03T16:35:31.000Z</time>
      </trkpt>
      <trkpt lat="47.85141" lon="6.82798">
        <ele>687.20001220703</ele>
        <time>2023-08-03T16:35:33.000Z</time>
      </trkpt>
      <trkpt lat="47.85162" lon="6.82792">
        <ele>686.20001220703</ele>
        <time>2023-08-03T16:35:35.000Z</time>
      </trkpt>
      <trkpt lat="47.85181" lon="6.82785">
        <ele>684</ele>
        <time>2023-08-03T16:35:37.000Z</time>
      </trkpt>
      <trkpt lat="47.852" lon="6.82779">
        <ele>682.79998779297</ele>
        <time>2023-08-03T16:35:39.000Z</time>
      </trkpt>
      <trkpt lat="47.85216" lon="6.82776">
        <ele>681</ele>
        <time>2023-08-03T16:35:41.000Z</time>
      </trkpt>
      <trkpt lat="47.85216" lon="6.82776">
        <ele>680</ele>
        <time>2023-08-03T16:35:42.000Z</time>
      </trkpt>
      <trkpt lat="47.85233" lon="6.82781">
        <ele>679.59997558594</ele>
        <time>2023-08-03T16:35:43.000Z</time>
      </trkpt>
      <trkpt lat="47.85239" lon="6.82788">
        <ele>678.79998779297</ele>
        <time>2023-08-03T16:35:44.000Z</time>
      </trkpt>
      <trkpt lat="47.85244" lon="6.82798">
        <ele>678.40002441406</ele>
        <time>2023-08-03T16:35:45.000Z</time>
      </trkpt>
      <trkpt lat="47.85247" lon="6.8281">
        <ele>677.79998779297</ele>
        <time>2023-08-03T16:35:46.000Z</time>
      </trkpt>
      <trkpt lat="47.85249" lon="6.82822">
        <ele>677.40002441406</ele>
        <time>2023-08-03T16:35:47.000Z</time>
      </trkpt>
      <trkpt lat="47.85252" lon="6.82835">
        <ele>676.59997558594</ele>
        <time>2023-08-03T16:35:48.000Z</time>
      </trkpt>
      <trkpt lat="47.85255" lon="6.82848">
        <ele>676</ele>
        <time>2023-08-03T16:35:49.000Z</time>
      </trkpt>
      <trkpt lat="47.85263" lon="6.82873">
        <ele>674.79998779297</ele>
        <time>2023-08-03T16:35:51.000Z</time>
      </trkpt>
      <trkpt lat="47.85267" lon="6.82885">
        <ele>674.20001220703</ele>
        <time>2023-08-03T16:35:52.000Z</time>
      </trkpt>
      <trkpt lat="47.85271" lon="6.82898">
        <ele>673.40002441406</ele>
        <time>2023-08-03T16:35:53.000Z</time>
      </trkpt>
      <trkpt lat="47.85277" lon="6.82923">
        <ele>672.40002441406</ele>
        <time>2023-08-03T16:35:55.000Z</time>
      </trkpt>
      <trkpt lat="47.85279" lon="6.82936">
        <ele>671.59997558594</ele>
        <time>2023-08-03T16:35:56.000Z</time>
      </trkpt>
      <trkpt lat="47.8528" lon="6.8295">
        <ele>671.20001220703</ele>
        <time>2023-08-03T16:35:57.000Z</time>
      </trkpt>
      <trkpt lat="47.8528" lon="6.82963">
        <ele>670.40002441406</ele>
        <time>2023-08-03T16:35:58.000Z</time>
      </trkpt>
      <trkpt lat="47.85279" lon="6.82987">
        <ele>669.20001220703</ele>
        <time>2023-08-03T16:36:00.000Z</time>
      </trkpt>
      <trkpt lat="47.85279" lon="6.82998">
        <ele>668.20001220703</ele>
        <time>2023-08-03T16:36:01.000Z</time>
      </trkpt>
      <trkpt lat="47.85283" lon="6.83017">
        <ele>667</ele>
        <time>2023-08-03T16:36:03.000Z</time>
      </trkpt>
      <trkpt lat="47.85295" lon="6.83022">
        <ele>666</ele>
        <time>2023-08-03T16:36:05.000Z</time>
      </trkpt>
      <trkpt lat="47.85301" lon="6.83017">
        <ele>665.40002441406</ele>
        <time>2023-08-03T16:36:06.000Z</time>
      </trkpt>
      <trkpt lat="47.85306" lon="6.83009">
        <ele>664.79998779297</ele>
        <time>2023-08-03T16:36:07.000Z</time>
      </trkpt>
      <trkpt lat="47.85311" lon="6.83">
        <ele>663.79998779297</ele>
        <time>2023-08-03T16:36:08.000Z</time>
      </trkpt>
      <trkpt lat="47.85323" lon="6.82981">
        <ele>662.59997558594</ele>
        <time>2023-08-03T16:36:10.000Z</time>
      </trkpt>
      <trkpt lat="47.85335" lon="6.82961">
        <ele>661.20001220703</ele>
        <time>2023-08-03T16:36:12.000Z</time>
      </trkpt>
      <trkpt lat="47.85341" lon="6.8295">
        <ele>660.20001220703</ele>
        <time>2023-08-03T16:36:13.000Z</time>
      </trkpt>
      <trkpt lat="47.85347" lon="6.8294">
        <ele>659.79998779297</ele>
        <time>2023-08-03T16:36:14.000Z</time>
      </trkpt>
      <trkpt lat="47.85353" lon="6.8293">
        <ele>659</ele>
        <time>2023-08-03T16:36:15.000Z</time>
      </trkpt>
      <trkpt lat="47.85366" lon="6.82911">
        <ele>658</ele>
        <time>2023-08-03T16:36:17.000Z</time>
      </trkpt>
      <trkpt lat="47.8538" lon="6.82892">
        <ele>656.59997558594</ele>
        <time>2023-08-03T16:36:19.000Z</time>
      </trkpt>
      <trkpt lat="47.85387" lon="6.82883">
        <ele>655.79998779297</ele>
        <time>2023-08-03T16:36:20.000Z</time>
      </trkpt>
      <trkpt lat="47.85387" lon="6.82883">
        <ele>654.79998779297</ele>
        <time>2023-08-03T16:36:21.000Z</time>
      </trkpt>
      <trkpt lat="47.85409" lon="6.82855">
        <ele>653.40002441406</ele>
        <time>2023-08-03T16:36:23.000Z</time>
      </trkpt>
      <trkpt lat="47.85432" lon="6.82828">
        <ele>652.20001220703</ele>
        <time>2023-08-03T16:36:26.000Z</time>
      </trkpt>
      <trkpt lat="47.85439" lon="6.82819">
        <ele>651.40002441406</ele>
        <time>2023-08-03T16:36:27.000Z</time>
      </trkpt>
      <trkpt lat="47.85446" lon="6.8281">
        <ele>650.79998779297</ele>
        <time>2023-08-03T16:36:28.000Z</time>
      </trkpt>
      <trkpt lat="47.85461" lon="6.82791">
        <ele>649.59997558594</ele>
        <time>2023-08-03T16:36:30.000Z</time>
      </trkpt>
      <trkpt lat="47.85472" lon="6.82769">
        <ele>647.79998779297</ele>
        <time>2023-08-03T16:36:32.000Z</time>
      </trkpt>
      <trkpt lat="47.85477" lon="6.82757">
        <ele>646.79998779297</ele>
        <time>2023-08-03T16:36:33.000Z</time>
      </trkpt>
      <trkpt lat="47.85487" lon="6.82731">
        <ele>645.59997558594</ele>
        <time>2023-08-03T16:36:35.000Z</time>
      </trkpt>
      <trkpt lat="47.85497" lon="6.82706">
        <ele>644.59997558594</ele>
        <time>2023-08-03T16:36:37.000Z</time>
      </trkpt>
      <trkpt lat="47.85507" lon="6.8268">
        <ele>643.20001220703</ele>
        <time>2023-08-03T16:36:39.000Z</time>
      </trkpt>
      <trkpt lat="47.85512" lon="6.82651">
        <ele>641.79998779297</ele>
        <time>2023-08-03T16:36:41.000Z</time>
      </trkpt>
      <trkpt lat="47.85513" lon="6.82636">
        <ele>641.20001220703</ele>
        <time>2023-08-03T16:36:42.000Z</time>
      </trkpt>
      <trkpt lat="47.85513" lon="6.82621">
        <ele>640.40002441406</ele>
        <time>2023-08-03T16:36:43.000Z</time>
      </trkpt>
      <trkpt lat="47.85512" lon="6.82589">
        <ele>638.59997558594</ele>
        <time>2023-08-03T16:36:45.000Z</time>
      </trkpt>
      <trkpt lat="47.85511" lon="6.82574">
        <ele>638</ele>
        <time>2023-08-03T16:36:46.000Z</time>
      </trkpt>
      <trkpt lat="47.85509" lon="6.8256">
        <ele>637.59997558594</ele>
        <time>2023-08-03T16:36:47.000Z</time>
      </trkpt>
      <trkpt lat="47.85504" lon="6.82534">
        <ele>635.79998779297</ele>
        <time>2023-08-03T16:36:49.000Z</time>
      </trkpt>
      <trkpt lat="47.85499" lon="6.82511">
        <ele>634.40002441406</ele>
        <time>2023-08-03T16:36:51.000Z</time>
      </trkpt>
      <trkpt lat="47.85498" lon="6.82502">
        <ele>633.40002441406</ele>
        <time>2023-08-03T16:36:52.000Z</time>
      </trkpt>
      <trkpt lat="47.85499" lon="6.82493">
        <ele>633</ele>
        <time>2023-08-03T16:36:53.000Z</time>
      </trkpt>
      <trkpt lat="47.85502" lon="6.82486">
        <ele>631.79998779297</ele>
        <time>2023-08-03T16:36:54.000Z</time>
      </trkpt>
      <trkpt lat="47.85506" lon="6.82482">
        <ele>631</ele>
        <time>2023-08-03T16:36:55.000Z</time>
      </trkpt>
      <trkpt lat="47.85512" lon="6.82484">
        <ele>630.59997558594</ele>
        <time>2023-08-03T16:36:56.000Z</time>
      </trkpt>
      <trkpt lat="47.85518" lon="6.82489">
        <ele>629.59997558594</ele>
        <time>2023-08-03T16:36:57.000Z</time>
      </trkpt>
      <trkpt lat="47.85523" lon="6.82497">
        <ele>629</ele>
        <time>2023-08-03T16:36:58.000Z</time>
      </trkpt>
      <trkpt lat="47.85528" lon="6.82506">
        <ele>628.40002441406</ele>
        <time>2023-08-03T16:36:59.000Z</time>
      </trkpt>
      <trkpt lat="47.85542" lon="6.82537">
        <ele>626.79998779297</ele>
        <time>2023-08-03T16:37:02.000Z</time>
      </trkpt>
      <trkpt lat="47.85551" lon="6.82557">
        <ele>625.79998779297</ele>
        <time>2023-08-03T16:37:04.000Z</time>
      </trkpt>
      <trkpt lat="47.8556" lon="6.82574">
        <ele>625</ele>
        <time>2023-08-03T16:37:06.000Z</time>
      </trkpt>
      <trkpt lat="47.85566" lon="6.82577">
        <ele>624.40002441406</ele>
        <time>2023-08-03T16:37:07.000Z</time>
      </trkpt>
      <trkpt lat="47.85573" lon="6.82575">
        <ele>624</ele>
        <time>2023-08-03T16:37:08.000Z</time>
      </trkpt>
      <trkpt lat="47.85577" lon="6.82569">
        <ele>623.40002441406</ele>
        <time>2023-08-03T16:37:09.000Z</time>
      </trkpt>
      <trkpt lat="47.85579" lon="6.82563">
        <ele>623</ele>
        <time>2023-08-03T16:37:10.000Z</time>
      </trkpt>
      <trkpt lat="47.85577" lon="6.82545">
        <ele>622</ele>
        <time>2023-08-03T16:37:12.000Z</time>
      </trkpt>
      <trkpt lat="47.85568" lon="6.82514">
        <ele>621.20001220703</ele>
        <time>2023-08-03T16:37:15.000Z</time>
      </trkpt>
      <trkpt lat="47.85561" lon="6.82492">
        <ele>620.40002441406</ele>
        <time>2023-08-03T16:37:17.000Z</time>
      </trkpt>
      <trkpt lat="47.85556" lon="6.82481">
        <ele>620</ele>
        <time>2023-08-03T16:37:18.000Z</time>
      </trkpt>
      <trkpt lat="47.85546" lon="6.82462">
        <ele>619</ele>
        <time>2023-08-03T16:37:20.000Z</time>
      </trkpt>
      <trkpt lat="47.8554" lon="6.82453">
        <ele>618.40002441406</ele>
        <time>2023-08-03T16:37:21.000Z</time>
      </trkpt>
      <trkpt lat="47.85533" lon="6.82443">
        <ele>617.79998779297</ele>
        <time>2023-08-03T16:37:22.000Z</time>
      </trkpt>
      <trkpt lat="47.85528" lon="6.82436">
        <ele>617</ele>
        <time>2023-08-03T16:37:23.000Z</time>
      </trkpt>
      <trkpt lat="47.85524" lon="6.82429">
        <ele>616.40002441406</ele>
        <time>2023-08-03T16:37:24.000Z</time>
      </trkpt>
      <trkpt lat="47.85523" lon="6.82423">
        <ele>616</ele>
        <time>2023-08-03T16:37:25.000Z</time>
      </trkpt>
      <trkpt lat="47.85523" lon="6.82415">
        <ele>615.20001220703</ele>
        <time>2023-08-03T16:37:26.000Z</time>
      </trkpt>
      <trkpt lat="47.85528" lon="6.8241">
        <ele>614.79998779297</ele>
        <time>2023-08-03T16:37:27.000Z</time>
      </trkpt>
      <trkpt lat="47.85541" lon="6.8241">
        <ele>613.59997558594</ele>
        <time>2023-08-03T16:37:29.000Z</time>
      </trkpt>
      <trkpt lat="47.85549" lon="6.82414">
        <ele>612.59997558594</ele>
        <time>2023-08-03T16:37:30.000Z</time>
      </trkpt>
      <trkpt lat="47.85557" lon="6.82418">
        <ele>611.79998779297</ele>
        <time>2023-08-03T16:37:31.000Z</time>
      </trkpt>
      <trkpt lat="47.85574" lon="6.82427">
        <ele>610.59997558594</ele>
        <time>2023-08-03T16:37:33.000Z</time>
      </trkpt>
      <trkpt lat="47.8559" lon="6.82436">
        <ele>609.79998779297</ele>
        <time>2023-08-03T16:37:35.000Z</time>
      </trkpt>
      <trkpt lat="47.85617" lon="6.82454">
        <ele>608.40002441406</ele>
        <time>2023-08-03T16:37:38.000Z</time>
      </trkpt>
      <trkpt lat="47.85627" lon="6.82461">
        <ele>607.79998779297</ele>
        <time>2023-08-03T16:37:39.000Z</time>
      </trkpt>
      <trkpt lat="47.85633" lon="6.82468">
        <ele>607</ele>
        <time>2023-08-03T16:37:40.000Z</time>
      </trkpt>
      <trkpt lat="47.85642" lon="6.82479">
        <ele>606.59997558594</ele>
        <time>2023-08-03T16:37:41.000Z</time>
      </trkpt>
      <trkpt lat="47.85652" lon="6.825">
        <ele>605.20001220703</ele>
        <time>2023-08-03T16:37:43.000Z</time>
      </trkpt>
      <trkpt lat="47.85668" lon="6.82525">
        <ele>604</ele>
        <time>2023-08-03T16:37:46.000Z</time>
      </trkpt>
      <trkpt lat="47.85673" lon="6.82531">
        <ele>602.79998779297</ele>
        <time>2023-08-03T16:37:47.000Z</time>
      </trkpt>
      <trkpt lat="47.85679" lon="6.82533">
        <ele>601.79998779297</ele>
        <time>2023-08-03T16:37:48.000Z</time>
      </trkpt>
      <trkpt lat="47.85684" lon="6.82525">
        <ele>601.40002441406</ele>
        <time>2023-08-03T16:37:49.000Z</time>
      </trkpt>
      <trkpt lat="47.85687" lon="6.82519">
        <ele>600.59997558594</ele>
        <time>2023-08-03T16:37:50.000Z</time>
      </trkpt>
      <trkpt lat="47.85688" lon="6.82514">
        <ele>600.20001220703</ele>
        <time>2023-08-03T16:37:51.000Z</time>
      </trkpt>
      <trkpt lat="47.85689" lon="6.82507">
        <ele>599.40002441406</ele>
        <time>2023-08-03T16:37:52.000Z</time>
      </trkpt>
      <trkpt lat="47.85691" lon="6.825">
        <ele>598.20001220703</ele>
        <time>2023-08-03T16:37:54.000Z</time>
      </trkpt>
      <trkpt lat="47.85691" lon="6.82499">
        <ele>597.40002441406</ele>
        <time>2023-08-03T16:37:56.000Z</time>
      </trkpt>
      <trkpt lat="47.85691" lon="6.82499">
        <ele>597</ele>
        <time>2023-08-03T16:37:57.000Z</time>
      </trkpt>
      <trkpt lat="47.85691" lon="6.82499">
        <ele>596.79998779297</ele>
        <time>2023-08-03T16:37:58.000Z</time>
      </trkpt>
      <trkpt lat="47.85691" lon="6.82487">
        <ele>594.40002441406</ele>
        <time>2023-08-03T16:48:34.000Z</time>
      </trkpt>
      <trkpt lat="47.8569" lon="6.82484">
        <ele>594.40002441406</ele>
        <time>2023-08-03T16:48:35.000Z</time>
      </trkpt>
      <trkpt lat="47.85683" lon="6.82452">
        <ele>593.79998779297</ele>
        <time>2023-08-03T16:48:41.000Z</time>
      </trkpt>
      <trkpt lat="47.8568" lon="6.82436">
        <ele>593.40002441406</ele>
        <time>2023-08-03T16:48:43.000Z</time>
      </trkpt>
      <trkpt lat="47.85676" lon="6.82418">
        <ele>593</ele>
        <time>2023-08-03T16:48:45.000Z</time>
      </trkpt>
      <trkpt lat="47.85673" lon="6.8241">
        <ele>592.79998779297</ele>
        <time>2023-08-03T16:48:46.000Z</time>
      </trkpt>
      <trkpt lat="47.85669" lon="6.82401">
        <ele>592.79998779297</ele>
        <time>2023-08-03T16:48:47.000Z</time>
      </trkpt>
      <trkpt lat="47.85665" lon="6.82395">
        <ele>592.40002441406</ele>
        <time>2023-08-03T16:48:48.000Z</time>
      </trkpt>
      <trkpt lat="47.85652" lon="6.82378">
        <ele>591.59997558594</ele>
        <time>2023-08-03T16:48:50.000Z</time>
      </trkpt>
      <trkpt lat="47.85646" lon="6.82372">
        <ele>591.20001220703</ele>
        <time>2023-08-03T16:48:51.000Z</time>
      </trkpt>
      <trkpt lat="47.85625" lon="6.82349">
        <ele>590.20001220703</ele>
        <time>2023-08-03T16:48:54.000Z</time>
      </trkpt>
      <trkpt lat="47.85609" lon="6.82334">
        <ele>589.59997558594</ele>
        <time>2023-08-03T16:48:56.000Z</time>
      </trkpt>
      <trkpt lat="47.856" lon="6.82327">
        <ele>589.20001220703</ele>
        <time>2023-08-03T16:48:57.000Z</time>
      </trkpt>
      <trkpt lat="47.85584" lon="6.8231">
        <ele>587.79998779297</ele>
        <time>2023-08-03T16:48:59.000Z</time>
      </trkpt>
      <trkpt lat="47.85568" lon="6.82294">
        <ele>586.59997558594</ele>
        <time>2023-08-03T16:49:01.000Z</time>
      </trkpt>
      <trkpt lat="47.8556" lon="6.82286">
        <ele>585.79998779297</ele>
        <time>2023-08-03T16:49:02.000Z</time>
      </trkpt>
      <trkpt lat="47.85552" lon="6.82278">
        <ele>585.59997558594</ele>
        <time>2023-08-03T16:49:03.000Z</time>
      </trkpt>
      <trkpt lat="47.85545" lon="6.8227">
        <ele>584.79998779297</ele>
        <time>2023-08-03T16:49:04.000Z</time>
      </trkpt>
      <trkpt lat="47.85538" lon="6.82262">
        <ele>584</ele>
        <time>2023-08-03T16:49:05.000Z</time>
      </trkpt>
      <trkpt lat="47.85534" lon="6.82251">
        <ele>583.79998779297</ele>
        <time>2023-08-03T16:49:06.000Z</time>
      </trkpt>
      <trkpt lat="47.85531" lon="6.82227">
        <ele>582.59997558594</ele>
        <time>2023-08-03T16:49:08.000Z</time>
      </trkpt>
      <trkpt lat="47.85532" lon="6.82215">
        <ele>581.59997558594</ele>
        <time>2023-08-03T16:49:09.000Z</time>
      </trkpt>
      <trkpt lat="47.85536" lon="6.8219">
        <ele>580.20001220703</ele>
        <time>2023-08-03T16:49:11.000Z</time>
      </trkpt>
      <trkpt lat="47.85535" lon="6.82165">
        <ele>578.79998779297</ele>
        <time>2023-08-03T16:49:13.000Z</time>
      </trkpt>
      <trkpt lat="47.85531" lon="6.82141">
        <ele>577.79998779297</ele>
        <time>2023-08-03T16:49:15.000Z</time>
      </trkpt>
      <trkpt lat="47.85528" lon="6.82116">
        <ele>576.79998779297</ele>
        <time>2023-08-03T16:49:17.000Z</time>
      </trkpt>
      <trkpt lat="47.85527" lon="6.82106">
        <ele>576.20001220703</ele>
        <time>2023-08-03T16:49:18.000Z</time>
      </trkpt>
      <trkpt lat="47.85527" lon="6.8209">
        <ele>575.40002441406</ele>
        <time>2023-08-03T16:49:19.000Z</time>
      </trkpt>
      <trkpt lat="47.85527" lon="6.82064">
        <ele>574.40002441406</ele>
        <time>2023-08-03T16:49:21.000Z</time>
      </trkpt>
      <trkpt lat="47.85527" lon="6.82029">
        <ele>573</ele>
        <time>2023-08-03T16:49:24.000Z</time>
      </trkpt>
      <trkpt lat="47.85528" lon="6.81999">
        <ele>572.20001220703</ele>
        <time>2023-08-03T16:49:27.000Z</time>
      </trkpt>
      <trkpt lat="47.85529" lon="6.81993">
        <ele>571.79998779297</ele>
        <time>2023-08-03T16:49:28.000Z</time>
      </trkpt>
      <trkpt lat="47.85532" lon="6.81984">
        <ele>571.20001220703</ele>
        <time>2023-08-03T16:49:30.000Z</time>
      </trkpt>
      <trkpt lat="47.85533" lon="6.81981">
        <ele>570.59997558594</ele>
        <time>2023-08-03T16:49:31.000Z</time>
      </trkpt>
      <trkpt lat="47.85537" lon="6.81975">
        <ele>570</ele>
        <time>2023-08-03T16:49:34.000Z</time>
      </trkpt>
      <trkpt lat="47.85538" lon="6.81975">
        <ele>569.59997558594</ele>
        <time>2023-08-03T16:49:35.000Z</time>
      </trkpt>
      <trkpt lat="47.85538" lon="6.81975">
        <ele>569.40002441406</ele>
        <time>2023-08-03T16:49:37.000Z</time>
      </trkpt>
      <trkpt lat="47.85542" lon="6.81976">
        <ele>568.79998779297</ele>
        <time>2023-08-03T16:49:44.000Z</time>
      </trkpt>
      <trkpt lat="47.85544" lon="6.81978">
        <ele>568.79998779297</ele>
        <time>2023-08-03T16:49:45.000Z</time>
      </trkpt>
      <trkpt lat="47.85555" lon="6.81993">
        <ele>568.59997558594</ele>
        <time>2023-08-03T16:49:51.000Z</time>
      </trkpt>
      <trkpt lat="47.85566" lon="6.82005">
        <ele>568.59997558594</ele>
        <time>2023-08-03T16:49:57.000Z</time>
      </trkpt>
      <trkpt lat="47.85566" lon="6.82005">
        <ele>568.59997558594</ele>
        <time>2023-08-03T16:49:58.000Z</time>
      </trkpt>
      <trkpt lat="47.85566" lon="6.82005">
        <ele>568.59997558594</ele>
        <time>2023-08-03T16:49:59.000Z</time>
      </trkpt>
      <trkpt lat="47.85571" lon="6.82009">
        <ele>568.79998779297</ele>
        <time>2023-08-03T16:50:04.000Z</time>
      </trkpt>
      <trkpt lat="47.85574" lon="6.82012">
        <ele>568.79998779297</ele>
        <time>2023-08-03T16:50:06.000Z</time>
      </trkpt>
      <trkpt lat="47.85577" lon="6.82013">
        <ele>568.79998779297</ele>
        <time>2023-08-03T16:50:07.000Z</time>
      </trkpt>
      <trkpt lat="47.8558" lon="6.82011">
        <ele>568.79998779297</ele>
        <time>2023-08-03T16:50:08.000Z</time>
      </trkpt>
      <trkpt lat="47.85584" lon="6.82006">
        <ele>569.20001220703</ele>
        <time>2023-08-03T16:50:11.000Z</time>
      </trkpt>
      <trkpt lat="47.85586" lon="6.82004">
        <ele>569</ele>
        <time>2023-08-03T16:50:16.000Z</time>
      </trkpt>
      <trkpt lat="47.85589" lon="6.8201">
        <ele>569.20001220703</ele>
        <time>2023-08-03T16:58:00.000Z</time>
      </trkpt>
      <trkpt lat="47.85587" lon="6.8201">
        <ele>569.20001220703</ele>
        <time>2023-08-03T16:58:02.000Z</time>
      </trkpt>
      <trkpt lat="47.85585" lon="6.8201">
        <ele>569.20001220703</ele>
        <time>2023-08-03T16:58:05.000Z</time>
      </trkpt>
      <trkpt lat="47.85582" lon="6.82009">
        <ele>569.20001220703</ele>
        <time>2023-08-03T16:58:07.000Z</time>
      </trkpt>
      <trkpt lat="47.85569" lon="6.81995">
        <ele>569</ele>
        <time>2023-08-03T16:58:11.000Z</time>
      </trkpt>
      <trkpt lat="47.85544" lon="6.81966">
        <ele>568.79998779297</ele>
        <time>2023-08-03T16:58:16.000Z</time>
      </trkpt>
      <trkpt lat="47.8551" lon="6.81921">
        <ele>568.40002441406</ele>
        <time>2023-08-03T16:58:23.000Z</time>
      </trkpt>
      <trkpt lat="47.85499" lon="6.81908">
        <ele>568.20001220703</ele>
        <time>2023-08-03T16:58:25.000Z</time>
      </trkpt>
      <trkpt lat="47.85466" lon="6.81867">
        <ele>567.20001220703</ele>
        <time>2023-08-03T16:58:31.000Z</time>
      </trkpt>
      <trkpt lat="47.85461" lon="6.8186">
        <ele>567</ele>
        <time>2023-08-03T16:58:32.000Z</time>
      </trkpt>
      <trkpt lat="47.85434" lon="6.81821">
        <ele>566.79998779297</ele>
        <time>2023-08-03T16:58:38.000Z</time>
      </trkpt>
      <trkpt lat="47.85411" lon="6.8177">
        <ele>568</ele>
        <time>2023-08-03T16:58:45.000Z</time>
      </trkpt>
      <trkpt lat="47.85395" lon="6.81713">
        <ele>568.20001220703</ele>
        <time>2023-08-03T16:58:52.000Z</time>
      </trkpt>
      <trkpt lat="47.8539" lon="6.81668">
        <ele>567.79998779297</ele>
        <time>2023-08-03T16:58:57.000Z</time>
      </trkpt>
      <trkpt lat="47.8539" lon="6.81658">
        <ele>567.79998779297</ele>
        <time>2023-08-03T16:58:58.000Z</time>
      </trkpt>
      <trkpt lat="47.85393" lon="6.81597">
        <ele>566.59997558594</ele>
        <time>2023-08-03T16:59:04.000Z</time>
      </trkpt>
      <trkpt lat="47.85396" lon="6.81578">
        <ele>566.20001220703</ele>
        <time>2023-08-03T16:59:06.000Z</time>
      </trkpt>
      <trkpt lat="47.85399" lon="6.81556">
        <ele>565.40002441406</ele>
        <time>2023-08-03T16:59:09.000Z</time>
      </trkpt>
      <trkpt lat="47.85398" lon="6.81546">
        <ele>565</ele>
        <time>2023-08-03T16:59:11.000Z</time>
      </trkpt>
      <trkpt lat="47.85396" lon="6.81544">
        <ele>564.79998779297</ele>
        <time>2023-08-03T16:59:12.000Z</time>
      </trkpt>
      <trkpt lat="47.85396" lon="6.81531">
        <ele>564.20001220703</ele>
        <time>2023-08-03T16:59:16.000Z</time>
      </trkpt>
      <trkpt lat="47.85397" lon="6.81523">
        <ele>564</ele>
        <time>2023-08-03T16:59:18.000Z</time>
      </trkpt>
      <trkpt lat="47.85402" lon="6.81511">
        <ele>564</ele>
        <time>2023-08-03T16:59:21.000Z</time>
      </trkpt>
      <trkpt lat="47.85405" lon="6.81501">
        <ele>563.79998779297</ele>
        <time>2023-08-03T16:59:23.000Z</time>
      </trkpt>
      <trkpt lat="47.85402" lon="6.81491">
        <ele>563.79998779297</ele>
        <time>2023-08-03T16:59:25.000Z</time>
      </trkpt>
      <trkpt lat="47.85387" lon="6.81478">
        <ele>563.20001220703</ele>
        <time>2023-08-03T16:59:29.000Z</time>
      </trkpt>
      <trkpt lat="47.85383" lon="6.81475">
        <ele>563.20001220703</ele>
        <time>2023-08-03T16:59:30.000Z</time>
      </trkpt>
      <trkpt lat="47.85378" lon="6.8147">
        <ele>563</ele>
        <time>2023-08-03T16:59:32.000Z</time>
      </trkpt>
      <trkpt lat="47.85377" lon="6.81465">
        <ele>562.79998779297</ele>
        <time>2023-08-03T16:59:33.000Z</time>
      </trkpt>
      <trkpt lat="47.85376" lon="6.81453">
        <ele>562.59997558594</ele>
        <time>2023-08-03T16:59:35.000Z</time>
      </trkpt>
      <trkpt lat="47.85374" lon="6.81431">
        <ele>562.59997558594</ele>
        <time>2023-08-03T16:59:38.000Z</time>
      </trkpt>
      <trkpt lat="47.85368" lon="6.81378">
        <ele>562.40002441406</ele>
        <time>2023-08-03T16:59:44.000Z</time>
      </trkpt>
      <trkpt lat="47.85363" lon="6.8133">
        <ele>562</ele>
        <time>2023-08-03T16:59:49.000Z</time>
      </trkpt>
      <trkpt lat="47.85358" lon="6.81296">
        <ele>561.59997558594</ele>
        <time>2023-08-03T16:59:53.000Z</time>
      </trkpt>
      <trkpt lat="47.85357" lon="6.81274">
        <ele>561.20001220703</ele>
        <time>2023-08-03T16:59:57.000Z</time>
      </trkpt>
      <trkpt lat="47.85356" lon="6.81269">
        <ele>561</ele>
        <time>2023-08-03T16:59:58.000Z</time>
      </trkpt>
      <trkpt lat="47.85354" lon="6.81256">
        <ele>560.79998779297</ele>
        <time>2023-08-03T17:00:00.000Z</time>
      </trkpt>
      <trkpt lat="47.85353" lon="6.81243">
        <ele>560.79998779297</ele>
        <time>2023-08-03T17:00:02.000Z</time>
      </trkpt>
      <trkpt lat="47.85351" lon="6.81203">
        <ele>560.79998779297</ele>
        <time>2023-08-03T17:00:07.000Z</time>
      </trkpt>
      <trkpt lat="47.85352" lon="6.81142">
        <ele>560.40002441406</ele>
        <time>2023-08-03T17:00:14.000Z</time>
      </trkpt>
      <trkpt lat="47.85355" lon="6.81097">
        <ele>560.20001220703</ele>
        <time>2023-08-03T17:00:19.000Z</time>
      </trkpt>
      <trkpt lat="47.85356" lon="6.81089">
        <ele>560.20001220703</ele>
        <time>2023-08-03T17:00:20.000Z</time>
      </trkpt>
      <trkpt lat="47.85358" lon="6.81073">
        <ele>560.20001220703</ele>
        <time>2023-08-03T17:00:22.000Z</time>
      </trkpt>
      <trkpt lat="47.85361" lon="6.81055">
        <ele>560.20001220703</ele>
        <time>2023-08-03T17:00:24.000Z</time>
      </trkpt>
      <trkpt lat="47.85364" lon="6.81036">
        <ele>560.20001220703</ele>
        <time>2023-08-03T17:00:26.000Z</time>
      </trkpt>
      <trkpt lat="47.85373" lon="6.80992">
        <ele>559.79998779297</ele>
        <time>2023-08-03T17:00:31.000Z</time>
      </trkpt>
      <trkpt lat="47.85392" lon="6.80937">
        <ele>559</ele>
        <time>2023-08-03T17:00:38.000Z</time>
      </trkpt>
      <trkpt lat="47.85395" lon="6.80927">
        <ele>559</ele>
        <time>2023-08-03T17:00:39.000Z</time>
      </trkpt>
      <trkpt lat="47.85418" lon="6.80875">
        <ele>558.40002441406</ele>
        <time>2023-08-03T17:00:46.000Z</time>
      </trkpt>
      <trkpt lat="47.85434" lon="6.80846">
        <ele>558</ele>
        <time>2023-08-03T17:00:50.000Z</time>
      </trkpt>
      <trkpt lat="47.85442" lon="6.80832">
        <ele>557.79998779297</ele>
        <time>2023-08-03T17:00:52.000Z</time>
      </trkpt>
      <trkpt lat="47.85447" lon="6.80826">
        <ele>557.59997558594</ele>
        <time>2023-08-03T17:00:53.000Z</time>
      </trkpt>
      <trkpt lat="47.85457" lon="6.80814">
        <ele>557.59997558594</ele>
        <time>2023-08-03T17:00:55.000Z</time>
      </trkpt>
      <trkpt lat="47.85485" lon="6.80773">
        <ele>557</ele>
        <time>2023-08-03T17:01:01.000Z</time>
      </trkpt>
      <trkpt lat="47.8549" lon="6.80766">
        <ele>557</ele>
        <time>2023-08-03T17:01:02.000Z</time>
      </trkpt>
      <trkpt lat="47.85517" lon="6.80734">
        <ele>556.40002441406</ele>
        <time>2023-08-03T17:01:08.000Z</time>
      </trkpt>
      <trkpt lat="47.8553" lon="6.80719">
        <ele>556</ele>
        <time>2023-08-03T17:01:12.000Z</time>
      </trkpt>
      <trkpt lat="47.85533" lon="6.80715">
        <ele>555.79998779297</ele>
        <time>2023-08-03T17:01:13.000Z</time>
      </trkpt>
      <trkpt lat="47.85537" lon="6.80712">
        <ele>555.79998779297</ele>
        <time>2023-08-03T17:01:14.000Z</time>
      </trkpt>
      <trkpt lat="47.85546" lon="6.80706">
        <ele>555.59997558594</ele>
        <time>2023-08-03T17:01:16.000Z</time>
      </trkpt>
      <trkpt lat="47.85551" lon="6.80702">
        <ele>555.59997558594</ele>
        <time>2023-08-03T17:01:17.000Z</time>
      </trkpt>
      <trkpt lat="47.85561" lon="6.80693">
        <ele>555.40002441406</ele>
        <time>2023-08-03T17:01:19.000Z</time>
      </trkpt>
      <trkpt lat="47.85568" lon="6.80689">
        <ele>555.40002441406</ele>
        <time>2023-08-03T17:01:20.000Z</time>
      </trkpt>
      <trkpt lat="47.85578" lon="6.80682">
        <ele>555.20001220703</ele>
        <time>2023-08-03T17:01:22.000Z</time>
      </trkpt>
      <trkpt lat="47.85597" lon="6.80671">
        <ele>554.79998779297</ele>
        <time>2023-08-03T17:01:25.000Z</time>
      </trkpt>
      <trkpt lat="47.85615" lon="6.80663">
        <ele>554.59997558594</ele>
        <time>2023-08-03T17:01:28.000Z</time>
      </trkpt>
      <trkpt lat="47.85667" lon="6.80639">
        <ele>554</ele>
        <time>2023-08-03T17:01:36.000Z</time>
      </trkpt>
      <trkpt lat="47.85673" lon="6.80636">
        <ele>554</ele>
        <time>2023-08-03T17:01:37.000Z</time>
      </trkpt>
      <trkpt lat="47.85692" lon="6.80627">
        <ele>553.59997558594</ele>
        <time>2023-08-03T17:01:40.000Z</time>
      </trkpt>
      <trkpt lat="47.85737" lon="6.80607">
        <ele>552.79998779297</ele>
        <time>2023-08-03T17:01:47.000Z</time>
      </trkpt>
      <trkpt lat="47.8575" lon="6.80601">
        <ele>552.59997558594</ele>
        <time>2023-08-03T17:01:49.000Z</time>
      </trkpt>
      <trkpt lat="47.85756" lon="6.80597">
        <ele>552.59997558594</ele>
        <time>2023-08-03T17:01:50.000Z</time>
      </trkpt>
      <trkpt lat="47.85787" lon="6.80583">
        <ele>552.20001220703</ele>
        <time>2023-08-03T17:01:55.000Z</time>
      </trkpt>
      <trkpt lat="47.85797" lon="6.80578">
        <ele>552</ele>
        <time>2023-08-03T17:01:57.000Z</time>
      </trkpt>
      <trkpt lat="47.8581" lon="6.80574">
        <ele>552</ele>
        <time>2023-08-03T17:01:59.000Z</time>
      </trkpt>
      <trkpt lat="47.8582" lon="6.80569">
        <ele>551.79998779297</ele>
        <time>2023-08-03T17:02:01.000Z</time>
      </trkpt>
      <trkpt lat="47.85844" lon="6.80556">
        <ele>551.79998779297</ele>
        <time>2023-08-03T17:02:05.000Z</time>
      </trkpt>
      <trkpt lat="47.85856" lon="6.80551">
        <ele>551.79998779297</ele>
        <time>2023-08-03T17:02:07.000Z</time>
      </trkpt>
      <trkpt lat="47.85868" lon="6.80544">
        <ele>551.59997558594</ele>
        <time>2023-08-03T17:02:09.000Z</time>
      </trkpt>
      <trkpt lat="47.85872" lon="6.80542">
        <ele>551.40002441406</ele>
        <time>2023-08-03T17:02:10.000Z</time>
      </trkpt>
      <trkpt lat="47.85881" lon="6.80536">
        <ele>551.20001220703</ele>
        <time>2023-08-03T17:02:12.000Z</time>
      </trkpt>
      <trkpt lat="47.85901" lon="6.80529">
        <ele>551</ele>
        <time>2023-08-03T17:02:17.000Z</time>
      </trkpt>
      <trkpt lat="47.85904" lon="6.80527">
        <ele>550.79998779297</ele>
        <time>2023-08-03T17:02:18.000Z</time>
      </trkpt>
      <trkpt lat="47.85923" lon="6.80518">
        <ele>550.59997558594</ele>
        <time>2023-08-03T17:02:22.000Z</time>
      </trkpt>
      <trkpt lat="47.85928" lon="6.80515">
        <ele>550.59997558594</ele>
        <time>2023-08-03T17:02:23.000Z</time>
      </trkpt>
      <trkpt lat="47.85962" lon="6.80498">
        <ele>550.20001220703</ele>
        <time>2023-08-03T17:02:29.000Z</time>
      </trkpt>
      <trkpt lat="47.85994" lon="6.80486">
        <ele>549.79998779297</ele>
        <time>2023-08-03T17:02:34.000Z</time>
      </trkpt>
      <trkpt lat="47.86014" lon="6.80482">
        <ele>549.59997558594</ele>
        <time>2023-08-03T17:02:37.000Z</time>
      </trkpt>
      <trkpt lat="47.86049" lon="6.80477">
        <ele>549.40002441406</ele>
        <time>2023-08-03T17:02:42.000Z</time>
      </trkpt>
      <trkpt lat="47.8609" lon="6.80475">
        <ele>549.20001220703</ele>
        <time>2023-08-03T17:02:48.000Z</time>
      </trkpt>
      <trkpt lat="47.86103" lon="6.80477">
        <ele>549.20001220703</ele>
        <time>2023-08-03T17:02:50.000Z</time>
      </trkpt>
      <trkpt lat="47.86124" lon="6.80481">
        <ele>549</ele>
        <time>2023-08-03T17:02:53.000Z</time>
      </trkpt>
      <trkpt lat="47.86131" lon="6.80482">
        <ele>548.79998779297</ele>
        <time>2023-08-03T17:02:54.000Z</time>
      </trkpt>
      <trkpt lat="47.86152" lon="6.80487">
        <ele>548.59997558594</ele>
        <time>2023-08-03T17:02:57.000Z</time>
      </trkpt>
      <trkpt lat="47.86204" lon="6.80502">
        <ele>547.79998779297</ele>
        <time>2023-08-03T17:03:05.000Z</time>
      </trkpt>
      <trkpt lat="47.86236" lon="6.80506">
        <ele>547.59997558594</ele>
        <time>2023-08-03T17:03:10.000Z</time>
      </trkpt>
      <trkpt lat="47.86276" lon="6.80506">
        <ele>547.20001220703</ele>
        <time>2023-08-03T17:03:16.000Z</time>
      </trkpt>
      <trkpt lat="47.86292" lon="6.80506">
        <ele>547</ele>
        <time>2023-08-03T17:03:19.000Z</time>
      </trkpt>
      <trkpt lat="47.86315" lon="6.805">
        <ele>546.79998779297</ele>
        <time>2023-08-03T17:03:22.000Z</time>
      </trkpt>
      <trkpt lat="47.8633" lon="6.80493">
        <ele>546.59997558594</ele>
        <time>2023-08-03T17:03:24.000Z</time>
      </trkpt>
      <trkpt lat="47.86386" lon="6.80471">
        <ele>546</ele>
        <time>2023-08-03T17:03:31.000Z</time>
      </trkpt>
      <trkpt lat="47.86386" lon="6.80471">
        <ele>546</ele>
        <time>2023-08-03T17:03:32.000Z</time>
      </trkpt>
      <trkpt lat="47.8641" lon="6.80459">
        <ele>545.59997558594</ele>
        <time>2023-08-03T17:03:34.000Z</time>
      </trkpt>
      <trkpt lat="47.86445" lon="6.80432">
        <ele>545.20001220703</ele>
        <time>2023-08-03T17:03:39.000Z</time>
      </trkpt>
      <trkpt lat="47.86476" lon="6.80401">
        <ele>544.79998779297</ele>
        <time>2023-08-03T17:03:44.000Z</time>
      </trkpt>
      <trkpt lat="47.86482" lon="6.80394">
        <ele>544.59997558594</ele>
        <time>2023-08-03T17:03:45.000Z</time>
      </trkpt>
      <trkpt lat="47.86493" lon="6.8038">
        <ele>544.40002441406</ele>
        <time>2023-08-03T17:03:47.000Z</time>
      </trkpt>
      <trkpt lat="47.86533" lon="6.80327">
        <ele>543.59997558594</ele>
        <time>2023-08-03T17:03:54.000Z</time>
      </trkpt>
      <trkpt lat="47.86555" lon="6.80284">
        <ele>543.20001220703</ele>
        <time>2023-08-03T17:03:59.000Z</time>
      </trkpt>
      <trkpt lat="47.86581" lon="6.80222">
        <ele>542.59997558594</ele>
        <time>2023-08-03T17:04:06.000Z</time>
      </trkpt>
      <trkpt lat="47.86585" lon="6.80212">
        <ele>542.40002441406</ele>
        <time>2023-08-03T17:04:07.000Z</time>
      </trkpt>
      <trkpt lat="47.86595" lon="6.80184">
        <ele>542</ele>
        <time>2023-08-03T17:04:10.000Z</time>
      </trkpt>
      <trkpt lat="47.86605" lon="6.80144">
        <ele>541.40002441406</ele>
        <time>2023-08-03T17:04:14.000Z</time>
      </trkpt>
      <trkpt lat="47.86611" lon="6.80113">
        <ele>540.79998779297</ele>
        <time>2023-08-03T17:04:17.000Z</time>
      </trkpt>
      <trkpt lat="47.86618" lon="6.80071">
        <ele>540.40002441406</ele>
        <time>2023-08-03T17:04:21.000Z</time>
      </trkpt>
      <trkpt lat="47.86621" lon="6.80039">
        <ele>540</ele>
        <time>2023-08-03T17:04:25.000Z</time>
      </trkpt>
      <trkpt lat="47.86625" lon="6.79975">
        <ele>539.40002441406</ele>
        <time>2023-08-03T17:04:30.000Z</time>
      </trkpt>
      <trkpt lat="47.86627" lon="6.79955">
        <ele>539</ele>
        <time>2023-08-03T17:04:32.000Z</time>
      </trkpt>
      <trkpt lat="47.86629" lon="6.7992">
        <ele>538.59997558594</ele>
        <time>2023-08-03T17:04:36.000Z</time>
      </trkpt>
      <trkpt lat="47.8663" lon="6.79908">
        <ele>538.40002441406</ele>
        <time>2023-08-03T17:04:38.000Z</time>
      </trkpt>
      <trkpt lat="47.86631" lon="6.79902">
        <ele>538.20001220703</ele>
        <time>2023-08-03T17:04:39.000Z</time>
      </trkpt>
      <trkpt lat="47.86632" lon="6.79878">
        <ele>537.79998779297</ele>
        <time>2023-08-03T17:04:43.000Z</time>
      </trkpt>
      <trkpt lat="47.86633" lon="6.7987">
        <ele>537.59997558594</ele>
        <time>2023-08-03T17:04:44.000Z</time>
      </trkpt>
      <trkpt lat="47.86634" lon="6.79862">
        <ele>537.59997558594</ele>
        <time>2023-08-03T17:04:45.000Z</time>
      </trkpt>
      <trkpt lat="47.86636" lon="6.79833">
        <ele>537.40002441406</ele>
        <time>2023-08-03T17:04:48.000Z</time>
      </trkpt>
      <trkpt lat="47.86637" lon="6.79822">
        <ele>537.40002441406</ele>
        <time>2023-08-03T17:04:49.000Z</time>
      </trkpt>
      <trkpt lat="47.86642" lon="6.79745">
        <ele>536.79998779297</ele>
        <time>2023-08-03T17:04:57.000Z</time>
      </trkpt>
      <trkpt lat="47.86644" lon="6.79715">
        <ele>536.40002441406</ele>
        <time>2023-08-03T17:05:00.000Z</time>
      </trkpt>
      <trkpt lat="47.86649" lon="6.79647">
        <ele>535.59997558594</ele>
        <time>2023-08-03T17:05:07.000Z</time>
      </trkpt>
      <trkpt lat="47.86652" lon="6.79606">
        <ele>535.40002441406</ele>
        <time>2023-08-03T17:05:11.000Z</time>
      </trkpt>
      <trkpt lat="47.86654" lon="6.79562">
        <ele>535.20001220703</ele>
        <time>2023-08-03T17:05:16.000Z</time>
      </trkpt>
      <trkpt lat="47.86655" lon="6.79556">
        <ele>535</ele>
        <time>2023-08-03T17:05:17.000Z</time>
      </trkpt>
      <trkpt lat="47.86657" lon="6.79544">
        <ele>535</ele>
        <time>2023-08-03T17:05:19.000Z</time>
      </trkpt>
      <trkpt lat="47.86661" lon="6.79519">
        <ele>534.40002441406</ele>
        <time>2023-08-03T17:05:23.000Z</time>
      </trkpt>
      <trkpt lat="47.86663" lon="6.79512">
        <ele>534.40002441406</ele>
        <time>2023-08-03T17:05:24.000Z</time>
      </trkpt>
      <trkpt lat="47.86666" lon="6.79497">
        <ele>534.40002441406</ele>
        <time>2023-08-03T17:05:26.000Z</time>
      </trkpt>
      <trkpt lat="47.86672" lon="6.79468">
        <ele>534.20001220703</ele>
        <time>2023-08-03T17:05:29.000Z</time>
      </trkpt>
      <trkpt lat="47.86688" lon="6.79414">
        <ele>534.40002441406</ele>
        <time>2023-08-03T17:05:35.000Z</time>
      </trkpt>
      <trkpt lat="47.86714" lon="6.7935">
        <ele>534.40002441406</ele>
        <time>2023-08-03T17:05:42.000Z</time>
      </trkpt>
      <trkpt lat="47.86745" lon="6.7929">
        <ele>534</ele>
        <time>2023-08-03T17:05:49.000Z</time>
      </trkpt>
      <trkpt lat="47.86774" lon="6.79246">
        <ele>533.59997558594</ele>
        <time>2023-08-03T17:05:55.000Z</time>
      </trkpt>
      <trkpt lat="47.86798" lon="6.79214">
        <ele>533.40002441406</ele>
        <time>2023-08-03T17:06:00.000Z</time>
      </trkpt>
      <trkpt lat="47.86805" lon="6.79207">
        <ele>533.40002441406</ele>
        <time>2023-08-03T17:06:02.000Z</time>
      </trkpt>
      <trkpt lat="47.8681" lon="6.79201">
        <ele>533.40002441406</ele>
        <time>2023-08-03T17:06:05.000Z</time>
      </trkpt>
      <trkpt lat="47.86821" lon="6.79194">
        <ele>532.79998779297</ele>
        <time>2023-08-03T17:06:10.000Z</time>
      </trkpt>
      <trkpt lat="47.86838" lon="6.79177">
        <ele>532.59997558594</ele>
        <time>2023-08-03T17:06:15.000Z</time>
      </trkpt>
      <trkpt lat="47.86861" lon="6.7916">
        <ele>532.40002441406</ele>
        <time>2023-08-03T17:06:20.000Z</time>
      </trkpt>
      <trkpt lat="47.86871" lon="6.79154">
        <ele>532.40002441406</ele>
        <time>2023-08-03T17:06:22.000Z</time>
      </trkpt>
      <trkpt lat="47.86913" lon="6.7913">
        <ele>531.79998779297</ele>
        <time>2023-08-03T17:06:31.000Z</time>
      </trkpt>
      <trkpt lat="47.86936" lon="6.79117">
        <ele>531.59997558594</ele>
        <time>2023-08-03T17:06:35.000Z</time>
      </trkpt>
      <trkpt lat="47.86964" lon="6.79098">
        <ele>531.40002441406</ele>
        <time>2023-08-03T17:06:40.000Z</time>
      </trkpt>
      <trkpt lat="47.86969" lon="6.79094">
        <ele>531.40002441406</ele>
        <time>2023-08-03T17:06:41.000Z</time>
      </trkpt>
      <trkpt lat="47.87021" lon="6.7906">
        <ele>531</ele>
        <time>2023-08-03T17:06:50.000Z</time>
      </trkpt>
      <trkpt lat="47.87028" lon="6.79055">
        <ele>530.79998779297</ele>
        <time>2023-08-03T17:06:51.000Z</time>
      </trkpt>
      <trkpt lat="47.87041" lon="6.79045">
        <ele>530.59997558594</ele>
        <time>2023-08-03T17:06:53.000Z</time>
      </trkpt>
      <trkpt lat="47.87071" lon="6.7902">
        <ele>529.79998779297</ele>
        <time>2023-08-03T17:06:58.000Z</time>
      </trkpt>
      <trkpt lat="47.87077" lon="6.79015">
        <ele>529.59997558594</ele>
        <time>2023-08-03T17:06:59.000Z</time>
      </trkpt>
      <trkpt lat="47.87083" lon="6.79009">
        <ele>529.40002441406</ele>
        <time>2023-08-03T17:07:00.000Z</time>
      </trkpt>
      <trkpt lat="47.87131" lon="6.78957">
        <ele>528.79998779297</ele>
        <time>2023-08-03T17:07:08.000Z</time>
      </trkpt>
      <trkpt lat="47.87153" lon="6.78932">
        <ele>528.40002441406</ele>
        <time>2023-08-03T17:07:12.000Z</time>
      </trkpt>
      <trkpt lat="47.87181" lon="6.789">
        <ele>527.79998779297</ele>
        <time>2023-08-03T17:07:17.000Z</time>
      </trkpt>
      <trkpt lat="47.87207" lon="6.78866">
        <ele>527.40002441406</ele>
        <time>2023-08-03T17:07:22.000Z</time>
      </trkpt>
      <trkpt lat="47.87217" lon="6.78851">
        <ele>527.20001220703</ele>
        <time>2023-08-03T17:07:24.000Z</time>
      </trkpt>
      <trkpt lat="47.87221" lon="6.78844">
        <ele>527.20001220703</ele>
        <time>2023-08-03T17:07:25.000Z</time>
      </trkpt>
      <trkpt lat="47.8724" lon="6.78796">
        <ele>526.79998779297</ele>
        <time>2023-08-03T17:07:31.000Z</time>
      </trkpt>
      <trkpt lat="47.87246" lon="6.78783">
        <ele>526.79998779297</ele>
        <time>2023-08-03T17:07:33.000Z</time>
      </trkpt>
      <trkpt lat="47.87252" lon="6.78773">
        <ele>526.79998779297</ele>
        <time>2023-08-03T17:07:35.000Z</time>
      </trkpt>
      <trkpt lat="47.87265" lon="6.78749">
        <ele>526.79998779297</ele>
        <time>2023-08-03T17:07:40.000Z</time>
      </trkpt>
      <trkpt lat="47.87269" lon="6.78745">
        <ele>526.59997558594</ele>
        <time>2023-08-03T17:07:41.000Z</time>
      </trkpt>
      <trkpt lat="47.87271" lon="6.78739">
        <ele>526.79998779297</ele>
        <time>2023-08-03T17:07:42.000Z</time>
      </trkpt>
      <trkpt lat="47.87278" lon="6.78718">
        <ele>526.59997558594</ele>
        <time>2023-08-03T17:07:45.000Z</time>
      </trkpt>
      <trkpt lat="47.87296" lon="6.78662">
        <ele>526.59997558594</ele>
        <time>2023-08-03T17:07:52.000Z</time>
      </trkpt>
      <trkpt lat="47.87312" lon="6.7861">
        <ele>526.40002441406</ele>
        <time>2023-08-03T17:07:58.000Z</time>
      </trkpt>
      <trkpt lat="47.87323" lon="6.78575">
        <ele>526</ele>
        <time>2023-08-03T17:08:02.000Z</time>
      </trkpt>
      <trkpt lat="47.87352" lon="6.78498">
        <ele>525.79998779297</ele>
        <time>2023-08-03T17:08:11.000Z</time>
      </trkpt>
      <trkpt lat="47.87386" lon="6.78436">
        <ele>526</ele>
        <time>2023-08-03T17:08:19.000Z</time>
      </trkpt>
      <trkpt lat="47.87427" lon="6.78373">
        <ele>526</ele>
        <time>2023-08-03T17:08:28.000Z</time>
      </trkpt>
      <trkpt lat="47.87432" lon="6.78366">
        <ele>526</ele>
        <time>2023-08-03T17:08:29.000Z</time>
      </trkpt>
      <trkpt lat="47.87455" lon="6.78333">
        <ele>526.40002441406</ele>
        <time>2023-08-03T17:08:34.000Z</time>
      </trkpt>
      <trkpt lat="47.87459" lon="6.78326">
        <ele>526.40002441406</ele>
        <time>2023-08-03T17:08:35.000Z</time>
      </trkpt>
      <trkpt lat="47.87489" lon="6.78273">
        <ele>526.40002441406</ele>
        <time>2023-08-03T17:08:42.000Z</time>
      </trkpt>
      <trkpt lat="47.87511" lon="6.78224">
        <ele>526.20001220703</ele>
        <time>2023-08-03T17:08:48.000Z</time>
      </trkpt>
      <trkpt lat="47.8753" lon="6.78171">
        <ele>525.40002441406</ele>
        <time>2023-08-03T17:08:54.000Z</time>
      </trkpt>
      <trkpt lat="47.87538" lon="6.78143">
        <ele>525</ele>
        <time>2023-08-03T17:08:57.000Z</time>
      </trkpt>
      <trkpt lat="47.87556" lon="6.78058">
        <ele>524.59997558594</ele>
        <time>2023-08-03T17:09:06.000Z</time>
      </trkpt>
      <trkpt lat="47.87565" lon="6.78008">
        <ele>524.20001220703</ele>
        <time>2023-08-03T17:09:11.000Z</time>
      </trkpt>
      <trkpt lat="47.8757" lon="6.77968">
        <ele>524.40002441406</ele>
        <time>2023-08-03T17:09:15.000Z</time>
      </trkpt>
      <trkpt lat="47.87576" lon="6.77885">
        <ele>523.59997558594</ele>
        <time>2023-08-03T17:09:23.000Z</time>
      </trkpt>
      <trkpt lat="47.87576" lon="6.77874">
        <ele>523.59997558594</ele>
        <time>2023-08-03T17:09:24.000Z</time>
      </trkpt>
      <trkpt lat="47.87576" lon="6.77864">
        <ele>523.40002441406</ele>
        <time>2023-08-03T17:09:25.000Z</time>
      </trkpt>
      <trkpt lat="47.87574" lon="6.77781">
        <ele>523</ele>
        <time>2023-08-03T17:09:33.000Z</time>
      </trkpt>
      <trkpt lat="47.87573" lon="6.7776">
        <ele>522.79998779297</ele>
        <time>2023-08-03T17:09:35.000Z</time>
      </trkpt>
      <trkpt lat="47.87567" lon="6.77676">
        <ele>522.59997558594</ele>
        <time>2023-08-03T17:09:43.000Z</time>
      </trkpt>
      <trkpt lat="47.87566" lon="6.77653">
        <ele>522.40002441406</ele>
        <time>2023-08-03T17:09:45.000Z</time>
      </trkpt>
      <trkpt lat="47.87565" lon="6.77642">
        <ele>522.20001220703</ele>
        <time>2023-08-03T17:09:46.000Z</time>
      </trkpt>
      <trkpt lat="47.8756" lon="6.77561">
        <ele>521.59997558594</ele>
        <time>2023-08-03T17:09:54.000Z</time>
      </trkpt>
      <trkpt lat="47.87559" lon="6.77548">
        <ele>521.59997558594</ele>
        <time>2023-08-03T17:09:55.000Z</time>
      </trkpt>
      <trkpt lat="47.87555" lon="6.77506">
        <ele>521.40002441406</ele>
        <time>2023-08-03T17:10:00.000Z</time>
      </trkpt>
      <trkpt lat="47.87555" lon="6.775">
        <ele>521.20001220703</ele>
        <time>2023-08-03T17:10:01.000Z</time>
      </trkpt>
      <trkpt lat="47.87554" lon="6.77472">
        <ele>520.79998779297</ele>
        <time>2023-08-03T17:10:06.000Z</time>
      </trkpt>
      <trkpt lat="47.87553" lon="6.77467">
        <ele>520.79998779297</ele>
        <time>2023-08-03T17:10:07.000Z</time>
      </trkpt>
      <trkpt lat="47.87552" lon="6.77445">
        <ele>520.40002441406</ele>
        <time>2023-08-03T17:10:11.000Z</time>
      </trkpt>
      <trkpt lat="47.87551" lon="6.77438">
        <ele>520.40002441406</ele>
        <time>2023-08-03T17:10:12.000Z</time>
      </trkpt>
      <trkpt lat="47.87548" lon="6.77391">
        <ele>519.79998779297</ele>
        <time>2023-08-03T17:10:19.000Z</time>
      </trkpt>
      <trkpt lat="47.87545" lon="6.77315">
        <ele>519.40002441406</ele>
        <time>2023-08-03T17:10:29.000Z</time>
      </trkpt>
      <trkpt lat="47.87542" lon="6.77271">
        <ele>519.40002441406</ele>
        <time>2023-08-03T17:10:34.000Z</time>
      </trkpt>
      <trkpt lat="47.8754" lon="6.77242">
        <ele>519.40002441406</ele>
        <time>2023-08-03T17:10:37.000Z</time>
      </trkpt>
      <trkpt lat="47.87537" lon="6.77192">
        <ele>518.79998779297</ele>
        <time>2023-08-03T17:10:42.000Z</time>
      </trkpt>
      <trkpt lat="47.87535" lon="6.77152">
        <ele>518.20001220703</ele>
        <time>2023-08-03T17:10:46.000Z</time>
      </trkpt>
      <trkpt lat="47.87532" lon="6.77099">
        <ele>518</ele>
        <time>2023-08-03T17:10:51.000Z</time>
      </trkpt>
      <trkpt lat="47.87528" lon="6.77031">
        <ele>517.40002441406</ele>
        <time>2023-08-03T17:10:58.000Z</time>
      </trkpt>
      <trkpt lat="47.87524" lon="6.76977">
        <ele>516.59997558594</ele>
        <time>2023-08-03T17:11:04.000Z</time>
      </trkpt>
      <trkpt lat="47.87523" lon="6.76969">
        <ele>516.59997558594</ele>
        <time>2023-08-03T17:11:05.000Z</time>
      </trkpt>
      <trkpt lat="47.87524" lon="6.76964">
        <ele>516.40002441406</ele>
        <time>2023-08-03T17:11:06.000Z</time>
      </trkpt>
      <trkpt lat="47.87524" lon="6.76958">
        <ele>516.20001220703</ele>
        <time>2023-08-03T17:11:07.000Z</time>
      </trkpt>
      <trkpt lat="47.87522" lon="6.76931">
        <ele>515.79998779297</ele>
        <time>2023-08-03T17:11:12.000Z</time>
      </trkpt>
      <trkpt lat="47.87521" lon="6.76896">
        <ele>515.20001220703</ele>
        <time>2023-08-03T17:11:17.000Z</time>
      </trkpt>
      <trkpt lat="47.87516" lon="6.76822">
        <ele>514.59997558594</ele>
        <time>2023-08-03T17:11:25.000Z</time>
      </trkpt>
      <trkpt lat="47.87513" lon="6.76773">
        <ele>514.20001220703</ele>
        <time>2023-08-03T17:11:30.000Z</time>
      </trkpt>
      <trkpt lat="47.87511" lon="6.76747">
        <ele>514</ele>
        <time>2023-08-03T17:11:33.000Z</time>
      </trkpt>
      <trkpt lat="47.87507" lon="6.76668">
        <ele>513.79998779297</ele>
        <time>2023-08-03T17:11:41.000Z</time>
      </trkpt>
      <trkpt lat="47.87505" lon="6.76642">
        <ele>513.79998779297</ele>
        <time>2023-08-03T17:11:44.000Z</time>
      </trkpt>
      <trkpt lat="47.87502" lon="6.76603">
        <ele>513.79998779297</ele>
        <time>2023-08-03T17:11:49.000Z</time>
      </trkpt>
      <trkpt lat="47.87501" lon="6.7657">
        <ele>513.59997558594</ele>
        <time>2023-08-03T17:11:55.000Z</time>
      </trkpt>
      <trkpt lat="47.87501" lon="6.76556">
        <ele>513.59997558594</ele>
        <time>2023-08-03T17:11:59.000Z</time>
      </trkpt>
      <trkpt lat="47.87502" lon="6.76552">
        <ele>513.59997558594</ele>
        <time>2023-08-03T17:12:00.000Z</time>
      </trkpt>
      <trkpt lat="47.87505" lon="6.76547">
        <ele>513.59997558594</ele>
        <time>2023-08-03T17:12:01.000Z</time>
      </trkpt>
      <trkpt lat="47.87515" lon="6.76537">
        <ele>513.59997558594</ele>
        <time>2023-08-03T17:12:04.000Z</time>
      </trkpt>
      <trkpt lat="47.87538" lon="6.76511">
        <ele>513.40002441406</ele>
        <time>2023-08-03T17:12:10.000Z</time>
      </trkpt>
      <trkpt lat="47.87542" lon="6.76507">
        <ele>513.40002441406</ele>
        <time>2023-08-03T17:12:11.000Z</time>
      </trkpt>
      <trkpt lat="47.87549" lon="6.76501">
        <ele>513.20001220703</ele>
        <time>2023-08-03T17:12:13.000Z</time>
      </trkpt>
      <trkpt lat="47.87554" lon="6.76497">
        <ele>513.20001220703</ele>
        <time>2023-08-03T17:12:14.000Z</time>
      </trkpt>
      <trkpt lat="47.87559" lon="6.76493">
        <ele>513</ele>
        <time>2023-08-03T17:12:15.000Z</time>
      </trkpt>
      <trkpt lat="47.87571" lon="6.76485">
        <ele>512.40002441406</ele>
        <time>2023-08-03T17:12:19.000Z</time>
      </trkpt>
      <trkpt lat="47.87575" lon="6.76482">
        <ele>512.40002441406</ele>
        <time>2023-08-03T17:12:21.000Z</time>
      </trkpt>
      <trkpt lat="47.87577" lon="6.76481">
        <ele>512.20001220703</ele>
        <time>2023-08-03T17:12:23.000Z</time>
      </trkpt>
      <trkpt lat="47.87578" lon="6.76481">
        <ele>512.20001220703</ele>
        <time>2023-08-03T17:12:24.000Z</time>
      </trkpt>
      <trkpt lat="47.87581" lon="6.7648">
        <ele>512.20001220703</ele>
        <time>2023-08-03T17:12:27.000Z</time>
      </trkpt>
      <trkpt lat="47.87589" lon="6.76471">
        <ele>511.79998779297</ele>
        <time>2023-08-03T17:12:31.000Z</time>
      </trkpt>
      <trkpt lat="47.87592" lon="6.76469">
        <ele>511.79998779297</ele>
        <time>2023-08-03T17:12:32.000Z</time>
      </trkpt>
      <trkpt lat="47.87618" lon="6.7646">
        <ele>511.39999389648</ele>
        <time>2023-08-03T17:12:37.000Z</time>
      </trkpt>
      <trkpt lat="47.87623" lon="6.76459">
        <ele>511.20001220703</ele>
        <time>2023-08-03T17:12:38.000Z</time>
      </trkpt>
      <trkpt lat="47.87637" lon="6.76457">
        <ele>510.60000610352</ele>
        <time>2023-08-03T17:12:40.000Z</time>
      </trkpt>
      <trkpt lat="47.87649" lon="6.7646">
        <ele>510.20001220703</ele>
        <time>2023-08-03T17:12:42.000Z</time>
      </trkpt>
      <trkpt lat="47.87662" lon="6.76465">
        <ele>509.39999389648</ele>
        <time>2023-08-03T17:12:44.000Z</time>
      </trkpt>
      <trkpt lat="47.87675" lon="6.76473">
        <ele>508.79998779297</ele>
        <time>2023-08-03T17:12:46.000Z</time>
      </trkpt>
      <trkpt lat="47.87686" lon="6.76481">
        <ele>508.20001220703</ele>
        <time>2023-08-03T17:12:48.000Z</time>
      </trkpt>
      <trkpt lat="47.87705" lon="6.76493">
        <ele>507.79998779297</ele>
        <time>2023-08-03T17:12:51.000Z</time>
      </trkpt>
      <trkpt lat="47.87729" lon="6.76512">
        <ele>507.79998779297</ele>
        <time>2023-08-03T17:12:55.000Z</time>
      </trkpt>
      <trkpt lat="47.87751" lon="6.76531">
        <ele>507.79998779297</ele>
        <time>2023-08-03T17:12:59.000Z</time>
      </trkpt>
      <trkpt lat="47.87763" lon="6.76538">
        <ele>507.79998779297</ele>
        <time>2023-08-03T17:13:01.000Z</time>
      </trkpt>
      <trkpt lat="47.8778" lon="6.76547">
        <ele>508</ele>
        <time>2023-08-03T17:13:04.000Z</time>
      </trkpt>
      <trkpt lat="47.87786" lon="6.76548">
        <ele>508</ele>
        <time>2023-08-03T17:13:05.000Z</time>
      </trkpt>
      <trkpt lat="47.87807" lon="6.76552">
        <ele>508.39999389648</ele>
        <time>2023-08-03T17:13:09.000Z</time>
      </trkpt>
      <trkpt lat="47.87818" lon="6.76552">
        <ele>508.79998779297</ele>
        <time>2023-08-03T17:13:11.000Z</time>
      </trkpt>
      <trkpt lat="47.87822" lon="6.76553">
        <ele>509</ele>
        <time>2023-08-03T17:13:12.000Z</time>
      </trkpt>
      <trkpt lat="47.87838" lon="6.76554">
        <ele>509.60000610352</ele>
        <time>2023-08-03T17:13:16.000Z</time>
      </trkpt>
      <trkpt lat="47.87841" lon="6.76554">
        <ele>510.20001220703</ele>
        <time>2023-08-03T17:13:17.000Z</time>
      </trkpt>
      <trkpt lat="47.87848" lon="6.76556">
        <ele>511</ele>
        <time>2023-08-03T17:13:21.000Z</time>
      </trkpt>
      <trkpt lat="47.87849" lon="6.76557">
        <ele>511.39999389648</ele>
        <time>2023-08-03T17:13:22.000Z</time>
      </trkpt>
      <trkpt lat="47.87849" lon="6.76557">
        <ele>511.79998779297</ele>
        <time>2023-08-03T17:13:25.000Z</time>
      </trkpt>
      <trkpt lat="47.87852" lon="6.76557">
        <ele>512.40002441406</ele>
        <time>2023-08-03T17:14:16.000Z</time>
      </trkpt>
      <trkpt lat="47.87865" lon="6.76561">
        <ele>512.59997558594</ele>
        <time>2023-08-03T17:14:21.000Z</time>
      </trkpt>
      <trkpt lat="47.87883" lon="6.7656">
        <ele>513.40002441406</ele>
        <time>2023-08-03T17:14:26.000Z</time>
      </trkpt>
      <trkpt lat="47.87892" lon="6.76554">
        <ele>513.59997558594</ele>
        <time>2023-08-03T17:14:28.000Z</time>
      </trkpt>
      <trkpt lat="47.87895" lon="6.76552">
        <ele>513.59997558594</ele>
        <time>2023-08-03T17:14:29.000Z</time>
      </trkpt>
      <trkpt lat="47.87904" lon="6.76544">
        <ele>514</ele>
        <time>2023-08-03T17:14:31.000Z</time>
      </trkpt>
      <trkpt lat="47.87913" lon="6.76537">
        <ele>514</ele>
        <time>2023-08-03T17:14:33.000Z</time>
      </trkpt>
      <trkpt lat="47.87926" lon="6.76527">
        <ele>514</ele>
        <time>2023-08-03T17:14:36.000Z</time>
      </trkpt>
      <trkpt lat="47.87937" lon="6.76517">
        <ele>514.20001220703</ele>
        <time>2023-08-03T17:14:39.000Z</time>
      </trkpt>
      <trkpt lat="47.87946" lon="6.76509">
        <ele>514.20001220703</ele>
        <time>2023-08-03T17:14:41.000Z</time>
      </trkpt>
      <trkpt lat="47.8795" lon="6.76506">
        <ele>514.20001220703</ele>
        <time>2023-08-03T17:14:42.000Z</time>
      </trkpt>
      <trkpt lat="47.87977" lon="6.76484">
        <ele>513.79998779297</ele>
        <time>2023-08-03T17:14:48.000Z</time>
      </trkpt>
      <trkpt lat="47.87991" lon="6.76475">
        <ele>513.79998779297</ele>
        <time>2023-08-03T17:14:51.000Z</time>
      </trkpt>
      <trkpt lat="47.87995" lon="6.76477">
        <ele>513.79998779297</ele>
        <time>2023-08-03T17:14:52.000Z</time>
      </trkpt>
      <trkpt lat="47.87999" lon="6.76479">
        <ele>513.79998779297</ele>
        <time>2023-08-03T17:14:53.000Z</time>
      </trkpt>
      <trkpt lat="47.88002" lon="6.76484">
        <ele>513.59997558594</ele>
        <time>2023-08-03T17:14:55.000Z</time>
      </trkpt>
      <trkpt lat="47.88016" lon="6.76504">
        <ele>513.59997558594</ele>
        <time>2023-08-03T17:15:01.000Z</time>
      </trkpt>
      <trkpt lat="47.8804" lon="6.7652">
        <ele>513.20001220703</ele>
        <time>2023-08-03T17:15:06.000Z</time>
      </trkpt>
      <trkpt lat="47.88082" lon="6.76545">
        <ele>512.79998779297</ele>
        <time>2023-08-03T17:15:14.000Z</time>
      </trkpt>
      <trkpt lat="47.88088" lon="6.76547">
        <ele>512.79998779297</ele>
        <time>2023-08-03T17:15:15.000Z</time>
      </trkpt>
      <trkpt lat="47.88099" lon="6.76551">
        <ele>512.79998779297</ele>
        <time>2023-08-03T17:15:17.000Z</time>
      </trkpt>
      <trkpt lat="47.88128" lon="6.76559">
        <ele>512.59997558594</ele>
        <time>2023-08-03T17:15:22.000Z</time>
      </trkpt>
      <trkpt lat="47.88174" lon="6.7657">
        <ele>511.79998779297</ele>
        <time>2023-08-03T17:15:30.000Z</time>
      </trkpt>
      <trkpt lat="47.88179" lon="6.76572">
        <ele>511.60000610352</ele>
        <time>2023-08-03T17:15:31.000Z</time>
      </trkpt>
      <trkpt lat="47.88237" lon="6.76587">
        <ele>510.79998779297</ele>
        <time>2023-08-03T17:15:41.000Z</time>
      </trkpt>
      <trkpt lat="47.88243" lon="6.76588">
        <ele>510.60000610352</ele>
        <time>2023-08-03T17:15:42.000Z</time>
      </trkpt>
      <trkpt lat="47.88286" lon="6.76598">
        <ele>510.20001220703</ele>
        <time>2023-08-03T17:15:49.000Z</time>
      </trkpt>
      <trkpt lat="47.88292" lon="6.766">
        <ele>510.20001220703</ele>
        <time>2023-08-03T17:15:50.000Z</time>
      </trkpt>
      <trkpt lat="47.8831" lon="6.76609">
        <ele>510</ele>
        <time>2023-08-03T17:15:53.000Z</time>
      </trkpt>
      <trkpt lat="47.88315" lon="6.76613">
        <ele>510</ele>
        <time>2023-08-03T17:15:54.000Z</time>
      </trkpt>
      <trkpt lat="47.88339" lon="6.76629">
        <ele>509.39999389648</ele>
        <time>2023-08-03T17:15:58.000Z</time>
      </trkpt>
      <trkpt lat="47.88375" lon="6.76654">
        <ele>509</ele>
        <time>2023-08-03T17:16:04.000Z</time>
      </trkpt>
      <trkpt lat="47.88424" lon="6.76688">
        <ele>508.60000610352</ele>
        <time>2023-08-03T17:16:13.000Z</time>
      </trkpt>
      <trkpt lat="47.88447" lon="6.76716">
        <ele>508.60000610352</ele>
        <time>2023-08-03T17:16:18.000Z</time>
      </trkpt>
      <trkpt lat="47.88454" lon="6.7673">
        <ele>508.39999389648</ele>
        <time>2023-08-03T17:16:20.000Z</time>
      </trkpt>
      <trkpt lat="47.88472" lon="6.76764">
        <ele>508.60000610352</ele>
        <time>2023-08-03T17:16:25.000Z</time>
      </trkpt>
      <trkpt lat="47.88496" lon="6.76812">
        <ele>508.60000610352</ele>
        <time>2023-08-03T17:16:32.000Z</time>
      </trkpt>
      <trkpt lat="47.88531" lon="6.76881">
        <ele>509.20001220703</ele>
        <time>2023-08-03T17:16:42.000Z</time>
      </trkpt>
      <trkpt lat="47.88538" lon="6.76894">
        <ele>509.39999389648</ele>
        <time>2023-08-03T17:16:44.000Z</time>
      </trkpt>
      <trkpt lat="47.88552" lon="6.76921">
        <ele>509.79998779297</ele>
        <time>2023-08-03T17:16:48.000Z</time>
      </trkpt>
      <trkpt lat="47.88569" lon="6.76952">
        <ele>510.39999389648</ele>
        <time>2023-08-03T17:16:53.000Z</time>
      </trkpt>
      <trkpt lat="47.88587" lon="6.76973">
        <ele>510.79998779297</ele>
        <time>2023-08-03T17:16:57.000Z</time>
      </trkpt>
      <trkpt lat="47.88597" lon="6.7698">
        <ele>511</ele>
        <time>2023-08-03T17:16:59.000Z</time>
      </trkpt>
      <trkpt lat="47.88637" lon="6.77005">
        <ele>511.79998779297</ele>
        <time>2023-08-03T17:17:07.000Z</time>
      </trkpt>
      <trkpt lat="47.88642" lon="6.77008">
        <ele>512</ele>
        <time>2023-08-03T17:17:08.000Z</time>
      </trkpt>
      <trkpt lat="47.88684" lon="6.77033">
        <ele>512.59997558594</ele>
        <time>2023-08-03T17:17:16.000Z</time>
      </trkpt>
      <trkpt lat="47.887" lon="6.77043">
        <ele>513</ele>
        <time>2023-08-03T17:17:19.000Z</time>
      </trkpt>
      <trkpt lat="47.88724" lon="6.77065">
        <ele>513.79998779297</ele>
        <time>2023-08-03T17:17:24.000Z</time>
      </trkpt>
      <trkpt lat="47.8874" lon="6.77088">
        <ele>514</ele>
        <time>2023-08-03T17:17:28.000Z</time>
      </trkpt>
      <trkpt lat="47.88751" lon="6.77107">
        <ele>514.20001220703</ele>
        <time>2023-08-03T17:17:31.000Z</time>
      </trkpt>
      <trkpt lat="47.88773" lon="6.77166">
        <ele>515</ele>
        <time>2023-08-03T17:17:39.000Z</time>
      </trkpt>
      <trkpt lat="47.88776" lon="6.77173">
        <ele>515</ele>
        <time>2023-08-03T17:17:40.000Z</time>
      </trkpt>
      <trkpt lat="47.88799" lon="6.77232">
        <ele>515.59997558594</ele>
        <time>2023-08-03T17:17:48.000Z</time>
      </trkpt>
      <trkpt lat="47.88828" lon="6.77278">
        <ele>515.40002441406</ele>
        <time>2023-08-03T17:17:55.000Z</time>
      </trkpt>
      <trkpt lat="47.88857" lon="6.77307">
        <ele>515.20001220703</ele>
        <time>2023-08-03T17:18:00.000Z</time>
      </trkpt>
      <trkpt lat="47.88895" lon="6.77349">
        <ele>514.59997558594</ele>
        <time>2023-08-03T17:18:07.000Z</time>
      </trkpt>
      <trkpt lat="47.88932" lon="6.77409">
        <ele>514.40002441406</ele>
        <time>2023-08-03T17:18:15.000Z</time>
      </trkpt>
      <trkpt lat="47.88962" lon="6.7747">
        <ele>514.79998779297</ele>
        <time>2023-08-03T17:18:23.000Z</time>
      </trkpt>
      <trkpt lat="47.88992" lon="6.77521">
        <ele>515.20001220703</ele>
        <time>2023-08-03T17:18:30.000Z</time>
      </trkpt>
      <trkpt lat="47.89027" lon="6.77559">
        <ele>515.59997558594</ele>
        <time>2023-08-03T17:18:37.000Z</time>
      </trkpt>
      <trkpt lat="47.8904" lon="6.77568">
        <ele>515.79998779297</ele>
        <time>2023-08-03T17:18:39.000Z</time>
      </trkpt>
      <trkpt lat="47.89064" lon="6.77581">
        <ele>516</ele>
        <time>2023-08-03T17:18:43.000Z</time>
      </trkpt>
      <trkpt lat="47.89101" lon="6.7759">
        <ele>516.40002441406</ele>
        <time>2023-08-03T17:18:49.000Z</time>
      </trkpt>
      <trkpt lat="47.8914" lon="6.77591">
        <ele>517.20001220703</ele>
        <time>2023-08-03T17:18:55.000Z</time>
      </trkpt>
      <trkpt lat="47.89151" lon="6.77592">
        <ele>517.40002441406</ele>
        <time>2023-08-03T17:18:57.000Z</time>
      </trkpt>
      <trkpt lat="47.89203" lon="6.77592">
        <ele>517.59997558594</ele>
        <time>2023-08-03T17:19:05.000Z</time>
      </trkpt>
      <trkpt lat="47.89261" lon="6.77591">
        <ele>518.20001220703</ele>
        <time>2023-08-03T17:19:14.000Z</time>
      </trkpt>
      <trkpt lat="47.89266" lon="6.77591">
        <ele>518.20001220703</ele>
        <time>2023-08-03T17:19:15.000Z</time>
      </trkpt>
      <trkpt lat="47.89272" lon="6.7759">
        <ele>518.40002441406</ele>
        <time>2023-08-03T17:19:16.000Z</time>
      </trkpt>
      <trkpt lat="47.89329" lon="6.77591">
        <ele>518.79998779297</ele>
        <time>2023-08-03T17:19:25.000Z</time>
      </trkpt>
      <trkpt lat="47.89336" lon="6.77591">
        <ele>519</ele>
        <time>2023-08-03T17:19:26.000Z</time>
      </trkpt>
      <trkpt lat="47.89387" lon="6.7759">
        <ele>519.40002441406</ele>
        <time>2023-08-03T17:19:34.000Z</time>
      </trkpt>
      <trkpt lat="47.89399" lon="6.77591">
        <ele>519.59997558594</ele>
        <time>2023-08-03T17:19:36.000Z</time>
      </trkpt>
      <trkpt lat="47.89429" lon="6.77602">
        <ele>519.79998779297</ele>
        <time>2023-08-03T17:19:41.000Z</time>
      </trkpt>
      <trkpt lat="47.89463" lon="6.77636">
        <ele>520.40002441406</ele>
        <time>2023-08-03T17:19:48.000Z</time>
      </trkpt>
      <trkpt lat="47.89488" lon="6.77664">
        <ele>521.59997558594</ele>
        <time>2023-08-03T17:19:54.000Z</time>
      </trkpt>
      <trkpt lat="47.895" lon="6.77677">
        <ele>522.20001220703</ele>
        <time>2023-08-03T17:19:57.000Z</time>
      </trkpt>
      <trkpt lat="47.89509" lon="6.77686">
        <ele>522.59997558594</ele>
        <time>2023-08-03T17:19:59.000Z</time>
      </trkpt>
      <trkpt lat="47.89532" lon="6.77713">
        <ele>523.59997558594</ele>
        <time>2023-08-03T17:20:05.000Z</time>
      </trkpt>
      <trkpt lat="47.89539" lon="6.77721">
        <ele>524</ele>
        <time>2023-08-03T17:20:07.000Z</time>
      </trkpt>
      <trkpt lat="47.89555" lon="6.77739">
        <ele>525</ele>
        <time>2023-08-03T17:20:11.000Z</time>
      </trkpt>
      <trkpt lat="47.89579" lon="6.77763">
        <ele>526</ele>
        <time>2023-08-03T17:20:17.000Z</time>
      </trkpt>
      <trkpt lat="47.89588" lon="6.77772">
        <ele>526.59997558594</ele>
        <time>2023-08-03T17:20:19.000Z</time>
      </trkpt>
      <trkpt lat="47.89599" lon="6.77783">
        <ele>527.20001220703</ele>
        <time>2023-08-03T17:20:22.000Z</time>
      </trkpt>
      <trkpt lat="47.89615" lon="6.77797">
        <ele>528.20001220703</ele>
        <time>2023-08-03T17:20:26.000Z</time>
      </trkpt>
      <trkpt lat="47.8962" lon="6.77799">
        <ele>528.40002441406</ele>
        <time>2023-08-03T17:20:27.000Z</time>
      </trkpt>
      <trkpt lat="47.89649" lon="6.77805">
        <ele>528.79998779297</ele>
        <time>2023-08-03T17:20:33.000Z</time>
      </trkpt>
      <trkpt lat="47.89687" lon="6.77808">
        <ele>529.20001220703</ele>
        <time>2023-08-03T17:20:40.000Z</time>
      </trkpt>
      <trkpt lat="47.89698" lon="6.77809">
        <ele>529.20001220703</ele>
        <time>2023-08-03T17:20:42.000Z</time>
      </trkpt>
      <trkpt lat="47.89739" lon="6.7781">
        <ele>529.40002441406</ele>
        <time>2023-08-03T17:20:49.000Z</time>
      </trkpt>
      <trkpt lat="47.89798" lon="6.77812">
        <ele>529.59997558594</ele>
        <time>2023-08-03T17:20:59.000Z</time>
      </trkpt>
      <trkpt lat="47.89853" lon="6.77815">
        <ele>529.79998779297</ele>
        <time>2023-08-03T17:21:08.000Z</time>
      </trkpt>
      <trkpt lat="47.89859" lon="6.77815">
        <ele>529.79998779297</ele>
        <time>2023-08-03T17:21:09.000Z</time>
      </trkpt>
      <trkpt lat="47.89914" lon="6.77818">
        <ele>530.40002441406</ele>
        <time>2023-08-03T17:21:18.000Z</time>
      </trkpt>
      <trkpt lat="47.89925" lon="6.77818">
        <ele>530.40002441406</ele>
        <time>2023-08-03T17:21:20.000Z</time>
      </trkpt>
      <trkpt lat="47.89985" lon="6.77822">
        <ele>530.20001220703</ele>
        <time>2023-08-03T17:21:29.000Z</time>
      </trkpt>
      <trkpt lat="47.89992" lon="6.77822">
        <ele>530.20001220703</ele>
        <time>2023-08-03T17:21:30.000Z</time>
      </trkpt>
      <trkpt lat="47.90031" lon="6.77825">
        <ele>530</ele>
        <time>2023-08-03T17:21:36.000Z</time>
      </trkpt>
      <trkpt lat="47.90082" lon="6.77834">
        <ele>530</ele>
        <time>2023-08-03T17:21:44.000Z</time>
      </trkpt>
      <trkpt lat="47.90103" lon="6.77844">
        <ele>530.20001220703</ele>
        <time>2023-08-03T17:21:48.000Z</time>
      </trkpt>
      <trkpt lat="47.90108" lon="6.77847">
        <ele>530.20001220703</ele>
        <time>2023-08-03T17:21:49.000Z</time>
      </trkpt>
      <trkpt lat="47.90138" lon="6.77863">
        <ele>531.40002441406</ele>
        <time>2023-08-03T17:21:55.000Z</time>
      </trkpt>
      <trkpt lat="47.90145" lon="6.77871">
        <ele>531.59997558594</ele>
        <time>2023-08-03T17:21:57.000Z</time>
      </trkpt>
      <trkpt lat="47.90153" lon="6.77878">
        <ele>532</ele>
        <time>2023-08-03T17:21:59.000Z</time>
      </trkpt>
      <trkpt lat="47.90156" lon="6.77882">
        <ele>532</ele>
        <time>2023-08-03T17:22:00.000Z</time>
      </trkpt>
      <trkpt lat="47.9016" lon="6.77886">
        <ele>532.20001220703</ele>
        <time>2023-08-03T17:22:01.000Z</time>
      </trkpt>
      <trkpt lat="47.90168" lon="6.779">
        <ele>532.79998779297</ele>
        <time>2023-08-03T17:22:04.000Z</time>
      </trkpt>
      <trkpt lat="47.90171" lon="6.77904">
        <ele>532.79998779297</ele>
        <time>2023-08-03T17:22:05.000Z</time>
      </trkpt>
      <trkpt lat="47.90176" lon="6.77913">
        <ele>533.20001220703</ele>
        <time>2023-08-03T17:22:07.000Z</time>
      </trkpt>
      <trkpt lat="47.90184" lon="6.77925">
        <ele>534</ele>
        <time>2023-08-03T17:22:10.000Z</time>
      </trkpt>
      <trkpt lat="47.90187" lon="6.77929">
        <ele>534.20001220703</ele>
        <time>2023-08-03T17:22:11.000Z</time>
      </trkpt>
      <trkpt lat="47.9019" lon="6.77934">
        <ele>534.40002441406</ele>
        <time>2023-08-03T17:22:12.000Z</time>
      </trkpt>
      <trkpt lat="47.902" lon="6.77948">
        <ele>535</ele>
        <time>2023-08-03T17:22:15.000Z</time>
      </trkpt>
      <trkpt lat="47.90218" lon="6.77969">
        <ele>535.79998779297</ele>
        <time>2023-08-03T17:22:20.000Z</time>
      </trkpt>
      <trkpt lat="47.90221" lon="6.77973">
        <ele>536.20001220703</ele>
        <time>2023-08-03T17:22:21.000Z</time>
      </trkpt>
      <trkpt lat="47.90243" lon="6.77996">
        <ele>537.40002441406</ele>
        <time>2023-08-03T17:22:27.000Z</time>
      </trkpt>
      <trkpt lat="47.90247" lon="6.78">
        <ele>537.59997558594</ele>
        <time>2023-08-03T17:22:28.000Z</time>
      </trkpt>
      <trkpt lat="47.90251" lon="6.78003">
        <ele>537.59997558594</ele>
        <time>2023-08-03T17:22:29.000Z</time>
      </trkpt>
      <trkpt lat="47.90272" lon="6.78012">
        <ele>538.59997558594</ele>
        <time>2023-08-03T17:22:34.000Z</time>
      </trkpt>
      <trkpt lat="47.9029" lon="6.78017">
        <ele>539.20001220703</ele>
        <time>2023-08-03T17:22:38.000Z</time>
      </trkpt>
      <trkpt lat="47.90298" lon="6.78017">
        <ele>539.59997558594</ele>
        <time>2023-08-03T17:22:40.000Z</time>
      </trkpt>
      <trkpt lat="47.90306" lon="6.78017">
        <ele>540</ele>
        <time>2023-08-03T17:22:42.000Z</time>
      </trkpt>
      <trkpt lat="47.90319" lon="6.78014">
        <ele>540</ele>
        <time>2023-08-03T17:22:45.000Z</time>
      </trkpt>
      <trkpt lat="47.90323" lon="6.78013">
        <ele>540.20001220703</ele>
        <time>2023-08-03T17:22:46.000Z</time>
      </trkpt>
      <trkpt lat="47.90335" lon="6.78014">
        <ele>540.79998779297</ele>
        <time>2023-08-03T17:22:49.000Z</time>
      </trkpt>
      <trkpt lat="47.90355" lon="6.78013">
        <ele>542</ele>
        <time>2023-08-03T17:22:54.000Z</time>
      </trkpt>
      <trkpt lat="47.90359" lon="6.78013">
        <ele>542</ele>
        <time>2023-08-03T17:22:55.000Z</time>
      </trkpt>
      <trkpt lat="47.90384" lon="6.78019">
        <ele>543</ele>
        <time>2023-08-03T17:23:01.000Z</time>
      </trkpt>
      <trkpt lat="47.90388" lon="6.78021">
        <ele>543.20001220703</ele>
        <time>2023-08-03T17:23:02.000Z</time>
      </trkpt>
      <trkpt lat="47.90428" lon="6.78047">
        <ele>543.79998779297</ele>
        <time>2023-08-03T17:23:11.000Z</time>
      </trkpt>
      <trkpt lat="47.90446" lon="6.78063">
        <ele>543.59997558594</ele>
        <time>2023-08-03T17:23:15.000Z</time>
      </trkpt>
      <trkpt lat="47.90453" lon="6.78073">
        <ele>543.40002441406</ele>
        <time>2023-08-03T17:23:17.000Z</time>
      </trkpt>
      <trkpt lat="47.90481" lon="6.78113">
        <ele>542.20001220703</ele>
        <time>2023-08-03T17:23:24.000Z</time>
      </trkpt>
      <trkpt lat="47.90487" lon="6.78121">
        <ele>542</ele>
        <time>2023-08-03T17:23:25.000Z</time>
      </trkpt>
      <trkpt lat="47.90513" lon="6.78158">
        <ele>541.79998779297</ele>
        <time>2023-08-03T17:23:31.000Z</time>
      </trkpt>
      <trkpt lat="47.90517" lon="6.78165">
        <ele>541.59997558594</ele>
        <time>2023-08-03T17:23:32.000Z</time>
      </trkpt>
      <trkpt lat="47.90537" lon="6.78193">
        <ele>541</ele>
        <time>2023-08-03T17:23:36.000Z</time>
      </trkpt>
      <trkpt lat="47.90548" lon="6.78206">
        <ele>540.79998779297</ele>
        <time>2023-08-03T17:23:38.000Z</time>
      </trkpt>
      <trkpt lat="47.90559" lon="6.78216">
        <ele>540.59997558594</ele>
        <time>2023-08-03T17:23:40.000Z</time>
      </trkpt>
      <trkpt lat="47.90597" lon="6.78236">
        <ele>540.79998779297</ele>
        <time>2023-08-03T17:23:47.000Z</time>
      </trkpt>
      <trkpt lat="47.90636" lon="6.78254">
        <ele>541.20001220703</ele>
        <time>2023-08-03T17:23:54.000Z</time>
      </trkpt>
      <trkpt lat="47.90682" lon="6.78274">
        <ele>541.59997558594</ele>
        <time>2023-08-03T17:24:02.000Z</time>
      </trkpt>
      <trkpt lat="47.90715" lon="6.7829">
        <ele>542</ele>
        <time>2023-08-03T17:24:08.000Z</time>
      </trkpt>
      <trkpt lat="47.90725" lon="6.78295">
        <ele>542.20001220703</ele>
        <time>2023-08-03T17:24:10.000Z</time>
      </trkpt>
      <trkpt lat="47.90741" lon="6.78305">
        <ele>542.40002441406</ele>
        <time>2023-08-03T17:24:13.000Z</time>
      </trkpt>
      <trkpt lat="47.9076" lon="6.78319">
        <ele>542.79998779297</ele>
        <time>2023-08-03T17:24:17.000Z</time>
      </trkpt>
      <trkpt lat="47.90778" lon="6.78331">
        <ele>543.20001220703</ele>
        <time>2023-08-03T17:24:21.000Z</time>
      </trkpt>
      <trkpt lat="47.90782" lon="6.78335">
        <ele>543.40002441406</ele>
        <time>2023-08-03T17:24:22.000Z</time>
      </trkpt>
      <trkpt lat="47.90801" lon="6.78351">
        <ele>543.79998779297</ele>
        <time>2023-08-03T17:24:26.000Z</time>
      </trkpt>
      <trkpt lat="47.90815" lon="6.78361">
        <ele>544.40002441406</ele>
        <time>2023-08-03T17:24:29.000Z</time>
      </trkpt>
      <trkpt lat="47.90842" lon="6.78384">
        <ele>544.59997558594</ele>
        <time>2023-08-03T17:24:35.000Z</time>
      </trkpt>
      <trkpt lat="47.90868" lon="6.78406">
        <ele>544.79998779297</ele>
        <time>2023-08-03T17:24:42.000Z</time>
      </trkpt>
      <trkpt lat="47.90878" lon="6.78415">
        <ele>544.79998779297</ele>
        <time>2023-08-03T17:24:45.000Z</time>
      </trkpt>
      <trkpt lat="47.90879" lon="6.78418">
        <ele>545</ele>
        <time>2023-08-03T17:24:46.000Z</time>
      </trkpt>
      <trkpt lat="47.90887" lon="6.78446">
        <ele>545</ele>
        <time>2023-08-03T17:24:52.000Z</time>
      </trkpt>
      <trkpt lat="47.90892" lon="6.7845">
        <ele>545</ele>
        <time>2023-08-03T17:24:54.000Z</time>
      </trkpt>
      <trkpt lat="47.90892" lon="6.7845">
        <ele>545</ele>
        <time>2023-08-03T17:24:56.000Z</time>
      </trkpt>
      <trkpt lat="47.90892" lon="6.7845">
        <ele>545</ele>
        <time>2023-08-03T17:24:57.000Z</time>
      </trkpt>
      <trkpt lat="47.90894" lon="6.7845">
        <ele>544.79998779297</ele>
        <time>2023-08-03T17:25:43.000Z</time>
      </trkpt>
      <trkpt lat="47.90897" lon="6.78448">
        <ele>544.79998779297</ele>
        <time>2023-08-03T17:25:45.000Z</time>
      </trkpt>
      <trkpt lat="47.90902" lon="6.78442">
        <ele>544.79998779297</ele>
        <time>2023-08-03T17:25:48.000Z</time>
      </trkpt>
      <trkpt lat="47.90906" lon="6.78442">
        <ele>545</ele>
        <time>2023-08-03T17:25:50.000Z</time>
      </trkpt>
      <trkpt lat="47.90911" lon="6.78444">
        <ele>545.59997558594</ele>
        <time>2023-08-03T17:25:52.000Z</time>
      </trkpt>
      <trkpt lat="47.90919" lon="6.78451">
        <ele>546.59997558594</ele>
        <time>2023-08-03T17:25:56.000Z</time>
      </trkpt>
      <trkpt lat="47.90921" lon="6.78454">
        <ele>546.59997558594</ele>
        <time>2023-08-03T17:25:57.000Z</time>
      </trkpt>
      <trkpt lat="47.90929" lon="6.7846">
        <ele>546.79998779297</ele>
        <time>2023-08-03T17:26:00.000Z</time>
      </trkpt>
      <trkpt lat="47.90941" lon="6.78472">
        <ele>547.59997558594</ele>
        <time>2023-08-03T17:26:04.000Z</time>
      </trkpt>
      <trkpt lat="47.90951" lon="6.78482">
        <ele>548.20001220703</ele>
        <time>2023-08-03T17:26:08.000Z</time>
      </trkpt>
      <trkpt lat="47.90965" lon="6.78497">
        <ele>548.79998779297</ele>
        <time>2023-08-03T17:26:13.000Z</time>
      </trkpt>
      <trkpt lat="47.90973" lon="6.78505">
        <ele>549.40002441406</ele>
        <time>2023-08-03T17:26:16.000Z</time>
      </trkpt>
      <trkpt lat="47.90981" lon="6.78513">
        <ele>550</ele>
        <time>2023-08-03T17:26:19.000Z</time>
      </trkpt>
      <trkpt lat="47.90999" lon="6.7853">
        <ele>550.79998779297</ele>
        <time>2023-08-03T17:26:25.000Z</time>
      </trkpt>
      <trkpt lat="47.91004" lon="6.78535">
        <ele>551.20001220703</ele>
        <time>2023-08-03T17:26:27.000Z</time>
      </trkpt>
      <trkpt lat="47.91021" lon="6.78553">
        <ele>552.20001220703</ele>
        <time>2023-08-03T17:26:33.000Z</time>
      </trkpt>
      <trkpt lat="47.91024" lon="6.78556">
        <ele>552.40002441406</ele>
        <time>2023-08-03T17:26:34.000Z</time>
      </trkpt>
      <trkpt lat="47.91038" lon="6.78571">
        <ele>553.59997558594</ele>
        <time>2023-08-03T17:26:39.000Z</time>
      </trkpt>
      <trkpt lat="47.91054" lon="6.78587">
        <ele>554.79998779297</ele>
        <time>2023-08-03T17:26:45.000Z</time>
      </trkpt>
      <trkpt lat="47.91057" lon="6.7859">
        <ele>555</ele>
        <time>2023-08-03T17:26:46.000Z</time>
      </trkpt>
      <trkpt lat="47.91068" lon="6.78601">
        <ele>555.79998779297</ele>
        <time>2023-08-03T17:26:50.000Z</time>
      </trkpt>
      <trkpt lat="47.91083" lon="6.7861">
        <ele>556.79998779297</ele>
        <time>2023-08-03T17:26:55.000Z</time>
      </trkpt>
      <trkpt lat="47.91105" lon="6.78615">
        <ele>557.79998779297</ele>
        <time>2023-08-03T17:27:01.000Z</time>
      </trkpt>
      <trkpt lat="47.91117" lon="6.78617">
        <ele>558.20001220703</ele>
        <time>2023-08-03T17:27:04.000Z</time>
      </trkpt>
      <trkpt lat="47.91145" lon="6.78626">
        <ele>558.79998779297</ele>
        <time>2023-08-03T17:27:11.000Z</time>
      </trkpt>
      <trkpt lat="47.91149" lon="6.78628">
        <ele>559</ele>
        <time>2023-08-03T17:27:12.000Z</time>
      </trkpt>
      <trkpt lat="47.91171" lon="6.78647">
        <ele>559.40002441406</ele>
        <time>2023-08-03T17:27:18.000Z</time>
      </trkpt>
      <trkpt lat="47.9118" lon="6.78655">
        <ele>559.40002441406</ele>
        <time>2023-08-03T17:27:20.000Z</time>
      </trkpt>
      <trkpt lat="47.91193" lon="6.78668">
        <ele>560</ele>
        <time>2023-08-03T17:27:24.000Z</time>
      </trkpt>
      <trkpt lat="47.91205" lon="6.78679">
        <ele>560.20001220703</ele>
        <time>2023-08-03T17:27:27.000Z</time>
      </trkpt>
      <trkpt lat="47.91234" lon="6.78709">
        <ele>561</ele>
        <time>2023-08-03T17:27:35.000Z</time>
      </trkpt>
      <trkpt lat="47.91242" lon="6.78716">
        <ele>561.20001220703</ele>
        <time>2023-08-03T17:27:37.000Z</time>
      </trkpt>
      <trkpt lat="47.91265" lon="6.78746">
        <ele>562</ele>
        <time>2023-08-03T17:27:44.000Z</time>
      </trkpt>
      <trkpt lat="47.91298" lon="6.78794">
        <ele>563.20001220703</ele>
        <time>2023-08-03T17:27:54.000Z</time>
      </trkpt>
      <trkpt lat="47.91339" lon="6.78853">
        <ele>563.40002441406</ele>
        <time>2023-08-03T17:28:05.000Z</time>
      </trkpt>
      <trkpt lat="47.91371" lon="6.78899">
        <ele>563</ele>
        <time>2023-08-03T17:28:13.000Z</time>
      </trkpt>
      <trkpt lat="47.91413" lon="6.78956">
        <ele>563.20001220703</ele>
        <time>2023-08-03T17:28:23.000Z</time>
      </trkpt>
      <trkpt lat="47.91458" lon="6.79006">
        <ele>563.20001220703</ele>
        <time>2023-08-03T17:28:33.000Z</time>
      </trkpt>
      <trkpt lat="47.91505" lon="6.79049">
        <ele>563.20001220703</ele>
        <time>2023-08-03T17:28:43.000Z</time>
      </trkpt>
      <trkpt lat="47.91537" lon="6.79075">
        <ele>563.79998779297</ele>
        <time>2023-08-03T17:28:51.000Z</time>
      </trkpt>
      <trkpt lat="47.9154" lon="6.79078">
        <ele>564</ele>
        <time>2023-08-03T17:28:52.000Z</time>
      </trkpt>
      <trkpt lat="47.91547" lon="6.79084">
        <ele>564.20001220703</ele>
        <time>2023-08-03T17:28:54.000Z</time>
      </trkpt>
      <trkpt lat="47.91564" lon="6.79097">
        <ele>565</ele>
        <time>2023-08-03T17:28:59.000Z</time>
      </trkpt>
      <trkpt lat="47.91567" lon="6.791">
        <ele>565.20001220703</ele>
        <time>2023-08-03T17:29:00.000Z</time>
      </trkpt>
      <trkpt lat="47.91582" lon="6.79112">
        <ele>565.79998779297</ele>
        <time>2023-08-03T17:29:05.000Z</time>
      </trkpt>
      <trkpt lat="47.91585" lon="6.79114">
        <ele>566.20001220703</ele>
        <time>2023-08-03T17:29:06.000Z</time>
      </trkpt>
      <trkpt lat="47.91595" lon="6.79122">
        <ele>567</ele>
        <time>2023-08-03T17:29:10.000Z</time>
      </trkpt>
      <trkpt lat="47.91598" lon="6.79124">
        <ele>567.40002441406</ele>
        <time>2023-08-03T17:29:11.000Z</time>
      </trkpt>
      <trkpt lat="47.91609" lon="6.79136">
        <ele>568.20001220703</ele>
        <time>2023-08-03T17:29:16.000Z</time>
      </trkpt>
      <trkpt lat="47.91612" lon="6.79138">
        <ele>568.40002441406</ele>
        <time>2023-08-03T17:29:17.000Z</time>
      </trkpt>
      <trkpt lat="47.91626" lon="6.79149">
        <ele>569</ele>
        <time>2023-08-03T17:29:22.000Z</time>
      </trkpt>
      <trkpt lat="47.91629" lon="6.79151">
        <ele>569.40002441406</ele>
        <time>2023-08-03T17:29:23.000Z</time>
      </trkpt>
      <trkpt lat="47.91647" lon="6.79166">
        <ele>570.40002441406</ele>
        <time>2023-08-03T17:29:29.000Z</time>
      </trkpt>
      <trkpt lat="47.91651" lon="6.79169">
        <ele>570.59997558594</ele>
        <time>2023-08-03T17:29:30.000Z</time>
      </trkpt>
      <trkpt lat="47.91662" lon="6.79178">
        <ele>571.40002441406</ele>
        <time>2023-08-03T17:29:34.000Z</time>
      </trkpt>
      <trkpt lat="47.91674" lon="6.79188">
        <ele>572.40002441406</ele>
        <time>2023-08-03T17:29:38.000Z</time>
      </trkpt>
      <trkpt lat="47.91677" lon="6.79191">
        <ele>572.59997558594</ele>
        <time>2023-08-03T17:29:39.000Z</time>
      </trkpt>
      <trkpt lat="47.91692" lon="6.79205">
        <ele>573.79998779297</ele>
        <time>2023-08-03T17:29:44.000Z</time>
      </trkpt>
      <trkpt lat="47.91697" lon="6.7921">
        <ele>574.20001220703</ele>
        <time>2023-08-03T17:29:46.000Z</time>
      </trkpt>
      <trkpt lat="47.91705" lon="6.79216">
        <ele>575</ele>
        <time>2023-08-03T17:29:49.000Z</time>
      </trkpt>
      <trkpt lat="47.91715" lon="6.79226">
        <ele>575.79998779297</ele>
        <time>2023-08-03T17:29:53.000Z</time>
      </trkpt>
      <trkpt lat="47.91717" lon="6.79228">
        <ele>576</ele>
        <time>2023-08-03T17:29:54.000Z</time>
      </trkpt>
      <trkpt lat="47.91725" lon="6.79236">
        <ele>576.59997558594</ele>
        <time>2023-08-03T17:29:57.000Z</time>
      </trkpt>
      <trkpt lat="47.9173" lon="6.7924">
        <ele>577.20001220703</ele>
        <time>2023-08-03T17:29:59.000Z</time>
      </trkpt>
      <trkpt lat="47.9175" lon="6.79263">
        <ele>578.20001220703</ele>
        <time>2023-08-03T17:30:07.000Z</time>
      </trkpt>
      <trkpt lat="47.91753" lon="6.79266">
        <ele>578.40002441406</ele>
        <time>2023-08-03T17:30:08.000Z</time>
      </trkpt>
      <trkpt lat="47.91763" lon="6.79285">
        <ele>579.40002441406</ele>
        <time>2023-08-03T17:30:13.000Z</time>
      </trkpt>
      <trkpt lat="47.91765" lon="6.79289">
        <ele>579.59997558594</ele>
        <time>2023-08-03T17:30:14.000Z</time>
      </trkpt>
      <trkpt lat="47.91773" lon="6.79314">
        <ele>580.59997558594</ele>
        <time>2023-08-03T17:30:20.000Z</time>
      </trkpt>
      <trkpt lat="47.91775" lon="6.79323">
        <ele>581</ele>
        <time>2023-08-03T17:30:22.000Z</time>
      </trkpt>
      <trkpt lat="47.91779" lon="6.79341">
        <ele>581.79998779297</ele>
        <time>2023-08-03T17:30:26.000Z</time>
      </trkpt>
      <trkpt lat="47.91786" lon="6.79376">
        <ele>583</ele>
        <time>2023-08-03T17:30:33.000Z</time>
      </trkpt>
      <trkpt lat="47.91786" lon="6.7938">
        <ele>583</ele>
        <time>2023-08-03T17:30:34.000Z</time>
      </trkpt>
      <trkpt lat="47.91791" lon="6.79406">
        <ele>584</ele>
        <time>2023-08-03T17:30:39.000Z</time>
      </trkpt>
      <trkpt lat="47.91796" lon="6.79435">
        <ele>585</ele>
        <time>2023-08-03T17:30:45.000Z</time>
      </trkpt>
      <trkpt lat="47.91797" lon="6.79439">
        <ele>585</ele>
        <time>2023-08-03T17:30:46.000Z</time>
      </trkpt>
      <trkpt lat="47.91804" lon="6.79478">
        <ele>586.20001220703</ele>
        <time>2023-08-03T17:30:54.000Z</time>
      </trkpt>
      <trkpt lat="47.91805" lon="6.79483">
        <ele>586.40002441406</ele>
        <time>2023-08-03T17:30:55.000Z</time>
      </trkpt>
      <trkpt lat="47.91809" lon="6.79507">
        <ele>587.20001220703</ele>
        <time>2023-08-03T17:31:00.000Z</time>
      </trkpt>
      <trkpt lat="47.91815" lon="6.79544">
        <ele>588.20001220703</ele>
        <time>2023-08-03T17:31:08.000Z</time>
      </trkpt>
      <trkpt lat="47.91816" lon="6.79549">
        <ele>588.40002441406</ele>
        <time>2023-08-03T17:31:09.000Z</time>
      </trkpt>
      <trkpt lat="47.91822" lon="6.79582">
        <ele>589.40002441406</ele>
        <time>2023-08-03T17:31:16.000Z</time>
      </trkpt>
      <trkpt lat="47.91825" lon="6.79596">
        <ele>590.59997558594</ele>
        <time>2023-08-03T17:31:19.000Z</time>
      </trkpt>
      <trkpt lat="47.91826" lon="6.796">
        <ele>590.59997558594</ele>
        <time>2023-08-03T17:31:20.000Z</time>
      </trkpt>
      <trkpt lat="47.91829" lon="6.79617">
        <ele>591.79998779297</ele>
        <time>2023-08-03T17:31:24.000Z</time>
      </trkpt>
      <trkpt lat="47.91831" lon="6.79627">
        <ele>592.20001220703</ele>
        <time>2023-08-03T17:31:26.000Z</time>
      </trkpt>
      <trkpt lat="47.91836" lon="6.7964">
        <ele>592.79998779297</ele>
        <time>2023-08-03T17:31:29.000Z</time>
      </trkpt>
      <trkpt lat="47.91837" lon="6.79644">
        <ele>592.79998779297</ele>
        <time>2023-08-03T17:31:30.000Z</time>
      </trkpt>
      <trkpt lat="47.91847" lon="6.79676">
        <ele>593.59997558594</ele>
        <time>2023-08-03T17:31:37.000Z</time>
      </trkpt>
      <trkpt lat="47.9185" lon="6.79686">
        <ele>593.79998779297</ele>
        <time>2023-08-03T17:31:39.000Z</time>
      </trkpt>
      <trkpt lat="47.91859" lon="6.79713">
        <ele>594.20001220703</ele>
        <time>2023-08-03T17:31:44.000Z</time>
      </trkpt>
      <trkpt lat="47.91873" lon="6.79756">
        <ele>594.20001220703</ele>
        <time>2023-08-03T17:31:50.000Z</time>
      </trkpt>
      <trkpt lat="47.91893" lon="6.79816">
        <ele>593.40002441406</ele>
        <time>2023-08-03T17:31:57.000Z</time>
      </trkpt>
      <trkpt lat="47.91911" lon="6.79873">
        <ele>592.79998779297</ele>
        <time>2023-08-03T17:32:03.000Z</time>
      </trkpt>
      <trkpt lat="47.91921" lon="6.79901">
        <ele>592.40002441406</ele>
        <time>2023-08-03T17:32:06.000Z</time>
      </trkpt>
      <trkpt lat="47.91933" lon="6.79939">
        <ele>591.79998779297</ele>
        <time>2023-08-03T17:32:10.000Z</time>
      </trkpt>
      <trkpt lat="47.91955" lon="6.80002">
        <ele>591</ele>
        <time>2023-08-03T17:32:17.000Z</time>
      </trkpt>
      <trkpt lat="47.9197" lon="6.8004">
        <ele>591.20001220703</ele>
        <time>2023-08-03T17:32:22.000Z</time>
      </trkpt>
      <trkpt lat="47.91978" lon="6.8006">
        <ele>591.40002441406</ele>
        <time>2023-08-03T17:32:25.000Z</time>
      </trkpt>
      <trkpt lat="47.91987" lon="6.80078">
        <ele>591.79998779297</ele>
        <time>2023-08-03T17:32:28.000Z</time>
      </trkpt>
      <trkpt lat="47.92005" lon="6.80119">
        <ele>592.59997558594</ele>
        <time>2023-08-03T17:32:35.000Z</time>
      </trkpt>
      <trkpt lat="47.9201" lon="6.8013">
        <ele>593</ele>
        <time>2023-08-03T17:32:37.000Z</time>
      </trkpt>
      <trkpt lat="47.92024" lon="6.80163">
        <ele>593.79998779297</ele>
        <time>2023-08-03T17:32:43.000Z</time>
      </trkpt>
      <trkpt lat="47.92031" lon="6.80179">
        <ele>594.40002441406</ele>
        <time>2023-08-03T17:32:46.000Z</time>
      </trkpt>
      <trkpt lat="47.92045" lon="6.80212">
        <ele>595.20001220703</ele>
        <time>2023-08-03T17:32:52.000Z</time>
      </trkpt>
      <trkpt lat="47.92051" lon="6.80229">
        <ele>595.40002441406</ele>
        <time>2023-08-03T17:32:55.000Z</time>
      </trkpt>
      <trkpt lat="47.92064" lon="6.80255">
        <ele>596.20001220703</ele>
        <time>2023-08-03T17:33:00.000Z</time>
      </trkpt>
      <trkpt lat="47.92067" lon="6.80259">
        <ele>596.59997558594</ele>
        <time>2023-08-03T17:33:01.000Z</time>
      </trkpt>
      <trkpt lat="47.92087" lon="6.80284">
        <ele>598</ele>
        <time>2023-08-03T17:33:07.000Z</time>
      </trkpt>
      <trkpt lat="47.9209" lon="6.80288">
        <ele>598.20001220703</ele>
        <time>2023-08-03T17:33:08.000Z</time>
      </trkpt>
      <trkpt lat="47.92115" lon="6.80314">
        <ele>599.20001220703</ele>
        <time>2023-08-03T17:33:15.000Z</time>
      </trkpt>
      <trkpt lat="47.92131" lon="6.80329">
        <ele>599.59997558594</ele>
        <time>2023-08-03T17:33:19.000Z</time>
      </trkpt>
      <trkpt lat="47.92149" lon="6.80346">
        <ele>600.20001220703</ele>
        <time>2023-08-03T17:33:24.000Z</time>
      </trkpt>
      <trkpt lat="47.92156" lon="6.80352">
        <ele>600.40002441406</ele>
        <time>2023-08-03T17:33:26.000Z</time>
      </trkpt>
      <trkpt lat="47.9216" lon="6.80355">
        <ele>600.79998779297</ele>
        <time>2023-08-03T17:33:27.000Z</time>
      </trkpt>
      <trkpt lat="47.92172" lon="6.80364">
        <ele>601.40002441406</ele>
        <time>2023-08-03T17:33:30.000Z</time>
      </trkpt>
      <trkpt lat="47.92193" lon="6.80386">
        <ele>602.40002441406</ele>
        <time>2023-08-03T17:33:36.000Z</time>
      </trkpt>
      <trkpt lat="47.92196" lon="6.80391">
        <ele>602.59997558594</ele>
        <time>2023-08-03T17:33:37.000Z</time>
      </trkpt>
      <trkpt lat="47.92215" lon="6.80424">
        <ele>603.59997558594</ele>
        <time>2023-08-03T17:33:44.000Z</time>
      </trkpt>
      <trkpt lat="47.92221" lon="6.80435">
        <ele>604</ele>
        <time>2023-08-03T17:33:46.000Z</time>
      </trkpt>
      <trkpt lat="47.9223" lon="6.80459">
        <ele>604.79998779297</ele>
        <time>2023-08-03T17:33:51.000Z</time>
      </trkpt>
      <trkpt lat="47.92234" lon="6.80469">
        <ele>605</ele>
        <time>2023-08-03T17:33:53.000Z</time>
      </trkpt>
      <trkpt lat="47.92244" lon="6.80496">
        <ele>606</ele>
        <time>2023-08-03T17:33:58.000Z</time>
      </trkpt>
      <trkpt lat="47.92247" lon="6.80512">
        <ele>606.59997558594</ele>
        <time>2023-08-03T17:34:01.000Z</time>
      </trkpt>
      <trkpt lat="47.92251" lon="6.8054">
        <ele>607</ele>
        <time>2023-08-03T17:34:06.000Z</time>
      </trkpt>
      <trkpt lat="47.92253" lon="6.80556">
        <ele>607.79998779297</ele>
        <time>2023-08-03T17:34:09.000Z</time>
      </trkpt>
      <trkpt lat="47.92255" lon="6.80567">
        <ele>608.20001220703</ele>
        <time>2023-08-03T17:34:11.000Z</time>
      </trkpt>
      <trkpt lat="47.9226" lon="6.80604">
        <ele>609.20001220703</ele>
        <time>2023-08-03T17:34:18.000Z</time>
      </trkpt>
      <trkpt lat="47.92264" lon="6.80646">
        <ele>610.40002441406</ele>
        <time>2023-08-03T17:34:26.000Z</time>
      </trkpt>
      <trkpt lat="47.92264" lon="6.80651">
        <ele>610.59997558594</ele>
        <time>2023-08-03T17:34:27.000Z</time>
      </trkpt>
      <trkpt lat="47.92267" lon="6.80671">
        <ele>611.40002441406</ele>
        <time>2023-08-03T17:34:31.000Z</time>
      </trkpt>
      <trkpt lat="47.92267" lon="6.80676">
        <ele>611.79998779297</ele>
        <time>2023-08-03T17:34:32.000Z</time>
      </trkpt>
      <trkpt lat="47.92267" lon="6.80702">
        <ele>612.59997558594</ele>
        <time>2023-08-03T17:34:37.000Z</time>
      </trkpt>
      <trkpt lat="47.92268" lon="6.80718">
        <ele>613.20001220703</ele>
        <time>2023-08-03T17:34:40.000Z</time>
      </trkpt>
      <trkpt lat="47.92268" lon="6.80733">
        <ele>613.79998779297</ele>
        <time>2023-08-03T17:34:43.000Z</time>
      </trkpt>
      <trkpt lat="47.9227" lon="6.80758">
        <ele>614.40002441406</ele>
        <time>2023-08-03T17:34:48.000Z</time>
      </trkpt>
      <trkpt lat="47.92271" lon="6.80766">
        <ele>614.79998779297</ele>
        <time>2023-08-03T17:34:50.000Z</time>
      </trkpt>
      <trkpt lat="47.92276" lon="6.80796">
        <ele>615.79998779297</ele>
        <time>2023-08-03T17:34:56.000Z</time>
      </trkpt>
      <trkpt lat="47.92285" lon="6.80836">
        <ele>617</ele>
        <time>2023-08-03T17:35:04.000Z</time>
      </trkpt>
      <trkpt lat="47.92287" lon="6.80843">
        <ele>617</ele>
        <time>2023-08-03T17:35:05.000Z</time>
      </trkpt>
      <trkpt lat="47.92295" lon="6.80871">
        <ele>618.20001220703</ele>
        <time>2023-08-03T17:35:11.000Z</time>
      </trkpt>
      <trkpt lat="47.92302" lon="6.80885">
        <ele>618.79998779297</ele>
        <time>2023-08-03T17:35:14.000Z</time>
      </trkpt>
      <trkpt lat="47.92309" lon="6.80899">
        <ele>619.40002441406</ele>
        <time>2023-08-03T17:35:17.000Z</time>
      </trkpt>
      <trkpt lat="47.92322" lon="6.80922">
        <ele>620</ele>
        <time>2023-08-03T17:35:22.000Z</time>
      </trkpt>
      <trkpt lat="47.92327" lon="6.8093">
        <ele>620.40002441406</ele>
        <time>2023-08-03T17:35:24.000Z</time>
      </trkpt>
      <trkpt lat="47.92348" lon="6.80964">
        <ele>621.20001220703</ele>
        <time>2023-08-03T17:35:32.000Z</time>
      </trkpt>
      <trkpt lat="47.9235" lon="6.80968">
        <ele>621.59997558594</ele>
        <time>2023-08-03T17:35:33.000Z</time>
      </trkpt>
      <trkpt lat="47.92375" lon="6.81003">
        <ele>622.59997558594</ele>
        <time>2023-08-03T17:35:42.000Z</time>
      </trkpt>
      <trkpt lat="47.924" lon="6.81037">
        <ele>623.79998779297</ele>
        <time>2023-08-03T17:35:51.000Z</time>
      </trkpt>
      <trkpt lat="47.92411" lon="6.81052">
        <ele>624.40002441406</ele>
        <time>2023-08-03T17:35:55.000Z</time>
      </trkpt>
      <trkpt lat="47.92419" lon="6.81065">
        <ele>624.79998779297</ele>
        <time>2023-08-03T17:35:58.000Z</time>
      </trkpt>
      <trkpt lat="47.92434" lon="6.81089">
        <ele>625.59997558594</ele>
        <time>2023-08-03T17:36:04.000Z</time>
      </trkpt>
      <trkpt lat="47.92442" lon="6.81103">
        <ele>626</ele>
        <time>2023-08-03T17:36:07.000Z</time>
      </trkpt>
      <trkpt lat="47.92454" lon="6.8113">
        <ele>626.79998779297</ele>
        <time>2023-08-03T17:36:13.000Z</time>
      </trkpt>
      <trkpt lat="47.92456" lon="6.81135">
        <ele>627.20001220703</ele>
        <time>2023-08-03T17:36:14.000Z</time>
      </trkpt>
      <trkpt lat="47.92472" lon="6.81177">
        <ele>628</ele>
        <time>2023-08-03T17:36:22.000Z</time>
      </trkpt>
      <trkpt lat="47.92476" lon="6.81187">
        <ele>628.40002441406</ele>
        <time>2023-08-03T17:36:24.000Z</time>
      </trkpt>
      <trkpt lat="47.92491" lon="6.81224">
        <ele>629.20001220703</ele>
        <time>2023-08-03T17:36:31.000Z</time>
      </trkpt>
      <trkpt lat="47.92494" lon="6.81236">
        <ele>629.40002441406</ele>
        <time>2023-08-03T17:36:33.000Z</time>
      </trkpt>
      <trkpt lat="47.92504" lon="6.81294">
        <ele>630</ele>
        <time>2023-08-03T17:36:42.000Z</time>
      </trkpt>
      <trkpt lat="47.92509" lon="6.81319">
        <ele>630.20001220703</ele>
        <time>2023-08-03T17:36:46.000Z</time>
      </trkpt>
      <trkpt lat="47.92512" lon="6.81337">
        <ele>630.59997558594</ele>
        <time>2023-08-03T17:36:49.000Z</time>
      </trkpt>
      <trkpt lat="47.92526" lon="6.81393">
        <ele>631.40002441406</ele>
        <time>2023-08-03T17:36:58.000Z</time>
      </trkpt>
      <trkpt lat="47.92527" lon="6.81397">
        <ele>631.59997558594</ele>
        <time>2023-08-03T17:36:59.000Z</time>
      </trkpt>
      <trkpt lat="47.92543" lon="6.8145">
        <ele>632.40002441406</ele>
        <time>2023-08-03T17:37:08.000Z</time>
      </trkpt>
      <trkpt lat="47.92545" lon="6.81456">
        <ele>632.40002441406</ele>
        <time>2023-08-03T17:37:09.000Z</time>
      </trkpt>
      <trkpt lat="47.92567" lon="6.81527">
        <ele>633.20001220703</ele>
        <time>2023-08-03T17:37:21.000Z</time>
      </trkpt>
      <trkpt lat="47.92572" lon="6.81545">
        <ele>633.40002441406</ele>
        <time>2023-08-03T17:37:24.000Z</time>
      </trkpt>
      <trkpt lat="47.92585" lon="6.81598">
        <ele>633.79998779297</ele>
        <time>2023-08-03T17:37:32.000Z</time>
      </trkpt>
      <trkpt lat="47.92601" lon="6.81663">
        <ele>634.20001220703</ele>
        <time>2023-08-03T17:37:42.000Z</time>
      </trkpt>
      <trkpt lat="47.9261" lon="6.81707">
        <ele>634.20001220703</ele>
        <time>2023-08-03T17:37:50.000Z</time>
      </trkpt>
      <trkpt lat="47.92612" lon="6.81716">
        <ele>634.20001220703</ele>
        <time>2023-08-03T17:37:54.000Z</time>
      </trkpt>
      <trkpt lat="47.92612" lon="6.81716">
        <ele>634.20001220703</ele>
        <time>2023-08-03T17:37:56.000Z</time>
      </trkpt>
      <trkpt lat="47.92615" lon="6.81721">
        <ele>634</ele>
        <time>2023-08-03T17:38:40.000Z</time>
      </trkpt>
      <trkpt lat="47.92617" lon="6.81727">
        <ele>634</ele>
        <time>2023-08-03T17:38:42.000Z</time>
      </trkpt>
      <trkpt lat="47.92627" lon="6.81758">
        <ele>633.79998779297</ele>
        <time>2023-08-03T17:38:48.000Z</time>
      </trkpt>
      <trkpt lat="47.92645" lon="6.81801">
        <ele>633.59997558594</ele>
        <time>2023-08-03T17:38:55.000Z</time>
      </trkpt>
      <trkpt lat="47.9267" lon="6.81839">
        <ele>632.79998779297</ele>
        <time>2023-08-03T17:39:01.000Z</time>
      </trkpt>
      <trkpt lat="47.92698" lon="6.81876">
        <ele>632.20001220703</ele>
        <time>2023-08-03T17:39:07.000Z</time>
      </trkpt>
      <trkpt lat="47.92709" lon="6.8189">
        <ele>632</ele>
        <time>2023-08-03T17:39:09.000Z</time>
      </trkpt>
      <trkpt lat="47.92744" lon="6.8193">
        <ele>631.20001220703</ele>
        <time>2023-08-03T17:39:16.000Z</time>
      </trkpt>
      <trkpt lat="47.92749" lon="6.81937">
        <ele>631.20001220703</ele>
        <time>2023-08-03T17:39:17.000Z</time>
      </trkpt>
      <trkpt lat="47.92794" lon="6.81987">
        <ele>630.20001220703</ele>
        <time>2023-08-03T17:39:25.000Z</time>
      </trkpt>
      <trkpt lat="47.9281" lon="6.82004">
        <ele>629.79998779297</ele>
        <time>2023-08-03T17:39:28.000Z</time>
      </trkpt>
      <trkpt lat="47.92837" lon="6.82035">
        <ele>629.20001220703</ele>
        <time>2023-08-03T17:39:33.000Z</time>
      </trkpt>
      <trkpt lat="47.92876" lon="6.82079">
        <ele>628.79998779297</ele>
        <time>2023-08-03T17:39:40.000Z</time>
      </trkpt>
      <trkpt lat="47.92899" lon="6.82102">
        <ele>628.40002441406</ele>
        <time>2023-08-03T17:39:44.000Z</time>
      </trkpt>
      <trkpt lat="47.92911" lon="6.82114">
        <ele>628</ele>
        <time>2023-08-03T17:39:46.000Z</time>
      </trkpt>
      <trkpt lat="47.9293" lon="6.82131">
        <ele>627.40002441406</ele>
        <time>2023-08-03T17:39:49.000Z</time>
      </trkpt>
      <trkpt lat="47.92962" lon="6.82159">
        <ele>626.40002441406</ele>
        <time>2023-08-03T17:39:54.000Z</time>
      </trkpt>
      <trkpt lat="47.92969" lon="6.82165">
        <ele>626.20001220703</ele>
        <time>2023-08-03T17:39:55.000Z</time>
      </trkpt>
      <trkpt lat="47.92989" lon="6.82181">
        <ele>625.59997558594</ele>
        <time>2023-08-03T17:39:58.000Z</time>
      </trkpt>
      <trkpt lat="47.92995" lon="6.82186">
        <ele>625.40002441406</ele>
        <time>2023-08-03T17:39:59.000Z</time>
      </trkpt>
      <trkpt lat="47.93009" lon="6.82198">
        <ele>625.20001220703</ele>
        <time>2023-08-03T17:40:01.000Z</time>
      </trkpt>
      <trkpt lat="47.93031" lon="6.82214">
        <ele>624.40002441406</ele>
        <time>2023-08-03T17:40:04.000Z</time>
      </trkpt>
      <trkpt lat="47.93038" lon="6.82219">
        <ele>624</ele>
        <time>2023-08-03T17:40:05.000Z</time>
      </trkpt>
      <trkpt lat="47.93085" lon="6.8226">
        <ele>623</ele>
        <time>2023-08-03T17:40:12.000Z</time>
      </trkpt>
      <trkpt lat="47.93092" lon="6.82266">
        <ele>623</ele>
        <time>2023-08-03T17:40:13.000Z</time>
      </trkpt>
      <trkpt lat="47.93099" lon="6.82271">
        <ele>622.79998779297</ele>
        <time>2023-08-03T17:40:14.000Z</time>
      </trkpt>
      <trkpt lat="47.93135" lon="6.82297">
        <ele>622</ele>
        <time>2023-08-03T17:40:19.000Z</time>
      </trkpt>
      <trkpt lat="47.93142" lon="6.82302">
        <ele>621.79998779297</ele>
        <time>2023-08-03T17:40:20.000Z</time>
      </trkpt>
      <trkpt lat="47.9319" lon="6.82339">
        <ele>621</ele>
        <time>2023-08-03T17:40:27.000Z</time>
      </trkpt>
      <trkpt lat="47.93211" lon="6.82354">
        <ele>620.40002441406</ele>
        <time>2023-08-03T17:40:30.000Z</time>
      </trkpt>
      <trkpt lat="47.93238" lon="6.82375">
        <ele>619.79998779297</ele>
        <time>2023-08-03T17:40:34.000Z</time>
      </trkpt>
      <trkpt lat="47.93272" lon="6.82399">
        <ele>619.20001220703</ele>
        <time>2023-08-03T17:40:39.000Z</time>
      </trkpt>
      <trkpt lat="47.93286" lon="6.82407">
        <ele>618.79998779297</ele>
        <time>2023-08-03T17:40:41.000Z</time>
      </trkpt>
      <trkpt lat="47.93343" lon="6.82437">
        <ele>617.59997558594</ele>
        <time>2023-08-03T17:40:49.000Z</time>
      </trkpt>
      <trkpt lat="47.93385" lon="6.82463">
        <ele>616.59997558594</ele>
        <time>2023-08-03T17:40:55.000Z</time>
      </trkpt>
      <trkpt lat="47.93393" lon="6.82467">
        <ele>616.40002441406</ele>
        <time>2023-08-03T17:40:56.000Z</time>
      </trkpt>
      <trkpt lat="47.93422" lon="6.82482">
        <ele>615.59997558594</ele>
        <time>2023-08-03T17:41:00.000Z</time>
      </trkpt>
      <trkpt lat="47.9343" lon="6.82486">
        <ele>615.40002441406</ele>
        <time>2023-08-03T17:41:01.000Z</time>
      </trkpt>
      <trkpt lat="47.93462" lon="6.825">
        <ele>614.59997558594</ele>
        <time>2023-08-03T17:41:05.000Z</time>
      </trkpt>
      <trkpt lat="47.93478" lon="6.82507">
        <ele>614.40002441406</ele>
        <time>2023-08-03T17:41:07.000Z</time>
      </trkpt>
      <trkpt lat="47.93502" lon="6.82517">
        <ele>613.20001220703</ele>
        <time>2023-08-03T17:41:10.000Z</time>
      </trkpt>
      <trkpt lat="47.93534" lon="6.8253">
        <ele>612.20001220703</ele>
        <time>2023-08-03T17:41:14.000Z</time>
      </trkpt>
      <trkpt lat="47.93573" lon="6.82547">
        <ele>611.20001220703</ele>
        <time>2023-08-03T17:41:19.000Z</time>
      </trkpt>
      <trkpt lat="47.93596" lon="6.82553">
        <ele>610.20001220703</ele>
        <time>2023-08-03T17:41:22.000Z</time>
      </trkpt>
      <trkpt lat="47.93634" lon="6.82564">
        <ele>609.20001220703</ele>
        <time>2023-08-03T17:41:27.000Z</time>
      </trkpt>
      <trkpt lat="47.93642" lon="6.82567">
        <ele>608.79998779297</ele>
        <time>2023-08-03T17:41:28.000Z</time>
      </trkpt>
      <trkpt lat="47.93681" lon="6.82586">
        <ele>607.59997558594</ele>
        <time>2023-08-03T17:41:33.000Z</time>
      </trkpt>
      <trkpt lat="47.93696" lon="6.82594">
        <ele>607.20001220703</ele>
        <time>2023-08-03T17:41:35.000Z</time>
      </trkpt>
      <trkpt lat="47.93725" lon="6.82609">
        <ele>606.40002441406</ele>
        <time>2023-08-03T17:41:39.000Z</time>
      </trkpt>
      <trkpt lat="47.9375" lon="6.82624">
        <ele>605.59997558594</ele>
        <time>2023-08-03T17:41:42.000Z</time>
      </trkpt>
      <trkpt lat="47.93764" lon="6.82632">
        <ele>605.20001220703</ele>
        <time>2023-08-03T17:41:44.000Z</time>
      </trkpt>
      <trkpt lat="47.93771" lon="6.82636">
        <ele>605</ele>
        <time>2023-08-03T17:41:45.000Z</time>
      </trkpt>
      <trkpt lat="47.93788" lon="6.82647">
        <ele>604.59997558594</ele>
        <time>2023-08-03T17:41:47.000Z</time>
      </trkpt>
      <trkpt lat="47.93803" lon="6.82656">
        <ele>604.20001220703</ele>
        <time>2023-08-03T17:41:49.000Z</time>
      </trkpt>
      <trkpt lat="47.93828" lon="6.8267">
        <ele>603.59997558594</ele>
        <time>2023-08-03T17:41:52.000Z</time>
      </trkpt>
      <trkpt lat="47.9385" lon="6.82686">
        <ele>603</ele>
        <time>2023-08-03T17:41:55.000Z</time>
      </trkpt>
      <trkpt lat="47.93865" lon="6.82701">
        <ele>602.40002441406</ele>
        <time>2023-08-03T17:41:57.000Z</time>
      </trkpt>
      <trkpt lat="47.93879" lon="6.82716">
        <ele>601.79998779297</ele>
        <time>2023-08-03T17:41:59.000Z</time>
      </trkpt>
      <trkpt lat="47.93913" lon="6.82751">
        <ele>600.79998779297</ele>
        <time>2023-08-03T17:42:04.000Z</time>
      </trkpt>
      <trkpt lat="47.93927" lon="6.82764">
        <ele>600.20001220703</ele>
        <time>2023-08-03T17:42:06.000Z</time>
      </trkpt>
      <trkpt lat="47.93946" lon="6.82786">
        <ele>600</ele>
        <time>2023-08-03T17:42:09.000Z</time>
      </trkpt>
      <trkpt lat="47.93977" lon="6.8282">
        <ele>599</ele>
        <time>2023-08-03T17:42:14.000Z</time>
      </trkpt>
      <trkpt lat="47.93991" lon="6.82835">
        <ele>598.59997558594</ele>
        <time>2023-08-03T17:42:16.000Z</time>
      </trkpt>
      <trkpt lat="47.94017" lon="6.82865">
        <ele>597.59997558594</ele>
        <time>2023-08-03T17:42:20.000Z</time>
      </trkpt>
      <trkpt lat="47.9405" lon="6.82905">
        <ele>596.59997558594</ele>
        <time>2023-08-03T17:42:25.000Z</time>
      </trkpt>
      <trkpt lat="47.94086" lon="6.8296">
        <ele>595.40002441406</ele>
        <time>2023-08-03T17:42:31.000Z</time>
      </trkpt>
      <trkpt lat="47.94113" lon="6.8301">
        <ele>594.20001220703</ele>
        <time>2023-08-03T17:42:36.000Z</time>
      </trkpt>
      <trkpt lat="47.94131" lon="6.83038">
        <ele>593.79998779297</ele>
        <time>2023-08-03T17:42:39.000Z</time>
      </trkpt>
      <trkpt lat="47.94137" lon="6.83044">
        <ele>593.40002441406</ele>
        <time>2023-08-03T17:42:40.000Z</time>
      </trkpt>
      <trkpt lat="47.94144" lon="6.83051">
        <ele>593.20001220703</ele>
        <time>2023-08-03T17:42:41.000Z</time>
      </trkpt>
      <trkpt lat="47.94176" lon="6.83077">
        <ele>592.40002441406</ele>
        <time>2023-08-03T17:42:45.000Z</time>
      </trkpt>
      <trkpt lat="47.94189" lon="6.83089">
        <ele>591.79998779297</ele>
        <time>2023-08-03T17:42:47.000Z</time>
      </trkpt>
      <trkpt lat="47.94226" lon="6.83121">
        <ele>590.59997558594</ele>
        <time>2023-08-03T17:42:52.000Z</time>
      </trkpt>
      <trkpt lat="47.9424" lon="6.83135">
        <ele>590.20001220703</ele>
        <time>2023-08-03T17:42:54.000Z</time>
      </trkpt>
      <trkpt lat="47.94271" lon="6.83161">
        <ele>589.40002441406</ele>
        <time>2023-08-03T17:42:58.000Z</time>
      </trkpt>
      <trkpt lat="47.94306" lon="6.83197">
        <ele>588</ele>
        <time>2023-08-03T17:43:03.000Z</time>
      </trkpt>
      <trkpt lat="47.94354" lon="6.83243">
        <ele>586.79998779297</ele>
        <time>2023-08-03T17:43:10.000Z</time>
      </trkpt>
      <trkpt lat="47.94377" lon="6.83252">
        <ele>586.20001220703</ele>
        <time>2023-08-03T17:43:13.000Z</time>
      </trkpt>
      <trkpt lat="47.94385" lon="6.83254">
        <ele>586</ele>
        <time>2023-08-03T17:43:14.000Z</time>
      </trkpt>
      <trkpt lat="47.94392" lon="6.83254">
        <ele>585.59997558594</ele>
        <time>2023-08-03T17:43:15.000Z</time>
      </trkpt>
      <trkpt lat="47.944" lon="6.83254">
        <ele>585.40002441406</ele>
        <time>2023-08-03T17:43:16.000Z</time>
      </trkpt>
      <trkpt lat="47.94417" lon="6.83251">
        <ele>585</ele>
        <time>2023-08-03T17:43:18.000Z</time>
      </trkpt>
      <trkpt lat="47.94425" lon="6.83249">
        <ele>584.40002441406</ele>
        <time>2023-08-03T17:43:19.000Z</time>
      </trkpt>
      <trkpt lat="47.94451" lon="6.83236">
        <ele>583.20001220703</ele>
        <time>2023-08-03T17:43:22.000Z</time>
      </trkpt>
      <trkpt lat="47.94465" lon="6.8322">
        <ele>582.20001220703</ele>
        <time>2023-08-03T17:43:24.000Z</time>
      </trkpt>
      <trkpt lat="47.94471" lon="6.8321">
        <ele>582</ele>
        <time>2023-08-03T17:43:25.000Z</time>
      </trkpt>
      <trkpt lat="47.94484" lon="6.83191">
        <ele>580.79998779297</ele>
        <time>2023-08-03T17:43:27.000Z</time>
      </trkpt>
      <trkpt lat="47.94506" lon="6.83163">
        <ele>579.79998779297</ele>
        <time>2023-08-03T17:43:30.000Z</time>
      </trkpt>
      <trkpt lat="47.94514" lon="6.83156">
        <ele>579.20001220703</ele>
        <time>2023-08-03T17:43:31.000Z</time>
      </trkpt>
      <trkpt lat="47.94523" lon="6.8315">
        <ele>578.40002441406</ele>
        <time>2023-08-03T17:43:32.000Z</time>
      </trkpt>
      <trkpt lat="47.94539" lon="6.83139">
        <ele>577.20001220703</ele>
        <time>2023-08-03T17:43:34.000Z</time>
      </trkpt>
      <trkpt lat="47.94556" lon="6.8313">
        <ele>576.40002441406</ele>
        <time>2023-08-03T17:43:36.000Z</time>
      </trkpt>
      <trkpt lat="47.94564" lon="6.83125">
        <ele>576</ele>
        <time>2023-08-03T17:43:37.000Z</time>
      </trkpt>
      <trkpt lat="47.94597" lon="6.83107">
        <ele>574.79998779297</ele>
        <time>2023-08-03T17:43:41.000Z</time>
      </trkpt>
      <trkpt lat="47.94623" lon="6.83095">
        <ele>573.79998779297</ele>
        <time>2023-08-03T17:43:44.000Z</time>
      </trkpt>
      <trkpt lat="47.94658" lon="6.83076">
        <ele>572.59997558594</ele>
        <time>2023-08-03T17:43:48.000Z</time>
      </trkpt>
      <trkpt lat="47.94685" lon="6.83063">
        <ele>571.59997558594</ele>
        <time>2023-08-03T17:43:51.000Z</time>
      </trkpt>
      <trkpt lat="47.94694" lon="6.83058">
        <ele>571.40002441406</ele>
        <time>2023-08-03T17:43:52.000Z</time>
      </trkpt>
      <trkpt lat="47.94712" lon="6.83048">
        <ele>570</ele>
        <time>2023-08-03T17:43:54.000Z</time>
      </trkpt>
      <trkpt lat="47.9475" lon="6.83028">
        <ele>568.59997558594</ele>
        <time>2023-08-03T17:43:58.000Z</time>
      </trkpt>
      <trkpt lat="47.94768" lon="6.83017">
        <ele>567.79998779297</ele>
        <time>2023-08-03T17:44:00.000Z</time>
      </trkpt>
      <trkpt lat="47.94777" lon="6.83011">
        <ele>567</ele>
        <time>2023-08-03T17:44:01.000Z</time>
      </trkpt>
      <trkpt lat="47.94786" lon="6.83003">
        <ele>566.59997558594</ele>
        <time>2023-08-03T17:44:02.000Z</time>
      </trkpt>
      <trkpt lat="47.948" lon="6.82983">
        <ele>565.59997558594</ele>
        <time>2023-08-03T17:44:04.000Z</time>
      </trkpt>
      <trkpt lat="47.94812" lon="6.82958">
        <ele>564.40002441406</ele>
        <time>2023-08-03T17:44:06.000Z</time>
      </trkpt>
      <trkpt lat="47.94817" lon="6.82944">
        <ele>564.20001220703</ele>
        <time>2023-08-03T17:44:07.000Z</time>
      </trkpt>
      <trkpt lat="47.9483" lon="6.82902">
        <ele>562.59997558594</ele>
        <time>2023-08-03T17:44:10.000Z</time>
      </trkpt>
      <trkpt lat="47.94844" lon="6.82862">
        <ele>561</ele>
        <time>2023-08-03T17:44:13.000Z</time>
      </trkpt>
      <trkpt lat="47.9485" lon="6.8285">
        <ele>560.59997558594</ele>
        <time>2023-08-03T17:44:14.000Z</time>
      </trkpt>
      <trkpt lat="47.94864" lon="6.82827">
        <ele>559.79998779297</ele>
        <time>2023-08-03T17:44:16.000Z</time>
      </trkpt>
      <trkpt lat="47.9488" lon="6.82809">
        <ele>558.79998779297</ele>
        <time>2023-08-03T17:44:18.000Z</time>
      </trkpt>
      <trkpt lat="47.94891" lon="6.828">
        <ele>558.59997558594</ele>
        <time>2023-08-03T17:44:19.000Z</time>
      </trkpt>
      <trkpt lat="47.94899" lon="6.82795">
        <ele>557.79998779297</ele>
        <time>2023-08-03T17:44:20.000Z</time>
      </trkpt>
      <trkpt lat="47.94909" lon="6.82791">
        <ele>557.20001220703</ele>
        <time>2023-08-03T17:44:21.000Z</time>
      </trkpt>
      <trkpt lat="47.94919" lon="6.82787">
        <ele>556.59997558594</ele>
        <time>2023-08-03T17:44:22.000Z</time>
      </trkpt>
      <trkpt lat="47.9493" lon="6.82784">
        <ele>555.79998779297</ele>
        <time>2023-08-03T17:44:23.000Z</time>
      </trkpt>
      <trkpt lat="47.94964" lon="6.82784">
        <ele>554.40002441406</ele>
        <time>2023-08-03T17:44:26.000Z</time>
      </trkpt>
      <trkpt lat="47.94985" lon="6.82789">
        <ele>553.40002441406</ele>
        <time>2023-08-03T17:44:28.000Z</time>
      </trkpt>
      <trkpt lat="47.95008" lon="6.82794">
        <ele>552</ele>
        <time>2023-08-03T17:44:30.000Z</time>
      </trkpt>
      <trkpt lat="47.9504" lon="6.82802">
        <ele>550.59997558594</ele>
        <time>2023-08-03T17:44:33.000Z</time>
      </trkpt>
      <trkpt lat="47.9506" lon="6.82804">
        <ele>549.59997558594</ele>
        <time>2023-08-03T17:44:35.000Z</time>
      </trkpt>
      <trkpt lat="47.9507" lon="6.82802">
        <ele>549.20001220703</ele>
        <time>2023-08-03T17:44:36.000Z</time>
      </trkpt>
      <trkpt lat="47.9509" lon="6.82795">
        <ele>548.59997558594</ele>
        <time>2023-08-03T17:44:38.000Z</time>
      </trkpt>
      <trkpt lat="47.95108" lon="6.82782">
        <ele>547.79998779297</ele>
        <time>2023-08-03T17:44:40.000Z</time>
      </trkpt>
      <trkpt lat="47.95124" lon="6.82766">
        <ele>547.20001220703</ele>
        <time>2023-08-03T17:44:42.000Z</time>
      </trkpt>
      <trkpt lat="47.95136" lon="6.82748">
        <ele>546.20001220703</ele>
        <time>2023-08-03T17:44:44.000Z</time>
      </trkpt>
      <trkpt lat="47.95149" lon="6.82726">
        <ele>545.59997558594</ele>
        <time>2023-08-03T17:44:46.000Z</time>
      </trkpt>
      <trkpt lat="47.95175" lon="6.8268">
        <ele>544.59997558594</ele>
        <time>2023-08-03T17:44:50.000Z</time>
      </trkpt>
      <trkpt lat="47.95181" lon="6.82668">
        <ele>543.59997558594</ele>
        <time>2023-08-03T17:44:51.000Z</time>
      </trkpt>
      <trkpt lat="47.952" lon="6.82631">
        <ele>542.40002441406</ele>
        <time>2023-08-03T17:44:54.000Z</time>
      </trkpt>
      <trkpt lat="47.9522" lon="6.82595">
        <ele>541</ele>
        <time>2023-08-03T17:44:57.000Z</time>
      </trkpt>
      <trkpt lat="47.95253" lon="6.82551">
        <ele>539.59997558594</ele>
        <time>2023-08-03T17:45:01.000Z</time>
      </trkpt>
      <trkpt lat="47.9526" lon="6.82543">
        <ele>539.20001220703</ele>
        <time>2023-08-03T17:45:02.000Z</time>
      </trkpt>
      <trkpt lat="47.95279" lon="6.82523">
        <ele>538</ele>
        <time>2023-08-03T17:45:04.000Z</time>
      </trkpt>
      <trkpt lat="47.95299" lon="6.82509">
        <ele>537</ele>
        <time>2023-08-03T17:45:06.000Z</time>
      </trkpt>
      <trkpt lat="47.95307" lon="6.82505">
        <ele>536.79998779297</ele>
        <time>2023-08-03T17:45:07.000Z</time>
      </trkpt>
      <trkpt lat="47.95319" lon="6.825">
        <ele>536.20001220703</ele>
        <time>2023-08-03T17:45:08.000Z</time>
      </trkpt>
      <trkpt lat="47.95329" lon="6.82497">
        <ele>535.59997558594</ele>
        <time>2023-08-03T17:45:09.000Z</time>
      </trkpt>
      <trkpt lat="47.95338" lon="6.82496">
        <ele>535.59997558594</ele>
        <time>2023-08-03T17:45:10.000Z</time>
      </trkpt>
      <trkpt lat="47.95364" lon="6.82491">
        <ele>534.59997558594</ele>
        <time>2023-08-03T17:45:13.000Z</time>
      </trkpt>
      <trkpt lat="47.95373" lon="6.82488">
        <ele>534.20001220703</ele>
        <time>2023-08-03T17:45:14.000Z</time>
      </trkpt>
      <trkpt lat="47.95381" lon="6.82484">
        <ele>534</ele>
        <time>2023-08-03T17:45:15.000Z</time>
      </trkpt>
      <trkpt lat="47.95387" lon="6.82478">
        <ele>533.59997558594</ele>
        <time>2023-08-03T17:45:16.000Z</time>
      </trkpt>
      <trkpt lat="47.95392" lon="6.82472">
        <ele>533.40002441406</ele>
        <time>2023-08-03T17:45:17.000Z</time>
      </trkpt>
      <trkpt lat="47.95402" lon="6.82456">
        <ele>532.79998779297</ele>
        <time>2023-08-03T17:45:19.000Z</time>
      </trkpt>
      <trkpt lat="47.95406" lon="6.82449">
        <ele>532.20001220703</ele>
        <time>2023-08-03T17:45:20.000Z</time>
      </trkpt>
      <trkpt lat="47.9542" lon="6.82427">
        <ele>531.40002441406</ele>
        <time>2023-08-03T17:45:24.000Z</time>
      </trkpt>
      <trkpt lat="47.95423" lon="6.82423">
        <ele>531</ele>
        <time>2023-08-03T17:45:25.000Z</time>
      </trkpt>
      <trkpt lat="47.95435" lon="6.82405">
        <ele>530.20001220703</ele>
        <time>2023-08-03T17:45:29.000Z</time>
      </trkpt>
      <trkpt lat="47.95437" lon="6.824">
        <ele>530</ele>
        <time>2023-08-03T17:45:30.000Z</time>
      </trkpt>
      <trkpt lat="47.95439" lon="6.82393">
        <ele>529.79998779297</ele>
        <time>2023-08-03T17:45:31.000Z</time>
      </trkpt>
      <trkpt lat="47.95439" lon="6.8238">
        <ele>529.59997558594</ele>
        <time>2023-08-03T17:45:33.000Z</time>
      </trkpt>
      <trkpt lat="47.95439" lon="6.82371">
        <ele>529.59997558594</ele>
        <time>2023-08-03T17:45:34.000Z</time>
      </trkpt>
      <trkpt lat="47.95439" lon="6.82323">
        <ele>529.59997558594</ele>
        <time>2023-08-03T17:45:40.000Z</time>
      </trkpt>
      <trkpt lat="47.95438" lon="6.823">
        <ele>530</ele>
        <time>2023-08-03T17:45:43.000Z</time>
      </trkpt>
      <trkpt lat="47.95434" lon="6.82276">
        <ele>530</ele>
        <time>2023-08-03T17:45:46.000Z</time>
      </trkpt>
      <trkpt lat="47.95432" lon="6.82269">
        <ele>530</ele>
        <time>2023-08-03T17:45:47.000Z</time>
      </trkpt>
      <trkpt lat="47.9542" lon="6.82239">
        <ele>530.20001220703</ele>
        <time>2023-08-03T17:45:51.000Z</time>
      </trkpt>
      <trkpt lat="47.95402" lon="6.82188">
        <ele>529.79998779297</ele>
        <time>2023-08-03T17:45:57.000Z</time>
      </trkpt>
      <trkpt lat="47.95389" lon="6.82133">
        <ele>529</ele>
        <time>2023-08-03T17:46:03.000Z</time>
      </trkpt>
      <trkpt lat="47.95386" lon="6.82104">
        <ele>528.59997558594</ele>
        <time>2023-08-03T17:46:06.000Z</time>
      </trkpt>
      <trkpt lat="47.95381" lon="6.82065">
        <ele>528.20001220703</ele>
        <time>2023-08-03T17:46:10.000Z</time>
      </trkpt>
      <trkpt lat="47.95369" lon="6.82017">
        <ele>527.59997558594</ele>
        <time>2023-08-03T17:46:15.000Z</time>
      </trkpt>
      <trkpt lat="47.95364" lon="6.81999">
        <ele>527.20001220703</ele>
        <time>2023-08-03T17:46:17.000Z</time>
      </trkpt>
      <trkpt lat="47.95344" lon="6.81958">
        <ele>526.59997558594</ele>
        <time>2023-08-03T17:46:22.000Z</time>
      </trkpt>
      <trkpt lat="47.95339" lon="6.8195">
        <ele>526.40002441406</ele>
        <time>2023-08-03T17:46:23.000Z</time>
      </trkpt>
      <trkpt lat="47.9531" lon="6.81903">
        <ele>525.40002441406</ele>
        <time>2023-08-03T17:46:29.000Z</time>
      </trkpt>
      <trkpt lat="47.9529" lon="6.8187">
        <ele>524.79998779297</ele>
        <time>2023-08-03T17:46:33.000Z</time>
      </trkpt>
      <trkpt lat="47.9528" lon="6.81854">
        <ele>524.40002441406</ele>
        <time>2023-08-03T17:46:35.000Z</time>
      </trkpt>
      <trkpt lat="47.95261" lon="6.81819">
        <ele>523.20001220703</ele>
        <time>2023-08-03T17:46:39.000Z</time>
      </trkpt>
      <trkpt lat="47.95244" lon="6.81782">
        <ele>522</ele>
        <time>2023-08-03T17:46:43.000Z</time>
      </trkpt>
      <trkpt lat="47.95238" lon="6.81739">
        <ele>521.20001220703</ele>
        <time>2023-08-03T17:46:47.000Z</time>
      </trkpt>
      <trkpt lat="47.95237" lon="6.81728">
        <ele>520.79998779297</ele>
        <time>2023-08-03T17:46:48.000Z</time>
      </trkpt>
      <trkpt lat="47.95227" lon="6.81668">
        <ele>519.59997558594</ele>
        <time>2023-08-03T17:46:53.000Z</time>
      </trkpt>
      <trkpt lat="47.95223" lon="6.81629">
        <ele>518.40002441406</ele>
        <time>2023-08-03T17:46:56.000Z</time>
      </trkpt>
      <trkpt lat="47.95221" lon="6.8159">
        <ele>517.40002441406</ele>
        <time>2023-08-03T17:46:59.000Z</time>
      </trkpt>
      <trkpt lat="47.9522" lon="6.81577">
        <ele>516.79998779297</ele>
        <time>2023-08-03T17:47:00.000Z</time>
      </trkpt>
      <trkpt lat="47.95218" lon="6.81537">
        <ele>515.79998779297</ele>
        <time>2023-08-03T17:47:03.000Z</time>
      </trkpt>
      <trkpt lat="47.95218" lon="6.81484">
        <ele>514.20001220703</ele>
        <time>2023-08-03T17:47:07.000Z</time>
      </trkpt>
      <trkpt lat="47.95218" lon="6.81471">
        <ele>513.79998779297</ele>
        <time>2023-08-03T17:47:08.000Z</time>
      </trkpt>
      <trkpt lat="47.95221" lon="6.81432">
        <ele>513.20001220703</ele>
        <time>2023-08-03T17:47:11.000Z</time>
      </trkpt>
      <trkpt lat="47.95226" lon="6.81381">
        <ele>511.60000610352</ele>
        <time>2023-08-03T17:47:15.000Z</time>
      </trkpt>
      <trkpt lat="47.9523" lon="6.81342">
        <ele>511</ele>
        <time>2023-08-03T17:47:18.000Z</time>
      </trkpt>
      <trkpt lat="47.9523" lon="6.81328">
        <ele>510.39999389648</ele>
        <time>2023-08-03T17:47:19.000Z</time>
      </trkpt>
      <trkpt lat="47.95229" lon="6.81289">
        <ele>509.20001220703</ele>
        <time>2023-08-03T17:47:22.000Z</time>
      </trkpt>
      <trkpt lat="47.95228" lon="6.81275">
        <ele>509</ele>
        <time>2023-08-03T17:47:23.000Z</time>
      </trkpt>
      <trkpt lat="47.95223" lon="6.81248">
        <ele>508.20001220703</ele>
        <time>2023-08-03T17:47:25.000Z</time>
      </trkpt>
      <trkpt lat="47.95213" lon="6.81195">
        <ele>506.60000610352</ele>
        <time>2023-08-03T17:47:29.000Z</time>
      </trkpt>
      <trkpt lat="47.95207" lon="6.81153">
        <ele>505.20001220703</ele>
        <time>2023-08-03T17:47:32.000Z</time>
      </trkpt>
      <trkpt lat="47.95204" lon="6.8111">
        <ele>503.79998779297</ele>
        <time>2023-08-03T17:47:35.000Z</time>
      </trkpt>
      <trkpt lat="47.95204" lon="6.8107">
        <ele>502.79998779297</ele>
        <time>2023-08-03T17:47:38.000Z</time>
      </trkpt>
      <trkpt lat="47.95204" lon="6.81033">
        <ele>502</ele>
        <time>2023-08-03T17:47:41.000Z</time>
      </trkpt>
      <trkpt lat="47.95204" lon="6.81021">
        <ele>501.60000610352</ele>
        <time>2023-08-03T17:47:42.000Z</time>
      </trkpt>
      <trkpt lat="47.952" lon="6.80975">
        <ele>501.60000610352</ele>
        <time>2023-08-03T17:47:46.000Z</time>
      </trkpt>
      <trkpt lat="47.95186" lon="6.80925">
        <ele>501.60000610352</ele>
        <time>2023-08-03T17:47:51.000Z</time>
      </trkpt>
      <trkpt lat="47.95158" lon="6.80852">
        <ele>501.39999389648</ele>
        <time>2023-08-03T17:47:59.000Z</time>
      </trkpt>
      <trkpt lat="47.95133" lon="6.80796">
        <ele>501.20001220703</ele>
        <time>2023-08-03T17:48:06.000Z</time>
      </trkpt>
      <trkpt lat="47.95113" lon="6.80742">
        <ele>501</ele>
        <time>2023-08-03T17:48:12.000Z</time>
      </trkpt>
      <trkpt lat="47.95111" lon="6.80731">
        <ele>500.79998779297</ele>
        <time>2023-08-03T17:48:13.000Z</time>
      </trkpt>
      <trkpt lat="47.9511" lon="6.80723">
        <ele>500.60000610352</ele>
        <time>2023-08-03T17:48:14.000Z</time>
      </trkpt>
      <trkpt lat="47.95108" lon="6.80701">
        <ele>500.39999389648</ele>
        <time>2023-08-03T17:48:16.000Z</time>
      </trkpt>
      <trkpt lat="47.95109" lon="6.80682">
        <ele>500.39999389648</ele>
        <time>2023-08-03T17:48:18.000Z</time>
      </trkpt>
      <trkpt lat="47.95111" lon="6.80654">
        <ele>500.39999389648</ele>
        <time>2023-08-03T17:48:21.000Z</time>
      </trkpt>
      <trkpt lat="47.95112" lon="6.80628">
        <ele>500.39999389648</ele>
        <time>2023-08-03T17:48:24.000Z</time>
      </trkpt>
      <trkpt lat="47.9511" lon="6.80611">
        <ele>500.60000610352</ele>
        <time>2023-08-03T17:48:26.000Z</time>
      </trkpt>
      <trkpt lat="47.95104" lon="6.80593">
        <ele>500.60000610352</ele>
        <time>2023-08-03T17:48:28.000Z</time>
      </trkpt>
      <trkpt lat="47.95094" lon="6.8057">
        <ele>500.39999389648</ele>
        <time>2023-08-03T17:48:31.000Z</time>
      </trkpt>
      <trkpt lat="47.95076" lon="6.80519">
        <ele>500.39999389648</ele>
        <time>2023-08-03T17:48:37.000Z</time>
      </trkpt>
      <trkpt lat="47.9506" lon="6.8045">
        <ele>500.39999389648</ele>
        <time>2023-08-03T17:48:45.000Z</time>
      </trkpt>
      <trkpt lat="47.95046" lon="6.80396">
        <ele>500.39999389648</ele>
        <time>2023-08-03T17:48:51.000Z</time>
      </trkpt>
      <trkpt lat="47.95041" lon="6.80378">
        <ele>500</ele>
        <time>2023-08-03T17:48:53.000Z</time>
      </trkpt>
      <trkpt lat="47.95034" lon="6.80351">
        <ele>499.79998779297</ele>
        <time>2023-08-03T17:48:56.000Z</time>
      </trkpt>
      <trkpt lat="47.95026" lon="6.80324">
        <ele>499.39999389648</ele>
        <time>2023-08-03T17:48:59.000Z</time>
      </trkpt>
      <trkpt lat="47.95013" lon="6.80282">
        <ele>499.39999389648</ele>
        <time>2023-08-03T17:49:04.000Z</time>
      </trkpt>
      <trkpt lat="47.94992" lon="6.80234">
        <ele>499</ele>
        <time>2023-08-03T17:49:10.000Z</time>
      </trkpt>
      <trkpt lat="47.94966" lon="6.80187">
        <ele>498.39999389648</ele>
        <time>2023-08-03T17:49:16.000Z</time>
      </trkpt>
      <trkpt lat="47.94962" lon="6.8018">
        <ele>498.20001220703</ele>
        <time>2023-08-03T17:49:17.000Z</time>
      </trkpt>
      <trkpt lat="47.94924" lon="6.80126">
        <ele>497.39999389648</ele>
        <time>2023-08-03T17:49:25.000Z</time>
      </trkpt>
      <trkpt lat="47.94919" lon="6.80119">
        <ele>497.39999389648</ele>
        <time>2023-08-03T17:49:26.000Z</time>
      </trkpt>
      <trkpt lat="47.94882" lon="6.80075">
        <ele>496.20001220703</ele>
        <time>2023-08-03T17:49:33.000Z</time>
      </trkpt>
      <trkpt lat="47.94839" lon="6.80026">
        <ele>495.39999389648</ele>
        <time>2023-08-03T17:49:41.000Z</time>
      </trkpt>
      <trkpt lat="47.94833" lon="6.8002">
        <ele>495.20001220703</ele>
        <time>2023-08-03T17:49:42.000Z</time>
      </trkpt>
      <trkpt lat="47.94815" lon="6.79991">
        <ele>495</ele>
        <time>2023-08-03T17:49:46.000Z</time>
      </trkpt>
      <trkpt lat="47.94812" lon="6.79982">
        <ele>495</ele>
        <time>2023-08-03T17:49:47.000Z</time>
      </trkpt>
      <trkpt lat="47.94794" lon="6.79908">
        <ele>494.20001220703</ele>
        <time>2023-08-03T17:49:55.000Z</time>
      </trkpt>
      <trkpt lat="47.94777" lon="6.79831">
        <ele>493.60000610352</ele>
        <time>2023-08-03T17:50:03.000Z</time>
      </trkpt>
      <trkpt lat="47.9477" lon="6.798">
        <ele>493.39999389648</ele>
        <time>2023-08-03T17:50:06.000Z</time>
      </trkpt>
      <trkpt lat="47.94764" lon="6.79773">
        <ele>493.20001220703</ele>
        <time>2023-08-03T17:50:09.000Z</time>
      </trkpt>
      <trkpt lat="47.9475" lon="6.79701">
        <ele>492.39999389648</ele>
        <time>2023-08-03T17:50:16.000Z</time>
      </trkpt>
      <trkpt lat="47.94749" lon="6.79673">
        <ele>491.79998779297</ele>
        <time>2023-08-03T17:50:19.000Z</time>
      </trkpt>
      <trkpt lat="47.9475" lon="6.79643">
        <ele>491.60000610352</ele>
        <time>2023-08-03T17:50:22.000Z</time>
      </trkpt>
      <trkpt lat="47.94754" lon="6.79571">
        <ele>491.20001220703</ele>
        <time>2023-08-03T17:50:29.000Z</time>
      </trkpt>
      <trkpt lat="47.94755" lon="6.79561">
        <ele>491.20001220703</ele>
        <time>2023-08-03T17:50:30.000Z</time>
      </trkpt>
      <trkpt lat="47.94757" lon="6.79533">
        <ele>491</ele>
        <time>2023-08-03T17:50:33.000Z</time>
      </trkpt>
      <trkpt lat="47.94759" lon="6.79512">
        <ele>490.79998779297</ele>
        <time>2023-08-03T17:50:35.000Z</time>
      </trkpt>
      <trkpt lat="47.94765" lon="6.79447">
        <ele>490.39999389648</ele>
        <time>2023-08-03T17:50:42.000Z</time>
      </trkpt>
      <trkpt lat="47.94772" lon="6.79371">
        <ele>490.20001220703</ele>
        <time>2023-08-03T17:50:50.000Z</time>
      </trkpt>
      <trkpt lat="47.94782" lon="6.7929">
        <ele>489.79998779297</ele>
        <time>2023-08-03T17:50:59.000Z</time>
      </trkpt>
      <trkpt lat="47.94783" lon="6.79281">
        <ele>489.79998779297</ele>
        <time>2023-08-03T17:51:00.000Z</time>
      </trkpt>
      <trkpt lat="47.94794" lon="6.79199">
        <ele>489.79998779297</ele>
        <time>2023-08-03T17:51:09.000Z</time>
      </trkpt>
      <trkpt lat="47.94795" lon="6.7919">
        <ele>489.79998779297</ele>
        <time>2023-08-03T17:51:10.000Z</time>
      </trkpt>
      <trkpt lat="47.94803" lon="6.7912">
        <ele>489.20001220703</ele>
        <time>2023-08-03T17:51:18.000Z</time>
      </trkpt>
      <trkpt lat="47.94807" lon="6.79097">
        <ele>488.79998779297</ele>
        <time>2023-08-03T17:51:21.000Z</time>
      </trkpt>
      <trkpt lat="47.94813" lon="6.79075">
        <ele>488.60000610352</ele>
        <time>2023-08-03T17:51:24.000Z</time>
      </trkpt>
      <trkpt lat="47.94825" lon="6.79024">
        <ele>488</ele>
        <time>2023-08-03T17:51:32.000Z</time>
      </trkpt>
      <trkpt lat="47.94827" lon="6.79005">
        <ele>487.79998779297</ele>
        <time>2023-08-03T17:51:35.000Z</time>
      </trkpt>
      <trkpt lat="47.94829" lon="6.78997">
        <ele>487.60000610352</ele>
        <time>2023-08-03T17:51:37.000Z</time>
      </trkpt>
      <trkpt lat="47.94833" lon="6.78989">
        <ele>487.60000610352</ele>
        <time>2023-08-03T17:51:41.000Z</time>
      </trkpt>
      <trkpt lat="47.94833" lon="6.78988">
        <ele>487.60000610352</ele>
        <time>2023-08-03T17:51:43.000Z</time>
      </trkpt>
      <trkpt lat="47.94833" lon="6.78988">
        <ele>487.60000610352</ele>
        <time>2023-08-03T17:51:44.000Z</time>
      </trkpt>
    </trkseg>
  </trk>
</gpx>